<?xml version='1.0' encoding='UTF-8'?><gpx version="1.1" creator="JPX - https://github.com/jenetics/jpx" xmlns="http://www.topografix.com/GPX/1/1"><trk><trkseg><trkpt lat="36.9960165" lon="14.4306192"><ele>111.0</ele><time>2026-05-03T06:28:51Z</time></trkpt><trkpt lat="36.9959546" lon="14.4305366"><ele>111.0</ele><time>2026-05-03T06:28:54Z</time></trkpt><trkpt lat="36.9958876" lon="14.430488"><ele>111.0</ele><time>2026-05-03T06:28:57Z</time></trkpt><trkpt lat="36.9958245" lon="14.4304388"><ele>111.0</ele><time>2026-05-03T06:29:00Z</time></trkpt><trkpt lat="36.9957976" lon="14.4303538"><ele>111.0</ele><time>2026-05-03T06:29:04Z</time></trkpt><trkpt lat="36.9958577" lon="14.4302225"><ele>111.0</ele><time>2026-05-03T06:29:06Z</time></trkpt><trkpt lat="36.9959023" lon="14.4301498"><ele>110.19999999999999</ele><time>2026-05-03T06:29:07Z</time></trkpt><trkpt lat="36.9959502" lon="14.4300627"><ele>109.39999999999999</ele><time>2026-05-03T06:29:08Z</time></trkpt><trkpt lat="36.9960105" lon="14.4299625"><ele>108.6</ele><time>2026-05-03T06:29:09Z</time></trkpt><trkpt lat="36.9960793" lon="14.4298386"><ele>107.8</ele><time>2026-05-03T06:29:10Z</time></trkpt><trkpt lat="36.9961532" lon="14.4297018"><ele>107.0</ele><time>2026-05-03T06:29:11Z</time></trkpt><trkpt lat="36.996236" lon="14.4295629"><ele>106.75</ele><time>2026-05-03T06:29:12Z</time></trkpt><trkpt lat="36.9963225" lon="14.4294173"><ele>106.5</ele><time>2026-05-03T06:29:13Z</time></trkpt><trkpt lat="36.9964153" lon="14.429269"><ele>106.25</ele><time>2026-05-03T06:29:14Z</time></trkpt><trkpt lat="36.996506" lon="14.4291161"><ele>106.0</ele><time>2026-05-03T06:29:15Z</time></trkpt><trkpt lat="36.9965911" lon="14.4289647"><ele>106.33333333333334</ele><time>2026-05-03T06:29:16Z</time></trkpt><trkpt lat="36.9966743" lon="14.4288104"><ele>106.66666666666666</ele><time>2026-05-03T06:29:17Z</time></trkpt><trkpt lat="36.9967655" lon="14.4286489"><ele>107.0</ele><time>2026-05-03T06:29:18Z</time></trkpt><trkpt lat="36.996869" lon="14.4284691"><ele>107.0</ele><time>2026-05-03T06:29:19Z</time></trkpt><trkpt lat="36.9969664" lon="14.4282807"><ele>107.0</ele><time>2026-05-03T06:29:20Z</time></trkpt><trkpt lat="36.9970722" lon="14.4280975"><ele>107.0</ele><time>2026-05-03T06:29:21Z</time></trkpt><trkpt lat="36.9971735" lon="14.4279074"><ele>106.0</ele><time>2026-05-03T06:29:22Z</time></trkpt><trkpt lat="36.9972793" lon="14.42773"><ele>105.0</ele><time>2026-05-03T06:29:23Z</time></trkpt><trkpt lat="36.9973849" lon="14.4275534"><ele>104.0</ele><time>2026-05-03T06:29:24Z</time></trkpt><trkpt lat="36.9974865" lon="14.4273719"><ele>105.0</ele><time>2026-05-03T06:29:25Z</time></trkpt><trkpt lat="36.9975858" lon="14.427193"><ele>106.0</ele><time>2026-05-03T06:29:26Z</time></trkpt><trkpt lat="36.9976846" lon="14.4270215"><ele>107.0</ele><time>2026-05-03T06:29:27Z</time></trkpt><trkpt lat="36.9977811" lon="14.4268534"><ele>107.0</ele><time>2026-05-03T06:29:28Z</time></trkpt><trkpt lat="36.997885" lon="14.4266745"><ele>107.0</ele><time>2026-05-03T06:29:29Z</time></trkpt><trkpt lat="36.9979929" lon="14.4264971"><ele>107.0</ele><time>2026-05-03T06:29:30Z</time></trkpt><trkpt lat="36.9980945" lon="14.4263193"><ele>106.66666666666666</ele><time>2026-05-03T06:29:31Z</time></trkpt><trkpt lat="36.9981963" lon="14.426143"><ele>106.33333333333334</ele><time>2026-05-03T06:29:32Z</time></trkpt><trkpt lat="36.9983012" lon="14.4259591"><ele>106.0</ele><time>2026-05-03T06:29:33Z</time></trkpt><trkpt lat="36.9984018" lon="14.4257783"><ele>106.0</ele><time>2026-05-03T06:29:34Z</time></trkpt><trkpt lat="36.9985076" lon="14.4255956"><ele>106.0</ele><time>2026-05-03T06:29:35Z</time></trkpt><trkpt lat="36.9986099" lon="14.4254164"><ele>106.0</ele><time>2026-05-03T06:29:36Z</time></trkpt><trkpt lat="36.9987187" lon="14.4252282"><ele>106.0</ele><time>2026-05-03T06:29:37Z</time></trkpt><trkpt lat="36.9988281" lon="14.425041"><ele>106.0</ele><time>2026-05-03T06:29:38Z</time></trkpt><trkpt lat="36.9989327" lon="14.4248533"><ele>106.0</ele><time>2026-05-03T06:29:39Z</time></trkpt><trkpt lat="36.9990371" lon="14.424672"><ele>105.66666666666667</ele><time>2026-05-03T06:29:40Z</time></trkpt><trkpt lat="36.9991445" lon="14.4244852"><ele>105.33333333333334</ele><time>2026-05-03T06:29:41Z</time></trkpt><trkpt lat="36.9992411" lon="14.4243"><ele>105.0</ele><time>2026-05-03T06:29:42Z</time></trkpt><trkpt lat="36.9993465" lon="14.4241146"><ele>104.66666666666666</ele><time>2026-05-03T06:29:43Z</time></trkpt><trkpt lat="36.999439" lon="14.4239382"><ele>104.33333333333333</ele><time>2026-05-03T06:29:44Z</time></trkpt><trkpt lat="36.9995309" lon="14.4237799"><ele>104.0</ele><time>2026-05-03T06:29:45Z</time></trkpt><trkpt lat="36.9996186" lon="14.4236286"><ele>104.0</ele><time>2026-05-03T06:29:46Z</time></trkpt><trkpt lat="36.9996958" lon="14.4234902"><ele>104.0</ele><time>2026-05-03T06:29:47Z</time></trkpt><trkpt lat="36.9997729" lon="14.4233632"><ele>104.0</ele><time>2026-05-03T06:29:48Z</time></trkpt><trkpt lat="36.9998451" lon="14.4232417"><ele>104.0</ele><time>2026-05-03T06:29:49Z</time></trkpt><trkpt lat="36.9999143" lon="14.4231247"><ele>104.0</ele><time>2026-05-03T06:29:50Z</time></trkpt><trkpt lat="36.999989" lon="14.4230079"><ele>104.0</ele><time>2026-05-03T06:29:51Z</time></trkpt><trkpt lat="37.0000548" lon="14.4228898"><ele>104.0</ele><time>2026-05-03T06:29:52Z</time></trkpt><trkpt lat="37.0001228" lon="14.4227644"><ele>104.0</ele><time>2026-05-03T06:29:53Z</time></trkpt><trkpt lat="37.0001853" lon="14.4226449"><ele>102.66666666666666</ele><time>2026-05-03T06:29:54Z</time></trkpt><trkpt lat="37.0002517" lon="14.422495"><ele>101.33333333333334</ele><time>2026-05-03T06:29:55Z</time></trkpt><trkpt lat="37.0003402" lon="14.4223095"><ele>100.0</ele><time>2026-05-03T06:29:56Z</time></trkpt><trkpt lat="37.000443" lon="14.4220813"><ele>99.66666666666667</ele><time>2026-05-03T06:29:57Z</time></trkpt><trkpt lat="37.000538" lon="14.4218266"><ele>99.33333333333334</ele><time>2026-05-03T06:29:58Z</time></trkpt><trkpt lat="37.0006322" lon="14.421578"><ele>99.0</ele><time>2026-05-03T06:29:59Z</time></trkpt><trkpt lat="37.0007228" lon="14.4213351"><ele>99.0</ele><time>2026-05-03T06:30:00Z</time></trkpt><trkpt lat="37.0008111" lon="14.4210941"><ele>99.0</ele><time>2026-05-03T06:30:01Z</time></trkpt><trkpt lat="37.0009003" lon="14.4208586"><ele>99.0</ele><time>2026-05-03T06:30:02Z</time></trkpt><trkpt lat="37.0009795" lon="14.4206351"><ele>97.0</ele><time>2026-05-03T06:30:03Z</time></trkpt><trkpt lat="37.0010593" lon="14.4204272"><ele>95.0</ele><time>2026-05-03T06:30:04Z</time></trkpt><trkpt lat="37.0011713" lon="14.4202497"><ele>93.0</ele><time>2026-05-03T06:30:05Z</time></trkpt><trkpt lat="37.0013127" lon="14.4201232"><ele>93.0</ele><time>2026-05-03T06:30:06Z</time></trkpt><trkpt lat="37.0014766" lon="14.4200195"><ele>93.0</ele><time>2026-05-03T06:30:07Z</time></trkpt><trkpt lat="37.001646" lon="14.4199232"><ele>93.0</ele><time>2026-05-03T06:30:08Z</time></trkpt><trkpt lat="37.0018205" lon="14.4198299"><ele>94.0</ele><time>2026-05-03T06:30:09Z</time></trkpt><trkpt lat="37.0019924" lon="14.4197319"><ele>95.0</ele><time>2026-05-03T06:30:10Z</time></trkpt><trkpt lat="37.0021785" lon="14.4196414"><ele>96.0</ele><time>2026-05-03T06:30:11Z</time></trkpt><trkpt lat="37.0023708" lon="14.4195932"><ele>93.33333333333333</ele><time>2026-05-03T06:30:12Z</time></trkpt><trkpt lat="37.0025661" lon="14.419558"><ele>90.66666666666666</ele><time>2026-05-03T06:30:13Z</time></trkpt><trkpt lat="37.0027639" lon="14.4195228"><ele>88.0</ele><time>2026-05-03T06:30:14Z</time></trkpt><trkpt lat="37.0029605" lon="14.4194922"><ele>88.0</ele><time>2026-05-03T06:30:15Z</time></trkpt><trkpt lat="37.0031612" lon="14.4194649"><ele>88.0</ele><time>2026-05-03T06:30:16Z</time></trkpt><trkpt lat="37.0033679" lon="14.4194402"><ele>88.0</ele><time>2026-05-03T06:30:17Z</time></trkpt><trkpt lat="37.0035627" lon="14.4194115"><ele>87.66666666666666</ele><time>2026-05-03T06:30:18Z</time></trkpt><trkpt lat="37.0037589" lon="14.4193896"><ele>87.33333333333333</ele><time>2026-05-03T06:30:19Z</time></trkpt><trkpt lat="37.0039516" lon="14.4193619"><ele>87.0</ele><time>2026-05-03T06:30:20Z</time></trkpt><trkpt lat="37.0041449" lon="14.4193369"><ele>86.33333333333333</ele><time>2026-05-03T06:30:21Z</time></trkpt><trkpt lat="37.0043253" lon="14.419302"><ele>85.66666666666666</ele><time>2026-05-03T06:30:22Z</time></trkpt><trkpt lat="37.0045006" lon="14.4192342"><ele>85.0</ele><time>2026-05-03T06:30:23Z</time></trkpt><trkpt lat="37.0046638" lon="14.4191116"><ele>85.0</ele><time>2026-05-03T06:30:24Z</time></trkpt><trkpt lat="37.0048345" lon="14.4189721"><ele>85.0</ele><time>2026-05-03T06:30:25Z</time></trkpt><trkpt lat="37.0050193" lon="14.4188415"><ele>85.0</ele><time>2026-05-03T06:30:26Z</time></trkpt><trkpt lat="37.0052213" lon="14.418687"><ele>83.5</ele><time>2026-05-03T06:30:27Z</time></trkpt><trkpt lat="37.0054346" lon="14.4185421"><ele>82.0</ele><time>2026-05-03T06:30:28Z</time></trkpt><trkpt lat="37.0056627" lon="14.4183954"><ele>82.5</ele><time>2026-05-03T06:30:29Z</time></trkpt><trkpt lat="37.0058845" lon="14.4182565"><ele>83.0</ele><time>2026-05-03T06:30:30Z</time></trkpt><trkpt lat="37.0061046" lon="14.4181193"><ele>82.5</ele><time>2026-05-03T06:30:31Z</time></trkpt><trkpt lat="37.0063267" lon="14.4179732"><ele>82.0</ele><time>2026-05-03T06:30:32Z</time></trkpt><trkpt lat="37.0065412" lon="14.4178375"><ele>80.5</ele><time>2026-05-03T06:30:33Z</time></trkpt><trkpt lat="37.0067551" lon="14.4176934"><ele>79.0</ele><time>2026-05-03T06:30:34Z</time></trkpt><trkpt lat="37.0069703" lon="14.4175575"><ele>79.0</ele><time>2026-05-03T06:30:35Z</time></trkpt><trkpt lat="37.007182" lon="14.4174261"><ele>79.0</ele><time>2026-05-03T06:30:36Z</time></trkpt><trkpt lat="37.0073937" lon="14.4172963"><ele>79.0</ele><time>2026-05-03T06:30:36.999Z</time></trkpt><trkpt lat="37.007599" lon="14.4171599"><ele>79.0</ele><time>2026-05-03T06:30:38Z</time></trkpt><trkpt lat="37.0077985" lon="14.4170128"><ele>77.0</ele><time>2026-05-03T06:30:39Z</time></trkpt><trkpt lat="37.0080028" lon="14.4168646"><ele>75.0</ele><time>2026-05-03T06:30:40Z</time></trkpt><trkpt lat="37.0082021" lon="14.4167143"><ele>74.5</ele><time>2026-05-03T06:30:41Z</time></trkpt><trkpt lat="37.0084021" lon="14.4165655"><ele>74.0</ele><time>2026-05-03T06:30:42Z</time></trkpt><trkpt lat="37.008604" lon="14.4164123"><ele>73.0</ele><time>2026-05-03T06:30:43Z</time></trkpt><trkpt lat="37.0088043" lon="14.4162622"><ele>72.0</ele><time>2026-05-03T06:30:44Z</time></trkpt><trkpt lat="37.0090004" lon="14.4161101"><ele>72.0</ele><time>2026-05-03T06:30:45Z</time></trkpt><trkpt lat="37.0091959" lon="14.4159704"><ele>72.0</ele><time>2026-05-03T06:30:46Z</time></trkpt><trkpt lat="37.0093911" lon="14.4158313"><ele>72.0</ele><time>2026-05-03T06:30:47Z</time></trkpt><trkpt lat="37.0095989" lon="14.4157072"><ele>72.0</ele><time>2026-05-03T06:30:48Z</time></trkpt><trkpt lat="37.0098215" lon="14.4156245"><ele>72.5</ele><time>2026-05-03T06:30:49Z</time></trkpt><trkpt lat="37.0100509" lon="14.4155738"><ele>73.0</ele><time>2026-05-03T06:30:50Z</time></trkpt><trkpt lat="37.0102861" lon="14.4155104"><ele>69.5</ele><time>2026-05-03T06:30:51Z</time></trkpt><trkpt lat="37.0105043" lon="14.4154238"><ele>66.0</ele><time>2026-05-03T06:30:52Z</time></trkpt><trkpt lat="37.0107237" lon="14.4153056"><ele>65.0</ele><time>2026-05-03T06:30:53Z</time></trkpt><trkpt lat="37.0109531" lon="14.4151784"><ele>64.0</ele><time>2026-05-03T06:30:54Z</time></trkpt><trkpt lat="37.0111834" lon="14.4150463"><ele>64.0</ele><time>2026-05-03T06:30:55Z</time></trkpt><trkpt lat="37.0114224" lon="14.4149107"><ele>64.0</ele><time>2026-05-03T06:30:56Z</time></trkpt><trkpt lat="37.0116617" lon="14.4147742"><ele>63.5</ele><time>2026-05-03T06:30:57Z</time></trkpt><trkpt lat="37.0118985" lon="14.4146325"><ele>63.0</ele><time>2026-05-03T06:30:58Z</time></trkpt><trkpt lat="37.0121324" lon="14.4144995"><ele>63.0</ele><time>2026-05-03T06:30:59Z</time></trkpt><trkpt lat="37.0123652" lon="14.4143661"><ele>63.0</ele><time>2026-05-03T06:31:00Z</time></trkpt><trkpt lat="37.0125996" lon="14.4142279"><ele>60.0</ele><time>2026-05-03T06:31:01Z</time></trkpt><trkpt lat="37.0128286" lon="14.4140947"><ele>57.0</ele><time>2026-05-03T06:31:02Z</time></trkpt><trkpt lat="37.0130615" lon="14.4139611"><ele>57.0</ele><time>2026-05-03T06:31:03Z</time></trkpt><trkpt lat="37.0132894" lon="14.413825"><ele>57.0</ele><time>2026-05-03T06:31:04Z</time></trkpt><trkpt lat="37.0135215" lon="14.4136907"><ele>58.5</ele><time>2026-05-03T06:31:05Z</time></trkpt><trkpt lat="37.0137519" lon="14.4135565"><ele>60.0</ele><time>2026-05-03T06:31:06Z</time></trkpt><trkpt lat="37.0139831" lon="14.4134282"><ele>56.5</ele><time>2026-05-03T06:31:07Z</time></trkpt><trkpt lat="37.0142101" lon="14.4133021"><ele>53.0</ele><time>2026-05-03T06:31:08Z</time></trkpt><trkpt lat="37.014438" lon="14.4131716"><ele>53.0</ele><time>2026-05-03T06:31:09Z</time></trkpt><trkpt lat="37.0146651" lon="14.4130386"><ele>53.0</ele><time>2026-05-03T06:31:10Z</time></trkpt><trkpt lat="37.0148975" lon="14.4129021"><ele>52.0</ele><time>2026-05-03T06:31:11Z</time></trkpt><trkpt lat="37.0151304" lon="14.4127685"><ele>51.0</ele><time>2026-05-03T06:31:11.999Z</time></trkpt><trkpt lat="37.0153583" lon="14.412638"><ele>51.0</ele><time>2026-05-03T06:31:13Z</time></trkpt><trkpt lat="37.0155881" lon="14.4125042"><ele>51.0</ele><time>2026-05-03T06:31:14Z</time></trkpt><trkpt lat="37.0158145" lon="14.4123709"><ele>48.5</ele><time>2026-05-03T06:31:15Z</time></trkpt><trkpt lat="37.0160449" lon="14.4122301"><ele>46.0</ele><time>2026-05-03T06:31:16Z</time></trkpt><trkpt lat="37.0162713" lon="14.4120981"><ele>46.0</ele><time>2026-05-03T06:31:17Z</time></trkpt><trkpt lat="37.0165012" lon="14.4119682"><ele>46.0</ele><time>2026-05-03T06:31:18Z</time></trkpt><trkpt lat="37.0167327" lon="14.4118356"><ele>44.5</ele><time>2026-05-03T06:31:19Z</time></trkpt><trkpt lat="37.016956" lon="14.4117055"><ele>43.0</ele><time>2026-05-03T06:31:20Z</time></trkpt><trkpt lat="37.0171827" lon="14.4115729"><ele>43.0</ele><time>2026-05-03T06:31:21Z</time></trkpt><trkpt lat="37.0174097" lon="14.4114445"><ele>43.0</ele><time>2026-05-03T06:31:22Z</time></trkpt><trkpt lat="37.017641" lon="14.4113093"><ele>41.5</ele><time>2026-05-03T06:31:23Z</time></trkpt><trkpt lat="37.0178679" lon="14.4111801"><ele>40.0</ele><time>2026-05-03T06:31:24Z</time></trkpt><trkpt lat="37.0180935" lon="14.4110475"><ele>39.0</ele><time>2026-05-03T06:31:25Z</time></trkpt><trkpt lat="37.0183251" lon="14.4109034"><ele>38.0</ele><time>2026-05-03T06:31:25.999Z</time></trkpt><trkpt lat="37.0185594" lon="14.4107605"><ele>38.0</ele><time>2026-05-03T06:31:27Z</time></trkpt><trkpt lat="37.0187947" lon="14.4106178"><ele>38.0</ele><time>2026-05-03T06:31:28Z</time></trkpt><trkpt lat="37.0190252" lon="14.4104804"><ele>35.5</ele><time>2026-05-03T06:31:29Z</time></trkpt><trkpt lat="37.0192571" lon="14.4103438"><ele>33.0</ele><time>2026-05-03T06:31:30Z</time></trkpt><trkpt lat="37.0194881" lon="14.4102131"><ele>33.0</ele><time>2026-05-03T06:31:31Z</time></trkpt><trkpt lat="37.0197115" lon="14.4100828"><ele>33.0</ele><time>2026-05-03T06:31:32Z</time></trkpt><trkpt lat="37.0199367" lon="14.4099534"><ele>33.5</ele><time>2026-05-03T06:31:33Z</time></trkpt><trkpt lat="37.0201542" lon="14.4098153"><ele>34.0</ele><time>2026-05-03T06:31:34Z</time></trkpt><trkpt lat="37.0203732" lon="14.4096814"><ele>31.5</ele><time>2026-05-03T06:31:35Z</time></trkpt><trkpt lat="37.0205909" lon="14.4095547"><ele>29.0</ele><time>2026-05-03T06:31:36Z</time></trkpt><trkpt lat="37.0208027" lon="14.4094288"><ele>30.5</ele><time>2026-05-03T06:31:37Z</time></trkpt><trkpt lat="37.0210102" lon="14.4093062"><ele>32.0</ele><time>2026-05-03T06:31:38Z</time></trkpt><trkpt lat="37.0212134" lon="14.4091856"><ele>32.0</ele><time>2026-05-03T06:31:39Z</time></trkpt><trkpt lat="37.0214124" lon="14.4090571"><ele>32.0</ele><time>2026-05-03T06:31:40Z</time></trkpt><trkpt lat="37.0216107" lon="14.4089349"><ele>32.0</ele><time>2026-05-03T06:31:41Z</time></trkpt><trkpt lat="37.0218063" lon="14.4088119"><ele>31.333333333333332</ele><time>2026-05-03T06:31:42Z</time></trkpt><trkpt lat="37.0219973" lon="14.4086991"><ele>30.666666666666664</ele><time>2026-05-03T06:31:43Z</time></trkpt><trkpt lat="37.0221819" lon="14.4085922"><ele>30.0</ele><time>2026-05-03T06:31:44Z</time></trkpt><trkpt lat="37.0223647" lon="14.4084857"><ele>30.0</ele><time>2026-05-03T06:31:45Z</time></trkpt><trkpt lat="37.022551" lon="14.4083846"><ele>30.0</ele><time>2026-05-03T06:31:46Z</time></trkpt><trkpt lat="37.022739" lon="14.4082936"><ele>30.0</ele><time>2026-05-03T06:31:47Z</time></trkpt><trkpt lat="37.02293" lon="14.4082302"><ele>30.0</ele><time>2026-05-03T06:31:48Z</time></trkpt><trkpt lat="37.0231263" lon="14.4081861"><ele>30.0</ele><time>2026-05-03T06:31:49Z</time></trkpt><trkpt lat="37.0233202" lon="14.4081561"><ele>30.0</ele><time>2026-05-03T06:31:50Z</time></trkpt><trkpt lat="37.023518" lon="14.4081329"><ele>29.0</ele><time>2026-05-03T06:31:51Z</time></trkpt><trkpt lat="37.0237162" lon="14.4081032"><ele>28.0</ele><time>2026-05-03T06:31:52Z</time></trkpt><trkpt lat="37.0239207" lon="14.408077"><ele>27.0</ele><time>2026-05-03T06:31:53Z</time></trkpt><trkpt lat="37.0241336" lon="14.4080531"><ele>27.333333333333336</ele><time>2026-05-03T06:31:54Z</time></trkpt><trkpt lat="37.0243444" lon="14.4080276"><ele>27.666666666666668</ele><time>2026-05-03T06:31:55Z</time></trkpt><trkpt lat="37.0245558" lon="14.4080039"><ele>28.0</ele><time>2026-05-03T06:31:56Z</time></trkpt><trkpt lat="37.0247679" lon="14.4079697"><ele>28.0</ele><time>2026-05-03T06:31:57Z</time></trkpt><trkpt lat="37.0249905" lon="14.407937"><ele>28.0</ele><time>2026-05-03T06:31:58Z</time></trkpt><trkpt lat="37.0252087" lon="14.4079054"><ele>28.0</ele><time>2026-05-03T06:31:59Z</time></trkpt><trkpt lat="37.0254243" lon="14.4078807"><ele>28.0</ele><time>2026-05-03T06:32:00Z</time></trkpt><trkpt lat="37.0256307" lon="14.4078554"><ele>28.0</ele><time>2026-05-03T06:32:01Z</time></trkpt><trkpt lat="37.0258325" lon="14.40783"><ele>28.0</ele><time>2026-05-03T06:32:02Z</time></trkpt><trkpt lat="37.0260253" lon="14.4078007"><ele>28.0</ele><time>2026-05-03T06:32:03Z</time></trkpt><trkpt lat="37.0262118" lon="14.4077698"><ele>28.0</ele><time>2026-05-03T06:32:04Z</time></trkpt><trkpt lat="37.0263967" lon="14.4077238"><ele>28.0</ele><time>2026-05-03T06:32:05Z</time></trkpt><trkpt lat="37.0265799" lon="14.407661"><ele>28.0</ele><time>2026-05-03T06:32:06Z</time></trkpt><trkpt lat="37.0267626" lon="14.4075767"><ele>28.0</ele><time>2026-05-03T06:32:07Z</time></trkpt><trkpt lat="37.026948" lon="14.4074727"><ele>28.0</ele><time>2026-05-03T06:32:08Z</time></trkpt><trkpt lat="37.0271574" lon="14.4073274"><ele>28.0</ele><time>2026-05-03T06:32:09Z</time></trkpt><trkpt lat="37.0273785" lon="14.4071684"><ele>28.0</ele><time>2026-05-03T06:32:10Z</time></trkpt><trkpt lat="37.0276272" lon="14.407011"><ele>28.5</ele><time>2026-05-03T06:32:11Z</time></trkpt><trkpt lat="37.0278891" lon="14.4068625"><ele>29.0</ele><time>2026-05-03T06:32:12Z</time></trkpt><trkpt lat="37.0281459" lon="14.4067166"><ele>29.5</ele><time>2026-05-03T06:32:13Z</time></trkpt><trkpt lat="37.0284088" lon="14.4065639"><ele>30.0</ele><time>2026-05-03T06:32:14Z</time></trkpt><trkpt lat="37.0286625" lon="14.4064"><ele>30.0</ele><time>2026-05-03T06:32:15Z</time></trkpt><trkpt lat="37.0289191" lon="14.4062422"><ele>30.0</ele><time>2026-05-03T06:32:16Z</time></trkpt><trkpt lat="37.0291721" lon="14.4060815"><ele>30.0</ele><time>2026-05-03T06:32:17Z</time></trkpt><trkpt lat="37.0294313" lon="14.4059189"><ele>30.0</ele><time>2026-05-03T06:32:18Z</time></trkpt><trkpt lat="37.0296808" lon="14.4057645"><ele>30.0</ele><time>2026-05-03T06:32:19Z</time></trkpt><trkpt lat="37.029927" lon="14.4056073"><ele>30.0</ele><time>2026-05-03T06:32:20Z</time></trkpt><trkpt lat="37.0301723" lon="14.405453"><ele>30.5</ele><time>2026-05-03T06:32:21Z</time></trkpt><trkpt lat="37.0304194" lon="14.4053008"><ele>31.0</ele><time>2026-05-03T06:32:22Z</time></trkpt><trkpt lat="37.030659" lon="14.4051452"><ele>30.5</ele><time>2026-05-03T06:32:23Z</time></trkpt><trkpt lat="37.0308897" lon="14.4049982"><ele>30.0</ele><time>2026-05-03T06:32:24Z</time></trkpt><trkpt lat="37.031119" lon="14.4048509"><ele>30.0</ele><time>2026-05-03T06:32:25Z</time></trkpt><trkpt lat="37.0313404" lon="14.4047121"><ele>30.0</ele><time>2026-05-03T06:32:26Z</time></trkpt><trkpt lat="37.031553" lon="14.404581"><ele>32.0</ele><time>2026-05-03T06:32:27Z</time></trkpt><trkpt lat="37.031757" lon="14.4044261"><ele>34.0</ele><time>2026-05-03T06:32:28Z</time></trkpt><trkpt lat="37.0319281" lon="14.4042246"><ele>34.0</ele><time>2026-05-03T06:32:28.999Z</time></trkpt><trkpt lat="37.0320832" lon="14.4039792"><ele>34.0</ele><time>2026-05-03T06:32:30Z</time></trkpt><trkpt lat="37.0322374" lon="14.4037274"><ele>35.0</ele><time>2026-05-03T06:32:31Z</time></trkpt><trkpt lat="37.0323921" lon="14.403466"><ele>36.0</ele><time>2026-05-03T06:32:32Z</time></trkpt><trkpt lat="37.0325424" lon="14.4032044"><ele>43.0</ele><time>2026-05-03T06:32:33Z</time></trkpt><trkpt lat="37.032697" lon="14.4029447"><ele>50.0</ele><time>2026-05-03T06:32:33.999Z</time></trkpt><trkpt lat="37.0328573" lon="14.4026991"><ele>50.0</ele><time>2026-05-03T06:32:35Z</time></trkpt><trkpt lat="37.033023" lon="14.4024732"><ele>50.0</ele><time>2026-05-03T06:32:36Z</time></trkpt><trkpt lat="37.0331557" lon="14.4022603"><ele>49.66666666666667</ele><time>2026-05-03T06:32:37Z</time></trkpt><trkpt lat="37.0332511" lon="14.4020303"><ele>49.33333333333333</ele><time>2026-05-03T06:32:38Z</time></trkpt><trkpt lat="37.0333044" lon="14.4017739"><ele>49.0</ele><time>2026-05-03T06:32:39Z</time></trkpt><trkpt lat="37.0333241" lon="14.4014999"><ele>45.0</ele><time>2026-05-03T06:32:40Z</time></trkpt><trkpt lat="37.0333539" lon="14.4012102"><ele>41.0</ele><time>2026-05-03T06:32:41Z</time></trkpt><trkpt lat="37.0333784" lon="14.4009095"><ele>41.0</ele><time>2026-05-03T06:32:42Z</time></trkpt><trkpt lat="37.0334011" lon="14.4006026"><ele>41.0</ele><time>2026-05-03T06:32:43Z</time></trkpt><trkpt lat="37.0334251" lon="14.4002959"><ele>39.5</ele><time>2026-05-03T06:32:44Z</time></trkpt><trkpt lat="37.0334547" lon="14.399988"><ele>38.0</ele><time>2026-05-03T06:32:45Z</time></trkpt><trkpt lat="37.033478" lon="14.3996821"><ele>37.5</ele><time>2026-05-03T06:32:46Z</time></trkpt><trkpt lat="37.0335069" lon="14.399371"><ele>37.0</ele><time>2026-05-03T06:32:47Z</time></trkpt><trkpt lat="37.0335304" lon="14.3990639"><ele>35.5</ele><time>2026-05-03T06:32:48Z</time></trkpt><trkpt lat="37.0335534" lon="14.3987582"><ele>34.0</ele><time>2026-05-03T06:32:49Z</time></trkpt><trkpt lat="37.0335812" lon="14.3984491"><ele>34.0</ele><time>2026-05-03T06:32:50Z</time></trkpt><trkpt lat="37.033613" lon="14.3981427"><ele>34.0</ele><time>2026-05-03T06:32:51Z</time></trkpt><trkpt lat="37.0336564" lon="14.3978407"><ele>33.0</ele><time>2026-05-03T06:32:52Z</time></trkpt><trkpt lat="37.0337193" lon="14.397554"><ele>32.0</ele><time>2026-05-03T06:32:53Z</time></trkpt><trkpt lat="37.0337988" lon="14.3972829"><ele>31.5</ele><time>2026-05-03T06:32:54Z</time></trkpt><trkpt lat="37.033918" lon="14.3970187"><ele>31.0</ele><time>2026-05-03T06:32:55Z</time></trkpt><trkpt lat="37.0340709" lon="14.3967798"><ele>33.5</ele><time>2026-05-03T06:32:56Z</time></trkpt><trkpt lat="37.0342393" lon="14.3965318"><ele>36.0</ele><time>2026-05-03T06:32:57Z</time></trkpt><trkpt lat="37.0344046" lon="14.3962865"><ele>36.5</ele><time>2026-05-03T06:32:58Z</time></trkpt><trkpt lat="37.0345782" lon="14.3960539"><ele>37.0</ele><time>2026-05-03T06:32:59Z</time></trkpt><trkpt lat="37.0347697" lon="14.3958334"><ele>36.5</ele><time>2026-05-03T06:33:00Z</time></trkpt><trkpt lat="37.0349829" lon="14.395652"><ele>36.0</ele><time>2026-05-03T06:33:01Z</time></trkpt><trkpt lat="37.0352113" lon="14.3954913"><ele>36.0</ele><time>2026-05-03T06:33:02Z</time></trkpt><trkpt lat="37.0354354" lon="14.3953299"><ele>36.0</ele><time>2026-05-03T06:33:03Z</time></trkpt><trkpt lat="37.0356562" lon="14.3951505"><ele>36.5</ele><time>2026-05-03T06:33:04Z</time></trkpt><trkpt lat="37.0358638" lon="14.3949649"><ele>37.0</ele><time>2026-05-03T06:33:05Z</time></trkpt><trkpt lat="37.0360639" lon="14.3947735"><ele>37.0</ele><time>2026-05-03T06:33:06Z</time></trkpt><trkpt lat="37.0362655" lon="14.3945727"><ele>37.0</ele><time>2026-05-03T06:33:07Z</time></trkpt><trkpt lat="37.0364649" lon="14.3943691"><ele>38.0</ele><time>2026-05-03T06:33:08Z</time></trkpt><trkpt lat="37.0366638" lon="14.3941592"><ele>39.0</ele><time>2026-05-03T06:33:09Z</time></trkpt><trkpt lat="37.0368646" lon="14.3939482"><ele>39.5</ele><time>2026-05-03T06:33:10Z</time></trkpt><trkpt lat="37.0370675" lon="14.3937399"><ele>40.0</ele><time>2026-05-03T06:33:11Z</time></trkpt><trkpt lat="37.0372619" lon="14.3935366"><ele>40.0</ele><time>2026-05-03T06:33:12Z</time></trkpt><trkpt lat="37.0374601" lon="14.3933194"><ele>40.0</ele><time>2026-05-03T06:33:13Z</time></trkpt><trkpt lat="37.0376533" lon="14.393101"><ele>40.0</ele><time>2026-05-03T06:33:14Z</time></trkpt><trkpt lat="37.0378445" lon="14.392881"><ele>40.0</ele><time>2026-05-03T06:33:15Z</time></trkpt><trkpt lat="37.0380366" lon="14.392664"><ele>40.0</ele><time>2026-05-03T06:33:16Z</time></trkpt><trkpt lat="37.0382242" lon="14.3924534"><ele>40.0</ele><time>2026-05-03T06:33:17Z</time></trkpt><trkpt lat="37.038408" lon="14.392245"><ele>40.5</ele><time>2026-05-03T06:33:18Z</time></trkpt><trkpt lat="37.0385777" lon="14.3920415"><ele>41.0</ele><time>2026-05-03T06:33:19Z</time></trkpt><trkpt lat="37.0387418" lon="14.3918489"><ele>41.0</ele><time>2026-05-03T06:33:20Z</time></trkpt><trkpt lat="37.0389154" lon="14.3916521"><ele>41.0</ele><time>2026-05-03T06:33:21Z</time></trkpt><trkpt lat="37.0390888" lon="14.3914615"><ele>42.5</ele><time>2026-05-03T06:33:22Z</time></trkpt><trkpt lat="37.0392685" lon="14.3912768"><ele>44.0</ele><time>2026-05-03T06:33:23Z</time></trkpt><trkpt lat="37.0394551" lon="14.3910909"><ele>44.0</ele><time>2026-05-03T06:33:24Z</time></trkpt><trkpt lat="37.0396395" lon="14.3909122"><ele>44.0</ele><time>2026-05-03T06:33:25Z</time></trkpt><trkpt lat="37.0398242" lon="14.3907304"><ele>46.0</ele><time>2026-05-03T06:33:26Z</time></trkpt><trkpt lat="37.0400062" lon="14.3905509"><ele>48.0</ele><time>2026-05-03T06:33:27Z</time></trkpt><trkpt lat="37.0401928" lon="14.3903668"><ele>50.0</ele><time>2026-05-03T06:33:28Z</time></trkpt><trkpt lat="37.0403791" lon="14.3901835"><ele>52.0</ele><time>2026-05-03T06:33:29Z</time></trkpt><trkpt lat="37.0405705" lon="14.3899945"><ele>52.0</ele><time>2026-05-03T06:33:30Z</time></trkpt><trkpt lat="37.040757" lon="14.3898098"><ele>52.0</ele><time>2026-05-03T06:33:31Z</time></trkpt><trkpt lat="37.0409486" lon="14.3896275"><ele>54.0</ele><time>2026-05-03T06:33:32Z</time></trkpt><trkpt lat="37.0411397" lon="14.3894438"><ele>56.0</ele><time>2026-05-03T06:33:33Z</time></trkpt><trkpt lat="37.0413336" lon="14.389256"><ele>56.0</ele><time>2026-05-03T06:33:34Z</time></trkpt><trkpt lat="37.0415267" lon="14.3890686"><ele>56.0</ele><time>2026-05-03T06:33:35Z</time></trkpt><trkpt lat="37.0417232" lon="14.3888813"><ele>59.5</ele><time>2026-05-03T06:33:36Z</time></trkpt><trkpt lat="37.0419236" lon="14.3887069"><ele>63.0</ele><time>2026-05-03T06:33:37Z</time></trkpt><trkpt lat="37.0421202" lon="14.3885379"><ele>63.0</ele><time>2026-05-03T06:33:38Z</time></trkpt><trkpt lat="37.0423083" lon="14.3883735"><ele>63.0</ele><time>2026-05-03T06:33:39Z</time></trkpt><trkpt lat="37.0424803" lon="14.3882167"><ele>63.0</ele><time>2026-05-03T06:33:40Z</time></trkpt><trkpt lat="37.0426355" lon="14.3880362"><ele>68.0</ele><time>2026-05-03T06:33:41Z</time></trkpt><trkpt lat="37.0427585" lon="14.3878047"><ele>73.0</ele><time>2026-05-03T06:33:42Z</time></trkpt><trkpt lat="37.0428651" lon="14.3875516"><ele>73.0</ele><time>2026-05-03T06:33:43Z</time></trkpt><trkpt lat="37.0429669" lon="14.3872898"><ele>73.0</ele><time>2026-05-03T06:33:44Z</time></trkpt><trkpt lat="37.0430689" lon="14.3870254"><ele>79.5</ele><time>2026-05-03T06:33:45Z</time></trkpt><trkpt lat="37.0431729" lon="14.386746"><ele>86.0</ele><time>2026-05-03T06:33:46Z</time></trkpt><trkpt lat="37.0432847" lon="14.3864698"><ele>79.0</ele><time>2026-05-03T06:33:47Z</time></trkpt><trkpt lat="37.0434095" lon="14.3861971"><ele>72.0</ele><time>2026-05-03T06:33:48Z</time></trkpt><trkpt lat="37.0435576" lon="14.3859275"><ele>72.0</ele><time>2026-05-03T06:33:49Z</time></trkpt><trkpt lat="37.0437199" lon="14.3856669"><ele>72.0</ele><time>2026-05-03T06:33:50Z</time></trkpt><trkpt lat="37.0438806" lon="14.385426"><ele>74.0</ele><time>2026-05-03T06:33:50.999Z</time></trkpt><trkpt lat="37.0440349" lon="14.3851954"><ele>76.0</ele><time>2026-05-03T06:33:52Z</time></trkpt><trkpt lat="37.0441771" lon="14.3849733"><ele>76.0</ele><time>2026-05-03T06:33:53Z</time></trkpt><trkpt lat="37.0443114" lon="14.3847663"><ele>76.0</ele><time>2026-05-03T06:33:53.999Z</time></trkpt><trkpt lat="37.0444342" lon="14.3845825"><ele>76.0</ele><time>2026-05-03T06:33:55Z</time></trkpt><trkpt lat="37.0445481" lon="14.3844134"><ele>78.0</ele><time>2026-05-03T06:33:56Z</time></trkpt><trkpt lat="37.0446636" lon="14.3842827"><ele>80.0</ele><time>2026-05-03T06:33:57Z</time></trkpt><trkpt lat="37.0447976" lon="14.3842142"><ele>82.0</ele><time>2026-05-03T06:33:58Z</time></trkpt><trkpt lat="37.0449642" lon="14.3842041"><ele>82.0</ele><time>2026-05-03T06:33:59Z</time></trkpt><trkpt lat="37.0451577" lon="14.3842358"><ele>82.0</ele><time>2026-05-03T06:34:00Z</time></trkpt><trkpt lat="37.0453376" lon="14.3842733"><ele>82.0</ele><time>2026-05-03T06:34:01Z</time></trkpt><trkpt lat="37.0455004" lon="14.3843284"><ele>82.0</ele><time>2026-05-03T06:34:02Z</time></trkpt><trkpt lat="37.0456312" lon="14.3844184"><ele>82.0</ele><time>2026-05-03T06:34:03Z</time></trkpt><trkpt lat="37.0457161" lon="14.3845575"><ele>82.0</ele><time>2026-05-03T06:34:04Z</time></trkpt><trkpt lat="37.0457677" lon="14.3847524"><ele>83.0</ele><time>2026-05-03T06:34:05Z</time></trkpt><trkpt lat="37.0457948" lon="14.3849572"><ele>84.0</ele><time>2026-05-03T06:34:06Z</time></trkpt><trkpt lat="37.0458536" lon="14.3851467"><ele>85.0</ele><time>2026-05-03T06:34:07Z</time></trkpt><trkpt lat="37.045957" lon="14.3853221"><ele>85.0</ele><time>2026-05-03T06:34:08Z</time></trkpt><trkpt lat="37.0461037" lon="14.3854714"><ele>85.0</ele><time>2026-05-03T06:34:09Z</time></trkpt><trkpt lat="37.0462726" lon="14.3856048"><ele>85.0</ele><time>2026-05-03T06:34:10Z</time></trkpt><trkpt lat="37.0464337" lon="14.3857147"><ele>85.0</ele><time>2026-05-03T06:34:11Z</time></trkpt><trkpt lat="37.0466079" lon="14.3857767"><ele>85.0</ele><time>2026-05-03T06:34:12Z</time></trkpt><trkpt lat="37.0468236" lon="14.3857779"><ele>85.0</ele><time>2026-05-03T06:34:13Z</time></trkpt><trkpt lat="37.0470602" lon="14.3857313"><ele>91.0</ele><time>2026-05-03T06:34:14Z</time></trkpt><trkpt lat="37.0472948" lon="14.3856585"><ele>97.0</ele><time>2026-05-03T06:34:15Z</time></trkpt><trkpt lat="37.0475279" lon="14.3855592"><ele>102.0</ele><time>2026-05-03T06:34:16Z</time></trkpt><trkpt lat="37.0477444" lon="14.3854243"><ele>107.0</ele><time>2026-05-03T06:34:17Z</time></trkpt><trkpt lat="37.0479517" lon="14.3852878"><ele>107.0</ele><time>2026-05-03T06:34:18Z</time></trkpt><trkpt lat="37.0481518" lon="14.3851517"><ele>107.0</ele><time>2026-05-03T06:34:19Z</time></trkpt><trkpt lat="37.0483523" lon="14.3850083"><ele>105.0</ele><time>2026-05-03T06:34:20Z</time></trkpt><trkpt lat="37.048548" lon="14.3848708"><ele>103.0</ele><time>2026-05-03T06:34:21Z</time></trkpt><trkpt lat="37.0487488" lon="14.3847249"><ele>103.33333333333334</ele><time>2026-05-03T06:34:22Z</time></trkpt><trkpt lat="37.0489501" lon="14.3845825"><ele>103.66666666666666</ele><time>2026-05-03T06:34:23Z</time></trkpt><trkpt lat="37.0491315" lon="14.3844636"><ele>104.0</ele><time>2026-05-03T06:34:24Z</time></trkpt><trkpt lat="37.0492944" lon="14.3843203"><ele>101.0</ele><time>2026-05-03T06:34:25Z</time></trkpt><trkpt lat="37.0494381" lon="14.3841288"><ele>98.0</ele><time>2026-05-03T06:34:26Z</time></trkpt><trkpt lat="37.0495586" lon="14.3838955"><ele>95.0</ele><time>2026-05-03T06:34:27Z</time></trkpt><trkpt lat="37.0496799" lon="14.3836401"><ele>93.5</ele><time>2026-05-03T06:34:28Z</time></trkpt><trkpt lat="37.0498025" lon="14.383377"><ele>92.0</ele><time>2026-05-03T06:34:29Z</time></trkpt><trkpt lat="37.0499241" lon="14.3831025"><ele>89.5</ele><time>2026-05-03T06:34:30Z</time></trkpt><trkpt lat="37.0500519" lon="14.3828325"><ele>87.0</ele><time>2026-05-03T06:34:31Z</time></trkpt><trkpt lat="37.0501733" lon="14.3825525"><ele>87.0</ele><time>2026-05-03T06:34:32Z</time></trkpt><trkpt lat="37.0502967" lon="14.3822753"><ele>87.0</ele><time>2026-05-03T06:34:33Z</time></trkpt><trkpt lat="37.0504263" lon="14.3819961"><ele>87.5</ele><time>2026-05-03T06:34:34Z</time></trkpt><trkpt lat="37.0505493" lon="14.3817168"><ele>88.0</ele><time>2026-05-03T06:34:35Z</time></trkpt><trkpt lat="37.0506707" lon="14.3814377"><ele>83.5</ele><time>2026-05-03T06:34:36Z</time></trkpt><trkpt lat="37.0508012" lon="14.3811584"><ele>79.0</ele><time>2026-05-03T06:34:37Z</time></trkpt><trkpt lat="37.050926" lon="14.380878"><ele>79.0</ele><time>2026-05-03T06:34:38Z</time></trkpt><trkpt lat="37.0510505" lon="14.3805944"><ele>79.0</ele><time>2026-05-03T06:34:39Z</time></trkpt><trkpt lat="37.0511765" lon="14.3803107"><ele>78.5</ele><time>2026-05-03T06:34:40Z</time></trkpt><trkpt lat="37.0513035" lon="14.3800278"><ele>78.0</ele><time>2026-05-03T06:34:41Z</time></trkpt><trkpt lat="37.0514376" lon="14.3797411"><ele>77.5</ele><time>2026-05-03T06:34:42Z</time></trkpt><trkpt lat="37.0515715" lon="14.3794537"><ele>77.0</ele><time>2026-05-03T06:34:43Z</time></trkpt><trkpt lat="37.0517025" lon="14.3791695"><ele>74.0</ele><time>2026-05-03T06:34:44Z</time></trkpt><trkpt lat="37.0518287" lon="14.3788844"><ele>71.0</ele><time>2026-05-03T06:34:45Z</time></trkpt><trkpt lat="37.0519629" lon="14.3785972"><ele>70.0</ele><time>2026-05-03T06:34:46Z</time></trkpt><trkpt lat="37.0520863" lon="14.3783086"><ele>69.0</ele><time>2026-05-03T06:34:47Z</time></trkpt><trkpt lat="37.052217" lon="14.3780241"><ele>67.5</ele><time>2026-05-03T06:34:48Z</time></trkpt><trkpt lat="37.0523546" lon="14.3777347"><ele>66.0</ele><time>2026-05-03T06:34:49Z</time></trkpt><trkpt lat="37.0524791" lon="14.3774446"><ele>64.0</ele><time>2026-05-03T06:34:50Z</time></trkpt><trkpt lat="37.0526059" lon="14.3771604"><ele>62.0</ele><time>2026-05-03T06:34:51Z</time></trkpt><trkpt lat="37.0527384" lon="14.3768776"><ele>62.0</ele><time>2026-05-03T06:34:52Z</time></trkpt><trkpt lat="37.0528733" lon="14.3765902"><ele>62.0</ele><time>2026-05-03T06:34:53Z</time></trkpt><trkpt lat="37.0530076" lon="14.3762992"><ele>60.0</ele><time>2026-05-03T06:34:54Z</time></trkpt><trkpt lat="37.0531391" lon="14.3760127"><ele>58.0</ele><time>2026-05-03T06:34:55Z</time></trkpt><trkpt lat="37.0532691" lon="14.3757216"><ele>57.0</ele><time>2026-05-03T06:34:56Z</time></trkpt><trkpt lat="37.0533982" lon="14.3754326"><ele>56.0</ele><time>2026-05-03T06:34:57Z</time></trkpt><trkpt lat="37.0535302" lon="14.3751507"><ele>56.0</ele><time>2026-05-03T06:34:58Z</time></trkpt><trkpt lat="37.0536613" lon="14.3748645"><ele>56.0</ele><time>2026-05-03T06:34:59Z</time></trkpt><trkpt lat="37.0537935" lon="14.3745793"><ele>55.0</ele><time>2026-05-03T06:35:00Z</time></trkpt><trkpt lat="37.0539163" lon="14.3742968"><ele>54.0</ele><time>2026-05-03T06:35:01Z</time></trkpt><trkpt lat="37.0540451" lon="14.3740145"><ele>54.5</ele><time>2026-05-03T06:35:02Z</time></trkpt><trkpt lat="37.0541702" lon="14.3737356"><ele>55.0</ele><time>2026-05-03T06:35:03Z</time></trkpt><trkpt lat="37.0542907" lon="14.3734566"><ele>55.0</ele><time>2026-05-03T06:35:04Z</time></trkpt><trkpt lat="37.0544144" lon="14.3731877"><ele>55.0</ele><time>2026-05-03T06:35:05Z</time></trkpt><trkpt lat="37.0545344" lon="14.3729164"><ele>55.5</ele><time>2026-05-03T06:35:06Z</time></trkpt><trkpt lat="37.0546512" lon="14.3726567"><ele>56.0</ele><time>2026-05-03T06:35:07Z</time></trkpt><trkpt lat="37.0547812" lon="14.3724255"><ele>56.0</ele><time>2026-05-03T06:35:08Z</time></trkpt><trkpt lat="37.0549461" lon="14.3722246"><ele>56.0</ele><time>2026-05-03T06:35:09Z</time></trkpt><trkpt lat="37.055128" lon="14.372038"><ele>57.5</ele><time>2026-05-03T06:35:10Z</time></trkpt><trkpt lat="37.0553208" lon="14.371847"><ele>59.0</ele><time>2026-05-03T06:35:11Z</time></trkpt><trkpt lat="37.0555231" lon="14.3716475"><ele>59.0</ele><time>2026-05-03T06:35:12Z</time></trkpt><trkpt lat="37.0557285" lon="14.3714449"><ele>59.0</ele><time>2026-05-03T06:35:13Z</time></trkpt><trkpt lat="37.0559349" lon="14.3712403"><ele>61.5</ele><time>2026-05-03T06:35:14Z</time></trkpt><trkpt lat="37.0561397" lon="14.3710384"><ele>64.0</ele><time>2026-05-03T06:35:15Z</time></trkpt><trkpt lat="37.0563521" lon="14.3708263"><ele>64.0</ele><time>2026-05-03T06:35:16Z</time></trkpt><trkpt lat="37.0565589" lon="14.3706216"><ele>64.0</ele><time>2026-05-03T06:35:17Z</time></trkpt><trkpt lat="37.0567639" lon="14.3704192"><ele>65.5</ele><time>2026-05-03T06:35:18Z</time></trkpt><trkpt lat="37.0569627" lon="14.3702137"><ele>67.0</ele><time>2026-05-03T06:35:19Z</time></trkpt><trkpt lat="37.0571639" lon="14.3700151"><ele>67.0</ele><time>2026-05-03T06:35:20Z</time></trkpt><trkpt lat="37.0573664" lon="14.3698195"><ele>67.0</ele><time>2026-05-03T06:35:21Z</time></trkpt><trkpt lat="37.0575611" lon="14.3696282"><ele>70.5</ele><time>2026-05-03T06:35:22Z</time></trkpt><trkpt lat="37.0577519" lon="14.3694426"><ele>74.0</ele><time>2026-05-03T06:35:23Z</time></trkpt><trkpt lat="37.0579343" lon="14.3692636"><ele>74.0</ele><time>2026-05-03T06:35:24Z</time></trkpt><trkpt lat="37.0581043" lon="14.3690914"><ele>74.0</ele><time>2026-05-03T06:35:25Z</time></trkpt><trkpt lat="37.0582723" lon="14.3689079"><ele>74.0</ele><time>2026-05-03T06:35:26Z</time></trkpt><trkpt lat="37.0584194" lon="14.3687054"><ele>75.66666666666667</ele><time>2026-05-03T06:35:27Z</time></trkpt><trkpt lat="37.0585572" lon="14.3684927"><ele>77.33333333333333</ele><time>2026-05-03T06:35:28Z</time></trkpt><trkpt lat="37.0586991" lon="14.3682819"><ele>79.0</ele><time>2026-05-03T06:35:29Z</time></trkpt><trkpt lat="37.0588362" lon="14.3680608"><ele>78.66666666666666</ele><time>2026-05-03T06:35:30Z</time></trkpt><trkpt lat="37.0589681" lon="14.367856"><ele>78.33333333333333</ele><time>2026-05-03T06:35:31Z</time></trkpt><trkpt lat="37.0591077" lon="14.3676476"><ele>78.0</ele><time>2026-05-03T06:35:32Z</time></trkpt><trkpt lat="37.0592467" lon="14.3674359"><ele>78.0</ele><time>2026-05-03T06:35:33Z</time></trkpt><trkpt lat="37.0593879" lon="14.367228"><ele>78.0</ele><time>2026-05-03T06:35:34Z</time></trkpt><trkpt lat="37.0595269" lon="14.3670333"><ele>78.0</ele><time>2026-05-03T06:35:35Z</time></trkpt><trkpt lat="37.0596695" lon="14.3668398"><ele>78.66666666666667</ele><time>2026-05-03T06:35:36Z</time></trkpt><trkpt lat="37.0598166" lon="14.3666483"><ele>79.33333333333334</ele><time>2026-05-03T06:35:37Z</time></trkpt><trkpt lat="37.0599643" lon="14.3664574"><ele>80.0</ele><time>2026-05-03T06:35:38Z</time></trkpt><trkpt lat="37.0601076" lon="14.3662779"><ele>83.0</ele><time>2026-05-03T06:35:39Z</time></trkpt><trkpt lat="37.0602429" lon="14.3661051"><ele>86.0</ele><time>2026-05-03T06:35:40Z</time></trkpt><trkpt lat="37.060379" lon="14.3659412"><ele>89.0</ele><time>2026-05-03T06:35:41Z</time></trkpt><trkpt lat="37.0605051" lon="14.3657805"><ele>89.0</ele><time>2026-05-03T06:35:42Z</time></trkpt><trkpt lat="37.0606294" lon="14.3656233"><ele>89.0</ele><time>2026-05-03T06:35:43Z</time></trkpt><trkpt lat="37.0607675" lon="14.3654862"><ele>89.0</ele><time>2026-05-03T06:35:44Z</time></trkpt><trkpt lat="37.060926" lon="14.3653539"><ele>92.5</ele><time>2026-05-03T06:35:45Z</time></trkpt><trkpt lat="37.0611187" lon="14.3652124"><ele>96.0</ele><time>2026-05-03T06:35:46Z</time></trkpt><trkpt lat="37.0613355" lon="14.3650566"><ele>96.0</ele><time>2026-05-03T06:35:47Z</time></trkpt><trkpt lat="37.0615743" lon="14.3649048"><ele>96.0</ele><time>2026-05-03T06:35:48Z</time></trkpt><trkpt lat="37.0618273" lon="14.3647643"><ele>98.0</ele><time>2026-05-03T06:35:49Z</time></trkpt><trkpt lat="37.0620711" lon="14.3646153"><ele>100.0</ele><time>2026-05-03T06:35:50Z</time></trkpt><trkpt lat="37.0623026" lon="14.3644692"><ele>98.0</ele><time>2026-05-03T06:35:51Z</time></trkpt><trkpt lat="37.0625253" lon="14.3643363"><ele>96.0</ele><time>2026-05-03T06:35:52Z</time></trkpt><trkpt lat="37.0627228" lon="14.3642326"><ele>96.0</ele><time>2026-05-03T06:35:53Z</time></trkpt><trkpt lat="37.0629152" lon="14.364167"><ele>96.0</ele><time>2026-05-03T06:35:54Z</time></trkpt><trkpt lat="37.063122" lon="14.3641679"><ele>96.0</ele><time>2026-05-03T06:35:55Z</time></trkpt><trkpt lat="37.0633364" lon="14.3642085"><ele>96.33333333333334</ele><time>2026-05-03T06:35:56Z</time></trkpt><trkpt lat="37.0635484" lon="14.3642428"><ele>96.66666666666667</ele><time>2026-05-03T06:35:57Z</time></trkpt><trkpt lat="37.0637734" lon="14.3642379"><ele>97.0</ele><time>2026-05-03T06:35:58Z</time></trkpt><trkpt lat="37.0640219" lon="14.3641812"><ele>100.0</ele><time>2026-05-03T06:35:59Z</time></trkpt><trkpt lat="37.0642769" lon="14.3640857"><ele>103.0</ele><time>2026-05-03T06:36:00Z</time></trkpt><trkpt lat="37.0645325" lon="14.3639923"><ele>103.0</ele><time>2026-05-03T06:36:01Z</time></trkpt><trkpt lat="37.0647528" lon="14.3639113"><ele>103.0</ele><time>2026-05-03T06:36:02Z</time></trkpt><trkpt lat="37.0649748" lon="14.3638288"><ele>105.66666666666667</ele><time>2026-05-03T06:36:03Z</time></trkpt><trkpt lat="37.0651932" lon="14.3637467"><ele>108.33333333333334</ele><time>2026-05-03T06:36:04Z</time></trkpt><trkpt lat="37.0654046" lon="14.3636646"><ele>111.0</ele><time>2026-05-03T06:36:05Z</time></trkpt><trkpt lat="37.0656103" lon="14.3635719"><ele>110.0</ele><time>2026-05-03T06:36:06Z</time></trkpt><trkpt lat="37.0658085" lon="14.3634771"><ele>109.0</ele><time>2026-05-03T06:36:07Z</time></trkpt><trkpt lat="37.0660026" lon="14.363372"><ele>108.0</ele><time>2026-05-03T06:36:08Z</time></trkpt><trkpt lat="37.0662036" lon="14.3632559"><ele>108.0</ele><time>2026-05-03T06:36:09Z</time></trkpt><trkpt lat="37.0664017" lon="14.3631429"><ele>108.0</ele><time>2026-05-03T06:36:10Z</time></trkpt><trkpt lat="37.0665986" lon="14.3630158"><ele>108.0</ele><time>2026-05-03T06:36:11Z</time></trkpt><trkpt lat="37.0667959" lon="14.3628936"><ele>107.66666666666666</ele><time>2026-05-03T06:36:12Z</time></trkpt><trkpt lat="37.0669857" lon="14.362777"><ele>107.33333333333333</ele><time>2026-05-03T06:36:13Z</time></trkpt><trkpt lat="37.0671799" lon="14.3626629"><ele>107.0</ele><time>2026-05-03T06:36:14Z</time></trkpt><trkpt lat="37.0673644" lon="14.362549"><ele>104.33333333333333</ele><time>2026-05-03T06:36:15Z</time></trkpt><trkpt lat="37.0675492" lon="14.3624323"><ele>101.66666666666666</ele><time>2026-05-03T06:36:16Z</time></trkpt><trkpt lat="37.0677316" lon="14.362324"><ele>99.0</ele><time>2026-05-03T06:36:17Z</time></trkpt><trkpt lat="37.067914" lon="14.3622138"><ele>100.33333333333334</ele><time>2026-05-03T06:36:18Z</time></trkpt><trkpt lat="37.0680902" lon="14.3621147"><ele>101.66666666666667</ele><time>2026-05-03T06:36:19Z</time></trkpt><trkpt lat="37.0682578" lon="14.3620202"><ele>103.0</ele><time>2026-05-03T06:36:20Z</time></trkpt><trkpt lat="37.0684153" lon="14.3619332"><ele>100.0</ele><time>2026-05-03T06:36:21Z</time></trkpt><trkpt lat="37.0685503" lon="14.3618191"><ele>97.0</ele><time>2026-05-03T06:36:22Z</time></trkpt><trkpt lat="37.0686604" lon="14.3616516"><ele>94.0</ele><time>2026-05-03T06:36:23Z</time></trkpt><trkpt lat="37.0687251" lon="14.3614399"><ele>94.33333333333333</ele><time>2026-05-03T06:36:24Z</time></trkpt><trkpt lat="37.0687619" lon="14.3611988"><ele>94.66666666666667</ele><time>2026-05-03T06:36:25Z</time></trkpt><trkpt lat="37.068793" lon="14.3609391"><ele>95.0</ele><time>2026-05-03T06:36:26Z</time></trkpt><trkpt lat="37.0688271" lon="14.3606732"><ele>96.0</ele><time>2026-05-03T06:36:27Z</time></trkpt><trkpt lat="37.0688599" lon="14.3603986"><ele>97.0</ele><time>2026-05-03T06:36:28Z</time></trkpt><trkpt lat="37.0688874" lon="14.3601223"><ele>98.0</ele><time>2026-05-03T06:36:29Z</time></trkpt><trkpt lat="37.0689184" lon="14.359839"><ele>100.0</ele><time>2026-05-03T06:36:30Z</time></trkpt><trkpt lat="37.0689517" lon="14.3595519"><ele>102.0</ele><time>2026-05-03T06:36:31Z</time></trkpt><trkpt lat="37.0689867" lon="14.3592627"><ele>102.0</ele><time>2026-05-03T06:36:32Z</time></trkpt><trkpt lat="37.0690172" lon="14.3589869"><ele>102.0</ele><time>2026-05-03T06:36:33Z</time></trkpt><trkpt lat="37.0690447" lon="14.3587142"><ele>102.0</ele><time>2026-05-03T06:36:34Z</time></trkpt><trkpt lat="37.0690714" lon="14.3584404"><ele>102.0</ele><time>2026-05-03T06:36:35Z</time></trkpt><trkpt lat="37.069092" lon="14.3581657"><ele>102.0</ele><time>2026-05-03T06:36:36Z</time></trkpt><trkpt lat="37.0690915" lon="14.35788"><ele>102.0</ele><time>2026-05-03T06:36:37Z</time></trkpt><trkpt lat="37.069055" lon="14.3575903"><ele>100.5</ele><time>2026-05-03T06:36:38Z</time></trkpt><trkpt lat="37.0690242" lon="14.3573056"><ele>99.0</ele><time>2026-05-03T06:36:39Z</time></trkpt><trkpt lat="37.0689936" lon="14.3570181"><ele>95.5</ele><time>2026-05-03T06:36:40Z</time></trkpt><trkpt lat="37.068987" lon="14.3567209"><ele>92.0</ele><time>2026-05-03T06:36:41Z</time></trkpt><trkpt lat="37.0690034" lon="14.3564223"><ele>92.0</ele><time>2026-05-03T06:36:42Z</time></trkpt><trkpt lat="37.0690262" lon="14.3561125"><ele>92.0</ele><time>2026-05-03T06:36:43Z</time></trkpt><trkpt lat="37.0690509" lon="14.3558046"><ele>92.5</ele><time>2026-05-03T06:36:44Z</time></trkpt><trkpt lat="37.0690798" lon="14.3554934"><ele>93.0</ele><time>2026-05-03T06:36:45Z</time></trkpt><trkpt lat="37.0691098" lon="14.355188"><ele>87.5</ele><time>2026-05-03T06:36:46Z</time></trkpt><trkpt lat="37.069139" lon="14.3548777"><ele>82.0</ele><time>2026-05-03T06:36:47Z</time></trkpt><trkpt lat="37.0691701" lon="14.354574"><ele>82.0</ele><time>2026-05-03T06:36:48Z</time></trkpt><trkpt lat="37.0691975" lon="14.3542868"><ele>82.0</ele><time>2026-05-03T06:36:49Z</time></trkpt><trkpt lat="37.0692232" lon="14.3540282"><ele>82.0</ele><time>2026-05-03T06:36:50Z</time></trkpt><trkpt lat="37.0692435" lon="14.3537939"><ele>82.0</ele><time>2026-05-03T06:36:51Z</time></trkpt><trkpt lat="37.0692477" lon="14.3535906"><ele>82.0</ele><time>2026-05-03T06:36:52Z</time></trkpt><trkpt lat="37.0691979" lon="14.3534092"><ele>82.0</ele><time>2026-05-03T06:36:53Z</time></trkpt><trkpt lat="37.0690934" lon="14.3532327"><ele>82.0</ele><time>2026-05-03T06:36:54Z</time></trkpt><trkpt lat="37.0689531" lon="14.3530699"><ele>82.0</ele><time>2026-05-03T06:36:55Z</time></trkpt><trkpt lat="37.0687849" lon="14.3529095"><ele>82.0</ele><time>2026-05-03T06:36:56Z</time></trkpt><trkpt lat="37.0686166" lon="14.3527461"><ele>81.0</ele><time>2026-05-03T06:36:57Z</time></trkpt><trkpt lat="37.0684452" lon="14.3525875"><ele>80.0</ele><time>2026-05-03T06:36:58Z</time></trkpt><trkpt lat="37.0682774" lon="14.3524286"><ele>79.0</ele><time>2026-05-03T06:36:59Z</time></trkpt><trkpt lat="37.0681353" lon="14.3522606"><ele>79.0</ele><time>2026-05-03T06:37:00Z</time></trkpt><trkpt lat="37.0680346" lon="14.352051"><ele>79.0</ele><time>2026-05-03T06:37:01Z</time></trkpt><trkpt lat="37.0679675" lon="14.3518041"><ele>79.0</ele><time>2026-05-03T06:37:02Z</time></trkpt><trkpt lat="37.0679262" lon="14.3515318"><ele>78.0</ele><time>2026-05-03T06:37:03Z</time></trkpt><trkpt lat="37.0678756" lon="14.351239"><ele>77.0</ele><time>2026-05-03T06:37:04Z</time></trkpt><trkpt lat="37.0678273" lon="14.3509373"><ele>77.0</ele><time>2026-05-03T06:37:05Z</time></trkpt><trkpt lat="37.0677831" lon="14.3506376"><ele>77.0</ele><time>2026-05-03T06:37:06Z</time></trkpt><trkpt lat="37.067744" lon="14.3503461"><ele>76.33333333333334</ele><time>2026-05-03T06:37:07Z</time></trkpt><trkpt lat="37.0677106" lon="14.3500713"><ele>75.66666666666667</ele><time>2026-05-03T06:37:08Z</time></trkpt><trkpt lat="37.0676569" lon="14.3498117"><ele>75.0</ele><time>2026-05-03T06:37:09Z</time></trkpt><trkpt lat="37.0675558" lon="14.3495672"><ele>78.0</ele><time>2026-05-03T06:37:10Z</time></trkpt><trkpt lat="37.0674216" lon="14.3493235"><ele>81.0</ele><time>2026-05-03T06:37:11Z</time></trkpt><trkpt lat="37.0672769" lon="14.3490729"><ele>77.5</ele><time>2026-05-03T06:37:12Z</time></trkpt><trkpt lat="37.0671273" lon="14.3488268"><ele>74.0</ele><time>2026-05-03T06:37:12.999Z</time></trkpt><trkpt lat="37.066972" lon="14.3485793"><ele>74.0</ele><time>2026-05-03T06:37:14Z</time></trkpt><trkpt lat="37.0668154" lon="14.348323"><ele>74.0</ele><time>2026-05-03T06:37:15Z</time></trkpt><trkpt lat="37.0666608" lon="14.3480662"><ele>74.0</ele><time>2026-05-03T06:37:16Z</time></trkpt><trkpt lat="37.0665034" lon="14.3478137"><ele>74.0</ele><time>2026-05-03T06:37:17Z</time></trkpt><trkpt lat="37.0663495" lon="14.3475609"><ele>74.0</ele><time>2026-05-03T06:37:18Z</time></trkpt><trkpt lat="37.0661957" lon="14.3473113"><ele>74.0</ele><time>2026-05-03T06:37:19Z</time></trkpt><trkpt lat="37.0660534" lon="14.3470657"><ele>73.66666666666667</ele><time>2026-05-03T06:37:20Z</time></trkpt><trkpt lat="37.0659163" lon="14.3468404"><ele>73.33333333333333</ele><time>2026-05-03T06:37:21Z</time></trkpt><trkpt lat="37.0657858" lon="14.3466432"><ele>73.0</ele><time>2026-05-03T06:37:22Z</time></trkpt><trkpt lat="37.0656294" lon="14.3464922"><ele>73.0</ele><time>2026-05-03T06:37:23Z</time></trkpt><trkpt lat="37.0654399" lon="14.3463792"><ele>73.0</ele><time>2026-05-03T06:37:23.999Z</time></trkpt><trkpt lat="37.0652461" lon="14.3463071"><ele>73.0</ele><time>2026-05-03T06:37:25Z</time></trkpt><trkpt lat="37.0650653" lon="14.3462138"><ele>72.66666666666666</ele><time>2026-05-03T06:37:26Z</time></trkpt><trkpt lat="37.0648963" lon="14.346067"><ele>72.33333333333333</ele><time>2026-05-03T06:37:27Z</time></trkpt><trkpt lat="37.0647561" lon="14.3458669"><ele>72.0</ele><time>2026-05-03T06:37:28Z</time></trkpt><trkpt lat="37.0646371" lon="14.3456364"><ele>70.5</ele><time>2026-05-03T06:37:29Z</time></trkpt><trkpt lat="37.0645454" lon="14.3453608"><ele>69.0</ele><time>2026-05-03T06:37:30Z</time></trkpt><trkpt lat="37.0644666" lon="14.3450699"><ele>69.0</ele><time>2026-05-03T06:37:31Z</time></trkpt><trkpt lat="37.0643859" lon="14.3447714"><ele>69.0</ele><time>2026-05-03T06:37:32Z</time></trkpt><trkpt lat="37.0643028" lon="14.3444788"><ele>67.0</ele><time>2026-05-03T06:37:33Z</time></trkpt><trkpt lat="37.0642187" lon="14.3441834"><ele>65.0</ele><time>2026-05-03T06:37:34Z</time></trkpt><trkpt lat="37.0641389" lon="14.3438943"><ele>65.66666666666667</ele><time>2026-05-03T06:37:35Z</time></trkpt><trkpt lat="37.0640612" lon="14.3436221"><ele>66.33333333333333</ele><time>2026-05-03T06:37:36Z</time></trkpt><trkpt lat="37.0639855" lon="14.3433693"><ele>67.0</ele><time>2026-05-03T06:37:37Z</time></trkpt><trkpt lat="37.063876" lon="14.3431313"><ele>63.0</ele><time>2026-05-03T06:37:38Z</time></trkpt><trkpt lat="37.0637281" lon="14.3429153"><ele>59.0</ele><time>2026-05-03T06:37:39Z</time></trkpt><trkpt lat="37.0635552" lon="14.342712"><ele>59.0</ele><time>2026-05-03T06:37:40Z</time></trkpt><trkpt lat="37.0633702" lon="14.3425078"><ele>59.0</ele><time>2026-05-03T06:37:41Z</time></trkpt><trkpt lat="37.0631811" lon="14.3423015"><ele>59.0</ele><time>2026-05-03T06:37:42Z</time></trkpt><trkpt lat="37.0629949" lon="14.3421034"><ele>59.0</ele><time>2026-05-03T06:37:43Z</time></trkpt><trkpt lat="37.0628099" lon="14.3419019"><ele>59.0</ele><time>2026-05-03T06:37:44Z</time></trkpt><trkpt lat="37.0626389" lon="14.3417221"><ele>59.0</ele><time>2026-05-03T06:37:45Z</time></trkpt><trkpt lat="37.0624968" lon="14.3415368"><ele>59.0</ele><time>2026-05-03T06:37:46Z</time></trkpt><trkpt lat="37.0623997" lon="14.3413116"><ele>61.0</ele><time>2026-05-03T06:37:47Z</time></trkpt><trkpt lat="37.062331" lon="14.3410419"><ele>63.0</ele><time>2026-05-03T06:37:48Z</time></trkpt><trkpt lat="37.0622728" lon="14.3407373"><ele>61.5</ele><time>2026-05-03T06:37:49Z</time></trkpt><trkpt lat="37.0622183" lon="14.3404214"><ele>60.0</ele><time>2026-05-03T06:37:50Z</time></trkpt><trkpt lat="37.0621649" lon="14.3400943"><ele>60.0</ele><time>2026-05-03T06:37:51Z</time></trkpt><trkpt lat="37.0621128" lon="14.3397608"><ele>60.0</ele><time>2026-05-03T06:37:52Z</time></trkpt><trkpt lat="37.0620609" lon="14.3394222"><ele>58.5</ele><time>2026-05-03T06:37:53Z</time></trkpt><trkpt lat="37.0620038" lon="14.3390897"><ele>57.0</ele><time>2026-05-03T06:37:54Z</time></trkpt><trkpt lat="37.0619506" lon="14.3387684"><ele>57.0</ele><time>2026-05-03T06:37:55Z</time></trkpt><trkpt lat="37.0619149" lon="14.3384343"><ele>57.0</ele><time>2026-05-03T06:37:56Z</time></trkpt><trkpt lat="37.061903" lon="14.3381073"><ele>56.5</ele><time>2026-05-03T06:37:57Z</time></trkpt><trkpt lat="37.0619154" lon="14.3378047"><ele>56.0</ele><time>2026-05-03T06:37:58Z</time></trkpt><trkpt lat="37.0619182" lon="14.3375207"><ele>56.0</ele><time>2026-05-03T06:37:59Z</time></trkpt><trkpt lat="37.0618789" lon="14.3372269"><ele>56.0</ele><time>2026-05-03T06:38:00Z</time></trkpt><trkpt lat="37.0617905" lon="14.3369399"><ele>55.0</ele><time>2026-05-03T06:38:00.999Z</time></trkpt><trkpt lat="37.061689" lon="14.3366419"><ele>54.0</ele><time>2026-05-03T06:38:02Z</time></trkpt><trkpt lat="37.0615744" lon="14.336332"><ele>54.0</ele><time>2026-05-03T06:38:03Z</time></trkpt><trkpt lat="37.0614606" lon="14.3360217"><ele>54.0</ele><time>2026-05-03T06:38:04Z</time></trkpt><trkpt lat="37.0613419" lon="14.3357016"><ele>53.0</ele><time>2026-05-03T06:38:05Z</time></trkpt><trkpt lat="37.0612191" lon="14.3353826"><ele>52.0</ele><time>2026-05-03T06:38:06Z</time></trkpt><trkpt lat="37.061102" lon="14.3350644"><ele>52.0</ele><time>2026-05-03T06:38:07Z</time></trkpt><trkpt lat="37.060983" lon="14.3347423"><ele>52.0</ele><time>2026-05-03T06:38:08Z</time></trkpt><trkpt lat="37.060857" lon="14.3344238"><ele>52.5</ele><time>2026-05-03T06:38:09Z</time></trkpt><trkpt lat="37.0607388" lon="14.3341084"><ele>53.0</ele><time>2026-05-03T06:38:10Z</time></trkpt><trkpt lat="37.06062" lon="14.3337893"><ele>50.0</ele><time>2026-05-03T06:38:11Z</time></trkpt><trkpt lat="37.0605021" lon="14.3334755"><ele>47.0</ele><time>2026-05-03T06:38:12Z</time></trkpt><trkpt lat="37.0603839" lon="14.3331638"><ele>45.0</ele><time>2026-05-03T06:38:13Z</time></trkpt><trkpt lat="37.0602688" lon="14.3328541"><ele>43.0</ele><time>2026-05-03T06:38:14Z</time></trkpt><trkpt lat="37.060156" lon="14.3325484"><ele>43.0</ele><time>2026-05-03T06:38:15Z</time></trkpt><trkpt lat="37.0600345" lon="14.3322412"><ele>43.0</ele><time>2026-05-03T06:38:16Z</time></trkpt><trkpt lat="37.0599227" lon="14.3319302"><ele>43.5</ele><time>2026-05-03T06:38:17Z</time></trkpt><trkpt lat="37.0598122" lon="14.3316308"><ele>44.0</ele><time>2026-05-03T06:38:18Z</time></trkpt><trkpt lat="37.0596925" lon="14.3313242"><ele>42.0</ele><time>2026-05-03T06:38:19Z</time></trkpt><trkpt lat="37.0595805" lon="14.3310208"><ele>40.0</ele><time>2026-05-03T06:38:20Z</time></trkpt><trkpt lat="37.0594651" lon="14.3307303"><ele>38.5</ele><time>2026-05-03T06:38:21Z</time></trkpt><trkpt lat="37.0593584" lon="14.3304326"><ele>37.0</ele><time>2026-05-03T06:38:22Z</time></trkpt><trkpt lat="37.059247" lon="14.3301354"><ele>37.0</ele><time>2026-05-03T06:38:23Z</time></trkpt><trkpt lat="37.059135" lon="14.3298362"><ele>37.0</ele><time>2026-05-03T06:38:24Z</time></trkpt><trkpt lat="37.0590303" lon="14.3295486"><ele>36.5</ele><time>2026-05-03T06:38:25Z</time></trkpt><trkpt lat="37.0589194" lon="14.3292642"><ele>36.0</ele><time>2026-05-03T06:38:26Z</time></trkpt><trkpt lat="37.0587781" lon="14.3289854"><ele>34.5</ele><time>2026-05-03T06:38:27Z</time></trkpt><trkpt lat="37.0586036" lon="14.3287376"><ele>33.0</ele><time>2026-05-03T06:38:28Z</time></trkpt><trkpt lat="37.0584146" lon="14.3285013"><ele>33.5</ele><time>2026-05-03T06:38:29Z</time></trkpt><trkpt lat="37.0582183" lon="14.3282642"><ele>34.0</ele><time>2026-05-03T06:38:30Z</time></trkpt><trkpt lat="37.0580111" lon="14.3280272"><ele>33.0</ele><time>2026-05-03T06:38:31Z</time></trkpt><trkpt lat="37.0578028" lon="14.3277862"><ele>32.0</ele><time>2026-05-03T06:38:32Z</time></trkpt><trkpt lat="37.0575958" lon="14.3275473"><ele>32.5</ele><time>2026-05-03T06:38:33Z</time></trkpt><trkpt lat="37.0573873" lon="14.3273029"><ele>33.0</ele><time>2026-05-03T06:38:34Z</time></trkpt><trkpt lat="37.0571797" lon="14.3270632"><ele>31.5</ele><time>2026-05-03T06:38:34.999Z</time></trkpt><trkpt lat="37.0569689" lon="14.326823"><ele>30.0</ele><time>2026-05-03T06:38:36Z</time></trkpt><trkpt lat="37.0567682" lon="14.3265828"><ele>29.0</ele><time>2026-05-03T06:38:37Z</time></trkpt><trkpt lat="37.0565703" lon="14.3263396"><ele>28.0</ele><time>2026-05-03T06:38:38Z</time></trkpt><trkpt lat="37.0563641" lon="14.3261032"><ele>28.0</ele><time>2026-05-03T06:38:39Z</time></trkpt><trkpt lat="37.0561644" lon="14.3258704"><ele>28.0</ele><time>2026-05-03T06:38:40Z</time></trkpt><trkpt lat="37.0559609" lon="14.3256425"><ele>26.5</ele><time>2026-05-03T06:38:41Z</time></trkpt><trkpt lat="37.0557631" lon="14.3254092"><ele>25.0</ele><time>2026-05-03T06:38:42Z</time></trkpt><trkpt lat="37.0555693" lon="14.3251806"><ele>25.0</ele><time>2026-05-03T06:38:43Z</time></trkpt><trkpt lat="37.0553733" lon="14.3249416"><ele>25.0</ele><time>2026-05-03T06:38:44Z</time></trkpt><trkpt lat="37.0551779" lon="14.3247136"><ele>25.0</ele><time>2026-05-03T06:38:44.999Z</time></trkpt><trkpt lat="37.0549832" lon="14.3244847"><ele>25.0</ele><time>2026-05-03T06:38:46Z</time></trkpt><trkpt lat="37.0547897" lon="14.3242605"><ele>25.0</ele><time>2026-05-03T06:38:47Z</time></trkpt><trkpt lat="37.0545987" lon="14.3240304"><ele>25.0</ele><time>2026-05-03T06:38:48Z</time></trkpt><trkpt lat="37.0544103" lon="14.323805"><ele>25.0</ele><time>2026-05-03T06:38:49Z</time></trkpt><trkpt lat="37.0542292" lon="14.3235876"><ele>25.0</ele><time>2026-05-03T06:38:50Z</time></trkpt><trkpt lat="37.0540542" lon="14.323377"><ele>25.0</ele><time>2026-05-03T06:38:51Z</time></trkpt><trkpt lat="37.0538943" lon="14.3231785"><ele>25.0</ele><time>2026-05-03T06:38:52Z</time></trkpt><trkpt lat="37.0537573" lon="14.3229683"><ele>25.0</ele><time>2026-05-03T06:38:53Z</time></trkpt><trkpt lat="37.0536485" lon="14.3227358"><ele>24.666666666666668</ele><time>2026-05-03T06:38:54Z</time></trkpt><trkpt lat="37.0535702" lon="14.3224835"><ele>24.333333333333336</ele><time>2026-05-03T06:38:55Z</time></trkpt><trkpt lat="37.0535253" lon="14.3222146"><ele>24.0</ele><time>2026-05-03T06:38:56Z</time></trkpt><trkpt lat="37.0534947" lon="14.3219321"><ele>24.0</ele><time>2026-05-03T06:38:57Z</time></trkpt><trkpt lat="37.0534675" lon="14.3216394"><ele>24.0</ele><time>2026-05-03T06:38:58Z</time></trkpt><trkpt lat="37.0534415" lon="14.3213335"><ele>23.5</ele><time>2026-05-03T06:38:59Z</time></trkpt><trkpt lat="37.05341" lon="14.3210273"><ele>23.0</ele><time>2026-05-03T06:39:00Z</time></trkpt><trkpt lat="37.0533813" lon="14.3207166"><ele>23.5</ele><time>2026-05-03T06:39:01Z</time></trkpt><trkpt lat="37.05335" lon="14.3203993"><ele>24.0</ele><time>2026-05-03T06:39:02Z</time></trkpt><trkpt lat="37.0533182" lon="14.3200832"><ele>22.5</ele><time>2026-05-03T06:39:03Z</time></trkpt><trkpt lat="37.0532828" lon="14.3197683"><ele>21.0</ele><time>2026-05-03T06:39:04Z</time></trkpt><trkpt lat="37.0532532" lon="14.3194529"><ele>21.0</ele><time>2026-05-03T06:39:05Z</time></trkpt><trkpt lat="37.0532232" lon="14.319126"><ele>21.0</ele><time>2026-05-03T06:39:06Z</time></trkpt><trkpt lat="37.0531899" lon="14.3188014"><ele>20.5</ele><time>2026-05-03T06:39:07Z</time></trkpt><trkpt lat="37.0531609" lon="14.318476"><ele>20.0</ele><time>2026-05-03T06:39:08Z</time></trkpt><trkpt lat="37.0531261" lon="14.3181442"><ele>20.0</ele><time>2026-05-03T06:39:09Z</time></trkpt><trkpt lat="37.0530943" lon="14.3178147"><ele>20.0</ele><time>2026-05-03T06:39:10Z</time></trkpt><trkpt lat="37.053065" lon="14.3174912"><ele>20.5</ele><time>2026-05-03T06:39:11Z</time></trkpt><trkpt lat="37.0530333" lon="14.3171636"><ele>21.0</ele><time>2026-05-03T06:39:12Z</time></trkpt><trkpt lat="37.0530037" lon="14.3168407"><ele>21.0</ele><time>2026-05-03T06:39:13Z</time></trkpt><trkpt lat="37.0529738" lon="14.3165226"><ele>21.0</ele><time>2026-05-03T06:39:14Z</time></trkpt><trkpt lat="37.0529415" lon="14.3161961"><ele>20.5</ele><time>2026-05-03T06:39:15Z</time></trkpt><trkpt lat="37.0529157" lon="14.315873"><ele>20.0</ele><time>2026-05-03T06:39:16Z</time></trkpt><trkpt lat="37.0528798" lon="14.3155558"><ele>20.0</ele><time>2026-05-03T06:39:17Z</time></trkpt><trkpt lat="37.0528492" lon="14.3152385"><ele>20.0</ele><time>2026-05-03T06:39:18Z</time></trkpt><trkpt lat="37.0528237" lon="14.3149097"><ele>18.5</ele><time>2026-05-03T06:39:19Z</time></trkpt><trkpt lat="37.0527921" lon="14.3145905"><ele>17.0</ele><time>2026-05-03T06:39:20Z</time></trkpt><trkpt lat="37.0527614" lon="14.3142679"><ele>17.0</ele><time>2026-05-03T06:39:21Z</time></trkpt><trkpt lat="37.0527333" lon="14.3139426"><ele>17.0</ele><time>2026-05-03T06:39:22Z</time></trkpt><trkpt lat="37.0526967" lon="14.3136145"><ele>16.5</ele><time>2026-05-03T06:39:23Z</time></trkpt><trkpt lat="37.0526643" lon="14.3132934"><ele>16.0</ele><time>2026-05-03T06:39:24Z</time></trkpt><trkpt lat="37.0526358" lon="14.3129693"><ele>15.5</ele><time>2026-05-03T06:39:25Z</time></trkpt><trkpt lat="37.0526099" lon="14.3126436"><ele>15.0</ele><time>2026-05-03T06:39:26Z</time></trkpt><trkpt lat="37.0525751" lon="14.3123219"><ele>14.5</ele><time>2026-05-03T06:39:27Z</time></trkpt><trkpt lat="37.0525413" lon="14.3120044"><ele>14.0</ele><time>2026-05-03T06:39:28Z</time></trkpt><trkpt lat="37.0525083" lon="14.3116872"><ele>14.0</ele><time>2026-05-03T06:39:29Z</time></trkpt><trkpt lat="37.0524791" lon="14.3113723"><ele>14.0</ele><time>2026-05-03T06:39:30Z</time></trkpt><trkpt lat="37.0524473" lon="14.3110699"><ele>14.5</ele><time>2026-05-03T06:39:31Z</time></trkpt><trkpt lat="37.0524188" lon="14.3107728"><ele>15.0</ele><time>2026-05-03T06:39:32Z</time></trkpt><trkpt lat="37.0523944" lon="14.3104787"><ele>15.0</ele><time>2026-05-03T06:39:33Z</time></trkpt><trkpt lat="37.0523891" lon="14.3101769"><ele>15.0</ele><time>2026-05-03T06:39:34Z</time></trkpt><trkpt lat="37.052418" lon="14.3098731"><ele>14.5</ele><time>2026-05-03T06:39:35Z</time></trkpt><trkpt lat="37.0524654" lon="14.3095779"><ele>14.0</ele><time>2026-05-03T06:39:36Z</time></trkpt><trkpt lat="37.0525313" lon="14.3092857"><ele>14.0</ele><time>2026-05-03T06:39:37Z</time></trkpt><trkpt lat="37.0526059" lon="14.3089881"><ele>14.0</ele><time>2026-05-03T06:39:38Z</time></trkpt><trkpt lat="37.0526828" lon="14.3086843"><ele>13.5</ele><time>2026-05-03T06:39:39Z</time></trkpt><trkpt lat="37.0527571" lon="14.3083869"><ele>13.0</ele><time>2026-05-03T06:39:40Z</time></trkpt><trkpt lat="37.052826" lon="14.3080902"><ele>13.0</ele><time>2026-05-03T06:39:41Z</time></trkpt><trkpt lat="37.0528992" lon="14.3077936"><ele>13.0</ele><time>2026-05-03T06:39:42Z</time></trkpt><trkpt lat="37.0529758" lon="14.3075009"><ele>13.0</ele><time>2026-05-03T06:39:43Z</time></trkpt><trkpt lat="37.0530518" lon="14.3072038"><ele>13.0</ele><time>2026-05-03T06:39:44Z</time></trkpt><trkpt lat="37.0531265" lon="14.3069091"><ele>13.0</ele><time>2026-05-03T06:39:45Z</time></trkpt><trkpt lat="37.0532005" lon="14.3066098"><ele>13.0</ele><time>2026-05-03T06:39:46Z</time></trkpt><trkpt lat="37.0532787" lon="14.306311"><ele>13.5</ele><time>2026-05-03T06:39:47Z</time></trkpt><trkpt lat="37.0533548" lon="14.3060162"><ele>14.0</ele><time>2026-05-03T06:39:48Z</time></trkpt><trkpt lat="37.0534376" lon="14.3057123"><ele>14.0</ele><time>2026-05-03T06:39:49Z</time></trkpt><trkpt lat="37.0535153" lon="14.3054075"><ele>14.0</ele><time>2026-05-03T06:39:50Z</time></trkpt><trkpt lat="37.0535914" lon="14.3051075"><ele>14.0</ele><time>2026-05-03T06:39:51Z</time></trkpt><trkpt lat="37.0536651" lon="14.3048106"><ele>14.0</ele><time>2026-05-03T06:39:52Z</time></trkpt><trkpt lat="37.0537431" lon="14.3045176"><ele>13.5</ele><time>2026-05-03T06:39:53Z</time></trkpt><trkpt lat="37.0538219" lon="14.3042164"><ele>13.0</ele><time>2026-05-03T06:39:54Z</time></trkpt><trkpt lat="37.0538976" lon="14.303918"><ele>13.5</ele><time>2026-05-03T06:39:55Z</time></trkpt><trkpt lat="37.0539754" lon="14.3036172"><ele>14.0</ele><time>2026-05-03T06:39:56Z</time></trkpt><trkpt lat="37.0540477" lon="14.3033148"><ele>14.0</ele><time>2026-05-03T06:39:57Z</time></trkpt><trkpt lat="37.0541288" lon="14.3030075"><ele>14.0</ele><time>2026-05-03T06:39:58Z</time></trkpt><trkpt lat="37.054207" lon="14.302697"><ele>14.0</ele><time>2026-05-03T06:39:59Z</time></trkpt><trkpt lat="37.0542876" lon="14.3023951"><ele>14.0</ele><time>2026-05-03T06:40:00Z</time></trkpt><trkpt lat="37.0543687" lon="14.3020903"><ele>13.5</ele><time>2026-05-03T06:40:01Z</time></trkpt><trkpt lat="37.0544438" lon="14.3017846"><ele>13.0</ele><time>2026-05-03T06:40:02Z</time></trkpt><trkpt lat="37.0545203" lon="14.3014861"><ele>14.0</ele><time>2026-05-03T06:40:03Z</time></trkpt><trkpt lat="37.0545949" lon="14.3011848"><ele>15.0</ele><time>2026-05-03T06:40:04Z</time></trkpt><trkpt lat="37.0546721" lon="14.3008885"><ele>15.0</ele><time>2026-05-03T06:40:05Z</time></trkpt><trkpt lat="37.054749" lon="14.3005838"><ele>15.0</ele><time>2026-05-03T06:40:06Z</time></trkpt><trkpt lat="37.0548247" lon="14.3002868"><ele>14.0</ele><time>2026-05-03T06:40:07Z</time></trkpt><trkpt lat="37.0548975" lon="14.2999874"><ele>13.0</ele><time>2026-05-03T06:40:08Z</time></trkpt><trkpt lat="37.0549734" lon="14.2996906"><ele>13.0</ele><time>2026-05-03T06:40:09Z</time></trkpt><trkpt lat="37.0550501" lon="14.2993958"><ele>13.0</ele><time>2026-05-03T06:40:10Z</time></trkpt><trkpt lat="37.0551254" lon="14.2991076"><ele>13.5</ele><time>2026-05-03T06:40:11Z</time></trkpt><trkpt lat="37.0551982" lon="14.2988137"><ele>14.0</ele><time>2026-05-03T06:40:12Z</time></trkpt><trkpt lat="37.0552728" lon="14.2985207"><ele>14.0</ele><time>2026-05-03T06:40:13Z</time></trkpt><trkpt lat="37.0553506" lon="14.2982336"><ele>14.0</ele><time>2026-05-03T06:40:14Z</time></trkpt><trkpt lat="37.0554234" lon="14.2979523"><ele>13.5</ele><time>2026-05-03T06:40:15Z</time></trkpt><trkpt lat="37.0554922" lon="14.2976755"><ele>13.0</ele><time>2026-05-03T06:40:16Z</time></trkpt><trkpt lat="37.0555638" lon="14.2973968"><ele>12.0</ele><time>2026-05-03T06:40:17Z</time></trkpt><trkpt lat="37.0556307" lon="14.2971193"><ele>11.0</ele><time>2026-05-03T06:40:18Z</time></trkpt><trkpt lat="37.0556996" lon="14.2968471"><ele>11.0</ele><time>2026-05-03T06:40:19Z</time></trkpt><trkpt lat="37.0557698" lon="14.2965715"><ele>11.0</ele><time>2026-05-03T06:40:20Z</time></trkpt><trkpt lat="37.055843" lon="14.2962916"><ele>12.0</ele><time>2026-05-03T06:40:21Z</time></trkpt><trkpt lat="37.0559074" lon="14.2960188"><ele>13.0</ele><time>2026-05-03T06:40:22Z</time></trkpt><trkpt lat="37.0559734" lon="14.2957507"><ele>12.333333333333332</ele><time>2026-05-03T06:40:23Z</time></trkpt><trkpt lat="37.0560385" lon="14.295493"><ele>11.666666666666666</ele><time>2026-05-03T06:40:24Z</time></trkpt><trkpt lat="37.0561014" lon="14.2952542"><ele>11.0</ele><time>2026-05-03T06:40:25Z</time></trkpt><trkpt lat="37.0561592" lon="14.2950206"><ele>11.0</ele><time>2026-05-03T06:40:26Z</time></trkpt><trkpt lat="37.0562214" lon="14.2947942"><ele>11.0</ele><time>2026-05-03T06:40:27Z</time></trkpt><trkpt lat="37.0562796" lon="14.2945703"><ele>11.0</ele><time>2026-05-03T06:40:28Z</time></trkpt><trkpt lat="37.0563393" lon="14.2943417"><ele>11.0</ele><time>2026-05-03T06:40:29Z</time></trkpt><trkpt lat="37.0564032" lon="14.2941103"><ele>11.0</ele><time>2026-05-03T06:40:30Z</time></trkpt><trkpt lat="37.0564643" lon="14.2938793"><ele>11.0</ele><time>2026-05-03T06:40:31Z</time></trkpt><trkpt lat="37.0565256" lon="14.2936404"><ele>10.666666666666666</ele><time>2026-05-03T06:40:32Z</time></trkpt><trkpt lat="37.0565807" lon="14.2933998"><ele>10.333333333333334</ele><time>2026-05-03T06:40:33Z</time></trkpt><trkpt lat="37.0566421" lon="14.2931556"><ele>10.0</ele><time>2026-05-03T06:40:34Z</time></trkpt><trkpt lat="37.0567062" lon="14.2929048"><ele>10.0</ele><time>2026-05-03T06:40:35Z</time></trkpt><trkpt lat="37.0567708" lon="14.2926462"><ele>10.0</ele><time>2026-05-03T06:40:36Z</time></trkpt><trkpt lat="37.056838" lon="14.2923944"><ele>10.0</ele><time>2026-05-03T06:40:37Z</time></trkpt><trkpt lat="37.0569083" lon="14.292138"><ele>10.333333333333334</ele><time>2026-05-03T06:40:38Z</time></trkpt><trkpt lat="37.0569722" lon="14.2918801"><ele>10.666666666666666</ele><time>2026-05-03T06:40:39Z</time></trkpt><trkpt lat="37.0570422" lon="14.2916172"><ele>11.0</ele><time>2026-05-03T06:40:40Z</time></trkpt><trkpt lat="37.0571181" lon="14.2913231"><ele>12.0</ele><time>2026-05-03T06:40:41Z</time></trkpt><trkpt lat="37.0571943" lon="14.2909952"><ele>13.0</ele><time>2026-05-03T06:40:42Z</time></trkpt><trkpt lat="37.0572683" lon="14.2906647"><ele>12.5</ele><time>2026-05-03T06:40:43Z</time></trkpt><trkpt lat="37.0573451" lon="14.2903383"><ele>12.0</ele><time>2026-05-03T06:40:44Z</time></trkpt><trkpt lat="37.0574307" lon="14.2900249"><ele>12.5</ele><time>2026-05-03T06:40:45Z</time></trkpt><trkpt lat="37.0575155" lon="14.2897103"><ele>13.0</ele><time>2026-05-03T06:40:46Z</time></trkpt><trkpt lat="37.0575929" lon="14.2893953"><ele>13.0</ele><time>2026-05-03T06:40:47Z</time></trkpt><trkpt lat="37.0576741" lon="14.2890438"><ele>13.0</ele><time>2026-05-03T06:40:48Z</time></trkpt><trkpt lat="37.0577619" lon="14.2886747"><ele>13.0</ele><time>2026-05-03T06:40:49Z</time></trkpt><trkpt lat="37.0578649" lon="14.2883025"><ele>13.0</ele><time>2026-05-03T06:40:50Z</time></trkpt><trkpt lat="37.0579653" lon="14.2879207"><ele>13.0</ele><time>2026-05-03T06:40:51Z</time></trkpt><trkpt lat="37.0580563" lon="14.2875457"><ele>13.0</ele><time>2026-05-03T06:40:52Z</time></trkpt><trkpt lat="37.0581451" lon="14.2871766"><ele>12.5</ele><time>2026-05-03T06:40:53Z</time></trkpt><trkpt lat="37.0582297" lon="14.2868163"><ele>12.0</ele><time>2026-05-03T06:40:54Z</time></trkpt><trkpt lat="37.0583238" lon="14.2864628"><ele>11.5</ele><time>2026-05-03T06:40:55Z</time></trkpt><trkpt lat="37.0584116" lon="14.2861216"><ele>11.0</ele><time>2026-05-03T06:40:56Z</time></trkpt><trkpt lat="37.058502" lon="14.2858048"><ele>11.5</ele><time>2026-05-03T06:40:57Z</time></trkpt><trkpt lat="37.0585808" lon="14.2855064"><ele>12.0</ele><time>2026-05-03T06:40:58Z</time></trkpt><trkpt lat="37.0586624" lon="14.2852222"><ele>12.0</ele><time>2026-05-03T06:40:59Z</time></trkpt><trkpt lat="37.0587349" lon="14.2849573"><ele>12.0</ele><time>2026-05-03T06:41:00Z</time></trkpt><trkpt lat="37.0588017" lon="14.2846972"><ele>12.0</ele><time>2026-05-03T06:41:01Z</time></trkpt><trkpt lat="37.0588636" lon="14.2844561"><ele>11.666666666666666</ele><time>2026-05-03T06:41:02Z</time></trkpt><trkpt lat="37.0589206" lon="14.2842152"><ele>11.333333333333332</ele><time>2026-05-03T06:41:03Z</time></trkpt><trkpt lat="37.0589802" lon="14.28398"><ele>11.0</ele><time>2026-05-03T06:41:04Z</time></trkpt><trkpt lat="37.0590423" lon="14.283745"><ele>10.666666666666666</ele><time>2026-05-03T06:41:05Z</time></trkpt><trkpt lat="37.0591044" lon="14.283517"><ele>10.333333333333334</ele><time>2026-05-03T06:41:06Z</time></trkpt><trkpt lat="37.0591612" lon="14.2832966"><ele>10.0</ele><time>2026-05-03T06:41:07Z</time></trkpt><trkpt lat="37.0592139" lon="14.2830799"><ele>9.666666666666668</ele><time>2026-05-03T06:41:08Z</time></trkpt><trkpt lat="37.0592676" lon="14.2828656"><ele>9.333333333333334</ele><time>2026-05-03T06:41:09Z</time></trkpt><trkpt lat="37.0593258" lon="14.2826537"><ele>9.0</ele><time>2026-05-03T06:41:10Z</time></trkpt><trkpt lat="37.0593801" lon="14.2824393"><ele>9.333333333333334</ele><time>2026-05-03T06:41:11Z</time></trkpt><trkpt lat="37.0594391" lon="14.28222"><ele>9.666666666666668</ele><time>2026-05-03T06:41:12Z</time></trkpt><trkpt lat="37.0594942" lon="14.282"><ele>10.0</ele><time>2026-05-03T06:41:13Z</time></trkpt><trkpt lat="37.0595508" lon="14.2817819"><ele>10.0</ele><time>2026-05-03T06:41:14Z</time></trkpt><trkpt lat="37.0596067" lon="14.2815663"><ele>10.0</ele><time>2026-05-03T06:41:15Z</time></trkpt><trkpt lat="37.0596604" lon="14.281346"><ele>10.0</ele><time>2026-05-03T06:41:16Z</time></trkpt><trkpt lat="37.0597141" lon="14.2811393"><ele>10.0</ele><time>2026-05-03T06:41:17Z</time></trkpt><trkpt lat="37.0597692" lon="14.2809293"><ele>10.0</ele><time>2026-05-03T06:41:18Z</time></trkpt><trkpt lat="37.0598274" lon="14.2807217"><ele>10.0</ele><time>2026-05-03T06:41:19Z</time></trkpt><trkpt lat="37.0598835" lon="14.2805153"><ele>10.0</ele><time>2026-05-03T06:41:20Z</time></trkpt><trkpt lat="37.0599361" lon="14.280305"><ele>10.0</ele><time>2026-05-03T06:41:21Z</time></trkpt><trkpt lat="37.0599885" lon="14.2800945"><ele>10.0</ele><time>2026-05-03T06:41:22Z</time></trkpt><trkpt lat="37.0600418" lon="14.2798843"><ele>10.0</ele><time>2026-05-03T06:41:23Z</time></trkpt><trkpt lat="37.0600959" lon="14.2796711"><ele>10.0</ele><time>2026-05-03T06:41:24Z</time></trkpt><trkpt lat="37.0601479" lon="14.2794646"><ele>10.0</ele><time>2026-05-03T06:41:25Z</time></trkpt><trkpt lat="37.0602029" lon="14.2792532"><ele>10.0</ele><time>2026-05-03T06:41:26Z</time></trkpt><trkpt lat="37.0602589" lon="14.2790461"><ele>10.0</ele><time>2026-05-03T06:41:27Z</time></trkpt><trkpt lat="37.0603061" lon="14.2788437"><ele>10.0</ele><time>2026-05-03T06:41:28Z</time></trkpt><trkpt lat="37.060361" lon="14.278637"><ele>10.333333333333334</ele><time>2026-05-03T06:41:29Z</time></trkpt><trkpt lat="37.0604095" lon="14.278433"><ele>10.666666666666666</ele><time>2026-05-03T06:41:30Z</time></trkpt><trkpt lat="37.0604643" lon="14.2782232"><ele>11.0</ele><time>2026-05-03T06:41:31Z</time></trkpt><trkpt lat="37.0605158" lon="14.2780129"><ele>11.0</ele><time>2026-05-03T06:41:32Z</time></trkpt><trkpt lat="37.0605667" lon="14.2778134"><ele>11.0</ele><time>2026-05-03T06:41:33Z</time></trkpt><trkpt lat="37.0606197" lon="14.2776169"><ele>11.0</ele><time>2026-05-03T06:41:34Z</time></trkpt><trkpt lat="37.0606687" lon="14.2774282"><ele>11.333333333333332</ele><time>2026-05-03T06:41:35Z</time></trkpt><trkpt lat="37.0607161" lon="14.2772416"><ele>11.666666666666666</ele><time>2026-05-03T06:41:36Z</time></trkpt><trkpt lat="37.0607602" lon="14.2770572"><ele>12.0</ele><time>2026-05-03T06:41:37Z</time></trkpt><trkpt lat="37.0608053" lon="14.2768764"><ele>12.0</ele><time>2026-05-03T06:41:38Z</time></trkpt><trkpt lat="37.0608545" lon="14.2766841"><ele>12.0</ele><time>2026-05-03T06:41:39Z</time></trkpt><trkpt lat="37.0609059" lon="14.2764955"><ele>12.0</ele><time>2026-05-03T06:41:40Z</time></trkpt><trkpt lat="37.0609555" lon="14.2763073"><ele>11.333333333333334</ele><time>2026-05-03T06:41:41Z</time></trkpt><trkpt lat="37.061005" lon="14.2761211"><ele>10.666666666666668</ele><time>2026-05-03T06:41:42Z</time></trkpt><trkpt lat="37.06105" lon="14.27593"><ele>10.0</ele><time>2026-05-03T06:41:43Z</time></trkpt><trkpt lat="37.0610958" lon="14.2757482"><ele>10.75</ele><time>2026-05-03T06:41:44Z</time></trkpt><trkpt lat="37.0611436" lon="14.2755721"><ele>11.5</ele><time>2026-05-03T06:41:45Z</time></trkpt><trkpt lat="37.0611952" lon="14.2754032"><ele>12.25</ele><time>2026-05-03T06:41:46Z</time></trkpt><trkpt lat="37.0612534" lon="14.2752335"><ele>13.0</ele><time>2026-05-03T06:41:47Z</time></trkpt><trkpt lat="37.0613244" lon="14.2750665"><ele>13.0</ele><time>2026-05-03T06:41:48Z</time></trkpt><trkpt lat="37.0614012" lon="14.2749087"><ele>13.0</ele><time>2026-05-03T06:41:49Z</time></trkpt><trkpt lat="37.0614835" lon="14.2747622"><ele>13.0</ele><time>2026-05-03T06:41:50Z</time></trkpt><trkpt lat="37.0615718" lon="14.2746107"><ele>13.0</ele><time>2026-05-03T06:41:51Z</time></trkpt><trkpt lat="37.0616668" lon="14.2744638"><ele>12.25</ele><time>2026-05-03T06:41:52Z</time></trkpt><trkpt lat="37.0617524" lon="14.2743182"><ele>11.5</ele><time>2026-05-03T06:41:53Z</time></trkpt><trkpt lat="37.0618426" lon="14.2741783"><ele>10.75</ele><time>2026-05-03T06:41:54Z</time></trkpt><trkpt lat="37.0619301" lon="14.274042"><ele>10.0</ele><time>2026-05-03T06:41:55Z</time></trkpt><trkpt lat="37.0620318" lon="14.2738765"><ele>10.0</ele><time>2026-05-03T06:41:55.999Z</time></trkpt><trkpt lat="37.0621409" lon="14.2736673"><ele>10.0</ele><time>2026-05-03T06:41:57Z</time></trkpt><trkpt lat="37.0622815" lon="14.2734336"><ele>10.0</ele><time>2026-05-03T06:41:58Z</time></trkpt><trkpt lat="37.0624292" lon="14.2732105"><ele>12.0</ele><time>2026-05-03T06:41:59Z</time></trkpt><trkpt lat="37.0625781" lon="14.2729845"><ele>14.0</ele><time>2026-05-03T06:42:00Z</time></trkpt><trkpt lat="37.0627219" lon="14.2727508"><ele>14.0</ele><time>2026-05-03T06:42:00.999Z</time></trkpt><trkpt lat="37.062874" lon="14.2725331"><ele>14.0</ele><time>2026-05-03T06:42:02Z</time></trkpt><trkpt lat="37.0630206" lon="14.2723249"><ele>13.333333333333334</ele><time>2026-05-03T06:42:03Z</time></trkpt><trkpt lat="37.0631762" lon="14.2721283"><ele>12.666666666666668</ele><time>2026-05-03T06:42:04Z</time></trkpt><trkpt lat="37.0633413" lon="14.2719325"><ele>12.0</ele><time>2026-05-03T06:42:05Z</time></trkpt><trkpt lat="37.0634984" lon="14.2717471"><ele>11.666666666666666</ele><time>2026-05-03T06:42:05.999Z</time></trkpt><trkpt lat="37.0636583" lon="14.2715587"><ele>11.333333333333332</ele><time>2026-05-03T06:42:07Z</time></trkpt><trkpt lat="37.063821" lon="14.2713731"><ele>11.0</ele><time>2026-05-03T06:42:08Z</time></trkpt><trkpt lat="37.0639865" lon="14.2711915"><ele>10.333333333333332</ele><time>2026-05-03T06:42:08.999Z</time></trkpt><trkpt lat="37.064152" lon="14.2710062"><ele>9.666666666666666</ele><time>2026-05-03T06:42:10Z</time></trkpt><trkpt lat="37.0643124" lon="14.2708229"><ele>9.0</ele><time>2026-05-03T06:42:11Z</time></trkpt><trkpt lat="37.0644746" lon="14.2706356"><ele>9.333333333333334</ele><time>2026-05-03T06:42:12Z</time></trkpt><trkpt lat="37.0646339" lon="14.2704371"><ele>9.666666666666668</ele><time>2026-05-03T06:42:13Z</time></trkpt><trkpt lat="37.0647844" lon="14.2702303"><ele>10.0</ele><time>2026-05-03T06:42:14Z</time></trkpt><trkpt lat="37.0649305" lon="14.270024"><ele>10.0</ele><time>2026-05-03T06:42:15Z</time></trkpt><trkpt lat="37.0650736" lon="14.2698045"><ele>10.0</ele><time>2026-05-03T06:42:16Z</time></trkpt><trkpt lat="37.0652101" lon="14.2695818"><ele>10.0</ele><time>2026-05-03T06:42:17Z</time></trkpt><trkpt lat="37.065335" lon="14.2693542"><ele>10.0</ele><time>2026-05-03T06:42:18Z</time></trkpt><trkpt lat="37.0654507" lon="14.269122"><ele>10.0</ele><time>2026-05-03T06:42:19Z</time></trkpt><trkpt lat="37.0655561" lon="14.2688791"><ele>10.0</ele><time>2026-05-03T06:42:20Z</time></trkpt><trkpt lat="37.065647" lon="14.2686253"><ele>10.0</ele><time>2026-05-03T06:42:21Z</time></trkpt><trkpt lat="37.0657352" lon="14.2683763"><ele>10.0</ele><time>2026-05-03T06:42:22Z</time></trkpt><trkpt lat="37.0658192" lon="14.2681146"><ele>10.0</ele><time>2026-05-03T06:42:23Z</time></trkpt><trkpt lat="37.0659018" lon="14.2678642"><ele>10.0</ele><time>2026-05-03T06:42:24Z</time></trkpt><trkpt lat="37.065982" lon="14.2676072"><ele>10.0</ele><time>2026-05-03T06:42:25Z</time></trkpt><trkpt lat="37.066059" lon="14.2673547"><ele>10.0</ele><time>2026-05-03T06:42:26Z</time></trkpt><trkpt lat="37.0661374" lon="14.2670973"><ele>10.0</ele><time>2026-05-03T06:42:27Z</time></trkpt><trkpt lat="37.0662155" lon="14.2668346"><ele>10.0</ele><time>2026-05-03T06:42:28Z</time></trkpt><trkpt lat="37.0662948" lon="14.266562"><ele>10.333333333333334</ele><time>2026-05-03T06:42:29Z</time></trkpt><trkpt lat="37.0663685" lon="14.2663126"><ele>10.666666666666666</ele><time>2026-05-03T06:42:30Z</time></trkpt><trkpt lat="37.0664396" lon="14.266074"><ele>11.0</ele><time>2026-05-03T06:42:31Z</time></trkpt><trkpt lat="37.0665063" lon="14.2658472"><ele>11.0</ele><time>2026-05-03T06:42:32Z</time></trkpt><trkpt lat="37.06657" lon="14.2656262"><ele>11.0</ele><time>2026-05-03T06:42:33Z</time></trkpt><trkpt lat="37.0666289" lon="14.2654196"><ele>11.0</ele><time>2026-05-03T06:42:34Z</time></trkpt><trkpt lat="37.0666924" lon="14.2652302"><ele>11.0</ele><time>2026-05-03T06:42:35Z</time></trkpt><trkpt lat="37.0667468" lon="14.2650599"><ele>11.0</ele><time>2026-05-03T06:42:36Z</time></trkpt><trkpt lat="37.0668156" lon="14.2649096"><ele>11.0</ele><time>2026-05-03T06:42:37Z</time></trkpt><trkpt lat="37.0668887" lon="14.2647827"><ele>11.0</ele><time>2026-05-03T06:42:38Z</time></trkpt><trkpt lat="37.066973" lon="14.2646727"><ele>11.0</ele><time>2026-05-03T06:42:39Z</time></trkpt><trkpt lat="37.0670745" lon="14.2645828"><ele>11.0</ele><time>2026-05-03T06:42:40Z</time></trkpt><trkpt lat="37.0671828" lon="14.2645302"><ele>11.0</ele><time>2026-05-03T06:42:41Z</time></trkpt><trkpt lat="37.0673024" lon="14.2645077"><ele>11.0</ele><time>2026-05-03T06:42:42Z</time></trkpt><trkpt lat="37.0674206" lon="14.2645273"><ele>10.75</ele><time>2026-05-03T06:42:43Z</time></trkpt><trkpt lat="37.0675416" lon="14.2645849"><ele>10.5</ele><time>2026-05-03T06:42:44Z</time></trkpt><trkpt lat="37.0676559" lon="14.2646716"><ele>10.25</ele><time>2026-05-03T06:42:45Z</time></trkpt><trkpt lat="37.0677742" lon="14.2647723"><ele>10.0</ele><time>2026-05-03T06:42:46Z</time></trkpt><trkpt lat="37.0678947" lon="14.2648823"><ele>11.333333333333334</ele><time>2026-05-03T06:42:47Z</time></trkpt><trkpt lat="37.0680285" lon="14.2649988"><ele>12.666666666666668</ele><time>2026-05-03T06:42:48Z</time></trkpt><trkpt lat="37.0681555" lon="14.2651208"><ele>14.0</ele><time>2026-05-03T06:42:49Z</time></trkpt><trkpt lat="37.0682892" lon="14.2652409"><ele>14.0</ele><time>2026-05-03T06:42:50Z</time></trkpt><trkpt lat="37.0684265" lon="14.2653659"><ele>14.0</ele><time>2026-05-03T06:42:51Z</time></trkpt><trkpt lat="37.0685724" lon="14.2654989"><ele>14.0</ele><time>2026-05-03T06:42:52Z</time></trkpt><trkpt lat="37.0687203" lon="14.2656353"><ele>14.0</ele><time>2026-05-03T06:42:53Z</time></trkpt><trkpt lat="37.068867" lon="14.2657736"><ele>14.0</ele><time>2026-05-03T06:42:54Z</time></trkpt><trkpt lat="37.0690208" lon="14.2659139"><ele>14.0</ele><time>2026-05-03T06:42:55Z</time></trkpt><trkpt lat="37.0691783" lon="14.2660607"><ele>14.0</ele><time>2026-05-03T06:42:56Z</time></trkpt><trkpt lat="37.0693377" lon="14.2662115"><ele>14.0</ele><time>2026-05-03T06:42:57Z</time></trkpt><trkpt lat="37.0695073" lon="14.2663688"><ele>14.0</ele><time>2026-05-03T06:42:58Z</time></trkpt><trkpt lat="37.0696703" lon="14.2665122"><ele>13.333333333333334</ele><time>2026-05-03T06:42:59Z</time></trkpt><trkpt lat="37.0698455" lon="14.2666364"><ele>12.666666666666668</ele><time>2026-05-03T06:43:00Z</time></trkpt><trkpt lat="37.0700301" lon="14.2667433"><ele>12.0</ele><time>2026-05-03T06:43:01Z</time></trkpt><trkpt lat="37.0702203" lon="14.2668278"><ele>11.666666666666666</ele><time>2026-05-03T06:43:02Z</time></trkpt><trkpt lat="37.0704182" lon="14.2668824"><ele>11.333333333333332</ele><time>2026-05-03T06:43:03Z</time></trkpt><trkpt lat="37.0706196" lon="14.266911"><ele>11.0</ele><time>2026-05-03T06:43:04Z</time></trkpt><trkpt lat="37.0708255" lon="14.2669075"><ele>10.333333333333332</ele><time>2026-05-03T06:43:05Z</time></trkpt><trkpt lat="37.0710365" lon="14.2668694"><ele>9.666666666666666</ele><time>2026-05-03T06:43:06Z</time></trkpt><trkpt lat="37.0712375" lon="14.2668118"><ele>9.0</ele><time>2026-05-03T06:43:07Z</time></trkpt><trkpt lat="37.0714313" lon="14.2667194"><ele>9.333333333333334</ele><time>2026-05-03T06:43:08Z</time></trkpt><trkpt lat="37.0716154" lon="14.2665982"><ele>9.666666666666668</ele><time>2026-05-03T06:43:09Z</time></trkpt><trkpt lat="37.0717959" lon="14.2664497"><ele>10.0</ele><time>2026-05-03T06:43:10Z</time></trkpt><trkpt lat="37.0719717" lon="14.2662875"><ele>10.333333333333334</ele><time>2026-05-03T06:43:11Z</time></trkpt><trkpt lat="37.0721516" lon="14.2661232"><ele>10.666666666666666</ele><time>2026-05-03T06:43:12Z</time></trkpt><trkpt lat="37.0723329" lon="14.2659573"><ele>11.0</ele><time>2026-05-03T06:43:13Z</time></trkpt><trkpt lat="37.0725129" lon="14.2657898"><ele>11.0</ele><time>2026-05-03T06:43:14Z</time></trkpt><trkpt lat="37.0727029" lon="14.2656214"><ele>11.0</ele><time>2026-05-03T06:43:15Z</time></trkpt><trkpt lat="37.0728825" lon="14.265458"><ele>10.0</ele><time>2026-05-03T06:43:16Z</time></trkpt><trkpt lat="37.0730676" lon="14.2652947"><ele>9.0</ele><time>2026-05-03T06:43:17Z</time></trkpt><trkpt lat="37.0732522" lon="14.2651343"><ele>9.333333333333334</ele><time>2026-05-03T06:43:18Z</time></trkpt><trkpt lat="37.0734342" lon="14.2649705"><ele>9.666666666666668</ele><time>2026-05-03T06:43:19Z</time></trkpt><trkpt lat="37.0736123" lon="14.2648144"><ele>10.0</ele><time>2026-05-03T06:43:20Z</time></trkpt><trkpt lat="37.0737788" lon="14.2646651"><ele>10.0</ele><time>2026-05-03T06:43:21Z</time></trkpt><trkpt lat="37.0739403" lon="14.2645209"><ele>10.0</ele><time>2026-05-03T06:43:22Z</time></trkpt><trkpt lat="37.0740979" lon="14.2643802"><ele>10.0</ele><time>2026-05-03T06:43:23Z</time></trkpt><trkpt lat="37.074247" lon="14.2642498"><ele>10.666666666666668</ele><time>2026-05-03T06:43:24Z</time></trkpt><trkpt lat="37.0743886" lon="14.2641346"><ele>11.333333333333334</ele><time>2026-05-03T06:43:25Z</time></trkpt><trkpt lat="37.0745338" lon="14.2640499"><ele>12.0</ele><time>2026-05-03T06:43:26Z</time></trkpt><trkpt lat="37.0746805" lon="14.2639929"><ele>12.0</ele><time>2026-05-03T06:43:27Z</time></trkpt><trkpt lat="37.0748403" lon="14.2639642"><ele>12.0</ele><time>2026-05-03T06:43:28Z</time></trkpt><trkpt lat="37.0749979" lon="14.2639662"><ele>12.0</ele><time>2026-05-03T06:43:29Z</time></trkpt><trkpt lat="37.0751492" lon="14.2639744"><ele>12.25</ele><time>2026-05-03T06:43:30Z</time></trkpt><trkpt lat="37.0752885" lon="14.263954"><ele>12.5</ele><time>2026-05-03T06:43:31Z</time></trkpt><trkpt lat="37.0754132" lon="14.2638962"><ele>12.75</ele><time>2026-05-03T06:43:32Z</time></trkpt><trkpt lat="37.0755175" lon="14.2638051"><ele>13.0</ele><time>2026-05-03T06:43:33Z</time></trkpt><trkpt lat="37.0755939" lon="14.263699"><ele>13.0</ele><time>2026-05-03T06:43:34Z</time></trkpt><trkpt lat="37.0756581" lon="14.2636046"><ele>13.0</ele><time>2026-05-03T06:43:35Z</time></trkpt><trkpt lat="37.0757371" lon="14.2635279"><ele>13.0</ele><time>2026-05-03T06:43:36Z</time></trkpt><trkpt lat="37.0758572" lon="14.2634502"><ele>13.0</ele><time>2026-05-03T06:43:37Z</time></trkpt><trkpt lat="37.0759815" lon="14.2633725"><ele>12.75</ele><time>2026-05-03T06:43:38Z</time></trkpt><trkpt lat="37.0761083" lon="14.2633108"><ele>12.5</ele><time>2026-05-03T06:43:39Z</time></trkpt><trkpt lat="37.0762448" lon="14.2632924"><ele>12.25</ele><time>2026-05-03T06:43:40Z</time></trkpt><trkpt lat="37.0763764" lon="14.2633096"><ele>12.0</ele><time>2026-05-03T06:43:41Z</time></trkpt><trkpt lat="37.0764995" lon="14.263344"><ele>12.75</ele><time>2026-05-03T06:43:42Z</time></trkpt><trkpt lat="37.0766293" lon="14.2634017"><ele>13.5</ele><time>2026-05-03T06:43:43Z</time></trkpt><trkpt lat="37.0767482" lon="14.2634687"><ele>14.25</ele><time>2026-05-03T06:43:44Z</time></trkpt><trkpt lat="37.0768699" lon="14.2635253"><ele>15.0</ele><time>2026-05-03T06:43:45Z</time></trkpt><trkpt lat="37.0770186" lon="14.2635898"><ele>15.0</ele><time>2026-05-03T06:43:46Z</time></trkpt><trkpt lat="37.0771653" lon="14.2636738"><ele>15.0</ele><time>2026-05-03T06:43:47Z</time></trkpt><trkpt lat="37.0773195" lon="14.2637757"><ele>15.0</ele><time>2026-05-03T06:43:48Z</time></trkpt><trkpt lat="37.0774767" lon="14.263882"><ele>14.666666666666668</ele><time>2026-05-03T06:43:49Z</time></trkpt><trkpt lat="37.0776426" lon="14.2639881"><ele>14.333333333333334</ele><time>2026-05-03T06:43:50Z</time></trkpt><trkpt lat="37.0778156" lon="14.2640923"><ele>14.0</ele><time>2026-05-03T06:43:51Z</time></trkpt><trkpt lat="37.0779981" lon="14.2641965"><ele>14.0</ele><time>2026-05-03T06:43:52Z</time></trkpt><trkpt lat="37.0781891" lon="14.2642998"><ele>14.0</ele><time>2026-05-03T06:43:53Z</time></trkpt><trkpt lat="37.0783747" lon="14.2644066"><ele>14.0</ele><time>2026-05-03T06:43:54Z</time></trkpt><trkpt lat="37.0785698" lon="14.264515"><ele>14.0</ele><time>2026-05-03T06:43:55Z</time></trkpt><trkpt lat="37.0787646" lon="14.2646341"><ele>14.0</ele><time>2026-05-03T06:43:56Z</time></trkpt><trkpt lat="37.078967" lon="14.2647499"><ele>14.0</ele><time>2026-05-03T06:43:57Z</time></trkpt><trkpt lat="37.0791708" lon="14.2648693"><ele>14.5</ele><time>2026-05-03T06:43:58Z</time></trkpt><trkpt lat="37.0793946" lon="14.2649972"><ele>15.0</ele><time>2026-05-03T06:43:59Z</time></trkpt><trkpt lat="37.0796173" lon="14.2651277"><ele>15.0</ele><time>2026-05-03T06:44:00Z</time></trkpt><trkpt lat="37.0798535" lon="14.2652632"><ele>15.0</ele><time>2026-05-03T06:44:01Z</time></trkpt><trkpt lat="37.0800888" lon="14.2653972"><ele>15.5</ele><time>2026-05-03T06:44:02Z</time></trkpt><trkpt lat="37.0803235" lon="14.2655324"><ele>16.0</ele><time>2026-05-03T06:44:03Z</time></trkpt><trkpt lat="37.0805509" lon="14.2656663"><ele>15.5</ele><time>2026-05-03T06:44:04Z</time></trkpt><trkpt lat="37.0807773" lon="14.2658003"><ele>15.0</ele><time>2026-05-03T06:44:05Z</time></trkpt><trkpt lat="37.0810038" lon="14.2659246"><ele>15.0</ele><time>2026-05-03T06:44:06Z</time></trkpt><trkpt lat="37.0812264" lon="14.2660571"><ele>15.0</ele><time>2026-05-03T06:44:07Z</time></trkpt><trkpt lat="37.0814436" lon="14.2661887"><ele>15.0</ele><time>2026-05-03T06:44:08Z</time></trkpt><trkpt lat="37.0816629" lon="14.2663198"><ele>15.0</ele><time>2026-05-03T06:44:09Z</time></trkpt><trkpt lat="37.0818834" lon="14.2664508"><ele>15.0</ele><time>2026-05-03T06:44:10Z</time></trkpt><trkpt lat="37.0821044" lon="14.2665781"><ele>15.0</ele><time>2026-05-03T06:44:11Z</time></trkpt><trkpt lat="37.0823196" lon="14.2667014"><ele>14.5</ele><time>2026-05-03T06:44:12Z</time></trkpt><trkpt lat="37.0825343" lon="14.2668184"><ele>14.0</ele><time>2026-05-03T06:44:13Z</time></trkpt><trkpt lat="37.0827465" lon="14.2669428"><ele>14.0</ele><time>2026-05-03T06:44:14Z</time></trkpt><trkpt lat="37.0829631" lon="14.2670693"><ele>14.0</ele><time>2026-05-03T06:44:15Z</time></trkpt><trkpt lat="37.0831761" lon="14.2671947"><ele>15.5</ele><time>2026-05-03T06:44:16Z</time></trkpt><trkpt lat="37.0833919" lon="14.2673218"><ele>17.0</ele><time>2026-05-03T06:44:17Z</time></trkpt><trkpt lat="37.0836063" lon="14.2674499"><ele>17.0</ele><time>2026-05-03T06:44:18Z</time></trkpt><trkpt lat="37.0838219" lon="14.2675734"><ele>17.0</ele><time>2026-05-03T06:44:19Z</time></trkpt><trkpt lat="37.0840435" lon="14.2677021"><ele>17.5</ele><time>2026-05-03T06:44:20Z</time></trkpt><trkpt lat="37.0842643" lon="14.26783"><ele>18.0</ele><time>2026-05-03T06:44:21Z</time></trkpt><trkpt lat="37.0844793" lon="14.2679583"><ele>18.0</ele><time>2026-05-03T06:44:22Z</time></trkpt><trkpt lat="37.0847045" lon="14.2680801"><ele>18.0</ele><time>2026-05-03T06:44:23Z</time></trkpt><trkpt lat="37.0849206" lon="14.268208"><ele>18.0</ele><time>2026-05-03T06:44:24Z</time></trkpt><trkpt lat="37.0851403" lon="14.2683339"><ele>18.0</ele><time>2026-05-03T06:44:25Z</time></trkpt><trkpt lat="37.0853595" lon="14.2684641"><ele>18.0</ele><time>2026-05-03T06:44:26Z</time></trkpt><trkpt lat="37.0855927" lon="14.2685948"><ele>18.0</ele><time>2026-05-03T06:44:27Z</time></trkpt><trkpt lat="37.0858301" lon="14.2687347"><ele>18.5</ele><time>2026-05-03T06:44:28Z</time></trkpt><trkpt lat="37.0860717" lon="14.2688793"><ele>19.0</ele><time>2026-05-03T06:44:29Z</time></trkpt><trkpt lat="37.086323" lon="14.2690302"><ele>19.0</ele><time>2026-05-03T06:44:29.999Z</time></trkpt><trkpt lat="37.0865797" lon="14.2691799"><ele>19.0</ele><time>2026-05-03T06:44:31Z</time></trkpt><trkpt lat="37.0868349" lon="14.269326"><ele>18.0</ele><time>2026-05-03T06:44:32Z</time></trkpt><trkpt lat="37.087095" lon="14.2694722"><ele>17.0</ele><time>2026-05-03T06:44:33Z</time></trkpt><trkpt lat="37.0873516" lon="14.2696164"><ele>17.0</ele><time>2026-05-03T06:44:34Z</time></trkpt><trkpt lat="37.087602" lon="14.2697605"><ele>17.0</ele><time>2026-05-03T06:44:35Z</time></trkpt><trkpt lat="37.0878544" lon="14.2699073"><ele>17.0</ele><time>2026-05-03T06:44:36Z</time></trkpt><trkpt lat="37.0881045" lon="14.270052"><ele>17.0</ele><time>2026-05-03T06:44:37Z</time></trkpt><trkpt lat="37.0883474" lon="14.2701898"><ele>17.0</ele><time>2026-05-03T06:44:38Z</time></trkpt><trkpt lat="37.0885941" lon="14.2703285"><ele>17.0</ele><time>2026-05-03T06:44:39Z</time></trkpt><trkpt lat="37.0888373" lon="14.2704744"><ele>17.0</ele><time>2026-05-03T06:44:40Z</time></trkpt><trkpt lat="37.0890813" lon="14.2706118"><ele>17.0</ele><time>2026-05-03T06:44:41Z</time></trkpt><trkpt lat="37.0893269" lon="14.2707536"><ele>17.0</ele><time>2026-05-03T06:44:42Z</time></trkpt><trkpt lat="37.0895641" lon="14.2708906"><ele>17.0</ele><time>2026-05-03T06:44:43Z</time></trkpt><trkpt lat="37.0898103" lon="14.2710356"><ele>18.0</ele><time>2026-05-03T06:44:44Z</time></trkpt><trkpt lat="37.0900528" lon="14.2711737"><ele>19.0</ele><time>2026-05-03T06:44:45Z</time></trkpt><trkpt lat="37.0902967" lon="14.271316"><ele>19.0</ele><time>2026-05-03T06:44:46Z</time></trkpt><trkpt lat="37.0905366" lon="14.2714565"><ele>19.0</ele><time>2026-05-03T06:44:47Z</time></trkpt><trkpt lat="37.0907812" lon="14.2715951"><ele>19.5</ele><time>2026-05-03T06:44:48Z</time></trkpt><trkpt lat="37.091021" lon="14.2717366"><ele>20.0</ele><time>2026-05-03T06:44:49Z</time></trkpt><trkpt lat="37.0912609" lon="14.2718763"><ele>20.0</ele><time>2026-05-03T06:44:50Z</time></trkpt><trkpt lat="37.0914986" lon="14.27202"><ele>20.0</ele><time>2026-05-03T06:44:51Z</time></trkpt><trkpt lat="37.0917432" lon="14.272163"><ele>20.0</ele><time>2026-05-03T06:44:52Z</time></trkpt><trkpt lat="37.091988" lon="14.2723064"><ele>20.0</ele><time>2026-05-03T06:44:53Z</time></trkpt><trkpt lat="37.092233" lon="14.2724487"><ele>20.0</ele><time>2026-05-03T06:44:54Z</time></trkpt><trkpt lat="37.0924791" lon="14.2725868"><ele>20.0</ele><time>2026-05-03T06:44:55Z</time></trkpt><trkpt lat="37.0927236" lon="14.2727273"><ele>20.0</ele><time>2026-05-03T06:44:56Z</time></trkpt><trkpt lat="37.0929675" lon="14.2728692"><ele>20.0</ele><time>2026-05-03T06:44:57Z</time></trkpt><trkpt lat="37.0932115" lon="14.2730131"><ele>21.0</ele><time>2026-05-03T06:44:58Z</time></trkpt><trkpt lat="37.0934529" lon="14.2731539"><ele>22.0</ele><time>2026-05-03T06:44:59Z</time></trkpt><trkpt lat="37.0936934" lon="14.2732948"><ele>22.0</ele><time>2026-05-03T06:44:59.999Z</time></trkpt><trkpt lat="37.0939326" lon="14.2734319"><ele>22.0</ele><time>2026-05-03T06:45:01Z</time></trkpt><trkpt lat="37.0941734" lon="14.273573"><ele>22.0</ele><time>2026-05-03T06:45:02Z</time></trkpt><trkpt lat="37.094413" lon="14.2737146"><ele>22.0</ele><time>2026-05-03T06:45:03Z</time></trkpt><trkpt lat="37.0946529" lon="14.2738435"><ele>22.0</ele><time>2026-05-03T06:45:04Z</time></trkpt><trkpt lat="37.094892" lon="14.2739824"><ele>22.0</ele><time>2026-05-03T06:45:05Z</time></trkpt><trkpt lat="37.0951309" lon="14.2741213"><ele>21.5</ele><time>2026-05-03T06:45:06Z</time></trkpt><trkpt lat="37.0953681" lon="14.2742608"><ele>21.0</ele><time>2026-05-03T06:45:07Z</time></trkpt><trkpt lat="37.0955989" lon="14.2743999"><ele>21.5</ele><time>2026-05-03T06:45:08Z</time></trkpt><trkpt lat="37.0958357" lon="14.2745396"><ele>22.0</ele><time>2026-05-03T06:45:09Z</time></trkpt><trkpt lat="37.0960649" lon="14.2746815"><ele>22.0</ele><time>2026-05-03T06:45:10Z</time></trkpt><trkpt lat="37.0962856" lon="14.2748113"><ele>22.0</ele><time>2026-05-03T06:45:11Z</time></trkpt><trkpt lat="37.0964997" lon="14.2749324"><ele>23.0</ele><time>2026-05-03T06:45:12Z</time></trkpt><trkpt lat="37.0967094" lon="14.2750451"><ele>24.0</ele><time>2026-05-03T06:45:13Z</time></trkpt><trkpt lat="37.0969202" lon="14.2751597"><ele>24.0</ele><time>2026-05-03T06:45:14Z</time></trkpt><trkpt lat="37.0971322" lon="14.2752858"><ele>24.0</ele><time>2026-05-03T06:45:15Z</time></trkpt><trkpt lat="37.0973473" lon="14.2754176"><ele>23.5</ele><time>2026-05-03T06:45:16Z</time></trkpt><trkpt lat="37.0975612" lon="14.2755486"><ele>23.0</ele><time>2026-05-03T06:45:17Z</time></trkpt><trkpt lat="37.0977855" lon="14.2756784"><ele>23.0</ele><time>2026-05-03T06:45:18Z</time></trkpt><trkpt lat="37.0980118" lon="14.2758098"><ele>23.0</ele><time>2026-05-03T06:45:19Z</time></trkpt><trkpt lat="37.09824" lon="14.275945"><ele>23.0</ele><time>2026-05-03T06:45:20Z</time></trkpt><trkpt lat="37.0984733" lon="14.2760757"><ele>23.0</ele><time>2026-05-03T06:45:21Z</time></trkpt><trkpt lat="37.0987034" lon="14.2762087"><ele>23.0</ele><time>2026-05-03T06:45:22Z</time></trkpt><trkpt lat="37.0989351" lon="14.2763422"><ele>23.0</ele><time>2026-05-03T06:45:23Z</time></trkpt><trkpt lat="37.0991684" lon="14.2764788"><ele>23.0</ele><time>2026-05-03T06:45:24Z</time></trkpt><trkpt lat="37.0994023" lon="14.2766191"><ele>23.0</ele><time>2026-05-03T06:45:25Z</time></trkpt><trkpt lat="37.0996342" lon="14.2767593"><ele>23.0</ele><time>2026-05-03T06:45:26Z</time></trkpt><trkpt lat="37.099871" lon="14.2768981"><ele>23.0</ele><time>2026-05-03T06:45:27Z</time></trkpt><trkpt lat="37.1001098" lon="14.2770339"><ele>23.0</ele><time>2026-05-03T06:45:28Z</time></trkpt><trkpt lat="37.1003458" lon="14.2771723"><ele>23.0</ele><time>2026-05-03T06:45:29Z</time></trkpt><trkpt lat="37.1005825" lon="14.2773136"><ele>24.0</ele><time>2026-05-03T06:45:30Z</time></trkpt><trkpt lat="37.1008175" lon="14.2774498"><ele>25.0</ele><time>2026-05-03T06:45:31Z</time></trkpt><trkpt lat="37.1010612" lon="14.2775827"><ele>25.0</ele><time>2026-05-03T06:45:32Z</time></trkpt><trkpt lat="37.1013003" lon="14.2777212"><ele>25.0</ele><time>2026-05-03T06:45:33Z</time></trkpt><trkpt lat="37.1015343" lon="14.2778566"><ele>24.5</ele><time>2026-05-03T06:45:34Z</time></trkpt><trkpt lat="37.1017727" lon="14.2779924"><ele>24.0</ele><time>2026-05-03T06:45:35Z</time></trkpt><trkpt lat="37.102009" lon="14.2781276"><ele>25.0</ele><time>2026-05-03T06:45:36Z</time></trkpt><trkpt lat="37.1022491" lon="14.2782612"><ele>26.0</ele><time>2026-05-03T06:45:37Z</time></trkpt><trkpt lat="37.1024921" lon="14.2783959"><ele>26.0</ele><time>2026-05-03T06:45:38Z</time></trkpt><trkpt lat="37.1027305" lon="14.2785331"><ele>26.0</ele><time>2026-05-03T06:45:39Z</time></trkpt><trkpt lat="37.1029659" lon="14.278673"><ele>26.0</ele><time>2026-05-03T06:45:40Z</time></trkpt><trkpt lat="37.1032088" lon="14.2788143"><ele>26.0</ele><time>2026-05-03T06:45:41Z</time></trkpt><trkpt lat="37.1034436" lon="14.2789557"><ele>26.5</ele><time>2026-05-03T06:45:41.999Z</time></trkpt><trkpt lat="37.1036813" lon="14.279093"><ele>27.0</ele><time>2026-05-03T06:45:43Z</time></trkpt><trkpt lat="37.103924" lon="14.279237"><ele>28.0</ele><time>2026-05-03T06:45:44Z</time></trkpt><trkpt lat="37.1041624" lon="14.2793689"><ele>29.0</ele><time>2026-05-03T06:45:45Z</time></trkpt><trkpt lat="37.1043996" lon="14.2795063"><ele>29.0</ele><time>2026-05-03T06:45:46Z</time></trkpt><trkpt lat="37.1046396" lon="14.2796426"><ele>29.0</ele><time>2026-05-03T06:45:47Z</time></trkpt><trkpt lat="37.1048776" lon="14.279785"><ele>29.0</ele><time>2026-05-03T06:45:48Z</time></trkpt><trkpt lat="37.1051136" lon="14.2799235"><ele>29.0</ele><time>2026-05-03T06:45:49Z</time></trkpt><trkpt lat="37.1053554" lon="14.2800588"><ele>29.0</ele><time>2026-05-03T06:45:50Z</time></trkpt><trkpt lat="37.1055939" lon="14.2801965"><ele>29.0</ele><time>2026-05-03T06:45:51Z</time></trkpt><trkpt lat="37.10583" lon="14.2803326"><ele>29.5</ele><time>2026-05-03T06:45:52Z</time></trkpt><trkpt lat="37.1060717" lon="14.2804712"><ele>30.0</ele><time>2026-05-03T06:45:53Z</time></trkpt><trkpt lat="37.106313" lon="14.280613"><ele>30.0</ele><time>2026-05-03T06:45:53.999Z</time></trkpt><trkpt lat="37.1065558" lon="14.2807492"><ele>30.0</ele><time>2026-05-03T06:45:55Z</time></trkpt><trkpt lat="37.1067991" lon="14.280888"><ele>30.0</ele><time>2026-05-03T06:45:56Z</time></trkpt><trkpt lat="37.1070395" lon="14.2810313"><ele>30.0</ele><time>2026-05-03T06:45:56.999Z</time></trkpt><trkpt lat="37.1072825" lon="14.2811687"><ele>29.5</ele><time>2026-05-03T06:45:58Z</time></trkpt><trkpt lat="37.1075232" lon="14.2813075"><ele>29.0</ele><time>2026-05-03T06:45:59Z</time></trkpt><trkpt lat="37.1077638" lon="14.2814499"><ele>29.0</ele><time>2026-05-03T06:46:00Z</time></trkpt><trkpt lat="37.1080061" lon="14.2815961"><ele>29.0</ele><time>2026-05-03T06:46:01Z</time></trkpt><trkpt lat="37.1082511" lon="14.2817345"><ele>29.0</ele><time>2026-05-03T06:46:02Z</time></trkpt><trkpt lat="37.1084948" lon="14.2818718"><ele>29.0</ele><time>2026-05-03T06:46:03Z</time></trkpt><trkpt lat="37.1087391" lon="14.2820062"><ele>29.0</ele><time>2026-05-03T06:46:04Z</time></trkpt><trkpt lat="37.1089862" lon="14.2821486"><ele>29.0</ele><time>2026-05-03T06:46:05Z</time></trkpt><trkpt lat="37.1092337" lon="14.2822887"><ele>29.0</ele><time>2026-05-03T06:46:06Z</time></trkpt><trkpt lat="37.1094737" lon="14.2824297"><ele>29.0</ele><time>2026-05-03T06:46:07Z</time></trkpt><trkpt lat="37.1097154" lon="14.2825706"><ele>31.0</ele><time>2026-05-03T06:46:08Z</time></trkpt><trkpt lat="37.1099476" lon="14.2827231"><ele>33.0</ele><time>2026-05-03T06:46:09Z</time></trkpt><trkpt lat="37.1101833" lon="14.2828857"><ele>33.0</ele><time>2026-05-03T06:46:10Z</time></trkpt><trkpt lat="37.110412" lon="14.2830563"><ele>33.0</ele><time>2026-05-03T06:46:10.999Z</time></trkpt><trkpt lat="37.1106402" lon="14.2832338"><ele>35.0</ele><time>2026-05-03T06:46:12Z</time></trkpt><trkpt lat="37.1108647" lon="14.2834197"><ele>37.0</ele><time>2026-05-03T06:46:13Z</time></trkpt><trkpt lat="37.1110841" lon="14.2836085"><ele>37.0</ele><time>2026-05-03T06:46:14Z</time></trkpt><trkpt lat="37.1113047" lon="14.2837935"><ele>37.0</ele><time>2026-05-03T06:46:15Z</time></trkpt><trkpt lat="37.1115136" lon="14.2839809"><ele>38.0</ele><time>2026-05-03T06:46:16Z</time></trkpt><trkpt lat="37.1117288" lon="14.2841484"><ele>39.0</ele><time>2026-05-03T06:46:17Z</time></trkpt><trkpt lat="37.1119507" lon="14.2842961"><ele>39.0</ele><time>2026-05-03T06:46:18Z</time></trkpt><trkpt lat="37.1121845" lon="14.2844275"><ele>39.0</ele><time>2026-05-03T06:46:19Z</time></trkpt><trkpt lat="37.1124258" lon="14.2845466"><ele>41.0</ele><time>2026-05-03T06:46:20Z</time></trkpt><trkpt lat="37.1126746" lon="14.2846474"><ele>43.0</ele><time>2026-05-03T06:46:21Z</time></trkpt><trkpt lat="37.112925" lon="14.2847322"><ele>39.0</ele><time>2026-05-03T06:46:22Z</time></trkpt><trkpt lat="37.1131835" lon="14.284809"><ele>35.0</ele><time>2026-05-03T06:46:23Z</time></trkpt><trkpt lat="37.1134449" lon="14.2848914"><ele>34.5</ele><time>2026-05-03T06:46:24Z</time></trkpt><trkpt lat="37.1136995" lon="14.2849788"><ele>34.0</ele><time>2026-05-03T06:46:25Z</time></trkpt><trkpt lat="37.1139574" lon="14.2850559"><ele>33.5</ele><time>2026-05-03T06:46:26Z</time></trkpt><trkpt lat="37.1142102" lon="14.28514"><ele>33.0</ele><time>2026-05-03T06:46:27Z</time></trkpt><trkpt lat="37.1144616" lon="14.2852191"><ele>33.0</ele><time>2026-05-03T06:46:28Z</time></trkpt><trkpt lat="37.1147193" lon="14.2853108"><ele>33.0</ele><time>2026-05-03T06:46:29Z</time></trkpt><trkpt lat="37.1149683" lon="14.2854173"><ele>33.0</ele><time>2026-05-03T06:46:30Z</time></trkpt><trkpt lat="37.115212" lon="14.2855482"><ele>33.0</ele><time>2026-05-03T06:46:31Z</time></trkpt><trkpt lat="37.1154469" lon="14.2857131"><ele>32.0</ele><time>2026-05-03T06:46:32Z</time></trkpt><trkpt lat="37.1156744" lon="14.2858982"><ele>31.0</ele><time>2026-05-03T06:46:33Z</time></trkpt><trkpt lat="37.1158894" lon="14.2860986"><ele>31.0</ele><time>2026-05-03T06:46:34Z</time></trkpt><trkpt lat="37.1161015" lon="14.2863088"><ele>31.0</ele><time>2026-05-03T06:46:35Z</time></trkpt><trkpt lat="37.116309" lon="14.286527"><ele>31.0</ele><time>2026-05-03T06:46:36Z</time></trkpt><trkpt lat="37.1165175" lon="14.2867346"><ele>31.0</ele><time>2026-05-03T06:46:37Z</time></trkpt><trkpt lat="37.1167229" lon="14.2869459"><ele>32.0</ele><time>2026-05-03T06:46:38Z</time></trkpt><trkpt lat="37.1169262" lon="14.2871596"><ele>33.0</ele><time>2026-05-03T06:46:39Z</time></trkpt><trkpt lat="37.1171294" lon="14.2873657"><ele>33.0</ele><time>2026-05-03T06:46:40Z</time></trkpt><trkpt lat="37.1173311" lon="14.2875701"><ele>33.0</ele><time>2026-05-03T06:46:41Z</time></trkpt><trkpt lat="37.1175286" lon="14.287778"><ele>33.0</ele><time>2026-05-03T06:46:41.999Z</time></trkpt><trkpt lat="37.1177137" lon="14.2879709"><ele>33.0</ele><time>2026-05-03T06:46:43Z</time></trkpt><trkpt lat="37.1178943" lon="14.2881551"><ele>33.0</ele><time>2026-05-03T06:46:44Z</time></trkpt><trkpt lat="37.1180628" lon="14.2883285"><ele>33.0</ele><time>2026-05-03T06:46:45Z</time></trkpt><trkpt lat="37.1182152" lon="14.2884806"><ele>33.0</ele><time>2026-05-03T06:46:46Z</time></trkpt><trkpt lat="37.1183443" lon="14.2886149"><ele>33.25</ele><time>2026-05-03T06:46:47Z</time></trkpt><trkpt lat="37.1184431" lon="14.2887259"><ele>33.5</ele><time>2026-05-03T06:46:48Z</time></trkpt><trkpt lat="37.1185211" lon="14.2888359"><ele>33.75</ele><time>2026-05-03T06:46:49Z</time></trkpt><trkpt lat="37.1185741" lon="14.2889695"><ele>34.0</ele><time>2026-05-03T06:46:50Z</time></trkpt><trkpt lat="37.1186066" lon="14.2891197"><ele>34.0</ele><time>2026-05-03T06:46:51Z</time></trkpt><trkpt lat="37.1186768" lon="14.2892601"><ele>34.0</ele><time>2026-05-03T06:46:52Z</time></trkpt><trkpt lat="37.1187938" lon="14.2893886"><ele>34.0</ele><time>2026-05-03T06:46:53Z</time></trkpt><trkpt lat="37.1189208" lon="14.2895356"><ele>34.0</ele><time>2026-05-03T06:46:54Z</time></trkpt><trkpt lat="37.1190469" lon="14.2896964"><ele>34.0</ele><time>2026-05-03T06:46:55Z</time></trkpt><trkpt lat="37.1191766" lon="14.2899014"><ele>34.0</ele><time>2026-05-03T06:46:56Z</time></trkpt><trkpt lat="37.1192195" lon="14.2902956"><ele>36.5</ele><time>2026-05-03T06:46:57Z</time></trkpt><trkpt lat="37.1193128" lon="14.2906086"><ele>39.0</ele><time>2026-05-03T06:46:58Z</time></trkpt><trkpt lat="37.1194073" lon="14.2909225"><ele>39.0</ele><time>2026-05-03T06:46:58.999Z</time></trkpt><trkpt lat="37.119504" lon="14.2912438"><ele>39.0</ele><time>2026-05-03T06:47:00Z</time></trkpt><trkpt lat="37.1195927" lon="14.291548"><ele>39.0</ele><time>2026-05-03T06:47:01Z</time></trkpt><trkpt lat="37.1196973" lon="14.2918516"><ele>39.0</ele><time>2026-05-03T06:47:02Z</time></trkpt><trkpt lat="37.11983" lon="14.2921353"><ele>40.5</ele><time>2026-05-03T06:47:03Z</time></trkpt><trkpt lat="37.119978" lon="14.2923988"><ele>42.0</ele><time>2026-05-03T06:47:04Z</time></trkpt><trkpt lat="37.120141" lon="14.2926463"><ele>42.0</ele><time>2026-05-03T06:47:05Z</time></trkpt><trkpt lat="37.1203151" lon="14.2928858"><ele>42.0</ele><time>2026-05-03T06:47:06Z</time></trkpt><trkpt lat="37.1204924" lon="14.2931257"><ele>41.5</ele><time>2026-05-03T06:47:07Z</time></trkpt><trkpt lat="37.1206698" lon="14.2933707"><ele>41.0</ele><time>2026-05-03T06:47:07.999Z</time></trkpt><trkpt lat="37.1208437" lon="14.2936159"><ele>41.0</ele><time>2026-05-03T06:47:08.999Z</time></trkpt><trkpt lat="37.1210196" lon="14.2938556"><ele>41.0</ele><time>2026-05-03T06:47:10Z</time></trkpt><trkpt lat="37.1211996" lon="14.2940949"><ele>41.5</ele><time>2026-05-03T06:47:11Z</time></trkpt><trkpt lat="37.1213771" lon="14.2943303"><ele>42.0</ele><time>2026-05-03T06:47:12Z</time></trkpt><trkpt lat="37.1215517" lon="14.2945661"><ele>42.5</ele><time>2026-05-03T06:47:13Z</time></trkpt><trkpt lat="37.1217313" lon="14.2948021"><ele>43.0</ele><time>2026-05-03T06:47:14Z</time></trkpt><trkpt lat="37.1219062" lon="14.2950425"><ele>43.0</ele><time>2026-05-03T06:47:15Z</time></trkpt><trkpt lat="37.1220785" lon="14.2952815"><ele>43.0</ele><time>2026-05-03T06:47:16Z</time></trkpt><trkpt lat="37.1222546" lon="14.2955184"><ele>44.0</ele><time>2026-05-03T06:47:17Z</time></trkpt><trkpt lat="37.1224306" lon="14.2957551"><ele>45.0</ele><time>2026-05-03T06:47:18Z</time></trkpt><trkpt lat="37.12261" lon="14.2959896"><ele>45.0</ele><time>2026-05-03T06:47:19Z</time></trkpt><trkpt lat="37.122788" lon="14.2962235"><ele>45.0</ele><time>2026-05-03T06:47:20Z</time></trkpt><trkpt lat="37.1229765" lon="14.2964542"><ele>44.5</ele><time>2026-05-03T06:47:21Z</time></trkpt><trkpt lat="37.1231634" lon="14.29668"><ele>44.0</ele><time>2026-05-03T06:47:21.999Z</time></trkpt><trkpt lat="37.1233548" lon="14.2969026"><ele>44.0</ele><time>2026-05-03T06:47:23Z</time></trkpt><trkpt lat="37.1235437" lon="14.2971232"><ele>44.0</ele><time>2026-05-03T06:47:24Z</time></trkpt><trkpt lat="37.1237351" lon="14.2973385"><ele>43.5</ele><time>2026-05-03T06:47:25Z</time></trkpt><trkpt lat="37.1239201" lon="14.2975496"><ele>43.0</ele><time>2026-05-03T06:47:26Z</time></trkpt><trkpt lat="37.1240897" lon="14.2977478"><ele>43.0</ele><time>2026-05-03T06:47:27Z</time></trkpt><trkpt lat="37.1242443" lon="14.297924"><ele>43.0</ele><time>2026-05-03T06:47:28Z</time></trkpt><trkpt lat="37.1243783" lon="14.2980815"><ele>43.0</ele><time>2026-05-03T06:47:29Z</time></trkpt><trkpt lat="37.1245052" lon="14.2982308"><ele>43.25</ele><time>2026-05-03T06:47:30Z</time></trkpt><trkpt lat="37.1246186" lon="14.2983694"><ele>43.5</ele><time>2026-05-03T06:47:31Z</time></trkpt><trkpt lat="37.1247219" lon="14.2984928"><ele>43.75</ele><time>2026-05-03T06:47:32Z</time></trkpt><trkpt lat="37.124819" lon="14.2986045"><ele>44.0</ele><time>2026-05-03T06:47:33Z</time></trkpt><trkpt lat="37.1249106" lon="14.298714"><ele>44.25</ele><time>2026-05-03T06:47:34Z</time></trkpt><trkpt lat="37.1249966" lon="14.2988274"><ele>44.5</ele><time>2026-05-03T06:47:35Z</time></trkpt><trkpt lat="37.1250827" lon="14.2989292"><ele>44.75</ele><time>2026-05-03T06:47:36Z</time></trkpt><trkpt lat="37.1251633" lon="14.2990272"><ele>45.0</ele><time>2026-05-03T06:47:37Z</time></trkpt><trkpt lat="37.1252445" lon="14.299128"><ele>45.0</ele><time>2026-05-03T06:47:38Z</time></trkpt><trkpt lat="37.1253241" lon="14.2992217"><ele>45.0</ele><time>2026-05-03T06:47:39Z</time></trkpt><trkpt lat="37.1253986" lon="14.2993112"><ele>45.0</ele><time>2026-05-03T06:47:40Z</time></trkpt><trkpt lat="37.1254795" lon="14.2994063"><ele>45.0</ele><time>2026-05-03T06:47:41Z</time></trkpt><trkpt lat="37.125558" lon="14.2994968"><ele>45.0</ele><time>2026-05-03T06:47:42Z</time></trkpt><trkpt lat="37.1256339" lon="14.2995893"><ele>45.0</ele><time>2026-05-03T06:47:43Z</time></trkpt><trkpt lat="37.125709" lon="14.2996888"><ele>45.0</ele><time>2026-05-03T06:47:44Z</time></trkpt><trkpt lat="37.1257931" lon="14.2997867"><ele>45.0</ele><time>2026-05-03T06:47:45Z</time></trkpt><trkpt lat="37.1258758" lon="14.2998912"><ele>45.0</ele><time>2026-05-03T06:47:46Z</time></trkpt><trkpt lat="37.1259595" lon="14.2999961"><ele>45.0</ele><time>2026-05-03T06:47:47Z</time></trkpt><trkpt lat="37.126051" lon="14.3001032"><ele>45.0</ele><time>2026-05-03T06:47:48Z</time></trkpt><trkpt lat="37.1261503" lon="14.3002078"><ele>45.0</ele><time>2026-05-03T06:47:49Z</time></trkpt><trkpt lat="37.1262488" lon="14.3003114"><ele>45.0</ele><time>2026-05-03T06:47:50Z</time></trkpt><trkpt lat="37.1263573" lon="14.3004275"><ele>45.0</ele><time>2026-05-03T06:47:51Z</time></trkpt><trkpt lat="37.1264628" lon="14.3005407"><ele>45.0</ele><time>2026-05-03T06:47:52Z</time></trkpt><trkpt lat="37.1265774" lon="14.3006509"><ele>45.0</ele><time>2026-05-03T06:47:53Z</time></trkpt><trkpt lat="37.1266825" lon="14.3007615"><ele>45.0</ele><time>2026-05-03T06:47:54Z</time></trkpt><trkpt lat="37.1267919" lon="14.3008736"><ele>45.25</ele><time>2026-05-03T06:47:55Z</time></trkpt><trkpt lat="37.1268982" lon="14.3009816"><ele>45.5</ele><time>2026-05-03T06:47:56Z</time></trkpt><trkpt lat="37.1269985" lon="14.3010893"><ele>45.75</ele><time>2026-05-03T06:47:57Z</time></trkpt><trkpt lat="37.1270978" lon="14.301196"><ele>46.0</ele><time>2026-05-03T06:47:58Z</time></trkpt><trkpt lat="37.1271954" lon="14.3013032"><ele>46.0</ele><time>2026-05-03T06:47:58.999Z</time></trkpt><trkpt lat="37.1272994" lon="14.3014059"><ele>46.0</ele><time>2026-05-03T06:48:00Z</time></trkpt><trkpt lat="37.1274004" lon="14.3015278"><ele>46.0</ele><time>2026-05-03T06:48:01Z</time></trkpt><trkpt lat="37.127495" lon="14.301638"><ele>46.0</ele><time>2026-05-03T06:48:02Z</time></trkpt><trkpt lat="37.1276004" lon="14.3017521"><ele>46.0</ele><time>2026-05-03T06:48:03Z</time></trkpt><trkpt lat="37.1277006" lon="14.3018719"><ele>46.0</ele><time>2026-05-03T06:48:04Z</time></trkpt><trkpt lat="37.1278085" lon="14.3019952"><ele>46.0</ele><time>2026-05-03T06:48:04.999Z</time></trkpt><trkpt lat="37.127928" lon="14.3021315"><ele>46.0</ele><time>2026-05-03T06:48:06Z</time></trkpt><trkpt lat="37.1280699" lon="14.3022853"><ele>46.0</ele><time>2026-05-03T06:48:07Z</time></trkpt><trkpt lat="37.1282325" lon="14.3024591"><ele>46.0</ele><time>2026-05-03T06:48:08Z</time></trkpt><trkpt lat="37.128416" lon="14.3026461"><ele>46.0</ele><time>2026-05-03T06:48:09Z</time></trkpt><trkpt lat="37.1285926" lon="14.3028492"><ele>46.0</ele><time>2026-05-03T06:48:10Z</time></trkpt><trkpt lat="37.1287714" lon="14.3030549"><ele>46.5</ele><time>2026-05-03T06:48:11Z</time></trkpt><trkpt lat="37.1289578" lon="14.303267"><ele>47.0</ele><time>2026-05-03T06:48:12Z</time></trkpt><trkpt lat="37.1291525" lon="14.3034872"><ele>47.0</ele><time>2026-05-03T06:48:13Z</time></trkpt><trkpt lat="37.1293512" lon="14.3037128"><ele>47.0</ele><time>2026-05-03T06:48:14Z</time></trkpt><trkpt lat="37.1295509" lon="14.3039359"><ele>47.0</ele><time>2026-05-03T06:48:15Z</time></trkpt><trkpt lat="37.129751" lon="14.3041627"><ele>47.0</ele><time>2026-05-03T06:48:16Z</time></trkpt><trkpt lat="37.1299465" lon="14.3043897"><ele>47.5</ele><time>2026-05-03T06:48:17Z</time></trkpt><trkpt lat="37.1301444" lon="14.3046171"><ele>48.0</ele><time>2026-05-03T06:48:18Z</time></trkpt><trkpt lat="37.1303413" lon="14.3048368"><ele>48.0</ele><time>2026-05-03T06:48:19Z</time></trkpt><trkpt lat="37.130534" lon="14.3050752"><ele>48.0</ele><time>2026-05-03T06:48:20Z</time></trkpt><trkpt lat="37.1307265" lon="14.3053129"><ele>48.0</ele><time>2026-05-03T06:48:21Z</time></trkpt><trkpt lat="37.13092" lon="14.3055433"><ele>48.0</ele><time>2026-05-03T06:48:22Z</time></trkpt><trkpt lat="37.1311107" lon="14.3057688"><ele>47.0</ele><time>2026-05-03T06:48:23Z</time></trkpt><trkpt lat="37.1313075" lon="14.3059942"><ele>46.0</ele><time>2026-05-03T06:48:24Z</time></trkpt><trkpt lat="37.1315012" lon="14.3062188"><ele>46.5</ele><time>2026-05-03T06:48:25Z</time></trkpt><trkpt lat="37.1316991" lon="14.3064418"><ele>47.0</ele><time>2026-05-03T06:48:26Z</time></trkpt><trkpt lat="37.1318891" lon="14.3066604"><ele>47.0</ele><time>2026-05-03T06:48:27Z</time></trkpt><trkpt lat="37.1320818" lon="14.3068791"><ele>47.0</ele><time>2026-05-03T06:48:28Z</time></trkpt><trkpt lat="37.1322714" lon="14.3070983"><ele>47.0</ele><time>2026-05-03T06:48:29Z</time></trkpt><trkpt lat="37.1324597" lon="14.3073125"><ele>47.0</ele><time>2026-05-03T06:48:30Z</time></trkpt><trkpt lat="37.1326462" lon="14.3075289"><ele>47.0</ele><time>2026-05-03T06:48:31Z</time></trkpt><trkpt lat="37.1328334" lon="14.3077385"><ele>47.0</ele><time>2026-05-03T06:48:32Z</time></trkpt><trkpt lat="37.1330184" lon="14.3079506"><ele>47.5</ele><time>2026-05-03T06:48:33Z</time></trkpt><trkpt lat="37.133202" lon="14.3081579"><ele>48.0</ele><time>2026-05-03T06:48:34Z</time></trkpt><trkpt lat="37.1333915" lon="14.3083517"><ele>48.5</ele><time>2026-05-03T06:48:35Z</time></trkpt><trkpt lat="37.13358" lon="14.3085429"><ele>49.0</ele><time>2026-05-03T06:48:36Z</time></trkpt><trkpt lat="37.1337647" lon="14.3087377"><ele>48.0</ele><time>2026-05-03T06:48:37Z</time></trkpt><trkpt lat="37.1339382" lon="14.3089346"><ele>47.0</ele><time>2026-05-03T06:48:37.999Z</time></trkpt><trkpt lat="37.1341069" lon="14.3091377"><ele>46.5</ele><time>2026-05-03T06:48:39Z</time></trkpt><trkpt lat="37.1342726" lon="14.3093483"><ele>46.0</ele><time>2026-05-03T06:48:40Z</time></trkpt><trkpt lat="37.134435" lon="14.3095481"><ele>46.5</ele><time>2026-05-03T06:48:41Z</time></trkpt><trkpt lat="37.1345958" lon="14.3097451"><ele>47.0</ele><time>2026-05-03T06:48:42Z</time></trkpt><trkpt lat="37.1347665" lon="14.3099302"><ele>48.0</ele><time>2026-05-03T06:48:43Z</time></trkpt><trkpt lat="37.1349507" lon="14.3100971"><ele>49.0</ele><time>2026-05-03T06:48:44Z</time></trkpt><trkpt lat="37.1351397" lon="14.3102558"><ele>49.0</ele><time>2026-05-03T06:48:45Z</time></trkpt><trkpt lat="37.1353372" lon="14.3104056"><ele>49.0</ele><time>2026-05-03T06:48:46Z</time></trkpt><trkpt lat="37.1355461" lon="14.31054"><ele>48.5</ele><time>2026-05-03T06:48:47Z</time></trkpt><trkpt lat="37.1357679" lon="14.310667"><ele>48.0</ele><time>2026-05-03T06:48:48Z</time></trkpt><trkpt lat="37.1359844" lon="14.3108049"><ele>48.0</ele><time>2026-05-03T06:48:49Z</time></trkpt><trkpt lat="37.1361942" lon="14.3109661"><ele>48.0</ele><time>2026-05-03T06:48:50Z</time></trkpt><trkpt lat="37.1363974" lon="14.3111467"><ele>49.0</ele><time>2026-05-03T06:48:51Z</time></trkpt><trkpt lat="37.1365876" lon="14.3113426"><ele>50.0</ele><time>2026-05-03T06:48:52Z</time></trkpt><trkpt lat="37.1367738" lon="14.3115579"><ele>50.0</ele><time>2026-05-03T06:48:53Z</time></trkpt><trkpt lat="37.1369402" lon="14.3117929"><ele>50.0</ele><time>2026-05-03T06:48:54Z</time></trkpt><trkpt lat="37.1370927" lon="14.3120426"><ele>49.5</ele><time>2026-05-03T06:48:55Z</time></trkpt><trkpt lat="37.1372319" lon="14.3123054"><ele>49.0</ele><time>2026-05-03T06:48:56Z</time></trkpt><trkpt lat="37.1373618" lon="14.3125713"><ele>49.0</ele><time>2026-05-03T06:48:57Z</time></trkpt><trkpt lat="37.1374925" lon="14.3128414"><ele>49.0</ele><time>2026-05-03T06:48:58Z</time></trkpt><trkpt lat="37.1376244" lon="14.3131141"><ele>50.0</ele><time>2026-05-03T06:48:59Z</time></trkpt><trkpt lat="37.1377543" lon="14.3133868"><ele>51.0</ele><time>2026-05-03T06:49:00Z</time></trkpt><trkpt lat="37.1378857" lon="14.3136594"><ele>50.0</ele><time>2026-05-03T06:49:01Z</time></trkpt><trkpt lat="37.1380116" lon="14.3139222"><ele>49.0</ele><time>2026-05-03T06:49:02Z</time></trkpt><trkpt lat="37.1381355" lon="14.3141761"><ele>49.5</ele><time>2026-05-03T06:49:03Z</time></trkpt><trkpt lat="37.1382704" lon="14.3144258"><ele>50.0</ele><time>2026-05-03T06:49:04Z</time></trkpt><trkpt lat="37.1384254" lon="14.31466"><ele>50.5</ele><time>2026-05-03T06:49:05Z</time></trkpt><trkpt lat="37.1385913" lon="14.314884"><ele>51.0</ele><time>2026-05-03T06:49:06Z</time></trkpt><trkpt lat="37.1387711" lon="14.3150869"><ele>51.0</ele><time>2026-05-03T06:49:07Z</time></trkpt><trkpt lat="37.1389667" lon="14.3152711"><ele>51.0</ele><time>2026-05-03T06:49:08Z</time></trkpt><trkpt lat="37.1391777" lon="14.3154347"><ele>50.5</ele><time>2026-05-03T06:49:09Z</time></trkpt><trkpt lat="37.1394002" lon="14.3155719"><ele>50.0</ele><time>2026-05-03T06:49:10Z</time></trkpt><trkpt lat="37.1396339" lon="14.3156773"><ele>50.0</ele><time>2026-05-03T06:49:11Z</time></trkpt><trkpt lat="37.1398737" lon="14.31576"><ele>50.0</ele><time>2026-05-03T06:49:12Z</time></trkpt><trkpt lat="37.1401148" lon="14.3158268"><ele>50.5</ele><time>2026-05-03T06:49:13Z</time></trkpt><trkpt lat="37.1403604" lon="14.3158822"><ele>51.0</ele><time>2026-05-03T06:49:14Z</time></trkpt><trkpt lat="37.1406079" lon="14.3159413"><ele>50.5</ele><time>2026-05-03T06:49:15Z</time></trkpt><trkpt lat="37.1408513" lon="14.3159991"><ele>50.0</ele><time>2026-05-03T06:49:16Z</time></trkpt><trkpt lat="37.1411002" lon="14.316056"><ele>50.0</ele><time>2026-05-03T06:49:17Z</time></trkpt><trkpt lat="37.1413383" lon="14.3161082"><ele>50.0</ele><time>2026-05-03T06:49:18Z</time></trkpt><trkpt lat="37.1415791" lon="14.3161675"><ele>52.0</ele><time>2026-05-03T06:49:19Z</time></trkpt><trkpt lat="37.1418235" lon="14.3162224"><ele>54.0</ele><time>2026-05-03T06:49:20Z</time></trkpt><trkpt lat="37.1420628" lon="14.3162827"><ele>54.0</ele><time>2026-05-03T06:49:21Z</time></trkpt><trkpt lat="37.1423005" lon="14.3163412"><ele>54.0</ele><time>2026-05-03T06:49:22Z</time></trkpt><trkpt lat="37.1425445" lon="14.3163938"><ele>54.0</ele><time>2026-05-03T06:49:23Z</time></trkpt><trkpt lat="37.1427863" lon="14.3164563"><ele>54.0</ele><time>2026-05-03T06:49:24Z</time></trkpt><trkpt lat="37.143026" lon="14.3165105"><ele>54.5</ele><time>2026-05-03T06:49:25Z</time></trkpt><trkpt lat="37.1432685" lon="14.3165555"><ele>55.0</ele><time>2026-05-03T06:49:26Z</time></trkpt><trkpt lat="37.1435087" lon="14.3165861"><ele>55.0</ele><time>2026-05-03T06:49:27Z</time></trkpt><trkpt lat="37.1437449" lon="14.3165953"><ele>55.0</ele><time>2026-05-03T06:49:28Z</time></trkpt><trkpt lat="37.1439794" lon="14.3165777"><ele>56.5</ele><time>2026-05-03T06:49:29Z</time></trkpt><trkpt lat="37.1442118" lon="14.3165303"><ele>58.0</ele><time>2026-05-03T06:49:30Z</time></trkpt><trkpt lat="37.1444408" lon="14.3164636"><ele>58.0</ele><time>2026-05-03T06:49:31Z</time></trkpt><trkpt lat="37.1446639" lon="14.3163789"><ele>58.0</ele><time>2026-05-03T06:49:32Z</time></trkpt><trkpt lat="37.1448848" lon="14.3162785"><ele>58.0</ele><time>2026-05-03T06:49:33Z</time></trkpt><trkpt lat="37.1451029" lon="14.316172"><ele>58.0</ele><time>2026-05-03T06:49:34Z</time></trkpt><trkpt lat="37.145327" lon="14.3160698"><ele>58.0</ele><time>2026-05-03T06:49:35Z</time></trkpt><trkpt lat="37.1455451" lon="14.3159669"><ele>58.0</ele><time>2026-05-03T06:49:36Z</time></trkpt><trkpt lat="37.145765" lon="14.3158665"><ele>62.0</ele><time>2026-05-03T06:49:37Z</time></trkpt><trkpt lat="37.1459813" lon="14.3157637"><ele>66.0</ele><time>2026-05-03T06:49:38Z</time></trkpt><trkpt lat="37.1462055" lon="14.3156581"><ele>64.0</ele><time>2026-05-03T06:49:39Z</time></trkpt><trkpt lat="37.1464267" lon="14.315553"><ele>62.0</ele><time>2026-05-03T06:49:40Z</time></trkpt><trkpt lat="37.1466465" lon="14.3154529"><ele>62.0</ele><time>2026-05-03T06:49:41Z</time></trkpt><trkpt lat="37.1468674" lon="14.3153422"><ele>62.0</ele><time>2026-05-03T06:49:42Z</time></trkpt><trkpt lat="37.147093" lon="14.3152411"><ele>62.0</ele><time>2026-05-03T06:49:43Z</time></trkpt><trkpt lat="37.1473214" lon="14.3151447"><ele>62.0</ele><time>2026-05-03T06:49:44Z</time></trkpt><trkpt lat="37.1475484" lon="14.3150755"><ele>64.0</ele><time>2026-05-03T06:49:45Z</time></trkpt><trkpt lat="37.1477768" lon="14.3150243"><ele>66.0</ele><time>2026-05-03T06:49:45.999Z</time></trkpt><trkpt lat="37.1480113" lon="14.3149919"><ele>68.0</ele><time>2026-05-03T06:49:47Z</time></trkpt><trkpt lat="37.148245" lon="14.3149857"><ele>70.0</ele><time>2026-05-03T06:49:48Z</time></trkpt><trkpt lat="37.1484783" lon="14.3149977"><ele>70.0</ele><time>2026-05-03T06:49:49Z</time></trkpt><trkpt lat="37.1487141" lon="14.3150299"><ele>70.0</ele><time>2026-05-03T06:49:50Z</time></trkpt><trkpt lat="37.1489322" lon="14.3150875"><ele>69.66666666666666</ele><time>2026-05-03T06:49:51Z</time></trkpt><trkpt lat="37.1491334" lon="14.3151652"><ele>69.33333333333333</ele><time>2026-05-03T06:49:52Z</time></trkpt><trkpt lat="37.149302" lon="14.3152516"><ele>69.0</ele><time>2026-05-03T06:49:53Z</time></trkpt><trkpt lat="37.1494365" lon="14.3153351"><ele>69.0</ele><time>2026-05-03T06:49:54Z</time></trkpt><trkpt lat="37.1495378" lon="14.3154088"><ele>69.0</ele><time>2026-05-03T06:49:55Z</time></trkpt><trkpt lat="37.1496104" lon="14.3154902"><ele>69.0</ele><time>2026-05-03T06:49:56Z</time></trkpt><trkpt lat="37.1496632" lon="14.3155922"><ele>69.0</ele><time>2026-05-03T06:49:57Z</time></trkpt><trkpt lat="37.149717" lon="14.3156999"><ele>69.0</ele><time>2026-05-03T06:49:58Z</time></trkpt><trkpt lat="37.1497927" lon="14.3157818"><ele>69.2</ele><time>2026-05-03T06:49:59Z</time></trkpt><trkpt lat="37.1498715" lon="14.3158437"><ele>69.4</ele><time>2026-05-03T06:50:00Z</time></trkpt><trkpt lat="37.1499783" lon="14.3158929"><ele>69.6</ele><time>2026-05-03T06:50:01Z</time></trkpt><trkpt lat="37.1500749" lon="14.3159736"><ele>69.8</ele><time>2026-05-03T06:50:02Z</time></trkpt><trkpt lat="37.1501674" lon="14.3160812"><ele>70.0</ele><time>2026-05-03T06:50:03Z</time></trkpt><trkpt lat="37.150264" lon="14.3162225"><ele>70.0</ele><time>2026-05-03T06:50:04Z</time></trkpt><trkpt lat="37.150365" lon="14.3163853"><ele>70.0</ele><time>2026-05-03T06:50:05Z</time></trkpt><trkpt lat="37.1504923" lon="14.3165654"><ele>70.0</ele><time>2026-05-03T06:50:06Z</time></trkpt><trkpt lat="37.1506449" lon="14.3167827"><ele>69.5</ele><time>2026-05-03T06:50:07Z</time></trkpt><trkpt lat="37.1507835" lon="14.3170418"><ele>69.0</ele><time>2026-05-03T06:50:08Z</time></trkpt><trkpt lat="37.1509371" lon="14.3173219"><ele>70.0</ele><time>2026-05-03T06:50:09Z</time></trkpt><trkpt lat="37.1511037" lon="14.3175936"><ele>71.0</ele><time>2026-05-03T06:50:10Z</time></trkpt><trkpt lat="37.1512777" lon="14.3178746"><ele>71.0</ele><time>2026-05-03T06:50:11Z</time></trkpt><trkpt lat="37.1514459" lon="14.3181555"><ele>71.0</ele><time>2026-05-03T06:50:12Z</time></trkpt><trkpt lat="37.1516171" lon="14.3184316"><ele>70.5</ele><time>2026-05-03T06:50:13Z</time></trkpt><trkpt lat="37.1517865" lon="14.318709"><ele>70.0</ele><time>2026-05-03T06:50:14Z</time></trkpt><trkpt lat="37.1519499" lon="14.3189772"><ele>71.0</ele><time>2026-05-03T06:50:15Z</time></trkpt><trkpt lat="37.152118" lon="14.3192499"><ele>72.0</ele><time>2026-05-03T06:50:16Z</time></trkpt><trkpt lat="37.1522802" lon="14.3195218"><ele>74.0</ele><time>2026-05-03T06:50:17Z</time></trkpt><trkpt lat="37.152444" lon="14.3197925"><ele>76.0</ele><time>2026-05-03T06:50:18Z</time></trkpt><trkpt lat="37.1526067" lon="14.3200614"><ele>76.0</ele><time>2026-05-03T06:50:19Z</time></trkpt><trkpt lat="37.1527726" lon="14.3203271"><ele>76.0</ele><time>2026-05-03T06:50:20Z</time></trkpt><trkpt lat="37.1529411" lon="14.3205952"><ele>76.0</ele><time>2026-05-03T06:50:21Z</time></trkpt><trkpt lat="37.1531084" lon="14.3208647"><ele>76.0</ele><time>2026-05-03T06:50:22Z</time></trkpt><trkpt lat="37.1532732" lon="14.3211335"><ele>76.0</ele><time>2026-05-03T06:50:23Z</time></trkpt><trkpt lat="37.1534377" lon="14.3214043"><ele>76.0</ele><time>2026-05-03T06:50:24Z</time></trkpt><trkpt lat="37.1536062" lon="14.3216744"><ele>76.0</ele><time>2026-05-03T06:50:24.999Z</time></trkpt><trkpt lat="37.1537664" lon="14.3219438"><ele>76.0</ele><time>2026-05-03T06:50:26Z</time></trkpt><trkpt lat="37.1539306" lon="14.3222171"><ele>77.0</ele><time>2026-05-03T06:50:27Z</time></trkpt><trkpt lat="37.1540945" lon="14.3224896"><ele>78.0</ele><time>2026-05-03T06:50:28Z</time></trkpt><trkpt lat="37.15426" lon="14.3227604"><ele>78.0</ele><time>2026-05-03T06:50:29Z</time></trkpt><trkpt lat="37.1544252" lon="14.3230294"><ele>78.0</ele><time>2026-05-03T06:50:30Z</time></trkpt><trkpt lat="37.1545915" lon="14.323301"><ele>79.0</ele><time>2026-05-03T06:50:31Z</time></trkpt><trkpt lat="37.1547573" lon="14.3235748"><ele>80.0</ele><time>2026-05-03T06:50:32Z</time></trkpt><trkpt lat="37.1549252" lon="14.323841"><ele>81.5</ele><time>2026-05-03T06:50:33Z</time></trkpt><trkpt lat="37.155088" lon="14.324114"><ele>83.0</ele><time>2026-05-03T06:50:34Z</time></trkpt><trkpt lat="37.1552556" lon="14.3243832"><ele>83.0</ele><time>2026-05-03T06:50:35Z</time></trkpt><trkpt lat="37.1554192" lon="14.3246528"><ele>83.0</ele><time>2026-05-03T06:50:36Z</time></trkpt><trkpt lat="37.1555847" lon="14.3249159"><ele>84.0</ele><time>2026-05-03T06:50:37Z</time></trkpt><trkpt lat="37.1557505" lon="14.3251844"><ele>85.0</ele><time>2026-05-03T06:50:38Z</time></trkpt><trkpt lat="37.1559129" lon="14.3254536"><ele>85.0</ele><time>2026-05-03T06:50:39Z</time></trkpt><trkpt lat="37.1560785" lon="14.3257199"><ele>85.0</ele><time>2026-05-03T06:50:40Z</time></trkpt><trkpt lat="37.1562403" lon="14.3259873"><ele>85.0</ele><time>2026-05-03T06:50:41Z</time></trkpt><trkpt lat="37.1564067" lon="14.3262537"><ele>85.0</ele><time>2026-05-03T06:50:42Z</time></trkpt><trkpt lat="37.1565759" lon="14.3265192"><ele>84.5</ele><time>2026-05-03T06:50:43Z</time></trkpt><trkpt lat="37.1567529" lon="14.3267739"><ele>84.0</ele><time>2026-05-03T06:50:44Z</time></trkpt><trkpt lat="37.1569335" lon="14.3270234"><ele>82.5</ele><time>2026-05-03T06:50:45Z</time></trkpt><trkpt lat="37.1571267" lon="14.3272644"><ele>81.0</ele><time>2026-05-03T06:50:46Z</time></trkpt><trkpt lat="37.1573276" lon="14.3275025"><ele>82.5</ele><time>2026-05-03T06:50:47Z</time></trkpt><trkpt lat="37.1575287" lon="14.3277344"><ele>84.0</ele><time>2026-05-03T06:50:48Z</time></trkpt><trkpt lat="37.1577375" lon="14.3279621"><ele>83.0</ele><time>2026-05-03T06:50:49Z</time></trkpt><trkpt lat="37.1579499" lon="14.3281883"><ele>82.0</ele><time>2026-05-03T06:50:50Z</time></trkpt><trkpt lat="37.1581634" lon="14.3284156"><ele>82.5</ele><time>2026-05-03T06:50:51Z</time></trkpt><trkpt lat="37.1583738" lon="14.3286386"><ele>83.0</ele><time>2026-05-03T06:50:52Z</time></trkpt><trkpt lat="37.1585835" lon="14.3288636"><ele>81.5</ele><time>2026-05-03T06:50:53Z</time></trkpt><trkpt lat="37.1587965" lon="14.3290884"><ele>80.0</ele><time>2026-05-03T06:50:54Z</time></trkpt><trkpt lat="37.1590021" lon="14.3293163"><ele>81.0</ele><time>2026-05-03T06:50:55Z</time></trkpt><trkpt lat="37.1592165" lon="14.3295421"><ele>82.0</ele><time>2026-05-03T06:50:56Z</time></trkpt><trkpt lat="37.1594266" lon="14.329763"><ele>82.0</ele><time>2026-05-03T06:50:57Z</time></trkpt><trkpt lat="37.1596353" lon="14.3299854"><ele>82.0</ele><time>2026-05-03T06:50:58Z</time></trkpt><trkpt lat="37.1598442" lon="14.3302033"><ele>82.5</ele><time>2026-05-03T06:50:59Z</time></trkpt><trkpt lat="37.1600504" lon="14.3304276"><ele>83.0</ele><time>2026-05-03T06:51:00Z</time></trkpt><trkpt lat="37.1602573" lon="14.3306471"><ele>84.0</ele><time>2026-05-03T06:51:01Z</time></trkpt><trkpt lat="37.1604609" lon="14.3308617"><ele>85.0</ele><time>2026-05-03T06:51:02Z</time></trkpt><trkpt lat="37.1606631" lon="14.3310761"><ele>85.0</ele><time>2026-05-03T06:51:03Z</time></trkpt><trkpt lat="37.1608655" lon="14.3312891"><ele>85.0</ele><time>2026-05-03T06:51:04Z</time></trkpt><trkpt lat="37.161068" lon="14.3315032"><ele>85.0</ele><time>2026-05-03T06:51:05Z</time></trkpt><trkpt lat="37.1612728" lon="14.3317253"><ele>85.0</ele><time>2026-05-03T06:51:06Z</time></trkpt><trkpt lat="37.1614765" lon="14.3319499"><ele>86.0</ele><time>2026-05-03T06:51:07Z</time></trkpt><trkpt lat="37.1616837" lon="14.3321724"><ele>87.0</ele><time>2026-05-03T06:51:08Z</time></trkpt><trkpt lat="37.1618937" lon="14.3323969"><ele>88.0</ele><time>2026-05-03T06:51:09Z</time></trkpt><trkpt lat="37.1620994" lon="14.3326148"><ele>89.0</ele><time>2026-05-03T06:51:10Z</time></trkpt><trkpt lat="37.1623117" lon="14.3328366"><ele>89.0</ele><time>2026-05-03T06:51:11Z</time></trkpt><trkpt lat="37.1625183" lon="14.3330592"><ele>89.0</ele><time>2026-05-03T06:51:12Z</time></trkpt><trkpt lat="37.1627272" lon="14.3332856"><ele>89.0</ele><time>2026-05-03T06:51:13Z</time></trkpt><trkpt lat="37.1629367" lon="14.3335072"><ele>89.0</ele><time>2026-05-03T06:51:14Z</time></trkpt><trkpt lat="37.1631438" lon="14.3337304"><ele>89.5</ele><time>2026-05-03T06:51:15Z</time></trkpt><trkpt lat="37.1633509" lon="14.3339519"><ele>90.0</ele><time>2026-05-03T06:51:16Z</time></trkpt><trkpt lat="37.1635602" lon="14.3341697"><ele>90.0</ele><time>2026-05-03T06:51:17Z</time></trkpt><trkpt lat="37.1637679" lon="14.3343911"><ele>90.0</ele><time>2026-05-03T06:51:18Z</time></trkpt><trkpt lat="37.1639746" lon="14.3346139"><ele>90.5</ele><time>2026-05-03T06:51:19Z</time></trkpt><trkpt lat="37.1641849" lon="14.3348292"><ele>91.0</ele><time>2026-05-03T06:51:20Z</time></trkpt><trkpt lat="37.1643934" lon="14.3350468"><ele>91.0</ele><time>2026-05-03T06:51:21Z</time></trkpt><trkpt lat="37.1646064" lon="14.3352699"><ele>91.0</ele><time>2026-05-03T06:51:22Z</time></trkpt><trkpt lat="37.1648101" lon="14.335492"><ele>91.5</ele><time>2026-05-03T06:51:23Z</time></trkpt><trkpt lat="37.1650173" lon="14.3357072"><ele>92.0</ele><time>2026-05-03T06:51:24Z</time></trkpt><trkpt lat="37.1652167" lon="14.335918"><ele>92.0</ele><time>2026-05-03T06:51:25Z</time></trkpt><trkpt lat="37.1654098" lon="14.3361244"><ele>92.0</ele><time>2026-05-03T06:51:26Z</time></trkpt><trkpt lat="37.165599" lon="14.3363299"><ele>91.5</ele><time>2026-05-03T06:51:27Z</time></trkpt><trkpt lat="37.1657831" lon="14.3365292"><ele>91.0</ele><time>2026-05-03T06:51:28Z</time></trkpt><trkpt lat="37.1659758" lon="14.3367305"><ele>91.0</ele><time>2026-05-03T06:51:29Z</time></trkpt><trkpt lat="37.1661648" lon="14.3369347"><ele>91.0</ele><time>2026-05-03T06:51:30Z</time></trkpt><trkpt lat="37.1663542" lon="14.3371347"><ele>92.0</ele><time>2026-05-03T06:51:31Z</time></trkpt><trkpt lat="37.166544" lon="14.3373382"><ele>93.0</ele><time>2026-05-03T06:51:32Z</time></trkpt><trkpt lat="37.1667349" lon="14.3375432"><ele>93.0</ele><time>2026-05-03T06:51:33Z</time></trkpt><trkpt lat="37.1669226" lon="14.3377413"><ele>93.0</ele><time>2026-05-03T06:51:34Z</time></trkpt><trkpt lat="37.1671083" lon="14.3379382"><ele>93.0</ele><time>2026-05-03T06:51:35Z</time></trkpt><trkpt lat="37.1673026" lon="14.3381381"><ele>93.0</ele><time>2026-05-03T06:51:36Z</time></trkpt><trkpt lat="37.1674863" lon="14.338345"><ele>93.5</ele><time>2026-05-03T06:51:37Z</time></trkpt><trkpt lat="37.1676771" lon="14.3385441"><ele>94.0</ele><time>2026-05-03T06:51:38Z</time></trkpt><trkpt lat="37.1678651" lon="14.3387418"><ele>94.0</ele><time>2026-05-03T06:51:39Z</time></trkpt><trkpt lat="37.1680513" lon="14.3389413"><ele>94.0</ele><time>2026-05-03T06:51:40Z</time></trkpt><trkpt lat="37.168236" lon="14.3391375"><ele>94.0</ele><time>2026-05-03T06:51:41Z</time></trkpt><trkpt lat="37.1684242" lon="14.3393319"><ele>94.0</ele><time>2026-05-03T06:51:42Z</time></trkpt><trkpt lat="37.1686067" lon="14.3395263"><ele>93.0</ele><time>2026-05-03T06:51:43Z</time></trkpt><trkpt lat="37.1687927" lon="14.3397252"><ele>92.0</ele><time>2026-05-03T06:51:44Z</time></trkpt><trkpt lat="37.1689724" lon="14.3399178"><ele>93.0</ele><time>2026-05-03T06:51:45Z</time></trkpt><trkpt lat="37.1691575" lon="14.3401074"><ele>94.0</ele><time>2026-05-03T06:51:46Z</time></trkpt><trkpt lat="37.1693319" lon="14.3403015"><ele>94.0</ele><time>2026-05-03T06:51:47Z</time></trkpt><trkpt lat="37.1695132" lon="14.3404948"><ele>94.0</ele><time>2026-05-03T06:51:48Z</time></trkpt><trkpt lat="37.1696943" lon="14.3406885"><ele>95.0</ele><time>2026-05-03T06:51:49Z</time></trkpt><trkpt lat="37.1698769" lon="14.3408787"><ele>96.0</ele><time>2026-05-03T06:51:50Z</time></trkpt><trkpt lat="37.1700588" lon="14.3410732"><ele>96.0</ele><time>2026-05-03T06:51:51Z</time></trkpt><trkpt lat="37.1702369" lon="14.3412658"><ele>96.0</ele><time>2026-05-03T06:51:52Z</time></trkpt><trkpt lat="37.1704109" lon="14.3414461"><ele>96.0</ele><time>2026-05-03T06:51:53Z</time></trkpt><trkpt lat="37.1705697" lon="14.3416253"><ele>96.0</ele><time>2026-05-03T06:51:54Z</time></trkpt><trkpt lat="37.170724" lon="14.3417948"><ele>96.0</ele><time>2026-05-03T06:51:55Z</time></trkpt><trkpt lat="37.1708839" lon="14.3419509"><ele>96.66666666666666</ele><time>2026-05-03T06:51:56Z</time></trkpt><trkpt lat="37.1710444" lon="14.3420839"><ele>97.33333333333333</ele><time>2026-05-03T06:51:57Z</time></trkpt><trkpt lat="37.1712022" lon="14.3422027"><ele>98.0</ele><time>2026-05-03T06:51:58Z</time></trkpt><trkpt lat="37.171354" lon="14.3422996"><ele>98.0</ele><time>2026-05-03T06:51:59Z</time></trkpt><trkpt lat="37.1715055" lon="14.3423823"><ele>98.0</ele><time>2026-05-03T06:52:00Z</time></trkpt><trkpt lat="37.1716388" lon="14.3424555"><ele>98.0</ele><time>2026-05-03T06:52:01Z</time></trkpt><trkpt lat="37.1717535" lon="14.3425209"><ele>98.0</ele><time>2026-05-03T06:52:02Z</time></trkpt><trkpt lat="37.1718415" lon="14.3425963"><ele>98.0</ele><time>2026-05-03T06:52:03Z</time></trkpt><trkpt lat="37.1719048" lon="14.3426991"><ele>98.0</ele><time>2026-05-03T06:52:04Z</time></trkpt><trkpt lat="37.1719618" lon="14.342822"><ele>98.0</ele><time>2026-05-03T06:52:05Z</time></trkpt><trkpt lat="37.1720344" lon="14.342914"><ele>98.0</ele><time>2026-05-03T06:52:06Z</time></trkpt><trkpt lat="37.1721272" lon="14.3429731"><ele>98.0</ele><time>2026-05-03T06:52:07Z</time></trkpt><trkpt lat="37.1722339" lon="14.3429889"><ele>98.0</ele><time>2026-05-03T06:52:08Z</time></trkpt><trkpt lat="37.1723388" lon="14.3429519"><ele>98.0</ele><time>2026-05-03T06:52:09Z</time></trkpt><trkpt lat="37.17245" lon="14.3428837"><ele>98.0</ele><time>2026-05-03T06:52:10Z</time></trkpt><trkpt lat="37.1725711" lon="14.3428371"><ele>98.0</ele><time>2026-05-03T06:52:11Z</time></trkpt><trkpt lat="37.1727167" lon="14.3428313"><ele>98.0</ele><time>2026-05-03T06:52:12Z</time></trkpt><trkpt lat="37.172872" lon="14.3428476"><ele>98.0</ele><time>2026-05-03T06:52:13Z</time></trkpt><trkpt lat="37.1730336" lon="14.3428916"><ele>98.0</ele><time>2026-05-03T06:52:14Z</time></trkpt><trkpt lat="37.1732064" lon="14.3429408"><ele>97.33333333333333</ele><time>2026-05-03T06:52:15Z</time></trkpt><trkpt lat="37.1733795" lon="14.342988"><ele>96.66666666666666</ele><time>2026-05-03T06:52:16Z</time></trkpt><trkpt lat="37.1735645" lon="14.3430366"><ele>96.0</ele><time>2026-05-03T06:52:17Z</time></trkpt><trkpt lat="37.1737572" lon="14.3430937"><ele>95.33333333333333</ele><time>2026-05-03T06:52:18Z</time></trkpt><trkpt lat="37.1739505" lon="14.3431621"><ele>94.66666666666666</ele><time>2026-05-03T06:52:19Z</time></trkpt><trkpt lat="37.1741446" lon="14.3432354"><ele>94.0</ele><time>2026-05-03T06:52:20Z</time></trkpt><trkpt lat="37.1743295" lon="14.3433235"><ele>94.0</ele><time>2026-05-03T06:52:21Z</time></trkpt><trkpt lat="37.174509" lon="14.3434193"><ele>94.0</ele><time>2026-05-03T06:52:22Z</time></trkpt><trkpt lat="37.1746898" lon="14.3435311"><ele>94.0</ele><time>2026-05-03T06:52:23Z</time></trkpt><trkpt lat="37.1748665" lon="14.3436613"><ele>93.66666666666666</ele><time>2026-05-03T06:52:24Z</time></trkpt><trkpt lat="37.1750444" lon="14.3437973"><ele>93.33333333333333</ele><time>2026-05-03T06:52:25Z</time></trkpt><trkpt lat="37.1752174" lon="14.3439352"><ele>93.0</ele><time>2026-05-03T06:52:26Z</time></trkpt><trkpt lat="37.17539" lon="14.3440786"><ele>93.0</ele><time>2026-05-03T06:52:27Z</time></trkpt><trkpt lat="37.1755643" lon="14.3442245"><ele>93.0</ele><time>2026-05-03T06:52:28Z</time></trkpt><trkpt lat="37.1757413" lon="14.3443746"><ele>93.0</ele><time>2026-05-03T06:52:29Z</time></trkpt><trkpt lat="37.175922" lon="14.34453"><ele>93.33333333333333</ele><time>2026-05-03T06:52:30Z</time></trkpt><trkpt lat="37.1761096" lon="14.3446813"><ele>93.66666666666666</ele><time>2026-05-03T06:52:31Z</time></trkpt><trkpt lat="37.1762988" lon="14.3448355"><ele>94.0</ele><time>2026-05-03T06:52:32Z</time></trkpt><trkpt lat="37.1764759" lon="14.3449925"><ele>93.33333333333333</ele><time>2026-05-03T06:52:33Z</time></trkpt><trkpt lat="37.1766562" lon="14.3451453"><ele>92.66666666666667</ele><time>2026-05-03T06:52:34Z</time></trkpt><trkpt lat="37.1768333" lon="14.3452994"><ele>92.0</ele><time>2026-05-03T06:52:35Z</time></trkpt><trkpt lat="37.1770168" lon="14.3454532"><ele>91.33333333333334</ele><time>2026-05-03T06:52:36Z</time></trkpt><trkpt lat="37.1772005" lon="14.3456058"><ele>90.66666666666667</ele><time>2026-05-03T06:52:37Z</time></trkpt><trkpt lat="37.1773869" lon="14.3457526"><ele>90.0</ele><time>2026-05-03T06:52:38Z</time></trkpt><trkpt lat="37.1775826" lon="14.345889"><ele>93.0</ele><time>2026-05-03T06:52:39Z</time></trkpt><trkpt lat="37.1778064" lon="14.3460194"><ele>96.0</ele><time>2026-05-03T06:52:40Z</time></trkpt><trkpt lat="37.1780414" lon="14.34613"><ele>97.0</ele><time>2026-05-03T06:52:41Z</time></trkpt><trkpt lat="37.1782912" lon="14.3462284"><ele>98.0</ele><time>2026-05-03T06:52:42Z</time></trkpt><trkpt lat="37.1785413" lon="14.3463186"><ele>101.0</ele><time>2026-05-03T06:52:42.999Z</time></trkpt><trkpt lat="37.1787988" lon="14.3464136"><ele>104.0</ele><time>2026-05-03T06:52:44Z</time></trkpt><trkpt lat="37.1790564" lon="14.34651"><ele>106.5</ele><time>2026-05-03T06:52:45Z</time></trkpt><trkpt lat="37.1793077" lon="14.346602"><ele>109.0</ele><time>2026-05-03T06:52:46Z</time></trkpt><trkpt lat="37.1795553" lon="14.3466939"><ele>109.0</ele><time>2026-05-03T06:52:47Z</time></trkpt><trkpt lat="37.1797937" lon="14.3467907"><ele>109.0</ele><time>2026-05-03T06:52:48Z</time></trkpt><trkpt lat="37.1800256" lon="14.3468927"><ele>108.5</ele><time>2026-05-03T06:52:49Z</time></trkpt><trkpt lat="37.1802499" lon="14.3470214"><ele>108.0</ele><time>2026-05-03T06:52:50Z</time></trkpt><trkpt lat="37.1804688" lon="14.3471644"><ele>110.5</ele><time>2026-05-03T06:52:51Z</time></trkpt><trkpt lat="37.1806791" lon="14.3473345"><ele>113.0</ele><time>2026-05-03T06:52:52Z</time></trkpt><trkpt lat="37.1808709" lon="14.3475294"><ele>114.5</ele><time>2026-05-03T06:52:53Z</time></trkpt><trkpt lat="37.1810554" lon="14.3477403"><ele>116.0</ele><time>2026-05-03T06:52:54Z</time></trkpt><trkpt lat="37.1812262" lon="14.3479742"><ele>120.5</ele><time>2026-05-03T06:52:55Z</time></trkpt><trkpt lat="37.1813924" lon="14.3482131"><ele>125.0</ele><time>2026-05-03T06:52:56Z</time></trkpt><trkpt lat="37.1815528" lon="14.3484573"><ele>125.0</ele><time>2026-05-03T06:52:57Z</time></trkpt><trkpt lat="37.18171" lon="14.3487125"><ele>125.0</ele><time>2026-05-03T06:52:58Z</time></trkpt><trkpt lat="37.1818708" lon="14.3489664"><ele>129.5</ele><time>2026-05-03T06:52:59Z</time></trkpt><trkpt lat="37.1820326" lon="14.3492203"><ele>134.0</ele><time>2026-05-03T06:53:00Z</time></trkpt><trkpt lat="37.182197" lon="14.349473"><ele>134.0</ele><time>2026-05-03T06:53:01Z</time></trkpt><trkpt lat="37.1823512" lon="14.349726"><ele>134.0</ele><time>2026-05-03T06:53:02Z</time></trkpt><trkpt lat="37.1825101" lon="14.3499774"><ele>134.0</ele><time>2026-05-03T06:53:03Z</time></trkpt><trkpt lat="37.1826646" lon="14.3502245"><ele>134.0</ele><time>2026-05-03T06:53:04Z</time></trkpt><trkpt lat="37.182823" lon="14.3504649"><ele>143.0</ele><time>2026-05-03T06:53:05Z</time></trkpt><trkpt lat="37.1829892" lon="14.3506982"><ele>152.0</ele><time>2026-05-03T06:53:06Z</time></trkpt><trkpt lat="37.1831677" lon="14.3509176"><ele>142.5</ele><time>2026-05-03T06:53:07Z</time></trkpt><trkpt lat="37.1833511" lon="14.3511266"><ele>133.0</ele><time>2026-05-03T06:53:08Z</time></trkpt><trkpt lat="37.1835478" lon="14.3513205"><ele>138.0</ele><time>2026-05-03T06:53:08.999Z</time></trkpt><trkpt lat="37.1837504" lon="14.3515157"><ele>143.0</ele><time>2026-05-03T06:53:10Z</time></trkpt><trkpt lat="37.1839488" lon="14.3517163"><ele>140.0</ele><time>2026-05-03T06:53:11Z</time></trkpt><trkpt lat="37.1841463" lon="14.3519103"><ele>137.0</ele><time>2026-05-03T06:53:12Z</time></trkpt><trkpt lat="37.1843406" lon="14.352117"><ele>139.0</ele><time>2026-05-03T06:53:13Z</time></trkpt><trkpt lat="37.1845229" lon="14.3523352"><ele>141.0</ele><time>2026-05-03T06:53:14Z</time></trkpt><trkpt lat="37.1846746" lon="14.3525802"><ele>141.0</ele><time>2026-05-03T06:53:15Z</time></trkpt><trkpt lat="37.1848195" lon="14.3528343"><ele>141.0</ele><time>2026-05-03T06:53:16Z</time></trkpt><trkpt lat="37.1849601" lon="14.3530909"><ele>142.0</ele><time>2026-05-03T06:53:17Z</time></trkpt><trkpt lat="37.1851108" lon="14.3533441"><ele>143.0</ele><time>2026-05-03T06:53:18Z</time></trkpt><trkpt lat="37.1852705" lon="14.3535793"><ele>143.0</ele><time>2026-05-03T06:53:19Z</time></trkpt><trkpt lat="37.1854468" lon="14.3537982"><ele>143.0</ele><time>2026-05-03T06:53:20Z</time></trkpt><trkpt lat="37.1856409" lon="14.353993"><ele>143.5</ele><time>2026-05-03T06:53:21Z</time></trkpt><trkpt lat="37.1858476" lon="14.3541723"><ele>144.0</ele><time>2026-05-03T06:53:22Z</time></trkpt><trkpt lat="37.1860704" lon="14.3543426"><ele>144.0</ele><time>2026-05-03T06:53:23Z</time></trkpt><trkpt lat="37.1862985" lon="14.3544936"><ele>144.0</ele><time>2026-05-03T06:53:24Z</time></trkpt><trkpt lat="37.186536" lon="14.3546463"><ele>143.0</ele><time>2026-05-03T06:53:25Z</time></trkpt><trkpt lat="37.1867784" lon="14.3547921"><ele>142.0</ele><time>2026-05-03T06:53:26Z</time></trkpt><trkpt lat="37.1870217" lon="14.354939"><ele>142.0</ele><time>2026-05-03T06:53:27Z</time></trkpt><trkpt lat="37.1872699" lon="14.3550908"><ele>142.0</ele><time>2026-05-03T06:53:28Z</time></trkpt><trkpt lat="37.187518" lon="14.3552445"><ele>143.5</ele><time>2026-05-03T06:53:29Z</time></trkpt><trkpt lat="37.1877648" lon="14.3554026"><ele>145.0</ele><time>2026-05-03T06:53:30Z</time></trkpt><trkpt lat="37.188012" lon="14.3555652"><ele>146.5</ele><time>2026-05-03T06:53:31Z</time></trkpt><trkpt lat="37.1882553" lon="14.3557321"><ele>148.0</ele><time>2026-05-03T06:53:32Z</time></trkpt><trkpt lat="37.188502" lon="14.3559034"><ele>148.0</ele><time>2026-05-03T06:53:33Z</time></trkpt><trkpt lat="37.1887478" lon="14.3560658"><ele>148.0</ele><time>2026-05-03T06:53:34Z</time></trkpt><trkpt lat="37.1889978" lon="14.3562265"><ele>148.5</ele><time>2026-05-03T06:53:35Z</time></trkpt><trkpt lat="37.1892471" lon="14.3563838"><ele>149.0</ele><time>2026-05-03T06:53:36Z</time></trkpt><trkpt lat="37.1894979" lon="14.3565456"><ele>149.0</ele><time>2026-05-03T06:53:36.999Z</time></trkpt><trkpt lat="37.189743" lon="14.3567046"><ele>149.0</ele><time>2026-05-03T06:53:38Z</time></trkpt><trkpt lat="37.1899896" lon="14.3568684"><ele>151.0</ele><time>2026-05-03T06:53:39Z</time></trkpt><trkpt lat="37.1902391" lon="14.3570307"><ele>153.0</ele><time>2026-05-03T06:53:40Z</time></trkpt><trkpt lat="37.1904922" lon="14.3571896"><ele>154.0</ele><time>2026-05-03T06:53:41Z</time></trkpt><trkpt lat="37.1907408" lon="14.3573448"><ele>155.0</ele><time>2026-05-03T06:53:42Z</time></trkpt><trkpt lat="37.1909915" lon="14.3575064"><ele>155.0</ele><time>2026-05-03T06:53:43Z</time></trkpt><trkpt lat="37.1912416" lon="14.3576657"><ele>155.0</ele><time>2026-05-03T06:53:44Z</time></trkpt><trkpt lat="37.1914893" lon="14.3578265"><ele>156.0</ele><time>2026-05-03T06:53:45Z</time></trkpt><trkpt lat="37.1917378" lon="14.35799"><ele>157.0</ele><time>2026-05-03T06:53:46Z</time></trkpt><trkpt lat="37.1919789" lon="14.3581471"><ele>157.0</ele><time>2026-05-03T06:53:47Z</time></trkpt><trkpt lat="37.1922248" lon="14.3583078"><ele>157.0</ele><time>2026-05-03T06:53:48Z</time></trkpt><trkpt lat="37.1924777" lon="14.3584682"><ele>156.5</ele><time>2026-05-03T06:53:49Z</time></trkpt><trkpt lat="37.1927284" lon="14.3586285"><ele>156.0</ele><time>2026-05-03T06:53:50Z</time></trkpt><trkpt lat="37.1929769" lon="14.3587887"><ele>158.5</ele><time>2026-05-03T06:53:51Z</time></trkpt><trkpt lat="37.1932177" lon="14.3589589"><ele>161.0</ele><time>2026-05-03T06:53:52Z</time></trkpt><trkpt lat="37.1934529" lon="14.3591456"><ele>161.0</ele><time>2026-05-03T06:53:53Z</time></trkpt><trkpt lat="37.1936752" lon="14.3593614"><ele>161.0</ele><time>2026-05-03T06:53:54Z</time></trkpt><trkpt lat="37.193877" lon="14.3595984"><ele>162.0</ele><time>2026-05-03T06:53:55Z</time></trkpt><trkpt lat="37.194058" lon="14.3598614"><ele>163.0</ele><time>2026-05-03T06:53:56Z</time></trkpt><trkpt lat="37.194225" lon="14.3601467"><ele>163.0</ele><time>2026-05-03T06:53:57Z</time></trkpt><trkpt lat="37.1943642" lon="14.3604431"><ele>163.0</ele><time>2026-05-03T06:53:58Z</time></trkpt><trkpt lat="37.1944917" lon="14.3607587"><ele>163.5</ele><time>2026-05-03T06:53:59Z</time></trkpt><trkpt lat="37.1946154" lon="14.3610741"><ele>164.0</ele><time>2026-05-03T06:54:00Z</time></trkpt><trkpt lat="37.1947372" lon="14.3613949"><ele>165.5</ele><time>2026-05-03T06:54:01Z</time></trkpt><trkpt lat="37.1948576" lon="14.3617215"><ele>167.0</ele><time>2026-05-03T06:54:02Z</time></trkpt><trkpt lat="37.1949814" lon="14.3620415"><ele>166.5</ele><time>2026-05-03T06:54:03Z</time></trkpt><trkpt lat="37.1951018" lon="14.3623574"><ele>166.0</ele><time>2026-05-03T06:54:04Z</time></trkpt><trkpt lat="37.1952239" lon="14.3626764"><ele>166.0</ele><time>2026-05-03T06:54:05Z</time></trkpt><trkpt lat="37.1953502" lon="14.3629901"><ele>166.0</ele><time>2026-05-03T06:54:06Z</time></trkpt><trkpt lat="37.1954922" lon="14.3632944"><ele>166.5</ele><time>2026-05-03T06:54:07Z</time></trkpt><trkpt lat="37.1956476" lon="14.3635744"><ele>167.0</ele><time>2026-05-03T06:54:08Z</time></trkpt><trkpt lat="37.1958125" lon="14.3638203"><ele>168.5</ele><time>2026-05-03T06:54:09Z</time></trkpt><trkpt lat="37.1959786" lon="14.3640403"><ele>170.0</ele><time>2026-05-03T06:54:10Z</time></trkpt><trkpt lat="37.1961374" lon="14.3642471"><ele>170.0</ele><time>2026-05-03T06:54:11Z</time></trkpt><trkpt lat="37.1962966" lon="14.3644414"><ele>170.0</ele><time>2026-05-03T06:54:12Z</time></trkpt><trkpt lat="37.1964531" lon="14.3646317"><ele>170.0</ele><time>2026-05-03T06:54:12.999Z</time></trkpt><trkpt lat="37.1966102" lon="14.3648188"><ele>170.33333333333331</ele><time>2026-05-03T06:54:14Z</time></trkpt><trkpt lat="37.1967695" lon="14.3650029"><ele>170.66666666666666</ele><time>2026-05-03T06:54:15Z</time></trkpt><trkpt lat="37.1969218" lon="14.3651823"><ele>171.0</ele><time>2026-05-03T06:54:16Z</time></trkpt><trkpt lat="37.1970697" lon="14.3653649"><ele>172.33333333333334</ele><time>2026-05-03T06:54:17Z</time></trkpt><trkpt lat="37.1972111" lon="14.3655398"><ele>173.66666666666669</ele><time>2026-05-03T06:54:18Z</time></trkpt><trkpt lat="37.1973521" lon="14.365707"><ele>175.0</ele><time>2026-05-03T06:54:19Z</time></trkpt><trkpt lat="37.1974912" lon="14.3658729"><ele>175.0</ele><time>2026-05-03T06:54:20Z</time></trkpt><trkpt lat="37.1976148" lon="14.3660327"><ele>175.0</ele><time>2026-05-03T06:54:21Z</time></trkpt><trkpt lat="37.1977289" lon="14.3661873"><ele>175.0</ele><time>2026-05-03T06:54:22Z</time></trkpt><trkpt lat="37.1978369" lon="14.3663416"><ele>175.75</ele><time>2026-05-03T06:54:23Z</time></trkpt><trkpt lat="37.197939" lon="14.3664734"><ele>176.5</ele><time>2026-05-03T06:54:24Z</time></trkpt><trkpt lat="37.1980371" lon="14.3665934"><ele>177.25</ele><time>2026-05-03T06:54:25Z</time></trkpt><trkpt lat="37.1981137" lon="14.3667055"><ele>178.0</ele><time>2026-05-03T06:54:26Z</time></trkpt><trkpt lat="37.1981742" lon="14.366832"><ele>178.0</ele><time>2026-05-03T06:54:27Z</time></trkpt><trkpt lat="37.1982127" lon="14.3669735"><ele>178.0</ele><time>2026-05-03T06:54:28Z</time></trkpt><trkpt lat="37.1982292" lon="14.36713"><ele>178.0</ele><time>2026-05-03T06:54:29Z</time></trkpt><trkpt lat="37.1982301" lon="14.3672919"><ele>178.0</ele><time>2026-05-03T06:54:30Z</time></trkpt><trkpt lat="37.1982301" lon="14.3674717"><ele>179.25</ele><time>2026-05-03T06:54:31Z</time></trkpt><trkpt lat="37.1982345" lon="14.3676462"><ele>180.5</ele><time>2026-05-03T06:54:32Z</time></trkpt><trkpt lat="37.1982441" lon="14.3678131"><ele>181.75</ele><time>2026-05-03T06:54:33Z</time></trkpt><trkpt lat="37.1982645" lon="14.3679627"><ele>183.0</ele><time>2026-05-03T06:54:34Z</time></trkpt><trkpt lat="37.1983132" lon="14.3680949"><ele>183.75</ele><time>2026-05-03T06:54:35Z</time></trkpt><trkpt lat="37.1983914" lon="14.3681972"><ele>184.5</ele><time>2026-05-03T06:54:36Z</time></trkpt><trkpt lat="37.1985027" lon="14.3682871"><ele>185.25</ele><time>2026-05-03T06:54:37Z</time></trkpt><trkpt lat="37.1986331" lon="14.3683636"><ele>186.0</ele><time>2026-05-03T06:54:38Z</time></trkpt><trkpt lat="37.198766" lon="14.3684504"><ele>186.0</ele><time>2026-05-03T06:54:39Z</time></trkpt><trkpt lat="37.1988972" lon="14.3685403"><ele>186.0</ele><time>2026-05-03T06:54:40Z</time></trkpt><trkpt lat="37.199035" lon="14.3686302"><ele>186.0</ele><time>2026-05-03T06:54:41Z</time></trkpt><trkpt lat="37.1991748" lon="14.3687222"><ele>185.33333333333334</ele><time>2026-05-03T06:54:42Z</time></trkpt><trkpt lat="37.1993188" lon="14.3688194"><ele>184.66666666666669</ele><time>2026-05-03T06:54:43Z</time></trkpt><trkpt lat="37.1994601" lon="14.3689162"><ele>184.0</ele><time>2026-05-03T06:54:44Z</time></trkpt><trkpt lat="37.1996023" lon="14.3690098"><ele>185.0</ele><time>2026-05-03T06:54:45Z</time></trkpt><trkpt lat="37.1997374" lon="14.3691035"><ele>186.0</ele><time>2026-05-03T06:54:46Z</time></trkpt><trkpt lat="37.1998726" lon="14.3691983"><ele>187.0</ele><time>2026-05-03T06:54:47Z</time></trkpt><trkpt lat="37.2000113" lon="14.3692942"><ele>187.0</ele><time>2026-05-03T06:54:48Z</time></trkpt><trkpt lat="37.2001489" lon="14.3693879"><ele>187.0</ele><time>2026-05-03T06:54:49Z</time></trkpt><trkpt lat="37.2002925" lon="14.3694873"><ele>187.0</ele><time>2026-05-03T06:54:50Z</time></trkpt><trkpt lat="37.2004336" lon="14.3695868"><ele>186.66666666666669</ele><time>2026-05-03T06:54:51Z</time></trkpt><trkpt lat="37.2005823" lon="14.369692"><ele>186.33333333333334</ele><time>2026-05-03T06:54:52Z</time></trkpt><trkpt lat="37.2007231" lon="14.3698275"><ele>186.0</ele><time>2026-05-03T06:54:53Z</time></trkpt><trkpt lat="37.2008584" lon="14.3699811"><ele>186.0</ele><time>2026-05-03T06:54:54Z</time></trkpt><trkpt lat="37.2009763" lon="14.370159"><ele>186.0</ele><time>2026-05-03T06:54:55Z</time></trkpt><trkpt lat="37.2010881" lon="14.3703454"><ele>186.0</ele><time>2026-05-03T06:54:56Z</time></trkpt><trkpt lat="37.2011935" lon="14.3705443"><ele>187.0</ele><time>2026-05-03T06:54:57Z</time></trkpt><trkpt lat="37.2012878" lon="14.3707579"><ele>188.0</ele><time>2026-05-03T06:54:58Z</time></trkpt><trkpt lat="37.2013805" lon="14.3709787"><ele>189.0</ele><time>2026-05-03T06:54:59Z</time></trkpt><trkpt lat="37.2014692" lon="14.3712093"><ele>186.0</ele><time>2026-05-03T06:55:00Z</time></trkpt><trkpt lat="37.2015546" lon="14.3714464"><ele>183.0</ele><time>2026-05-03T06:55:01Z</time></trkpt><trkpt lat="37.201639" lon="14.3716835"><ele>180.0</ele><time>2026-05-03T06:55:02Z</time></trkpt><trkpt lat="37.2017208" lon="14.3719274"><ele>180.0</ele><time>2026-05-03T06:55:03Z</time></trkpt><trkpt lat="37.2018118" lon="14.3721717"><ele>180.0</ele><time>2026-05-03T06:55:04Z</time></trkpt><trkpt lat="37.2019136" lon="14.3724097"><ele>180.0</ele><time>2026-05-03T06:55:05Z</time></trkpt><trkpt lat="37.2020259" lon="14.3726432"><ele>179.33333333333334</ele><time>2026-05-03T06:55:06Z</time></trkpt><trkpt lat="37.2021597" lon="14.3728656"><ele>178.66666666666669</ele><time>2026-05-03T06:55:07Z</time></trkpt><trkpt lat="37.2023125" lon="14.3730687"><ele>178.0</ele><time>2026-05-03T06:55:08Z</time></trkpt><trkpt lat="37.2024816" lon="14.37326"><ele>178.0</ele><time>2026-05-03T06:55:09Z</time></trkpt><trkpt lat="37.2026673" lon="14.373416"><ele>178.0</ele><time>2026-05-03T06:55:10Z</time></trkpt><trkpt lat="37.2028643" lon="14.3735553"><ele>178.0</ele><time>2026-05-03T06:55:11Z</time></trkpt><trkpt lat="37.2030663" lon="14.3736628"><ele>178.0</ele><time>2026-05-03T06:55:12Z</time></trkpt><trkpt lat="37.2032782" lon="14.3737489"><ele>178.0</ele><time>2026-05-03T06:55:13Z</time></trkpt><trkpt lat="37.2034912" lon="14.3738125"><ele>178.0</ele><time>2026-05-03T06:55:14Z</time></trkpt><trkpt lat="37.2037103" lon="14.3738515"><ele>178.0</ele><time>2026-05-03T06:55:15Z</time></trkpt><trkpt lat="37.2039305" lon="14.3738693"><ele>178.0</ele><time>2026-05-03T06:55:16Z</time></trkpt><trkpt lat="37.2041484" lon="14.3738737"><ele>178.0</ele><time>2026-05-03T06:55:17Z</time></trkpt><trkpt lat="37.2043648" lon="14.3738821"><ele>178.0</ele><time>2026-05-03T06:55:18Z</time></trkpt><trkpt lat="37.2045872" lon="14.373884"><ele>178.0</ele><time>2026-05-03T06:55:19Z</time></trkpt><trkpt lat="37.2048118" lon="14.3738888"><ele>180.0</ele><time>2026-05-03T06:55:20Z</time></trkpt><trkpt lat="37.2050428" lon="14.3738955"><ele>182.0</ele><time>2026-05-03T06:55:21Z</time></trkpt><trkpt lat="37.2052781" lon="14.3738965"><ele>182.0</ele><time>2026-05-03T06:55:21.999Z</time></trkpt><trkpt lat="37.2055106" lon="14.3739023"><ele>182.0</ele><time>2026-05-03T06:55:23Z</time></trkpt><trkpt lat="37.2057528" lon="14.373904"><ele>186.5</ele><time>2026-05-03T06:55:24Z</time></trkpt><trkpt lat="37.2059909" lon="14.3739086"><ele>191.0</ele><time>2026-05-03T06:55:25Z</time></trkpt><trkpt lat="37.2062308" lon="14.373914"><ele>191.0</ele><time>2026-05-03T06:55:26Z</time></trkpt><trkpt lat="37.2064724" lon="14.3739234"><ele>191.0</ele><time>2026-05-03T06:55:27Z</time></trkpt><trkpt lat="37.2067105" lon="14.3739417"><ele>194.5</ele><time>2026-05-03T06:55:28Z</time></trkpt><trkpt lat="37.206958" lon="14.3739759"><ele>198.0</ele><time>2026-05-03T06:55:29Z</time></trkpt><trkpt lat="37.2071946" lon="14.3740385"><ele>197.5</ele><time>2026-05-03T06:55:30Z</time></trkpt><trkpt lat="37.2074115" lon="14.3741313"><ele>197.0</ele><time>2026-05-03T06:55:31Z</time></trkpt><trkpt lat="37.2076171" lon="14.3742538"><ele>197.0</ele><time>2026-05-03T06:55:32Z</time></trkpt><trkpt lat="37.207817" lon="14.3743934"><ele>197.0</ele><time>2026-05-03T06:55:33Z</time></trkpt><trkpt lat="37.2080022" lon="14.3745497"><ele>199.33333333333334</ele><time>2026-05-03T06:55:34Z</time></trkpt><trkpt lat="37.2081628" lon="14.374727"><ele>201.66666666666669</ele><time>2026-05-03T06:55:35Z</time></trkpt><trkpt lat="37.2083122" lon="14.3749216"><ele>204.0</ele><time>2026-05-03T06:55:36Z</time></trkpt><trkpt lat="37.2084585" lon="14.3751347"><ele>204.0</ele><time>2026-05-03T06:55:37Z</time></trkpt><trkpt lat="37.2085945" lon="14.3753338"><ele>204.0</ele><time>2026-05-03T06:55:38Z</time></trkpt><trkpt lat="37.2087406" lon="14.375542"><ele>204.0</ele><time>2026-05-03T06:55:39Z</time></trkpt><trkpt lat="37.2088909" lon="14.3757351"><ele>205.0</ele><time>2026-05-03T06:55:40Z</time></trkpt><trkpt lat="37.2090525" lon="14.3759225"><ele>206.0</ele><time>2026-05-03T06:55:41Z</time></trkpt><trkpt lat="37.2092234" lon="14.3760901"><ele>207.0</ele><time>2026-05-03T06:55:42Z</time></trkpt><trkpt lat="37.2094073" lon="14.3762398"><ele>209.33333333333331</ele><time>2026-05-03T06:55:43Z</time></trkpt><trkpt lat="37.2095993" lon="14.3763761"><ele>211.66666666666666</ele><time>2026-05-03T06:55:43.999Z</time></trkpt><trkpt lat="37.209803" lon="14.376487"><ele>214.0</ele><time>2026-05-03T06:55:45Z</time></trkpt><trkpt lat="37.2100122" lon="14.3765894"><ele>214.5</ele><time>2026-05-03T06:55:46Z</time></trkpt><trkpt lat="37.2102346" lon="14.3766741"><ele>215.0</ele><time>2026-05-03T06:55:47Z</time></trkpt><trkpt lat="37.2104602" lon="14.3767528"><ele>216.0</ele><time>2026-05-03T06:55:48Z</time></trkpt><trkpt lat="37.210689" lon="14.3768275"><ele>217.0</ele><time>2026-05-03T06:55:49Z</time></trkpt><trkpt lat="37.210917" lon="14.3769003"><ele>217.0</ele><time>2026-05-03T06:55:49.999Z</time></trkpt><trkpt lat="37.21114" lon="14.3769804"><ele>217.0</ele><time>2026-05-03T06:55:51Z</time></trkpt><trkpt lat="37.2113706" lon="14.3770562"><ele>218.5</ele><time>2026-05-03T06:55:52Z</time></trkpt><trkpt lat="37.2116012" lon="14.3771339"><ele>220.0</ele><time>2026-05-03T06:55:53Z</time></trkpt><trkpt lat="37.2118315" lon="14.37721"><ele>221.0</ele><time>2026-05-03T06:55:54Z</time></trkpt><trkpt lat="37.2120675" lon="14.3772899"><ele>222.0</ele><time>2026-05-03T06:55:55Z</time></trkpt><trkpt lat="37.212305" lon="14.3773727"><ele>224.5</ele><time>2026-05-03T06:55:56Z</time></trkpt><trkpt lat="37.212546" lon="14.3774527"><ele>227.0</ele><time>2026-05-03T06:55:57Z</time></trkpt><trkpt lat="37.2127919" lon="14.3775307"><ele>227.0</ele><time>2026-05-03T06:55:58Z</time></trkpt><trkpt lat="37.2130286" lon="14.3776092"><ele>227.0</ele><time>2026-05-03T06:55:59Z</time></trkpt><trkpt lat="37.2132636" lon="14.3776814"><ele>228.5</ele><time>2026-05-03T06:56:00Z</time></trkpt><trkpt lat="37.2135047" lon="14.3777702"><ele>230.0</ele><time>2026-05-03T06:56:01Z</time></trkpt><trkpt lat="37.2137416" lon="14.3778538"><ele>230.0</ele><time>2026-05-03T06:56:02Z</time></trkpt><trkpt lat="37.2139857" lon="14.3779368"><ele>230.0</ele><time>2026-05-03T06:56:03Z</time></trkpt><trkpt lat="37.2142225" lon="14.3780189"><ele>231.5</ele><time>2026-05-03T06:56:04Z</time></trkpt><trkpt lat="37.2144564" lon="14.378111"><ele>233.0</ele><time>2026-05-03T06:56:05Z</time></trkpt><trkpt lat="37.2146926" lon="14.3782029"><ele>234.0</ele><time>2026-05-03T06:56:06Z</time></trkpt><trkpt lat="37.2149231" lon="14.3783048"><ele>235.0</ele><time>2026-05-03T06:56:07Z</time></trkpt><trkpt lat="37.2151552" lon="14.3784213"><ele>235.0</ele><time>2026-05-03T06:56:08Z</time></trkpt><trkpt lat="37.2153844" lon="14.3785531"><ele>235.0</ele><time>2026-05-03T06:56:09Z</time></trkpt><trkpt lat="37.2156127" lon="14.3786923"><ele>237.5</ele><time>2026-05-03T06:56:10Z</time></trkpt><trkpt lat="37.2158395" lon="14.3788295"><ele>240.0</ele><time>2026-05-03T06:56:11Z</time></trkpt><trkpt lat="37.2160664" lon="14.3789649"><ele>240.5</ele><time>2026-05-03T06:56:12Z</time></trkpt><trkpt lat="37.2162922" lon="14.3790932"><ele>241.0</ele><time>2026-05-03T06:56:13Z</time></trkpt><trkpt lat="37.2165151" lon="14.3792162"><ele>241.0</ele><time>2026-05-03T06:56:14Z</time></trkpt><trkpt lat="37.2167384" lon="14.3793191"><ele>241.0</ele><time>2026-05-03T06:56:15Z</time></trkpt><trkpt lat="37.2169647" lon="14.3794046"><ele>241.0</ele><time>2026-05-03T06:56:16Z</time></trkpt><trkpt lat="37.2171999" lon="14.3794669"><ele>241.0</ele><time>2026-05-03T06:56:17Z</time></trkpt><trkpt lat="37.2174375" lon="14.3795089"><ele>244.0</ele><time>2026-05-03T06:56:18Z</time></trkpt><trkpt lat="37.2176815" lon="14.3795298"><ele>247.0</ele><time>2026-05-03T06:56:19Z</time></trkpt><trkpt lat="37.2179287" lon="14.3795277"><ele>249.0</ele><time>2026-05-03T06:56:20Z</time></trkpt><trkpt lat="37.2181708" lon="14.3795012"><ele>251.0</ele><time>2026-05-03T06:56:21Z</time></trkpt><trkpt lat="37.2184259" lon="14.3794467"><ele>251.0</ele><time>2026-05-03T06:56:22Z</time></trkpt><trkpt lat="37.2186796" lon="14.3793855"><ele>251.0</ele><time>2026-05-03T06:56:23Z</time></trkpt><trkpt lat="37.2189362" lon="14.3793181"><ele>250.5</ele><time>2026-05-03T06:56:24Z</time></trkpt><trkpt lat="37.2191917" lon="14.3792428"><ele>250.0</ele><time>2026-05-03T06:56:25Z</time></trkpt><trkpt lat="37.2194489" lon="14.3791697"><ele>250.0</ele><time>2026-05-03T06:56:26Z</time></trkpt><trkpt lat="37.2197105" lon="14.3790985"><ele>250.0</ele><time>2026-05-03T06:56:27Z</time></trkpt><trkpt lat="37.2199694" lon="14.3790271"><ele>250.5</ele><time>2026-05-03T06:56:28Z</time></trkpt><trkpt lat="37.2202266" lon="14.3789529"><ele>251.0</ele><time>2026-05-03T06:56:29Z</time></trkpt><trkpt lat="37.2204833" lon="14.3788813"><ele>252.0</ele><time>2026-05-03T06:56:30Z</time></trkpt><trkpt lat="37.2207391" lon="14.3788157"><ele>253.0</ele><time>2026-05-03T06:56:31Z</time></trkpt><trkpt lat="37.2209985" lon="14.3787536"><ele>253.0</ele><time>2026-05-03T06:56:32Z</time></trkpt><trkpt lat="37.2212559" lon="14.3787051"><ele>253.0</ele><time>2026-05-03T06:56:33Z</time></trkpt><trkpt lat="37.2215116" lon="14.3786729"><ele>255.0</ele><time>2026-05-03T06:56:34Z</time></trkpt><trkpt lat="37.2217658" lon="14.3786567"><ele>257.0</ele><time>2026-05-03T06:56:35Z</time></trkpt><trkpt lat="37.2220153" lon="14.378665"><ele>257.0</ele><time>2026-05-03T06:56:36Z</time></trkpt><trkpt lat="37.2222666" lon="14.3786928"><ele>257.0</ele><time>2026-05-03T06:56:37Z</time></trkpt><trkpt lat="37.222514" lon="14.3787435"><ele>258.0</ele><time>2026-05-03T06:56:38Z</time></trkpt><trkpt lat="37.2227567" lon="14.3788081"><ele>259.0</ele><time>2026-05-03T06:56:39Z</time></trkpt><trkpt lat="37.223006" lon="14.378875"><ele>258.5</ele><time>2026-05-03T06:56:40Z</time></trkpt><trkpt lat="37.223252" lon="14.3789527"><ele>258.0</ele><time>2026-05-03T06:56:41Z</time></trkpt><trkpt lat="37.2235" lon="14.3790269"><ele>258.0</ele><time>2026-05-03T06:56:42Z</time></trkpt><trkpt lat="37.2237448" lon="14.3791034"><ele>258.0</ele><time>2026-05-03T06:56:43Z</time></trkpt><trkpt lat="37.2239937" lon="14.3791868"><ele>259.0</ele><time>2026-05-03T06:56:44Z</time></trkpt><trkpt lat="37.2242398" lon="14.3792672"><ele>260.0</ele><time>2026-05-03T06:56:45Z</time></trkpt><trkpt lat="37.2244925" lon="14.3793441"><ele>260.0</ele><time>2026-05-03T06:56:46Z</time></trkpt><trkpt lat="37.2247442" lon="14.3794166"><ele>260.0</ele><time>2026-05-03T06:56:47Z</time></trkpt><trkpt lat="37.2249928" lon="14.3794797"><ele>261.5</ele><time>2026-05-03T06:56:48Z</time></trkpt><trkpt lat="37.2252424" lon="14.3795298"><ele>263.0</ele><time>2026-05-03T06:56:49Z</time></trkpt><trkpt lat="37.2254964" lon="14.379565"><ele>266.0</ele><time>2026-05-03T06:56:50Z</time></trkpt><trkpt lat="37.2257569" lon="14.3795837"><ele>269.0</ele><time>2026-05-03T06:56:51Z</time></trkpt><trkpt lat="37.226015" lon="14.3795951"><ele>269.0</ele><time>2026-05-03T06:56:52Z</time></trkpt><trkpt lat="37.2262796" lon="14.3796059"><ele>269.0</ele><time>2026-05-03T06:56:53Z</time></trkpt><trkpt lat="37.2265377" lon="14.3796082"><ele>269.5</ele><time>2026-05-03T06:56:54Z</time></trkpt><trkpt lat="37.2268005" lon="14.3796071"><ele>270.0</ele><time>2026-05-03T06:56:55Z</time></trkpt><trkpt lat="37.2270637" lon="14.379612"><ele>273.0</ele><time>2026-05-03T06:56:56Z</time></trkpt><trkpt lat="37.227323" lon="14.3796118"><ele>276.0</ele><time>2026-05-03T06:56:57Z</time></trkpt><trkpt lat="37.227585" lon="14.3796241"><ele>276.0</ele><time>2026-05-03T06:56:58Z</time></trkpt><trkpt lat="37.2278494" lon="14.379634"><ele>276.0</ele><time>2026-05-03T06:56:59Z</time></trkpt><trkpt lat="37.2281098" lon="14.3796622"><ele>280.0</ele><time>2026-05-03T06:57:00Z</time></trkpt><trkpt lat="37.2283726" lon="14.3797087"><ele>284.0</ele><time>2026-05-03T06:57:01Z</time></trkpt><trkpt lat="37.2286317" lon="14.3797737"><ele>284.0</ele><time>2026-05-03T06:57:02Z</time></trkpt><trkpt lat="37.2288785" lon="14.3798683"><ele>284.0</ele><time>2026-05-03T06:57:03Z</time></trkpt><trkpt lat="37.2291267" lon="14.3799884"><ele>284.5</ele><time>2026-05-03T06:57:04Z</time></trkpt><trkpt lat="37.2293668" lon="14.3801166"><ele>285.0</ele><time>2026-05-03T06:57:05Z</time></trkpt><trkpt lat="37.2296031" lon="14.3802732"><ele>286.0</ele><time>2026-05-03T06:57:06Z</time></trkpt><trkpt lat="37.2298362" lon="14.3804342"><ele>287.0</ele><time>2026-05-03T06:57:07Z</time></trkpt><trkpt lat="37.2300595" lon="14.3806035"><ele>287.5</ele><time>2026-05-03T06:57:08Z</time></trkpt><trkpt lat="37.2302818" lon="14.3807683"><ele>288.0</ele><time>2026-05-03T06:57:09Z</time></trkpt><trkpt lat="37.2305123" lon="14.3809308"><ele>290.0</ele><time>2026-05-03T06:57:10Z</time></trkpt><trkpt lat="37.2307447" lon="14.3810938"><ele>292.0</ele><time>2026-05-03T06:57:11Z</time></trkpt><trkpt lat="37.2309707" lon="14.3812542"><ele>293.0</ele><time>2026-05-03T06:57:12Z</time></trkpt><trkpt lat="37.2312016" lon="14.3814088"><ele>294.0</ele><time>2026-05-03T06:57:13Z</time></trkpt><trkpt lat="37.2314412" lon="14.381544"><ele>295.5</ele><time>2026-05-03T06:57:14Z</time></trkpt><trkpt lat="37.2316847" lon="14.3816718"><ele>297.0</ele><time>2026-05-03T06:57:15Z</time></trkpt><trkpt lat="37.2319356" lon="14.3817767"><ele>297.0</ele><time>2026-05-03T06:57:16Z</time></trkpt><trkpt lat="37.2321976" lon="14.3818683"><ele>297.0</ele><time>2026-05-03T06:57:17Z</time></trkpt><trkpt lat="37.2324615" lon="14.3819408"><ele>298.0</ele><time>2026-05-03T06:57:18Z</time></trkpt><trkpt lat="37.2327308" lon="14.3820134"><ele>299.0</ele><time>2026-05-03T06:57:19Z</time></trkpt><trkpt lat="37.2329996" lon="14.382082"><ele>299.5</ele><time>2026-05-03T06:57:20Z</time></trkpt><trkpt lat="37.2332722" lon="14.3821508"><ele>300.0</ele><time>2026-05-03T06:57:21Z</time></trkpt><trkpt lat="37.2335416" lon="14.3822205"><ele>300.0</ele><time>2026-05-03T06:57:22Z</time></trkpt><trkpt lat="37.2338117" lon="14.3822895"><ele>300.0</ele><time>2026-05-03T06:57:23Z</time></trkpt><trkpt lat="37.2340819" lon="14.3823527"><ele>302.0</ele><time>2026-05-03T06:57:24Z</time></trkpt><trkpt lat="37.2343524" lon="14.3824214"><ele>304.0</ele><time>2026-05-03T06:57:25Z</time></trkpt><trkpt lat="37.234619" lon="14.3824714"><ele>307.0</ele><time>2026-05-03T06:57:26Z</time></trkpt><trkpt lat="37.2348891" lon="14.3825421"><ele>310.0</ele><time>2026-05-03T06:57:27Z</time></trkpt><trkpt lat="37.2351569" lon="14.3826076"><ele>310.0</ele><time>2026-05-03T06:57:28Z</time></trkpt><trkpt lat="37.2354179" lon="14.3826791"><ele>310.0</ele><time>2026-05-03T06:57:29Z</time></trkpt><trkpt lat="37.2356763" lon="14.3827433"><ele>312.0</ele><time>2026-05-03T06:57:30Z</time></trkpt><trkpt lat="37.2359391" lon="14.3828061"><ele>314.0</ele><time>2026-05-03T06:57:31Z</time></trkpt><trkpt lat="37.2361985" lon="14.3828714"><ele>314.0</ele><time>2026-05-03T06:57:32Z</time></trkpt><trkpt lat="37.2364641" lon="14.3829322"><ele>314.0</ele><time>2026-05-03T06:57:33Z</time></trkpt><trkpt lat="37.2367218" lon="14.3829914"><ele>317.5</ele><time>2026-05-03T06:57:34Z</time></trkpt><trkpt lat="37.2369842" lon="14.3830197"><ele>321.0</ele><time>2026-05-03T06:57:35Z</time></trkpt><trkpt lat="37.2372504" lon="14.3830322"><ele>324.0</ele><time>2026-05-03T06:57:36Z</time></trkpt><trkpt lat="37.2375128" lon="14.3830247"><ele>327.0</ele><time>2026-05-03T06:57:37Z</time></trkpt><trkpt lat="37.2377765" lon="14.3829919"><ele>328.5</ele><time>2026-05-03T06:57:38Z</time></trkpt><trkpt lat="37.2380418" lon="14.3829474"><ele>330.0</ele><time>2026-05-03T06:57:39Z</time></trkpt><trkpt lat="37.2383141" lon="14.3828915"><ele>330.0</ele><time>2026-05-03T06:57:40Z</time></trkpt><trkpt lat="37.238586" lon="14.3828402"><ele>330.0</ele><time>2026-05-03T06:57:41Z</time></trkpt><trkpt lat="37.2388532" lon="14.3827842"><ele>328.5</ele><time>2026-05-03T06:57:42Z</time></trkpt><trkpt lat="37.2391135" lon="14.3827307"><ele>327.0</ele><time>2026-05-03T06:57:43Z</time></trkpt><trkpt lat="37.2393846" lon="14.3826827"><ele>327.0</ele><time>2026-05-03T06:57:44Z</time></trkpt><trkpt lat="37.2396501" lon="14.3826274"><ele>327.0</ele><time>2026-05-03T06:57:45Z</time></trkpt><trkpt lat="37.2399155" lon="14.3825714"><ele>328.0</ele><time>2026-05-03T06:57:46Z</time></trkpt><trkpt lat="37.2401774" lon="14.3825144"><ele>329.0</ele><time>2026-05-03T06:57:47Z</time></trkpt><trkpt lat="37.24044" lon="14.3824621"><ele>334.0</ele><time>2026-05-03T06:57:48Z</time></trkpt><trkpt lat="37.240703" lon="14.382411"><ele>339.0</ele><time>2026-05-03T06:57:49Z</time></trkpt><trkpt lat="37.2409626" lon="14.3823563"><ele>339.0</ele><time>2026-05-03T06:57:50Z</time></trkpt><trkpt lat="37.2412219" lon="14.3823077"><ele>339.0</ele><time>2026-05-03T06:57:51Z</time></trkpt><trkpt lat="37.2414791" lon="14.3822543"><ele>337.0</ele><time>2026-05-03T06:57:52Z</time></trkpt><trkpt lat="37.2417435" lon="14.382203"><ele>335.0</ele><time>2026-05-03T06:57:53Z</time></trkpt><trkpt lat="37.2420134" lon="14.3821478"><ele>335.0</ele><time>2026-05-03T06:57:54Z</time></trkpt><trkpt lat="37.2422787" lon="14.3820942"><ele>335.0</ele><time>2026-05-03T06:57:55Z</time></trkpt><trkpt lat="37.2425409" lon="14.3820497"><ele>341.5</ele><time>2026-05-03T06:57:56Z</time></trkpt><trkpt lat="37.2428062" lon="14.3820232"><ele>348.0</ele><time>2026-05-03T06:57:57Z</time></trkpt><trkpt lat="37.2430719" lon="14.3820087"><ele>347.0</ele><time>2026-05-03T06:57:58Z</time></trkpt><trkpt lat="37.2433427" lon="14.3820017"><ele>346.0</ele><time>2026-05-03T06:57:59Z</time></trkpt><trkpt lat="37.2436038" lon="14.3820149"><ele>346.0</ele><time>2026-05-03T06:58:00Z</time></trkpt><trkpt lat="37.2438722" lon="14.3820351"><ele>346.0</ele><time>2026-05-03T06:58:01Z</time></trkpt><trkpt lat="37.2441345" lon="14.3820531"><ele>344.0</ele><time>2026-05-03T06:58:02Z</time></trkpt><trkpt lat="37.2443983" lon="14.3820711"><ele>342.0</ele><time>2026-05-03T06:58:03Z</time></trkpt><trkpt lat="37.2446687" lon="14.3820898"><ele>345.0</ele><time>2026-05-03T06:58:04Z</time></trkpt><trkpt lat="37.2449347" lon="14.3821105"><ele>348.0</ele><time>2026-05-03T06:58:05Z</time></trkpt><trkpt lat="37.2451996" lon="14.3821287"><ele>348.0</ele><time>2026-05-03T06:58:06Z</time></trkpt><trkpt lat="37.2454631" lon="14.3821511"><ele>348.0</ele><time>2026-05-03T06:58:07Z</time></trkpt><trkpt lat="37.2457297" lon="14.3821684"><ele>351.5</ele><time>2026-05-03T06:58:08Z</time></trkpt><trkpt lat="37.2459953" lon="14.3821937"><ele>355.0</ele><time>2026-05-03T06:58:09Z</time></trkpt><trkpt lat="37.2462629" lon="14.3822143"><ele>356.0</ele><time>2026-05-03T06:58:10Z</time></trkpt><trkpt lat="37.2465299" lon="14.3822347"><ele>357.0</ele><time>2026-05-03T06:58:11Z</time></trkpt><trkpt lat="37.2467971" lon="14.3822527"><ele>357.0</ele><time>2026-05-03T06:58:12Z</time></trkpt><trkpt lat="37.2470671" lon="14.3822538"><ele>357.0</ele><time>2026-05-03T06:58:13Z</time></trkpt><trkpt lat="37.2473298" lon="14.38225"><ele>357.5</ele><time>2026-05-03T06:58:14Z</time></trkpt><trkpt lat="37.2475992" lon="14.3822267"><ele>358.0</ele><time>2026-05-03T06:58:15Z</time></trkpt><trkpt lat="37.2478656" lon="14.3821862"><ele>356.5</ele><time>2026-05-03T06:58:16Z</time></trkpt><trkpt lat="37.2481228" lon="14.3821356"><ele>355.0</ele><time>2026-05-03T06:58:17Z</time></trkpt><trkpt lat="37.2483836" lon="14.3820728"><ele>355.0</ele><time>2026-05-03T06:58:18Z</time></trkpt><trkpt lat="37.2486447" lon="14.3820082"><ele>355.0</ele><time>2026-05-03T06:58:19Z</time></trkpt><trkpt lat="37.2489033" lon="14.3819321"><ele>357.5</ele><time>2026-05-03T06:58:20Z</time></trkpt><trkpt lat="37.2491604" lon="14.3818555"><ele>360.0</ele><time>2026-05-03T06:58:21Z</time></trkpt><trkpt lat="37.2494149" lon="14.381785"><ele>360.0</ele><time>2026-05-03T06:58:22Z</time></trkpt><trkpt lat="37.2496753" lon="14.3817099"><ele>360.0</ele><time>2026-05-03T06:58:23Z</time></trkpt><trkpt lat="37.2499304" lon="14.3816235"><ele>363.0</ele><time>2026-05-03T06:58:24Z</time></trkpt><trkpt lat="37.250189" lon="14.3815291"><ele>366.0</ele><time>2026-05-03T06:58:25Z</time></trkpt><trkpt lat="37.2504386" lon="14.3814251"><ele>369.5</ele><time>2026-05-03T06:58:26Z</time></trkpt><trkpt lat="37.2506856" lon="14.3813085"><ele>373.0</ele><time>2026-05-03T06:58:27Z</time></trkpt><trkpt lat="37.2509263" lon="14.381179"><ele>373.0</ele><time>2026-05-03T06:58:28Z</time></trkpt><trkpt lat="37.2511631" lon="14.3810316"><ele>373.0</ele><time>2026-05-03T06:58:29Z</time></trkpt><trkpt lat="37.2513963" lon="14.3808667"><ele>376.5</ele><time>2026-05-03T06:58:30Z</time></trkpt><trkpt lat="37.2516236" lon="14.3806956"><ele>380.0</ele><time>2026-05-03T06:58:31Z</time></trkpt><trkpt lat="37.2518494" lon="14.3805231"><ele>378.5</ele><time>2026-05-03T06:58:32Z</time></trkpt><trkpt lat="37.2520736" lon="14.3803562"><ele>377.0</ele><time>2026-05-03T06:58:33Z</time></trkpt><trkpt lat="37.2523083" lon="14.3801974"><ele>380.0</ele><time>2026-05-03T06:58:34Z</time></trkpt><trkpt lat="37.2525435" lon="14.3800516"><ele>383.0</ele><time>2026-05-03T06:58:35Z</time></trkpt><trkpt lat="37.2527887" lon="14.3799136"><ele>383.0</ele><time>2026-05-03T06:58:36Z</time></trkpt><trkpt lat="37.2530332" lon="14.3797954"><ele>383.0</ele><time>2026-05-03T06:58:37Z</time></trkpt><trkpt lat="37.2532814" lon="14.3796894"><ele>385.0</ele><time>2026-05-03T06:58:38Z</time></trkpt><trkpt lat="37.2535408" lon="14.3795881"><ele>387.0</ele><time>2026-05-03T06:58:39Z</time></trkpt><trkpt lat="37.2537951" lon="14.3795004"><ele>390.5</ele><time>2026-05-03T06:58:40Z</time></trkpt><trkpt lat="37.254052" lon="14.3794097"><ele>394.0</ele><time>2026-05-03T06:58:41Z</time></trkpt><trkpt lat="37.2543043" lon="14.3793192"><ele>394.0</ele><time>2026-05-03T06:58:42Z</time></trkpt><trkpt lat="37.2545407" lon="14.3792399"><ele>394.0</ele><time>2026-05-03T06:58:42.999Z</time></trkpt><trkpt lat="37.2547693" lon="14.3791556"><ele>397.5</ele><time>2026-05-03T06:58:44Z</time></trkpt><trkpt lat="37.2549948" lon="14.3790706"><ele>401.0</ele><time>2026-05-03T06:58:45Z</time></trkpt><trkpt lat="37.2552178" lon="14.3789933"><ele>401.0</ele><time>2026-05-03T06:58:46Z</time></trkpt><trkpt lat="37.2554436" lon="14.378917"><ele>401.0</ele><time>2026-05-03T06:58:47Z</time></trkpt><trkpt lat="37.2556726" lon="14.3788532"><ele>399.5</ele><time>2026-05-03T06:58:48Z</time></trkpt><trkpt lat="37.2559003" lon="14.3787966"><ele>398.0</ele><time>2026-05-03T06:58:49Z</time></trkpt><trkpt lat="37.2561305" lon="14.3787465"><ele>398.0</ele><time>2026-05-03T06:58:50Z</time></trkpt><trkpt lat="37.2563619" lon="14.3787098"><ele>398.0</ele><time>2026-05-03T06:58:51Z</time></trkpt><trkpt lat="37.2566016" lon="14.378704"><ele>401.0</ele><time>2026-05-03T06:58:52Z</time></trkpt><trkpt lat="37.2568448" lon="14.3787116"><ele>404.0</ele><time>2026-05-03T06:58:53Z</time></trkpt><trkpt lat="37.2570913" lon="14.3787321"><ele>406.0</ele><time>2026-05-03T06:58:54Z</time></trkpt><trkpt lat="37.2573384" lon="14.3787774"><ele>408.0</ele><time>2026-05-03T06:58:55Z</time></trkpt><trkpt lat="37.2575873" lon="14.3788311"><ele>414.0</ele><time>2026-05-03T06:58:56Z</time></trkpt><trkpt lat="37.2578356" lon="14.3789014"><ele>420.0</ele><time>2026-05-03T06:58:57Z</time></trkpt><trkpt lat="37.2580813" lon="14.3789877"><ele>418.5</ele><time>2026-05-03T06:58:58Z</time></trkpt><trkpt lat="37.2583187" lon="14.3790889"><ele>417.0</ele><time>2026-05-03T06:58:59Z</time></trkpt><trkpt lat="37.2585539" lon="14.3791978"><ele>417.0</ele><time>2026-05-03T06:59:00Z</time></trkpt><trkpt lat="37.2587954" lon="14.3793086"><ele>417.0</ele><time>2026-05-03T06:59:01Z</time></trkpt><trkpt lat="37.2590335" lon="14.3794201"><ele>418.0</ele><time>2026-05-03T06:59:02Z</time></trkpt><trkpt lat="37.2592701" lon="14.3795336"><ele>419.0</ele><time>2026-05-03T06:59:03Z</time></trkpt><trkpt lat="37.2595063" lon="14.379652"><ele>421.5</ele><time>2026-05-03T06:59:04Z</time></trkpt><trkpt lat="37.2597467" lon="14.3797675"><ele>424.0</ele><time>2026-05-03T06:59:05Z</time></trkpt><trkpt lat="37.2599859" lon="14.3798875"><ele>424.0</ele><time>2026-05-03T06:59:06Z</time></trkpt><trkpt lat="37.2602248" lon="14.3800095"><ele>424.0</ele><time>2026-05-03T06:59:06.999Z</time></trkpt><trkpt lat="37.2604601" lon="14.3801233"><ele>423.5</ele><time>2026-05-03T06:59:08Z</time></trkpt><trkpt lat="37.2606922" lon="14.3802305"><ele>423.0</ele><time>2026-05-03T06:59:09Z</time></trkpt><trkpt lat="37.2609253" lon="14.3803205"><ele>423.0</ele><time>2026-05-03T06:59:10Z</time></trkpt><trkpt lat="37.2611613" lon="14.3804022"><ele>423.0</ele><time>2026-05-03T06:59:11Z</time></trkpt><trkpt lat="37.2613977" lon="14.3804619"><ele>425.5</ele><time>2026-05-03T06:59:12Z</time></trkpt><trkpt lat="37.2616343" lon="14.3804828"><ele>428.0</ele><time>2026-05-03T06:59:13Z</time></trkpt><trkpt lat="37.2618766" lon="14.3804712"><ele>428.0</ele><time>2026-05-03T06:59:14Z</time></trkpt><trkpt lat="37.2621049" lon="14.3804299"><ele>428.0</ele><time>2026-05-03T06:59:15Z</time></trkpt><trkpt lat="37.2623336" lon="14.3803613"><ele>431.0</ele><time>2026-05-03T06:59:16Z</time></trkpt><trkpt lat="37.2625623" lon="14.3802592"><ele>434.0</ele><time>2026-05-03T06:59:17Z</time></trkpt><trkpt lat="37.2627881" lon="14.3801497"><ele>434.0</ele><time>2026-05-03T06:59:18Z</time></trkpt><trkpt lat="37.2630087" lon="14.3800331"><ele>434.0</ele><time>2026-05-03T06:59:18.999Z</time></trkpt><trkpt lat="37.2632311" lon="14.379921"><ele>439.0</ele><time>2026-05-03T06:59:20Z</time></trkpt><trkpt lat="37.263456" lon="14.3798097"><ele>444.0</ele><time>2026-05-03T06:59:21Z</time></trkpt><trkpt lat="37.2636848" lon="14.379703"><ele>443.0</ele><time>2026-05-03T06:59:22Z</time></trkpt><trkpt lat="37.2639145" lon="14.3796084"><ele>442.0</ele><time>2026-05-03T06:59:23Z</time></trkpt><trkpt lat="37.2641511" lon="14.3795278"><ele>442.0</ele><time>2026-05-03T06:59:24Z</time></trkpt><trkpt lat="37.264388" lon="14.3794618"><ele>442.0</ele><time>2026-05-03T06:59:25Z</time></trkpt><trkpt lat="37.2646364" lon="14.3794058"><ele>444.0</ele><time>2026-05-03T06:59:26Z</time></trkpt><trkpt lat="37.2648831" lon="14.3793574"><ele>446.0</ele><time>2026-05-03T06:59:27Z</time></trkpt><trkpt lat="37.2651267" lon="14.379314"><ele>446.0</ele><time>2026-05-03T06:59:28Z</time></trkpt><trkpt lat="37.2653699" lon="14.379273"><ele>446.0</ele><time>2026-05-03T06:59:29Z</time></trkpt><trkpt lat="37.2656174" lon="14.3792355"><ele>446.5</ele><time>2026-05-03T06:59:30Z</time></trkpt><trkpt lat="37.2658652" lon="14.3792129"><ele>447.0</ele><time>2026-05-03T06:59:31Z</time></trkpt><trkpt lat="37.2661127" lon="14.379194"><ele>447.0</ele><time>2026-05-03T06:59:32Z</time></trkpt><trkpt lat="37.2663615" lon="14.3791926"><ele>447.0</ele><time>2026-05-03T06:59:33Z</time></trkpt><trkpt lat="37.266607" lon="14.3792075"><ele>448.0</ele><time>2026-05-03T06:59:34Z</time></trkpt><trkpt lat="37.2668533" lon="14.379239"><ele>449.0</ele><time>2026-05-03T06:59:35Z</time></trkpt><trkpt lat="37.2670972" lon="14.3792867"><ele>450.0</ele><time>2026-05-03T06:59:36Z</time></trkpt><trkpt lat="37.2673435" lon="14.3793465"><ele>451.0</ele><time>2026-05-03T06:59:37Z</time></trkpt><trkpt lat="37.2675862" lon="14.3794119"><ele>451.0</ele><time>2026-05-03T06:59:38Z</time></trkpt><trkpt lat="37.2678251" lon="14.3795078"><ele>451.0</ele><time>2026-05-03T06:59:39Z</time></trkpt><trkpt lat="37.2680624" lon="14.3796264"><ele>455.5</ele><time>2026-05-03T06:59:40Z</time></trkpt><trkpt lat="37.2682904" lon="14.3797676"><ele>460.0</ele><time>2026-05-03T06:59:41Z</time></trkpt><trkpt lat="37.268516" lon="14.3799403"><ele>460.0</ele><time>2026-05-03T06:59:42Z</time></trkpt><trkpt lat="37.2687298" lon="14.3801275"><ele>460.0</ele><time>2026-05-03T06:59:43Z</time></trkpt><trkpt lat="37.2689426" lon="14.3803252"><ele>461.0</ele><time>2026-05-03T06:59:44Z</time></trkpt><trkpt lat="37.2691598" lon="14.3805265"><ele>462.0</ele><time>2026-05-03T06:59:45Z</time></trkpt><trkpt lat="37.2693709" lon="14.3807293"><ele>462.0</ele><time>2026-05-03T06:59:46Z</time></trkpt><trkpt lat="37.2695859" lon="14.380938"><ele>462.0</ele><time>2026-05-03T06:59:47Z</time></trkpt><trkpt lat="37.2698052" lon="14.3811487"><ele>464.5</ele><time>2026-05-03T06:59:48Z</time></trkpt><trkpt lat="37.2700252" lon="14.3813589"><ele>467.0</ele><time>2026-05-03T06:59:49Z</time></trkpt><trkpt lat="37.2702417" lon="14.3815719"><ele>467.0</ele><time>2026-05-03T06:59:50Z</time></trkpt><trkpt lat="37.2704651" lon="14.381786"><ele>467.0</ele><time>2026-05-03T06:59:51Z</time></trkpt><trkpt lat="37.2706805" lon="14.3819975"><ele>469.5</ele><time>2026-05-03T06:59:52Z</time></trkpt><trkpt lat="37.2708976" lon="14.3822082"><ele>472.0</ele><time>2026-05-03T06:59:53Z</time></trkpt><trkpt lat="37.2711208" lon="14.3824209"><ele>472.0</ele><time>2026-05-03T06:59:54Z</time></trkpt><trkpt lat="37.2713362" lon="14.3826364"><ele>472.0</ele><time>2026-05-03T06:59:55Z</time></trkpt><trkpt lat="37.2715511" lon="14.3828501"><ele>472.0</ele><time>2026-05-03T06:59:56Z</time></trkpt><trkpt lat="37.271769" lon="14.3830533"><ele>472.0</ele><time>2026-05-03T06:59:57Z</time></trkpt><trkpt lat="37.2719891" lon="14.383263"><ele>472.0</ele><time>2026-05-03T06:59:58Z</time></trkpt><trkpt lat="37.2722166" lon="14.3834601"><ele>472.0</ele><time>2026-05-03T06:59:59Z</time></trkpt><trkpt lat="37.2724462" lon="14.3836435"><ele>472.5</ele><time>2026-05-03T07:00:00Z</time></trkpt><trkpt lat="37.2726805" lon="14.383816"><ele>473.0</ele><time>2026-05-03T07:00:01Z</time></trkpt><trkpt lat="37.2729189" lon="14.3839676"><ele>473.0</ele><time>2026-05-03T07:00:01.999Z</time></trkpt><trkpt lat="37.2731553" lon="14.384106"><ele>473.0</ele><time>2026-05-03T07:00:03Z</time></trkpt><trkpt lat="37.273398" lon="14.3842364"><ele>473.0</ele><time>2026-05-03T07:00:04Z</time></trkpt><trkpt lat="37.2736392" lon="14.3843669"><ele>473.0</ele><time>2026-05-03T07:00:05Z</time></trkpt><trkpt lat="37.273884" lon="14.3844822"><ele>472.5</ele><time>2026-05-03T07:00:06Z</time></trkpt><trkpt lat="37.2741286" lon="14.3846017"><ele>472.0</ele><time>2026-05-03T07:00:07Z</time></trkpt><trkpt lat="37.2743671" lon="14.3847214"><ele>474.0</ele><time>2026-05-03T07:00:08Z</time></trkpt><trkpt lat="37.2746033" lon="14.3848371"><ele>476.0</ele><time>2026-05-03T07:00:09Z</time></trkpt><trkpt lat="37.2748297" lon="14.3849497"><ele>476.0</ele><time>2026-05-03T07:00:10Z</time></trkpt><trkpt lat="37.2750573" lon="14.3850551"><ele>476.0</ele><time>2026-05-03T07:00:11Z</time></trkpt><trkpt lat="37.2752877" lon="14.3851671"><ele>476.0</ele><time>2026-05-03T07:00:12Z</time></trkpt><trkpt lat="37.2755156" lon="14.3852789"><ele>476.0</ele><time>2026-05-03T07:00:13Z</time></trkpt><trkpt lat="37.2757353" lon="14.3853825"><ele>477.5</ele><time>2026-05-03T07:00:14Z</time></trkpt><trkpt lat="37.2759564" lon="14.3854831"><ele>479.0</ele><time>2026-05-03T07:00:15Z</time></trkpt><trkpt lat="37.2761748" lon="14.3855872"><ele>479.5</ele><time>2026-05-03T07:00:16Z</time></trkpt><trkpt lat="37.2763964" lon="14.3856909"><ele>480.0</ele><time>2026-05-03T07:00:17Z</time></trkpt><trkpt lat="37.2766121" lon="14.3857938"><ele>480.0</ele><time>2026-05-03T07:00:18Z</time></trkpt><trkpt lat="37.2768367" lon="14.3859078"><ele>480.0</ele><time>2026-05-03T07:00:19Z</time></trkpt><trkpt lat="37.2770689" lon="14.3860157"><ele>479.0</ele><time>2026-05-03T07:00:20Z</time></trkpt><trkpt lat="37.2772961" lon="14.3861238"><ele>478.0</ele><time>2026-05-03T07:00:21Z</time></trkpt><trkpt lat="37.2775232" lon="14.3862269"><ele>478.0</ele><time>2026-05-03T07:00:22Z</time></trkpt><trkpt lat="37.2777444" lon="14.386331"><ele>478.0</ele><time>2026-05-03T07:00:23Z</time></trkpt><trkpt lat="37.2779616" lon="14.3864447"><ele>466.5</ele><time>2026-05-03T07:00:24Z</time></trkpt><trkpt lat="37.2781732" lon="14.386546"><ele>455.0</ele><time>2026-05-03T07:00:25Z</time></trkpt><trkpt lat="37.2783928" lon="14.3866483"><ele>455.0</ele><time>2026-05-03T07:00:26Z</time></trkpt><trkpt lat="37.2786105" lon="14.3867516"><ele>455.0</ele><time>2026-05-03T07:00:27Z</time></trkpt><trkpt lat="37.2788208" lon="14.3868533"><ele>456.0</ele><time>2026-05-03T07:00:28Z</time></trkpt><trkpt lat="37.2790414" lon="14.3869647"><ele>457.0</ele><time>2026-05-03T07:00:29Z</time></trkpt><trkpt lat="37.2792679" lon="14.3870735"><ele>449.0</ele><time>2026-05-03T07:00:30Z</time></trkpt><trkpt lat="37.2794953" lon="14.3871859"><ele>441.0</ele><time>2026-05-03T07:00:31Z</time></trkpt><trkpt lat="37.27972" lon="14.3873057"><ele>445.5</ele><time>2026-05-03T07:00:32Z</time></trkpt><trkpt lat="37.279946" lon="14.3874347"><ele>450.0</ele><time>2026-05-03T07:00:33Z</time></trkpt><trkpt lat="37.2801748" lon="14.3875681"><ele>450.0</ele><time>2026-05-03T07:00:34Z</time></trkpt><trkpt lat="37.2804017" lon="14.3877105"><ele>450.0</ele><time>2026-05-03T07:00:35Z</time></trkpt><trkpt lat="37.280621" lon="14.3878673"><ele>448.0</ele><time>2026-05-03T07:00:36Z</time></trkpt><trkpt lat="37.2808424" lon="14.3880297"><ele>446.0</ele><time>2026-05-03T07:00:37Z</time></trkpt><trkpt lat="37.2810606" lon="14.3882062"><ele>446.0</ele><time>2026-05-03T07:00:38Z</time></trkpt><trkpt lat="37.2812806" lon="14.3883866"><ele>446.0</ele><time>2026-05-03T07:00:39Z</time></trkpt><trkpt lat="37.2815042" lon="14.3885714"><ele>447.0</ele><time>2026-05-03T07:00:40Z</time></trkpt><trkpt lat="37.2817276" lon="14.3887595"><ele>448.0</ele><time>2026-05-03T07:00:41Z</time></trkpt><trkpt lat="37.2819503" lon="14.3889544"><ele>443.5</ele><time>2026-05-03T07:00:42Z</time></trkpt><trkpt lat="37.2821793" lon="14.3891407"><ele>439.0</ele><time>2026-05-03T07:00:43Z</time></trkpt><trkpt lat="37.2824022" lon="14.3893349"><ele>439.0</ele><time>2026-05-03T07:00:44Z</time></trkpt><trkpt lat="37.2826295" lon="14.389527"><ele>439.0</ele><time>2026-05-03T07:00:45Z</time></trkpt><trkpt lat="37.2828552" lon="14.389722"><ele>437.0</ele><time>2026-05-03T07:00:46Z</time></trkpt><trkpt lat="37.2830841" lon="14.3899163"><ele>435.0</ele><time>2026-05-03T07:00:47Z</time></trkpt><trkpt lat="37.2833107" lon="14.3901066"><ele>430.5</ele><time>2026-05-03T07:00:48Z</time></trkpt><trkpt lat="37.2835386" lon="14.3902992"><ele>426.0</ele><time>2026-05-03T07:00:49Z</time></trkpt><trkpt lat="37.283763" lon="14.3904904"><ele>423.0</ele><time>2026-05-03T07:00:50Z</time></trkpt><trkpt lat="37.2839817" lon="14.3906726"><ele>420.0</ele><time>2026-05-03T07:00:51Z</time></trkpt><trkpt lat="37.2842066" lon="14.3908585"><ele>420.0</ele><time>2026-05-03T07:00:52Z</time></trkpt><trkpt lat="37.2844321" lon="14.3910448"><ele>420.0</ele><time>2026-05-03T07:00:53Z</time></trkpt><trkpt lat="37.2846535" lon="14.3912385"><ele>418.5</ele><time>2026-05-03T07:00:54Z</time></trkpt><trkpt lat="37.2848726" lon="14.3914323"><ele>417.0</ele><time>2026-05-03T07:00:55Z</time></trkpt><trkpt lat="37.2850959" lon="14.3916191"><ele>417.0</ele><time>2026-05-03T07:00:56Z</time></trkpt><trkpt lat="37.2853196" lon="14.3918077"><ele>417.0</ele><time>2026-05-03T07:00:57Z</time></trkpt><trkpt lat="37.2855348" lon="14.3919922"><ele>418.0</ele><time>2026-05-03T07:00:58Z</time></trkpt><trkpt lat="37.2857467" lon="14.3921697"><ele>419.0</ele><time>2026-05-03T07:00:58.999Z</time></trkpt><trkpt lat="37.2859582" lon="14.3923475"><ele>419.5</ele><time>2026-05-03T07:01:00Z</time></trkpt><trkpt lat="37.2861665" lon="14.3925208"><ele>420.0</ele><time>2026-05-03T07:01:01Z</time></trkpt><trkpt lat="37.2863768" lon="14.3926936"><ele>423.0</ele><time>2026-05-03T07:01:02Z</time></trkpt><trkpt lat="37.286586" lon="14.3928653"><ele>426.0</ele><time>2026-05-03T07:01:03Z</time></trkpt><trkpt lat="37.2867967" lon="14.3930311"><ele>426.0</ele><time>2026-05-03T07:01:04Z</time></trkpt><trkpt lat="37.2870121" lon="14.3931857"><ele>426.0</ele><time>2026-05-03T07:01:05Z</time></trkpt><trkpt lat="37.2872338" lon="14.3933238"><ele>430.0</ele><time>2026-05-03T07:01:06Z</time></trkpt><trkpt lat="37.2874634" lon="14.3934418"><ele>434.0</ele><time>2026-05-03T07:01:07Z</time></trkpt><trkpt lat="37.287698" lon="14.3935551"><ele>434.0</ele><time>2026-05-03T07:01:08Z</time></trkpt><trkpt lat="37.2879379" lon="14.3936476"><ele>434.0</ele><time>2026-05-03T07:01:09Z</time></trkpt><trkpt lat="37.288179" lon="14.3937376"><ele>431.5</ele><time>2026-05-03T07:01:10Z</time></trkpt><trkpt lat="37.2884225" lon="14.3938188"><ele>429.0</ele><time>2026-05-03T07:01:11Z</time></trkpt><trkpt lat="37.2886663" lon="14.393896"><ele>429.0</ele><time>2026-05-03T07:01:12Z</time></trkpt><trkpt lat="37.2889056" lon="14.3939739"><ele>429.0</ele><time>2026-05-03T07:01:12.999Z</time></trkpt><trkpt lat="37.2891422" lon="14.394055"><ele>431.5</ele><time>2026-05-03T07:01:14Z</time></trkpt><trkpt lat="37.2893755" lon="14.3941282"><ele>434.0</ele><time>2026-05-03T07:01:15Z</time></trkpt><trkpt lat="37.2896101" lon="14.3941964"><ele>440.0</ele><time>2026-05-03T07:01:16Z</time></trkpt><trkpt lat="37.2898426" lon="14.3942598"><ele>446.0</ele><time>2026-05-03T07:01:17Z</time></trkpt><trkpt lat="37.2900772" lon="14.3942962"><ele>446.0</ele><time>2026-05-03T07:01:18Z</time></trkpt><trkpt lat="37.290308" lon="14.3943035"><ele>446.0</ele><time>2026-05-03T07:01:19Z</time></trkpt><trkpt lat="37.2905428" lon="14.3942898"><ele>449.5</ele><time>2026-05-03T07:01:20Z</time></trkpt><trkpt lat="37.2907798" lon="14.3942594"><ele>453.0</ele><time>2026-05-03T07:01:21Z</time></trkpt><trkpt lat="37.2910098" lon="14.3942121"><ele>453.0</ele><time>2026-05-03T07:01:22Z</time></trkpt><trkpt lat="37.2912403" lon="14.3941371"><ele>453.0</ele><time>2026-05-03T07:01:23Z</time></trkpt><trkpt lat="37.291452" lon="14.3940437"><ele>454.0</ele><time>2026-05-03T07:01:24Z</time></trkpt><trkpt lat="37.2916566" lon="14.3939245"><ele>455.0</ele><time>2026-05-03T07:01:25Z</time></trkpt><trkpt lat="37.2918499" lon="14.3937749"><ele>455.0</ele><time>2026-05-03T07:01:26Z</time></trkpt><trkpt lat="37.2920397" lon="14.393615"><ele>455.0</ele><time>2026-05-03T07:01:27Z</time></trkpt><trkpt lat="37.2922147" lon="14.3934266"><ele>449.0</ele><time>2026-05-03T07:01:28Z</time></trkpt><trkpt lat="37.2923754" lon="14.3932259"><ele>443.0</ele><time>2026-05-03T07:01:29Z</time></trkpt><trkpt lat="37.2925202" lon="14.3930071"><ele>447.0</ele><time>2026-05-03T07:01:30Z</time></trkpt><trkpt lat="37.2926577" lon="14.3927678"><ele>451.0</ele><time>2026-05-03T07:01:31Z</time></trkpt><trkpt lat="37.2927824" lon="14.3925204"><ele>451.0</ele><time>2026-05-03T07:01:32Z</time></trkpt><trkpt lat="37.292893" lon="14.392261"><ele>451.0</ele><time>2026-05-03T07:01:33Z</time></trkpt><trkpt lat="37.2929987" lon="14.391999"><ele>453.0</ele><time>2026-05-03T07:01:34Z</time></trkpt><trkpt lat="37.2931042" lon="14.3917355"><ele>455.0</ele><time>2026-05-03T07:01:35Z</time></trkpt><trkpt lat="37.2932161" lon="14.3914696"><ele>459.0</ele><time>2026-05-03T07:01:36Z</time></trkpt><trkpt lat="37.2933334" lon="14.3912034"><ele>463.0</ele><time>2026-05-03T07:01:37Z</time></trkpt><trkpt lat="37.2934478" lon="14.3909349"><ele>463.0</ele><time>2026-05-03T07:01:38Z</time></trkpt><trkpt lat="37.2935653" lon="14.390664"><ele>463.0</ele><time>2026-05-03T07:01:39Z</time></trkpt><trkpt lat="37.293695" lon="14.390398"><ele>465.5</ele><time>2026-05-03T07:01:40Z</time></trkpt><trkpt lat="37.2938458" lon="14.3901477"><ele>468.0</ele><time>2026-05-03T07:01:41Z</time></trkpt><trkpt lat="37.294013" lon="14.3899077"><ele>470.0</ele><time>2026-05-03T07:01:42Z</time></trkpt><trkpt lat="37.2942079" lon="14.3896815"><ele>472.0</ele><time>2026-05-03T07:01:43Z</time></trkpt><trkpt lat="37.2944103" lon="14.389473"><ele>476.5</ele><time>2026-05-03T07:01:44Z</time></trkpt><trkpt lat="37.2946246" lon="14.3892791"><ele>481.0</ele><time>2026-05-03T07:01:45Z</time></trkpt><trkpt lat="37.294845" lon="14.3891019"><ele>481.0</ele><time>2026-05-03T07:01:46Z</time></trkpt><trkpt lat="37.2950716" lon="14.3889325"><ele>481.0</ele><time>2026-05-03T07:01:47Z</time></trkpt><trkpt lat="37.2953043" lon="14.3887739"><ele>486.0</ele><time>2026-05-03T07:01:48Z</time></trkpt><trkpt lat="37.2955351" lon="14.388624"><ele>491.0</ele><time>2026-05-03T07:01:49Z</time></trkpt><trkpt lat="37.2957634" lon="14.3884731"><ele>491.0</ele><time>2026-05-03T07:01:50Z</time></trkpt><trkpt lat="37.2959925" lon="14.3883167"><ele>491.0</ele><time>2026-05-03T07:01:51Z</time></trkpt><trkpt lat="37.296218" lon="14.3881661"><ele>493.0</ele><time>2026-05-03T07:01:52Z</time></trkpt><trkpt lat="37.2964426" lon="14.3880195"><ele>495.0</ele><time>2026-05-03T07:01:53Z</time></trkpt><trkpt lat="37.296666" lon="14.3878671"><ele>497.0</ele><time>2026-05-03T07:01:54Z</time></trkpt><trkpt lat="37.2968848" lon="14.3877213"><ele>499.0</ele><time>2026-05-03T07:01:55Z</time></trkpt><trkpt lat="37.2971013" lon="14.3875638"><ele>500.0</ele><time>2026-05-03T07:01:56Z</time></trkpt><trkpt lat="37.2973051" lon="14.3873985"><ele>501.0</ele><time>2026-05-03T07:01:57Z</time></trkpt><trkpt lat="37.2975029" lon="14.3872176"><ele>503.5</ele><time>2026-05-03T07:01:58Z</time></trkpt><trkpt lat="37.2976867" lon="14.3870182"><ele>506.0</ele><time>2026-05-03T07:01:59Z</time></trkpt><trkpt lat="37.2978567" lon="14.3868017"><ele>506.0</ele><time>2026-05-03T07:02:00Z</time></trkpt><trkpt lat="37.2980277" lon="14.3865823"><ele>506.0</ele><time>2026-05-03T07:02:01Z</time></trkpt><trkpt lat="37.298191" lon="14.3863553"><ele>505.0</ele><time>2026-05-03T07:02:02Z</time></trkpt><trkpt lat="37.298343" lon="14.3861263"><ele>504.0</ele><time>2026-05-03T07:02:03Z</time></trkpt><trkpt lat="37.2985" lon="14.3858927"><ele>504.0</ele><time>2026-05-03T07:02:04Z</time></trkpt><trkpt lat="37.2986545" lon="14.3856586"><ele>504.0</ele><time>2026-05-03T07:02:05Z</time></trkpt><trkpt lat="37.2988136" lon="14.3854205"><ele>503.5</ele><time>2026-05-03T07:02:06Z</time></trkpt><trkpt lat="37.2989706" lon="14.3851839"><ele>503.0</ele><time>2026-05-03T07:02:07Z</time></trkpt><trkpt lat="37.2991263" lon="14.384941"><ele>503.0</ele><time>2026-05-03T07:02:08Z</time></trkpt><trkpt lat="37.2992836" lon="14.3846965"><ele>503.0</ele><time>2026-05-03T07:02:09Z</time></trkpt><trkpt lat="37.2994439" lon="14.384448"><ele>502.5</ele><time>2026-05-03T07:02:10Z</time></trkpt><trkpt lat="37.299612" lon="14.3842011"><ele>502.0</ele><time>2026-05-03T07:02:11Z</time></trkpt><trkpt lat="37.2997766" lon="14.3839541"><ele>504.5</ele><time>2026-05-03T07:02:12Z</time></trkpt><trkpt lat="37.2999425" lon="14.3837086"><ele>507.0</ele><time>2026-05-03T07:02:13Z</time></trkpt><trkpt lat="37.3001035" lon="14.3834585"><ele>507.0</ele><time>2026-05-03T07:02:14Z</time></trkpt><trkpt lat="37.3002612" lon="14.3832044"><ele>507.0</ele><time>2026-05-03T07:02:15Z</time></trkpt><trkpt lat="37.3004143" lon="14.3829475"><ele>508.5</ele><time>2026-05-03T07:02:16Z</time></trkpt><trkpt lat="37.3005666" lon="14.382686"><ele>510.0</ele><time>2026-05-03T07:02:17Z</time></trkpt><trkpt lat="37.3007172" lon="14.3824204"><ele>508.0</ele><time>2026-05-03T07:02:18Z</time></trkpt><trkpt lat="37.3008651" lon="14.3821528"><ele>506.0</ele><time>2026-05-03T07:02:19Z</time></trkpt><trkpt lat="37.3010083" lon="14.3818815"><ele>506.0</ele><time>2026-05-03T07:02:20Z</time></trkpt><trkpt lat="37.3011601" lon="14.3816042"><ele>506.0</ele><time>2026-05-03T07:02:21Z</time></trkpt><trkpt lat="37.3013059" lon="14.3813293"><ele>504.5</ele><time>2026-05-03T07:02:22Z</time></trkpt><trkpt lat="37.301457" lon="14.38105"><ele>503.0</ele><time>2026-05-03T07:02:23Z</time></trkpt><trkpt lat="37.3016101" lon="14.3807706"><ele>504.5</ele><time>2026-05-03T07:02:24Z</time></trkpt><trkpt lat="37.3017626" lon="14.3804884"><ele>506.0</ele><time>2026-05-03T07:02:25Z</time></trkpt><trkpt lat="37.3019225" lon="14.3802069"><ele>506.0</ele><time>2026-05-03T07:02:26Z</time></trkpt><trkpt lat="37.3020848" lon="14.3799346"><ele>506.0</ele><time>2026-05-03T07:02:27Z</time></trkpt><trkpt lat="37.3022654" lon="14.3796736"><ele>505.0</ele><time>2026-05-03T07:02:28Z</time></trkpt><trkpt lat="37.3024496" lon="14.3794285"><ele>504.0</ele><time>2026-05-03T07:02:29Z</time></trkpt><trkpt lat="37.3026379" lon="14.3791928"><ele>504.0</ele><time>2026-05-03T07:02:30Z</time></trkpt><trkpt lat="37.302829" lon="14.3789682"><ele>504.0</ele><time>2026-05-03T07:02:31Z</time></trkpt><trkpt lat="37.3030242" lon="14.3787472"><ele>504.5</ele><time>2026-05-03T07:02:32Z</time></trkpt><trkpt lat="37.3032259" lon="14.3785264"><ele>505.0</ele><time>2026-05-03T07:02:33Z</time></trkpt><trkpt lat="37.3034236" lon="14.3783147"><ele>505.0</ele><time>2026-05-03T07:02:33.999Z</time></trkpt><trkpt lat="37.3036183" lon="14.3781015"><ele>505.0</ele><time>2026-05-03T07:02:35Z</time></trkpt><trkpt lat="37.3038211" lon="14.3778893"><ele>504.5</ele><time>2026-05-03T07:02:36Z</time></trkpt><trkpt lat="37.304022" lon="14.3776715"><ele>504.0</ele><time>2026-05-03T07:02:37Z</time></trkpt><trkpt lat="37.3042259" lon="14.3774513"><ele>504.0</ele><time>2026-05-03T07:02:38Z</time></trkpt><trkpt lat="37.3044347" lon="14.3772288"><ele>504.0</ele><time>2026-05-03T07:02:39Z</time></trkpt><trkpt lat="37.304641" lon="14.3770056"><ele>503.5</ele><time>2026-05-03T07:02:40Z</time></trkpt><trkpt lat="37.3048493" lon="14.3767802"><ele>503.0</ele><time>2026-05-03T07:02:41Z</time></trkpt><trkpt lat="37.3050554" lon="14.3765549"><ele>504.5</ele><time>2026-05-03T07:02:42Z</time></trkpt><trkpt lat="37.3052659" lon="14.376333"><ele>506.0</ele><time>2026-05-03T07:02:43Z</time></trkpt><trkpt lat="37.3054716" lon="14.3761109"><ele>504.5</ele><time>2026-05-03T07:02:43.999Z</time></trkpt><trkpt lat="37.3056796" lon="14.3758859"><ele>503.0</ele><time>2026-05-03T07:02:45Z</time></trkpt><trkpt lat="37.3058838" lon="14.3756672"><ele>505.5</ele><time>2026-05-03T07:02:46Z</time></trkpt><trkpt lat="37.3060882" lon="14.3754465"><ele>508.0</ele><time>2026-05-03T07:02:47Z</time></trkpt><trkpt lat="37.3062914" lon="14.3752203"><ele>507.0</ele><time>2026-05-03T07:02:48Z</time></trkpt><trkpt lat="37.3064924" lon="14.3749994"><ele>506.0</ele><time>2026-05-03T07:02:49Z</time></trkpt><trkpt lat="37.3066927" lon="14.3747805"><ele>505.5</ele><time>2026-05-03T07:02:50Z</time></trkpt><trkpt lat="37.3068931" lon="14.3745604"><ele>505.0</ele><time>2026-05-03T07:02:51Z</time></trkpt><trkpt lat="37.3070927" lon="14.3743421"><ele>506.0</ele><time>2026-05-03T07:02:52Z</time></trkpt><trkpt lat="37.3072904" lon="14.3741262"><ele>507.0</ele><time>2026-05-03T07:02:53Z</time></trkpt><trkpt lat="37.3074856" lon="14.3739189"><ele>507.0</ele><time>2026-05-03T07:02:54Z</time></trkpt><trkpt lat="37.3076801" lon="14.3737099"><ele>507.0</ele><time>2026-05-03T07:02:55Z</time></trkpt><trkpt lat="37.3078748" lon="14.3735002"><ele>507.0</ele><time>2026-05-03T07:02:56Z</time></trkpt><trkpt lat="37.3080699" lon="14.3732858"><ele>507.0</ele><time>2026-05-03T07:02:57Z</time></trkpt><trkpt lat="37.3082645" lon="14.3730769"><ele>508.0</ele><time>2026-05-03T07:02:58Z</time></trkpt><trkpt lat="37.3084592" lon="14.3728697"><ele>509.0</ele><time>2026-05-03T07:02:59Z</time></trkpt><trkpt lat="37.3086567" lon="14.3726618"><ele>509.0</ele><time>2026-05-03T07:03:00Z</time></trkpt><trkpt lat="37.3088611" lon="14.3724646"><ele>509.0</ele><time>2026-05-03T07:03:01Z</time></trkpt><trkpt lat="37.3090701" lon="14.37228"><ele>509.5</ele><time>2026-05-03T07:03:02Z</time></trkpt><trkpt lat="37.3092788" lon="14.3721032"><ele>510.0</ele><time>2026-05-03T07:03:03Z</time></trkpt><trkpt lat="37.3094876" lon="14.3719266"><ele>510.0</ele><time>2026-05-03T07:03:04Z</time></trkpt><trkpt lat="37.3096932" lon="14.3717485"><ele>510.0</ele><time>2026-05-03T07:03:05Z</time></trkpt><trkpt lat="37.3098947" lon="14.3715711"><ele>511.0</ele><time>2026-05-03T07:03:06Z</time></trkpt><trkpt lat="37.3100926" lon="14.3714006"><ele>512.0</ele><time>2026-05-03T07:03:07Z</time></trkpt><trkpt lat="37.3102901" lon="14.3712319"><ele>512.0</ele><time>2026-05-03T07:03:08Z</time></trkpt><trkpt lat="37.3104898" lon="14.3710668"><ele>512.0</ele><time>2026-05-03T07:03:09Z</time></trkpt><trkpt lat="37.3106849" lon="14.3709023"><ele>512.5</ele><time>2026-05-03T07:03:10Z</time></trkpt><trkpt lat="37.3108862" lon="14.3707346"><ele>513.0</ele><time>2026-05-03T07:03:11Z</time></trkpt><trkpt lat="37.3110863" lon="14.370577"><ele>512.5</ele><time>2026-05-03T07:03:12Z</time></trkpt><trkpt lat="37.3112906" lon="14.3704199"><ele>512.0</ele><time>2026-05-03T07:03:13Z</time></trkpt><trkpt lat="37.3114996" lon="14.3702729"><ele>516.0</ele><time>2026-05-03T07:03:14Z</time></trkpt><trkpt lat="37.3117165" lon="14.3701449"><ele>520.0</ele><time>2026-05-03T07:03:15Z</time></trkpt><trkpt lat="37.3119437" lon="14.3700368"><ele>520.0</ele><time>2026-05-03T07:03:16Z</time></trkpt><trkpt lat="37.3121806" lon="14.3699415"><ele>520.0</ele><time>2026-05-03T07:03:17Z</time></trkpt><trkpt lat="37.3124191" lon="14.3698453"><ele>522.5</ele><time>2026-05-03T07:03:18Z</time></trkpt><trkpt lat="37.3126643" lon="14.3697484"><ele>525.0</ele><time>2026-05-03T07:03:19Z</time></trkpt><trkpt lat="37.312918" lon="14.3696506"><ele>526.0</ele><time>2026-05-03T07:03:20Z</time></trkpt><trkpt lat="37.3131796" lon="14.3695428"><ele>527.0</ele><time>2026-05-03T07:03:21Z</time></trkpt><trkpt lat="37.3134575" lon="14.3694357"><ele>527.0</ele><time>2026-05-03T07:03:22Z</time></trkpt><trkpt lat="37.3137427" lon="14.3693161"><ele>527.0</ele><time>2026-05-03T07:03:23Z</time></trkpt><trkpt lat="37.3140431" lon="14.3691841"><ele>529.0</ele><time>2026-05-03T07:03:24Z</time></trkpt><trkpt lat="37.3143512" lon="14.3690628"><ele>531.0</ele><time>2026-05-03T07:03:25Z</time></trkpt><trkpt lat="37.3146695" lon="14.3689388"><ele>532.0</ele><time>2026-05-03T07:03:26Z</time></trkpt><trkpt lat="37.3149826" lon="14.3688242"><ele>533.0</ele><time>2026-05-03T07:03:27Z</time></trkpt><trkpt lat="37.3152943" lon="14.3687151"><ele>535.5</ele><time>2026-05-03T07:03:28Z</time></trkpt><trkpt lat="37.3155985" lon="14.3686045"><ele>538.0</ele><time>2026-05-03T07:03:29Z</time></trkpt><trkpt lat="37.3158908" lon="14.368499"><ele>538.0</ele><time>2026-05-03T07:03:30Z</time></trkpt><trkpt lat="37.3161868" lon="14.36839"><ele>538.0</ele><time>2026-05-03T07:03:31Z</time></trkpt><trkpt lat="37.3164786" lon="14.3682819"><ele>540.0</ele><time>2026-05-03T07:03:32Z</time></trkpt><trkpt lat="37.3167617" lon="14.3681749"><ele>542.0</ele><time>2026-05-03T07:03:32.999Z</time></trkpt><trkpt lat="37.3170443" lon="14.3680708"><ele>541.5</ele><time>2026-05-03T07:03:34Z</time></trkpt><trkpt lat="37.3173256" lon="14.3679797"><ele>541.0</ele><time>2026-05-03T07:03:35Z</time></trkpt><trkpt lat="37.3176057" lon="14.3679002"><ele>541.0</ele><time>2026-05-03T07:03:36Z</time></trkpt><trkpt lat="37.3178793" lon="14.3678338"><ele>541.0</ele><time>2026-05-03T07:03:37Z</time></trkpt><trkpt lat="37.3181563" lon="14.3677888"><ele>544.5</ele><time>2026-05-03T07:03:38Z</time></trkpt><trkpt lat="37.3184315" lon="14.3677646"><ele>548.0</ele><time>2026-05-03T07:03:39Z</time></trkpt><trkpt lat="37.3187058" lon="14.3677719"><ele>551.0</ele><time>2026-05-03T07:03:40Z</time></trkpt><trkpt lat="37.3189764" lon="14.3678061"><ele>554.0</ele><time>2026-05-03T07:03:41Z</time></trkpt><trkpt lat="37.3192455" lon="14.3678731"><ele>554.0</ele><time>2026-05-03T07:03:42Z</time></trkpt><trkpt lat="37.3195124" lon="14.3679627"><ele>554.0</ele><time>2026-05-03T07:03:43Z</time></trkpt><trkpt lat="37.3197773" lon="14.3680617"><ele>558.5</ele><time>2026-05-03T07:03:44Z</time></trkpt><trkpt lat="37.3200366" lon="14.3681749"><ele>563.0</ele><time>2026-05-03T07:03:45Z</time></trkpt><trkpt lat="37.3202919" lon="14.368292"><ele>563.0</ele><time>2026-05-03T07:03:46Z</time></trkpt><trkpt lat="37.3205414" lon="14.3684057"><ele>563.0</ele><time>2026-05-03T07:03:47Z</time></trkpt><trkpt lat="37.3207898" lon="14.3685197"><ele>563.0</ele><time>2026-05-03T07:03:48Z</time></trkpt><trkpt lat="37.3210409" lon="14.3686321"><ele>563.0</ele><time>2026-05-03T07:03:49Z</time></trkpt><trkpt lat="37.3212923" lon="14.3687519"><ele>567.0</ele><time>2026-05-03T07:03:49.999Z</time></trkpt><trkpt lat="37.3215473" lon="14.3688713"><ele>571.0</ele><time>2026-05-03T07:03:51Z</time></trkpt><trkpt lat="37.3218014" lon="14.3689951"><ele>571.0</ele><time>2026-05-03T07:03:52Z</time></trkpt><trkpt lat="37.3220583" lon="14.3691224"><ele>571.0</ele><time>2026-05-03T07:03:53Z</time></trkpt><trkpt lat="37.3223203" lon="14.3692486"><ele>572.0</ele><time>2026-05-03T07:03:54Z</time></trkpt><trkpt lat="37.3225798" lon="14.3693761"><ele>573.0</ele><time>2026-05-03T07:03:55Z</time></trkpt><trkpt lat="37.3228435" lon="14.3695056"><ele>575.0</ele><time>2026-05-03T07:03:56Z</time></trkpt><trkpt lat="37.3231077" lon="14.3696278"><ele>577.0</ele><time>2026-05-03T07:03:57Z</time></trkpt><trkpt lat="37.3233733" lon="14.3697586"><ele>580.5</ele><time>2026-05-03T07:03:58Z</time></trkpt><trkpt lat="37.3236371" lon="14.3698873"><ele>584.0</ele><time>2026-05-03T07:03:59Z</time></trkpt><trkpt lat="37.3238975" lon="14.3700103"><ele>586.0</ele><time>2026-05-03T07:04:00Z</time></trkpt><trkpt lat="37.3241564" lon="14.3701301"><ele>588.0</ele><time>2026-05-03T07:04:01Z</time></trkpt><trkpt lat="37.3244161" lon="14.3702509"><ele>588.0</ele><time>2026-05-03T07:04:02Z</time></trkpt><trkpt lat="37.324676" lon="14.3703634"><ele>588.0</ele><time>2026-05-03T07:04:03Z</time></trkpt><trkpt lat="37.3249372" lon="14.37047"><ele>593.5</ele><time>2026-05-03T07:04:04Z</time></trkpt><trkpt lat="37.3251981" lon="14.3705662"><ele>599.0</ele><time>2026-05-03T07:04:05Z</time></trkpt><trkpt lat="37.3254614" lon="14.3706523"><ele>601.5</ele><time>2026-05-03T07:04:06Z</time></trkpt><trkpt lat="37.3257292" lon="14.3707202"><ele>604.0</ele><time>2026-05-03T07:04:07Z</time></trkpt><trkpt lat="37.3260004" lon="14.3707702"><ele>604.0</ele><time>2026-05-03T07:04:08Z</time></trkpt><trkpt lat="37.3262747" lon="14.3707997"><ele>604.0</ele><time>2026-05-03T07:04:09Z</time></trkpt><trkpt lat="37.3265435" lon="14.3708066"><ele>604.5</ele><time>2026-05-03T07:04:10Z</time></trkpt><trkpt lat="37.3268107" lon="14.3707863"><ele>605.0</ele><time>2026-05-03T07:04:11Z</time></trkpt><trkpt lat="37.3270821" lon="14.3707421"><ele>602.0</ele><time>2026-05-03T07:04:12Z</time></trkpt><trkpt lat="37.3273494" lon="14.370659"><ele>599.0</ele><time>2026-05-03T07:04:13Z</time></trkpt><trkpt lat="37.3276107" lon="14.3705532"><ele>602.5</ele><time>2026-05-03T07:04:14Z</time></trkpt><trkpt lat="37.3278593" lon="14.3704342"><ele>606.0</ele><time>2026-05-03T07:04:15Z</time></trkpt><trkpt lat="37.3281062" lon="14.3702885"><ele>606.0</ele><time>2026-05-03T07:04:16Z</time></trkpt><trkpt lat="37.3283501" lon="14.3701418"><ele>606.0</ele><time>2026-05-03T07:04:17Z</time></trkpt><trkpt lat="37.3285847" lon="14.369977"><ele>606.0</ele><time>2026-05-03T07:04:18Z</time></trkpt><trkpt lat="37.3288098" lon="14.3698042"><ele>606.0</ele><time>2026-05-03T07:04:19Z</time></trkpt><trkpt lat="37.3290376" lon="14.369619"><ele>607.5</ele><time>2026-05-03T07:04:20Z</time></trkpt><trkpt lat="37.3292681" lon="14.3694386"><ele>609.0</ele><time>2026-05-03T07:04:21Z</time></trkpt><trkpt lat="37.3294965" lon="14.3692531"><ele>609.0</ele><time>2026-05-03T07:04:22Z</time></trkpt><trkpt lat="37.3297216" lon="14.369067"><ele>609.0</ele><time>2026-05-03T07:04:23Z</time></trkpt><trkpt lat="37.3299448" lon="14.368877"><ele>608.0</ele><time>2026-05-03T07:04:24Z</time></trkpt><trkpt lat="37.3301775" lon="14.3686832"><ele>607.0</ele><time>2026-05-03T07:04:25Z</time></trkpt><trkpt lat="37.33041" lon="14.3684931"><ele>608.5</ele><time>2026-05-03T07:04:26Z</time></trkpt><trkpt lat="37.3306375" lon="14.3683042"><ele>610.0</ele><time>2026-05-03T07:04:27Z</time></trkpt><trkpt lat="37.3308661" lon="14.3681205"><ele>608.0</ele><time>2026-05-03T07:04:27.999Z</time></trkpt><trkpt lat="37.3310952" lon="14.3679311"><ele>606.0</ele><time>2026-05-03T07:04:29Z</time></trkpt><trkpt lat="37.3313288" lon="14.3677432"><ele>609.0</ele><time>2026-05-03T07:04:30Z</time></trkpt><trkpt lat="37.3315595" lon="14.367565"><ele>612.0</ele><time>2026-05-03T07:04:31Z</time></trkpt><trkpt lat="37.3318022" lon="14.3673978"><ele>612.0</ele><time>2026-05-03T07:04:32Z</time></trkpt><trkpt lat="37.3320466" lon="14.3672379"><ele>612.0</ele><time>2026-05-03T07:04:33Z</time></trkpt><trkpt lat="37.3322947" lon="14.3670813"><ele>613.0</ele><time>2026-05-03T07:04:34Z</time></trkpt><trkpt lat="37.3325411" lon="14.3669282"><ele>614.0</ele><time>2026-05-03T07:04:35Z</time></trkpt><trkpt lat="37.3327842" lon="14.3667692"><ele>614.0</ele><time>2026-05-03T07:04:36Z</time></trkpt><trkpt lat="37.3330313" lon="14.3666148"><ele>614.0</ele><time>2026-05-03T07:04:37Z</time></trkpt><trkpt lat="37.3332745" lon="14.3664577"><ele>612.5</ele><time>2026-05-03T07:04:37.999Z</time></trkpt><trkpt lat="37.3335244" lon="14.3663024"><ele>611.0</ele><time>2026-05-03T07:04:39Z</time></trkpt><trkpt lat="37.3337654" lon="14.3661498"><ele>613.5</ele><time>2026-05-03T07:04:40Z</time></trkpt><trkpt lat="37.3340077" lon="14.3659976"><ele>616.0</ele><time>2026-05-03T07:04:41Z</time></trkpt><trkpt lat="37.3342453" lon="14.3658417"><ele>616.0</ele><time>2026-05-03T07:04:42Z</time></trkpt><trkpt lat="37.3344855" lon="14.3656845"><ele>616.0</ele><time>2026-05-03T07:04:42.999Z</time></trkpt><trkpt lat="37.3347288" lon="14.3655299"><ele>618.0</ele><time>2026-05-03T07:04:44Z</time></trkpt><trkpt lat="37.3349666" lon="14.3653816"><ele>620.0</ele><time>2026-05-03T07:04:45Z</time></trkpt><trkpt lat="37.3352063" lon="14.3652304"><ele>620.0</ele><time>2026-05-03T07:04:46Z</time></trkpt><trkpt lat="37.3354348" lon="14.3650709"><ele>620.0</ele><time>2026-05-03T07:04:47Z</time></trkpt><trkpt lat="37.3356602" lon="14.3649005"><ele>621.0</ele><time>2026-05-03T07:04:48Z</time></trkpt><trkpt lat="37.3358739" lon="14.3647192"><ele>622.0</ele><time>2026-05-03T07:04:49Z</time></trkpt><trkpt lat="37.3360739" lon="14.3645216"><ele>622.0</ele><time>2026-05-03T07:04:50Z</time></trkpt><trkpt lat="37.336258" lon="14.3643081"><ele>622.0</ele><time>2026-05-03T07:04:51Z</time></trkpt><trkpt lat="37.3364323" lon="14.3640805"><ele>620.5</ele><time>2026-05-03T07:04:52Z</time></trkpt><trkpt lat="37.3365995" lon="14.3638498"><ele>619.0</ele><time>2026-05-03T07:04:53Z</time></trkpt><trkpt lat="37.3367675" lon="14.3636111"><ele>619.0</ele><time>2026-05-03T07:04:54Z</time></trkpt><trkpt lat="37.3369287" lon="14.3633754"><ele>619.0</ele><time>2026-05-03T07:04:55Z</time></trkpt><trkpt lat="37.3370896" lon="14.3631393"><ele>618.5</ele><time>2026-05-03T07:04:56Z</time></trkpt><trkpt lat="37.3372587" lon="14.3629024"><ele>618.0</ele><time>2026-05-03T07:04:57Z</time></trkpt><trkpt lat="37.3374211" lon="14.3626637"><ele>618.0</ele><time>2026-05-03T07:04:58Z</time></trkpt><trkpt lat="37.3375833" lon="14.3624261"><ele>618.0</ele><time>2026-05-03T07:04:59Z</time></trkpt><trkpt lat="37.3377387" lon="14.3621895"><ele>619.5</ele><time>2026-05-03T07:05:00Z</time></trkpt><trkpt lat="37.3378924" lon="14.3619608"><ele>621.0</ele><time>2026-05-03T07:05:01Z</time></trkpt><trkpt lat="37.3380503" lon="14.3617333"><ele>619.5</ele><time>2026-05-03T07:05:02Z</time></trkpt><trkpt lat="37.3382023" lon="14.3615037"><ele>618.0</ele><time>2026-05-03T07:05:03Z</time></trkpt><trkpt lat="37.3383632" lon="14.3612704"><ele>618.0</ele><time>2026-05-03T07:05:04Z</time></trkpt><trkpt lat="37.3385204" lon="14.3610352"><ele>618.0</ele><time>2026-05-03T07:05:05Z</time></trkpt><trkpt lat="37.3386734" lon="14.3608091"><ele>618.0</ele><time>2026-05-03T07:05:06Z</time></trkpt><trkpt lat="37.3388248" lon="14.3605855"><ele>618.0</ele><time>2026-05-03T07:05:07Z</time></trkpt><trkpt lat="37.3389796" lon="14.3603657"><ele>616.0</ele><time>2026-05-03T07:05:08Z</time></trkpt><trkpt lat="37.3391357" lon="14.3601444"><ele>614.0</ele><time>2026-05-03T07:05:08.999Z</time></trkpt><trkpt lat="37.3392852" lon="14.359929"><ele>614.0</ele><time>2026-05-03T07:05:10Z</time></trkpt><trkpt lat="37.3394283" lon="14.3597149"><ele>614.0</ele><time>2026-05-03T07:05:11Z</time></trkpt><trkpt lat="37.3395698" lon="14.3595079"><ele>614.0</ele><time>2026-05-03T07:05:12Z</time></trkpt><trkpt lat="37.3397134" lon="14.3593032"><ele>613.3333333333333</ele><time>2026-05-03T07:05:13Z</time></trkpt><trkpt lat="37.3398571" lon="14.3590959"><ele>612.6666666666666</ele><time>2026-05-03T07:05:14Z</time></trkpt><trkpt lat="37.3400001" lon="14.3588849"><ele>612.0</ele><time>2026-05-03T07:05:14.999Z</time></trkpt><trkpt lat="37.3401437" lon="14.3586736"><ele>610.6666666666666</ele><time>2026-05-03T07:05:16Z</time></trkpt><trkpt lat="37.3402833" lon="14.3584621"><ele>609.3333333333333</ele><time>2026-05-03T07:05:17Z</time></trkpt><trkpt lat="37.3404218" lon="14.3582505"><ele>608.0</ele><time>2026-05-03T07:05:18Z</time></trkpt><trkpt lat="37.3405581" lon="14.3580381"><ele>607.3333333333333</ele><time>2026-05-03T07:05:19Z</time></trkpt><trkpt lat="37.3406865" lon="14.3578187"><ele>606.6666666666666</ele><time>2026-05-03T07:05:20Z</time></trkpt><trkpt lat="37.3408102" lon="14.3575936"><ele>606.0</ele><time>2026-05-03T07:05:21Z</time></trkpt><trkpt lat="37.3409252" lon="14.3573634"><ele>606.0</ele><time>2026-05-03T07:05:22Z</time></trkpt><trkpt lat="37.3410368" lon="14.3571355"><ele>606.0</ele><time>2026-05-03T07:05:23Z</time></trkpt><trkpt lat="37.3411361" lon="14.3569003"><ele>606.0</ele><time>2026-05-03T07:05:24Z</time></trkpt><trkpt lat="37.3412335" lon="14.3566567"><ele>606.0</ele><time>2026-05-03T07:05:25Z</time></trkpt><trkpt lat="37.3413287" lon="14.35641"><ele>606.0</ele><time>2026-05-03T07:05:26Z</time></trkpt><trkpt lat="37.341418" lon="14.3561611"><ele>606.0</ele><time>2026-05-03T07:05:27Z</time></trkpt><trkpt lat="37.341509" lon="14.3559198"><ele>606.0</ele><time>2026-05-03T07:05:28Z</time></trkpt><trkpt lat="37.3416037" lon="14.3556826"><ele>606.0</ele><time>2026-05-03T07:05:28.999Z</time></trkpt><trkpt lat="37.3417035" lon="14.3554473"><ele>606.0</ele><time>2026-05-03T07:05:30Z</time></trkpt><trkpt lat="37.3418101" lon="14.3552154"><ele>606.0</ele><time>2026-05-03T07:05:31Z</time></trkpt><trkpt lat="37.3419204" lon="14.3549923"><ele>606.0</ele><time>2026-05-03T07:05:32Z</time></trkpt><trkpt lat="37.3420326" lon="14.3547747"><ele>606.0</ele><time>2026-05-03T07:05:33Z</time></trkpt><trkpt lat="37.3421458" lon="14.3545653"><ele>604.0</ele><time>2026-05-03T07:05:34Z</time></trkpt><trkpt lat="37.3422714" lon="14.3543442"><ele>602.0</ele><time>2026-05-03T07:05:35Z</time></trkpt><trkpt lat="37.3424015" lon="14.354116"><ele>600.0</ele><time>2026-05-03T07:05:36Z</time></trkpt><trkpt lat="37.3425395" lon="14.3538654"><ele>600.0</ele><time>2026-05-03T07:05:37Z</time></trkpt><trkpt lat="37.3426918" lon="14.3535968"><ele>600.0</ele><time>2026-05-03T07:05:38Z</time></trkpt><trkpt lat="37.3428562" lon="14.3533109"><ele>601.5</ele><time>2026-05-03T07:05:39Z</time></trkpt><trkpt lat="37.3430286" lon="14.3530186"><ele>603.0</ele><time>2026-05-03T07:05:40Z</time></trkpt><trkpt lat="37.343197" lon="14.3527384"><ele>601.0</ele><time>2026-05-03T07:05:41Z</time></trkpt><trkpt lat="37.3433633" lon="14.3524637"><ele>599.0</ele><time>2026-05-03T07:05:42Z</time></trkpt><trkpt lat="37.343523" lon="14.3521987"><ele>599.0</ele><time>2026-05-03T07:05:43Z</time></trkpt><trkpt lat="37.3436828" lon="14.3519419"><ele>599.0</ele><time>2026-05-03T07:05:44Z</time></trkpt><trkpt lat="37.3438413" lon="14.3516972"><ele>596.0</ele><time>2026-05-03T07:05:45Z</time></trkpt><trkpt lat="37.3439954" lon="14.3514716"><ele>593.0</ele><time>2026-05-03T07:05:46Z</time></trkpt><trkpt lat="37.3441587" lon="14.3512647"><ele>593.0</ele><time>2026-05-03T07:05:47Z</time></trkpt><trkpt lat="37.3443285" lon="14.351078"><ele>593.0</ele><time>2026-05-03T07:05:48Z</time></trkpt><trkpt lat="37.3445078" lon="14.3509152"><ele>593.0</ele><time>2026-05-03T07:05:49Z</time></trkpt><trkpt lat="37.3446965" lon="14.3507746"><ele>591.3333333333333</ele><time>2026-05-03T07:05:50Z</time></trkpt><trkpt lat="37.3448953" lon="14.3506513"><ele>589.6666666666666</ele><time>2026-05-03T07:05:51Z</time></trkpt><trkpt lat="37.3450956" lon="14.3505539"><ele>588.0</ele><time>2026-05-03T07:05:52Z</time></trkpt><trkpt lat="37.3453004" lon="14.3504659"><ele>588.0</ele><time>2026-05-03T07:05:53Z</time></trkpt><trkpt lat="37.3455057" lon="14.3504066"><ele>588.0</ele><time>2026-05-03T07:05:54Z</time></trkpt><trkpt lat="37.3457157" lon="14.3503722"><ele>588.0</ele><time>2026-05-03T07:05:55Z</time></trkpt><trkpt lat="37.3459107" lon="14.350369"><ele>586.3333333333334</ele><time>2026-05-03T07:05:56Z</time></trkpt><trkpt lat="37.3461068" lon="14.350369"><ele>584.6666666666667</ele><time>2026-05-03T07:05:57Z</time></trkpt><trkpt lat="37.3463103" lon="14.3503928"><ele>583.0</ele><time>2026-05-03T07:05:58Z</time></trkpt><trkpt lat="37.346509" lon="14.3504354"><ele>581.6666666666667</ele><time>2026-05-03T07:05:59Z</time></trkpt><trkpt lat="37.3467125" lon="14.3505016"><ele>580.3333333333334</ele><time>2026-05-03T07:06:00Z</time></trkpt><trkpt lat="37.3469119" lon="14.3505885"><ele>579.0</ele><time>2026-05-03T07:06:01Z</time></trkpt><trkpt lat="37.3471077" lon="14.3506899"><ele>579.0</ele><time>2026-05-03T07:06:02Z</time></trkpt><trkpt lat="37.3473036" lon="14.3508086"><ele>579.0</ele><time>2026-05-03T07:06:03Z</time></trkpt><trkpt lat="37.3474883" lon="14.3509501"><ele>579.0</ele><time>2026-05-03T07:06:04Z</time></trkpt><trkpt lat="37.347675" lon="14.351105"><ele>579.0</ele><time>2026-05-03T07:06:05Z</time></trkpt><trkpt lat="37.3478631" lon="14.3512675"><ele>579.0</ele><time>2026-05-03T07:06:06Z</time></trkpt><trkpt lat="37.3480464" lon="14.3514365"><ele>580.0</ele><time>2026-05-03T07:06:07Z</time></trkpt><trkpt lat="37.3482327" lon="14.3516005"><ele>581.0</ele><time>2026-05-03T07:06:08Z</time></trkpt><trkpt lat="37.3484197" lon="14.3517618"><ele>581.0</ele><time>2026-05-03T07:06:09Z</time></trkpt><trkpt lat="37.348603" lon="14.3519287"><ele>581.0</ele><time>2026-05-03T07:06:10Z</time></trkpt><trkpt lat="37.3487871" lon="14.3520986"><ele>578.3333333333333</ele><time>2026-05-03T07:06:11Z</time></trkpt><trkpt lat="37.3489654" lon="14.3522585"><ele>575.6666666666666</ele><time>2026-05-03T07:06:12Z</time></trkpt><trkpt lat="37.349142" lon="14.3524161"><ele>573.0</ele><time>2026-05-03T07:06:13Z</time></trkpt><trkpt lat="37.3493203" lon="14.3525804"><ele>573.0</ele><time>2026-05-03T07:06:14Z</time></trkpt><trkpt lat="37.3494987" lon="14.3527381"><ele>573.0</ele><time>2026-05-03T07:06:15Z</time></trkpt><trkpt lat="37.3496771" lon="14.3528925"><ele>573.0</ele><time>2026-05-03T07:06:16Z</time></trkpt><trkpt lat="37.3498557" lon="14.3530494"><ele>569.3333333333334</ele><time>2026-05-03T07:06:17Z</time></trkpt><trkpt lat="37.3500353" lon="14.3532034"><ele>565.6666666666667</ele><time>2026-05-03T07:06:18Z</time></trkpt><trkpt lat="37.3502211" lon="14.3533467"><ele>562.0</ele><time>2026-05-03T07:06:19Z</time></trkpt><trkpt lat="37.3504106" lon="14.3534793"><ele>561.3333333333334</ele><time>2026-05-03T07:06:20Z</time></trkpt><trkpt lat="37.3506037" lon="14.353593"><ele>560.6666666666666</ele><time>2026-05-03T07:06:21Z</time></trkpt><trkpt lat="37.3508007" lon="14.353685"><ele>560.0</ele><time>2026-05-03T07:06:22Z</time></trkpt><trkpt lat="37.3510004" lon="14.3537605"><ele>560.0</ele><time>2026-05-03T07:06:23Z</time></trkpt><trkpt lat="37.3512056" lon="14.3538166"><ele>560.0</ele><time>2026-05-03T07:06:24Z</time></trkpt><trkpt lat="37.3514122" lon="14.353852"><ele>560.0</ele><time>2026-05-03T07:06:25Z</time></trkpt><trkpt lat="37.3516232" lon="14.3538673"><ele>562.6666666666666</ele><time>2026-05-03T07:06:26Z</time></trkpt><trkpt lat="37.3518315" lon="14.3538627"><ele>565.3333333333334</ele><time>2026-05-03T07:06:27Z</time></trkpt><trkpt lat="37.3520412" lon="14.3538369"><ele>568.0</ele><time>2026-05-03T07:06:28Z</time></trkpt><trkpt lat="37.3522421" lon="14.353798"><ele>571.6666666666667</ele><time>2026-05-03T07:06:29Z</time></trkpt><trkpt lat="37.352439" lon="14.3537477"><ele>575.3333333333334</ele><time>2026-05-03T07:06:30Z</time></trkpt><trkpt lat="37.3526376" lon="14.3536919"><ele>579.0</ele><time>2026-05-03T07:06:31Z</time></trkpt><trkpt lat="37.3528311" lon="14.3536382"><ele>579.0</ele><time>2026-05-03T07:06:32Z</time></trkpt><trkpt lat="37.3530338" lon="14.3535849"><ele>579.0</ele><time>2026-05-03T07:06:33Z</time></trkpt><trkpt lat="37.3532332" lon="14.3535302"><ele>579.0</ele><time>2026-05-03T07:06:34Z</time></trkpt><trkpt lat="37.3534333" lon="14.353486"><ele>584.3333333333334</ele><time>2026-05-03T07:06:35Z</time></trkpt><trkpt lat="37.3536406" lon="14.3534534"><ele>589.6666666666667</ele><time>2026-05-03T07:06:36Z</time></trkpt><trkpt lat="37.3538478" lon="14.353431"><ele>595.0</ele><time>2026-05-03T07:06:37Z</time></trkpt><trkpt lat="37.3540562" lon="14.3534385"><ele>599.0</ele><time>2026-05-03T07:06:38Z</time></trkpt><trkpt lat="37.3542631" lon="14.3534601"><ele>603.0</ele><time>2026-05-03T07:06:39Z</time></trkpt><trkpt lat="37.3544655" lon="14.3535054"><ele>607.0</ele><time>2026-05-03T07:06:40Z</time></trkpt><trkpt lat="37.3546674" lon="14.3535731"><ele>609.0</ele><time>2026-05-03T07:06:41Z</time></trkpt><trkpt lat="37.3548656" lon="14.353658"><ele>611.0</ele><time>2026-05-03T07:06:42Z</time></trkpt><trkpt lat="37.3550679" lon="14.3537573"><ele>613.0</ele><time>2026-05-03T07:06:43Z</time></trkpt><trkpt lat="37.3552715" lon="14.3538775"><ele>614.5</ele><time>2026-05-03T07:06:44Z</time></trkpt><trkpt lat="37.355469" lon="14.3540167"><ele>616.0</ele><time>2026-05-03T07:06:45Z</time></trkpt><trkpt lat="37.3556653" lon="14.3541702"><ele>613.0</ele><time>2026-05-03T07:06:46Z</time></trkpt><trkpt lat="37.3558609" lon="14.3543269"><ele>610.0</ele><time>2026-05-03T07:06:47Z</time></trkpt><trkpt lat="37.3560502" lon="14.3544798"><ele>610.0</ele><time>2026-05-03T07:06:48Z</time></trkpt><trkpt lat="37.3562454" lon="14.354634"><ele>610.0</ele><time>2026-05-03T07:06:49Z</time></trkpt><trkpt lat="37.3564334" lon="14.3547827"><ele>614.0</ele><time>2026-05-03T07:06:50Z</time></trkpt><trkpt lat="37.3566244" lon="14.354929"><ele>618.0</ele><time>2026-05-03T07:06:51Z</time></trkpt><trkpt lat="37.3568149" lon="14.3550739"><ele>622.0</ele><time>2026-05-03T07:06:52Z</time></trkpt><trkpt lat="37.3570042" lon="14.3552221"><ele>622.0</ele><time>2026-05-03T07:06:53Z</time></trkpt><trkpt lat="37.3571944" lon="14.355372"><ele>622.0</ele><time>2026-05-03T07:06:54Z</time></trkpt><trkpt lat="37.3573902" lon="14.3555175"><ele>630.0</ele><time>2026-05-03T07:06:55Z</time></trkpt><trkpt lat="37.3575943" lon="14.3556586"><ele>638.0</ele><time>2026-05-03T07:06:55.999Z</time></trkpt><trkpt lat="37.3577967" lon="14.3557718"><ele>638.0</ele><time>2026-05-03T07:06:57Z</time></trkpt><trkpt lat="37.3580064" lon="14.3558694"><ele>638.0</ele><time>2026-05-03T07:06:58Z</time></trkpt><trkpt lat="37.358217" lon="14.3559404"><ele>638.0</ele><time>2026-05-03T07:06:59Z</time></trkpt><trkpt lat="37.3584396" lon="14.3559899"><ele>640.0</ele><time>2026-05-03T07:07:00Z</time></trkpt><trkpt lat="37.358664" lon="14.3560196"><ele>642.0</ele><time>2026-05-03T07:07:01Z</time></trkpt><trkpt lat="37.3588806" lon="14.3560241"><ele>644.0</ele><time>2026-05-03T07:07:02Z</time></trkpt><trkpt lat="37.3590995" lon="14.3560082"><ele>645.3333333333333</ele><time>2026-05-03T07:07:03Z</time></trkpt><trkpt lat="37.3593227" lon="14.3559811"><ele>646.6666666666666</ele><time>2026-05-03T07:07:04Z</time></trkpt><trkpt lat="37.359545" lon="14.3559373"><ele>648.0</ele><time>2026-05-03T07:07:05Z</time></trkpt><trkpt lat="37.3597716" lon="14.3558832"><ele>649.0</ele><time>2026-05-03T07:07:06Z</time></trkpt><trkpt lat="37.3599938" lon="14.3558312"><ele>650.0</ele><time>2026-05-03T07:07:07Z</time></trkpt><trkpt lat="37.360216" lon="14.3557725"><ele>650.0</ele><time>2026-05-03T07:07:08Z</time></trkpt><trkpt lat="37.3604384" lon="14.3557108"><ele>650.0</ele><time>2026-05-03T07:07:09Z</time></trkpt><trkpt lat="37.3606585" lon="14.3556367"><ele>652.6666666666666</ele><time>2026-05-03T07:07:10Z</time></trkpt><trkpt lat="37.3608694" lon="14.3555532"><ele>655.3333333333334</ele><time>2026-05-03T07:07:11Z</time></trkpt><trkpt lat="37.3610656" lon="14.3554431"><ele>658.0</ele><time>2026-05-03T07:07:12Z</time></trkpt><trkpt lat="37.361258" lon="14.3553261"><ele>662.0</ele><time>2026-05-03T07:07:13Z</time></trkpt><trkpt lat="37.3614482" lon="14.3551983"><ele>666.0</ele><time>2026-05-03T07:07:14Z</time></trkpt><trkpt lat="37.3616343" lon="14.3550597"><ele>670.0</ele><time>2026-05-03T07:07:14.999Z</time></trkpt><trkpt lat="37.3618227" lon="14.35492"><ele>670.0</ele><time>2026-05-03T07:07:16Z</time></trkpt><trkpt lat="37.3620143" lon="14.3547759"><ele>670.0</ele><time>2026-05-03T07:07:17Z</time></trkpt><trkpt lat="37.3621898" lon="14.3546507"><ele>670.0</ele><time>2026-05-03T07:07:18Z</time></trkpt><trkpt lat="37.3623636" lon="14.3545287"><ele>669.3333333333334</ele><time>2026-05-03T07:07:19Z</time></trkpt><trkpt lat="37.3625455" lon="14.3544087"><ele>668.6666666666666</ele><time>2026-05-03T07:07:20Z</time></trkpt><trkpt lat="37.3627294" lon="14.3542938"><ele>668.0</ele><time>2026-05-03T07:07:21Z</time></trkpt><trkpt lat="37.3629116" lon="14.3541888"><ele>667.3333333333333</ele><time>2026-05-03T07:07:22Z</time></trkpt><trkpt lat="37.3630969" lon="14.3540941"><ele>666.6666666666666</ele><time>2026-05-03T07:07:23Z</time></trkpt><trkpt lat="37.3632876" lon="14.3540142"><ele>666.0</ele><time>2026-05-03T07:07:24Z</time></trkpt><trkpt lat="37.3634823" lon="14.353942"><ele>666.0</ele><time>2026-05-03T07:07:25Z</time></trkpt><trkpt lat="37.3636821" lon="14.3538782"><ele>666.0</ele><time>2026-05-03T07:07:26Z</time></trkpt><trkpt lat="37.3638819" lon="14.3538204"><ele>666.0</ele><time>2026-05-03T07:07:27Z</time></trkpt><trkpt lat="37.3640784" lon="14.3537677"><ele>668.3333333333334</ele><time>2026-05-03T07:07:28Z</time></trkpt><trkpt lat="37.364271" lon="14.3537224"><ele>670.6666666666667</ele><time>2026-05-03T07:07:29Z</time></trkpt><trkpt lat="37.3644553" lon="14.3536807"><ele>673.0</ele><time>2026-05-03T07:07:30Z</time></trkpt><trkpt lat="37.3646336" lon="14.3536404"><ele>672.3333333333334</ele><time>2026-05-03T07:07:31Z</time></trkpt><trkpt lat="37.3648068" lon="14.3536068"><ele>671.6666666666666</ele><time>2026-05-03T07:07:32Z</time></trkpt><trkpt lat="37.3649822" lon="14.3535721"><ele>671.0</ele><time>2026-05-03T07:07:33Z</time></trkpt><trkpt lat="37.365163" lon="14.3535365"><ele>671.0</ele><time>2026-05-03T07:07:34Z</time></trkpt><trkpt lat="37.3653474" lon="14.3535088"><ele>671.0</ele><time>2026-05-03T07:07:35Z</time></trkpt><trkpt lat="37.3655369" lon="14.3534888"><ele>671.0</ele><time>2026-05-03T07:07:36Z</time></trkpt><trkpt lat="37.365731" lon="14.3534761"><ele>670.0</ele><time>2026-05-03T07:07:37Z</time></trkpt><trkpt lat="37.3659243" lon="14.353477"><ele>669.0</ele><time>2026-05-03T07:07:38Z</time></trkpt><trkpt lat="37.3661091" lon="14.3534826"><ele>668.0</ele><time>2026-05-03T07:07:39Z</time></trkpt><trkpt lat="37.3662916" lon="14.353493"><ele>669.0</ele><time>2026-05-03T07:07:40Z</time></trkpt><trkpt lat="37.366473" lon="14.3535171"><ele>670.0</ele><time>2026-05-03T07:07:41Z</time></trkpt><trkpt lat="37.3666523" lon="14.3535605"><ele>671.0</ele><time>2026-05-03T07:07:42Z</time></trkpt><trkpt lat="37.3668267" lon="14.3536129"><ele>671.0</ele><time>2026-05-03T07:07:43Z</time></trkpt><trkpt lat="37.3669886" lon="14.3536738"><ele>671.0</ele><time>2026-05-03T07:07:44Z</time></trkpt><trkpt lat="37.3671505" lon="14.3537497"><ele>671.0</ele><time>2026-05-03T07:07:45Z</time></trkpt><trkpt lat="37.3673096" lon="14.353828"><ele>668.3333333333333</ele><time>2026-05-03T07:07:46Z</time></trkpt><trkpt lat="37.3674597" lon="14.3539154"><ele>665.6666666666666</ele><time>2026-05-03T07:07:47Z</time></trkpt><trkpt lat="37.3676214" lon="14.3540129"><ele>663.0</ele><time>2026-05-03T07:07:48Z</time></trkpt><trkpt lat="37.3677861" lon="14.354118"><ele>663.0</ele><time>2026-05-03T07:07:49Z</time></trkpt><trkpt lat="37.367947" lon="14.3542435"><ele>663.0</ele><time>2026-05-03T07:07:50Z</time></trkpt><trkpt lat="37.3681135" lon="14.3543769"><ele>663.0</ele><time>2026-05-03T07:07:51Z</time></trkpt><trkpt lat="37.3682662" lon="14.3545177"><ele>662.3333333333334</ele><time>2026-05-03T07:07:52Z</time></trkpt><trkpt lat="37.3684122" lon="14.3546723"><ele>661.6666666666667</ele><time>2026-05-03T07:07:53Z</time></trkpt><trkpt lat="37.3685559" lon="14.354834"><ele>661.0</ele><time>2026-05-03T07:07:54Z</time></trkpt><trkpt lat="37.3686861" lon="14.3550045"><ele>660.3333333333334</ele><time>2026-05-03T07:07:55Z</time></trkpt><trkpt lat="37.3688099" lon="14.3551873"><ele>659.6666666666666</ele><time>2026-05-03T07:07:56Z</time></trkpt><trkpt lat="37.3689398" lon="14.3553642"><ele>659.0</ele><time>2026-05-03T07:07:57Z</time></trkpt><trkpt lat="37.3690773" lon="14.3555429"><ele>658.3333333333333</ele><time>2026-05-03T07:07:58Z</time></trkpt><trkpt lat="37.3692107" lon="14.355713"><ele>657.6666666666666</ele><time>2026-05-03T07:07:59Z</time></trkpt><trkpt lat="37.3693461" lon="14.355874"><ele>657.0</ele><time>2026-05-03T07:08:00Z</time></trkpt><trkpt lat="37.3694905" lon="14.3560236"><ele>657.0</ele><time>2026-05-03T07:08:01Z</time></trkpt><trkpt lat="37.3696416" lon="14.3561516"><ele>657.0</ele><time>2026-05-03T07:08:02Z</time></trkpt><trkpt lat="37.3698023" lon="14.3562631"><ele>657.0</ele><time>2026-05-03T07:08:03Z</time></trkpt><trkpt lat="37.369965" lon="14.3563552"><ele>654.0</ele><time>2026-05-03T07:08:04Z</time></trkpt><trkpt lat="37.3701297" lon="14.3564364"><ele>651.0</ele><time>2026-05-03T07:08:05Z</time></trkpt><trkpt lat="37.3703014" lon="14.3564983"><ele>648.0</ele><time>2026-05-03T07:08:06Z</time></trkpt><trkpt lat="37.3704756" lon="14.3565648"><ele>649.3333333333334</ele><time>2026-05-03T07:08:07Z</time></trkpt><trkpt lat="37.3706499" lon="14.3566219"><ele>650.6666666666667</ele><time>2026-05-03T07:08:08Z</time></trkpt><trkpt lat="37.3708191" lon="14.3566802"><ele>652.0</ele><time>2026-05-03T07:08:09Z</time></trkpt><trkpt lat="37.3709891" lon="14.3567434"><ele>652.0</ele><time>2026-05-03T07:08:10Z</time></trkpt><trkpt lat="37.371172" lon="14.3567966"><ele>652.0</ele><time>2026-05-03T07:08:11Z</time></trkpt><trkpt lat="37.3713707" lon="14.3568494"><ele>652.0</ele><time>2026-05-03T07:08:12Z</time></trkpt><trkpt lat="37.3716007" lon="14.3569028"><ele>654.0</ele><time>2026-05-03T07:08:13Z</time></trkpt><trkpt lat="37.3718559" lon="14.3569383"><ele>656.0</ele><time>2026-05-03T07:08:14Z</time></trkpt><trkpt lat="37.3721237" lon="14.3569458"><ele>656.0</ele><time>2026-05-03T07:08:15Z</time></trkpt><trkpt lat="37.3723967" lon="14.3569485"><ele>656.0</ele><time>2026-05-03T07:08:16Z</time></trkpt><trkpt lat="37.3726751" lon="14.3569077"><ele>656.0</ele><time>2026-05-03T07:08:17Z</time></trkpt><trkpt lat="37.3729489" lon="14.3568343"><ele>656.0</ele><time>2026-05-03T07:08:18Z</time></trkpt><trkpt lat="37.3732149" lon="14.3567406"><ele>657.0</ele><time>2026-05-03T07:08:19Z</time></trkpt><trkpt lat="37.373481" lon="14.3566323"><ele>658.0</ele><time>2026-05-03T07:08:20Z</time></trkpt><trkpt lat="37.3737352" lon="14.3564874"><ele>661.0</ele><time>2026-05-03T07:08:21Z</time></trkpt><trkpt lat="37.3739862" lon="14.3563449"><ele>664.0</ele><time>2026-05-03T07:08:22Z</time></trkpt><trkpt lat="37.3742354" lon="14.3562041"><ele>664.0</ele><time>2026-05-03T07:08:23Z</time></trkpt><trkpt lat="37.374479" lon="14.3560595"><ele>664.0</ele><time>2026-05-03T07:08:24Z</time></trkpt><trkpt lat="37.3747273" lon="14.3559147"><ele>663.5</ele><time>2026-05-03T07:08:25Z</time></trkpt><trkpt lat="37.3749767" lon="14.3557739"><ele>663.0</ele><time>2026-05-03T07:08:26Z</time></trkpt><trkpt lat="37.3752267" lon="14.3556272"><ele>662.0</ele><time>2026-05-03T07:08:27Z</time></trkpt><trkpt lat="37.3754753" lon="14.3554857"><ele>661.0</ele><time>2026-05-03T07:08:28Z</time></trkpt><trkpt lat="37.3757214" lon="14.3553387"><ele>661.0</ele><time>2026-05-03T07:08:29Z</time></trkpt><trkpt lat="37.3759641" lon="14.3552091"><ele>661.0</ele><time>2026-05-03T07:08:30Z</time></trkpt><trkpt lat="37.3762167" lon="14.3551092"><ele>658.0</ele><time>2026-05-03T07:08:31Z</time></trkpt><trkpt lat="37.3764699" lon="14.3550243"><ele>655.0</ele><time>2026-05-03T07:08:32Z</time></trkpt><trkpt lat="37.3767293" lon="14.3549755"><ele>655.0</ele><time>2026-05-03T07:08:33Z</time></trkpt><trkpt lat="37.3769913" lon="14.3549528"><ele>655.0</ele><time>2026-05-03T07:08:34Z</time></trkpt><trkpt lat="37.3772649" lon="14.3549632"><ele>651.0</ele><time>2026-05-03T07:08:35Z</time></trkpt><trkpt lat="37.3775413" lon="14.3550097"><ele>647.0</ele><time>2026-05-03T07:08:36Z</time></trkpt><trkpt lat="37.3778165" lon="14.3550577"><ele>638.5</ele><time>2026-05-03T07:08:37Z</time></trkpt><trkpt lat="37.3780937" lon="14.3551177"><ele>630.0</ele><time>2026-05-03T07:08:38Z</time></trkpt><trkpt lat="37.3783772" lon="14.3551894"><ele>630.0</ele><time>2026-05-03T07:08:38.999Z</time></trkpt><trkpt lat="37.3786573" lon="14.3552504"><ele>630.0</ele><time>2026-05-03T07:08:40Z</time></trkpt><trkpt lat="37.3789454" lon="14.3553251"><ele>618.5</ele><time>2026-05-03T07:08:41Z</time></trkpt><trkpt lat="37.3792335" lon="14.355399"><ele>607.0</ele><time>2026-05-03T07:08:42Z</time></trkpt><trkpt lat="37.3795272" lon="14.3554645"><ele>607.5</ele><time>2026-05-03T07:08:43Z</time></trkpt><trkpt lat="37.3798139" lon="14.3555394"><ele>608.0</ele><time>2026-05-03T07:08:44Z</time></trkpt><trkpt lat="37.3801089" lon="14.3556165"><ele>608.0</ele><time>2026-05-03T07:08:45Z</time></trkpt><trkpt lat="37.380402" lon="14.3556882"><ele>608.0</ele><time>2026-05-03T07:08:46Z</time></trkpt><trkpt lat="37.3806971" lon="14.3557604"><ele>608.0</ele><time>2026-05-03T07:08:47Z</time></trkpt><trkpt lat="37.3809823" lon="14.3558383"><ele>608.0</ele><time>2026-05-03T07:08:48Z</time></trkpt><trkpt lat="37.3812739" lon="14.35591"><ele>613.5</ele><time>2026-05-03T07:08:49Z</time></trkpt><trkpt lat="37.3815632" lon="14.3559845"><ele>619.0</ele><time>2026-05-03T07:08:50Z</time></trkpt><trkpt lat="37.3818538" lon="14.3560597"><ele>619.0</ele><time>2026-05-03T07:08:51Z</time></trkpt><trkpt lat="37.3821464" lon="14.3561289"><ele>619.0</ele><time>2026-05-03T07:08:52Z</time></trkpt><trkpt lat="37.3824313" lon="14.3561941"><ele>622.5</ele><time>2026-05-03T07:08:53Z</time></trkpt><trkpt lat="37.3827167" lon="14.3562624"><ele>626.0</ele><time>2026-05-03T07:08:54Z</time></trkpt><trkpt lat="37.3830034" lon="14.3563246"><ele>626.0</ele><time>2026-05-03T07:08:55Z</time></trkpt><trkpt lat="37.3832865" lon="14.3563842"><ele>626.0</ele><time>2026-05-03T07:08:56Z</time></trkpt><trkpt lat="37.3835707" lon="14.3564373"><ele>628.0</ele><time>2026-05-03T07:08:57Z</time></trkpt><trkpt lat="37.3838529" lon="14.3564825"><ele>630.0</ele><time>2026-05-03T07:08:58Z</time></trkpt><trkpt lat="37.3841375" lon="14.3565178"><ele>630.0</ele><time>2026-05-03T07:08:59Z</time></trkpt><trkpt lat="37.3844266" lon="14.3565489"><ele>630.0</ele><time>2026-05-03T07:09:00Z</time></trkpt><trkpt lat="37.3847065" lon="14.3565787"><ele>631.0</ele><time>2026-05-03T07:09:01Z</time></trkpt><trkpt lat="37.3849927" lon="14.3566091"><ele>632.0</ele><time>2026-05-03T07:09:02Z</time></trkpt><trkpt lat="37.3852754" lon="14.3566331"><ele>631.0</ele><time>2026-05-03T07:09:03Z</time></trkpt><trkpt lat="37.3855569" lon="14.3566548"><ele>630.0</ele><time>2026-05-03T07:09:04Z</time></trkpt><trkpt lat="37.3858459" lon="14.3566739"><ele>630.0</ele><time>2026-05-03T07:09:05Z</time></trkpt><trkpt lat="37.3861247" lon="14.3566982"><ele>630.0</ele><time>2026-05-03T07:09:06Z</time></trkpt><trkpt lat="37.3864133" lon="14.3567179"><ele>630.0</ele><time>2026-05-03T07:09:07Z</time></trkpt><trkpt lat="37.3866909" lon="14.3567516"><ele>630.0</ele><time>2026-05-03T07:09:08Z</time></trkpt><trkpt lat="37.3869715" lon="14.3567821"><ele>632.0</ele><time>2026-05-03T07:09:09Z</time></trkpt><trkpt lat="37.387252" lon="14.3568107"><ele>634.0</ele><time>2026-05-03T07:09:10Z</time></trkpt><trkpt lat="37.3875315" lon="14.3568441"><ele>634.0</ele><time>2026-05-03T07:09:11Z</time></trkpt><trkpt lat="37.3878097" lon="14.3568769"><ele>634.0</ele><time>2026-05-03T07:09:12Z</time></trkpt><trkpt lat="37.3880871" lon="14.3569184"><ele>636.0</ele><time>2026-05-03T07:09:13Z</time></trkpt><trkpt lat="37.3883649" lon="14.3569759"><ele>638.0</ele><time>2026-05-03T07:09:14Z</time></trkpt><trkpt lat="37.3886404" lon="14.3570439"><ele>640.0</ele><time>2026-05-03T07:09:15Z</time></trkpt><trkpt lat="37.3889108" lon="14.3571286"><ele>642.0</ele><time>2026-05-03T07:09:16Z</time></trkpt><trkpt lat="37.3891771" lon="14.3572241"><ele>638.0</ele><time>2026-05-03T07:09:17Z</time></trkpt><trkpt lat="37.3894446" lon="14.3573252"><ele>634.0</ele><time>2026-05-03T07:09:18Z</time></trkpt><trkpt lat="37.3897102" lon="14.3574419"><ele>634.0</ele><time>2026-05-03T07:09:19Z</time></trkpt><trkpt lat="37.3899749" lon="14.3575615"><ele>634.0</ele><time>2026-05-03T07:09:20Z</time></trkpt><trkpt lat="37.3902438" lon="14.3576824"><ele>635.5</ele><time>2026-05-03T07:09:21Z</time></trkpt><trkpt lat="37.3905135" lon="14.3578059"><ele>637.0</ele><time>2026-05-03T07:09:22Z</time></trkpt><trkpt lat="37.3907786" lon="14.3579266"><ele>634.0</ele><time>2026-05-03T07:09:23Z</time></trkpt><trkpt lat="37.3910474" lon="14.358051"><ele>631.0</ele><time>2026-05-03T07:09:24Z</time></trkpt><trkpt lat="37.3913154" lon="14.3581703"><ele>635.0</ele><time>2026-05-03T07:09:25Z</time></trkpt><trkpt lat="37.3915841" lon="14.3583025"><ele>639.0</ele><time>2026-05-03T07:09:26Z</time></trkpt><trkpt lat="37.3918595" lon="14.3584258"><ele>639.0</ele><time>2026-05-03T07:09:27Z</time></trkpt><trkpt lat="37.3921328" lon="14.3585546"><ele>639.0</ele><time>2026-05-03T07:09:28Z</time></trkpt><trkpt lat="37.3924066" lon="14.35868"><ele>637.5</ele><time>2026-05-03T07:09:29Z</time></trkpt><trkpt lat="37.3926827" lon="14.3588066"><ele>636.0</ele><time>2026-05-03T07:09:30Z</time></trkpt><trkpt lat="37.3929606" lon="14.3589314"><ele>639.0</ele><time>2026-05-03T07:09:31Z</time></trkpt><trkpt lat="37.3932323" lon="14.359056"><ele>642.0</ele><time>2026-05-03T07:09:32Z</time></trkpt><trkpt lat="37.3935058" lon="14.3591858"><ele>642.0</ele><time>2026-05-03T07:09:33Z</time></trkpt><trkpt lat="37.3937799" lon="14.3593167"><ele>642.0</ele><time>2026-05-03T07:09:34Z</time></trkpt><trkpt lat="37.3940569" lon="14.359449"><ele>642.0</ele><time>2026-05-03T07:09:35Z</time></trkpt><trkpt lat="37.3943279" lon="14.3595825"><ele>642.0</ele><time>2026-05-03T07:09:36Z</time></trkpt><trkpt lat="37.3945979" lon="14.3597234"><ele>642.0</ele><time>2026-05-03T07:09:37Z</time></trkpt><trkpt lat="37.3948623" lon="14.359869"><ele>642.0</ele><time>2026-05-03T07:09:38Z</time></trkpt><trkpt lat="37.3951239" lon="14.3600216"><ele>642.0</ele><time>2026-05-03T07:09:39Z</time></trkpt><trkpt lat="37.3953814" lon="14.3601923"><ele>642.0</ele><time>2026-05-03T07:09:40Z</time></trkpt><trkpt lat="37.3956377" lon="14.3603619"><ele>643.5</ele><time>2026-05-03T07:09:41Z</time></trkpt><trkpt lat="37.3958906" lon="14.3605371"><ele>645.0</ele><time>2026-05-03T07:09:42Z</time></trkpt><trkpt lat="37.396145" lon="14.3607117"><ele>647.0</ele><time>2026-05-03T07:09:43Z</time></trkpt><trkpt lat="37.3963974" lon="14.3608956"><ele>649.0</ele><time>2026-05-03T07:09:44Z</time></trkpt><trkpt lat="37.3966511" lon="14.3610728"><ele>649.0</ele><time>2026-05-03T07:09:45Z</time></trkpt><trkpt lat="37.3969051" lon="14.3612501"><ele>649.0</ele><time>2026-05-03T07:09:46Z</time></trkpt><trkpt lat="37.3971558" lon="14.3614298"><ele>651.5</ele><time>2026-05-03T07:09:47Z</time></trkpt><trkpt lat="37.3974074" lon="14.3616001"><ele>654.0</ele><time>2026-05-03T07:09:48Z</time></trkpt><trkpt lat="37.3976648" lon="14.3617798"><ele>654.0</ele><time>2026-05-03T07:09:49Z</time></trkpt><trkpt lat="37.397906" lon="14.3619572"><ele>654.0</ele><time>2026-05-03T07:09:50Z</time></trkpt><trkpt lat="37.3981456" lon="14.3621398"><ele>657.0</ele><time>2026-05-03T07:09:51Z</time></trkpt><trkpt lat="37.3983775" lon="14.3623378"><ele>660.0</ele><time>2026-05-03T07:09:52Z</time></trkpt><trkpt lat="37.3986043" lon="14.3625405"><ele>660.0</ele><time>2026-05-03T07:09:53Z</time></trkpt><trkpt lat="37.3988253" lon="14.3627603"><ele>660.0</ele><time>2026-05-03T07:09:54Z</time></trkpt><trkpt lat="37.3990299" lon="14.3629908"><ele>663.0</ele><time>2026-05-03T07:09:55Z</time></trkpt><trkpt lat="37.3992306" lon="14.3632416"><ele>666.0</ele><time>2026-05-03T07:09:56Z</time></trkpt><trkpt lat="37.3994316" lon="14.3635015"><ele>666.0</ele><time>2026-05-03T07:09:57Z</time></trkpt><trkpt lat="37.399633" lon="14.3637619"><ele>666.0</ele><time>2026-05-03T07:09:58Z</time></trkpt><trkpt lat="37.3998368" lon="14.364024"><ele>668.5</ele><time>2026-05-03T07:09:59Z</time></trkpt><trkpt lat="37.4000378" lon="14.3642777"><ele>671.0</ele><time>2026-05-03T07:10:00Z</time></trkpt><trkpt lat="37.4002354" lon="14.3645433"><ele>675.0</ele><time>2026-05-03T07:10:01Z</time></trkpt><trkpt lat="37.4004315" lon="14.3648047"><ele>679.0</ele><time>2026-05-03T07:10:02Z</time></trkpt><trkpt lat="37.4006221" lon="14.3650728"><ele>679.5</ele><time>2026-05-03T07:10:03Z</time></trkpt><trkpt lat="37.4008025" lon="14.3653403"><ele>680.0</ele><time>2026-05-03T07:10:04Z</time></trkpt><trkpt lat="37.4009774" lon="14.3656169"><ele>682.5</ele><time>2026-05-03T07:10:05Z</time></trkpt><trkpt lat="37.4011447" lon="14.3659025"><ele>685.0</ele><time>2026-05-03T07:10:06Z</time></trkpt><trkpt lat="37.4013042" lon="14.3662077"><ele>686.5</ele><time>2026-05-03T07:10:07Z</time></trkpt><trkpt lat="37.4014549" lon="14.3665073"><ele>688.0</ele><time>2026-05-03T07:10:08Z</time></trkpt><trkpt lat="37.4015818" lon="14.3668262"><ele>688.0</ele><time>2026-05-03T07:10:09Z</time></trkpt><trkpt lat="37.401689" lon="14.3671549"><ele>688.0</ele><time>2026-05-03T07:10:10Z</time></trkpt><trkpt lat="37.4017738" lon="14.3674916"><ele>687.0</ele><time>2026-05-03T07:10:11Z</time></trkpt><trkpt lat="37.4018439" lon="14.3678416"><ele>686.0</ele><time>2026-05-03T07:10:12Z</time></trkpt><trkpt lat="37.4018896" lon="14.3681893"><ele>686.0</ele><time>2026-05-03T07:10:13Z</time></trkpt><trkpt lat="37.4019223" lon="14.3685445"><ele>686.0</ele><time>2026-05-03T07:10:14Z</time></trkpt><trkpt lat="37.4019402" lon="14.3688946"><ele>684.5</ele><time>2026-05-03T07:10:15Z</time></trkpt><trkpt lat="37.4019558" lon="14.369248"><ele>683.0</ele><time>2026-05-03T07:10:16Z</time></trkpt><trkpt lat="37.4019618" lon="14.3696029"><ele>683.0</ele><time>2026-05-03T07:10:17Z</time></trkpt><trkpt lat="37.4019646" lon="14.3699611"><ele>683.0</ele><time>2026-05-03T07:10:18Z</time></trkpt><trkpt lat="37.4019661" lon="14.3703165"><ele>682.5</ele><time>2026-05-03T07:10:19Z</time></trkpt><trkpt lat="37.4019677" lon="14.370673"><ele>682.0</ele><time>2026-05-03T07:10:20Z</time></trkpt><trkpt lat="37.4019691" lon="14.3710249"><ele>684.0</ele><time>2026-05-03T07:10:21Z</time></trkpt><trkpt lat="37.4019621" lon="14.3713822"><ele>686.0</ele><time>2026-05-03T07:10:22Z</time></trkpt><trkpt lat="37.4019583" lon="14.3717388"><ele>686.0</ele><time>2026-05-03T07:10:23Z</time></trkpt><trkpt lat="37.4019556" lon="14.3721042"><ele>686.0</ele><time>2026-05-03T07:10:24Z</time></trkpt><trkpt lat="37.4019576" lon="14.3724583"><ele>686.5</ele><time>2026-05-03T07:10:24.999Z</time></trkpt><trkpt lat="37.401952" lon="14.3728183"><ele>687.0</ele><time>2026-05-03T07:10:26Z</time></trkpt><trkpt lat="37.4019489" lon="14.3731794"><ele>687.0</ele><time>2026-05-03T07:10:26.999Z</time></trkpt><trkpt lat="37.4019419" lon="14.3735344"><ele>687.0</ele><time>2026-05-03T07:10:28Z</time></trkpt><trkpt lat="37.4019385" lon="14.3738907"><ele>687.0</ele><time>2026-05-03T07:10:29Z</time></trkpt><trkpt lat="37.4019305" lon="14.3742493"><ele>687.0</ele><time>2026-05-03T07:10:30Z</time></trkpt><trkpt lat="37.401923" lon="14.3745946"><ele>686.5</ele><time>2026-05-03T07:10:31Z</time></trkpt><trkpt lat="37.4019146" lon="14.3749593"><ele>686.0</ele><time>2026-05-03T07:10:32Z</time></trkpt><trkpt lat="37.4019074" lon="14.3753225"><ele>686.0</ele><time>2026-05-03T07:10:33Z</time></trkpt><trkpt lat="37.401902" lon="14.3756816"><ele>686.0</ele><time>2026-05-03T07:10:34Z</time></trkpt><trkpt lat="37.4018947" lon="14.3760378"><ele>687.5</ele><time>2026-05-03T07:10:35Z</time></trkpt><trkpt lat="37.4018863" lon="14.3763839"><ele>689.0</ele><time>2026-05-03T07:10:36Z</time></trkpt><trkpt lat="37.40188" lon="14.3767404"><ele>689.0</ele><time>2026-05-03T07:10:37Z</time></trkpt><trkpt lat="37.4018747" lon="14.3770971"><ele>689.0</ele><time>2026-05-03T07:10:38Z</time></trkpt><trkpt lat="37.4018729" lon="14.3774565"><ele>690.5</ele><time>2026-05-03T07:10:39Z</time></trkpt><trkpt lat="37.4018762" lon="14.3778136"><ele>692.0</ele><time>2026-05-03T07:10:39.999Z</time></trkpt><trkpt lat="37.401878" lon="14.3781719"><ele>693.0</ele><time>2026-05-03T07:10:41Z</time></trkpt><trkpt lat="37.4018706" lon="14.3785312"><ele>694.0</ele><time>2026-05-03T07:10:42Z</time></trkpt><trkpt lat="37.4018634" lon="14.3788877"><ele>695.5</ele><time>2026-05-03T07:10:43Z</time></trkpt><trkpt lat="37.4018648" lon="14.3792408"><ele>697.0</ele><time>2026-05-03T07:10:44Z</time></trkpt><trkpt lat="37.4018645" lon="14.3795964"><ele>700.5</ele><time>2026-05-03T07:10:45Z</time></trkpt><trkpt lat="37.4018736" lon="14.3799558"><ele>704.0</ele><time>2026-05-03T07:10:46Z</time></trkpt><trkpt lat="37.4018909" lon="14.3803049"><ele>706.5</ele><time>2026-05-03T07:10:47Z</time></trkpt><trkpt lat="37.4019188" lon="14.3806382"><ele>709.0</ele><time>2026-05-03T07:10:48Z</time></trkpt><trkpt lat="37.4019828" lon="14.3809658"><ele>709.0</ele><time>2026-05-03T07:10:49Z</time></trkpt><trkpt lat="37.4020748" lon="14.3812747"><ele>709.0</ele><time>2026-05-03T07:10:50Z</time></trkpt><trkpt lat="37.4021928" lon="14.3815707"><ele>707.0</ele><time>2026-05-03T07:10:51Z</time></trkpt><trkpt lat="37.4023349" lon="14.381872"><ele>705.0</ele><time>2026-05-03T07:10:52Z</time></trkpt><trkpt lat="37.4025055" lon="14.3821686"><ele>705.5</ele><time>2026-05-03T07:10:53Z</time></trkpt><trkpt lat="37.4026809" lon="14.3824655"><ele>706.0</ele><time>2026-05-03T07:10:54Z</time></trkpt><trkpt lat="37.4028563" lon="14.3827539"><ele>706.0</ele><time>2026-05-03T07:10:55Z</time></trkpt><trkpt lat="37.4030392" lon="14.3830481"><ele>706.0</ele><time>2026-05-03T07:10:56Z</time></trkpt><trkpt lat="37.4032415" lon="14.3833069"><ele>706.0</ele><time>2026-05-03T07:10:57Z</time></trkpt><trkpt lat="37.4034478" lon="14.3835544"><ele>706.0</ele><time>2026-05-03T07:10:58Z</time></trkpt><trkpt lat="37.4036721" lon="14.3837698"><ele>706.5</ele><time>2026-05-03T07:10:59Z</time></trkpt><trkpt lat="37.4039118" lon="14.3839549"><ele>707.0</ele><time>2026-05-03T07:11:00Z</time></trkpt><trkpt lat="37.4041722" lon="14.3841021"><ele>707.0</ele><time>2026-05-03T07:11:01Z</time></trkpt><trkpt lat="37.4044374" lon="14.3842135"><ele>707.0</ele><time>2026-05-03T07:11:02Z</time></trkpt><trkpt lat="37.4047043" lon="14.3842923"><ele>706.5</ele><time>2026-05-03T07:11:03Z</time></trkpt><trkpt lat="37.4049754" lon="14.3843493"><ele>706.0</ele><time>2026-05-03T07:11:04Z</time></trkpt><trkpt lat="37.4052504" lon="14.3843802"><ele>705.0</ele><time>2026-05-03T07:11:05Z</time></trkpt><trkpt lat="37.4055231" lon="14.3843886"><ele>704.0</ele><time>2026-05-03T07:11:06Z</time></trkpt><trkpt lat="37.4057983" lon="14.3843756"><ele>704.0</ele><time>2026-05-03T07:11:07Z</time></trkpt><trkpt lat="37.4060797" lon="14.3843452"><ele>704.0</ele><time>2026-05-03T07:11:08Z</time></trkpt><trkpt lat="37.4063653" lon="14.3843085"><ele>702.5</ele><time>2026-05-03T07:11:09Z</time></trkpt><trkpt lat="37.4066453" lon="14.3842622"><ele>701.0</ele><time>2026-05-03T07:11:10Z</time></trkpt><trkpt lat="37.4069258" lon="14.3842149"><ele>700.5</ele><time>2026-05-03T07:11:11Z</time></trkpt><trkpt lat="37.4072125" lon="14.3841578"><ele>700.0</ele><time>2026-05-03T07:11:11.999Z</time></trkpt><trkpt lat="37.4075005" lon="14.3840991"><ele>700.0</ele><time>2026-05-03T07:11:13Z</time></trkpt><trkpt lat="37.4077836" lon="14.3840459"><ele>700.0</ele><time>2026-05-03T07:11:14Z</time></trkpt><trkpt lat="37.4080637" lon="14.3839943"><ele>700.0</ele><time>2026-05-03T07:11:15Z</time></trkpt><trkpt lat="37.4083444" lon="14.3839407"><ele>700.0</ele><time>2026-05-03T07:11:15.999Z</time></trkpt><trkpt lat="37.4086256" lon="14.383891"><ele>699.0</ele><time>2026-05-03T07:11:17Z</time></trkpt><trkpt lat="37.4088991" lon="14.3838527"><ele>698.0</ele><time>2026-05-03T07:11:17.999Z</time></trkpt><trkpt lat="37.4091722" lon="14.3838172"><ele>698.0</ele><time>2026-05-03T07:11:19Z</time></trkpt><trkpt lat="37.4094493" lon="14.3837818"><ele>698.0</ele><time>2026-05-03T07:11:20Z</time></trkpt><trkpt lat="37.4097235" lon="14.3837465"><ele>698.0</ele><time>2026-05-03T07:11:21Z</time></trkpt><trkpt lat="37.4099905" lon="14.3837127"><ele>698.0</ele><time>2026-05-03T07:11:21.999Z</time></trkpt><trkpt lat="37.4102557" lon="14.383685"><ele>699.5</ele><time>2026-05-03T07:11:23Z</time></trkpt><trkpt lat="37.4105181" lon="14.3836544"><ele>701.0</ele><time>2026-05-03T07:11:24Z</time></trkpt><trkpt lat="37.4107821" lon="14.3836113"><ele>701.0</ele><time>2026-05-03T07:11:25Z</time></trkpt><trkpt lat="37.4110412" lon="14.3835624"><ele>701.0</ele><time>2026-05-03T07:11:26Z</time></trkpt><trkpt lat="37.4112976" lon="14.3835004"><ele>701.0</ele><time>2026-05-03T07:11:27Z</time></trkpt><trkpt lat="37.4115588" lon="14.3834205"><ele>701.0</ele><time>2026-05-03T07:11:28Z</time></trkpt><trkpt lat="37.411814" lon="14.3833155"><ele>701.0</ele><time>2026-05-03T07:11:29Z</time></trkpt><trkpt lat="37.4120594" lon="14.3831871"><ele>701.0</ele><time>2026-05-03T07:11:30Z</time></trkpt><trkpt lat="37.4122963" lon="14.3830297"><ele>706.5</ele><time>2026-05-03T07:11:31Z</time></trkpt><trkpt lat="37.4125216" lon="14.3828379"><ele>712.0</ele><time>2026-05-03T07:11:32Z</time></trkpt><trkpt lat="37.4127368" lon="14.3826283"><ele>712.0</ele><time>2026-05-03T07:11:33Z</time></trkpt><trkpt lat="37.4129449" lon="14.3824032"><ele>712.0</ele><time>2026-05-03T07:11:34Z</time></trkpt><trkpt lat="37.4131471" lon="14.3821751"><ele>714.0</ele><time>2026-05-03T07:11:35Z</time></trkpt><trkpt lat="37.4133488" lon="14.3819307"><ele>716.0</ele><time>2026-05-03T07:11:36Z</time></trkpt><trkpt lat="37.4135485" lon="14.3816837"><ele>716.0</ele><time>2026-05-03T07:11:37Z</time></trkpt><trkpt lat="37.4137481" lon="14.3814374"><ele>716.0</ele><time>2026-05-03T07:11:38Z</time></trkpt><trkpt lat="37.413947" lon="14.3811905"><ele>715.5</ele><time>2026-05-03T07:11:39Z</time></trkpt><trkpt lat="37.4141518" lon="14.3809351"><ele>715.0</ele><time>2026-05-03T07:11:40Z</time></trkpt><trkpt lat="37.4143502" lon="14.3806875"><ele>713.5</ele><time>2026-05-03T07:11:41Z</time></trkpt><trkpt lat="37.4145545" lon="14.380437"><ele>712.0</ele><time>2026-05-03T07:11:42Z</time></trkpt><trkpt lat="37.4147573" lon="14.3801972"><ele>712.0</ele><time>2026-05-03T07:11:43Z</time></trkpt><trkpt lat="37.4149601" lon="14.3799609"><ele>712.0</ele><time>2026-05-03T07:11:44Z</time></trkpt><trkpt lat="37.415156" lon="14.379725"><ele>712.5</ele><time>2026-05-03T07:11:45Z</time></trkpt><trkpt lat="37.4153533" lon="14.3794974"><ele>713.0</ele><time>2026-05-03T07:11:46Z</time></trkpt><trkpt lat="37.4155503" lon="14.3792606"><ele>713.0</ele><time>2026-05-03T07:11:47Z</time></trkpt><trkpt lat="37.4157426" lon="14.3790315"><ele>713.0</ele><time>2026-05-03T07:11:48Z</time></trkpt><trkpt lat="37.4159398" lon="14.3788053"><ele>711.0</ele><time>2026-05-03T07:11:49Z</time></trkpt><trkpt lat="37.4161346" lon="14.3785699"><ele>709.0</ele><time>2026-05-03T07:11:50Z</time></trkpt><trkpt lat="37.4163319" lon="14.3783476"><ele>709.0</ele><time>2026-05-03T07:11:51Z</time></trkpt><trkpt lat="37.4165274" lon="14.3781175"><ele>709.0</ele><time>2026-05-03T07:11:52Z</time></trkpt><trkpt lat="37.4167254" lon="14.3778756"><ele>720.0</ele><time>2026-05-03T07:11:53Z</time></trkpt><trkpt lat="37.4169291" lon="14.3776323"><ele>731.0</ele><time>2026-05-03T07:11:54Z</time></trkpt><trkpt lat="37.4171461" lon="14.3773835"><ele>726.0</ele><time>2026-05-03T07:11:55Z</time></trkpt><trkpt lat="37.4173726" lon="14.3771434"><ele>721.0</ele><time>2026-05-03T07:11:56Z</time></trkpt><trkpt lat="37.4175974" lon="14.3768928"><ele>721.0</ele><time>2026-05-03T07:11:57Z</time></trkpt><trkpt lat="37.4178216" lon="14.3766538"><ele>721.0</ele><time>2026-05-03T07:11:58Z</time></trkpt><trkpt lat="37.418054" lon="14.37641"><ele>722.0</ele><time>2026-05-03T07:11:59Z</time></trkpt><trkpt lat="37.4182851" lon="14.3761687"><ele>723.0</ele><time>2026-05-03T07:12:00Z</time></trkpt><trkpt lat="37.4185136" lon="14.3759264"><ele>723.0</ele><time>2026-05-03T07:12:01Z</time></trkpt><trkpt lat="37.4187409" lon="14.3756868"><ele>723.0</ele><time>2026-05-03T07:12:02Z</time></trkpt><trkpt lat="37.4189695" lon="14.3754396"><ele>724.0</ele><time>2026-05-03T07:12:03Z</time></trkpt><trkpt lat="37.4191969" lon="14.3751995"><ele>725.0</ele><time>2026-05-03T07:12:04Z</time></trkpt><trkpt lat="37.4194157" lon="14.3749472"><ele>725.0</ele><time>2026-05-03T07:12:05Z</time></trkpt><trkpt lat="37.4196363" lon="14.3746962"><ele>725.0</ele><time>2026-05-03T07:12:06Z</time></trkpt><trkpt lat="37.4198505" lon="14.3744421"><ele>724.5</ele><time>2026-05-03T07:12:07Z</time></trkpt><trkpt lat="37.4200651" lon="14.3741943"><ele>724.0</ele><time>2026-05-03T07:12:08Z</time></trkpt><trkpt lat="37.4202797" lon="14.3739347"><ele>723.5</ele><time>2026-05-03T07:12:09Z</time></trkpt><trkpt lat="37.4204912" lon="14.3736796"><ele>723.0</ele><time>2026-05-03T07:12:10Z</time></trkpt><trkpt lat="37.420705" lon="14.3734226"><ele>723.0</ele><time>2026-05-03T07:12:11Z</time></trkpt><trkpt lat="37.4209157" lon="14.3731716"><ele>723.0</ele><time>2026-05-03T07:12:12Z</time></trkpt><trkpt lat="37.4211361" lon="14.3729137"><ele>721.5</ele><time>2026-05-03T07:12:13Z</time></trkpt><trkpt lat="37.4213574" lon="14.3726603"><ele>720.0</ele><time>2026-05-03T07:12:14Z</time></trkpt><trkpt lat="37.4215877" lon="14.372399"><ele>730.5</ele><time>2026-05-03T07:12:15Z</time></trkpt><trkpt lat="37.4218091" lon="14.372139"><ele>741.0</ele><time>2026-05-03T07:12:16Z</time></trkpt><trkpt lat="37.4220221" lon="14.3719046"><ele>730.0</ele><time>2026-05-03T07:12:17Z</time></trkpt><trkpt lat="37.4222331" lon="14.3716774"><ele>719.0</ele><time>2026-05-03T07:12:18Z</time></trkpt><trkpt lat="37.4224451" lon="14.371465"><ele>726.5</ele><time>2026-05-03T07:12:19Z</time></trkpt><trkpt lat="37.4226699" lon="14.3712798"><ele>734.0</ele><time>2026-05-03T07:12:20Z</time></trkpt><trkpt lat="37.4229098" lon="14.3711205"><ele>725.5</ele><time>2026-05-03T07:12:21Z</time></trkpt><trkpt lat="37.4231604" lon="14.3709774"><ele>717.0</ele><time>2026-05-03T07:12:22Z</time></trkpt><trkpt lat="37.4234199" lon="14.3708733"><ele>717.0</ele><time>2026-05-03T07:12:23Z</time></trkpt><trkpt lat="37.423689" lon="14.3708077"><ele>717.0</ele><time>2026-05-03T07:12:24Z</time></trkpt><trkpt lat="37.4239622" lon="14.37079"><ele>716.5</ele><time>2026-05-03T07:12:25Z</time></trkpt><trkpt lat="37.4242382" lon="14.3707877"><ele>716.0</ele><time>2026-05-03T07:12:26Z</time></trkpt><trkpt lat="37.4245137" lon="14.3707929"><ele>721.0</ele><time>2026-05-03T07:12:27Z</time></trkpt><trkpt lat="37.4247915" lon="14.370793"><ele>726.0</ele><time>2026-05-03T07:12:28Z</time></trkpt><trkpt lat="37.4250728" lon="14.370798"><ele>726.0</ele><time>2026-05-03T07:12:29Z</time></trkpt><trkpt lat="37.4253509" lon="14.3707981"><ele>726.0</ele><time>2026-05-03T07:12:30Z</time></trkpt><trkpt lat="37.42563" lon="14.3707822"><ele>728.0</ele><time>2026-05-03T07:12:30.999Z</time></trkpt><trkpt lat="37.4259092" lon="14.370746"><ele>730.0</ele><time>2026-05-03T07:12:32Z</time></trkpt><trkpt lat="37.4261879" lon="14.3707135"><ele>731.5</ele><time>2026-05-03T07:12:33Z</time></trkpt><trkpt lat="37.4264693" lon="14.3706733"><ele>733.0</ele><time>2026-05-03T07:12:34Z</time></trkpt><trkpt lat="37.4267435" lon="14.3706286"><ele>733.0</ele><time>2026-05-03T07:12:35Z</time></trkpt><trkpt lat="37.4270168" lon="14.3705885"><ele>733.0</ele><time>2026-05-03T07:12:36Z</time></trkpt><trkpt lat="37.4272916" lon="14.370549"><ele>731.0</ele><time>2026-05-03T07:12:37Z</time></trkpt><trkpt lat="37.4275671" lon="14.3705093"><ele>729.0</ele><time>2026-05-03T07:12:38Z</time></trkpt><trkpt lat="37.4278407" lon="14.3704691"><ele>731.0</ele><time>2026-05-03T07:12:39Z</time></trkpt><trkpt lat="37.4281045" lon="14.370425"><ele>733.0</ele><time>2026-05-03T07:12:40Z</time></trkpt><trkpt lat="37.4283718" lon="14.370386"><ele>733.0</ele><time>2026-05-03T07:12:41Z</time></trkpt><trkpt lat="37.4286398" lon="14.3703499"><ele>733.0</ele><time>2026-05-03T07:12:42Z</time></trkpt><trkpt lat="37.4289069" lon="14.3703121"><ele>734.5</ele><time>2026-05-03T07:12:43Z</time></trkpt><trkpt lat="37.4291702" lon="14.3702722"><ele>736.0</ele><time>2026-05-03T07:12:44Z</time></trkpt><trkpt lat="37.4294295" lon="14.3702558"><ele>736.5</ele><time>2026-05-03T07:12:45Z</time></trkpt><trkpt lat="37.4296881" lon="14.3702627"><ele>737.0</ele><time>2026-05-03T07:12:46Z</time></trkpt><trkpt lat="37.4299463" lon="14.3702706"><ele>737.0</ele><time>2026-05-03T07:12:47Z</time></trkpt><trkpt lat="37.4302089" lon="14.3702902"><ele>737.0</ele><time>2026-05-03T07:12:48Z</time></trkpt><trkpt lat="37.4304668" lon="14.37033"><ele>738.0</ele><time>2026-05-03T07:12:49Z</time></trkpt><trkpt lat="37.430719" lon="14.3703791"><ele>739.0</ele><time>2026-05-03T07:12:50Z</time></trkpt><trkpt lat="37.4309748" lon="14.3704242"><ele>739.0</ele><time>2026-05-03T07:12:51Z</time></trkpt><trkpt lat="37.4312179" lon="14.3704697"><ele>739.0</ele><time>2026-05-03T07:12:52Z</time></trkpt><trkpt lat="37.4314643" lon="14.3705133"><ele>741.0</ele><time>2026-05-03T07:12:53Z</time></trkpt><trkpt lat="37.4317111" lon="14.3705565"><ele>743.0</ele><time>2026-05-03T07:12:54Z</time></trkpt><trkpt lat="37.4319551" lon="14.3705982"><ele>744.0</ele><time>2026-05-03T07:12:55Z</time></trkpt><trkpt lat="37.4321966" lon="14.3706479"><ele>745.0</ele><time>2026-05-03T07:12:56Z</time></trkpt><trkpt lat="37.4324382" lon="14.3706912"><ele>745.0</ele><time>2026-05-03T07:12:57Z</time></trkpt><trkpt lat="37.4326852" lon="14.3707357"><ele>745.0</ele><time>2026-05-03T07:12:58Z</time></trkpt><trkpt lat="37.4329243" lon="14.3707814"><ele>746.0</ele><time>2026-05-03T07:12:59Z</time></trkpt><trkpt lat="37.4331612" lon="14.3708283"><ele>747.0</ele><time>2026-05-03T07:13:00Z</time></trkpt><trkpt lat="37.4333989" lon="14.3708753"><ele>747.0</ele><time>2026-05-03T07:13:01Z</time></trkpt><trkpt lat="37.4336423" lon="14.3709239"><ele>747.0</ele><time>2026-05-03T07:13:02Z</time></trkpt><trkpt lat="37.4338877" lon="14.3709695"><ele>748.0</ele><time>2026-05-03T07:13:03Z</time></trkpt><trkpt lat="37.4341285" lon="14.3710137"><ele>749.0</ele><time>2026-05-03T07:13:04Z</time></trkpt><trkpt lat="37.4343725" lon="14.3710527"><ele>749.0</ele><time>2026-05-03T07:13:05Z</time></trkpt><trkpt lat="37.4346144" lon="14.3710861"><ele>749.0</ele><time>2026-05-03T07:13:06Z</time></trkpt><trkpt lat="37.4348638" lon="14.3711017"><ele>748.5</ele><time>2026-05-03T07:13:07Z</time></trkpt><trkpt lat="37.4351027" lon="14.3710787"><ele>748.0</ele><time>2026-05-03T07:13:08Z</time></trkpt><trkpt lat="37.435347" lon="14.3710344"><ele>750.0</ele><time>2026-05-03T07:13:09Z</time></trkpt><trkpt lat="37.4355854" lon="14.3709589"><ele>752.0</ele><time>2026-05-03T07:13:10Z</time></trkpt><trkpt lat="37.4358216" lon="14.3708533"><ele>752.0</ele><time>2026-05-03T07:13:11Z</time></trkpt><trkpt lat="37.4360533" lon="14.3707258"><ele>752.0</ele><time>2026-05-03T07:13:12Z</time></trkpt><trkpt lat="37.4362793" lon="14.3705928"><ele>750.5</ele><time>2026-05-03T07:13:13Z</time></trkpt><trkpt lat="37.4365143" lon="14.3704454"><ele>749.0</ele><time>2026-05-03T07:13:14Z</time></trkpt><trkpt lat="37.4367485" lon="14.3703072"><ele>749.0</ele><time>2026-05-03T07:13:15Z</time></trkpt><trkpt lat="37.4369785" lon="14.3701538"><ele>749.0</ele><time>2026-05-03T07:13:16Z</time></trkpt><trkpt lat="37.4372082" lon="14.3700083"><ele>757.0</ele><time>2026-05-03T07:13:17Z</time></trkpt><trkpt lat="37.4374401" lon="14.3698552"><ele>765.0</ele><time>2026-05-03T07:13:18Z</time></trkpt><trkpt lat="37.4376779" lon="14.3697069"><ele>765.0</ele><time>2026-05-03T07:13:19Z</time></trkpt><trkpt lat="37.4379125" lon="14.369552"><ele>765.0</ele><time>2026-05-03T07:13:20Z</time></trkpt><trkpt lat="37.4381448" lon="14.3694031"><ele>765.0</ele><time>2026-05-03T07:13:21Z</time></trkpt><trkpt lat="37.4383787" lon="14.3692562"><ele>765.0</ele><time>2026-05-03T07:13:22Z</time></trkpt><trkpt lat="37.4386081" lon="14.3691059"><ele>764.5</ele><time>2026-05-03T07:13:23Z</time></trkpt><trkpt lat="37.4388409" lon="14.3689536"><ele>764.0</ele><time>2026-05-03T07:13:24Z</time></trkpt><trkpt lat="37.4390737" lon="14.3688101"><ele>764.0</ele><time>2026-05-03T07:13:25Z</time></trkpt><trkpt lat="37.4393055" lon="14.3686584"><ele>764.0</ele><time>2026-05-03T07:13:26Z</time></trkpt><trkpt lat="37.4395403" lon="14.3685062"><ele>772.0</ele><time>2026-05-03T07:13:27Z</time></trkpt><trkpt lat="37.439774" lon="14.3683611"><ele>780.0</ele><time>2026-05-03T07:13:28Z</time></trkpt><trkpt lat="37.4400083" lon="14.3682049"><ele>780.0</ele><time>2026-05-03T07:13:29Z</time></trkpt><trkpt lat="37.4402448" lon="14.368052"><ele>780.0</ele><time>2026-05-03T07:13:30Z</time></trkpt><trkpt lat="37.4404788" lon="14.3678976"><ele>782.5</ele><time>2026-05-03T07:13:31Z</time></trkpt><trkpt lat="37.4407173" lon="14.3677467"><ele>785.0</ele><time>2026-05-03T07:13:32Z</time></trkpt><trkpt lat="37.4409568" lon="14.3675977"><ele>785.0</ele><time>2026-05-03T07:13:33Z</time></trkpt><trkpt lat="37.4412001" lon="14.3674429"><ele>785.0</ele><time>2026-05-03T07:13:34Z</time></trkpt><trkpt lat="37.4414429" lon="14.3672929"><ele>786.0</ele><time>2026-05-03T07:13:35Z</time></trkpt><trkpt lat="37.4416778" lon="14.3671348"><ele>787.0</ele><time>2026-05-03T07:13:36Z</time></trkpt><trkpt lat="37.4419121" lon="14.3669803"><ele>793.0</ele><time>2026-05-03T07:13:37Z</time></trkpt><trkpt lat="37.4421461" lon="14.3668271"><ele>799.0</ele><time>2026-05-03T07:13:38Z</time></trkpt><trkpt lat="37.44238" lon="14.3666756"><ele>799.0</ele><time>2026-05-03T07:13:39Z</time></trkpt><trkpt lat="37.4426147" lon="14.3665237"><ele>799.0</ele><time>2026-05-03T07:13:40Z</time></trkpt><trkpt lat="37.4428519" lon="14.3663663"><ele>801.0</ele><time>2026-05-03T07:13:41Z</time></trkpt><trkpt lat="37.443086" lon="14.3662173"><ele>803.0</ele><time>2026-05-03T07:13:42Z</time></trkpt><trkpt lat="37.4433234" lon="14.3660583"><ele>803.0</ele><time>2026-05-03T07:13:43Z</time></trkpt><trkpt lat="37.4435647" lon="14.3659009"><ele>803.0</ele><time>2026-05-03T07:13:44Z</time></trkpt><trkpt lat="37.4438042" lon="14.3657528"><ele>803.0</ele><time>2026-05-03T07:13:45Z</time></trkpt><trkpt lat="37.444044" lon="14.3655998"><ele>803.0</ele><time>2026-05-03T07:13:46Z</time></trkpt><trkpt lat="37.4442855" lon="14.3654584"><ele>800.5</ele><time>2026-05-03T07:13:47Z</time></trkpt><trkpt lat="37.4445363" lon="14.3653345"><ele>798.0</ele><time>2026-05-03T07:13:48Z</time></trkpt><trkpt lat="37.4447905" lon="14.3652369"><ele>797.5</ele><time>2026-05-03T07:13:49Z</time></trkpt><trkpt lat="37.4450557" lon="14.3651525"><ele>797.0</ele><time>2026-05-03T07:13:50Z</time></trkpt><trkpt lat="37.4453196" lon="14.3650969"><ele>798.5</ele><time>2026-05-03T07:13:50.999Z</time></trkpt><trkpt lat="37.4455952" lon="14.3650624"><ele>800.0</ele><time>2026-05-03T07:13:52Z</time></trkpt><trkpt lat="37.4458712" lon="14.3650494"><ele>800.0</ele><time>2026-05-03T07:13:53Z</time></trkpt><trkpt lat="37.4461432" lon="14.3650432"><ele>800.0</ele><time>2026-05-03T07:13:54Z</time></trkpt><trkpt lat="37.4464229" lon="14.3650375"><ele>799.0</ele><time>2026-05-03T07:13:55Z</time></trkpt><trkpt lat="37.4467026" lon="14.3650296"><ele>798.0</ele><time>2026-05-03T07:13:56Z</time></trkpt><trkpt lat="37.4469943" lon="14.3650235"><ele>797.5</ele><time>2026-05-03T07:13:57Z</time></trkpt><trkpt lat="37.4472774" lon="14.3650167"><ele>797.0</ele><time>2026-05-03T07:13:58Z</time></trkpt><trkpt lat="37.4475653" lon="14.3650037"><ele>797.0</ele><time>2026-05-03T07:13:59Z</time></trkpt><trkpt lat="37.4478496" lon="14.3649981"><ele>797.0</ele><time>2026-05-03T07:14:00Z</time></trkpt><trkpt lat="37.448131" lon="14.3649875"><ele>798.5</ele><time>2026-05-03T07:14:01Z</time></trkpt><trkpt lat="37.4484111" lon="14.3649777"><ele>800.0</ele><time>2026-05-03T07:14:02Z</time></trkpt><trkpt lat="37.4486909" lon="14.3649685"><ele>804.5</ele><time>2026-05-03T07:14:03Z</time></trkpt><trkpt lat="37.4489707" lon="14.3649596"><ele>809.0</ele><time>2026-05-03T07:14:04Z</time></trkpt><trkpt lat="37.4492532" lon="14.3649501"><ele>809.0</ele><time>2026-05-03T07:14:05Z</time></trkpt><trkpt lat="37.4495361" lon="14.3649438"><ele>809.0</ele><time>2026-05-03T07:14:06Z</time></trkpt><trkpt lat="37.4498095" lon="14.3649314"><ele>806.5</ele><time>2026-05-03T07:14:07Z</time></trkpt><trkpt lat="37.4500812" lon="14.364922"><ele>804.0</ele><time>2026-05-03T07:14:08Z</time></trkpt><trkpt lat="37.4503523" lon="14.3649093"><ele>803.0</ele><time>2026-05-03T07:14:09Z</time></trkpt><trkpt lat="37.4506201" lon="14.36488"><ele>802.0</ele><time>2026-05-03T07:14:10Z</time></trkpt><trkpt lat="37.4508821" lon="14.3648189"><ele>802.0</ele><time>2026-05-03T07:14:11Z</time></trkpt><trkpt lat="37.451142" lon="14.3647321"><ele>802.0</ele><time>2026-05-03T07:14:12Z</time></trkpt><trkpt lat="37.4513933" lon="14.3646269"><ele>796.0</ele><time>2026-05-03T07:14:13Z</time></trkpt><trkpt lat="37.4516383" lon="14.3645092"><ele>790.0</ele><time>2026-05-03T07:14:14Z</time></trkpt><trkpt lat="37.4518851" lon="14.3643875"><ele>794.0</ele><time>2026-05-03T07:14:15Z</time></trkpt><trkpt lat="37.4521325" lon="14.3642713"><ele>798.0</ele><time>2026-05-03T07:14:16Z</time></trkpt><trkpt lat="37.4523811" lon="14.3641577"><ele>798.0</ele><time>2026-05-03T07:14:17Z</time></trkpt><trkpt lat="37.4526282" lon="14.3640661"><ele>798.0</ele><time>2026-05-03T07:14:18Z</time></trkpt><trkpt lat="37.45288" lon="14.3639971"><ele>803.5</ele><time>2026-05-03T07:14:19Z</time></trkpt><trkpt lat="37.4531326" lon="14.3639581"><ele>809.0</ele><time>2026-05-03T07:14:20Z</time></trkpt><trkpt lat="37.4533824" lon="14.3639468"><ele>809.0</ele><time>2026-05-03T07:14:21Z</time></trkpt><trkpt lat="37.4536215" lon="14.3639676"><ele>809.0</ele><time>2026-05-03T07:14:22Z</time></trkpt><trkpt lat="37.4538579" lon="14.3640149"><ele>807.5</ele><time>2026-05-03T07:14:23Z</time></trkpt><trkpt lat="37.4540861" lon="14.3640844"><ele>806.0</ele><time>2026-05-03T07:14:24Z</time></trkpt><trkpt lat="37.4543026" lon="14.3641663"><ele>806.0</ele><time>2026-05-03T07:14:25Z</time></trkpt><trkpt lat="37.454514" lon="14.3642829"><ele>806.0</ele><time>2026-05-03T07:14:26Z</time></trkpt><trkpt lat="37.4547165" lon="14.3644136"><ele>808.0</ele><time>2026-05-03T07:14:27Z</time></trkpt><trkpt lat="37.454913" lon="14.3645364"><ele>810.0</ele><time>2026-05-03T07:14:28Z</time></trkpt><trkpt lat="37.4551074" lon="14.3646713"><ele>812.0</ele><time>2026-05-03T07:14:29Z</time></trkpt><trkpt lat="37.4552935" lon="14.3647996"><ele>810.6666666666667</ele><time>2026-05-03T07:14:30Z</time></trkpt><trkpt lat="37.4554855" lon="14.3649371"><ele>809.3333333333333</ele><time>2026-05-03T07:14:31Z</time></trkpt><trkpt lat="37.4556825" lon="14.3650733"><ele>808.0</ele><time>2026-05-03T07:14:32Z</time></trkpt><trkpt lat="37.4558874" lon="14.3652161"><ele>808.0</ele><time>2026-05-03T07:14:33Z</time></trkpt><trkpt lat="37.4561116" lon="14.3653521"><ele>808.0</ele><time>2026-05-03T07:14:34Z</time></trkpt><trkpt lat="37.4563375" lon="14.365504"><ele>809.5</ele><time>2026-05-03T07:14:35Z</time></trkpt><trkpt lat="37.4565672" lon="14.36568"><ele>811.0</ele><time>2026-05-03T07:14:36Z</time></trkpt><trkpt lat="37.4568044" lon="14.3658591"><ele>811.0</ele><time>2026-05-03T07:14:37Z</time></trkpt><trkpt lat="37.4570463" lon="14.3660313"><ele>811.0</ele><time>2026-05-03T07:14:38Z</time></trkpt><trkpt lat="37.4572846" lon="14.3661976"><ele>820.0</ele><time>2026-05-03T07:14:39Z</time></trkpt><trkpt lat="37.4575203" lon="14.3663677"><ele>829.0</ele><time>2026-05-03T07:14:40Z</time></trkpt><trkpt lat="37.457759" lon="14.3665285"><ele>828.5</ele><time>2026-05-03T07:14:41Z</time></trkpt><trkpt lat="37.4579902" lon="14.3666826"><ele>828.0</ele><time>2026-05-03T07:14:42Z</time></trkpt><trkpt lat="37.4582283" lon="14.3668227"><ele>828.0</ele><time>2026-05-03T07:14:43Z</time></trkpt><trkpt lat="37.4584703" lon="14.3669499"><ele>828.0</ele><time>2026-05-03T07:14:44Z</time></trkpt><trkpt lat="37.4587178" lon="14.3670462"><ele>824.0</ele><time>2026-05-03T07:14:45Z</time></trkpt><trkpt lat="37.4589738" lon="14.3671057"><ele>820.0</ele><time>2026-05-03T07:14:46Z</time></trkpt><trkpt lat="37.4592315" lon="14.367133"><ele>820.0</ele><time>2026-05-03T07:14:47Z</time></trkpt><trkpt lat="37.4594901" lon="14.3671332"><ele>820.0</ele><time>2026-05-03T07:14:48Z</time></trkpt><trkpt lat="37.4597477" lon="14.3671066"><ele>813.5</ele><time>2026-05-03T07:14:49Z</time></trkpt><trkpt lat="37.4599948" lon="14.3670482"><ele>807.0</ele><time>2026-05-03T07:14:50Z</time></trkpt><trkpt lat="37.460232" lon="14.3669647"><ele>808.0</ele><time>2026-05-03T07:14:51Z</time></trkpt><trkpt lat="37.4604559" lon="14.3668611"><ele>809.0</ele><time>2026-05-03T07:14:52Z</time></trkpt><trkpt lat="37.4606745" lon="14.3667252"><ele>809.0</ele><time>2026-05-03T07:14:53Z</time></trkpt><trkpt lat="37.4608949" lon="14.3665642"><ele>809.0</ele><time>2026-05-03T07:14:54Z</time></trkpt><trkpt lat="37.4611182" lon="14.3663574"><ele>804.0</ele><time>2026-05-03T07:14:55Z</time></trkpt><trkpt lat="37.4613567" lon="14.3661408"><ele>799.0</ele><time>2026-05-03T07:14:56Z</time></trkpt><trkpt lat="37.4615981" lon="14.3659345"><ele>799.0</ele><time>2026-05-03T07:14:57Z</time></trkpt><trkpt lat="37.4618378" lon="14.3657346"><ele>799.0</ele><time>2026-05-03T07:14:58Z</time></trkpt><trkpt lat="37.4620696" lon="14.3655238"><ele>793.5</ele><time>2026-05-03T07:14:59Z</time></trkpt><trkpt lat="37.462289" lon="14.3653231"><ele>788.0</ele><time>2026-05-03T07:15:00Z</time></trkpt><trkpt lat="37.4625091" lon="14.3651262"><ele>788.0</ele><time>2026-05-03T07:15:01Z</time></trkpt><trkpt lat="37.4627165" lon="14.3649241"><ele>788.0</ele><time>2026-05-03T07:15:02Z</time></trkpt><trkpt lat="37.4629214" lon="14.3647054"><ele>789.5</ele><time>2026-05-03T07:15:03Z</time></trkpt><trkpt lat="37.4631117" lon="14.364466"><ele>791.0</ele><time>2026-05-03T07:15:04Z</time></trkpt><trkpt lat="37.463292" lon="14.3642093"><ele>791.0</ele><time>2026-05-03T07:15:05Z</time></trkpt><trkpt lat="37.4634609" lon="14.3639415"><ele>791.0</ele><time>2026-05-03T07:15:06Z</time></trkpt><trkpt lat="37.4636199" lon="14.3636477"><ele>795.0</ele><time>2026-05-03T07:15:07Z</time></trkpt><trkpt lat="37.4637765" lon="14.3633512"><ele>799.0</ele><time>2026-05-03T07:15:08Z</time></trkpt><trkpt lat="37.4639269" lon="14.3630563"><ele>795.0</ele><time>2026-05-03T07:15:09Z</time></trkpt><trkpt lat="37.4640834" lon="14.3627617"><ele>791.0</ele><time>2026-05-03T07:15:10Z</time></trkpt><trkpt lat="37.4642324" lon="14.3624753"><ele>791.0</ele><time>2026-05-03T07:15:11Z</time></trkpt><trkpt lat="37.4643725" lon="14.3622033"><ele>791.0</ele><time>2026-05-03T07:15:12Z</time></trkpt><trkpt lat="37.4645028" lon="14.3619402"><ele>789.5</ele><time>2026-05-03T07:15:13Z</time></trkpt><trkpt lat="37.4646319" lon="14.3616891"><ele>788.0</ele><time>2026-05-03T07:15:14Z</time></trkpt><trkpt lat="37.464756" lon="14.3614499"><ele>783.6666666666667</ele><time>2026-05-03T07:15:15Z</time></trkpt><trkpt lat="37.464874" lon="14.3612174"><ele>779.3333333333333</ele><time>2026-05-03T07:15:16Z</time></trkpt><trkpt lat="37.4649885" lon="14.3609858"><ele>775.0</ele><time>2026-05-03T07:15:17Z</time></trkpt><trkpt lat="37.4650928" lon="14.3607577"><ele>771.6666666666666</ele><time>2026-05-03T07:15:18Z</time></trkpt><trkpt lat="37.4651799" lon="14.3605312"><ele>768.3333333333333</ele><time>2026-05-03T07:15:19Z</time></trkpt><trkpt lat="37.4652598" lon="14.3602974"><ele>765.0</ele><time>2026-05-03T07:15:20Z</time></trkpt><trkpt lat="37.4653261" lon="14.3600532"><ele>765.0</ele><time>2026-05-03T07:15:21Z</time></trkpt><trkpt lat="37.4653734" lon="14.3598114"><ele>765.0</ele><time>2026-05-03T07:15:22Z</time></trkpt><trkpt lat="37.465415" lon="14.3595586"><ele>765.0</ele><time>2026-05-03T07:15:22.999Z</time></trkpt><trkpt lat="37.4654344" lon="14.3593209"><ele>762.3333333333334</ele><time>2026-05-03T07:15:24Z</time></trkpt><trkpt lat="37.465439" lon="14.3590892"><ele>759.6666666666667</ele><time>2026-05-03T07:15:25Z</time></trkpt><trkpt lat="37.465437" lon="14.358861"><ele>757.0</ele><time>2026-05-03T07:15:26Z</time></trkpt><trkpt lat="37.4654145" lon="14.3586387"><ele>755.6666666666667</ele><time>2026-05-03T07:15:27Z</time></trkpt><trkpt lat="37.4653868" lon="14.3584184"><ele>754.3333333333334</ele><time>2026-05-03T07:15:28Z</time></trkpt><trkpt lat="37.4653495" lon="14.3582048"><ele>753.0</ele><time>2026-05-03T07:15:29Z</time></trkpt><trkpt lat="37.4652946" lon="14.3579979"><ele>753.0</ele><time>2026-05-03T07:15:30Z</time></trkpt><trkpt lat="37.4652372" lon="14.357797"><ele>753.0</ele><time>2026-05-03T07:15:31Z</time></trkpt><trkpt lat="37.4651644" lon="14.3575986"><ele>753.0</ele><time>2026-05-03T07:15:32Z</time></trkpt><trkpt lat="37.465093" lon="14.3573992"><ele>753.6666666666666</ele><time>2026-05-03T07:15:33Z</time></trkpt><trkpt lat="37.4650162" lon="14.3572016"><ele>754.3333333333333</ele><time>2026-05-03T07:15:34Z</time></trkpt><trkpt lat="37.4649432" lon="14.3570135"><ele>755.0</ele><time>2026-05-03T07:15:35Z</time></trkpt><trkpt lat="37.4648773" lon="14.3568258"><ele>755.0</ele><time>2026-05-03T07:15:36Z</time></trkpt><trkpt lat="37.4648255" lon="14.3566401"><ele>755.0</ele><time>2026-05-03T07:15:37Z</time></trkpt><trkpt lat="37.4647868" lon="14.3564535"><ele>755.0</ele><time>2026-05-03T07:15:38Z</time></trkpt><trkpt lat="37.464749" lon="14.3562624"><ele>753.6666666666666</ele><time>2026-05-03T07:15:39Z</time></trkpt><trkpt lat="37.4647343" lon="14.3560656"><ele>752.3333333333334</ele><time>2026-05-03T07:15:40Z</time></trkpt><trkpt lat="37.4647441" lon="14.3558665"><ele>751.0</ele><time>2026-05-03T07:15:41Z</time></trkpt><trkpt lat="37.4647709" lon="14.3556781"><ele>748.6666666666667</ele><time>2026-05-03T07:15:42Z</time></trkpt><trkpt lat="37.4648217" lon="14.3554901"><ele>746.3333333333334</ele><time>2026-05-03T07:15:43Z</time></trkpt><trkpt lat="37.4648861" lon="14.3553152"><ele>744.0</ele><time>2026-05-03T07:15:44Z</time></trkpt><trkpt lat="37.4649563" lon="14.3551602"><ele>744.0</ele><time>2026-05-03T07:15:45Z</time></trkpt><trkpt lat="37.4650401" lon="14.3550142"><ele>744.0</ele><time>2026-05-03T07:15:46Z</time></trkpt><trkpt lat="37.465133" lon="14.3548823"><ele>744.0</ele><time>2026-05-03T07:15:47Z</time></trkpt><trkpt lat="37.4652355" lon="14.3547647"><ele>744.0</ele><time>2026-05-03T07:15:48Z</time></trkpt><trkpt lat="37.4653416" lon="14.3546591"><ele>742.5</ele><time>2026-05-03T07:15:49Z</time></trkpt><trkpt lat="37.465454" lon="14.354559"><ele>741.0</ele><time>2026-05-03T07:15:50Z</time></trkpt><trkpt lat="37.4655698" lon="14.3544551"><ele>739.5</ele><time>2026-05-03T07:15:51Z</time></trkpt><trkpt lat="37.4656941" lon="14.354347"><ele>738.0</ele><time>2026-05-03T07:15:52Z</time></trkpt><trkpt lat="37.465824" lon="14.3542355"><ele>738.0</ele><time>2026-05-03T07:15:53Z</time></trkpt><trkpt lat="37.465959" lon="14.3541314"><ele>738.0</ele><time>2026-05-03T07:15:54Z</time></trkpt><trkpt lat="37.4661035" lon="14.3540256"><ele>738.0</ele><time>2026-05-03T07:15:55Z</time></trkpt><trkpt lat="37.4662576" lon="14.3539397"><ele>732.0</ele><time>2026-05-03T07:15:56Z</time></trkpt><trkpt lat="37.4664246" lon="14.353864"><ele>726.0</ele><time>2026-05-03T07:15:57Z</time></trkpt><trkpt lat="37.4665909" lon="14.3538121"><ele>720.0</ele><time>2026-05-03T07:15:58Z</time></trkpt><trkpt lat="37.4667686" lon="14.3537715"><ele>720.0</ele><time>2026-05-03T07:15:59Z</time></trkpt><trkpt lat="37.4669513" lon="14.3537506"><ele>720.0</ele><time>2026-05-03T07:16:00Z</time></trkpt><trkpt lat="37.4671283" lon="14.3537492"><ele>720.0</ele><time>2026-05-03T07:16:01Z</time></trkpt><trkpt lat="37.4673128" lon="14.3537766"><ele>721.6666666666666</ele><time>2026-05-03T07:16:02Z</time></trkpt><trkpt lat="37.4674971" lon="14.3538238"><ele>723.3333333333333</ele><time>2026-05-03T07:16:03Z</time></trkpt><trkpt lat="37.4676771" lon="14.3538944"><ele>725.0</ele><time>2026-05-03T07:16:04Z</time></trkpt><trkpt lat="37.4678525" lon="14.3539887"><ele>728.6666666666666</ele><time>2026-05-03T07:16:05Z</time></trkpt><trkpt lat="37.4680272" lon="14.354095"><ele>732.3333333333334</ele><time>2026-05-03T07:16:06Z</time></trkpt><trkpt lat="37.4681796" lon="14.3542184"><ele>736.0</ele><time>2026-05-03T07:16:07Z</time></trkpt><trkpt lat="37.4683233" lon="14.3543495"><ele>736.0</ele><time>2026-05-03T07:16:08Z</time></trkpt><trkpt lat="37.4684558" lon="14.3544861"><ele>736.0</ele><time>2026-05-03T07:16:09Z</time></trkpt><trkpt lat="37.4685828" lon="14.3546293"><ele>736.0</ele><time>2026-05-03T07:16:10Z</time></trkpt><trkpt lat="37.4687127" lon="14.3547742"><ele>736.0</ele><time>2026-05-03T07:16:11Z</time></trkpt><trkpt lat="37.4688405" lon="14.3549218"><ele>736.0</ele><time>2026-05-03T07:16:12Z</time></trkpt><trkpt lat="37.4689724" lon="14.3550668"><ele>736.0</ele><time>2026-05-03T07:16:13Z</time></trkpt><trkpt lat="37.4691014" lon="14.3552126"><ele>736.0</ele><time>2026-05-03T07:16:14Z</time></trkpt><trkpt lat="37.4692264" lon="14.3553548"><ele>736.0</ele><time>2026-05-03T07:16:15Z</time></trkpt><trkpt lat="37.4693516" lon="14.3554929"><ele>736.0</ele><time>2026-05-03T07:16:16Z</time></trkpt><trkpt lat="37.4694818" lon="14.3556208"><ele>737.3333333333334</ele><time>2026-05-03T07:16:17Z</time></trkpt><trkpt lat="37.4696113" lon="14.3557418"><ele>738.6666666666666</ele><time>2026-05-03T07:16:18Z</time></trkpt><trkpt lat="37.4697468" lon="14.3558488"><ele>740.0</ele><time>2026-05-03T07:16:19Z</time></trkpt><trkpt lat="37.4698923" lon="14.3559515"><ele>740.0</ele><time>2026-05-03T07:16:20Z</time></trkpt><trkpt lat="37.470041" lon="14.3560455"><ele>740.0</ele><time>2026-05-03T07:16:21Z</time></trkpt><trkpt lat="37.4701941" lon="14.3561202"><ele>740.0</ele><time>2026-05-03T07:16:22Z</time></trkpt><trkpt lat="37.4703471" lon="14.3561877"><ele>741.25</ele><time>2026-05-03T07:16:23Z</time></trkpt><trkpt lat="37.4704921" lon="14.35624"><ele>742.5</ele><time>2026-05-03T07:16:24Z</time></trkpt><trkpt lat="37.4706325" lon="14.3562845"><ele>743.75</ele><time>2026-05-03T07:16:25Z</time></trkpt><trkpt lat="37.4707679" lon="14.3563136"><ele>745.0</ele><time>2026-05-03T07:16:26Z</time></trkpt><trkpt lat="37.470902" lon="14.3563359"><ele>745.0</ele><time>2026-05-03T07:16:27Z</time></trkpt><trkpt lat="37.4710375" lon="14.3563438"><ele>745.0</ele><time>2026-05-03T07:16:28Z</time></trkpt><trkpt lat="37.4711763" lon="14.3563419"><ele>745.0</ele><time>2026-05-03T07:16:29Z</time></trkpt><trkpt lat="37.4713158" lon="14.3563334"><ele>745.0</ele><time>2026-05-03T07:16:30Z</time></trkpt><trkpt lat="37.4714504" lon="14.3563172"><ele>747.0</ele><time>2026-05-03T07:16:31Z</time></trkpt><trkpt lat="37.471593" lon="14.3562898"><ele>749.0</ele><time>2026-05-03T07:16:32Z</time></trkpt><trkpt lat="37.4717245" lon="14.3562481"><ele>751.0</ele><time>2026-05-03T07:16:33Z</time></trkpt><trkpt lat="37.4718576" lon="14.3562054"><ele>753.0</ele><time>2026-05-03T07:16:34Z</time></trkpt><trkpt lat="37.4719887" lon="14.3561506"><ele>750.25</ele><time>2026-05-03T07:16:35Z</time></trkpt><trkpt lat="37.4721162" lon="14.3560847"><ele>747.5</ele><time>2026-05-03T07:16:36Z</time></trkpt><trkpt lat="37.4722388" lon="14.3559994"><ele>744.75</ele><time>2026-05-03T07:16:37Z</time></trkpt><trkpt lat="37.4723602" lon="14.3559041"><ele>742.0</ele><time>2026-05-03T07:16:38Z</time></trkpt><trkpt lat="37.4724869" lon="14.3557996"><ele>742.0</ele><time>2026-05-03T07:16:39Z</time></trkpt><trkpt lat="37.4726093" lon="14.3556942"><ele>742.0</ele><time>2026-05-03T07:16:40Z</time></trkpt><trkpt lat="37.4727338" lon="14.3555714"><ele>742.0</ele><time>2026-05-03T07:16:41Z</time></trkpt><trkpt lat="37.4728556" lon="14.3554434"><ele>737.6666666666667</ele><time>2026-05-03T07:16:42Z</time></trkpt><trkpt lat="37.472977" lon="14.355291"><ele>733.3333333333334</ele><time>2026-05-03T07:16:43Z</time></trkpt><trkpt lat="37.4730975" lon="14.3551115"><ele>729.0</ele><time>2026-05-03T07:16:44Z</time></trkpt><trkpt lat="37.4732235" lon="14.3548996"><ele>727.5</ele><time>2026-05-03T07:16:45Z</time></trkpt><trkpt lat="37.4733636" lon="14.3546626"><ele>726.0</ele><time>2026-05-03T07:16:46Z</time></trkpt><trkpt lat="37.4735157" lon="14.3544353"><ele>726.0</ele><time>2026-05-03T07:16:47Z</time></trkpt><trkpt lat="37.4736689" lon="14.3542087"><ele>726.0</ele><time>2026-05-03T07:16:48Z</time></trkpt><trkpt lat="37.4738234" lon="14.3539836"><ele>722.0</ele><time>2026-05-03T07:16:49Z</time></trkpt><trkpt lat="37.4739722" lon="14.3537672"><ele>718.0</ele><time>2026-05-03T07:16:50Z</time></trkpt><trkpt lat="37.474119" lon="14.353551"><ele>718.0</ele><time>2026-05-03T07:16:51Z</time></trkpt><trkpt lat="37.4742682" lon="14.3533257"><ele>718.0</ele><time>2026-05-03T07:16:52Z</time></trkpt><trkpt lat="37.4744122" lon="14.3530973"><ele>719.0</ele><time>2026-05-03T07:16:53Z</time></trkpt><trkpt lat="37.4745578" lon="14.3528763"><ele>720.0</ele><time>2026-05-03T07:16:54Z</time></trkpt><trkpt lat="37.4747041" lon="14.352643"><ele>720.0</ele><time>2026-05-03T07:16:55Z</time></trkpt><trkpt lat="37.4748454" lon="14.3524097"><ele>720.0</ele><time>2026-05-03T07:16:56Z</time></trkpt><trkpt lat="37.4749932" lon="14.3521702"><ele>712.0</ele><time>2026-05-03T07:16:57Z</time></trkpt><trkpt lat="37.4751378" lon="14.3519283"><ele>704.0</ele><time>2026-05-03T07:16:58Z</time></trkpt><trkpt lat="37.4752869" lon="14.3516847"><ele>706.0</ele><time>2026-05-03T07:16:59Z</time></trkpt><trkpt lat="37.4754397" lon="14.3514356"><ele>708.0</ele><time>2026-05-03T07:17:00Z</time></trkpt><trkpt lat="37.4755865" lon="14.3511867"><ele>704.0</ele><time>2026-05-03T07:17:01Z</time></trkpt><trkpt lat="37.4757373" lon="14.350943"><ele>700.0</ele><time>2026-05-03T07:17:02Z</time></trkpt><trkpt lat="37.4758981" lon="14.3506916"><ele>697.5</ele><time>2026-05-03T07:17:03Z</time></trkpt><trkpt lat="37.4760524" lon="14.3504503"><ele>695.0</ele><time>2026-05-03T07:17:04Z</time></trkpt><trkpt lat="37.4762209" lon="14.3502114"><ele>698.0</ele><time>2026-05-03T07:17:05Z</time></trkpt><trkpt lat="37.4764033" lon="14.3499864"><ele>701.0</ele><time>2026-05-03T07:17:06Z</time></trkpt><trkpt lat="37.4766057" lon="14.3497746"><ele>698.0</ele><time>2026-05-03T07:17:07Z</time></trkpt><trkpt lat="37.47682" lon="14.3495895"><ele>695.0</ele><time>2026-05-03T07:17:08Z</time></trkpt><trkpt lat="37.477043" lon="14.3494249"><ele>697.0</ele><time>2026-05-03T07:17:09Z</time></trkpt><trkpt lat="37.4772686" lon="14.3492815"><ele>699.0</ele><time>2026-05-03T07:17:10Z</time></trkpt><trkpt lat="37.4775157" lon="14.3491611"><ele>699.0</ele><time>2026-05-03T07:17:11Z</time></trkpt><trkpt lat="37.4777554" lon="14.349068"><ele>699.0</ele><time>2026-05-03T07:17:12Z</time></trkpt><trkpt lat="37.4780033" lon="14.3490057"><ele>694.0</ele><time>2026-05-03T07:17:13Z</time></trkpt><trkpt lat="37.4782534" lon="14.3489683"><ele>689.0</ele><time>2026-05-03T07:17:14Z</time></trkpt><trkpt lat="37.4785065" lon="14.3489572"><ele>689.0</ele><time>2026-05-03T07:17:15Z</time></trkpt><trkpt lat="37.4787566" lon="14.3489702"><ele>689.0</ele><time>2026-05-03T07:17:16Z</time></trkpt><trkpt lat="37.4790051" lon="14.349022"><ele>688.0</ele><time>2026-05-03T07:17:17Z</time></trkpt><trkpt lat="37.479252" lon="14.3490901"><ele>687.0</ele><time>2026-05-03T07:17:18Z</time></trkpt><trkpt lat="37.4794956" lon="14.3491717"><ele>693.0</ele><time>2026-05-03T07:17:19Z</time></trkpt><trkpt lat="37.4797394" lon="14.3492528"><ele>699.0</ele><time>2026-05-03T07:17:20Z</time></trkpt><trkpt lat="37.4799813" lon="14.3493354"><ele>674.0</ele><time>2026-05-03T07:17:21Z</time></trkpt><trkpt lat="37.48138" lon="14.3499165"><ele>674.0</ele><time>2026-05-03T07:17:27Z</time></trkpt><trkpt lat="37.4816127" lon="14.3500178"><ele>674.0</ele><time>2026-05-03T07:17:28Z</time></trkpt><trkpt lat="37.4818474" lon="14.3501163"><ele>674.0</ele><time>2026-05-03T07:17:29Z</time></trkpt><trkpt lat="37.4820803" lon="14.3502357"><ele>674.0</ele><time>2026-05-03T07:17:30Z</time></trkpt><trkpt lat="37.4823112" lon="14.3503819"><ele>670.0</ele><time>2026-05-03T07:17:31Z</time></trkpt><trkpt lat="37.4825154" lon="14.3505297"><ele>666.0</ele><time>2026-05-03T07:17:32Z</time></trkpt><trkpt lat="37.4827222" lon="14.3507056"><ele>666.0</ele><time>2026-05-03T07:17:33Z</time></trkpt><trkpt lat="37.4829074" lon="14.3509069"><ele>666.0</ele><time>2026-05-03T07:17:34Z</time></trkpt><trkpt lat="37.4830955" lon="14.3511339"><ele>658.0</ele><time>2026-05-03T07:17:35Z</time></trkpt><trkpt lat="37.4832688" lon="14.3513632"><ele>650.0</ele><time>2026-05-03T07:17:36Z</time></trkpt><trkpt lat="37.4834325" lon="14.3516107"><ele>650.0</ele><time>2026-05-03T07:17:37Z</time></trkpt><trkpt lat="37.4835874" lon="14.351873"><ele>650.0</ele><time>2026-05-03T07:17:38Z</time></trkpt><trkpt lat="37.483732" lon="14.3521397"><ele>647.5</ele><time>2026-05-03T07:17:39Z</time></trkpt><trkpt lat="37.4838816" lon="14.3524169"><ele>645.0</ele><time>2026-05-03T07:17:40Z</time></trkpt><trkpt lat="37.4840309" lon="14.3526972"><ele>645.0</ele><time>2026-05-03T07:17:41Z</time></trkpt><trkpt lat="37.4841807" lon="14.3529728"><ele>645.0</ele><time>2026-05-03T07:17:42Z</time></trkpt><trkpt lat="37.4843361" lon="14.3532565"><ele>645.0</ele><time>2026-05-03T07:17:43Z</time></trkpt><trkpt lat="37.4844841" lon="14.3535371"><ele>645.0</ele><time>2026-05-03T07:17:44Z</time></trkpt><trkpt lat="37.4846336" lon="14.3538043"><ele>644.5</ele><time>2026-05-03T07:17:45Z</time></trkpt><trkpt lat="37.4847737" lon="14.3540779"><ele>644.0</ele><time>2026-05-03T07:17:46Z</time></trkpt><trkpt lat="37.4849194" lon="14.3543477"><ele>644.0</ele><time>2026-05-03T07:17:47Z</time></trkpt><trkpt lat="37.4850438" lon="14.3546313"><ele>644.0</ele><time>2026-05-03T07:17:48Z</time></trkpt><trkpt lat="37.4851587" lon="14.3549309"><ele>645.0</ele><time>2026-05-03T07:17:49Z</time></trkpt><trkpt lat="37.4852543" lon="14.355243"><ele>646.0</ele><time>2026-05-03T07:17:50Z</time></trkpt><trkpt lat="37.4853398" lon="14.3555639"><ele>646.0</ele><time>2026-05-03T07:17:51Z</time></trkpt><trkpt lat="37.4854041" lon="14.355894"><ele>646.0</ele><time>2026-05-03T07:17:52Z</time></trkpt><trkpt lat="37.4854454" lon="14.3562319"><ele>643.0</ele><time>2026-05-03T07:17:53Z</time></trkpt><trkpt lat="37.4854615" lon="14.3565736"><ele>640.0</ele><time>2026-05-03T07:17:54Z</time></trkpt><trkpt lat="37.4854601" lon="14.3569167"><ele>639.5</ele><time>2026-05-03T07:17:55Z</time></trkpt><trkpt lat="37.4854485" lon="14.3572677"><ele>639.0</ele><time>2026-05-03T07:17:56Z</time></trkpt><trkpt lat="37.4854204" lon="14.3576206"><ele>643.0</ele><time>2026-05-03T07:17:57Z</time></trkpt><trkpt lat="37.4853887" lon="14.3579778"><ele>647.0</ele><time>2026-05-03T07:17:58Z</time></trkpt><trkpt lat="37.4853639" lon="14.3583271"><ele>647.0</ele><time>2026-05-03T07:17:59Z</time></trkpt><trkpt lat="37.485334" lon="14.3586772"><ele>647.0</ele><time>2026-05-03T07:18:00Z</time></trkpt><trkpt lat="37.4853076" lon="14.3590259"><ele>642.0</ele><time>2026-05-03T07:18:01Z</time></trkpt><trkpt lat="37.4852764" lon="14.3593865"><ele>637.0</ele><time>2026-05-03T07:18:02Z</time></trkpt><trkpt lat="37.485244" lon="14.3597702"><ele>635.0</ele><time>2026-05-03T07:18:03Z</time></trkpt><trkpt lat="37.4852197" lon="14.3601789"><ele>633.0</ele><time>2026-05-03T07:18:04Z</time></trkpt><trkpt lat="37.4851973" lon="14.3606001"><ele>632.5</ele><time>2026-05-03T07:18:05Z</time></trkpt><trkpt lat="37.4851699" lon="14.3610231"><ele>632.0</ele><time>2026-05-03T07:18:06Z</time></trkpt><trkpt lat="37.4851271" lon="14.3614434"><ele>630.5</ele><time>2026-05-03T07:18:07Z</time></trkpt><trkpt lat="37.4850832" lon="14.3618621"><ele>629.0</ele><time>2026-05-03T07:18:08Z</time></trkpt><trkpt lat="37.4850437" lon="14.3622759"><ele>626.5</ele><time>2026-05-03T07:18:09Z</time></trkpt><trkpt lat="37.4850076" lon="14.3626862"><ele>624.0</ele><time>2026-05-03T07:18:10Z</time></trkpt><trkpt lat="37.4849755" lon="14.3630917"><ele>623.5</ele><time>2026-05-03T07:18:11Z</time></trkpt><trkpt lat="37.4849436" lon="14.363493"><ele>623.0</ele><time>2026-05-03T07:18:12Z</time></trkpt><trkpt lat="37.4849135" lon="14.3638899"><ele>622.0</ele><time>2026-05-03T07:18:13Z</time></trkpt><trkpt lat="37.4848863" lon="14.364281"><ele>621.0</ele><time>2026-05-03T07:18:14Z</time></trkpt><trkpt lat="37.4848568" lon="14.364648"><ele>620.0</ele><time>2026-05-03T07:18:15Z</time></trkpt><trkpt lat="37.4848196" lon="14.3650098"><ele>619.0</ele><time>2026-05-03T07:18:16Z</time></trkpt><trkpt lat="37.4847753" lon="14.3653636"><ele>619.5</ele><time>2026-05-03T07:18:17Z</time></trkpt><trkpt lat="37.4847066" lon="14.3657112"><ele>620.0</ele><time>2026-05-03T07:18:18Z</time></trkpt><trkpt lat="37.4846203" lon="14.366056"><ele>622.5</ele><time>2026-05-03T07:18:19Z</time></trkpt><trkpt lat="37.4845117" lon="14.366392"><ele>625.0</ele><time>2026-05-03T07:18:20Z</time></trkpt><trkpt lat="37.4843863" lon="14.3667181"><ele>625.0</ele><time>2026-05-03T07:18:21Z</time></trkpt><trkpt lat="37.4842449" lon="14.3670319"><ele>625.0</ele><time>2026-05-03T07:18:22Z</time></trkpt><trkpt lat="37.4840814" lon="14.3673337"><ele>620.5</ele><time>2026-05-03T07:18:23Z</time></trkpt><trkpt lat="37.4839008" lon="14.3676201"><ele>616.0</ele><time>2026-05-03T07:18:24Z</time></trkpt><trkpt lat="37.4837136" lon="14.367879"><ele>609.0</ele><time>2026-05-03T07:18:25Z</time></trkpt><trkpt lat="37.4835281" lon="14.3681232"><ele>602.0</ele><time>2026-05-03T07:18:26Z</time></trkpt><trkpt lat="37.4833553" lon="14.3683533"><ele>602.0</ele><time>2026-05-03T07:18:27Z</time></trkpt><trkpt lat="37.4832042" lon="14.3685806"><ele>602.0</ele><time>2026-05-03T07:18:28Z</time></trkpt><trkpt lat="37.4830799" lon="14.368825"><ele>601.0</ele><time>2026-05-03T07:18:29Z</time></trkpt><trkpt lat="37.4829755" lon="14.3690832"><ele>600.0</ele><time>2026-05-03T07:18:30Z</time></trkpt><trkpt lat="37.4829026" lon="14.3693566"><ele>600.0</ele><time>2026-05-03T07:18:31Z</time></trkpt><trkpt lat="37.4828615" lon="14.3696457"><ele>600.0</ele><time>2026-05-03T07:18:32Z</time></trkpt><trkpt lat="37.4828486" lon="14.3699409"><ele>602.5</ele><time>2026-05-03T07:18:33Z</time></trkpt><trkpt lat="37.4828722" lon="14.3702356"><ele>605.0</ele><time>2026-05-03T07:18:34Z</time></trkpt><trkpt lat="37.4829226" lon="14.370527"><ele>607.5</ele><time>2026-05-03T07:18:35Z</time></trkpt><trkpt lat="37.4829715" lon="14.3708023"><ele>610.0</ele><time>2026-05-03T07:18:36Z</time></trkpt><trkpt lat="37.4829957" lon="14.3710859"><ele>614.0</ele><time>2026-05-03T07:18:37Z</time></trkpt><trkpt lat="37.4829947" lon="14.3713812"><ele>618.0</ele><time>2026-05-03T07:18:38Z</time></trkpt><trkpt lat="37.4829556" lon="14.3716728"><ele>619.5</ele><time>2026-05-03T07:18:39Z</time></trkpt><trkpt lat="37.4828864" lon="14.3719605"><ele>621.0</ele><time>2026-05-03T07:18:40Z</time></trkpt><trkpt lat="37.4827853" lon="14.3722294"><ele>623.0</ele><time>2026-05-03T07:18:41Z</time></trkpt><trkpt lat="37.4826597" lon="14.3724862"><ele>625.0</ele><time>2026-05-03T07:18:42Z</time></trkpt><trkpt lat="37.4825133" lon="14.3727515"><ele>625.0</ele><time>2026-05-03T07:18:43Z</time></trkpt><trkpt lat="37.4823659" lon="14.3730143"><ele>625.0</ele><time>2026-05-03T07:18:44Z</time></trkpt><trkpt lat="37.4822187" lon="14.3732828"><ele>626.5</ele><time>2026-05-03T07:18:45Z</time></trkpt><trkpt lat="37.4820758" lon="14.3735418"><ele>628.0</ele><time>2026-05-03T07:18:46Z</time></trkpt><trkpt lat="37.4819508" lon="14.3738152"><ele>623.5</ele><time>2026-05-03T07:18:47Z</time></trkpt><trkpt lat="37.4818369" lon="14.3741069"><ele>619.0</ele><time>2026-05-03T07:18:48Z</time></trkpt><trkpt lat="37.4817348" lon="14.3744008"><ele>617.0</ele><time>2026-05-03T07:18:49Z</time></trkpt><trkpt lat="37.4816985" lon="14.3747268"><ele>615.0</ele><time>2026-05-03T07:18:50Z</time></trkpt><trkpt lat="37.4816572" lon="14.3750507"><ele>615.0</ele><time>2026-05-03T07:18:50.999Z</time></trkpt><trkpt lat="37.4816447" lon="14.3753774"><ele>615.0</ele><time>2026-05-03T07:18:52Z</time></trkpt><trkpt lat="37.481655" lon="14.37571"><ele>611.0</ele><time>2026-05-03T07:18:53Z</time></trkpt><trkpt lat="37.4816928" lon="14.3760402"><ele>607.0</ele><time>2026-05-03T07:18:54Z</time></trkpt><trkpt lat="37.4817412" lon="14.376366"><ele>604.0</ele><time>2026-05-03T07:18:55Z</time></trkpt><trkpt lat="37.4818195" lon="14.3766785"><ele>601.0</ele><time>2026-05-03T07:18:56Z</time></trkpt><trkpt lat="37.4819209" lon="14.3769675"><ele>601.0</ele><time>2026-05-03T07:18:57Z</time></trkpt><trkpt lat="37.4820418" lon="14.3772416"><ele>601.0</ele><time>2026-05-03T07:18:58Z</time></trkpt><trkpt lat="37.4821871" lon="14.3775065"><ele>597.0</ele><time>2026-05-03T07:18:59Z</time></trkpt><trkpt lat="37.4823378" lon="14.3777527"><ele>593.0</ele><time>2026-05-03T07:19:00Z</time></trkpt><trkpt lat="37.4825046" lon="14.3779793"><ele>597.0</ele><time>2026-05-03T07:19:01Z</time></trkpt><trkpt lat="37.4826921" lon="14.3781889"><ele>601.0</ele><time>2026-05-03T07:19:02Z</time></trkpt><trkpt lat="37.4828944" lon="14.3783625"><ele>596.5</ele><time>2026-05-03T07:19:03Z</time></trkpt><trkpt lat="37.4831103" lon="14.3785249"><ele>592.0</ele><time>2026-05-03T07:19:04Z</time></trkpt><trkpt lat="37.4833358" lon="14.3786756"><ele>592.0</ele><time>2026-05-03T07:19:05Z</time></trkpt><trkpt lat="37.4835575" lon="14.3788113"><ele>592.0</ele><time>2026-05-03T07:19:06Z</time></trkpt><trkpt lat="37.4837759" lon="14.3789597"><ele>591.0</ele><time>2026-05-03T07:19:07Z</time></trkpt><trkpt lat="37.4839921" lon="14.3791345"><ele>590.0</ele><time>2026-05-03T07:19:08Z</time></trkpt><trkpt lat="37.4841916" lon="14.3793328"><ele>590.0</ele><time>2026-05-03T07:19:09Z</time></trkpt><trkpt lat="37.4843786" lon="14.3795541"><ele>590.0</ele><time>2026-05-03T07:19:10Z</time></trkpt><trkpt lat="37.4845447" lon="14.3797908"><ele>587.0</ele><time>2026-05-03T07:19:11Z</time></trkpt><trkpt lat="37.4847011" lon="14.3800499"><ele>584.0</ele><time>2026-05-03T07:19:12Z</time></trkpt><trkpt lat="37.4848339" lon="14.3803225"><ele>584.5</ele><time>2026-05-03T07:19:13Z</time></trkpt><trkpt lat="37.4849502" lon="14.380613"><ele>585.0</ele><time>2026-05-03T07:19:14Z</time></trkpt><trkpt lat="37.485045" lon="14.3809188"><ele>585.0</ele><time>2026-05-03T07:19:15Z</time></trkpt><trkpt lat="37.4851182" lon="14.3812139"><ele>585.0</ele><time>2026-05-03T07:19:16Z</time></trkpt><trkpt lat="37.4851704" lon="14.3815047"><ele>585.0</ele><time>2026-05-03T07:19:17Z</time></trkpt><trkpt lat="37.4852008" lon="14.3817898"><ele>585.0</ele><time>2026-05-03T07:19:18Z</time></trkpt><trkpt lat="37.4852263" lon="14.3820744"><ele>583.0</ele><time>2026-05-03T07:19:19Z</time></trkpt><trkpt lat="37.4852395" lon="14.3823613"><ele>581.0</ele><time>2026-05-03T07:19:20Z</time></trkpt><trkpt lat="37.4852483" lon="14.3826388"><ele>579.0</ele><time>2026-05-03T07:19:21Z</time></trkpt><trkpt lat="37.4852535" lon="14.382911"><ele>578.6666666666666</ele><time>2026-05-03T07:19:22Z</time></trkpt><trkpt lat="37.4852561" lon="14.3831799"><ele>578.3333333333333</ele><time>2026-05-03T07:19:23Z</time></trkpt><trkpt lat="37.4852625" lon="14.3834505"><ele>578.0</ele><time>2026-05-03T07:19:24Z</time></trkpt><trkpt lat="37.4852606" lon="14.3837109"><ele>576.3333333333333</ele><time>2026-05-03T07:19:25Z</time></trkpt><trkpt lat="37.4852605" lon="14.3839528"><ele>574.6666666666666</ele><time>2026-05-03T07:19:26Z</time></trkpt><trkpt lat="37.485263" lon="14.3841841"><ele>573.0</ele><time>2026-05-03T07:19:27Z</time></trkpt><trkpt lat="37.4852655" lon="14.3844102"><ele>573.0</ele><time>2026-05-03T07:19:27.999Z</time></trkpt><trkpt lat="37.4852658" lon="14.3846316"><ele>573.0</ele><time>2026-05-03T07:19:29Z</time></trkpt><trkpt lat="37.4852677" lon="14.3848533"><ele>573.0</ele><time>2026-05-03T07:19:30Z</time></trkpt><trkpt lat="37.4852619" lon="14.3850738"><ele>572.0</ele><time>2026-05-03T07:19:31Z</time></trkpt><trkpt lat="37.4852602" lon="14.3852892"><ele>571.0</ele><time>2026-05-03T07:19:32Z</time></trkpt><trkpt lat="37.4852494" lon="14.3855079"><ele>570.0</ele><time>2026-05-03T07:19:33Z</time></trkpt><trkpt lat="37.4852434" lon="14.3857228"><ele>569.3333333333334</ele><time>2026-05-03T07:19:34Z</time></trkpt><trkpt lat="37.4852366" lon="14.385948"><ele>568.6666666666667</ele><time>2026-05-03T07:19:35Z</time></trkpt><trkpt lat="37.4852252" lon="14.3861609"><ele>568.0</ele><time>2026-05-03T07:19:36Z</time></trkpt><trkpt lat="37.4852203" lon="14.3863748"><ele>567.6666666666667</ele><time>2026-05-03T07:19:37Z</time></trkpt><trkpt lat="37.4852185" lon="14.3865821"><ele>567.3333333333334</ele><time>2026-05-03T07:19:38Z</time></trkpt><trkpt lat="37.4852203" lon="14.3867858"><ele>567.0</ele><time>2026-05-03T07:19:39Z</time></trkpt><trkpt lat="37.4852344" lon="14.386996"><ele>564.3333333333334</ele><time>2026-05-03T07:19:40Z</time></trkpt><trkpt lat="37.4852729" lon="14.3872041"><ele>561.6666666666667</ele><time>2026-05-03T07:19:41Z</time></trkpt><trkpt lat="37.4853529" lon="14.3874056"><ele>559.0</ele><time>2026-05-03T07:19:42Z</time></trkpt><trkpt lat="37.4854383" lon="14.387593"><ele>557.0</ele><time>2026-05-03T07:19:43Z</time></trkpt><trkpt lat="37.4855548" lon="14.3877484"><ele>555.0</ele><time>2026-05-03T07:19:44Z</time></trkpt><trkpt lat="37.4856996" lon="14.3878735"><ele>553.0</ele><time>2026-05-03T07:19:45Z</time></trkpt><trkpt lat="37.4858553" lon="14.3879713"><ele>556.6666666666667</ele><time>2026-05-03T07:19:46Z</time></trkpt><trkpt lat="37.4860193" lon="14.3880363"><ele>560.3333333333334</ele><time>2026-05-03T07:19:47Z</time></trkpt><trkpt lat="37.4861876" lon="14.3880686"><ele>564.0</ele><time>2026-05-03T07:19:48Z</time></trkpt><trkpt lat="37.486361" lon="14.3880866"><ele>564.0</ele><time>2026-05-03T07:19:49Z</time></trkpt><trkpt lat="37.486535" lon="14.3881032"><ele>564.0</ele><time>2026-05-03T07:19:50Z</time></trkpt><trkpt lat="37.4867099" lon="14.3881178"><ele>564.0</ele><time>2026-05-03T07:19:51Z</time></trkpt><trkpt lat="37.4868819" lon="14.3881392"><ele>564.0</ele><time>2026-05-03T07:19:52Z</time></trkpt><trkpt lat="37.4870472" lon="14.3881706"><ele>564.0</ele><time>2026-05-03T07:19:53Z</time></trkpt><trkpt lat="37.487212" lon="14.3882156"><ele>564.0</ele><time>2026-05-03T07:19:54Z</time></trkpt><trkpt lat="37.4873731" lon="14.3882744"><ele>559.6666666666666</ele><time>2026-05-03T07:19:55Z</time></trkpt><trkpt lat="37.4875367" lon="14.3883487"><ele>555.3333333333333</ele><time>2026-05-03T07:19:56Z</time></trkpt><trkpt lat="37.4876937" lon="14.3884386"><ele>551.0</ele><time>2026-05-03T07:19:57Z</time></trkpt><trkpt lat="37.4878449" lon="14.3885475"><ele>551.3333333333333</ele><time>2026-05-03T07:19:58Z</time></trkpt><trkpt lat="37.4880002" lon="14.3886684"><ele>551.6666666666666</ele><time>2026-05-03T07:19:59Z</time></trkpt><trkpt lat="37.4881477" lon="14.3887947"><ele>552.0</ele><time>2026-05-03T07:20:00Z</time></trkpt><trkpt lat="37.4882944" lon="14.3889169"><ele>552.0</ele><time>2026-05-03T07:20:01Z</time></trkpt><trkpt lat="37.4884531" lon="14.3890285"><ele>552.0</ele><time>2026-05-03T07:20:02Z</time></trkpt><trkpt lat="37.4886128" lon="14.3891129"><ele>552.0</ele><time>2026-05-03T07:20:03Z</time></trkpt><trkpt lat="37.4887796" lon="14.389163"><ele>548.6666666666666</ele><time>2026-05-03T07:20:04Z</time></trkpt><trkpt lat="37.4889476" lon="14.389176"><ele>545.3333333333333</ele><time>2026-05-03T07:20:05Z</time></trkpt><trkpt lat="37.4891112" lon="14.3891583"><ele>542.0</ele><time>2026-05-03T07:20:06Z</time></trkpt><trkpt lat="37.4892802" lon="14.3891065"><ele>542.0</ele><time>2026-05-03T07:20:07Z</time></trkpt><trkpt lat="37.4894323" lon="14.3890252"><ele>542.0</ele><time>2026-05-03T07:20:08Z</time></trkpt><trkpt lat="37.4895801" lon="14.388908"><ele>542.0</ele><time>2026-05-03T07:20:09Z</time></trkpt><trkpt lat="37.48973" lon="14.3887773"><ele>542.3333333333333</ele><time>2026-05-03T07:20:10Z</time></trkpt><trkpt lat="37.4898832" lon="14.3886386"><ele>542.6666666666666</ele><time>2026-05-03T07:20:11Z</time></trkpt><trkpt lat="37.490041" lon="14.3884959"><ele>543.0</ele><time>2026-05-03T07:20:12Z</time></trkpt><trkpt lat="37.4901992" lon="14.3883469"><ele>543.0</ele><time>2026-05-03T07:20:13Z</time></trkpt><trkpt lat="37.4903605" lon="14.3881952"><ele>543.0</ele><time>2026-05-03T07:20:14Z</time></trkpt><trkpt lat="37.4905253" lon="14.3880435"><ele>543.0</ele><time>2026-05-03T07:20:15Z</time></trkpt><trkpt lat="37.490684" lon="14.3879001"><ele>541.0</ele><time>2026-05-03T07:20:16Z</time></trkpt><trkpt lat="37.4908424" lon="14.3877556"><ele>539.0</ele><time>2026-05-03T07:20:17Z</time></trkpt><trkpt lat="37.4910031" lon="14.38762"><ele>537.0</ele><time>2026-05-03T07:20:18Z</time></trkpt><trkpt lat="37.4911538" lon="14.387487"><ele>539.0</ele><time>2026-05-03T07:20:18.999Z</time></trkpt><trkpt lat="37.4913004" lon="14.3873394"><ele>541.0</ele><time>2026-05-03T07:20:20Z</time></trkpt><trkpt lat="37.491438" lon="14.3871713"><ele>543.0</ele><time>2026-05-03T07:20:21Z</time></trkpt><trkpt lat="37.4915416" lon="14.386977"><ele>543.6666666666666</ele><time>2026-05-03T07:20:22Z</time></trkpt><trkpt lat="37.4916093" lon="14.3867525"><ele>544.3333333333333</ele><time>2026-05-03T07:20:23Z</time></trkpt><trkpt lat="37.4916501" lon="14.3864938"><ele>545.0</ele><time>2026-05-03T07:20:24Z</time></trkpt><trkpt lat="37.4916684" lon="14.3862161"><ele>548.0</ele><time>2026-05-03T07:20:25Z</time></trkpt><trkpt lat="37.4916824" lon="14.3859252"><ele>551.0</ele><time>2026-05-03T07:20:25.999Z</time></trkpt><trkpt lat="37.4917004" lon="14.3856234"><ele>548.0</ele><time>2026-05-03T07:20:27Z</time></trkpt><trkpt lat="37.4917214" lon="14.3853378"><ele>545.0</ele><time>2026-05-03T07:20:28Z</time></trkpt><trkpt lat="37.4917534" lon="14.3850567"><ele>545.0</ele><time>2026-05-03T07:20:29Z</time></trkpt><trkpt lat="37.4918181" lon="14.3847843"><ele>545.0</ele><time>2026-05-03T07:20:30Z</time></trkpt><trkpt lat="37.4919073" lon="14.3845233"><ele>541.3333333333333</ele><time>2026-05-03T07:20:31Z</time></trkpt><trkpt lat="37.4920204" lon="14.3842934"><ele>537.6666666666666</ele><time>2026-05-03T07:20:32Z</time></trkpt><trkpt lat="37.4921519" lon="14.3840939"><ele>534.0</ele><time>2026-05-03T07:20:33Z</time></trkpt><trkpt lat="37.492303" lon="14.3839012"><ele>538.5</ele><time>2026-05-03T07:20:34Z</time></trkpt><trkpt lat="37.4924702" lon="14.3837137"><ele>543.0</ele><time>2026-05-03T07:20:35Z</time></trkpt><trkpt lat="37.4926487" lon="14.3835173"><ele>543.0</ele><time>2026-05-03T07:20:36Z</time></trkpt><trkpt lat="37.492829" lon="14.3833168"><ele>543.0</ele><time>2026-05-03T07:20:37Z</time></trkpt><trkpt lat="37.493012" lon="14.3831143"><ele>543.0</ele><time>2026-05-03T07:20:38Z</time></trkpt><trkpt lat="37.4931967" lon="14.3829148"><ele>543.0</ele><time>2026-05-03T07:20:39Z</time></trkpt><trkpt lat="37.493377" lon="14.3827161"><ele>543.0</ele><time>2026-05-03T07:20:40Z</time></trkpt><trkpt lat="37.4935552" lon="14.3825207"><ele>543.0</ele><time>2026-05-03T07:20:41Z</time></trkpt><trkpt lat="37.4937303" lon="14.3823351"><ele>543.0</ele><time>2026-05-03T07:20:42Z</time></trkpt><trkpt lat="37.4938994" lon="14.3821686"><ele>543.0</ele><time>2026-05-03T07:20:43Z</time></trkpt><trkpt lat="37.4940864" lon="14.382032"><ele>543.0</ele><time>2026-05-03T07:20:44Z</time></trkpt><trkpt lat="37.4942835" lon="14.381933"><ele>543.0</ele><time>2026-05-03T07:20:45Z</time></trkpt><trkpt lat="37.4944852" lon="14.3818691"><ele>543.0</ele><time>2026-05-03T07:20:46Z</time></trkpt><trkpt lat="37.4946924" lon="14.3818458"><ele>543.0</ele><time>2026-05-03T07:20:47Z</time></trkpt><trkpt lat="37.4948961" lon="14.3818699"><ele>541.3333333333334</ele><time>2026-05-03T07:20:48Z</time></trkpt><trkpt lat="37.4950936" lon="14.3819291"><ele>539.6666666666667</ele><time>2026-05-03T07:20:49Z</time></trkpt><trkpt lat="37.4952824" lon="14.3820231"><ele>538.0</ele><time>2026-05-03T07:20:50Z</time></trkpt><trkpt lat="37.4954677" lon="14.3821509"><ele>544.0</ele><time>2026-05-03T07:20:51Z</time></trkpt><trkpt lat="37.4956344" lon="14.3823039"><ele>550.0</ele><time>2026-05-03T07:20:52Z</time></trkpt><trkpt lat="37.4957881" lon="14.3824876"><ele>556.0</ele><time>2026-05-03T07:20:53Z</time></trkpt><trkpt lat="37.495926" lon="14.3827037"><ele>556.0</ele><time>2026-05-03T07:20:54Z</time></trkpt><trkpt lat="37.496058" lon="14.3829241"><ele>556.0</ele><time>2026-05-03T07:20:55Z</time></trkpt><trkpt lat="37.4962028" lon="14.3831397"><ele>556.0</ele><time>2026-05-03T07:20:56Z</time></trkpt><trkpt lat="37.4963473" lon="14.3833517"><ele>557.0</ele><time>2026-05-03T07:20:57Z</time></trkpt><trkpt lat="37.4964903" lon="14.3835541"><ele>558.0</ele><time>2026-05-03T07:20:58Z</time></trkpt><trkpt lat="37.4966558" lon="14.3837511"><ele>559.0</ele><time>2026-05-03T07:20:59Z</time></trkpt><trkpt lat="37.4968341" lon="14.3839379"><ele>559.0</ele><time>2026-05-03T07:21:00Z</time></trkpt><trkpt lat="37.497013" lon="14.3841027"><ele>559.0</ele><time>2026-05-03T07:21:01Z</time></trkpt><trkpt lat="37.4971961" lon="14.3842568"><ele>559.0</ele><time>2026-05-03T07:21:02Z</time></trkpt><trkpt lat="37.4973863" lon="14.384405"><ele>559.6666666666667</ele><time>2026-05-03T07:21:03Z</time></trkpt><trkpt lat="37.4975717" lon="14.3845336"><ele>560.3333333333334</ele><time>2026-05-03T07:21:04Z</time></trkpt><trkpt lat="37.4977568" lon="14.384653"><ele>561.0</ele><time>2026-05-03T07:21:05Z</time></trkpt><trkpt lat="37.4979401" lon="14.3847589"><ele>561.0</ele><time>2026-05-03T07:21:06Z</time></trkpt><trkpt lat="37.4981247" lon="14.3848616"><ele>561.0</ele><time>2026-05-03T07:21:07Z</time></trkpt><trkpt lat="37.4983221" lon="14.3849607"><ele>561.0</ele><time>2026-05-03T07:21:08Z</time></trkpt><trkpt lat="37.4985034" lon="14.3850556"><ele>561.0</ele><time>2026-05-03T07:21:09Z</time></trkpt><trkpt lat="37.4986777" lon="14.3851549"><ele>561.0</ele><time>2026-05-03T07:21:10Z</time></trkpt><trkpt lat="37.4988526" lon="14.3852686"><ele>561.0</ele><time>2026-05-03T07:21:11Z</time></trkpt><trkpt lat="37.4990087" lon="14.385406"><ele>564.6666666666666</ele><time>2026-05-03T07:21:12Z</time></trkpt><trkpt lat="37.4991358" lon="14.3855674"><ele>568.3333333333333</ele><time>2026-05-03T07:21:13Z</time></trkpt><trkpt lat="37.4992491" lon="14.3857484"><ele>572.0</ele><time>2026-05-03T07:21:14Z</time></trkpt><trkpt lat="37.4993424" lon="14.3859491"><ele>572.0</ele><time>2026-05-03T07:21:15Z</time></trkpt><trkpt lat="37.4994068" lon="14.386158"><ele>572.0</ele><time>2026-05-03T07:21:16Z</time></trkpt><trkpt lat="37.4994442" lon="14.3863835"><ele>572.0</ele><time>2026-05-03T07:21:17Z</time></trkpt><trkpt lat="37.499459" lon="14.3866056"><ele>573.0</ele><time>2026-05-03T07:21:18Z</time></trkpt><trkpt lat="37.4994523" lon="14.3868387"><ele>574.0</ele><time>2026-05-03T07:21:19Z</time></trkpt><trkpt lat="37.4994195" lon="14.387068"><ele>575.0</ele><time>2026-05-03T07:21:20Z</time></trkpt><trkpt lat="37.4993763" lon="14.3872921"><ele>575.0</ele><time>2026-05-03T07:21:21Z</time></trkpt><trkpt lat="37.4992629" lon="14.3875058"><ele>575.0</ele><time>2026-05-03T07:21:22Z</time></trkpt><trkpt lat="37.4991614" lon="14.3877011"><ele>575.0</ele><time>2026-05-03T07:21:23Z</time></trkpt><trkpt lat="37.4990499" lon="14.3878874"><ele>576.0</ele><time>2026-05-03T07:21:24Z</time></trkpt><trkpt lat="37.498939" lon="14.3880684"><ele>577.0</ele><time>2026-05-03T07:21:25Z</time></trkpt><trkpt lat="37.4988231" lon="14.3882469"><ele>578.0</ele><time>2026-05-03T07:21:26Z</time></trkpt><trkpt lat="37.4987184" lon="14.388422"><ele>578.0</ele><time>2026-05-03T07:21:27Z</time></trkpt><trkpt lat="37.4986181" lon="14.3886024"><ele>578.0</ele><time>2026-05-03T07:21:28Z</time></trkpt><trkpt lat="37.4985261" lon="14.3887907"><ele>578.0</ele><time>2026-05-03T07:21:29Z</time></trkpt><trkpt lat="37.4984497" lon="14.3889923"><ele>576.0</ele><time>2026-05-03T07:21:30Z</time></trkpt><trkpt lat="37.4983903" lon="14.3892055"><ele>574.0</ele><time>2026-05-03T07:21:31Z</time></trkpt><trkpt lat="37.4983443" lon="14.3894307"><ele>572.0</ele><time>2026-05-03T07:21:32Z</time></trkpt><trkpt lat="37.4983207" lon="14.3896526"><ele>572.0</ele><time>2026-05-03T07:21:33Z</time></trkpt><trkpt lat="37.4983107" lon="14.3898736"><ele>572.0</ele><time>2026-05-03T07:21:34Z</time></trkpt><trkpt lat="37.4983179" lon="14.3900946"><ele>572.0</ele><time>2026-05-03T07:21:35Z</time></trkpt><trkpt lat="37.4983424" lon="14.3903124"><ele>573.0</ele><time>2026-05-03T07:21:36Z</time></trkpt><trkpt lat="37.4983849" lon="14.3905285"><ele>574.0</ele><time>2026-05-03T07:21:37Z</time></trkpt><trkpt lat="37.4984401" lon="14.3907465"><ele>575.0</ele><time>2026-05-03T07:21:38Z</time></trkpt><trkpt lat="37.4985108" lon="14.3909551"><ele>575.0</ele><time>2026-05-03T07:21:39Z</time></trkpt><trkpt lat="37.4985966" lon="14.3911605"><ele>575.0</ele><time>2026-05-03T07:21:40Z</time></trkpt><trkpt lat="37.4987013" lon="14.3913587"><ele>575.0</ele><time>2026-05-03T07:21:41Z</time></trkpt><trkpt lat="37.4988227" lon="14.3915411"><ele>572.3333333333333</ele><time>2026-05-03T07:21:42Z</time></trkpt><trkpt lat="37.498961" lon="14.3917111"><ele>569.6666666666666</ele><time>2026-05-03T07:21:43Z</time></trkpt><trkpt lat="37.4991125" lon="14.3918613"><ele>567.0</ele><time>2026-05-03T07:21:44Z</time></trkpt><trkpt lat="37.499276" lon="14.3919951"><ele>567.0</ele><time>2026-05-03T07:21:45Z</time></trkpt><trkpt lat="37.4994437" lon="14.3920995"><ele>567.0</ele><time>2026-05-03T07:21:46Z</time></trkpt><trkpt lat="37.4996232" lon="14.3921853"><ele>567.0</ele><time>2026-05-03T07:21:47Z</time></trkpt><trkpt lat="37.4998085" lon="14.3922597"><ele>565.0</ele><time>2026-05-03T07:21:48Z</time></trkpt><trkpt lat="37.4999917" lon="14.3923328"><ele>563.0</ele><time>2026-05-03T07:21:49Z</time></trkpt><trkpt lat="37.5001717" lon="14.3924078"><ele>561.0</ele><time>2026-05-03T07:21:50Z</time></trkpt><trkpt lat="37.50035" lon="14.3924863"><ele>560.6666666666666</ele><time>2026-05-03T07:21:51Z</time></trkpt><trkpt lat="37.5005301" lon="14.3925614"><ele>560.3333333333333</ele><time>2026-05-03T07:21:52Z</time></trkpt><trkpt lat="37.5007044" lon="14.3926368"><ele>560.0</ele><time>2026-05-03T07:21:53Z</time></trkpt><trkpt lat="37.5008776" lon="14.3927097"><ele>560.0</ele><time>2026-05-03T07:21:54Z</time></trkpt><trkpt lat="37.5010452" lon="14.3927694"><ele>560.0</ele><time>2026-05-03T07:21:55Z</time></trkpt><trkpt lat="37.5012112" lon="14.3928049"><ele>560.0</ele><time>2026-05-03T07:21:56Z</time></trkpt><trkpt lat="37.5013759" lon="14.392794"><ele>558.3333333333333</ele><time>2026-05-03T07:21:57Z</time></trkpt><trkpt lat="37.5015319" lon="14.3927388"><ele>556.6666666666666</ele><time>2026-05-03T07:21:58Z</time></trkpt><trkpt lat="37.501669" lon="14.3926488"><ele>555.0</ele><time>2026-05-03T07:21:59Z</time></trkpt><trkpt lat="37.5017931" lon="14.3925255"><ele>555.0</ele><time>2026-05-03T07:22:00Z</time></trkpt><trkpt lat="37.5018995" lon="14.3923754"><ele>555.0</ele><time>2026-05-03T07:22:01Z</time></trkpt><trkpt lat="37.5019805" lon="14.3922024"><ele>555.0</ele><time>2026-05-03T07:22:02Z</time></trkpt><trkpt lat="37.5020452" lon="14.392019"><ele>548.0</ele><time>2026-05-03T07:22:03Z</time></trkpt><trkpt lat="37.5021012" lon="14.3918252"><ele>541.0</ele><time>2026-05-03T07:22:04Z</time></trkpt><trkpt lat="37.5021537" lon="14.391632"><ele>534.0</ele><time>2026-05-03T07:22:05Z</time></trkpt><trkpt lat="37.5021938" lon="14.3914276"><ele>534.0</ele><time>2026-05-03T07:22:06Z</time></trkpt><trkpt lat="37.5022211" lon="14.3912147"><ele>534.0</ele><time>2026-05-03T07:22:07Z</time></trkpt><trkpt lat="37.5022301" lon="14.3909988"><ele>534.0</ele><time>2026-05-03T07:22:08Z</time></trkpt><trkpt lat="37.50223" lon="14.3907825"><ele>534.0</ele><time>2026-05-03T07:22:09Z</time></trkpt><trkpt lat="37.5022158" lon="14.3905583"><ele>534.0</ele><time>2026-05-03T07:22:10Z</time></trkpt><trkpt lat="37.5021823" lon="14.3903447"><ele>534.0</ele><time>2026-05-03T07:22:11Z</time></trkpt><trkpt lat="37.5021335" lon="14.3901291"><ele>533.6666666666666</ele><time>2026-05-03T07:22:12Z</time></trkpt><trkpt lat="37.5020771" lon="14.3899139"><ele>533.3333333333333</ele><time>2026-05-03T07:22:13Z</time></trkpt><trkpt lat="37.5020267" lon="14.3896962"><ele>533.0</ele><time>2026-05-03T07:22:14Z</time></trkpt><trkpt lat="37.5019751" lon="14.3894857"><ele>533.0</ele><time>2026-05-03T07:22:14.999Z</time></trkpt><trkpt lat="37.5019339" lon="14.3892844"><ele>533.0</ele><time>2026-05-03T07:22:16Z</time></trkpt><trkpt lat="37.5019137" lon="14.3890979"><ele>533.0</ele><time>2026-05-03T07:22:17Z</time></trkpt><trkpt lat="37.5019115" lon="14.3889219"><ele>532.5</ele><time>2026-05-03T07:22:18Z</time></trkpt><trkpt lat="37.5019304" lon="14.3887695"><ele>532.0</ele><time>2026-05-03T07:22:19Z</time></trkpt><trkpt lat="37.5019638" lon="14.3886238"><ele>531.5</ele><time>2026-05-03T07:22:20Z</time></trkpt><trkpt lat="37.5020111" lon="14.3884809"><ele>531.0</ele><time>2026-05-03T07:22:21Z</time></trkpt><trkpt lat="37.5020677" lon="14.3883502"><ele>528.8</ele><time>2026-05-03T07:22:22Z</time></trkpt><trkpt lat="37.502123" lon="14.3882227"><ele>526.6</ele><time>2026-05-03T07:22:23Z</time></trkpt><trkpt lat="37.5021914" lon="14.388111"><ele>524.4</ele><time>2026-05-03T07:22:24Z</time></trkpt><trkpt lat="37.502267" lon="14.3880083"><ele>522.2</ele><time>2026-05-03T07:22:25Z</time></trkpt><trkpt lat="37.5023432" lon="14.3879164"><ele>520.0</ele><time>2026-05-03T07:22:26Z</time></trkpt><trkpt lat="37.5024366" lon="14.3878407"><ele>520.0</ele><time>2026-05-03T07:22:27Z</time></trkpt><trkpt lat="37.5025537" lon="14.3877684"><ele>520.0</ele><time>2026-05-03T07:22:27.999Z</time></trkpt><trkpt lat="37.5026807" lon="14.387706"><ele>520.0</ele><time>2026-05-03T07:22:29Z</time></trkpt><trkpt lat="37.5028113" lon="14.3876448"><ele>520.0</ele><time>2026-05-03T07:22:30Z</time></trkpt><trkpt lat="37.5029518" lon="14.3875817"><ele>517.0</ele><time>2026-05-03T07:22:31Z</time></trkpt><trkpt lat="37.5030964" lon="14.3875193"><ele>514.0</ele><time>2026-05-03T07:22:32Z</time></trkpt><trkpt lat="37.5032454" lon="14.3874538"><ele>511.0</ele><time>2026-05-03T07:22:33Z</time></trkpt><trkpt lat="37.5033915" lon="14.3873849"><ele>511.0</ele><time>2026-05-03T07:22:34Z</time></trkpt><trkpt lat="37.5035283" lon="14.3873216"><ele>511.0</ele><time>2026-05-03T07:22:35Z</time></trkpt><trkpt lat="37.5036821" lon="14.387247"><ele>511.0</ele><time>2026-05-03T07:22:36Z</time></trkpt><trkpt lat="37.5038375" lon="14.3871737"><ele>509.33333333333337</ele><time>2026-05-03T07:22:37Z</time></trkpt><trkpt lat="37.5039984" lon="14.3870932"><ele>507.66666666666663</ele><time>2026-05-03T07:22:38Z</time></trkpt><trkpt lat="37.5041721" lon="14.3870003"><ele>506.0</ele><time>2026-05-03T07:22:39Z</time></trkpt><trkpt lat="37.504378" lon="14.3868995"><ele>502.5</ele><time>2026-05-03T07:22:40Z</time></trkpt><trkpt lat="37.5046109" lon="14.3867988"><ele>499.0</ele><time>2026-05-03T07:22:41Z</time></trkpt><trkpt lat="37.5048382" lon="14.3867019"><ele>499.0</ele><time>2026-05-03T07:22:42Z</time></trkpt><trkpt lat="37.5050462" lon="14.3866294"><ele>499.0</ele><time>2026-05-03T07:22:43Z</time></trkpt><trkpt lat="37.5052412" lon="14.3865692"><ele>499.0</ele><time>2026-05-03T07:22:44Z</time></trkpt><trkpt lat="37.5054335" lon="14.3865199"><ele>498.6666666666667</ele><time>2026-05-03T07:22:45Z</time></trkpt><trkpt lat="37.5056134" lon="14.386488"><ele>498.33333333333337</ele><time>2026-05-03T07:22:46Z</time></trkpt><trkpt lat="37.5057902" lon="14.3864877"><ele>498.0</ele><time>2026-05-03T07:22:47Z</time></trkpt><trkpt lat="37.5059702" lon="14.3865096"><ele>498.0</ele><time>2026-05-03T07:22:48Z</time></trkpt><trkpt lat="37.506147" lon="14.3865515"><ele>498.0</ele><time>2026-05-03T07:22:49Z</time></trkpt><trkpt lat="37.506325" lon="14.3866151"><ele>498.0</ele><time>2026-05-03T07:22:50Z</time></trkpt><trkpt lat="37.5064923" lon="14.3867115"><ele>499.0</ele><time>2026-05-03T07:22:51Z</time></trkpt><trkpt lat="37.5066604" lon="14.3868256"><ele>500.0</ele><time>2026-05-03T07:22:52Z</time></trkpt><trkpt lat="37.5068253" lon="14.3869526"><ele>501.0</ele><time>2026-05-03T07:22:53Z</time></trkpt><trkpt lat="37.5069917" lon="14.3870782"><ele>501.0</ele><time>2026-05-03T07:22:54Z</time></trkpt><trkpt lat="37.5071511" lon="14.3871984"><ele>501.0</ele><time>2026-05-03T07:22:55Z</time></trkpt><trkpt lat="37.5073109" lon="14.3873138"><ele>501.0</ele><time>2026-05-03T07:22:56Z</time></trkpt><trkpt lat="37.5074729" lon="14.3874335"><ele>501.0</ele><time>2026-05-03T07:22:57Z</time></trkpt><trkpt lat="37.5076423" lon="14.3875563"><ele>501.0</ele><time>2026-05-03T07:22:58Z</time></trkpt><trkpt lat="37.5078148" lon="14.387682"><ele>501.0</ele><time>2026-05-03T07:22:59Z</time></trkpt><trkpt lat="37.5079873" lon="14.3878117"><ele>499.66666666666663</ele><time>2026-05-03T07:23:00Z</time></trkpt><trkpt lat="37.508153" lon="14.3879348"><ele>498.3333333333333</ele><time>2026-05-03T07:23:01Z</time></trkpt><trkpt lat="37.5083253" lon="14.3880486"><ele>497.0</ele><time>2026-05-03T07:23:02Z</time></trkpt><trkpt lat="37.5084901" lon="14.3881571"><ele>497.0</ele><time>2026-05-03T07:23:03Z</time></trkpt><trkpt lat="37.5086625" lon="14.3882524"><ele>497.0</ele><time>2026-05-03T07:23:04Z</time></trkpt><trkpt lat="37.5088431" lon="14.388338"><ele>497.0</ele><time>2026-05-03T07:23:05Z</time></trkpt><trkpt lat="37.5090232" lon="14.3884142"><ele>500.0</ele><time>2026-05-03T07:23:06Z</time></trkpt><trkpt lat="37.5092053" lon="14.388482"><ele>503.0</ele><time>2026-05-03T07:23:07Z</time></trkpt><trkpt lat="37.5093908" lon="14.388545"><ele>506.0</ele><time>2026-05-03T07:23:08Z</time></trkpt><trkpt lat="37.5095791" lon="14.3886122"><ele>508.3333333333333</ele><time>2026-05-03T07:23:09Z</time></trkpt><trkpt lat="37.5097806" lon="14.3886743"><ele>510.66666666666663</ele><time>2026-05-03T07:23:10Z</time></trkpt><trkpt lat="37.5100021" lon="14.3887432"><ele>513.0</ele><time>2026-05-03T07:23:11Z</time></trkpt><trkpt lat="37.5102425" lon="14.3888117"><ele>510.0</ele><time>2026-05-03T07:23:12Z</time></trkpt><trkpt lat="37.5104811" lon="14.3888987"><ele>507.0</ele><time>2026-05-03T07:23:13Z</time></trkpt><trkpt lat="37.5107136" lon="14.3889789"><ele>507.0</ele><time>2026-05-03T07:23:14Z</time></trkpt><trkpt lat="37.5109365" lon="14.3890656"><ele>507.0</ele><time>2026-05-03T07:23:15Z</time></trkpt><trkpt lat="37.5111603" lon="14.3891482"><ele>507.5</ele><time>2026-05-03T07:23:16Z</time></trkpt><trkpt lat="37.5113838" lon="14.3892214"><ele>508.0</ele><time>2026-05-03T07:23:17Z</time></trkpt><trkpt lat="37.5115973" lon="14.3893002"><ele>508.0</ele><time>2026-05-03T07:23:18Z</time></trkpt><trkpt lat="37.5118039" lon="14.3893785"><ele>508.0</ele><time>2026-05-03T07:23:19Z</time></trkpt><trkpt lat="37.5120102" lon="14.3894568"><ele>508.0</ele><time>2026-05-03T07:23:20Z</time></trkpt><trkpt lat="37.5122158" lon="14.3895461"><ele>505.6666666666667</ele><time>2026-05-03T07:23:21Z</time></trkpt><trkpt lat="37.5124164" lon="14.3896531"><ele>503.33333333333337</ele><time>2026-05-03T07:23:22Z</time></trkpt><trkpt lat="37.5126171" lon="14.3897724"><ele>501.0</ele><time>2026-05-03T07:23:23Z</time></trkpt><trkpt lat="37.512817" lon="14.3898952"><ele>500.33333333333337</ele><time>2026-05-03T07:23:24Z</time></trkpt><trkpt lat="37.5130143" lon="14.3900244"><ele>499.6666666666667</ele><time>2026-05-03T07:23:25Z</time></trkpt><trkpt lat="37.5132059" lon="14.390166"><ele>499.0</ele><time>2026-05-03T07:23:26Z</time></trkpt><trkpt lat="37.5134015" lon="14.3903095"><ele>499.0</ele><time>2026-05-03T07:23:27Z</time></trkpt><trkpt lat="37.5135852" lon="14.3904428"><ele>499.0</ele><time>2026-05-03T07:23:28Z</time></trkpt><trkpt lat="37.5137698" lon="14.390569"><ele>499.0</ele><time>2026-05-03T07:23:29Z</time></trkpt><trkpt lat="37.5139538" lon="14.3906945"><ele>495.33333333333337</ele><time>2026-05-03T07:23:30Z</time></trkpt><trkpt lat="37.5141419" lon="14.3908147"><ele>491.66666666666663</ele><time>2026-05-03T07:23:31Z</time></trkpt><trkpt lat="37.5143445" lon="14.3909215"><ele>488.0</ele><time>2026-05-03T07:23:32Z</time></trkpt><trkpt lat="37.5145496" lon="14.3910173"><ele>488.3333333333333</ele><time>2026-05-03T07:23:33Z</time></trkpt><trkpt lat="37.5147563" lon="14.3911027"><ele>488.66666666666663</ele><time>2026-05-03T07:23:34Z</time></trkpt><trkpt lat="37.5149713" lon="14.3911679"><ele>489.0</ele><time>2026-05-03T07:23:35Z</time></trkpt><trkpt lat="37.5151903" lon="14.3912157"><ele>486.0</ele><time>2026-05-03T07:23:36Z</time></trkpt><trkpt lat="37.5154112" lon="14.3912429"><ele>483.0</ele><time>2026-05-03T07:23:37Z</time></trkpt><trkpt lat="37.5156375" lon="14.3912519"><ele>480.0</ele><time>2026-05-03T07:23:38Z</time></trkpt><trkpt lat="37.5158626" lon="14.3912479"><ele>480.0</ele><time>2026-05-03T07:23:39Z</time></trkpt><trkpt lat="37.5160843" lon="14.391226"><ele>480.0</ele><time>2026-05-03T07:23:40Z</time></trkpt><trkpt lat="37.5163063" lon="14.3911884"><ele>480.0</ele><time>2026-05-03T07:23:41Z</time></trkpt><trkpt lat="37.5165252" lon="14.3911351"><ele>477.0</ele><time>2026-05-03T07:23:42Z</time></trkpt><trkpt lat="37.5167404" lon="14.3910767"><ele>474.0</ele><time>2026-05-03T07:23:43Z</time></trkpt><trkpt lat="37.5169579" lon="14.3910075"><ele>471.0</ele><time>2026-05-03T07:23:44Z</time></trkpt><trkpt lat="37.5171692" lon="14.3909323"><ele>468.0</ele><time>2026-05-03T07:23:45Z</time></trkpt><trkpt lat="37.5173854" lon="14.3908569"><ele>465.0</ele><time>2026-05-03T07:23:46Z</time></trkpt><trkpt lat="37.5176001" lon="14.3907874"><ele>462.0</ele><time>2026-05-03T07:23:47Z</time></trkpt><trkpt lat="37.5178256" lon="14.3907315"><ele>459.66666666666663</ele><time>2026-05-03T07:23:48Z</time></trkpt><trkpt lat="37.5180478" lon="14.390696"><ele>457.3333333333333</ele><time>2026-05-03T07:23:49Z</time></trkpt><trkpt lat="37.5182713" lon="14.3906723"><ele>455.0</ele><time>2026-05-03T07:23:50Z</time></trkpt><trkpt lat="37.5184902" lon="14.3906678"><ele>455.0</ele><time>2026-05-03T07:23:51Z</time></trkpt><trkpt lat="37.5187092" lon="14.3906798"><ele>455.0</ele><time>2026-05-03T07:23:52Z</time></trkpt><trkpt lat="37.5189311" lon="14.390712"><ele>455.0</ele><time>2026-05-03T07:23:53Z</time></trkpt><trkpt lat="37.5191518" lon="14.3907781"><ele>452.3333333333333</ele><time>2026-05-03T07:23:53.999Z</time></trkpt><trkpt lat="37.5193611" lon="14.3908566"><ele>449.66666666666663</ele><time>2026-05-03T07:23:55Z</time></trkpt><trkpt lat="37.51957" lon="14.390955"><ele>447.0</ele><time>2026-05-03T07:23:56Z</time></trkpt><trkpt lat="37.519773" lon="14.3910646"><ele>444.0</ele><time>2026-05-03T07:23:57Z</time></trkpt><trkpt lat="37.5199621" lon="14.3911861"><ele>441.0</ele><time>2026-05-03T07:23:58Z</time></trkpt><trkpt lat="37.5201488" lon="14.3913157"><ele>438.0</ele><time>2026-05-03T07:23:59Z</time></trkpt><trkpt lat="37.5203232" lon="14.3914595"><ele>436.33333333333337</ele><time>2026-05-03T07:24:00Z</time></trkpt><trkpt lat="37.5204915" lon="14.3916158"><ele>434.6666666666667</ele><time>2026-05-03T07:24:01Z</time></trkpt><trkpt lat="37.5206574" lon="14.3917907"><ele>433.0</ele><time>2026-05-03T07:24:02Z</time></trkpt><trkpt lat="37.520833" lon="14.3919777"><ele>429.5</ele><time>2026-05-03T07:24:03Z</time></trkpt><trkpt lat="37.5210285" lon="14.3921801"><ele>426.0</ele><time>2026-05-03T07:24:04Z</time></trkpt><trkpt lat="37.5212229" lon="14.3923972"><ele>424.5</ele><time>2026-05-03T07:24:05Z</time></trkpt><trkpt lat="37.5214313" lon="14.3926354"><ele>423.0</ele><time>2026-05-03T07:24:06Z</time></trkpt><trkpt lat="37.5216568" lon="14.392894"><ele>422.0</ele><time>2026-05-03T07:24:07Z</time></trkpt><trkpt lat="37.5219008" lon="14.3931725"><ele>421.0</ele><time>2026-05-03T07:24:08Z</time></trkpt><trkpt lat="37.5221462" lon="14.3934711"><ele>417.5</ele><time>2026-05-03T07:24:09Z</time></trkpt><trkpt lat="37.52238" lon="14.3937696"><ele>414.0</ele><time>2026-05-03T07:24:10Z</time></trkpt><trkpt lat="37.5226169" lon="14.3940647"><ele>413.5</ele><time>2026-05-03T07:24:11Z</time></trkpt><trkpt lat="37.5228532" lon="14.3943431"><ele>413.0</ele><time>2026-05-03T07:24:12Z</time></trkpt><trkpt lat="37.5230842" lon="14.3946083"><ele>408.5</ele><time>2026-05-03T07:24:13Z</time></trkpt><trkpt lat="37.5233168" lon="14.3948739"><ele>404.0</ele><time>2026-05-03T07:24:14Z</time></trkpt><trkpt lat="37.5235484" lon="14.3951385"><ele>402.0</ele><time>2026-05-03T07:24:15Z</time></trkpt><trkpt lat="37.52377" lon="14.3954009"><ele>400.0</ele><time>2026-05-03T07:24:16Z</time></trkpt><trkpt lat="37.5239963" lon="14.3956602"><ele>399.0</ele><time>2026-05-03T07:24:17Z</time></trkpt><trkpt lat="37.5242178" lon="14.3959114"><ele>398.0</ele><time>2026-05-03T07:24:18Z</time></trkpt><trkpt lat="37.5244403" lon="14.3961682"><ele>397.5</ele><time>2026-05-03T07:24:19Z</time></trkpt><trkpt lat="37.5246747" lon="14.3964386"><ele>397.0</ele><time>2026-05-03T07:24:20Z</time></trkpt><trkpt lat="37.5249335" lon="14.3967186"><ele>397.0</ele><time>2026-05-03T07:24:21Z</time></trkpt><trkpt lat="37.5251902" lon="14.3970042"><ele>397.0</ele><time>2026-05-03T07:24:22Z</time></trkpt><trkpt lat="37.525442" lon="14.3973093"><ele>395.5</ele><time>2026-05-03T07:24:23Z</time></trkpt><trkpt lat="37.52568" lon="14.3976195"><ele>394.0</ele><time>2026-05-03T07:24:24Z</time></trkpt><trkpt lat="37.5259214" lon="14.3979064"><ele>393.5</ele><time>2026-05-03T07:24:25Z</time></trkpt><trkpt lat="37.5261605" lon="14.3981814"><ele>393.0</ele><time>2026-05-03T07:24:26Z</time></trkpt><trkpt lat="37.5263966" lon="14.3984542"><ele>393.0</ele><time>2026-05-03T07:24:27Z</time></trkpt><trkpt lat="37.5266265" lon="14.3987185"><ele>393.0</ele><time>2026-05-03T07:24:28Z</time></trkpt><trkpt lat="37.5268503" lon="14.3989793"><ele>392.0</ele><time>2026-05-03T07:24:29Z</time></trkpt><trkpt lat="37.5270719" lon="14.3992298"><ele>391.0</ele><time>2026-05-03T07:24:29.999Z</time></trkpt><trkpt lat="37.5272935" lon="14.3994819"><ele>388.5</ele><time>2026-05-03T07:24:31Z</time></trkpt><trkpt lat="37.5275086" lon="14.3997323"><ele>386.0</ele><time>2026-05-03T07:24:32Z</time></trkpt><trkpt lat="37.527728" lon="14.3999851"><ele>387.5</ele><time>2026-05-03T07:24:33Z</time></trkpt><trkpt lat="37.5279434" lon="14.4002318"><ele>389.0</ele><time>2026-05-03T07:24:34Z</time></trkpt><trkpt lat="37.5281531" lon="14.400479"><ele>388.0</ele><time>2026-05-03T07:24:35Z</time></trkpt><trkpt lat="37.5283599" lon="14.4007237"><ele>387.0</ele><time>2026-05-03T07:24:36Z</time></trkpt><trkpt lat="37.5285657" lon="14.400965"><ele>388.0</ele><time>2026-05-03T07:24:37Z</time></trkpt><trkpt lat="37.5287724" lon="14.4012075"><ele>389.0</ele><time>2026-05-03T07:24:38Z</time></trkpt><trkpt lat="37.5289759" lon="14.4014493"><ele>389.0</ele><time>2026-05-03T07:24:39Z</time></trkpt><trkpt lat="37.529181" lon="14.4016922"><ele>389.0</ele><time>2026-05-03T07:24:40Z</time></trkpt><trkpt lat="37.5293866" lon="14.4019294"><ele>387.0</ele><time>2026-05-03T07:24:41Z</time></trkpt><trkpt lat="37.5295788" lon="14.4021576"><ele>385.0</ele><time>2026-05-03T07:24:42Z</time></trkpt><trkpt lat="37.5297694" lon="14.4023761"><ele>385.0</ele><time>2026-05-03T07:24:43Z</time></trkpt><trkpt lat="37.5299605" lon="14.4025966"><ele>385.0</ele><time>2026-05-03T07:24:44Z</time></trkpt><trkpt lat="37.5301508" lon="14.4028103"><ele>385.5</ele><time>2026-05-03T07:24:45Z</time></trkpt><trkpt lat="37.5303539" lon="14.403013"><ele>386.0</ele><time>2026-05-03T07:24:46Z</time></trkpt><trkpt lat="37.5305652" lon="14.4031996"><ele>382.0</ele><time>2026-05-03T07:24:47Z</time></trkpt><trkpt lat="37.5307884" lon="14.4033664"><ele>378.0</ele><time>2026-05-03T07:24:48Z</time></trkpt><trkpt lat="37.5310196" lon="14.4035071"><ele>371.5</ele><time>2026-05-03T07:24:49Z</time></trkpt><trkpt lat="37.5312671" lon="14.4036295"><ele>365.0</ele><time>2026-05-03T07:24:50Z</time></trkpt><trkpt lat="37.5315205" lon="14.4037262"><ele>365.0</ele><time>2026-05-03T07:24:51Z</time></trkpt><trkpt lat="37.5317775" lon="14.4037919"><ele>365.0</ele><time>2026-05-03T07:24:52Z</time></trkpt><trkpt lat="37.5320413" lon="14.4038251"><ele>369.0</ele><time>2026-05-03T07:24:53Z</time></trkpt><trkpt lat="37.5323058" lon="14.4038408"><ele>373.0</ele><time>2026-05-03T07:24:54Z</time></trkpt><trkpt lat="37.5325732" lon="14.4038344"><ele>368.5</ele><time>2026-05-03T07:24:55Z</time></trkpt><trkpt lat="37.5328375" lon="14.4037959"><ele>364.0</ele><time>2026-05-03T07:24:56Z</time></trkpt><trkpt lat="37.5331005" lon="14.4037374"><ele>364.0</ele><time>2026-05-03T07:24:57Z</time></trkpt><trkpt lat="37.5333569" lon="14.403658"><ele>364.0</ele><time>2026-05-03T07:24:58Z</time></trkpt><trkpt lat="37.5336039" lon="14.4035672"><ele>358.5</ele><time>2026-05-03T07:24:59Z</time></trkpt><trkpt lat="37.5338536" lon="14.4034651"><ele>353.0</ele><time>2026-05-03T07:25:00Z</time></trkpt><trkpt lat="37.5340978" lon="14.4033724"><ele>353.0</ele><time>2026-05-03T07:25:01Z</time></trkpt><trkpt lat="37.5343546" lon="14.4033054"><ele>353.0</ele><time>2026-05-03T07:25:02Z</time></trkpt><trkpt lat="37.5346171" lon="14.4032625"><ele>348.0</ele><time>2026-05-03T07:25:03Z</time></trkpt><trkpt lat="37.5348793" lon="14.4032541"><ele>343.0</ele><time>2026-05-03T07:25:04Z</time></trkpt><trkpt lat="37.535151" lon="14.4032746"><ele>337.0</ele><time>2026-05-03T07:25:05Z</time></trkpt><trkpt lat="37.5354186" lon="14.4033277"><ele>331.0</ele><time>2026-05-03T07:25:06Z</time></trkpt><trkpt lat="37.5356809" lon="14.4034053"><ele>331.0</ele><time>2026-05-03T07:25:07Z</time></trkpt><trkpt lat="37.5359409" lon="14.4035098"><ele>331.0</ele><time>2026-05-03T07:25:08Z</time></trkpt><trkpt lat="37.5361881" lon="14.4036383"><ele>327.0</ele><time>2026-05-03T07:25:09Z</time></trkpt><trkpt lat="37.5364282" lon="14.4037831"><ele>323.0</ele><time>2026-05-03T07:25:10Z</time></trkpt><trkpt lat="37.5366715" lon="14.4039281"><ele>323.0</ele><time>2026-05-03T07:25:11Z</time></trkpt><trkpt lat="37.5369129" lon="14.4040637"><ele>323.0</ele><time>2026-05-03T07:25:12Z</time></trkpt><trkpt lat="37.5371488" lon="14.4041979"><ele>319.0</ele><time>2026-05-03T07:25:13Z</time></trkpt><trkpt lat="37.5373821" lon="14.4043337"><ele>315.0</ele><time>2026-05-03T07:25:14Z</time></trkpt><trkpt lat="37.5376205" lon="14.4044708"><ele>315.0</ele><time>2026-05-03T07:25:15Z</time></trkpt><trkpt lat="37.5378617" lon="14.4046073"><ele>315.0</ele><time>2026-05-03T07:25:16Z</time></trkpt><trkpt lat="37.5381023" lon="14.4047421"><ele>312.0</ele><time>2026-05-03T07:25:17Z</time></trkpt><trkpt lat="37.538339" lon="14.4048803"><ele>309.0</ele><time>2026-05-03T07:25:18Z</time></trkpt><trkpt lat="37.5385745" lon="14.4050196"><ele>309.0</ele><time>2026-05-03T07:25:19Z</time></trkpt><trkpt lat="37.5387996" lon="14.4051477"><ele>309.0</ele><time>2026-05-03T07:25:20Z</time></trkpt><trkpt lat="37.539029" lon="14.4052777"><ele>309.0</ele><time>2026-05-03T07:25:21Z</time></trkpt><trkpt lat="37.5392607" lon="14.4054061"><ele>309.0</ele><time>2026-05-03T07:25:22Z</time></trkpt><trkpt lat="37.539491" lon="14.4055382"><ele>309.5</ele><time>2026-05-03T07:25:23Z</time></trkpt><trkpt lat="37.5397249" lon="14.405668"><ele>310.0</ele><time>2026-05-03T07:25:24Z</time></trkpt><trkpt lat="37.5399597" lon="14.4057997"><ele>310.0</ele><time>2026-05-03T07:25:25Z</time></trkpt><trkpt lat="37.5401917" lon="14.4059317"><ele>310.0</ele><time>2026-05-03T07:25:26Z</time></trkpt><trkpt lat="37.5404171" lon="14.4060579"><ele>311.0</ele><time>2026-05-03T07:25:27Z</time></trkpt><trkpt lat="37.540628" lon="14.4061806"><ele>312.0</ele><time>2026-05-03T07:25:28Z</time></trkpt><trkpt lat="37.5408258" lon="14.4062958"><ele>312.0</ele><time>2026-05-03T07:25:29Z</time></trkpt><trkpt lat="37.5410128" lon="14.4064019"><ele>312.0</ele><time>2026-05-03T07:25:30Z</time></trkpt><trkpt lat="37.5411805" lon="14.4065007"><ele>312.0</ele><time>2026-05-03T07:25:31Z</time></trkpt><trkpt lat="37.5413256" lon="14.4065829"><ele>312.5</ele><time>2026-05-03T07:25:32Z</time></trkpt><trkpt lat="37.5414309" lon="14.4066674"><ele>313.0</ele><time>2026-05-03T07:25:33Z</time></trkpt><trkpt lat="37.5414992" lon="14.4067869"><ele>313.5</ele><time>2026-05-03T07:25:34Z</time></trkpt><trkpt lat="37.5415224" lon="14.4069316"><ele>314.0</ele><time>2026-05-03T07:25:35Z</time></trkpt><trkpt lat="37.5415053" lon="14.4070647"><ele>313.5</ele><time>2026-05-03T07:25:36Z</time></trkpt><trkpt lat="37.5414414" lon="14.4071789"><ele>313.0</ele><time>2026-05-03T07:25:37Z</time></trkpt><trkpt lat="37.5413376" lon="14.407259"><ele>312.5</ele><time>2026-05-03T07:25:38Z</time></trkpt><trkpt lat="37.541196" lon="14.4073229"><ele>312.0</ele><time>2026-05-03T07:25:39Z</time></trkpt><trkpt lat="37.5410416" lon="14.4073947"><ele>312.0</ele><time>2026-05-03T07:25:40Z</time></trkpt><trkpt lat="37.540883" lon="14.4074556"><ele>312.0</ele><time>2026-05-03T07:25:41Z</time></trkpt><trkpt lat="37.5407278" lon="14.4075213"><ele>312.0</ele><time>2026-05-03T07:25:42Z</time></trkpt><trkpt lat="37.5405806" lon="14.4075788"><ele>312.0</ele><time>2026-05-03T07:25:43Z</time></trkpt><trkpt lat="37.540431" lon="14.407628"><ele>312.0</ele><time>2026-05-03T07:25:44Z</time></trkpt><trkpt lat="37.5402914" lon="14.40767"><ele>312.0</ele><time>2026-05-03T07:25:45Z</time></trkpt><trkpt lat="37.5401666" lon="14.4076763"><ele>312.0</ele><time>2026-05-03T07:25:46Z</time></trkpt><trkpt lat="37.5400629" lon="14.4076535"><ele>311.4</ele><time>2026-05-03T07:25:47Z</time></trkpt><trkpt lat="37.5399757" lon="14.407623"><ele>310.79999999999995</ele><time>2026-05-03T07:25:48Z</time></trkpt><trkpt lat="37.5399017" lon="14.4075882"><ele>310.2</ele><time>2026-05-03T07:25:49Z</time></trkpt><trkpt lat="37.5398029" lon="14.4075436"><ele>309.59999999999997</ele><time>2026-05-03T07:25:51Z</time></trkpt><trkpt lat="37.5396872" lon="14.4075531"><ele>309.0</ele><time>2026-05-03T07:26:00Z</time></trkpt><trkpt lat="37.5395976" lon="14.4076825"><ele>308.59999999999997</ele><time>2026-05-03T07:26:01.999Z</time></trkpt><trkpt lat="37.5395408" lon="14.4077669"><ele>308.2</ele><time>2026-05-03T07:26:03Z</time></trkpt><trkpt lat="37.5394789" lon="14.4078664"><ele>307.79999999999995</ele><time>2026-05-03T07:26:04Z</time></trkpt><trkpt lat="37.5394164" lon="14.4079749"><ele>307.4</ele><time>2026-05-03T07:26:05Z</time></trkpt><trkpt lat="37.5393509" lon="14.4080781"><ele>307.0</ele><time>2026-05-03T07:26:06Z</time></trkpt><trkpt lat="37.5392795" lon="14.4082027"><ele>307.0</ele><time>2026-05-03T07:26:07Z</time></trkpt><trkpt lat="37.5392081" lon="14.4083384"><ele>307.0</ele><time>2026-05-03T07:26:08Z</time></trkpt><trkpt lat="37.5391304" lon="14.4084687"><ele>307.0</ele><time>2026-05-03T07:26:09Z</time></trkpt><trkpt lat="37.5390486" lon="14.4086195"><ele>307.0</ele><time>2026-05-03T07:26:10Z</time></trkpt><trkpt lat="37.5389652" lon="14.4087781"><ele>308.0</ele><time>2026-05-03T07:26:11Z</time></trkpt><trkpt lat="37.5388812" lon="14.4089478"><ele>309.0</ele><time>2026-05-03T07:26:12Z</time></trkpt><trkpt lat="37.5387952" lon="14.4091196"><ele>310.0</ele><time>2026-05-03T07:26:13Z</time></trkpt><trkpt lat="37.5387137" lon="14.4092837"><ele>310.0</ele><time>2026-05-03T07:26:14Z</time></trkpt><trkpt lat="37.5386265" lon="14.4094469"><ele>310.0</ele><time>2026-05-03T07:26:15Z</time></trkpt><trkpt lat="37.5385482" lon="14.4096068"><ele>310.0</ele><time>2026-05-03T07:26:16Z</time></trkpt><trkpt lat="37.5384751" lon="14.4097671"><ele>309.3333333333333</ele><time>2026-05-03T07:26:17Z</time></trkpt><trkpt lat="37.5384024" lon="14.4099395"><ele>308.6666666666667</ele><time>2026-05-03T07:26:18Z</time></trkpt><trkpt lat="37.5383539" lon="14.4101306"><ele>308.0</ele><time>2026-05-03T07:26:19Z</time></trkpt><trkpt lat="37.5383166" lon="14.4103384"><ele>308.0</ele><time>2026-05-03T07:26:20Z</time></trkpt><trkpt lat="37.5383044" lon="14.4105524"><ele>308.0</ele><time>2026-05-03T07:26:21Z</time></trkpt><trkpt lat="37.5383135" lon="14.4107799"><ele>308.0</ele><time>2026-05-03T07:26:22Z</time></trkpt><trkpt lat="37.538328" lon="14.411003"><ele>308.0</ele><time>2026-05-03T07:26:23Z</time></trkpt><trkpt lat="37.5383381" lon="14.4112372"><ele>308.0</ele><time>2026-05-03T07:26:24Z</time></trkpt><trkpt lat="37.5383472" lon="14.4114748"><ele>308.0</ele><time>2026-05-03T07:26:24.999Z</time></trkpt><trkpt lat="37.5383551" lon="14.4117115"><ele>308.0</ele><time>2026-05-03T07:26:26Z</time></trkpt><trkpt lat="37.5383674" lon="14.4119584"><ele>308.0</ele><time>2026-05-03T07:26:27Z</time></trkpt><trkpt lat="37.5383861" lon="14.4122085"><ele>308.0</ele><time>2026-05-03T07:26:28Z</time></trkpt><trkpt lat="37.5384106" lon="14.4124762"><ele>306.5</ele><time>2026-05-03T07:26:29Z</time></trkpt><trkpt lat="37.5384457" lon="14.4127596"><ele>305.0</ele><time>2026-05-03T07:26:30Z</time></trkpt><trkpt lat="37.5384887" lon="14.4130511"><ele>305.0</ele><time>2026-05-03T07:26:31Z</time></trkpt><trkpt lat="37.5385369" lon="14.4133504"><ele>305.0</ele><time>2026-05-03T07:26:32Z</time></trkpt><trkpt lat="37.5385835" lon="14.4136481"><ele>305.0</ele><time>2026-05-03T07:26:33Z</time></trkpt><trkpt lat="37.5386326" lon="14.4139412"><ele>305.0</ele><time>2026-05-03T07:26:34Z</time></trkpt><trkpt lat="37.5386831" lon="14.4142335"><ele>305.0</ele><time>2026-05-03T07:26:35Z</time></trkpt><trkpt lat="37.5387238" lon="14.4145286"><ele>305.0</ele><time>2026-05-03T07:26:36Z</time></trkpt><trkpt lat="37.5387658" lon="14.4148279"><ele>305.0</ele><time>2026-05-03T07:26:37Z</time></trkpt><trkpt lat="37.5388131" lon="14.4151235"><ele>305.0</ele><time>2026-05-03T07:26:38Z</time></trkpt><trkpt lat="37.5388565" lon="14.4154131"><ele>303.0</ele><time>2026-05-03T07:26:39Z</time></trkpt><trkpt lat="37.5389019" lon="14.4157038"><ele>301.0</ele><time>2026-05-03T07:26:40Z</time></trkpt><trkpt lat="37.5389491" lon="14.4159913"><ele>301.0</ele><time>2026-05-03T07:26:41Z</time></trkpt><trkpt lat="37.5389868" lon="14.4162617"><ele>301.0</ele><time>2026-05-03T07:26:42Z</time></trkpt><trkpt lat="37.5390196" lon="14.4165354"><ele>301.0</ele><time>2026-05-03T07:26:43Z</time></trkpt><trkpt lat="37.5390476" lon="14.4168155"><ele>302.0</ele><time>2026-05-03T07:26:44Z</time></trkpt><trkpt lat="37.5390609" lon="14.4170946"><ele>303.0</ele><time>2026-05-03T07:26:45Z</time></trkpt><trkpt lat="37.5390589" lon="14.4173758"><ele>304.0</ele><time>2026-05-03T07:26:46Z</time></trkpt><trkpt lat="37.5390474" lon="14.4176654"><ele>304.5</ele><time>2026-05-03T07:26:47Z</time></trkpt><trkpt lat="37.5390318" lon="14.4179561"><ele>305.0</ele><time>2026-05-03T07:26:48Z</time></trkpt><trkpt lat="37.539015" lon="14.4182474"><ele>304.0</ele><time>2026-05-03T07:26:49Z</time></trkpt><trkpt lat="37.5389975" lon="14.4185477"><ele>303.0</ele><time>2026-05-03T07:26:50Z</time></trkpt><trkpt lat="37.5389823" lon="14.4188524"><ele>303.0</ele><time>2026-05-03T07:26:51Z</time></trkpt><trkpt lat="37.5389709" lon="14.4191645"><ele>303.0</ele><time>2026-05-03T07:26:52Z</time></trkpt><trkpt lat="37.5389493" lon="14.419475"><ele>303.0</ele><time>2026-05-03T07:26:53Z</time></trkpt><trkpt lat="37.5389305" lon="14.4197852"><ele>303.0</ele><time>2026-05-03T07:26:54Z</time></trkpt><trkpt lat="37.5389075" lon="14.4200941"><ele>303.0</ele><time>2026-05-03T07:26:55Z</time></trkpt><trkpt lat="37.5388797" lon="14.4203964"><ele>303.0</ele><time>2026-05-03T07:26:56Z</time></trkpt><trkpt lat="37.538861" lon="14.4207061"><ele>302.5</ele><time>2026-05-03T07:26:57Z</time></trkpt><trkpt lat="37.5388415" lon="14.4210063"><ele>302.0</ele><time>2026-05-03T07:26:58Z</time></trkpt><trkpt lat="37.538833" lon="14.4212994"><ele>301.0</ele><time>2026-05-03T07:26:59Z</time></trkpt><trkpt lat="37.538838" lon="14.4215821"><ele>300.0</ele><time>2026-05-03T07:27:00Z</time></trkpt><trkpt lat="37.5388519" lon="14.4218596"><ele>299.0</ele><time>2026-05-03T07:27:01Z</time></trkpt><trkpt lat="37.538865" lon="14.4221358"><ele>298.6666666666667</ele><time>2026-05-03T07:27:02Z</time></trkpt><trkpt lat="37.5388811" lon="14.4223904"><ele>298.3333333333333</ele><time>2026-05-03T07:27:03Z</time></trkpt><trkpt lat="37.538892" lon="14.4226447"><ele>298.0</ele><time>2026-05-03T07:27:04Z</time></trkpt><trkpt lat="37.5389065" lon="14.4228912"><ele>297.0</ele><time>2026-05-03T07:27:05Z</time></trkpt><trkpt lat="37.5389218" lon="14.4231394"><ele>296.0</ele><time>2026-05-03T07:27:06Z</time></trkpt><trkpt lat="37.5389334" lon="14.4233773"><ele>295.0</ele><time>2026-05-03T07:27:07Z</time></trkpt><trkpt lat="37.5389537" lon="14.4236061"><ele>294.66666666666663</ele><time>2026-05-03T07:27:08Z</time></trkpt><trkpt lat="37.5389645" lon="14.4238281"><ele>294.3333333333333</ele><time>2026-05-03T07:27:09Z</time></trkpt><trkpt lat="37.5389744" lon="14.4240272"><ele>294.0</ele><time>2026-05-03T07:27:10Z</time></trkpt><trkpt lat="37.5389817" lon="14.4242022"><ele>294.0</ele><time>2026-05-03T07:27:11Z</time></trkpt><trkpt lat="37.5389873" lon="14.4243568"><ele>294.0</ele><time>2026-05-03T07:27:12Z</time></trkpt><trkpt lat="37.5389852" lon="14.4244921"><ele>294.0</ele><time>2026-05-03T07:27:13Z</time></trkpt><trkpt lat="37.5389713" lon="14.4246105"><ele>294.0</ele><time>2026-05-03T07:27:14Z</time></trkpt><trkpt lat="37.5389504" lon="14.4247166"><ele>294.0</ele><time>2026-05-03T07:27:15Z</time></trkpt><trkpt lat="37.5389295" lon="14.4248241"><ele>293.8333333333333</ele><time>2026-05-03T07:27:16Z</time></trkpt><trkpt lat="37.5389046" lon="14.4249367"><ele>293.6666666666667</ele><time>2026-05-03T07:27:17Z</time></trkpt><trkpt lat="37.5388787" lon="14.4250407"><ele>293.5</ele><time>2026-05-03T07:27:18Z</time></trkpt><trkpt lat="37.538852" lon="14.425151"><ele>293.33333333333337</ele><time>2026-05-03T07:27:19Z</time></trkpt><trkpt lat="37.5388198" lon="14.4252454"><ele>293.1666666666667</ele><time>2026-05-03T07:27:20Z</time></trkpt><trkpt lat="37.5387947" lon="14.425326"><ele>293.0</ele><time>2026-05-03T07:27:21Z</time></trkpt><trkpt lat="37.5387694" lon="14.4254063"><ele>291.8</ele><time>2026-05-03T07:27:22Z</time></trkpt><trkpt lat="37.538717" lon="14.4255251"><ele>290.6</ele><time>2026-05-03T07:27:24Z</time></trkpt><trkpt lat="37.5386972" lon="14.4256118"><ele>289.4</ele><time>2026-05-03T07:27:45Z</time></trkpt><trkpt lat="37.5386881" lon="14.4257184"><ele>288.2</ele><time>2026-05-03T07:27:47Z</time></trkpt><trkpt lat="37.5386531" lon="14.4258312"><ele>287.0</ele><time>2026-05-03T07:27:48Z</time></trkpt><trkpt lat="37.5386154" lon="14.4259574"><ele>287.0</ele><time>2026-05-03T07:27:49Z</time></trkpt><trkpt lat="37.5385706" lon="14.4261038"><ele>287.0</ele><time>2026-05-03T07:27:50Z</time></trkpt><trkpt lat="37.5385268" lon="14.4262616"><ele>287.0</ele><time>2026-05-03T07:27:51Z</time></trkpt><trkpt lat="37.5384727" lon="14.4264275"><ele>287.0</ele><time>2026-05-03T07:27:52Z</time></trkpt><trkpt lat="37.5384215" lon="14.4266032"><ele>287.33333333333337</ele><time>2026-05-03T07:27:53Z</time></trkpt><trkpt lat="37.5383661" lon="14.4267831"><ele>287.6666666666667</ele><time>2026-05-03T07:27:54Z</time></trkpt><trkpt lat="37.5383015" lon="14.4269668"><ele>288.0</ele><time>2026-05-03T07:27:55Z</time></trkpt><trkpt lat="37.5382405" lon="14.4271611"><ele>287.3333333333333</ele><time>2026-05-03T07:27:56Z</time></trkpt><trkpt lat="37.5381724" lon="14.4273686"><ele>286.66666666666663</ele><time>2026-05-03T07:27:57Z</time></trkpt><trkpt lat="37.5381068" lon="14.4275844"><ele>286.0</ele><time>2026-05-03T07:27:58Z</time></trkpt><trkpt lat="37.53803" lon="14.4278125"><ele>286.0</ele><time>2026-05-03T07:27:59Z</time></trkpt><trkpt lat="37.5379643" lon="14.4280405"><ele>286.0</ele><time>2026-05-03T07:28:00Z</time></trkpt><trkpt lat="37.5378952" lon="14.4282721"><ele>286.0</ele><time>2026-05-03T07:28:01Z</time></trkpt><trkpt lat="37.5378214" lon="14.4285049"><ele>286.0</ele><time>2026-05-03T07:28:02Z</time></trkpt><trkpt lat="37.5377469" lon="14.4287388"><ele>286.0</ele><time>2026-05-03T07:28:03Z</time></trkpt><trkpt lat="37.5376707" lon="14.428976"><ele>286.0</ele><time>2026-05-03T07:28:04Z</time></trkpt><trkpt lat="37.5375974" lon="14.429215"><ele>286.3333333333333</ele><time>2026-05-03T07:28:05Z</time></trkpt><trkpt lat="37.5375293" lon="14.4294506"><ele>286.6666666666667</ele><time>2026-05-03T07:28:06Z</time></trkpt><trkpt lat="37.5374614" lon="14.429695"><ele>287.0</ele><time>2026-05-03T07:28:07Z</time></trkpt><trkpt lat="37.5373868" lon="14.4299384"><ele>287.33333333333337</ele><time>2026-05-03T07:28:08Z</time></trkpt><trkpt lat="37.5373105" lon="14.4301832"><ele>287.6666666666667</ele><time>2026-05-03T07:28:09Z</time></trkpt><trkpt lat="37.5372372" lon="14.4304253"><ele>288.0</ele><time>2026-05-03T07:28:10Z</time></trkpt><trkpt lat="37.5371593" lon="14.4306694"><ele>288.3333333333333</ele><time>2026-05-03T07:28:11Z</time></trkpt><trkpt lat="37.5370785" lon="14.4309121"><ele>288.66666666666663</ele><time>2026-05-03T07:28:12Z</time></trkpt><trkpt lat="37.5370056" lon="14.4311527"><ele>289.0</ele><time>2026-05-03T07:28:13Z</time></trkpt><trkpt lat="37.5369316" lon="14.431384"><ele>292.0</ele><time>2026-05-03T07:28:14Z</time></trkpt><trkpt lat="37.5368669" lon="14.4316172"><ele>295.0</ele><time>2026-05-03T07:28:15Z</time></trkpt><trkpt lat="37.5368046" lon="14.431853"><ele>298.0</ele><time>2026-05-03T07:28:16Z</time></trkpt><trkpt lat="37.5367473" lon="14.4320884"><ele>298.3333333333333</ele><time>2026-05-03T07:28:17Z</time></trkpt><trkpt lat="37.5367053" lon="14.4323305"><ele>298.6666666666667</ele><time>2026-05-03T07:28:18Z</time></trkpt><trkpt lat="37.5366923" lon="14.4325726"><ele>299.0</ele><time>2026-05-03T07:28:19Z</time></trkpt><trkpt lat="37.5366944" lon="14.4328135"><ele>299.0</ele><time>2026-05-03T07:28:20Z</time></trkpt><trkpt lat="37.5367189" lon="14.4330468"><ele>299.0</ele><time>2026-05-03T07:28:21Z</time></trkpt><trkpt lat="37.5367632" lon="14.4332812"><ele>299.0</ele><time>2026-05-03T07:28:22Z</time></trkpt><trkpt lat="37.5368268" lon="14.4335124"><ele>299.0</ele><time>2026-05-03T07:28:23Z</time></trkpt><trkpt lat="37.5369121" lon="14.4337408"><ele>299.0</ele><time>2026-05-03T07:28:23.999Z</time></trkpt><trkpt lat="37.5370179" lon="14.4339603"><ele>299.0</ele><time>2026-05-03T07:28:25Z</time></trkpt><trkpt lat="37.537138" lon="14.4341694"><ele>296.6666666666667</ele><time>2026-05-03T07:28:26Z</time></trkpt><trkpt lat="37.5372653" lon="14.4343881"><ele>294.3333333333333</ele><time>2026-05-03T07:28:27Z</time></trkpt><trkpt lat="37.5373939" lon="14.4346096"><ele>292.0</ele><time>2026-05-03T07:28:28Z</time></trkpt><trkpt lat="37.5375205" lon="14.434836"><ele>292.0</ele><time>2026-05-03T07:28:29Z</time></trkpt><trkpt lat="37.537649" lon="14.4350597"><ele>292.0</ele><time>2026-05-03T07:28:30Z</time></trkpt><trkpt lat="37.5377767" lon="14.4352893"><ele>292.0</ele><time>2026-05-03T07:28:31Z</time></trkpt><trkpt lat="37.5379073" lon="14.435523"><ele>289.5</ele><time>2026-05-03T07:28:31.999Z</time></trkpt><trkpt lat="37.5380403" lon="14.4357578"><ele>287.0</ele><time>2026-05-03T07:28:33Z</time></trkpt><trkpt lat="37.5381742" lon="14.4359914"><ele>287.0</ele><time>2026-05-03T07:28:34Z</time></trkpt><trkpt lat="37.5383074" lon="14.4362379"><ele>287.0</ele><time>2026-05-03T07:28:35Z</time></trkpt><trkpt lat="37.5384428" lon="14.4364825"><ele>288.0</ele><time>2026-05-03T07:28:36Z</time></trkpt><trkpt lat="37.5385775" lon="14.4367325"><ele>289.0</ele><time>2026-05-03T07:28:37Z</time></trkpt><trkpt lat="37.5387187" lon="14.4369776"><ele>287.5</ele><time>2026-05-03T07:28:38Z</time></trkpt><trkpt lat="37.5388555" lon="14.437225"><ele>286.0</ele><time>2026-05-03T07:28:39Z</time></trkpt><trkpt lat="37.5389901" lon="14.4374705"><ele>286.0</ele><time>2026-05-03T07:28:40Z</time></trkpt><trkpt lat="37.5391268" lon="14.4377167"><ele>286.0</ele><time>2026-05-03T07:28:41Z</time></trkpt><trkpt lat="37.5392645" lon="14.4379631"><ele>285.0</ele><time>2026-05-03T07:28:41.999Z</time></trkpt><trkpt lat="37.5394024" lon="14.4382093"><ele>284.0</ele><time>2026-05-03T07:28:43Z</time></trkpt><trkpt lat="37.5395412" lon="14.4384604"><ele>284.0</ele><time>2026-05-03T07:28:44Z</time></trkpt><trkpt lat="37.5396847" lon="14.4387125"><ele>284.0</ele><time>2026-05-03T07:28:45Z</time></trkpt><trkpt lat="37.5398225" lon="14.4389553"><ele>284.0</ele><time>2026-05-03T07:28:46Z</time></trkpt><trkpt lat="37.5399538" lon="14.4391974"><ele>284.0</ele><time>2026-05-03T07:28:47Z</time></trkpt><trkpt lat="37.5400905" lon="14.4394487"><ele>282.5</ele><time>2026-05-03T07:28:48Z</time></trkpt><trkpt lat="37.5402283" lon="14.4396916"><ele>281.0</ele><time>2026-05-03T07:28:49Z</time></trkpt><trkpt lat="37.5403651" lon="14.439938"><ele>279.5</ele><time>2026-05-03T07:28:50Z</time></trkpt><trkpt lat="37.5405064" lon="14.4401887"><ele>278.0</ele><time>2026-05-03T07:28:51Z</time></trkpt><trkpt lat="37.5406453" lon="14.4404459"><ele>279.0</ele><time>2026-05-03T07:28:52Z</time></trkpt><trkpt lat="37.5407894" lon="14.4407006"><ele>280.0</ele><time>2026-05-03T07:28:53Z</time></trkpt><trkpt lat="37.5409417" lon="14.440957"><ele>280.0</ele><time>2026-05-03T07:28:54Z</time></trkpt><trkpt lat="37.5411032" lon="14.4411995"><ele>280.0</ele><time>2026-05-03T07:28:55Z</time></trkpt><trkpt lat="37.5412774" lon="14.4414282"><ele>280.0</ele><time>2026-05-03T07:28:56Z</time></trkpt><trkpt lat="37.5414614" lon="14.4416448"><ele>280.0</ele><time>2026-05-03T07:28:57Z</time></trkpt><trkpt lat="37.5416524" lon="14.4418497"><ele>280.0</ele><time>2026-05-03T07:28:57.999Z</time></trkpt><trkpt lat="37.5418541" lon="14.4420337"><ele>280.0</ele><time>2026-05-03T07:28:59Z</time></trkpt><trkpt lat="37.5420599" lon="14.4421969"><ele>278.5</ele><time>2026-05-03T07:29:00Z</time></trkpt><trkpt lat="37.5422761" lon="14.442351"><ele>277.0</ele><time>2026-05-03T07:29:01Z</time></trkpt><trkpt lat="37.5425012" lon="14.4424866"><ele>277.0</ele><time>2026-05-03T07:29:02Z</time></trkpt><trkpt lat="37.5427332" lon="14.4426095"><ele>277.0</ele><time>2026-05-03T07:29:03Z</time></trkpt><trkpt lat="37.5429748" lon="14.4427168"><ele>276.5</ele><time>2026-05-03T07:29:04Z</time></trkpt><trkpt lat="37.5432213" lon="14.4428152"><ele>276.0</ele><time>2026-05-03T07:29:05Z</time></trkpt><trkpt lat="37.5434725" lon="14.4429117"><ele>276.0</ele><time>2026-05-03T07:29:06Z</time></trkpt><trkpt lat="37.543723" lon="14.4430039"><ele>276.0</ele><time>2026-05-03T07:29:07Z</time></trkpt><trkpt lat="37.5439778" lon="14.4430978"><ele>276.0</ele><time>2026-05-03T07:29:08Z</time></trkpt><trkpt lat="37.5442283" lon="14.4431869"><ele>276.0</ele><time>2026-05-03T07:29:09Z</time></trkpt><trkpt lat="37.5444811" lon="14.4432792"><ele>275.0</ele><time>2026-05-03T07:29:10Z</time></trkpt><trkpt lat="37.5447302" lon="14.4433688"><ele>274.0</ele><time>2026-05-03T07:29:11Z</time></trkpt><trkpt lat="37.5449791" lon="14.4434608"><ele>274.0</ele><time>2026-05-03T07:29:12Z</time></trkpt><trkpt lat="37.545224" lon="14.4435499"><ele>274.0</ele><time>2026-05-03T07:29:13Z</time></trkpt><trkpt lat="37.5454689" lon="14.4436381"><ele>274.0</ele><time>2026-05-03T07:29:14Z</time></trkpt><trkpt lat="37.5457149" lon="14.443721"><ele>274.0</ele><time>2026-05-03T07:29:15Z</time></trkpt><trkpt lat="37.5459636" lon="14.4438114"><ele>274.0</ele><time>2026-05-03T07:29:16Z</time></trkpt><trkpt lat="37.5462084" lon="14.4439041"><ele>274.0</ele><time>2026-05-03T07:29:17Z</time></trkpt><trkpt lat="37.5464566" lon="14.4439981"><ele>274.0</ele><time>2026-05-03T07:29:18Z</time></trkpt><trkpt lat="37.5467042" lon="14.4440876"><ele>274.0</ele><time>2026-05-03T07:29:19Z</time></trkpt><trkpt lat="37.5469515" lon="14.4441765"><ele>273.0</ele><time>2026-05-03T07:29:20Z</time></trkpt><trkpt lat="37.5472001" lon="14.4442662"><ele>272.0</ele><time>2026-05-03T07:29:21Z</time></trkpt><trkpt lat="37.5474461" lon="14.4443597"><ele>272.0</ele><time>2026-05-03T07:29:22Z</time></trkpt><trkpt lat="37.5476911" lon="14.4444509"><ele>272.0</ele><time>2026-05-03T07:29:23Z</time></trkpt><trkpt lat="37.5479319" lon="14.4445442"><ele>272.0</ele><time>2026-05-03T07:29:24Z</time></trkpt><trkpt lat="37.5481763" lon="14.4446324"><ele>272.0</ele><time>2026-05-03T07:29:25Z</time></trkpt><trkpt lat="37.5484177" lon="14.4447227"><ele>272.0</ele><time>2026-05-03T07:29:26Z</time></trkpt><trkpt lat="37.5486623" lon="14.4448101"><ele>272.0</ele><time>2026-05-03T07:29:27Z</time></trkpt><trkpt lat="37.5489067" lon="14.4449075"><ele>271.5</ele><time>2026-05-03T07:29:28Z</time></trkpt><trkpt lat="37.5491471" lon="14.4450157"><ele>271.0</ele><time>2026-05-03T07:29:29Z</time></trkpt><trkpt lat="37.5493825" lon="14.4451418"><ele>269.5</ele><time>2026-05-03T07:29:30Z</time></trkpt><trkpt lat="37.549606" lon="14.4452831"><ele>268.0</ele><time>2026-05-03T07:29:31Z</time></trkpt><trkpt lat="37.5498227" lon="14.4454444"><ele>268.5</ele><time>2026-05-03T07:29:32Z</time></trkpt><trkpt lat="37.5500315" lon="14.4456276"><ele>269.0</ele><time>2026-05-03T07:29:33Z</time></trkpt><trkpt lat="37.5502277" lon="14.445837"><ele>269.0</ele><time>2026-05-03T07:29:34Z</time></trkpt><trkpt lat="37.5504099" lon="14.44606"><ele>269.0</ele><time>2026-05-03T07:29:35Z</time></trkpt><trkpt lat="37.550579" lon="14.4462993"><ele>267.5</ele><time>2026-05-03T07:29:36Z</time></trkpt><trkpt lat="37.5507366" lon="14.4465586"><ele>266.0</ele><time>2026-05-03T07:29:37Z</time></trkpt><trkpt lat="37.5508768" lon="14.4468271"><ele>266.0</ele><time>2026-05-03T07:29:38Z</time></trkpt><trkpt lat="37.5509983" lon="14.4471097"><ele>266.0</ele><time>2026-05-03T07:29:39Z</time></trkpt><trkpt lat="37.5511148" lon="14.4473922"><ele>265.5</ele><time>2026-05-03T07:29:40Z</time></trkpt><trkpt lat="37.5512343" lon="14.447673"><ele>265.0</ele><time>2026-05-03T07:29:41Z</time></trkpt><trkpt lat="37.551363" lon="14.4479494"><ele>265.5</ele><time>2026-05-03T07:29:42Z</time></trkpt><trkpt lat="37.5514968" lon="14.4482131"><ele>266.0</ele><time>2026-05-03T07:29:43Z</time></trkpt><trkpt lat="37.5516418" lon="14.4484646"><ele>266.0</ele><time>2026-05-03T07:29:44Z</time></trkpt><trkpt lat="37.5517932" lon="14.4487094"><ele>266.0</ele><time>2026-05-03T07:29:45Z</time></trkpt><trkpt lat="37.5519519" lon="14.4489443"><ele>266.5</ele><time>2026-05-03T07:29:46Z</time></trkpt><trkpt lat="37.5521252" lon="14.4491721"><ele>267.0</ele><time>2026-05-03T07:29:47Z</time></trkpt><trkpt lat="37.5523011" lon="14.4493875"><ele>267.0</ele><time>2026-05-03T07:29:48Z</time></trkpt><trkpt lat="37.5524871" lon="14.4495912"><ele>267.0</ele><time>2026-05-03T07:29:49Z</time></trkpt><trkpt lat="37.5526804" lon="14.4497943"><ele>267.0</ele><time>2026-05-03T07:29:50Z</time></trkpt><trkpt lat="37.5528745" lon="14.4499867"><ele>267.0</ele><time>2026-05-03T07:29:51Z</time></trkpt><trkpt lat="37.553073" lon="14.4501826"><ele>267.0</ele><time>2026-05-03T07:29:52Z</time></trkpt><trkpt lat="37.5532726" lon="14.4503707"><ele>267.0</ele><time>2026-05-03T07:29:53Z</time></trkpt><trkpt lat="37.5534677" lon="14.4505628"><ele>267.0</ele><time>2026-05-03T07:29:54Z</time></trkpt><trkpt lat="37.5536699" lon="14.4507503"><ele>267.0</ele><time>2026-05-03T07:29:55Z</time></trkpt><trkpt lat="37.5538677" lon="14.4509403"><ele>267.0</ele><time>2026-05-03T07:29:56Z</time></trkpt><trkpt lat="37.5540659" lon="14.4511226"><ele>267.0</ele><time>2026-05-03T07:29:57Z</time></trkpt><trkpt lat="37.5542623" lon="14.4513013"><ele>267.0</ele><time>2026-05-03T07:29:58Z</time></trkpt><trkpt lat="37.5544548" lon="14.4514844"><ele>267.0</ele><time>2026-05-03T07:29:59Z</time></trkpt><trkpt lat="37.5546513" lon="14.4516659"><ele>267.0</ele><time>2026-05-03T07:30:00Z</time></trkpt><trkpt lat="37.5548487" lon="14.4518506"><ele>267.0</ele><time>2026-05-03T07:30:01Z</time></trkpt><trkpt lat="37.5550433" lon="14.4520322"><ele>267.0</ele><time>2026-05-03T07:30:02Z</time></trkpt><trkpt lat="37.5552349" lon="14.4522166"><ele>267.0</ele><time>2026-05-03T07:30:03Z</time></trkpt><trkpt lat="37.555425" lon="14.4523992"><ele>266.5</ele><time>2026-05-03T07:30:04Z</time></trkpt><trkpt lat="37.555615" lon="14.4525829"><ele>266.0</ele><time>2026-05-03T07:30:05Z</time></trkpt><trkpt lat="37.5558023" lon="14.4527646"><ele>266.0</ele><time>2026-05-03T07:30:06Z</time></trkpt><trkpt lat="37.5559898" lon="14.4529454"><ele>266.0</ele><time>2026-05-03T07:30:07Z</time></trkpt><trkpt lat="37.5561808" lon="14.4531239"><ele>266.0</ele><time>2026-05-03T07:30:08Z</time></trkpt><trkpt lat="37.5563637" lon="14.4533011"><ele>266.0</ele><time>2026-05-03T07:30:09Z</time></trkpt><trkpt lat="37.5565473" lon="14.4534825"><ele>266.0</ele><time>2026-05-03T07:30:10Z</time></trkpt><trkpt lat="37.5567299" lon="14.4536641"><ele>266.0</ele><time>2026-05-03T07:30:11Z</time></trkpt><trkpt lat="37.5569139" lon="14.4538424"><ele>266.0</ele><time>2026-05-03T07:30:12Z</time></trkpt><trkpt lat="37.5571" lon="14.4540207"><ele>266.0</ele><time>2026-05-03T07:30:13Z</time></trkpt><trkpt lat="37.5572824" lon="14.4542018"><ele>266.0</ele><time>2026-05-03T07:30:14Z</time></trkpt><trkpt lat="37.5574649" lon="14.4543829"><ele>266.0</ele><time>2026-05-03T07:30:15Z</time></trkpt><trkpt lat="37.5576506" lon="14.4545593"><ele>267.0</ele><time>2026-05-03T07:30:16Z</time></trkpt><trkpt lat="37.5578321" lon="14.4547431"><ele>268.0</ele><time>2026-05-03T07:30:17Z</time></trkpt><trkpt lat="37.5580127" lon="14.4549368"><ele>265.5</ele><time>2026-05-03T07:30:18Z</time></trkpt><trkpt lat="37.5581832" lon="14.4551411"><ele>263.0</ele><time>2026-05-03T07:30:19Z</time></trkpt><trkpt lat="37.5583449" lon="14.4553661"><ele>263.0</ele><time>2026-05-03T07:30:20Z</time></trkpt><trkpt lat="37.5584981" lon="14.4555953"><ele>263.0</ele><time>2026-05-03T07:30:21Z</time></trkpt><trkpt lat="37.5586495" lon="14.4558276"><ele>263.5</ele><time>2026-05-03T07:30:22Z</time></trkpt><trkpt lat="37.5587848" lon="14.4560754"><ele>264.0</ele><time>2026-05-03T07:30:23Z</time></trkpt><trkpt lat="37.5589136" lon="14.4563288"><ele>264.0</ele><time>2026-05-03T07:30:24Z</time></trkpt><trkpt lat="37.5590384" lon="14.4565909"><ele>264.0</ele><time>2026-05-03T07:30:25Z</time></trkpt><trkpt lat="37.5591539" lon="14.456857"><ele>265.0</ele><time>2026-05-03T07:30:26Z</time></trkpt><trkpt lat="37.5592599" lon="14.4571382"><ele>266.0</ele><time>2026-05-03T07:30:27Z</time></trkpt><trkpt lat="37.559361" lon="14.4574282"><ele>266.0</ele><time>2026-05-03T07:30:28Z</time></trkpt><trkpt lat="37.5594632" lon="14.4577248"><ele>266.0</ele><time>2026-05-03T07:30:29Z</time></trkpt><trkpt lat="37.559563" lon="14.4580152"><ele>264.0</ele><time>2026-05-03T07:30:30Z</time></trkpt><trkpt lat="37.5596615" lon="14.4583028"><ele>262.0</ele><time>2026-05-03T07:30:31Z</time></trkpt><trkpt lat="37.5597644" lon="14.4585945"><ele>262.0</ele><time>2026-05-03T07:30:32Z</time></trkpt><trkpt lat="37.5598695" lon="14.4588888"><ele>262.0</ele><time>2026-05-03T07:30:33Z</time></trkpt><trkpt lat="37.5599699" lon="14.4591872"><ele>262.0</ele><time>2026-05-03T07:30:34Z</time></trkpt><trkpt lat="37.5600721" lon="14.459484"><ele>262.0</ele><time>2026-05-03T07:30:35Z</time></trkpt><trkpt lat="37.5601684" lon="14.459787"><ele>261.0</ele><time>2026-05-03T07:30:36Z</time></trkpt><trkpt lat="37.5602643" lon="14.4600833"><ele>260.0</ele><time>2026-05-03T07:30:37Z</time></trkpt><trkpt lat="37.5603708" lon="14.4603849"><ele>259.0</ele><time>2026-05-03T07:30:38Z</time></trkpt><trkpt lat="37.5604715" lon="14.4606851"><ele>258.0</ele><time>2026-05-03T07:30:39Z</time></trkpt><trkpt lat="37.5605739" lon="14.460986"><ele>258.0</ele><time>2026-05-03T07:30:40Z</time></trkpt><trkpt lat="37.5606713" lon="14.4612819"><ele>258.0</ele><time>2026-05-03T07:30:41Z</time></trkpt><trkpt lat="37.56077" lon="14.4615809"><ele>258.0</ele><time>2026-05-03T07:30:42Z</time></trkpt><trkpt lat="37.5608751" lon="14.4618786"><ele>258.0</ele><time>2026-05-03T07:30:43Z</time></trkpt><trkpt lat="37.5609757" lon="14.4621708"><ele>259.0</ele><time>2026-05-03T07:30:44Z</time></trkpt><trkpt lat="37.5610761" lon="14.462473"><ele>260.0</ele><time>2026-05-03T07:30:45Z</time></trkpt><trkpt lat="37.5611759" lon="14.4627674"><ele>257.0</ele><time>2026-05-03T07:30:46Z</time></trkpt><trkpt lat="37.5612704" lon="14.4630452"><ele>254.0</ele><time>2026-05-03T07:30:47Z</time></trkpt><trkpt lat="37.5613597" lon="14.4633286"><ele>254.0</ele><time>2026-05-03T07:30:48Z</time></trkpt><trkpt lat="37.5614523" lon="14.4636017"><ele>254.0</ele><time>2026-05-03T07:30:49Z</time></trkpt><trkpt lat="37.5615458" lon="14.4638776"><ele>255.5</ele><time>2026-05-03T07:30:50Z</time></trkpt><trkpt lat="37.5616402" lon="14.4641531"><ele>257.0</ele><time>2026-05-03T07:30:51Z</time></trkpt><trkpt lat="37.5617262" lon="14.4644132"><ele>257.6666666666667</ele><time>2026-05-03T07:30:52Z</time></trkpt><trkpt lat="37.5618102" lon="14.4646709"><ele>258.3333333333333</ele><time>2026-05-03T07:30:53Z</time></trkpt><trkpt lat="37.5618853" lon="14.4649111"><ele>259.0</ele><time>2026-05-03T07:30:54Z</time></trkpt><trkpt lat="37.5619582" lon="14.4651396"><ele>259.0</ele><time>2026-05-03T07:30:55Z</time></trkpt><trkpt lat="37.5620269" lon="14.4653588"><ele>259.0</ele><time>2026-05-03T07:30:56Z</time></trkpt><trkpt lat="37.5620863" lon="14.4655626"><ele>259.0</ele><time>2026-05-03T07:30:57Z</time></trkpt><trkpt lat="37.5621433" lon="14.4657434"><ele>257.75</ele><time>2026-05-03T07:30:58Z</time></trkpt><trkpt lat="37.5621922" lon="14.4659164"><ele>256.5</ele><time>2026-05-03T07:30:59Z</time></trkpt><trkpt lat="37.5622247" lon="14.4660762"><ele>255.25</ele><time>2026-05-03T07:31:00Z</time></trkpt><trkpt lat="37.56224" lon="14.4662193"><ele>254.0</ele><time>2026-05-03T07:31:01Z</time></trkpt><trkpt lat="37.5622397" lon="14.4663391"><ele>254.0</ele><time>2026-05-03T07:31:02Z</time></trkpt><trkpt lat="37.5622324" lon="14.4664607"><ele>254.0</ele><time>2026-05-03T07:31:03Z</time></trkpt><trkpt lat="37.5622092" lon="14.4666051"><ele>254.0</ele><time>2026-05-03T07:31:04Z</time></trkpt><trkpt lat="37.5621894" lon="14.4667556"><ele>254.0</ele><time>2026-05-03T07:31:05Z</time></trkpt><trkpt lat="37.5621751" lon="14.4669168"><ele>254.0</ele><time>2026-05-03T07:31:06Z</time></trkpt><trkpt lat="37.5621559" lon="14.4670782"><ele>254.0</ele><time>2026-05-03T07:31:07Z</time></trkpt><trkpt lat="37.5621334" lon="14.4672495"><ele>254.0</ele><time>2026-05-03T07:31:08Z</time></trkpt><trkpt lat="37.5621067" lon="14.467429"><ele>254.0</ele><time>2026-05-03T07:31:09Z</time></trkpt><trkpt lat="37.5620809" lon="14.4676027"><ele>254.25</ele><time>2026-05-03T07:31:10Z</time></trkpt><trkpt lat="37.5620563" lon="14.4677857"><ele>254.5</ele><time>2026-05-03T07:31:11Z</time></trkpt><trkpt lat="37.5620224" lon="14.4679596"><ele>254.75</ele><time>2026-05-03T07:31:12Z</time></trkpt><trkpt lat="37.561998" lon="14.4681323"><ele>255.0</ele><time>2026-05-03T07:31:13Z</time></trkpt><trkpt lat="37.5619645" lon="14.4683004"><ele>256.5</ele><time>2026-05-03T07:31:14Z</time></trkpt><trkpt lat="37.5619348" lon="14.4684574"><ele>258.0</ele><time>2026-05-03T07:31:15Z</time></trkpt><trkpt lat="37.5619124" lon="14.4686101"><ele>259.5</ele><time>2026-05-03T07:31:16Z</time></trkpt><trkpt lat="37.5618909" lon="14.4687496"><ele>261.0</ele><time>2026-05-03T07:31:17Z</time></trkpt><trkpt lat="37.5618667" lon="14.468889"><ele>261.25</ele><time>2026-05-03T07:31:18Z</time></trkpt><trkpt lat="37.5618392" lon="14.469036"><ele>261.5</ele><time>2026-05-03T07:31:19Z</time></trkpt><trkpt lat="37.5618124" lon="14.4691967"><ele>261.75</ele><time>2026-05-03T07:31:20Z</time></trkpt><trkpt lat="37.5617755" lon="14.4693694"><ele>262.0</ele><time>2026-05-03T07:31:21Z</time></trkpt><trkpt lat="37.56174" lon="14.4695506"><ele>261.66666666666663</ele><time>2026-05-03T07:31:22Z</time></trkpt><trkpt lat="37.5617037" lon="14.4697408"><ele>261.3333333333333</ele><time>2026-05-03T07:31:23Z</time></trkpt><trkpt lat="37.5616679" lon="14.4699416"><ele>261.0</ele><time>2026-05-03T07:31:24Z</time></trkpt><trkpt lat="37.5616325" lon="14.4701438"><ele>261.0</ele><time>2026-05-03T07:31:25Z</time></trkpt><trkpt lat="37.5615955" lon="14.4703524"><ele>261.0</ele><time>2026-05-03T07:31:26Z</time></trkpt><trkpt lat="37.5615573" lon="14.4705723"><ele>261.0</ele><time>2026-05-03T07:31:27Z</time></trkpt><trkpt lat="37.5615131" lon="14.4707916"><ele>260.6666666666667</ele><time>2026-05-03T07:31:28Z</time></trkpt><trkpt lat="37.561474" lon="14.4710208"><ele>260.33333333333337</ele><time>2026-05-03T07:31:29Z</time></trkpt><trkpt lat="37.5614292" lon="14.4712549"><ele>260.0</ele><time>2026-05-03T07:31:30Z</time></trkpt><trkpt lat="37.5613791" lon="14.4715007"><ele>259.33333333333337</ele><time>2026-05-03T07:31:31Z</time></trkpt><trkpt lat="37.561329" lon="14.471742"><ele>258.6666666666667</ele><time>2026-05-03T07:31:32Z</time></trkpt><trkpt lat="37.5612865" lon="14.4719842"><ele>258.0</ele><time>2026-05-03T07:31:33Z</time></trkpt><trkpt lat="37.5612407" lon="14.4722201"><ele>262.6666666666667</ele><time>2026-05-03T07:31:34Z</time></trkpt><trkpt lat="37.5611916" lon="14.4724385"><ele>267.33333333333337</ele><time>2026-05-03T07:31:35Z</time></trkpt><trkpt lat="37.5611379" lon="14.4726287"><ele>272.0</ele><time>2026-05-03T07:31:36Z</time></trkpt><trkpt lat="37.5610616" lon="14.4728133"><ele>270.6666666666667</ele><time>2026-05-03T07:31:37Z</time></trkpt><trkpt lat="37.5609705" lon="14.4729992"><ele>269.3333333333333</ele><time>2026-05-03T07:31:38Z</time></trkpt><trkpt lat="37.5608593" lon="14.4731772"><ele>268.0</ele><time>2026-05-03T07:31:39Z</time></trkpt><trkpt lat="37.5607344" lon="14.4733441"><ele>268.0</ele><time>2026-05-03T07:31:40Z</time></trkpt><trkpt lat="37.5605865" lon="14.4734977"><ele>268.0</ele><time>2026-05-03T07:31:41Z</time></trkpt><trkpt lat="37.5604394" lon="14.4736267"><ele>268.0</ele><time>2026-05-03T07:31:42Z</time></trkpt><trkpt lat="37.5603174" lon="14.4737609"><ele>270.66666666666663</ele><time>2026-05-03T07:31:43Z</time></trkpt><trkpt lat="37.5602292" lon="14.4739299"><ele>273.3333333333333</ele><time>2026-05-03T07:31:44Z</time></trkpt><trkpt lat="37.5601869" lon="14.4741328"><ele>276.0</ele><time>2026-05-03T07:31:45Z</time></trkpt><trkpt lat="37.5601737" lon="14.4743713"><ele>276.0</ele><time>2026-05-03T07:31:46Z</time></trkpt><trkpt lat="37.5601738" lon="14.4746283"><ele>276.0</ele><time>2026-05-03T07:31:47Z</time></trkpt><trkpt lat="37.5601774" lon="14.474894"><ele>276.0</ele><time>2026-05-03T07:31:48Z</time></trkpt><trkpt lat="37.560179" lon="14.475164"><ele>276.0</ele><time>2026-05-03T07:31:49Z</time></trkpt><trkpt lat="37.5601798" lon="14.4754315"><ele>276.0</ele><time>2026-05-03T07:31:50Z</time></trkpt><trkpt lat="37.5601874" lon="14.475708"><ele>276.0</ele><time>2026-05-03T07:31:51Z</time></trkpt><trkpt lat="37.5602168" lon="14.4759938"><ele>272.5</ele><time>2026-05-03T07:31:52Z</time></trkpt><trkpt lat="37.5602653" lon="14.4762932"><ele>269.0</ele><time>2026-05-03T07:31:53Z</time></trkpt><trkpt lat="37.5603207" lon="14.4765823"><ele>269.0</ele><time>2026-05-03T07:31:54Z</time></trkpt><trkpt lat="37.5603812" lon="14.4768627"><ele>269.0</ele><time>2026-05-03T07:31:55Z</time></trkpt><trkpt lat="37.5604383" lon="14.477124"><ele>269.0</ele><time>2026-05-03T07:31:56Z</time></trkpt><trkpt lat="37.56047" lon="14.4773837"><ele>269.0</ele><time>2026-05-03T07:31:57Z</time></trkpt><trkpt lat="37.5604601" lon="14.4776445"><ele>269.0</ele><time>2026-05-03T07:31:58Z</time></trkpt><trkpt lat="37.5604037" lon="14.4779256"><ele>269.0</ele><time>2026-05-03T07:31:59Z</time></trkpt><trkpt lat="37.5603198" lon="14.4782323"><ele>266.5</ele><time>2026-05-03T07:32:00Z</time></trkpt><trkpt lat="37.5602278" lon="14.4785439"><ele>264.0</ele><time>2026-05-03T07:32:01Z</time></trkpt><trkpt lat="37.5601349" lon="14.4788622"><ele>262.0</ele><time>2026-05-03T07:32:02Z</time></trkpt><trkpt lat="37.5600368" lon="14.4791827"><ele>260.0</ele><time>2026-05-03T07:32:03Z</time></trkpt><trkpt lat="37.559929" lon="14.479502"><ele>260.0</ele><time>2026-05-03T07:32:04Z</time></trkpt><trkpt lat="37.559809" lon="14.4798155"><ele>260.0</ele><time>2026-05-03T07:32:05Z</time></trkpt><trkpt lat="37.5596676" lon="14.4801159"><ele>258.5</ele><time>2026-05-03T07:32:06Z</time></trkpt><trkpt lat="37.5595196" lon="14.4804121"><ele>257.0</ele><time>2026-05-03T07:32:07Z</time></trkpt><trkpt lat="37.5593712" lon="14.4807132"><ele>256.0</ele><time>2026-05-03T07:32:08Z</time></trkpt><trkpt lat="37.559225" lon="14.4810099"><ele>255.0</ele><time>2026-05-03T07:32:09Z</time></trkpt><trkpt lat="37.5590815" lon="14.4813049"><ele>254.5</ele><time>2026-05-03T07:32:10Z</time></trkpt><trkpt lat="37.5589363" lon="14.4815961"><ele>254.0</ele><time>2026-05-03T07:32:11Z</time></trkpt><trkpt lat="37.5587971" lon="14.4818769"><ele>257.0</ele><time>2026-05-03T07:32:12Z</time></trkpt><trkpt lat="37.558663" lon="14.4821444"><ele>260.0</ele><time>2026-05-03T07:32:13Z</time></trkpt><trkpt lat="37.5585332" lon="14.4824005"><ele>260.0</ele><time>2026-05-03T07:32:14Z</time></trkpt><trkpt lat="37.5583804" lon="14.4826401"><ele>260.0</ele><time>2026-05-03T07:32:15Z</time></trkpt><trkpt lat="37.5581943" lon="14.4828816"><ele>260.5</ele><time>2026-05-03T07:32:16Z</time></trkpt><trkpt lat="37.5580056" lon="14.4831208"><ele>261.0</ele><time>2026-05-03T07:32:17Z</time></trkpt><trkpt lat="37.5578084" lon="14.4833575"><ele>261.0</ele><time>2026-05-03T07:32:18Z</time></trkpt><trkpt lat="37.5576064" lon="14.4835965"><ele>261.0</ele><time>2026-05-03T07:32:19Z</time></trkpt><trkpt lat="37.5574094" lon="14.483833"><ele>260.5</ele><time>2026-05-03T07:32:20Z</time></trkpt><trkpt lat="37.5572165" lon="14.484068"><ele>260.0</ele><time>2026-05-03T07:32:20.999Z</time></trkpt><trkpt lat="37.5570312" lon="14.4842862"><ele>262.5</ele><time>2026-05-03T07:32:22Z</time></trkpt><trkpt lat="37.5568452" lon="14.4845092"><ele>265.0</ele><time>2026-05-03T07:32:23Z</time></trkpt><trkpt lat="37.556674" lon="14.4847193"><ele>265.0</ele><time>2026-05-03T07:32:24Z</time></trkpt><trkpt lat="37.5565129" lon="14.4849254"><ele>265.0</ele><time>2026-05-03T07:32:25Z</time></trkpt><trkpt lat="37.55638" lon="14.4851607"><ele>265.0</ele><time>2026-05-03T07:32:26Z</time></trkpt><trkpt lat="37.556272" lon="14.4854272"><ele>265.0</ele><time>2026-05-03T07:32:26.999Z</time></trkpt><trkpt lat="37.5561722" lon="14.4857122"><ele>266.0</ele><time>2026-05-03T07:32:28Z</time></trkpt><trkpt lat="37.5560755" lon="14.4859977"><ele>267.0</ele><time>2026-05-03T07:32:29Z</time></trkpt><trkpt lat="37.555973" lon="14.4862835"><ele>268.0</ele><time>2026-05-03T07:32:30Z</time></trkpt><trkpt lat="37.5558738" lon="14.4865659"><ele>269.0</ele><time>2026-05-03T07:32:31Z</time></trkpt><trkpt lat="37.5557794" lon="14.4868489"><ele>269.5</ele><time>2026-05-03T07:32:32Z</time></trkpt><trkpt lat="37.5556835" lon="14.4871302"><ele>270.0</ele><time>2026-05-03T07:32:33Z</time></trkpt><trkpt lat="37.555588" lon="14.4874052"><ele>270.0</ele><time>2026-05-03T07:32:34Z</time></trkpt><trkpt lat="37.5554944" lon="14.4876784"><ele>270.0</ele><time>2026-05-03T07:32:35Z</time></trkpt><trkpt lat="37.5553986" lon="14.4879604"><ele>272.0</ele><time>2026-05-03T07:32:36Z</time></trkpt><trkpt lat="37.5553043" lon="14.4882333"><ele>274.0</ele><time>2026-05-03T07:32:37Z</time></trkpt><trkpt lat="37.5552137" lon="14.4884986"><ele>274.0</ele><time>2026-05-03T07:32:38Z</time></trkpt><trkpt lat="37.555119" lon="14.4887727"><ele>274.0</ele><time>2026-05-03T07:32:39Z</time></trkpt><trkpt lat="37.5550302" lon="14.4890401"><ele>274.0</ele><time>2026-05-03T07:32:40Z</time></trkpt><trkpt lat="37.5549461" lon="14.4893041"><ele>274.0</ele><time>2026-05-03T07:32:41Z</time></trkpt><trkpt lat="37.5548734" lon="14.4895827"><ele>273.5</ele><time>2026-05-03T07:32:42Z</time></trkpt><trkpt lat="37.5548278" lon="14.4898806"><ele>273.0</ele><time>2026-05-03T07:32:43Z</time></trkpt><trkpt lat="37.5547989" lon="14.4901884"><ele>272.0</ele><time>2026-05-03T07:32:43.999Z</time></trkpt><trkpt lat="37.5547746" lon="14.4905147"><ele>271.0</ele><time>2026-05-03T07:32:45Z</time></trkpt><trkpt lat="37.5547574" lon="14.4908241"><ele>271.0</ele><time>2026-05-03T07:32:46Z</time></trkpt><trkpt lat="37.5547349" lon="14.4911256"><ele>271.0</ele><time>2026-05-03T07:32:47Z</time></trkpt><trkpt lat="37.5547138" lon="14.4913859"><ele>271.0</ele><time>2026-05-03T07:32:48Z</time></trkpt><trkpt lat="37.5546802" lon="14.4916111"><ele>271.3333333333333</ele><time>2026-05-03T07:32:49Z</time></trkpt><trkpt lat="37.5546116" lon="14.4918067"><ele>271.6666666666667</ele><time>2026-05-03T07:32:50Z</time></trkpt><trkpt lat="37.5544847" lon="14.4919837"><ele>272.0</ele><time>2026-05-03T07:32:51Z</time></trkpt><trkpt lat="37.5543339" lon="14.4921536"><ele>269.33333333333337</ele><time>2026-05-03T07:32:52Z</time></trkpt><trkpt lat="37.5541737" lon="14.4923368"><ele>266.6666666666667</ele><time>2026-05-03T07:32:53Z</time></trkpt><trkpt lat="37.5540176" lon="14.4925191"><ele>264.0</ele><time>2026-05-03T07:32:54Z</time></trkpt><trkpt lat="37.5538744" lon="14.4926838"><ele>264.0</ele><time>2026-05-03T07:32:55Z</time></trkpt><trkpt lat="37.5537372" lon="14.4928377"><ele>264.0</ele><time>2026-05-03T07:32:55.999Z</time></trkpt><trkpt lat="37.5536241" lon="14.4930373"><ele>264.0</ele><time>2026-05-03T07:32:57Z</time></trkpt><trkpt lat="37.5535228" lon="14.4932639"><ele>260.0</ele><time>2026-05-03T07:32:58Z</time></trkpt><trkpt lat="37.553425" lon="14.493518"><ele>256.0</ele><time>2026-05-03T07:32:59Z</time></trkpt><trkpt lat="37.5533454" lon="14.4937944"><ele>256.0</ele><time>2026-05-03T07:33:00Z</time></trkpt><trkpt lat="37.5532836" lon="14.4940882"><ele>256.0</ele><time>2026-05-03T07:33:01Z</time></trkpt><trkpt lat="37.5532402" lon="14.4943815"><ele>254.0</ele><time>2026-05-03T07:33:02Z</time></trkpt><trkpt lat="37.5532163" lon="14.4946908"><ele>252.0</ele><time>2026-05-03T07:33:03Z</time></trkpt><trkpt lat="37.5532262" lon="14.4950019"><ele>252.0</ele><time>2026-05-03T07:33:04Z</time></trkpt><trkpt lat="37.5532554" lon="14.4953101"><ele>252.0</ele><time>2026-05-03T07:33:05Z</time></trkpt><trkpt lat="37.5532825" lon="14.495608"><ele>249.0</ele><time>2026-05-03T07:33:06Z</time></trkpt><trkpt lat="37.5533212" lon="14.4958929"><ele>246.0</ele><time>2026-05-03T07:33:07Z</time></trkpt><trkpt lat="37.5533582" lon="14.4961805"><ele>244.33333333333331</ele><time>2026-05-03T07:33:08Z</time></trkpt><trkpt lat="37.5533961" lon="14.4964583"><ele>242.66666666666666</ele><time>2026-05-03T07:33:09Z</time></trkpt><trkpt lat="37.5534161" lon="14.4967295"><ele>241.0</ele><time>2026-05-03T07:33:10Z</time></trkpt><trkpt lat="37.5534077" lon="14.4969911"><ele>239.0</ele><time>2026-05-03T07:33:11Z</time></trkpt><trkpt lat="37.5533556" lon="14.4972488"><ele>237.0</ele><time>2026-05-03T07:33:12Z</time></trkpt><trkpt lat="37.5532737" lon="14.4975021"><ele>235.0</ele><time>2026-05-03T07:33:13Z</time></trkpt><trkpt lat="37.5531579" lon="14.4977536"><ele>235.0</ele><time>2026-05-03T07:33:14Z</time></trkpt><trkpt lat="37.553016" lon="14.4980021"><ele>235.0</ele><time>2026-05-03T07:33:15Z</time></trkpt><trkpt lat="37.5528637" lon="14.4982488"><ele>235.0</ele><time>2026-05-03T07:33:16Z</time></trkpt><trkpt lat="37.552712" lon="14.4984984"><ele>235.0</ele><time>2026-05-03T07:33:17Z</time></trkpt><trkpt lat="37.55256" lon="14.4987488"><ele>235.0</ele><time>2026-05-03T07:33:18Z</time></trkpt><trkpt lat="37.5524045" lon="14.4989906"><ele>235.0</ele><time>2026-05-03T07:33:19Z</time></trkpt><trkpt lat="37.5522527" lon="14.4992338"><ele>235.0</ele><time>2026-05-03T07:33:20Z</time></trkpt><trkpt lat="37.5521027" lon="14.4994793"><ele>235.0</ele><time>2026-05-03T07:33:21Z</time></trkpt><trkpt lat="37.5519518" lon="14.4997216"><ele>239.0</ele><time>2026-05-03T07:33:22Z</time></trkpt><trkpt lat="37.5517993" lon="14.4999647"><ele>243.0</ele><time>2026-05-03T07:33:23Z</time></trkpt><trkpt lat="37.5516462" lon="14.5002173"><ele>241.5</ele><time>2026-05-03T07:33:24Z</time></trkpt><trkpt lat="37.5514952" lon="14.5004656"><ele>240.0</ele><time>2026-05-03T07:33:25Z</time></trkpt><trkpt lat="37.5513389" lon="14.5007131"><ele>242.5</ele><time>2026-05-03T07:33:26Z</time></trkpt><trkpt lat="37.5511808" lon="14.5009735"><ele>245.0</ele><time>2026-05-03T07:33:27Z</time></trkpt><trkpt lat="37.5510198" lon="14.5012392"><ele>243.5</ele><time>2026-05-03T07:33:28Z</time></trkpt><trkpt lat="37.5508655" lon="14.5014979"><ele>242.0</ele><time>2026-05-03T07:33:29Z</time></trkpt><trkpt lat="37.5507129" lon="14.501755"><ele>242.0</ele><time>2026-05-03T07:33:30Z</time></trkpt><trkpt lat="37.5505553" lon="14.502013"><ele>242.0</ele><time>2026-05-03T07:33:30.999Z</time></trkpt><trkpt lat="37.5503913" lon="14.5022721"><ele>240.5</ele><time>2026-05-03T07:33:32Z</time></trkpt><trkpt lat="37.5502305" lon="14.5025245"><ele>239.0</ele><time>2026-05-03T07:33:33Z</time></trkpt><trkpt lat="37.5500777" lon="14.5027796"><ele>239.0</ele><time>2026-05-03T07:33:34Z</time></trkpt><trkpt lat="37.5499187" lon="14.5030383"><ele>239.0</ele><time>2026-05-03T07:33:35Z</time></trkpt><trkpt lat="37.5497616" lon="14.5032985"><ele>239.0</ele><time>2026-05-03T07:33:36Z</time></trkpt><trkpt lat="37.5496024" lon="14.5035517"><ele>239.0</ele><time>2026-05-03T07:33:37Z</time></trkpt><trkpt lat="37.5494492" lon="14.5037983"><ele>239.5</ele><time>2026-05-03T07:33:38Z</time></trkpt><trkpt lat="37.5493" lon="14.5040549"><ele>240.0</ele><time>2026-05-03T07:33:39Z</time></trkpt><trkpt lat="37.5491468" lon="14.5043022"><ele>240.0</ele><time>2026-05-03T07:33:39.999Z</time></trkpt><trkpt lat="37.549001" lon="14.5045491"><ele>240.0</ele><time>2026-05-03T07:33:41Z</time></trkpt><trkpt lat="37.5488525" lon="14.5047961"><ele>241.5</ele><time>2026-05-03T07:33:42Z</time></trkpt><trkpt lat="37.5487032" lon="14.505036"><ele>243.0</ele><time>2026-05-03T07:33:43Z</time></trkpt><trkpt lat="37.5485627" lon="14.5052603"><ele>241.66666666666669</ele><time>2026-05-03T07:33:44Z</time></trkpt><trkpt lat="37.5484339" lon="14.5054722"><ele>240.33333333333334</ele><time>2026-05-03T07:33:45Z</time></trkpt><trkpt lat="37.5483134" lon="14.5056766"><ele>239.0</ele><time>2026-05-03T07:33:46Z</time></trkpt><trkpt lat="37.5482133" lon="14.505882"><ele>239.0</ele><time>2026-05-03T07:33:47Z</time></trkpt><trkpt lat="37.548155" lon="14.5060968"><ele>239.0</ele><time>2026-05-03T07:33:48Z</time></trkpt><trkpt lat="37.5481341" lon="14.5063226"><ele>239.0</ele><time>2026-05-03T07:33:49Z</time></trkpt><trkpt lat="37.5481482" lon="14.5065538"><ele>238.33333333333334</ele><time>2026-05-03T07:33:50Z</time></trkpt><trkpt lat="37.5481989" lon="14.5067966"><ele>237.66666666666669</ele><time>2026-05-03T07:33:51Z</time></trkpt><trkpt lat="37.5482573" lon="14.5070472"><ele>237.0</ele><time>2026-05-03T07:33:52Z</time></trkpt><trkpt lat="37.5483174" lon="14.5073126"><ele>237.0</ele><time>2026-05-03T07:33:53Z</time></trkpt><trkpt lat="37.5483843" lon="14.5075879"><ele>237.0</ele><time>2026-05-03T07:33:54Z</time></trkpt><trkpt lat="37.5484568" lon="14.5078716"><ele>235.5</ele><time>2026-05-03T07:33:55Z</time></trkpt><trkpt lat="37.5485291" lon="14.5081665"><ele>234.0</ele><time>2026-05-03T07:33:56Z</time></trkpt><trkpt lat="37.548601" lon="14.5084682"><ele>235.0</ele><time>2026-05-03T07:33:57Z</time></trkpt><trkpt lat="37.5486704" lon="14.5087708"><ele>236.0</ele><time>2026-05-03T07:33:58Z</time></trkpt><trkpt lat="37.5487428" lon="14.509076"><ele>234.0</ele><time>2026-05-03T07:33:59Z</time></trkpt><trkpt lat="37.5488114" lon="14.5093695"><ele>232.0</ele><time>2026-05-03T07:34:00Z</time></trkpt><trkpt lat="37.5488748" lon="14.5096422"><ele>231.66666666666666</ele><time>2026-05-03T07:34:01Z</time></trkpt><trkpt lat="37.5489279" lon="14.5098963"><ele>231.33333333333331</ele><time>2026-05-03T07:34:01.999Z</time></trkpt><trkpt lat="37.5489557" lon="14.5101443"><ele>231.0</ele><time>2026-05-03T07:34:03Z</time></trkpt><trkpt lat="37.5489393" lon="14.5104095"><ele>229.5</ele><time>2026-05-03T07:34:04Z</time></trkpt><trkpt lat="37.5488864" lon="14.5106953"><ele>228.0</ele><time>2026-05-03T07:34:05Z</time></trkpt><trkpt lat="37.5488128" lon="14.5109951"><ele>229.5</ele><time>2026-05-03T07:34:06Z</time></trkpt><trkpt lat="37.5487247" lon="14.511316"><ele>231.0</ele><time>2026-05-03T07:34:07Z</time></trkpt><trkpt lat="37.5486367" lon="14.5116442"><ele>231.0</ele><time>2026-05-03T07:34:08Z</time></trkpt><trkpt lat="37.5485436" lon="14.5119785"><ele>231.0</ele><time>2026-05-03T07:34:09Z</time></trkpt><trkpt lat="37.548446" lon="14.5123096"><ele>230.0</ele><time>2026-05-03T07:34:10Z</time></trkpt><trkpt lat="37.5483641" lon="14.5126212"><ele>229.0</ele><time>2026-05-03T07:34:11Z</time></trkpt><trkpt lat="37.5482829" lon="14.51292"><ele>228.0</ele><time>2026-05-03T07:34:12Z</time></trkpt><trkpt lat="37.5482045" lon="14.5131947"><ele>227.0</ele><time>2026-05-03T07:34:13Z</time></trkpt><trkpt lat="37.5480994" lon="14.5134566"><ele>227.0</ele><time>2026-05-03T07:34:14Z</time></trkpt><trkpt lat="37.5479565" lon="14.5136987"><ele>227.0</ele><time>2026-05-03T07:34:15Z</time></trkpt><trkpt lat="37.5477998" lon="14.5139352"><ele>228.0</ele><time>2026-05-03T07:34:16Z</time></trkpt><trkpt lat="37.5476376" lon="14.5141641"><ele>229.0</ele><time>2026-05-03T07:34:17Z</time></trkpt><trkpt lat="37.5474845" lon="14.5143867"><ele>226.0</ele><time>2026-05-03T07:34:18Z</time></trkpt><trkpt lat="37.5473319" lon="14.514603"><ele>223.0</ele><time>2026-05-03T07:34:19Z</time></trkpt><trkpt lat="37.5471793" lon="14.5148248"><ele>224.5</ele><time>2026-05-03T07:34:20Z</time></trkpt><trkpt lat="37.5470219" lon="14.5150428"><ele>226.0</ele><time>2026-05-03T07:34:21Z</time></trkpt><trkpt lat="37.5468777" lon="14.5152574"><ele>225.0</ele><time>2026-05-03T07:34:22Z</time></trkpt><trkpt lat="37.5467349" lon="14.51547"><ele>224.0</ele><time>2026-05-03T07:34:23Z</time></trkpt><trkpt lat="37.5465886" lon="14.5156815"><ele>223.0</ele><time>2026-05-03T07:34:24Z</time></trkpt><trkpt lat="37.5464392" lon="14.5158872"><ele>223.0</ele><time>2026-05-03T07:34:25Z</time></trkpt><trkpt lat="37.5462984" lon="14.5160984"><ele>223.0</ele><time>2026-05-03T07:34:26Z</time></trkpt><trkpt lat="37.5461604" lon="14.5163018"><ele>223.0</ele><time>2026-05-03T07:34:27Z</time></trkpt><trkpt lat="37.5460199" lon="14.5165033"><ele>224.0</ele><time>2026-05-03T07:34:28Z</time></trkpt><trkpt lat="37.5458907" lon="14.5166909"><ele>225.0</ele><time>2026-05-03T07:34:29Z</time></trkpt><trkpt lat="37.5457656" lon="14.5168664"><ele>226.0</ele><time>2026-05-03T07:34:30Z</time></trkpt><trkpt lat="37.5456497" lon="14.5170332"><ele>225.5</ele><time>2026-05-03T07:34:31Z</time></trkpt><trkpt lat="37.5455434" lon="14.5171888"><ele>225.0</ele><time>2026-05-03T07:34:31.999Z</time></trkpt><trkpt lat="37.5454472" lon="14.5173232"><ele>224.5</ele><time>2026-05-03T07:34:33Z</time></trkpt><trkpt lat="37.5453559" lon="14.5174486"><ele>224.0</ele><time>2026-05-03T07:34:34Z</time></trkpt><trkpt lat="37.5452763" lon="14.5175703"><ele>224.39999999999998</ele><time>2026-05-03T07:34:35Z</time></trkpt><trkpt lat="37.5451941" lon="14.5176849"><ele>224.79999999999998</ele><time>2026-05-03T07:34:36Z</time></trkpt><trkpt lat="37.5451196" lon="14.5177902"><ele>225.20000000000002</ele><time>2026-05-03T07:34:37Z</time></trkpt><trkpt lat="37.5450566" lon="14.5178896"><ele>225.60000000000002</ele><time>2026-05-03T07:34:38Z</time></trkpt><trkpt lat="37.5450102" lon="14.5179699"><ele>226.0</ele><time>2026-05-03T07:34:39Z</time></trkpt><trkpt lat="37.5449894" lon="14.5181163"><ele>226.0</ele><time>2026-05-03T07:34:41Z</time></trkpt><trkpt lat="37.5450075" lon="14.5182511"><ele>226.0</ele><time>2026-05-03T07:34:43Z</time></trkpt><trkpt lat="37.5450692" lon="14.5183526"><ele>226.0</ele><time>2026-05-03T07:34:45Z</time></trkpt><trkpt lat="37.5451479" lon="14.5184631"><ele>226.0</ele><time>2026-05-03T07:34:47Z</time></trkpt><trkpt lat="37.5452388" lon="14.5185809"><ele>226.0</ele><time>2026-05-03T07:34:49Z</time></trkpt><trkpt lat="37.5452952" lon="14.5186509"><ele>226.00000000000003</ele><time>2026-05-03T07:34:50Z</time></trkpt><trkpt lat="37.5453665" lon="14.5187357"><ele>226.00000000000003</ele><time>2026-05-03T07:34:51Z</time></trkpt><trkpt lat="37.5454511" lon="14.5188439"><ele>226.0</ele><time>2026-05-03T07:34:52Z</time></trkpt><trkpt lat="37.5455156" lon="14.5189735"><ele>226.0</ele><time>2026-05-03T07:34:53Z</time></trkpt><trkpt lat="37.5455451" lon="14.5191156"><ele>225.0</ele><time>2026-05-03T07:34:54Z</time></trkpt><trkpt lat="37.5455385" lon="14.5192745"><ele>224.0</ele><time>2026-05-03T07:34:55Z</time></trkpt><trkpt lat="37.5455042" lon="14.5194388"><ele>223.0</ele><time>2026-05-03T07:34:56Z</time></trkpt><trkpt lat="37.5454514" lon="14.5196034"><ele>222.0</ele><time>2026-05-03T07:34:57Z</time></trkpt><trkpt lat="37.545385" lon="14.5197777"><ele>221.66666666666669</ele><time>2026-05-03T07:34:58Z</time></trkpt><trkpt lat="37.5453171" lon="14.5199615"><ele>221.33333333333334</ele><time>2026-05-03T07:34:59Z</time></trkpt><trkpt lat="37.5452521" lon="14.5201441"><ele>221.0</ele><time>2026-05-03T07:35:00Z</time></trkpt><trkpt lat="37.5451802" lon="14.5203306"><ele>220.25</ele><time>2026-05-03T07:35:01Z</time></trkpt><trkpt lat="37.5451248" lon="14.5205007"><ele>219.5</ele><time>2026-05-03T07:35:02Z</time></trkpt><trkpt lat="37.5450961" lon="14.5206676"><ele>218.75</ele><time>2026-05-03T07:35:02.999Z</time></trkpt><trkpt lat="37.545102" lon="14.5208438"><ele>218.0</ele><time>2026-05-03T07:35:04Z</time></trkpt><trkpt lat="37.5451384" lon="14.5210197"><ele>218.0</ele><time>2026-05-03T07:35:05Z</time></trkpt><trkpt lat="37.5452108" lon="14.5212041"><ele>218.0</ele><time>2026-05-03T07:35:06Z</time></trkpt><trkpt lat="37.5452999" lon="14.5213989"><ele>218.0</ele><time>2026-05-03T07:35:07Z</time></trkpt><trkpt lat="37.5453913" lon="14.5215984"><ele>218.66666666666669</ele><time>2026-05-03T07:35:08Z</time></trkpt><trkpt lat="37.5454803" lon="14.5217983"><ele>219.33333333333331</ele><time>2026-05-03T07:35:09Z</time></trkpt><trkpt lat="37.5455708" lon="14.5219898"><ele>220.0</ele><time>2026-05-03T07:35:10Z</time></trkpt><trkpt lat="37.545655" lon="14.5221805"><ele>220.0</ele><time>2026-05-03T07:35:11Z</time></trkpt><trkpt lat="37.5457452" lon="14.5223654"><ele>220.0</ele><time>2026-05-03T07:35:12Z</time></trkpt><trkpt lat="37.5458541" lon="14.522534"><ele>220.0</ele><time>2026-05-03T07:35:13Z</time></trkpt><trkpt lat="37.545985" lon="14.5226516"><ele>220.0</ele><time>2026-05-03T07:35:14Z</time></trkpt><trkpt lat="37.5461444" lon="14.5227436"><ele>220.0</ele><time>2026-05-03T07:35:15Z</time></trkpt><trkpt lat="37.5463186" lon="14.5227829"><ele>220.0</ele><time>2026-05-03T07:35:16Z</time></trkpt><trkpt lat="37.546515" lon="14.5227875"><ele>219.66666666666666</ele><time>2026-05-03T07:35:17Z</time></trkpt><trkpt lat="37.5467183" lon="14.5227809"><ele>219.33333333333331</ele><time>2026-05-03T07:35:18Z</time></trkpt><trkpt lat="37.5469177" lon="14.5227775"><ele>219.0</ele><time>2026-05-03T07:35:19Z</time></trkpt><trkpt lat="37.5471136" lon="14.5227679"><ele>219.0</ele><time>2026-05-03T07:35:20Z</time></trkpt><trkpt lat="37.5473096" lon="14.5227586"><ele>219.0</ele><time>2026-05-03T07:35:21Z</time></trkpt><trkpt lat="37.5474978" lon="14.5227486"><ele>219.0</ele><time>2026-05-03T07:35:22Z</time></trkpt><trkpt lat="37.5476867" lon="14.5227412"><ele>220.0</ele><time>2026-05-03T07:35:23Z</time></trkpt><trkpt lat="37.547884" lon="14.5227299"><ele>221.0</ele><time>2026-05-03T07:35:24Z</time></trkpt><trkpt lat="37.5480865" lon="14.5227181"><ele>222.0</ele><time>2026-05-03T07:35:25Z</time></trkpt><trkpt lat="37.5482807" lon="14.5227079"><ele>222.0</ele><time>2026-05-03T07:35:26Z</time></trkpt><trkpt lat="37.548467" lon="14.5226973"><ele>222.0</ele><time>2026-05-03T07:35:27Z</time></trkpt><trkpt lat="37.5486471" lon="14.5226891"><ele>222.0</ele><time>2026-05-03T07:35:28Z</time></trkpt><trkpt lat="37.5488135" lon="14.5227041"><ele>222.0</ele><time>2026-05-03T07:35:29Z</time></trkpt><trkpt lat="37.5489753" lon="14.5227482"><ele>222.0</ele><time>2026-05-03T07:35:30Z</time></trkpt><trkpt lat="37.5491309" lon="14.5228229"><ele>222.0</ele><time>2026-05-03T07:35:31Z</time></trkpt><trkpt lat="37.549287" lon="14.5229364"><ele>221.66666666666669</ele><time>2026-05-03T07:35:32Z</time></trkpt><trkpt lat="37.5494399" lon="14.5230684"><ele>221.33333333333334</ele><time>2026-05-03T07:35:33Z</time></trkpt><trkpt lat="37.5495915" lon="14.5232186"><ele>221.0</ele><time>2026-05-03T07:35:34Z</time></trkpt><trkpt lat="37.5497451" lon="14.5233638"><ele>221.33333333333334</ele><time>2026-05-03T07:35:35Z</time></trkpt><trkpt lat="37.5499052" lon="14.5235142"><ele>221.66666666666669</ele><time>2026-05-03T07:35:36Z</time></trkpt><trkpt lat="37.5500596" lon="14.5236584"><ele>222.0</ele><time>2026-05-03T07:35:37Z</time></trkpt><trkpt lat="37.5502091" lon="14.5238037"><ele>222.0</ele><time>2026-05-03T07:35:38Z</time></trkpt><trkpt lat="37.550357" lon="14.5239465"><ele>222.0</ele><time>2026-05-03T07:35:39Z</time></trkpt><trkpt lat="37.5504994" lon="14.5240854"><ele>222.0</ele><time>2026-05-03T07:35:40Z</time></trkpt><trkpt lat="37.5506358" lon="14.5242088"><ele>222.0</ele><time>2026-05-03T07:35:41Z</time></trkpt><trkpt lat="37.5507633" lon="14.5243313"><ele>222.0</ele><time>2026-05-03T07:35:42Z</time></trkpt><trkpt lat="37.550877" lon="14.5244556"><ele>222.0</ele><time>2026-05-03T07:35:43Z</time></trkpt><trkpt lat="37.5509744" lon="14.5245932"><ele>221.33333333333331</ele><time>2026-05-03T07:35:44Z</time></trkpt><trkpt lat="37.5510458" lon="14.5247589"><ele>220.66666666666666</ele><time>2026-05-03T07:35:45Z</time></trkpt><trkpt lat="37.551102" lon="14.5249482"><ele>220.0</ele><time>2026-05-03T07:35:46Z</time></trkpt><trkpt lat="37.5511537" lon="14.5251366"><ele>220.0</ele><time>2026-05-03T07:35:47Z</time></trkpt><trkpt lat="37.551201" lon="14.5253245"><ele>220.0</ele><time>2026-05-03T07:35:48Z</time></trkpt><trkpt lat="37.5512474" lon="14.5255152"><ele>220.0</ele><time>2026-05-03T07:35:49Z</time></trkpt><trkpt lat="37.5512975" lon="14.525697"><ele>222.66666666666666</ele><time>2026-05-03T07:35:50Z</time></trkpt><trkpt lat="37.5513448" lon="14.525871"><ele>225.33333333333331</ele><time>2026-05-03T07:35:51Z</time></trkpt><trkpt lat="37.55139" lon="14.526062"><ele>228.0</ele><time>2026-05-03T07:35:52Z</time></trkpt><trkpt lat="37.5514326" lon="14.5262387"><ele>228.0</ele><time>2026-05-03T07:35:53Z</time></trkpt><trkpt lat="37.5514914" lon="14.5264474"><ele>228.0</ele><time>2026-05-03T07:35:54Z</time></trkpt><trkpt lat="37.5515523" lon="14.5266478"><ele>228.0</ele><time>2026-05-03T07:35:55Z</time></trkpt><trkpt lat="37.5515902" lon="14.5268882"><ele>226.33333333333331</ele><time>2026-05-03T07:35:56Z</time></trkpt><trkpt lat="37.5516321" lon="14.5271183"><ele>224.66666666666666</ele><time>2026-05-03T07:35:57Z</time></trkpt><trkpt lat="37.5516537" lon="14.5273479"><ele>223.0</ele><time>2026-05-03T07:35:58Z</time></trkpt><trkpt lat="37.5516633" lon="14.5275972"><ele>223.0</ele><time>2026-05-03T07:35:59Z</time></trkpt><trkpt lat="37.5516643" lon="14.5278497"><ele>223.0</ele><time>2026-05-03T07:36:00Z</time></trkpt><trkpt lat="37.5516447" lon="14.5281142"><ele>223.0</ele><time>2026-05-03T07:36:01Z</time></trkpt><trkpt lat="37.5516212" lon="14.528368"><ele>222.66666666666666</ele><time>2026-05-03T07:36:01.999Z</time></trkpt><trkpt lat="37.5516034" lon="14.5286302"><ele>222.33333333333331</ele><time>2026-05-03T07:36:03Z</time></trkpt><trkpt lat="37.5515854" lon="14.5288939"><ele>222.0</ele><time>2026-05-03T07:36:03.999Z</time></trkpt><trkpt lat="37.5515706" lon="14.5291548"><ele>221.66666666666669</ele><time>2026-05-03T07:36:05Z</time></trkpt><trkpt lat="37.5515505" lon="14.5294187"><ele>221.33333333333334</ele><time>2026-05-03T07:36:06Z</time></trkpt><trkpt lat="37.5515351" lon="14.5296816"><ele>221.0</ele><time>2026-05-03T07:36:07Z</time></trkpt><trkpt lat="37.5515172" lon="14.5299372"><ele>221.0</ele><time>2026-05-03T07:36:08Z</time></trkpt><trkpt lat="37.5515005" lon="14.5301846"><ele>221.0</ele><time>2026-05-03T07:36:09Z</time></trkpt><trkpt lat="37.5514818" lon="14.5304321"><ele>221.0</ele><time>2026-05-03T07:36:10Z</time></trkpt><trkpt lat="37.5514691" lon="14.5306841"><ele>221.33333333333334</ele><time>2026-05-03T07:36:11Z</time></trkpt><trkpt lat="37.5514544" lon="14.5309325"><ele>221.66666666666669</ele><time>2026-05-03T07:36:12Z</time></trkpt><trkpt lat="37.5514364" lon="14.531171"><ele>222.0</ele><time>2026-05-03T07:36:13Z</time></trkpt><trkpt lat="37.5514222" lon="14.5314001"><ele>222.0</ele><time>2026-05-03T07:36:14Z</time></trkpt><trkpt lat="37.5513981" lon="14.5316304"><ele>222.0</ele><time>2026-05-03T07:36:15Z</time></trkpt><trkpt lat="37.5513581" lon="14.5318571"><ele>222.0</ele><time>2026-05-03T07:36:16Z</time></trkpt><trkpt lat="37.551293" lon="14.5320791"><ele>222.0</ele><time>2026-05-03T07:36:17Z</time></trkpt><trkpt lat="37.5512079" lon="14.5322888"><ele>222.0</ele><time>2026-05-03T07:36:18Z</time></trkpt><trkpt lat="37.5511108" lon="14.5324985"><ele>222.0</ele><time>2026-05-03T07:36:19Z</time></trkpt><trkpt lat="37.5510091" lon="14.5327039"><ele>222.66666666666669</ele><time>2026-05-03T07:36:20Z</time></trkpt><trkpt lat="37.5509065" lon="14.5329021"><ele>223.33333333333334</ele><time>2026-05-03T07:36:21Z</time></trkpt><trkpt lat="37.5508059" lon="14.5330951"><ele>224.0</ele><time>2026-05-03T07:36:22Z</time></trkpt><trkpt lat="37.5507084" lon="14.5332966"><ele>224.0</ele><time>2026-05-03T07:36:23Z</time></trkpt><trkpt lat="37.5506028" lon="14.5334874"><ele>224.0</ele><time>2026-05-03T07:36:24Z</time></trkpt><trkpt lat="37.5504967" lon="14.5336626"><ele>224.0</ele><time>2026-05-03T07:36:25Z</time></trkpt><trkpt lat="37.5504091" lon="14.5338369"><ele>224.0</ele><time>2026-05-03T07:36:26Z</time></trkpt><trkpt lat="37.5503391" lon="14.5340127"><ele>224.0</ele><time>2026-05-03T07:36:27Z</time></trkpt><trkpt lat="37.5503142" lon="14.5341784"><ele>224.0</ele><time>2026-05-03T07:36:28Z</time></trkpt><trkpt lat="37.5503182" lon="14.5343565"><ele>224.0</ele><time>2026-05-03T07:36:29Z</time></trkpt><trkpt lat="37.5503588" lon="14.5345237"><ele>227.33333333333334</ele><time>2026-05-03T07:36:30Z</time></trkpt><trkpt lat="37.5504141" lon="14.5347102"><ele>230.66666666666669</ele><time>2026-05-03T07:36:31Z</time></trkpt><trkpt lat="37.5504821" lon="14.5348929"><ele>234.0</ele><time>2026-05-03T07:36:32Z</time></trkpt><trkpt lat="37.5505596" lon="14.5350866"><ele>234.0</ele><time>2026-05-03T07:36:33Z</time></trkpt><trkpt lat="37.550637" lon="14.53528"><ele>234.0</ele><time>2026-05-03T07:36:34Z</time></trkpt><trkpt lat="37.5507266" lon="14.5354563"><ele>234.0</ele><time>2026-05-03T07:36:35Z</time></trkpt><trkpt lat="37.5508395" lon="14.5356071"><ele>235.33333333333331</ele><time>2026-05-03T07:36:36Z</time></trkpt><trkpt lat="37.55097" lon="14.535728"><ele>236.66666666666666</ele><time>2026-05-03T07:36:37Z</time></trkpt><trkpt lat="37.5511205" lon="14.5358233"><ele>238.0</ele><time>2026-05-03T07:36:38Z</time></trkpt><trkpt lat="37.551284" lon="14.5359086"><ele>238.0</ele><time>2026-05-03T07:36:39Z</time></trkpt><trkpt lat="37.5514599" lon="14.535988"><ele>238.0</ele><time>2026-05-03T07:36:40Z</time></trkpt><trkpt lat="37.5516419" lon="14.5360796"><ele>238.0</ele><time>2026-05-03T07:36:41Z</time></trkpt><trkpt lat="37.5518303" lon="14.5361681"><ele>236.66666666666666</ele><time>2026-05-03T07:36:42Z</time></trkpt><trkpt lat="37.5520235" lon="14.5362526"><ele>235.33333333333331</ele><time>2026-05-03T07:36:43Z</time></trkpt><trkpt lat="37.5522156" lon="14.536353"><ele>234.0</ele><time>2026-05-03T07:36:44Z</time></trkpt><trkpt lat="37.5524027" lon="14.5364799"><ele>234.0</ele><time>2026-05-03T07:36:45Z</time></trkpt><trkpt lat="37.5525753" lon="14.5366344"><ele>234.0</ele><time>2026-05-03T07:36:46Z</time></trkpt><trkpt lat="37.5527381" lon="14.5368206"><ele>234.0</ele><time>2026-05-03T07:36:47Z</time></trkpt><trkpt lat="37.5528942" lon="14.5370179"><ele>236.66666666666669</ele><time>2026-05-03T07:36:48Z</time></trkpt><trkpt lat="37.5530515" lon="14.5372141"><ele>239.33333333333334</ele><time>2026-05-03T07:36:49Z</time></trkpt><trkpt lat="37.5532116" lon="14.5374088"><ele>242.0</ele><time>2026-05-03T07:36:50Z</time></trkpt><trkpt lat="37.5533732" lon="14.5376026"><ele>242.0</ele><time>2026-05-03T07:36:51Z</time></trkpt><trkpt lat="37.5535356" lon="14.5377982"><ele>242.0</ele><time>2026-05-03T07:36:52Z</time></trkpt><trkpt lat="37.5536963" lon="14.5379896"><ele>242.0</ele><time>2026-05-03T07:36:53Z</time></trkpt><trkpt lat="37.5538508" lon="14.5381742"><ele>243.0</ele><time>2026-05-03T07:36:53.999Z</time></trkpt><trkpt lat="37.5540058" lon="14.5383564"><ele>244.0</ele><time>2026-05-03T07:36:55Z</time></trkpt><trkpt lat="37.554151" lon="14.5385521"><ele>245.0</ele><time>2026-05-03T07:36:56Z</time></trkpt><trkpt lat="37.5542672" lon="14.5387778"><ele>245.0</ele><time>2026-05-03T07:36:57Z</time></trkpt><trkpt lat="37.5543622" lon="14.5390299"><ele>245.0</ele><time>2026-05-03T07:36:58Z</time></trkpt><trkpt lat="37.5544366" lon="14.5392836"><ele>245.0</ele><time>2026-05-03T07:36:59Z</time></trkpt><trkpt lat="37.5545271" lon="14.5395094"><ele>247.33333333333334</ele><time>2026-05-03T07:37:00Z</time></trkpt><trkpt lat="37.5546332" lon="14.5396908"><ele>249.66666666666669</ele><time>2026-05-03T07:37:01Z</time></trkpt><trkpt lat="37.5547781" lon="14.5398428"><ele>252.0</ele><time>2026-05-03T07:37:02Z</time></trkpt><trkpt lat="37.554951" lon="14.5399663"><ele>252.0</ele><time>2026-05-03T07:37:03Z</time></trkpt><trkpt lat="37.5551411" lon="14.5400728"><ele>252.0</ele><time>2026-05-03T07:37:04Z</time></trkpt><trkpt lat="37.5553422" lon="14.5401839"><ele>252.0</ele><time>2026-05-03T07:37:05Z</time></trkpt><trkpt lat="37.5555454" lon="14.5403012"><ele>253.0</ele><time>2026-05-03T07:37:06Z</time></trkpt><trkpt lat="37.5557505" lon="14.5404165"><ele>254.0</ele><time>2026-05-03T07:37:07Z</time></trkpt><trkpt lat="37.5559375" lon="14.5405167"><ele>255.0</ele><time>2026-05-03T07:37:08Z</time></trkpt><trkpt lat="37.5561119" lon="14.5406335"><ele>258.3333333333333</ele><time>2026-05-03T07:37:09Z</time></trkpt><trkpt lat="37.5562499" lon="14.5407913"><ele>261.66666666666663</ele><time>2026-05-03T07:37:10Z</time></trkpt><trkpt lat="37.5563664" lon="14.5410022"><ele>265.0</ele><time>2026-05-03T07:37:11Z</time></trkpt><trkpt lat="37.5564489" lon="14.5412442"><ele>265.0</ele><time>2026-05-03T07:37:12Z</time></trkpt><trkpt lat="37.556517" lon="14.5415214"><ele>265.0</ele><time>2026-05-03T07:37:13Z</time></trkpt><trkpt lat="37.5565873" lon="14.5418045"><ele>264.3333333333333</ele><time>2026-05-03T07:37:14Z</time></trkpt><trkpt lat="37.5566539" lon="14.5420779"><ele>263.6666666666667</ele><time>2026-05-03T07:37:15Z</time></trkpt><trkpt lat="37.5567229" lon="14.5423425"><ele>263.0</ele><time>2026-05-03T07:37:16Z</time></trkpt><trkpt lat="37.5568189" lon="14.5426056"><ele>263.0</ele><time>2026-05-03T07:37:17Z</time></trkpt><trkpt lat="37.5569411" lon="14.5428341"><ele>263.0</ele><time>2026-05-03T07:37:18Z</time></trkpt><trkpt lat="37.5570816" lon="14.5430219"><ele>263.0</ele><time>2026-05-03T07:37:19Z</time></trkpt><trkpt lat="37.5572611" lon="14.5431698"><ele>267.5</ele><time>2026-05-03T07:37:20Z</time></trkpt><trkpt lat="37.5574633" lon="14.5432874"><ele>272.0</ele><time>2026-05-03T07:37:21Z</time></trkpt><trkpt lat="37.5576837" lon="14.5433907"><ele>277.0</ele><time>2026-05-03T07:37:22Z</time></trkpt><trkpt lat="37.5579188" lon="14.543488"><ele>282.0</ele><time>2026-05-03T07:37:23Z</time></trkpt><trkpt lat="37.5581473" lon="14.5435866"><ele>282.0</ele><time>2026-05-03T07:37:24Z</time></trkpt><trkpt lat="37.5583651" lon="14.5437108"><ele>282.0</ele><time>2026-05-03T07:37:25Z</time></trkpt><trkpt lat="37.5585744" lon="14.5438827"><ele>282.0</ele><time>2026-05-03T07:37:26Z</time></trkpt><trkpt lat="37.5587766" lon="14.5440827"><ele>282.0</ele><time>2026-05-03T07:37:27Z</time></trkpt><trkpt lat="37.5589709" lon="14.5443044"><ele>282.0</ele><time>2026-05-03T07:37:28Z</time></trkpt><trkpt lat="37.5591582" lon="14.5445216"><ele>282.0</ele><time>2026-05-03T07:37:29Z</time></trkpt><trkpt lat="37.5593437" lon="14.5447391"><ele>287.5</ele><time>2026-05-03T07:37:30Z</time></trkpt><trkpt lat="37.5595397" lon="14.5449406"><ele>293.0</ele><time>2026-05-03T07:37:31Z</time></trkpt><trkpt lat="37.5597556" lon="14.5451052"><ele>293.0</ele><time>2026-05-03T07:37:32Z</time></trkpt><trkpt lat="37.5599908" lon="14.5452609"><ele>293.0</ele><time>2026-05-03T07:37:33Z</time></trkpt><trkpt lat="37.5602339" lon="14.5453977"><ele>294.0</ele><time>2026-05-03T07:37:34Z</time></trkpt><trkpt lat="37.5604844" lon="14.5455302"><ele>295.0</ele><time>2026-05-03T07:37:35Z</time></trkpt><trkpt lat="37.5607299" lon="14.5456681"><ele>295.0</ele><time>2026-05-03T07:37:36Z</time></trkpt><trkpt lat="37.5609742" lon="14.5458041"><ele>295.0</ele><time>2026-05-03T07:37:37Z</time></trkpt><trkpt lat="37.5612244" lon="14.545931"><ele>299.0</ele><time>2026-05-03T07:37:38Z</time></trkpt><trkpt lat="37.5614729" lon="14.5460439"><ele>303.0</ele><time>2026-05-03T07:37:39Z</time></trkpt><trkpt lat="37.5617312" lon="14.546133"><ele>303.0</ele><time>2026-05-03T07:37:40Z</time></trkpt><trkpt lat="37.5619929" lon="14.5462095"><ele>303.0</ele><time>2026-05-03T07:37:41Z</time></trkpt><trkpt lat="37.5622576" lon="14.5462654"><ele>304.0</ele><time>2026-05-03T07:37:42Z</time></trkpt><trkpt lat="37.562523" lon="14.546315"><ele>305.0</ele><time>2026-05-03T07:37:43Z</time></trkpt><trkpt lat="37.5627906" lon="14.5463405"><ele>307.5</ele><time>2026-05-03T07:37:44Z</time></trkpt><trkpt lat="37.5630564" lon="14.5463707"><ele>310.0</ele><time>2026-05-03T07:37:45Z</time></trkpt><trkpt lat="37.5633239" lon="14.5464118"><ele>310.0</ele><time>2026-05-03T07:37:46Z</time></trkpt><trkpt lat="37.5635866" lon="14.5464587"><ele>310.0</ele><time>2026-05-03T07:37:47Z</time></trkpt><trkpt lat="37.5638502" lon="14.5465009"><ele>314.0</ele><time>2026-05-03T07:37:48Z</time></trkpt><trkpt lat="37.5640962" lon="14.5465326"><ele>318.0</ele><time>2026-05-03T07:37:49Z</time></trkpt><trkpt lat="37.5643275" lon="14.5465659"><ele>321.0</ele><time>2026-05-03T07:37:50Z</time></trkpt><trkpt lat="37.5645597" lon="14.5465724"><ele>324.0</ele><time>2026-05-03T07:37:51Z</time></trkpt><trkpt lat="37.5647828" lon="14.5465282"><ele>324.0</ele><time>2026-05-03T07:37:52Z</time></trkpt><trkpt lat="37.565014" lon="14.546428"><ele>324.0</ele><time>2026-05-03T07:37:53Z</time></trkpt><trkpt lat="37.5652371" lon="14.5462958"><ele>326.0</ele><time>2026-05-03T07:37:54Z</time></trkpt><trkpt lat="37.5654621" lon="14.5461388"><ele>328.0</ele><time>2026-05-03T07:37:55Z</time></trkpt><trkpt lat="37.5656963" lon="14.5459738"><ele>328.0</ele><time>2026-05-03T07:37:56Z</time></trkpt><trkpt lat="37.5659273" lon="14.545813"><ele>328.0</ele><time>2026-05-03T07:37:57Z</time></trkpt><trkpt lat="37.5661489" lon="14.545656"><ele>329.0</ele><time>2026-05-03T07:37:58Z</time></trkpt><trkpt lat="37.5663545" lon="14.5455276"><ele>330.0</ele><time>2026-05-03T07:37:59Z</time></trkpt><trkpt lat="37.5665617" lon="14.5454486"><ele>331.0</ele><time>2026-05-03T07:38:00Z</time></trkpt><trkpt lat="37.566777" lon="14.5454255"><ele>331.0</ele><time>2026-05-03T07:38:01Z</time></trkpt><trkpt lat="37.5669812" lon="14.5454506"><ele>331.0</ele><time>2026-05-03T07:38:02Z</time></trkpt><trkpt lat="37.5671927" lon="14.5455314"><ele>331.0</ele><time>2026-05-03T07:38:03Z</time></trkpt><trkpt lat="37.5674078" lon="14.5456367"><ele>331.0</ele><time>2026-05-03T07:38:04Z</time></trkpt><trkpt lat="37.5676286" lon="14.5457549"><ele>331.0</ele><time>2026-05-03T07:38:05Z</time></trkpt><trkpt lat="37.5678611" lon="14.5458795"><ele>331.5</ele><time>2026-05-03T07:38:06Z</time></trkpt><trkpt lat="37.5681001" lon="14.5460021"><ele>332.0</ele><time>2026-05-03T07:38:07Z</time></trkpt><trkpt lat="37.5683374" lon="14.5461212"><ele>333.5</ele><time>2026-05-03T07:38:08Z</time></trkpt><trkpt lat="37.5685777" lon="14.5462455"><ele>335.0</ele><time>2026-05-03T07:38:09Z</time></trkpt><trkpt lat="37.5688198" lon="14.5463713"><ele>335.5</ele><time>2026-05-03T07:38:10Z</time></trkpt><trkpt lat="37.5690702" lon="14.5464959"><ele>336.0</ele><time>2026-05-03T07:38:11Z</time></trkpt><trkpt lat="37.5693207" lon="14.5466348"><ele>336.5</ele><time>2026-05-03T07:38:12Z</time></trkpt><trkpt lat="37.5695649" lon="14.5467586"><ele>337.0</ele><time>2026-05-03T07:38:13Z</time></trkpt><trkpt lat="37.5698091" lon="14.5468886"><ele>340.0</ele><time>2026-05-03T07:38:14Z</time></trkpt><trkpt lat="37.5700452" lon="14.5470545"><ele>343.0</ele><time>2026-05-03T07:38:15Z</time></trkpt><trkpt lat="37.5702557" lon="14.5472491"><ele>341.0</ele><time>2026-05-03T07:38:16Z</time></trkpt><trkpt lat="37.570442" lon="14.5474408"><ele>339.0</ele><time>2026-05-03T07:38:17Z</time></trkpt><trkpt lat="37.5705924" lon="14.5476454"><ele>340.0</ele><time>2026-05-03T07:38:18Z</time></trkpt><trkpt lat="37.5706991" lon="14.5478923"><ele>341.0</ele><time>2026-05-03T07:38:19Z</time></trkpt><trkpt lat="37.5707647" lon="14.5481714"><ele>341.0</ele><time>2026-05-03T07:38:20Z</time></trkpt><trkpt lat="37.5707811" lon="14.5484647"><ele>341.0</ele><time>2026-05-03T07:38:21Z</time></trkpt><trkpt lat="37.5707993" lon="14.5487736"><ele>344.5</ele><time>2026-05-03T07:38:22Z</time></trkpt><trkpt lat="37.5708592" lon="14.549078"><ele>348.0</ele><time>2026-05-03T07:38:23Z</time></trkpt><trkpt lat="37.570943" lon="14.5493815"><ele>350.0</ele><time>2026-05-03T07:38:24Z</time></trkpt><trkpt lat="37.5710425" lon="14.5496784"><ele>352.0</ele><time>2026-05-03T07:38:25Z</time></trkpt><trkpt lat="37.5711487" lon="14.5499756"><ele>353.5</ele><time>2026-05-03T07:38:26Z</time></trkpt><trkpt lat="37.5712579" lon="14.5502636"><ele>355.0</ele><time>2026-05-03T07:38:27Z</time></trkpt><trkpt lat="37.5713701" lon="14.5505615"><ele>355.0</ele><time>2026-05-03T07:38:28Z</time></trkpt><trkpt lat="37.5714823" lon="14.5508645"><ele>355.0</ele><time>2026-05-03T07:38:29Z</time></trkpt><trkpt lat="37.5715887" lon="14.5511656"><ele>355.5</ele><time>2026-05-03T07:38:30Z</time></trkpt><trkpt lat="37.5716949" lon="14.5514462"><ele>356.0</ele><time>2026-05-03T07:38:31Z</time></trkpt><trkpt lat="37.5717995" lon="14.5517305"><ele>356.0</ele><time>2026-05-03T07:38:32Z</time></trkpt><trkpt lat="37.571902" lon="14.5520163"><ele>356.0</ele><time>2026-05-03T07:38:33Z</time></trkpt><trkpt lat="37.5719984" lon="14.5523031"><ele>351.5</ele><time>2026-05-03T07:38:34Z</time></trkpt><trkpt lat="37.572066" lon="14.5526028"><ele>347.0</ele><time>2026-05-03T07:38:35Z</time></trkpt><trkpt lat="37.5721164" lon="14.5529186"><ele>347.0</ele><time>2026-05-03T07:38:36Z</time></trkpt><trkpt lat="37.5721585" lon="14.5532369"><ele>347.0</ele><time>2026-05-03T07:38:37Z</time></trkpt><trkpt lat="37.5722059" lon="14.5535687"><ele>349.0</ele><time>2026-05-03T07:38:38Z</time></trkpt><trkpt lat="37.5722595" lon="14.5539092"><ele>351.0</ele><time>2026-05-03T07:38:39Z</time></trkpt><trkpt lat="37.5723173" lon="14.5542332"><ele>354.0</ele><time>2026-05-03T07:38:40Z</time></trkpt><trkpt lat="37.5723612" lon="14.5545432"><ele>357.0</ele><time>2026-05-03T07:38:41Z</time></trkpt><trkpt lat="37.5723897" lon="14.5548373"><ele>357.0</ele><time>2026-05-03T07:38:42Z</time></trkpt><trkpt lat="37.5724521" lon="14.5551241"><ele>357.0</ele><time>2026-05-03T07:38:43Z</time></trkpt><trkpt lat="37.5725767" lon="14.555427"><ele>359.5</ele><time>2026-05-03T07:38:44Z</time></trkpt><trkpt lat="37.5727318" lon="14.5557344"><ele>362.0</ele><time>2026-05-03T07:38:45Z</time></trkpt><trkpt lat="37.5729192" lon="14.5560516"><ele>359.0</ele><time>2026-05-03T07:38:46Z</time></trkpt><trkpt lat="37.573117" lon="14.5563883"><ele>356.0</ele><time>2026-05-03T07:38:47Z</time></trkpt><trkpt lat="37.5733075" lon="14.5567426"><ele>355.0</ele><time>2026-05-03T07:38:48Z</time></trkpt><trkpt lat="37.5735013" lon="14.557081"><ele>354.0</ele><time>2026-05-03T07:38:49Z</time></trkpt><trkpt lat="37.5736956" lon="14.5574149"><ele>354.0</ele><time>2026-05-03T07:38:50Z</time></trkpt><trkpt lat="37.573876" lon="14.5577413"><ele>354.0</ele><time>2026-05-03T07:38:51Z</time></trkpt><trkpt lat="37.5740531" lon="14.5580444"><ele>359.0</ele><time>2026-05-03T07:38:52Z</time></trkpt><trkpt lat="37.5742125" lon="14.5583124"><ele>364.0</ele><time>2026-05-03T07:38:53Z</time></trkpt><trkpt lat="37.5743624" lon="14.5585476"><ele>363.66666666666663</ele><time>2026-05-03T07:38:54Z</time></trkpt><trkpt lat="37.5745154" lon="14.5587439"><ele>363.3333333333333</ele><time>2026-05-03T07:38:55Z</time></trkpt><trkpt lat="37.5746926" lon="14.5588926"><ele>363.0</ele><time>2026-05-03T07:38:56Z</time></trkpt><trkpt lat="37.5748926" lon="14.5589838"><ele>362.0</ele><time>2026-05-03T07:38:57Z</time></trkpt><trkpt lat="37.5751162" lon="14.5590172"><ele>361.0</ele><time>2026-05-03T07:38:58Z</time></trkpt><trkpt lat="37.5753624" lon="14.5589914"><ele>364.5</ele><time>2026-05-03T07:38:59Z</time></trkpt><trkpt lat="37.575628" lon="14.558913"><ele>368.0</ele><time>2026-05-03T07:39:00Z</time></trkpt><trkpt lat="37.5758706" lon="14.5588133"><ele>367.0</ele><time>2026-05-03T07:39:01Z</time></trkpt><trkpt lat="37.5760915" lon="14.558673"><ele>366.0</ele><time>2026-05-03T07:39:02Z</time></trkpt><trkpt lat="37.576305" lon="14.558478"><ele>370.0</ele><time>2026-05-03T07:39:03Z</time></trkpt><trkpt lat="37.576508" lon="14.5582291"><ele>374.0</ele><time>2026-05-03T07:39:04Z</time></trkpt><trkpt lat="37.576689" lon="14.5579307"><ele>372.0</ele><time>2026-05-03T07:39:05Z</time></trkpt><trkpt lat="37.5768742" lon="14.5576201"><ele>370.0</ele><time>2026-05-03T07:39:06Z</time></trkpt><trkpt lat="37.5770484" lon="14.5572838"><ele>375.5</ele><time>2026-05-03T07:39:07Z</time></trkpt><trkpt lat="37.5772183" lon="14.5569783"><ele>381.0</ele><time>2026-05-03T07:39:08Z</time></trkpt><trkpt lat="37.5773729" lon="14.5567097"><ele>381.0</ele><time>2026-05-03T07:39:09Z</time></trkpt><trkpt lat="37.577531" lon="14.5564781"><ele>381.0</ele><time>2026-05-03T07:39:10Z</time></trkpt><trkpt lat="37.5777074" lon="14.5562889"><ele>381.0</ele><time>2026-05-03T07:39:11Z</time></trkpt><trkpt lat="37.5779097" lon="14.5561337"><ele>381.0</ele><time>2026-05-03T07:39:12Z</time></trkpt><trkpt lat="37.5781373" lon="14.5560198"><ele>381.0</ele><time>2026-05-03T07:39:13Z</time></trkpt><trkpt lat="37.5783675" lon="14.5559473"><ele>381.0</ele><time>2026-05-03T07:39:14Z</time></trkpt><trkpt lat="37.5785977" lon="14.5559338"><ele>382.5</ele><time>2026-05-03T07:39:15Z</time></trkpt><trkpt lat="37.5788428" lon="14.5559683"><ele>384.0</ele><time>2026-05-03T07:39:16Z</time></trkpt><trkpt lat="37.5790969" lon="14.5560531"><ele>384.0</ele><time>2026-05-03T07:39:17Z</time></trkpt><trkpt lat="37.579371" lon="14.5561605"><ele>384.0</ele><time>2026-05-03T07:39:18Z</time></trkpt><trkpt lat="37.5796519" lon="14.5562665"><ele>388.0</ele><time>2026-05-03T07:39:18.999Z</time></trkpt><trkpt lat="37.5799289" lon="14.5563636"><ele>392.0</ele><time>2026-05-03T07:39:20Z</time></trkpt><trkpt lat="37.5801984" lon="14.5564629"><ele>393.5</ele><time>2026-05-03T07:39:21Z</time></trkpt><trkpt lat="37.5804571" lon="14.5565585"><ele>395.0</ele><time>2026-05-03T07:39:22Z</time></trkpt><trkpt lat="37.5807077" lon="14.5566551"><ele>395.0</ele><time>2026-05-03T07:39:23Z</time></trkpt><trkpt lat="37.5809507" lon="14.5567506"><ele>395.0</ele><time>2026-05-03T07:39:24Z</time></trkpt><trkpt lat="37.5811821" lon="14.5568352"><ele>396.0</ele><time>2026-05-03T07:39:25Z</time></trkpt><trkpt lat="37.5814133" lon="14.5568916"><ele>397.0</ele><time>2026-05-03T07:39:26Z</time></trkpt><trkpt lat="37.5816477" lon="14.5568962"><ele>397.0</ele><time>2026-05-03T07:39:27Z</time></trkpt><trkpt lat="37.5818699" lon="14.5568504"><ele>397.0</ele><time>2026-05-03T07:39:28Z</time></trkpt><trkpt lat="37.5820701" lon="14.5567732"><ele>397.0</ele><time>2026-05-03T07:39:29Z</time></trkpt><trkpt lat="37.5822578" lon="14.5567099"><ele>399.6666666666667</ele><time>2026-05-03T07:39:30Z</time></trkpt><trkpt lat="37.5824504" lon="14.5566786"><ele>402.33333333333337</ele><time>2026-05-03T07:39:31Z</time></trkpt><trkpt lat="37.5826507" lon="14.5566878"><ele>405.0</ele><time>2026-05-03T07:39:32Z</time></trkpt><trkpt lat="37.5828465" lon="14.5567386"><ele>404.66666666666663</ele><time>2026-05-03T07:39:33Z</time></trkpt><trkpt lat="37.5830181" lon="14.5568316"><ele>404.3333333333333</ele><time>2026-05-03T07:39:34Z</time></trkpt><trkpt lat="37.583192" lon="14.5569624"><ele>404.0</ele><time>2026-05-03T07:39:35Z</time></trkpt><trkpt lat="37.5833651" lon="14.5571241"><ele>405.0</ele><time>2026-05-03T07:39:36Z</time></trkpt><trkpt lat="37.5835434" lon="14.557295"><ele>406.0</ele><time>2026-05-03T07:39:37Z</time></trkpt><trkpt lat="37.5837149" lon="14.5574724"><ele>407.0</ele><time>2026-05-03T07:39:38Z</time></trkpt><trkpt lat="37.5838859" lon="14.5576342"><ele>407.0</ele><time>2026-05-03T07:39:39Z</time></trkpt><trkpt lat="37.5840476" lon="14.5577721"><ele>407.0</ele><time>2026-05-03T07:39:40Z</time></trkpt><trkpt lat="37.5842304" lon="14.5578656"><ele>407.0</ele><time>2026-05-03T07:39:41Z</time></trkpt><trkpt lat="37.5844204" lon="14.5579057"><ele>407.3333333333333</ele><time>2026-05-03T07:39:42Z</time></trkpt><trkpt lat="37.5846149" lon="14.5579025"><ele>407.66666666666663</ele><time>2026-05-03T07:39:43Z</time></trkpt><trkpt lat="37.5848078" lon="14.5578561"><ele>408.0</ele><time>2026-05-03T07:39:44Z</time></trkpt><trkpt lat="37.5849921" lon="14.5577594"><ele>408.0</ele><time>2026-05-03T07:39:45Z</time></trkpt><trkpt lat="37.5851669" lon="14.5576363"><ele>408.0</ele><time>2026-05-03T07:39:46Z</time></trkpt><trkpt lat="37.5853513" lon="14.5575486"><ele>408.0</ele><time>2026-05-03T07:39:47Z</time></trkpt><trkpt lat="37.585549" lon="14.5575174"><ele>409.0</ele><time>2026-05-03T07:39:48Z</time></trkpt><trkpt lat="37.585793" lon="14.5575191"><ele>410.0</ele><time>2026-05-03T07:39:49Z</time></trkpt><trkpt lat="37.5860452" lon="14.5575453"><ele>408.0</ele><time>2026-05-03T07:39:50Z</time></trkpt><trkpt lat="37.5862823" lon="14.5575674"><ele>406.0</ele><time>2026-05-03T07:39:51Z</time></trkpt><trkpt lat="37.5864921" lon="14.5575854"><ele>404.0</ele><time>2026-05-03T07:39:52Z</time></trkpt><trkpt lat="37.5866842" lon="14.5575634"><ele>404.0</ele><time>2026-05-03T07:39:53Z</time></trkpt><trkpt lat="37.5868487" lon="14.5574959"><ele>404.0</ele><time>2026-05-03T07:39:54Z</time></trkpt><trkpt lat="37.5870017" lon="14.5573813"><ele>404.0</ele><time>2026-05-03T07:39:55Z</time></trkpt><trkpt lat="37.5871338" lon="14.5572341"><ele>400.0</ele><time>2026-05-03T07:39:56Z</time></trkpt><trkpt lat="37.5872343" lon="14.5570398"><ele>396.0</ele><time>2026-05-03T07:39:57Z</time></trkpt><trkpt lat="37.5873018" lon="14.5568185"><ele>392.0</ele><time>2026-05-03T07:39:58Z</time></trkpt><trkpt lat="37.5873217" lon="14.5566011"><ele>390.66666666666663</ele><time>2026-05-03T07:39:59Z</time></trkpt><trkpt lat="37.5873209" lon="14.5563817"><ele>389.33333333333337</ele><time>2026-05-03T07:40:00Z</time></trkpt><trkpt lat="37.5873182" lon="14.5561625"><ele>388.0</ele><time>2026-05-03T07:40:01Z</time></trkpt><trkpt lat="37.5873105" lon="14.5559553"><ele>386.33333333333337</ele><time>2026-05-03T07:40:02Z</time></trkpt><trkpt lat="37.5873068" lon="14.5557558"><ele>384.6666666666667</ele><time>2026-05-03T07:40:03Z</time></trkpt><trkpt lat="37.5873159" lon="14.5555593"><ele>383.0</ele><time>2026-05-03T07:40:04Z</time></trkpt><trkpt lat="37.5873473" lon="14.555375"><ele>383.25</ele><time>2026-05-03T07:40:05Z</time></trkpt><trkpt lat="37.5873968" lon="14.5551931"><ele>383.5</ele><time>2026-05-03T07:40:06Z</time></trkpt><trkpt lat="37.587457" lon="14.555025"><ele>383.75</ele><time>2026-05-03T07:40:07Z</time></trkpt><trkpt lat="37.5875351" lon="14.554872"><ele>384.0</ele><time>2026-05-03T07:40:08Z</time></trkpt><trkpt lat="37.5876205" lon="14.5547195"><ele>384.0</ele><time>2026-05-03T07:40:09Z</time></trkpt><trkpt lat="37.5877204" lon="14.5545621"><ele>384.0</ele><time>2026-05-03T07:40:10Z</time></trkpt><trkpt lat="37.5878308" lon="14.5543942"><ele>384.0</ele><time>2026-05-03T07:40:11Z</time></trkpt><trkpt lat="37.5879452" lon="14.5542188"><ele>382.0</ele><time>2026-05-03T07:40:12Z</time></trkpt><trkpt lat="37.5880678" lon="14.5540357"><ele>380.0</ele><time>2026-05-03T07:40:13Z</time></trkpt><trkpt lat="37.5881827" lon="14.5538608"><ele>378.0</ele><time>2026-05-03T07:40:14Z</time></trkpt><trkpt lat="37.5883045" lon="14.5536804"><ele>378.0</ele><time>2026-05-03T07:40:15Z</time></trkpt><trkpt lat="37.5884425" lon="14.5535309"><ele>378.0</ele><time>2026-05-03T07:40:16Z</time></trkpt><trkpt lat="37.5886145" lon="14.553414"><ele>378.0</ele><time>2026-05-03T07:40:17Z</time></trkpt><trkpt lat="37.5887963" lon="14.5533321"><ele>376.3333333333333</ele><time>2026-05-03T07:40:18Z</time></trkpt><trkpt lat="37.5890039" lon="14.5532602"><ele>374.66666666666663</ele><time>2026-05-03T07:40:19Z</time></trkpt><trkpt lat="37.5892174" lon="14.5531964"><ele>373.0</ele><time>2026-05-03T07:40:20Z</time></trkpt><trkpt lat="37.5894319" lon="14.5531323"><ele>371.5</ele><time>2026-05-03T07:40:21Z</time></trkpt><trkpt lat="37.5896567" lon="14.5530653"><ele>370.0</ele><time>2026-05-03T07:40:22Z</time></trkpt><trkpt lat="37.5898821" lon="14.5529936"><ele>370.0</ele><time>2026-05-03T07:40:23Z</time></trkpt><trkpt lat="37.5901071" lon="14.5529258"><ele>370.0</ele><time>2026-05-03T07:40:24Z</time></trkpt><trkpt lat="37.5903274" lon="14.5528622"><ele>369.0</ele><time>2026-05-03T07:40:25Z</time></trkpt><trkpt lat="37.5905515" lon="14.5527947"><ele>368.0</ele><time>2026-05-03T07:40:26Z</time></trkpt><trkpt lat="37.5907805" lon="14.5527304"><ele>368.0</ele><time>2026-05-03T07:40:27Z</time></trkpt><trkpt lat="37.5910063" lon="14.5526683"><ele>368.0</ele><time>2026-05-03T07:40:28Z</time></trkpt><trkpt lat="37.5912359" lon="14.5525999"><ele>366.5</ele><time>2026-05-03T07:40:29Z</time></trkpt><trkpt lat="37.5914665" lon="14.5525268"><ele>365.0</ele><time>2026-05-03T07:40:30Z</time></trkpt><trkpt lat="37.5916864" lon="14.5524389"><ele>365.0</ele><time>2026-05-03T07:40:31Z</time></trkpt><trkpt lat="37.5918945" lon="14.5523169"><ele>365.0</ele><time>2026-05-03T07:40:32Z</time></trkpt><trkpt lat="37.5920862" lon="14.5521822"><ele>365.0</ele><time>2026-05-03T07:40:33Z</time></trkpt><trkpt lat="37.5922762" lon="14.5520358"><ele>363.0</ele><time>2026-05-03T07:40:34Z</time></trkpt><trkpt lat="37.5924582" lon="14.5518914"><ele>361.0</ele><time>2026-05-03T07:40:35Z</time></trkpt><trkpt lat="37.5926312" lon="14.5517551"><ele>359.0</ele><time>2026-05-03T07:40:36Z</time></trkpt><trkpt lat="37.5927993" lon="14.5516412"><ele>355.0</ele><time>2026-05-03T07:40:36.999Z</time></trkpt><trkpt lat="37.5929801" lon="14.5515618"><ele>351.0</ele><time>2026-05-03T07:40:38Z</time></trkpt><trkpt lat="37.5931752" lon="14.5515229"><ele>347.0</ele><time>2026-05-03T07:40:39Z</time></trkpt><trkpt lat="37.5933844" lon="14.5515143"><ele>347.0</ele><time>2026-05-03T07:40:40Z</time></trkpt><trkpt lat="37.5935992" lon="14.5515262"><ele>347.0</ele><time>2026-05-03T07:40:41Z</time></trkpt><trkpt lat="37.5938255" lon="14.5515341"><ele>347.0</ele><time>2026-05-03T07:40:42Z</time></trkpt><trkpt lat="37.5940527" lon="14.5515447"><ele>346.5</ele><time>2026-05-03T07:40:43Z</time></trkpt><trkpt lat="37.5942852" lon="14.5515521"><ele>346.0</ele><time>2026-05-03T07:40:44Z</time></trkpt><trkpt lat="37.5945215" lon="14.5515637"><ele>344.5</ele><time>2026-05-03T07:40:45Z</time></trkpt><trkpt lat="37.5947591" lon="14.5515697"><ele>343.0</ele><time>2026-05-03T07:40:46Z</time></trkpt><trkpt lat="37.5949966" lon="14.551578"><ele>343.0</ele><time>2026-05-03T07:40:47Z</time></trkpt><trkpt lat="37.5952328" lon="14.5515911"><ele>343.0</ele><time>2026-05-03T07:40:48Z</time></trkpt><trkpt lat="37.5954633" lon="14.5515986"><ele>341.5</ele><time>2026-05-03T07:40:49Z</time></trkpt><trkpt lat="37.5956895" lon="14.5516062"><ele>340.0</ele><time>2026-05-03T07:40:50Z</time></trkpt><trkpt lat="37.5959146" lon="14.5516093"><ele>340.0</ele><time>2026-05-03T07:40:51Z</time></trkpt><trkpt lat="37.5961414" lon="14.5515974"><ele>340.0</ele><time>2026-05-03T07:40:52Z</time></trkpt><trkpt lat="37.5963682" lon="14.5515578"><ele>339.5</ele><time>2026-05-03T07:40:53Z</time></trkpt><trkpt lat="37.5965955" lon="14.5515015"><ele>339.0</ele><time>2026-05-03T07:40:54Z</time></trkpt><trkpt lat="37.5968166" lon="14.5514355"><ele>337.0</ele><time>2026-05-03T07:40:55Z</time></trkpt><trkpt lat="37.5970408" lon="14.5513708"><ele>335.0</ele><time>2026-05-03T07:40:56Z</time></trkpt><trkpt lat="37.597265" lon="14.5513054"><ele>335.0</ele><time>2026-05-03T07:40:57Z</time></trkpt><trkpt lat="37.5974893" lon="14.5512377"><ele>335.0</ele><time>2026-05-03T07:40:58Z</time></trkpt><trkpt lat="37.5977135" lon="14.5511683"><ele>336.5</ele><time>2026-05-03T07:40:59Z</time></trkpt><trkpt lat="37.5979386" lon="14.5510953"><ele>338.0</ele><time>2026-05-03T07:41:00Z</time></trkpt><trkpt lat="37.5981533" lon="14.5510227"><ele>338.0</ele><time>2026-05-03T07:41:01Z</time></trkpt><trkpt lat="37.5983606" lon="14.5509651"><ele>338.0</ele><time>2026-05-03T07:41:02Z</time></trkpt><trkpt lat="37.5985643" lon="14.5509403"><ele>338.0</ele><time>2026-05-03T07:41:03Z</time></trkpt><trkpt lat="37.5987776" lon="14.5509598"><ele>338.0</ele><time>2026-05-03T07:41:04Z</time></trkpt><trkpt lat="37.5989728" lon="14.5510134"><ele>338.0</ele><time>2026-05-03T07:41:05Z</time></trkpt><trkpt lat="37.5991577" lon="14.5510887"><ele>338.0</ele><time>2026-05-03T07:41:06Z</time></trkpt><trkpt lat="37.5993295" lon="14.5511517"><ele>335.33333333333337</ele><time>2026-05-03T07:41:07Z</time></trkpt><trkpt lat="37.5995092" lon="14.5511745"><ele>332.6666666666667</ele><time>2026-05-03T07:41:08Z</time></trkpt><trkpt lat="37.599692" lon="14.5511474"><ele>330.0</ele><time>2026-05-03T07:41:09Z</time></trkpt><trkpt lat="37.5998816" lon="14.5510624"><ele>330.0</ele><time>2026-05-03T07:41:10Z</time></trkpt><trkpt lat="37.6000756" lon="14.5509351"><ele>330.0</ele><time>2026-05-03T07:41:11Z</time></trkpt><trkpt lat="37.6002889" lon="14.550778"><ele>327.0</ele><time>2026-05-03T07:41:12Z</time></trkpt><trkpt lat="37.60053" lon="14.550612"><ele>324.0</ele><time>2026-05-03T07:41:13Z</time></trkpt><trkpt lat="37.6007779" lon="14.5504501"><ele>323.0</ele><time>2026-05-03T07:41:14Z</time></trkpt><trkpt lat="37.6010255" lon="14.5502947"><ele>322.0</ele><time>2026-05-03T07:41:15Z</time></trkpt><trkpt lat="37.6012754" lon="14.5501385"><ele>322.0</ele><time>2026-05-03T07:41:15.999Z</time></trkpt><trkpt lat="37.6015267" lon="14.5499987"><ele>322.0</ele><time>2026-05-03T07:41:17Z</time></trkpt><trkpt lat="37.6017706" lon="14.5498637"><ele>323.5</ele><time>2026-05-03T07:41:18Z</time></trkpt><trkpt lat="37.6020112" lon="14.5497278"><ele>325.0</ele><time>2026-05-03T07:41:19Z</time></trkpt><trkpt lat="37.6022454" lon="14.5495979"><ele>323.5</ele><time>2026-05-03T07:41:20Z</time></trkpt><trkpt lat="37.6024723" lon="14.5494764"><ele>322.0</ele><time>2026-05-03T07:41:21Z</time></trkpt><trkpt lat="37.6026839" lon="14.549356"><ele>321.0</ele><time>2026-05-03T07:41:22Z</time></trkpt><trkpt lat="37.602884" lon="14.54924"><ele>320.0</ele><time>2026-05-03T07:41:23Z</time></trkpt><trkpt lat="37.6030795" lon="14.5491567"><ele>319.0</ele><time>2026-05-03T07:41:24Z</time></trkpt><trkpt lat="37.603277" lon="14.5491204"><ele>319.0</ele><time>2026-05-03T07:41:25Z</time></trkpt><trkpt lat="37.6034918" lon="14.549137"><ele>319.0</ele><time>2026-05-03T07:41:26Z</time></trkpt><trkpt lat="37.6037146" lon="14.5491794"><ele>319.0</ele><time>2026-05-03T07:41:27Z</time></trkpt><trkpt lat="37.6039379" lon="14.5492387"><ele>318.66666666666663</ele><time>2026-05-03T07:41:28Z</time></trkpt><trkpt lat="37.6041618" lon="14.5492943"><ele>318.3333333333333</ele><time>2026-05-03T07:41:29Z</time></trkpt><trkpt lat="37.6043767" lon="14.5493441"><ele>318.0</ele><time>2026-05-03T07:41:30Z</time></trkpt><trkpt lat="37.6045742" lon="14.5493987"><ele>318.0</ele><time>2026-05-03T07:41:31Z</time></trkpt><trkpt lat="37.604765" lon="14.5494271"><ele>318.0</ele><time>2026-05-03T07:41:32Z</time></trkpt><trkpt lat="37.6049535" lon="14.5494075"><ele>318.0</ele><time>2026-05-03T07:41:33Z</time></trkpt><trkpt lat="37.6051301" lon="14.5493444"><ele>318.0</ele><time>2026-05-03T07:41:34Z</time></trkpt><trkpt lat="37.605307" lon="14.5492311"><ele>318.0</ele><time>2026-05-03T07:41:35Z</time></trkpt><trkpt lat="37.6054755" lon="14.5490718"><ele>318.0</ele><time>2026-05-03T07:41:36Z</time></trkpt><trkpt lat="37.6056535" lon="14.548901"><ele>317.0</ele><time>2026-05-03T07:41:37Z</time></trkpt><trkpt lat="37.6058332" lon="14.5487289"><ele>316.0</ele><time>2026-05-03T07:41:38Z</time></trkpt><trkpt lat="37.606012" lon="14.5485552"><ele>315.3333333333333</ele><time>2026-05-03T07:41:39Z</time></trkpt><trkpt lat="37.6061902" lon="14.5483834"><ele>314.6666666666667</ele><time>2026-05-03T07:41:40Z</time></trkpt><trkpt lat="37.6063602" lon="14.5482138"><ele>314.0</ele><time>2026-05-03T07:41:41Z</time></trkpt><trkpt lat="37.6065261" lon="14.5480509"><ele>314.0</ele><time>2026-05-03T07:41:42Z</time></trkpt><trkpt lat="37.6067012" lon="14.5478884"><ele>314.0</ele><time>2026-05-03T07:41:43Z</time></trkpt><trkpt lat="37.6068901" lon="14.5477545"><ele>314.0</ele><time>2026-05-03T07:41:44Z</time></trkpt><trkpt lat="37.6070891" lon="14.5476486"><ele>316.5</ele><time>2026-05-03T07:41:45Z</time></trkpt><trkpt lat="37.6073027" lon="14.5475699"><ele>319.0</ele><time>2026-05-03T07:41:46Z</time></trkpt><trkpt lat="37.6075282" lon="14.5475081"><ele>319.0</ele><time>2026-05-03T07:41:47Z</time></trkpt><trkpt lat="37.6077504" lon="14.5474503"><ele>319.0</ele><time>2026-05-03T07:41:48Z</time></trkpt><trkpt lat="37.6079686" lon="14.5473935"><ele>319.0</ele><time>2026-05-03T07:41:49Z</time></trkpt><trkpt lat="37.6081807" lon="14.5473313"><ele>319.0</ele><time>2026-05-03T07:41:50Z</time></trkpt><trkpt lat="37.608395" lon="14.5472439"><ele>319.0</ele><time>2026-05-03T07:41:51Z</time></trkpt><trkpt lat="37.6085958" lon="14.5471225"><ele>319.5</ele><time>2026-05-03T07:41:52Z</time></trkpt><trkpt lat="37.6087891" lon="14.5469727"><ele>320.0</ele><time>2026-05-03T07:41:52.999Z</time></trkpt><trkpt lat="37.6089805" lon="14.5468072"><ele>320.0</ele><time>2026-05-03T07:41:54Z</time></trkpt><trkpt lat="37.6091746" lon="14.546641"><ele>320.0</ele><time>2026-05-03T07:41:55Z</time></trkpt><trkpt lat="37.6093697" lon="14.546477"><ele>323.5</ele><time>2026-05-03T07:41:56Z</time></trkpt><trkpt lat="37.6095658" lon="14.5463122"><ele>327.0</ele><time>2026-05-03T07:41:57Z</time></trkpt><trkpt lat="37.6097613" lon="14.5461447"><ele>327.0</ele><time>2026-05-03T07:41:58Z</time></trkpt><trkpt lat="37.6099548" lon="14.5459781"><ele>327.0</ele><time>2026-05-03T07:41:59Z</time></trkpt><trkpt lat="37.6101493" lon="14.5458068"><ele>334.0</ele><time>2026-05-03T07:42:00Z</time></trkpt><trkpt lat="37.6103445" lon="14.5456399"><ele>341.0</ele><time>2026-05-03T07:42:01Z</time></trkpt><trkpt lat="37.6105395" lon="14.5454741"><ele>337.0</ele><time>2026-05-03T07:42:02Z</time></trkpt><trkpt lat="37.6107267" lon="14.545301"><ele>333.0</ele><time>2026-05-03T07:42:03Z</time></trkpt><trkpt lat="37.6108957" lon="14.5451188"><ele>333.0</ele><time>2026-05-03T07:42:04Z</time></trkpt><trkpt lat="37.6110411" lon="14.5449093"><ele>333.0</ele><time>2026-05-03T07:42:05Z</time></trkpt><trkpt lat="37.611166" lon="14.5446799"><ele>333.0</ele><time>2026-05-03T07:42:06Z</time></trkpt><trkpt lat="37.6112931" lon="14.5444481"><ele>334.0</ele><time>2026-05-03T07:42:07Z</time></trkpt><trkpt lat="37.6114329" lon="14.5442128"><ele>335.0</ele><time>2026-05-03T07:42:08Z</time></trkpt><trkpt lat="37.6115879" lon="14.5439903"><ele>335.0</ele><time>2026-05-03T07:42:09Z</time></trkpt><trkpt lat="37.611754" lon="14.5437823"><ele>335.0</ele><time>2026-05-03T07:42:10Z</time></trkpt><trkpt lat="37.6119307" lon="14.5435753"><ele>332.5</ele><time>2026-05-03T07:42:11Z</time></trkpt><trkpt lat="37.6121087" lon="14.5433772"><ele>330.0</ele><time>2026-05-03T07:42:12Z</time></trkpt><trkpt lat="37.6122811" lon="14.5431744"><ele>330.0</ele><time>2026-05-03T07:42:13Z</time></trkpt><trkpt lat="37.6124378" lon="14.5429546"><ele>330.0</ele><time>2026-05-03T07:42:14Z</time></trkpt><trkpt lat="37.6125778" lon="14.5427208"><ele>329.0</ele><time>2026-05-03T07:42:15Z</time></trkpt><trkpt lat="37.6127046" lon="14.5424753"><ele>328.0</ele><time>2026-05-03T07:42:16Z</time></trkpt><trkpt lat="37.6128233" lon="14.5422208"><ele>331.5</ele><time>2026-05-03T07:42:17Z</time></trkpt><trkpt lat="37.6129471" lon="14.5419604"><ele>335.0</ele><time>2026-05-03T07:42:18Z</time></trkpt><trkpt lat="37.6130635" lon="14.5417045"><ele>335.0</ele><time>2026-05-03T07:42:19Z</time></trkpt><trkpt lat="37.6131824" lon="14.5414432"><ele>335.0</ele><time>2026-05-03T07:42:20Z</time></trkpt><trkpt lat="37.6133013" lon="14.5411935"><ele>335.0</ele><time>2026-05-03T07:42:21Z</time></trkpt><trkpt lat="37.6134211" lon="14.5409511"><ele>335.0</ele><time>2026-05-03T07:42:22Z</time></trkpt><trkpt lat="37.6135507" lon="14.5407279"><ele>335.0</ele><time>2026-05-03T07:42:23Z</time></trkpt><trkpt lat="37.6137123" lon="14.5405427"><ele>340.5</ele><time>2026-05-03T07:42:23.999Z</time></trkpt><trkpt lat="37.6138989" lon="14.5403694"><ele>346.0</ele><time>2026-05-03T07:42:25Z</time></trkpt><trkpt lat="37.6140855" lon="14.540165"><ele>346.0</ele><time>2026-05-03T07:42:26Z</time></trkpt><trkpt lat="37.6142568" lon="14.5399241"><ele>346.0</ele><time>2026-05-03T07:42:27Z</time></trkpt><trkpt lat="37.6144334" lon="14.5396707"><ele>352.5</ele><time>2026-05-03T07:42:28Z</time></trkpt><trkpt lat="37.6146109" lon="14.5394212"><ele>359.0</ele><time>2026-05-03T07:42:29Z</time></trkpt><trkpt lat="37.6147851" lon="14.5391741"><ele>359.0</ele><time>2026-05-03T07:42:30Z</time></trkpt><trkpt lat="37.6149479" lon="14.5389411"><ele>359.0</ele><time>2026-05-03T07:42:30.999Z</time></trkpt><trkpt lat="37.6151086" lon="14.5387269"><ele>358.6666666666667</ele><time>2026-05-03T07:42:32Z</time></trkpt><trkpt lat="37.6152383" lon="14.5385404"><ele>358.3333333333333</ele><time>2026-05-03T07:42:33Z</time></trkpt><trkpt lat="37.6153821" lon="14.5383672"><ele>358.0</ele><time>2026-05-03T07:42:34Z</time></trkpt><trkpt lat="37.6155522" lon="14.5382644"><ele>358.0</ele><time>2026-05-03T07:42:35Z</time></trkpt><trkpt lat="37.6157386" lon="14.5381754"><ele>358.0</ele><time>2026-05-03T07:42:36Z</time></trkpt><trkpt lat="37.6159302" lon="14.5381267"><ele>358.0</ele><time>2026-05-03T07:42:37Z</time></trkpt><trkpt lat="37.6161412" lon="14.538105"><ele>358.3333333333333</ele><time>2026-05-03T07:42:38Z</time></trkpt><trkpt lat="37.6163358" lon="14.5380904"><ele>358.6666666666667</ele><time>2026-05-03T07:42:39Z</time></trkpt><trkpt lat="37.6165252" lon="14.538065"><ele>359.0</ele><time>2026-05-03T07:42:40Z</time></trkpt><trkpt lat="37.6167" lon="14.5380285"><ele>359.0</ele><time>2026-05-03T07:42:41Z</time></trkpt><trkpt lat="37.6168574" lon="14.537948"><ele>359.0</ele><time>2026-05-03T07:42:42Z</time></trkpt><trkpt lat="37.6170056" lon="14.5378407"><ele>359.0</ele><time>2026-05-03T07:42:43Z</time></trkpt><trkpt lat="37.6171538" lon="14.5377188"><ele>358.0</ele><time>2026-05-03T07:42:44Z</time></trkpt><trkpt lat="37.6172982" lon="14.53759"><ele>357.0</ele><time>2026-05-03T07:42:45Z</time></trkpt><trkpt lat="37.6174397" lon="14.5374605"><ele>356.0</ele><time>2026-05-03T07:42:46Z</time></trkpt><trkpt lat="37.6175716" lon="14.5373054"><ele>356.0</ele><time>2026-05-03T07:42:47Z</time></trkpt><trkpt lat="37.6176773" lon="14.5371123"><ele>356.0</ele><time>2026-05-03T07:42:48Z</time></trkpt><trkpt lat="37.6177737" lon="14.5368849"><ele>356.0</ele><time>2026-05-03T07:42:49Z</time></trkpt><trkpt lat="37.6178714" lon="14.5366378"><ele>359.0</ele><time>2026-05-03T07:42:50Z</time></trkpt><trkpt lat="37.6179629" lon="14.5363923"><ele>362.0</ele><time>2026-05-03T07:42:51Z</time></trkpt><trkpt lat="37.6180518" lon="14.5361534"><ele>365.0</ele><time>2026-05-03T07:42:52Z</time></trkpt><trkpt lat="37.6181574" lon="14.535924"><ele>365.0</ele><time>2026-05-03T07:42:53Z</time></trkpt><trkpt lat="37.6182881" lon="14.5357014"><ele>365.0</ele><time>2026-05-03T07:42:54Z</time></trkpt><trkpt lat="37.6184182" lon="14.5355073"><ele>365.0</ele><time>2026-05-03T07:42:54.999Z</time></trkpt><trkpt lat="37.6185546" lon="14.535351"><ele>366.33333333333337</ele><time>2026-05-03T07:42:56Z</time></trkpt><trkpt lat="37.6187033" lon="14.5352282"><ele>367.6666666666667</ele><time>2026-05-03T07:42:57Z</time></trkpt><trkpt lat="37.6188668" lon="14.5351447"><ele>369.0</ele><time>2026-05-03T07:42:58Z</time></trkpt><trkpt lat="37.6190421" lon="14.5351001"><ele>369.0</ele><time>2026-05-03T07:42:59Z</time></trkpt><trkpt lat="37.6192305" lon="14.5351019"><ele>369.0</ele><time>2026-05-03T07:43:00Z</time></trkpt><trkpt lat="37.6194123" lon="14.5351491"><ele>369.0</ele><time>2026-05-03T07:43:01Z</time></trkpt><trkpt lat="37.6195899" lon="14.5352466"><ele>371.6666666666667</ele><time>2026-05-03T07:43:02Z</time></trkpt><trkpt lat="37.6197687" lon="14.5353946"><ele>374.33333333333337</ele><time>2026-05-03T07:43:03Z</time></trkpt><trkpt lat="37.6199396" lon="14.5355627"><ele>377.0</ele><time>2026-05-03T07:43:04Z</time></trkpt><trkpt lat="37.6201051" lon="14.5357632"><ele>377.0</ele><time>2026-05-03T07:43:05Z</time></trkpt><trkpt lat="37.6202647" lon="14.5360101"><ele>377.0</ele><time>2026-05-03T07:43:06Z</time></trkpt><trkpt lat="37.6204001" lon="14.5362599"><ele>378.0</ele><time>2026-05-03T07:43:07Z</time></trkpt><trkpt lat="37.6205179" lon="14.5364919"><ele>379.0</ele><time>2026-05-03T07:43:08Z</time></trkpt><trkpt lat="37.6206479" lon="14.5366828"><ele>380.0</ele><time>2026-05-03T07:43:09Z</time></trkpt><trkpt lat="37.6208052" lon="14.5368297"><ele>380.0</ele><time>2026-05-03T07:43:10Z</time></trkpt><trkpt lat="37.6209839" lon="14.5369303"><ele>380.0</ele><time>2026-05-03T07:43:11Z</time></trkpt><trkpt lat="37.6211793" lon="14.5369837"><ele>380.0</ele><time>2026-05-03T07:43:12Z</time></trkpt><trkpt lat="37.621387" lon="14.537016"><ele>381.33333333333337</ele><time>2026-05-03T07:43:13Z</time></trkpt><trkpt lat="37.6215985" lon="14.5370411"><ele>382.6666666666667</ele><time>2026-05-03T07:43:14Z</time></trkpt><trkpt lat="37.6218178" lon="14.5370666"><ele>384.0</ele><time>2026-05-03T07:43:15Z</time></trkpt><trkpt lat="37.6220333" lon="14.5370976"><ele>386.66666666666663</ele><time>2026-05-03T07:43:15.999Z</time></trkpt><trkpt lat="37.6222405" lon="14.5371211"><ele>389.3333333333333</ele><time>2026-05-03T07:43:17Z</time></trkpt><trkpt lat="37.6224477" lon="14.5371399"><ele>392.0</ele><time>2026-05-03T07:43:18Z</time></trkpt><trkpt lat="37.6226436" lon="14.5371543"><ele>392.0</ele><time>2026-05-03T07:43:19Z</time></trkpt><trkpt lat="37.622814" lon="14.5371733"><ele>392.0</ele><time>2026-05-03T07:43:20Z</time></trkpt><trkpt lat="37.622975" lon="14.537184"><ele>392.0</ele><time>2026-05-03T07:43:21Z</time></trkpt><trkpt lat="37.623137" lon="14.5371934"><ele>392.0</ele><time>2026-05-03T07:43:22Z</time></trkpt><trkpt lat="37.6233037" lon="14.5371998"><ele>392.0</ele><time>2026-05-03T07:43:23Z</time></trkpt><trkpt lat="37.6235049" lon="14.5372072"><ele>392.0</ele><time>2026-05-03T07:43:24Z</time></trkpt><trkpt lat="37.6237015" lon="14.5372339"><ele>388.0</ele><time>2026-05-03T07:43:25Z</time></trkpt><trkpt lat="37.6238827" lon="14.5372791"><ele>384.0</ele><time>2026-05-03T07:43:26Z</time></trkpt><trkpt lat="37.6240606" lon="14.5373014"><ele>380.0</ele><time>2026-05-03T07:43:27Z</time></trkpt><trkpt lat="37.6242292" lon="14.5373105"><ele>380.0</ele><time>2026-05-03T07:43:28Z</time></trkpt><trkpt lat="37.6243967" lon="14.537302"><ele>380.0</ele><time>2026-05-03T07:43:29Z</time></trkpt><trkpt lat="37.6245554" lon="14.5372647"><ele>380.0</ele><time>2026-05-03T07:43:30Z</time></trkpt><trkpt lat="37.6247175" lon="14.5372161"><ele>379.33333333333337</ele><time>2026-05-03T07:43:31Z</time></trkpt><trkpt lat="37.6248764" lon="14.5371514"><ele>378.6666666666667</ele><time>2026-05-03T07:43:32Z</time></trkpt><trkpt lat="37.6250363" lon="14.5370831"><ele>378.0</ele><time>2026-05-03T07:43:33Z</time></trkpt><trkpt lat="37.6251927" lon="14.5370071"><ele>378.6666666666667</ele><time>2026-05-03T07:43:34Z</time></trkpt><trkpt lat="37.6253502" lon="14.5369258"><ele>379.33333333333337</ele><time>2026-05-03T07:43:35Z</time></trkpt><trkpt lat="37.6255046" lon="14.5368527"><ele>380.0</ele><time>2026-05-03T07:43:36Z</time></trkpt><trkpt lat="37.6256636" lon="14.5367755"><ele>380.0</ele><time>2026-05-03T07:43:37Z</time></trkpt><trkpt lat="37.6258288" lon="14.536694"><ele>380.0</ele><time>2026-05-03T07:43:38Z</time></trkpt><trkpt lat="37.6259999" lon="14.5366145"><ele>380.0</ele><time>2026-05-03T07:43:39Z</time></trkpt><trkpt lat="37.6261711" lon="14.5365344"><ele>380.6666666666667</ele><time>2026-05-03T07:43:40Z</time></trkpt><trkpt lat="37.6263325" lon="14.536447"><ele>381.3333333333333</ele><time>2026-05-03T07:43:41Z</time></trkpt><trkpt lat="37.6264945" lon="14.5363653"><ele>382.0</ele><time>2026-05-03T07:43:42Z</time></trkpt><trkpt lat="37.6266644" lon="14.5362829"><ele>382.3333333333333</ele><time>2026-05-03T07:43:43Z</time></trkpt><trkpt lat="37.6268287" lon="14.5361941"><ele>382.6666666666667</ele><time>2026-05-03T07:43:44Z</time></trkpt><trkpt lat="37.6269906" lon="14.5361098"><ele>383.0</ele><time>2026-05-03T07:43:45Z</time></trkpt><trkpt lat="37.6271554" lon="14.5360281"><ele>384.0</ele><time>2026-05-03T07:43:46Z</time></trkpt><trkpt lat="37.6273204" lon="14.5359515"><ele>385.0</ele><time>2026-05-03T07:43:47Z</time></trkpt><trkpt lat="37.6274835" lon="14.5358769"><ele>386.0</ele><time>2026-05-03T07:43:48Z</time></trkpt><trkpt lat="37.6276472" lon="14.535802"><ele>386.3333333333333</ele><time>2026-05-03T07:43:48.999Z</time></trkpt><trkpt lat="37.627812" lon="14.5357265"><ele>386.66666666666663</ele><time>2026-05-03T07:43:50Z</time></trkpt><trkpt lat="37.6279721" lon="14.535655"><ele>387.0</ele><time>2026-05-03T07:43:51Z</time></trkpt><trkpt lat="37.6281379" lon="14.5355813"><ele>387.0</ele><time>2026-05-03T07:43:52Z</time></trkpt><trkpt lat="37.6283" lon="14.5355076"><ele>387.0</ele><time>2026-05-03T07:43:53Z</time></trkpt><trkpt lat="37.6284712" lon="14.5354326"><ele>387.0</ele><time>2026-05-03T07:43:54Z</time></trkpt><trkpt lat="37.6286367" lon="14.5353607"><ele>387.66666666666663</ele><time>2026-05-03T07:43:55Z</time></trkpt><trkpt lat="37.6288029" lon="14.5352889"><ele>388.3333333333333</ele><time>2026-05-03T07:43:56Z</time></trkpt><trkpt lat="37.6289727" lon="14.5352173"><ele>389.0</ele><time>2026-05-03T07:43:57Z</time></trkpt><trkpt lat="37.6291428" lon="14.5351464"><ele>389.0</ele><time>2026-05-03T07:43:58Z</time></trkpt><trkpt lat="37.6293151" lon="14.5350695"><ele>389.0</ele><time>2026-05-03T07:43:59Z</time></trkpt><trkpt lat="37.6294906" lon="14.5349943"><ele>389.0</ele><time>2026-05-03T07:44:00Z</time></trkpt><trkpt lat="37.6296748" lon="14.5349107"><ele>389.66666666666663</ele><time>2026-05-03T07:44:01Z</time></trkpt><trkpt lat="37.6298586" lon="14.5348261"><ele>390.33333333333337</ele><time>2026-05-03T07:44:02Z</time></trkpt><trkpt lat="37.6300455" lon="14.5347432"><ele>391.0</ele><time>2026-05-03T07:44:03Z</time></trkpt><trkpt lat="37.6302396" lon="14.5346563"><ele>392.33333333333337</ele><time>2026-05-03T07:44:04Z</time></trkpt><trkpt lat="37.6304362" lon="14.5345671"><ele>393.66666666666663</ele><time>2026-05-03T07:44:05Z</time></trkpt><trkpt lat="37.6306389" lon="14.5344755"><ele>395.0</ele><time>2026-05-03T07:44:05.999Z</time></trkpt><trkpt lat="37.6308465" lon="14.5343836"><ele>395.5</ele><time>2026-05-03T07:44:07Z</time></trkpt><trkpt lat="37.6310564" lon="14.5342902"><ele>396.0</ele><time>2026-05-03T07:44:08Z</time></trkpt><trkpt lat="37.6312732" lon="14.534197"><ele>396.33333333333337</ele><time>2026-05-03T07:44:09Z</time></trkpt><trkpt lat="37.6314829" lon="14.5341021"><ele>396.6666666666667</ele><time>2026-05-03T07:44:10Z</time></trkpt><trkpt lat="37.6316944" lon="14.5340089"><ele>397.0</ele><time>2026-05-03T07:44:11Z</time></trkpt><trkpt lat="37.6319077" lon="14.533914"><ele>397.5</ele><time>2026-05-03T07:44:12Z</time></trkpt><trkpt lat="37.6321213" lon="14.5338183"><ele>398.0</ele><time>2026-05-03T07:44:13Z</time></trkpt><trkpt lat="37.6323365" lon="14.5337233"><ele>398.5</ele><time>2026-05-03T07:44:14Z</time></trkpt><trkpt lat="37.6325524" lon="14.5336285"><ele>399.0</ele><time>2026-05-03T07:44:15Z</time></trkpt><trkpt lat="37.6327632" lon="14.5335322"><ele>402.0</ele><time>2026-05-03T07:44:16Z</time></trkpt><trkpt lat="37.6329754" lon="14.5334356"><ele>405.0</ele><time>2026-05-03T07:44:17Z</time></trkpt><trkpt lat="37.6331907" lon="14.5333423"><ele>405.0</ele><time>2026-05-03T07:44:18Z</time></trkpt><trkpt lat="37.6334035" lon="14.5332492"><ele>405.0</ele><time>2026-05-03T07:44:19Z</time></trkpt><trkpt lat="37.6336192" lon="14.5331682"><ele>407.5</ele><time>2026-05-03T07:44:20Z</time></trkpt><trkpt lat="37.6338568" lon="14.5331476"><ele>410.0</ele><time>2026-05-03T07:44:21Z</time></trkpt><trkpt lat="37.6340957" lon="14.5331556"><ele>410.0</ele><time>2026-05-03T07:44:22Z</time></trkpt><trkpt lat="37.6343318" lon="14.5331765"><ele>410.0</ele><time>2026-05-03T07:44:23Z</time></trkpt><trkpt lat="37.6345581" lon="14.5331946"><ele>411.66666666666663</ele><time>2026-05-03T07:44:24Z</time></trkpt><trkpt lat="37.6347809" lon="14.5332154"><ele>413.33333333333337</ele><time>2026-05-03T07:44:25Z</time></trkpt><trkpt lat="37.6349905" lon="14.5332061"><ele>415.0</ele><time>2026-05-03T07:44:26Z</time></trkpt><trkpt lat="37.635185" lon="14.5331669"><ele>417.0</ele><time>2026-05-03T07:44:27Z</time></trkpt><trkpt lat="37.6353721" lon="14.5331049"><ele>419.0</ele><time>2026-05-03T07:44:28Z</time></trkpt><trkpt lat="37.6355568" lon="14.5330196"><ele>421.0</ele><time>2026-05-03T07:44:29Z</time></trkpt><trkpt lat="37.6357231" lon="14.5329043"><ele>422.0</ele><time>2026-05-03T07:44:30Z</time></trkpt><trkpt lat="37.6358792" lon="14.5327703"><ele>423.0</ele><time>2026-05-03T07:44:31Z</time></trkpt><trkpt lat="37.6360267" lon="14.532629"><ele>424.0</ele><time>2026-05-03T07:44:32Z</time></trkpt><trkpt lat="37.6361751" lon="14.5324866"><ele>425.33333333333337</ele><time>2026-05-03T07:44:33Z</time></trkpt><trkpt lat="37.6363134" lon="14.5323464"><ele>426.66666666666663</ele><time>2026-05-03T07:44:34Z</time></trkpt><trkpt lat="37.6364483" lon="14.5322105"><ele>428.0</ele><time>2026-05-03T07:44:35Z</time></trkpt><trkpt lat="37.6365897" lon="14.5320718"><ele>427.0</ele><time>2026-05-03T07:44:35.999Z</time></trkpt><trkpt lat="37.6367286" lon="14.5319286"><ele>426.0</ele><time>2026-05-03T07:44:37Z</time></trkpt><trkpt lat="37.6368689" lon="14.5317883"><ele>425.0</ele><time>2026-05-03T07:44:38Z</time></trkpt><trkpt lat="37.637013" lon="14.5316405"><ele>424.3333333333333</ele><time>2026-05-03T07:44:39Z</time></trkpt><trkpt lat="37.6371571" lon="14.5314919"><ele>423.66666666666663</ele><time>2026-05-03T07:44:40Z</time></trkpt><trkpt lat="37.6373026" lon="14.5313514"><ele>423.0</ele><time>2026-05-03T07:44:41Z</time></trkpt><trkpt lat="37.6374524" lon="14.5312186"><ele>423.0</ele><time>2026-05-03T07:44:42Z</time></trkpt><trkpt lat="37.637606" lon="14.5311051"><ele>423.0</ele><time>2026-05-03T07:44:43Z</time></trkpt><trkpt lat="37.6377606" lon="14.5310303"><ele>423.0</ele><time>2026-05-03T07:44:44Z</time></trkpt><trkpt lat="37.6379217" lon="14.5309862"><ele>425.0</ele><time>2026-05-03T07:44:45Z</time></trkpt><trkpt lat="37.6380892" lon="14.5309734"><ele>427.0</ele><time>2026-05-03T07:44:46Z</time></trkpt><trkpt lat="37.6382559" lon="14.5309863"><ele>429.0</ele><time>2026-05-03T07:44:47Z</time></trkpt><trkpt lat="37.6384026" lon="14.5310062"><ele>429.0</ele><time>2026-05-03T07:44:48Z</time></trkpt><trkpt lat="37.6385479" lon="14.5310206"><ele>429.0</ele><time>2026-05-03T07:44:49Z</time></trkpt><trkpt lat="37.6386897" lon="14.531035"><ele>429.0</ele><time>2026-05-03T07:44:50Z</time></trkpt><trkpt lat="37.6388274" lon="14.5310525"><ele>429.0</ele><time>2026-05-03T07:44:51Z</time></trkpt><trkpt lat="37.6389638" lon="14.5310634"><ele>429.5</ele><time>2026-05-03T07:44:52Z</time></trkpt><trkpt lat="37.6391072" lon="14.5310642"><ele>430.0</ele><time>2026-05-03T07:44:53Z</time></trkpt><trkpt lat="37.6392508" lon="14.5310376"><ele>430.5</ele><time>2026-05-03T07:44:54Z</time></trkpt><trkpt lat="37.6393981" lon="14.5309932"><ele>431.0</ele><time>2026-05-03T07:44:55Z</time></trkpt><trkpt lat="37.639548" lon="14.5309381"><ele>432.0</ele><time>2026-05-03T07:44:56Z</time></trkpt><trkpt lat="37.6396953" lon="14.5308819"><ele>433.0</ele><time>2026-05-03T07:44:57Z</time></trkpt><trkpt lat="37.6398408" lon="14.5308107"><ele>434.0</ele><time>2026-05-03T07:44:58Z</time></trkpt><trkpt lat="37.6399889" lon="14.5307263"><ele>434.0</ele><time>2026-05-03T07:44:59Z</time></trkpt><trkpt lat="37.6401346" lon="14.5306319"><ele>434.0</ele><time>2026-05-03T07:45:00Z</time></trkpt><trkpt lat="37.6402783" lon="14.5305274"><ele>434.0</ele><time>2026-05-03T07:45:01Z</time></trkpt><trkpt lat="37.6404194" lon="14.5304259"><ele>434.66666666666663</ele><time>2026-05-03T07:45:02Z</time></trkpt><trkpt lat="37.6405608" lon="14.530323"><ele>435.33333333333337</ele><time>2026-05-03T07:45:03Z</time></trkpt><trkpt lat="37.6407006" lon="14.5302257"><ele>436.0</ele><time>2026-05-03T07:45:04Z</time></trkpt><trkpt lat="37.6408428" lon="14.5301228"><ele>436.0</ele><time>2026-05-03T07:45:05Z</time></trkpt><trkpt lat="37.640984" lon="14.5300175"><ele>436.0</ele><time>2026-05-03T07:45:06Z</time></trkpt><trkpt lat="37.6411244" lon="14.5299178"><ele>436.0</ele><time>2026-05-03T07:45:07Z</time></trkpt><trkpt lat="37.6412877" lon="14.5298542"><ele>437.33333333333337</ele><time>2026-05-03T07:45:08Z</time></trkpt><trkpt lat="37.6414413" lon="14.5298126"><ele>438.66666666666663</ele><time>2026-05-03T07:45:09Z</time></trkpt><trkpt lat="37.6415991" lon="14.5297753"><ele>440.0</ele><time>2026-05-03T07:45:10Z</time></trkpt><trkpt lat="37.6417647" lon="14.5297386"><ele>440.0</ele><time>2026-05-03T07:45:11Z</time></trkpt><trkpt lat="37.6419368" lon="14.5297075"><ele>440.0</ele><time>2026-05-03T07:45:11.999Z</time></trkpt><trkpt lat="37.6421064" lon="14.5296734"><ele>440.0</ele><time>2026-05-03T07:45:13Z</time></trkpt><trkpt lat="37.6422722" lon="14.5296374"><ele>441.3333333333333</ele><time>2026-05-03T07:45:14Z</time></trkpt><trkpt lat="37.6424385" lon="14.5296024"><ele>442.66666666666663</ele><time>2026-05-03T07:45:15Z</time></trkpt><trkpt lat="37.6426093" lon="14.5295697"><ele>444.0</ele><time>2026-05-03T07:45:16Z</time></trkpt><trkpt lat="37.6427835" lon="14.5295355"><ele>444.33333333333337</ele><time>2026-05-03T07:45:17Z</time></trkpt><trkpt lat="37.6429543" lon="14.5295031"><ele>444.6666666666667</ele><time>2026-05-03T07:45:18Z</time></trkpt><trkpt lat="37.6431198" lon="14.5294723"><ele>445.0</ele><time>2026-05-03T07:45:19Z</time></trkpt><trkpt lat="37.6432828" lon="14.5294428"><ele>445.0</ele><time>2026-05-03T07:45:20Z</time></trkpt><trkpt lat="37.6434476" lon="14.5294159"><ele>445.0</ele><time>2026-05-03T07:45:21Z</time></trkpt><trkpt lat="37.643609" lon="14.5293837"><ele>445.0</ele><time>2026-05-03T07:45:22Z</time></trkpt><trkpt lat="37.6437712" lon="14.5293448"><ele>446.0</ele><time>2026-05-03T07:45:23Z</time></trkpt><trkpt lat="37.6439336" lon="14.5293121"><ele>447.0</ele><time>2026-05-03T07:45:24Z</time></trkpt><trkpt lat="37.6440951" lon="14.5292827"><ele>448.0</ele><time>2026-05-03T07:45:25Z</time></trkpt><trkpt lat="37.6442518" lon="14.5292504"><ele>448.0</ele><time>2026-05-03T07:45:26Z</time></trkpt><trkpt lat="37.6444029" lon="14.5292398"><ele>448.0</ele><time>2026-05-03T07:45:27Z</time></trkpt><trkpt lat="37.6445561" lon="14.5292572"><ele>448.0</ele><time>2026-05-03T07:45:28Z</time></trkpt><trkpt lat="37.6446984" lon="14.5292978"><ele>448.0</ele><time>2026-05-03T07:45:29Z</time></trkpt><trkpt lat="37.6448423" lon="14.529355"><ele>448.0</ele><time>2026-05-03T07:45:30Z</time></trkpt><trkpt lat="37.6449842" lon="14.5294399"><ele>448.0</ele><time>2026-05-03T07:45:31Z</time></trkpt><trkpt lat="37.6451146" lon="14.5295471"><ele>450.0</ele><time>2026-05-03T07:45:32Z</time></trkpt><trkpt lat="37.6452467" lon="14.5296645"><ele>452.0</ele><time>2026-05-03T07:45:33Z</time></trkpt><trkpt lat="37.6453772" lon="14.5297939"><ele>454.0</ele><time>2026-05-03T07:45:34Z</time></trkpt><trkpt lat="37.6455119" lon="14.5299192"><ele>454.0</ele><time>2026-05-03T07:45:35Z</time></trkpt><trkpt lat="37.6456417" lon="14.5300413"><ele>454.0</ele><time>2026-05-03T07:45:36Z</time></trkpt><trkpt lat="37.6457679" lon="14.530166"><ele>454.0</ele><time>2026-05-03T07:45:37Z</time></trkpt><trkpt lat="37.6458893" lon="14.5302766"><ele>454.0</ele><time>2026-05-03T07:45:38Z</time></trkpt><trkpt lat="37.646001" lon="14.5303738"><ele>454.0</ele><time>2026-05-03T07:45:39Z</time></trkpt><trkpt lat="37.6461169" lon="14.5304321"><ele>454.0</ele><time>2026-05-03T07:45:40Z</time></trkpt><trkpt lat="37.6462399" lon="14.5304455"><ele>454.0</ele><time>2026-05-03T07:45:41Z</time></trkpt><trkpt lat="37.6463653" lon="14.5304207"><ele>455.25</ele><time>2026-05-03T07:45:42Z</time></trkpt><trkpt lat="37.6464862" lon="14.5303579"><ele>456.5</ele><time>2026-05-03T07:45:43Z</time></trkpt><trkpt lat="37.6465982" lon="14.5302748"><ele>457.75</ele><time>2026-05-03T07:45:44Z</time></trkpt><trkpt lat="37.6467035" lon="14.5301858"><ele>459.0</ele><time>2026-05-03T07:45:45Z</time></trkpt><trkpt lat="37.6468127" lon="14.5300963"><ele>459.0</ele><time>2026-05-03T07:45:46Z</time></trkpt><trkpt lat="37.646924" lon="14.5300065"><ele>459.0</ele><time>2026-05-03T07:45:47Z</time></trkpt><trkpt lat="37.6470345" lon="14.5299142"><ele>459.0</ele><time>2026-05-03T07:45:48Z</time></trkpt><trkpt lat="37.6471379" lon="14.5298238"><ele>459.0</ele><time>2026-05-03T07:45:49Z</time></trkpt><trkpt lat="37.6472338" lon="14.5297557"><ele>461.0</ele><time>2026-05-03T07:45:50Z</time></trkpt><trkpt lat="37.6473266" lon="14.5297253"><ele>463.0</ele><time>2026-05-03T07:45:51Z</time></trkpt><trkpt lat="37.6474164" lon="14.5297195"><ele>465.0</ele><time>2026-05-03T07:45:52Z</time></trkpt><trkpt lat="37.647509" lon="14.5297562"><ele>467.0</ele><time>2026-05-03T07:45:53Z</time></trkpt><trkpt lat="37.6475884" lon="14.5298385"><ele>469.0</ele><time>2026-05-03T07:45:54Z</time></trkpt><trkpt lat="37.6476682" lon="14.529957"><ele>469.0</ele><time>2026-05-03T07:45:55Z</time></trkpt><trkpt lat="37.6477594" lon="14.5300825"><ele>469.0</ele><time>2026-05-03T07:45:56Z</time></trkpt><trkpt lat="37.6478572" lon="14.5302229"><ele>469.0</ele><time>2026-05-03T07:45:57Z</time></trkpt><trkpt lat="37.6479596" lon="14.5303691"><ele>469.0</ele><time>2026-05-03T07:45:58Z</time></trkpt><trkpt lat="37.6480676" lon="14.530522"><ele>473.0</ele><time>2026-05-03T07:45:59Z</time></trkpt><trkpt lat="37.6481796" lon="14.5306818"><ele>477.0</ele><time>2026-05-03T07:46:00Z</time></trkpt><trkpt lat="37.6482932" lon="14.5308422"><ele>481.0</ele><time>2026-05-03T07:46:01Z</time></trkpt><trkpt lat="37.6484103" lon="14.5310048"><ele>481.0</ele><time>2026-05-03T07:46:02Z</time></trkpt><trkpt lat="37.6485266" lon="14.5311711"><ele>481.0</ele><time>2026-05-03T07:46:03Z</time></trkpt><trkpt lat="37.6486439" lon="14.531337"><ele>481.0</ele><time>2026-05-03T07:46:04Z</time></trkpt><trkpt lat="37.6487618" lon="14.5315008"><ele>486.6666666666667</ele><time>2026-05-03T07:46:05Z</time></trkpt><trkpt lat="37.6488766" lon="14.5316546"><ele>492.33333333333337</ele><time>2026-05-03T07:46:06Z</time></trkpt><trkpt lat="37.6489815" lon="14.5318157"><ele>498.0</ele><time>2026-05-03T07:46:07Z</time></trkpt><trkpt lat="37.6490637" lon="14.5319938"><ele>497.66666666666663</ele><time>2026-05-03T07:46:08Z</time></trkpt><trkpt lat="37.6491114" lon="14.5321689"><ele>497.3333333333333</ele><time>2026-05-03T07:46:09Z</time></trkpt><trkpt lat="37.6491361" lon="14.5323632"><ele>497.0</ele><time>2026-05-03T07:46:10Z</time></trkpt><trkpt lat="37.6491231" lon="14.532567"><ele>497.0</ele><time>2026-05-03T07:46:11Z</time></trkpt><trkpt lat="37.649105" lon="14.5327782"><ele>497.0</ele><time>2026-05-03T07:46:12Z</time></trkpt><trkpt lat="37.6490757" lon="14.5330066"><ele>497.0</ele><time>2026-05-03T07:46:13Z</time></trkpt><trkpt lat="37.6490539" lon="14.5332354"><ele>498.0</ele><time>2026-05-03T07:46:14Z</time></trkpt><trkpt lat="37.6490368" lon="14.5334709"><ele>499.0</ele><time>2026-05-03T07:46:15Z</time></trkpt><trkpt lat="37.6490374" lon="14.5337129"><ele>500.0</ele><time>2026-05-03T07:46:16Z</time></trkpt><trkpt lat="37.6490587" lon="14.533958"><ele>501.3333333333333</ele><time>2026-05-03T07:46:17Z</time></trkpt><trkpt lat="37.6490851" lon="14.5342123"><ele>502.66666666666663</ele><time>2026-05-03T07:46:18Z</time></trkpt><trkpt lat="37.6491244" lon="14.5344659"><ele>504.0</ele><time>2026-05-03T07:46:19Z</time></trkpt><trkpt lat="37.6491572" lon="14.5347251"><ele>504.0</ele><time>2026-05-03T07:46:20Z</time></trkpt><trkpt lat="37.6491934" lon="14.5349729"><ele>504.0</ele><time>2026-05-03T07:46:21Z</time></trkpt><trkpt lat="37.6492506" lon="14.5352167"><ele>504.0</ele><time>2026-05-03T07:46:22Z</time></trkpt><trkpt lat="37.6493244" lon="14.5354566"><ele>503.66666666666663</ele><time>2026-05-03T07:46:23Z</time></trkpt><trkpt lat="37.6494081" lon="14.5356863"><ele>503.3333333333333</ele><time>2026-05-03T07:46:24Z</time></trkpt><trkpt lat="37.6494954" lon="14.5359206"><ele>503.0</ele><time>2026-05-03T07:46:25Z</time></trkpt><trkpt lat="37.6495793" lon="14.536149"><ele>509.0</ele><time>2026-05-03T07:46:26Z</time></trkpt><trkpt lat="37.6496549" lon="14.5363556"><ele>515.0</ele><time>2026-05-03T07:46:27Z</time></trkpt><trkpt lat="37.649726" lon="14.5365551"><ele>521.0</ele><time>2026-05-03T07:46:28Z</time></trkpt><trkpt lat="37.6498074" lon="14.5367214"><ele>521.0</ele><time>2026-05-03T07:46:28.999Z</time></trkpt><trkpt lat="37.6499038" lon="14.5368659"><ele>521.0</ele><time>2026-05-03T07:46:30Z</time></trkpt><trkpt lat="37.6500134" lon="14.5369895"><ele>521.0</ele><time>2026-05-03T07:46:31Z</time></trkpt><trkpt lat="37.6501472" lon="14.5370856"><ele>519.0</ele><time>2026-05-03T07:46:32Z</time></trkpt><trkpt lat="37.6503075" lon="14.5371541"><ele>517.0</ele><time>2026-05-03T07:46:33Z</time></trkpt><trkpt lat="37.6505019" lon="14.5372105"><ele>515.0</ele><time>2026-05-03T07:46:34Z</time></trkpt><trkpt lat="37.6507158" lon="14.5372951"><ele>515.0</ele><time>2026-05-03T07:46:35Z</time></trkpt><trkpt lat="37.650937" lon="14.5373966"><ele>515.0</ele><time>2026-05-03T07:46:36Z</time></trkpt><trkpt lat="37.6511675" lon="14.5374947"><ele>511.5</ele><time>2026-05-03T07:46:37Z</time></trkpt><trkpt lat="37.6513962" lon="14.5375891"><ele>508.0</ele><time>2026-05-03T07:46:38Z</time></trkpt><trkpt lat="37.6516316" lon="14.5376781"><ele>508.0</ele><time>2026-05-03T07:46:39Z</time></trkpt><trkpt lat="37.6518589" lon="14.537761"><ele>508.0</ele><time>2026-05-03T07:46:40Z</time></trkpt><trkpt lat="37.6520869" lon="14.5378441"><ele>502.0</ele><time>2026-05-03T07:46:41Z</time></trkpt><trkpt lat="37.6523112" lon="14.5379333"><ele>496.0</ele><time>2026-05-03T07:46:42Z</time></trkpt><trkpt lat="37.6525328" lon="14.5380193"><ele>496.0</ele><time>2026-05-03T07:46:43Z</time></trkpt><trkpt lat="37.6527587" lon="14.5381031"><ele>496.0</ele><time>2026-05-03T07:46:43.999Z</time></trkpt><trkpt lat="37.652986" lon="14.5381821"><ele>506.5</ele><time>2026-05-03T07:46:45Z</time></trkpt><trkpt lat="37.6532069" lon="14.5382623"><ele>517.0</ele><time>2026-05-03T07:46:46Z</time></trkpt><trkpt lat="37.6534281" lon="14.5383464"><ele>524.6666666666667</ele><time>2026-05-03T07:46:47Z</time></trkpt><trkpt lat="37.6536456" lon="14.5384252"><ele>532.3333333333334</ele><time>2026-05-03T07:46:48Z</time></trkpt><trkpt lat="37.6538537" lon="14.5385034"><ele>540.0</ele><time>2026-05-03T07:46:49Z</time></trkpt><trkpt lat="37.6540544" lon="14.5385646"><ele>540.0</ele><time>2026-05-03T07:46:50Z</time></trkpt><trkpt lat="37.6542717" lon="14.5385904"><ele>540.0</ele><time>2026-05-03T07:46:51Z</time></trkpt><trkpt lat="37.6544968" lon="14.5385974"><ele>540.0</ele><time>2026-05-03T07:46:52Z</time></trkpt><trkpt lat="37.6547298" lon="14.5385936"><ele>546.5</ele><time>2026-05-03T07:46:53Z</time></trkpt><trkpt lat="37.654966" lon="14.5385856"><ele>553.0</ele><time>2026-05-03T07:46:54Z</time></trkpt><trkpt lat="37.6552054" lon="14.5385789"><ele>554.0</ele><time>2026-05-03T07:46:55Z</time></trkpt><trkpt lat="37.655438" lon="14.53857"><ele>555.0</ele><time>2026-05-03T07:46:56Z</time></trkpt><trkpt lat="37.6556601" lon="14.5385613"><ele>555.0</ele><time>2026-05-03T07:46:57Z</time></trkpt><trkpt lat="37.6558656" lon="14.5385543"><ele>555.0</ele><time>2026-05-03T07:46:58Z</time></trkpt><trkpt lat="37.6560595" lon="14.5385497"><ele>555.0</ele><time>2026-05-03T07:46:59Z</time></trkpt><trkpt lat="37.6562394" lon="14.5385498"><ele>556.0</ele><time>2026-05-03T07:47:00Z</time></trkpt><trkpt lat="37.6564094" lon="14.5385681"><ele>557.0</ele><time>2026-05-03T07:47:00.999Z</time></trkpt><trkpt lat="37.6565634" lon="14.5386356"><ele>558.0</ele><time>2026-05-03T07:47:02Z</time></trkpt><trkpt lat="37.6566962" lon="14.5387262"><ele>556.75</ele><time>2026-05-03T07:47:03Z</time></trkpt><trkpt lat="37.6568266" lon="14.5388109"><ele>555.5</ele><time>2026-05-03T07:47:04Z</time></trkpt><trkpt lat="37.6569556" lon="14.538854"><ele>554.25</ele><time>2026-05-03T07:47:05Z</time></trkpt><trkpt lat="37.6570869" lon="14.5388448"><ele>553.0</ele><time>2026-05-03T07:47:06Z</time></trkpt><trkpt lat="37.6572044" lon="14.5387837"><ele>554.5</ele><time>2026-05-03T07:47:07Z</time></trkpt><trkpt lat="37.6573097" lon="14.538706"><ele>556.0</ele><time>2026-05-03T07:47:08Z</time></trkpt><trkpt lat="37.6573826" lon="14.5386335"><ele>557.5</ele><time>2026-05-03T07:47:09Z</time></trkpt><trkpt lat="37.6574358" lon="14.5385822"><ele>559.0</ele><time>2026-05-03T07:47:10Z</time></trkpt><trkpt lat="37.6574847" lon="14.5385203"><ele>560.5</ele><time>2026-05-03T07:47:12Z</time></trkpt><trkpt lat="37.6575385" lon="14.5384608"><ele>562.0</ele><time>2026-05-03T07:47:14Z</time></trkpt><trkpt lat="37.6576523" lon="14.5383359"><ele>562.0</ele><time>2026-05-03T07:47:16Z</time></trkpt><trkpt lat="37.657725" lon="14.5382484"><ele>562.0</ele><time>2026-05-03T07:47:17Z</time></trkpt><trkpt lat="37.6578026" lon="14.5381532"><ele>562.0</ele><time>2026-05-03T07:47:18Z</time></trkpt><trkpt lat="37.6578904" lon="14.5380487"><ele>562.0</ele><time>2026-05-03T07:47:19Z</time></trkpt><trkpt lat="37.6579843" lon="14.5379372"><ele>563.0</ele><time>2026-05-03T07:47:20Z</time></trkpt><trkpt lat="37.6580755" lon="14.5378277"><ele>564.0</ele><time>2026-05-03T07:47:21Z</time></trkpt><trkpt lat="37.6581546" lon="14.537738"><ele>565.0</ele><time>2026-05-03T07:47:22Z</time></trkpt><trkpt lat="37.6582078" lon="14.5376742"><ele>566.0</ele><time>2026-05-03T07:47:23Z</time></trkpt><trkpt lat="37.6582612" lon="14.5375713"><ele>567.0</ele><time>2026-05-03T07:47:25Z</time></trkpt><trkpt lat="37.6583165" lon="14.5374602"><ele>567.0</ele><time>2026-05-03T07:47:27Z</time></trkpt><trkpt lat="37.6583733" lon="14.5373936"><ele>567.0</ele><time>2026-05-03T07:47:28Z</time></trkpt><trkpt lat="37.6584391" lon="14.5373239"><ele>567.0</ele><time>2026-05-03T07:47:29Z</time></trkpt><trkpt lat="37.6585017" lon="14.5372577"><ele>567.0</ele><time>2026-05-03T07:47:30Z</time></trkpt><trkpt lat="37.6585801" lon="14.5371739"><ele>567.0</ele><time>2026-05-03T07:47:31Z</time></trkpt><trkpt lat="37.6586739" lon="14.5370769"><ele>564.5</ele><time>2026-05-03T07:47:32Z</time></trkpt><trkpt lat="37.6587815" lon="14.536966"><ele>562.0</ele><time>2026-05-03T07:47:33Z</time></trkpt><trkpt lat="37.6588948" lon="14.5368463"><ele>559.5</ele><time>2026-05-03T07:47:34Z</time></trkpt><trkpt lat="37.6590083" lon="14.5367283"><ele>557.0</ele><time>2026-05-03T07:47:34.999Z</time></trkpt><trkpt lat="37.6591214" lon="14.5366059"><ele>557.0</ele><time>2026-05-03T07:47:36Z</time></trkpt><trkpt lat="37.6592346" lon="14.5364889"><ele>557.0</ele><time>2026-05-03T07:47:37Z</time></trkpt><trkpt lat="37.6593522" lon="14.5363662"><ele>557.0</ele><time>2026-05-03T07:47:38Z</time></trkpt><trkpt lat="37.659467" lon="14.5362491"><ele>557.0</ele><time>2026-05-03T07:47:39Z</time></trkpt><trkpt lat="37.6595934" lon="14.5361497"><ele>556.0</ele><time>2026-05-03T07:47:40Z</time></trkpt><trkpt lat="37.6597271" lon="14.5360647"><ele>555.0</ele><time>2026-05-03T07:47:41Z</time></trkpt><trkpt lat="37.6598527" lon="14.5359675"><ele>554.0</ele><time>2026-05-03T07:47:42Z</time></trkpt><trkpt lat="37.6599652" lon="14.5358503"><ele>553.0</ele><time>2026-05-03T07:47:43Z</time></trkpt><trkpt lat="37.6600555" lon="14.5357051"><ele>553.0</ele><time>2026-05-03T07:47:44Z</time></trkpt><trkpt lat="37.6601451" lon="14.5355546"><ele>553.0</ele><time>2026-05-03T07:47:45Z</time></trkpt><trkpt lat="37.6602252" lon="14.5354152"><ele>553.0</ele><time>2026-05-03T07:47:46Z</time></trkpt><trkpt lat="37.6602938" lon="14.535286"><ele>553.0</ele><time>2026-05-03T07:47:47Z</time></trkpt><trkpt lat="37.6603657" lon="14.5351756"><ele>551.5</ele><time>2026-05-03T07:47:48Z</time></trkpt><trkpt lat="37.6604336" lon="14.5351242"><ele>550.0</ele><time>2026-05-03T07:47:49Z</time></trkpt><trkpt lat="37.6605019" lon="14.5351087"><ele>548.5</ele><time>2026-05-03T07:47:50Z</time></trkpt><trkpt lat="37.6605651" lon="14.5351533"><ele>547.0</ele><time>2026-05-03T07:47:51Z</time></trkpt><trkpt lat="37.6606006" lon="14.5352397"><ele>545.5</ele><time>2026-05-03T07:47:52Z</time></trkpt><trkpt lat="37.6605912" lon="14.5353515"><ele>544.0</ele><time>2026-05-03T07:47:53Z</time></trkpt><trkpt lat="37.6605477" lon="14.5354829"><ele>542.3333333333334</ele><time>2026-05-03T07:47:54Z</time></trkpt><trkpt lat="37.6604742" lon="14.5356293"><ele>540.6666666666666</ele><time>2026-05-03T07:47:55Z</time></trkpt><trkpt lat="37.6603775" lon="14.5357809"><ele>539.0</ele><time>2026-05-03T07:47:56Z</time></trkpt><trkpt lat="37.6602901" lon="14.5359575"><ele>541.3333333333333</ele><time>2026-05-03T07:47:57Z</time></trkpt><trkpt lat="37.6602093" lon="14.5361447"><ele>543.6666666666666</ele><time>2026-05-03T07:47:58Z</time></trkpt><trkpt lat="37.6601225" lon="14.5363453"><ele>546.0</ele><time>2026-05-03T07:47:59Z</time></trkpt><trkpt lat="37.6600503" lon="14.5365256"><ele>546.0</ele><time>2026-05-03T07:48:00Z</time></trkpt><trkpt lat="37.6599916" lon="14.5366938"><ele>546.0</ele><time>2026-05-03T07:48:01Z</time></trkpt><trkpt lat="37.6599548" lon="14.5368394"><ele>546.0</ele><time>2026-05-03T07:48:02Z</time></trkpt><trkpt lat="37.6599561" lon="14.5369837"><ele>546.0</ele><time>2026-05-03T07:48:03Z</time></trkpt><trkpt lat="37.6599809" lon="14.5371098"><ele>545.5</ele><time>2026-05-03T07:48:04Z</time></trkpt><trkpt lat="37.6600219" lon="14.5372215"><ele>545.0</ele><time>2026-05-03T07:48:05Z</time></trkpt><trkpt lat="37.6600604" lon="14.537307"><ele>544.5</ele><time>2026-05-03T07:48:06Z</time></trkpt><trkpt lat="37.660104" lon="14.5373752"><ele>544.0</ele><time>2026-05-03T07:48:07Z</time></trkpt><trkpt lat="37.6601668" lon="14.5374821"><ele>543.5</ele><time>2026-05-03T07:48:09Z</time></trkpt><trkpt lat="37.6602047" lon="14.5375849"><ele>543.0</ele><time>2026-05-03T07:48:11Z</time></trkpt><trkpt lat="37.6602297" lon="14.5376843"><ele>543.0</ele><time>2026-05-03T07:48:13Z</time></trkpt><trkpt lat="37.6602513" lon="14.5378066"><ele>543.0</ele><time>2026-05-03T07:48:15Z</time></trkpt><trkpt lat="37.6602781" lon="14.5378867"><ele>543.0</ele><time>2026-05-03T07:48:16Z</time></trkpt><trkpt lat="37.660326" lon="14.5379672"><ele>543.0</ele><time>2026-05-03T07:48:17Z</time></trkpt><trkpt lat="37.66038" lon="14.5380452"><ele>543.0</ele><time>2026-05-03T07:48:18Z</time></trkpt><trkpt lat="37.6604242" lon="14.5381324"><ele>543.0</ele><time>2026-05-03T07:48:19Z</time></trkpt><trkpt lat="37.6604714" lon="14.5382215"><ele>541.1666666666666</ele><time>2026-05-03T07:48:20Z</time></trkpt><trkpt lat="37.6605033" lon="14.5383081"><ele>539.3333333333334</ele><time>2026-05-03T07:48:21Z</time></trkpt><trkpt lat="37.660534" lon="14.5383912"><ele>537.5</ele><time>2026-05-03T07:48:22Z</time></trkpt><trkpt lat="37.6605656" lon="14.5384757"><ele>535.6666666666667</ele><time>2026-05-03T07:48:23Z</time></trkpt><trkpt lat="37.6605802" lon="14.5385671"><ele>533.8333333333334</ele><time>2026-05-03T07:48:24Z</time></trkpt><trkpt lat="37.6605918" lon="14.5386504"><ele>532.0</ele><time>2026-05-03T07:48:25Z</time></trkpt><trkpt lat="37.6606165" lon="14.538774"><ele>532.0</ele><time>2026-05-03T07:48:27Z</time></trkpt><trkpt lat="37.6606883" lon="14.5388148"><ele>532.0</ele><time>2026-05-03T07:48:30Z</time></trkpt><trkpt lat="37.660676" lon="14.5387194"><ele>532.0</ele><time>2026-05-03T07:48:33Z</time></trkpt><trkpt lat="37.6606385" lon="14.5385852"><ele>532.0</ele><time>2026-05-03T07:48:35Z</time></trkpt><trkpt lat="37.6606131" lon="14.5385035"><ele>532.0</ele><time>2026-05-03T07:48:36Z</time></trkpt><trkpt lat="37.6605851" lon="14.5384157"><ele>532.0</ele><time>2026-05-03T07:48:37Z</time></trkpt><trkpt lat="37.6605432" lon="14.5383236"><ele>531.6</ele><time>2026-05-03T07:48:37.999Z</time></trkpt><trkpt lat="37.6604939" lon="14.5382184"><ele>531.2</ele><time>2026-05-03T07:48:39Z</time></trkpt><trkpt lat="37.6604401" lon="14.5381116"><ele>530.8</ele><time>2026-05-03T07:48:40Z</time></trkpt><trkpt lat="37.6603767" lon="14.5380005"><ele>530.4</ele><time>2026-05-03T07:48:41Z</time></trkpt><trkpt lat="37.6603162" lon="14.5378916"><ele>530.0</ele><time>2026-05-03T07:48:41.999Z</time></trkpt><trkpt lat="37.6602741" lon="14.5378003"><ele>529.6666666666666</ele><time>2026-05-03T07:48:43Z</time></trkpt><trkpt lat="37.6602474" lon="14.5377176"><ele>529.3333333333333</ele><time>2026-05-03T07:48:44Z</time></trkpt><trkpt lat="37.6602213" lon="14.5376314"><ele>529.0</ele><time>2026-05-03T07:48:45Z</time></trkpt><trkpt lat="37.6601866" lon="14.5375586"><ele>528.6666666666666</ele><time>2026-05-03T07:48:46Z</time></trkpt><trkpt lat="37.6601805" lon="14.5374435"><ele>528.3333333333334</ele><time>2026-05-03T07:48:48Z</time></trkpt><trkpt lat="37.6602773" lon="14.5373888"><ele>528.0</ele><time>2026-05-03T07:48:50Z</time></trkpt><trkpt lat="37.6603538" lon="14.5373683"><ele>528.0</ele><time>2026-05-03T07:48:51Z</time></trkpt><trkpt lat="37.6604552" lon="14.5373471"><ele>528.0</ele><time>2026-05-03T07:48:52Z</time></trkpt><trkpt lat="37.6605719" lon="14.5373349"><ele>528.0</ele><time>2026-05-03T07:48:53Z</time></trkpt><trkpt lat="37.6606922" lon="14.537328"><ele>528.0</ele><time>2026-05-03T07:48:54Z</time></trkpt><trkpt lat="37.6608217" lon="14.5373365"><ele>528.0</ele><time>2026-05-03T07:48:55Z</time></trkpt><trkpt lat="37.6609473" lon="14.5373401"><ele>528.0</ele><time>2026-05-03T07:48:56Z</time></trkpt><trkpt lat="37.6610771" lon="14.537324"><ele>528.0</ele><time>2026-05-03T07:48:57Z</time></trkpt><trkpt lat="37.6612079" lon="14.5373017"><ele>528.0</ele><time>2026-05-03T07:48:58Z</time></trkpt><trkpt lat="37.6613407" lon="14.5372799"><ele>524.25</ele><time>2026-05-03T07:48:59Z</time></trkpt><trkpt lat="37.6614695" lon="14.5372584"><ele>520.5</ele><time>2026-05-03T07:49:00Z</time></trkpt><trkpt lat="37.6615918" lon="14.537241"><ele>516.75</ele><time>2026-05-03T07:49:01Z</time></trkpt><trkpt lat="37.6617077" lon="14.5372356"><ele>513.0</ele><time>2026-05-03T07:49:02Z</time></trkpt><trkpt lat="37.6618179" lon="14.5372462"><ele>513.0</ele><time>2026-05-03T07:49:03Z</time></trkpt><trkpt lat="37.6619281" lon="14.5372689"><ele>513.0</ele><time>2026-05-03T07:49:04Z</time></trkpt><trkpt lat="37.6620297" lon="14.5373012"><ele>513.0</ele><time>2026-05-03T07:49:05Z</time></trkpt><trkpt lat="37.6621242" lon="14.5373352"><ele>513.0</ele><time>2026-05-03T07:49:06Z</time></trkpt><trkpt lat="37.6622072" lon="14.5373668"><ele>513.0</ele><time>2026-05-03T07:49:07Z</time></trkpt><trkpt lat="37.6622832" lon="14.5374063"><ele>510.2</ele><time>2026-05-03T07:49:08Z</time></trkpt><trkpt lat="37.6623452" lon="14.5374445"><ele>507.4</ele><time>2026-05-03T07:49:09Z</time></trkpt><trkpt lat="37.6624472" lon="14.5374905"><ele>504.59999999999997</ele><time>2026-05-03T07:49:11Z</time></trkpt><trkpt lat="37.6625429" lon="14.5374801"><ele>501.79999999999995</ele><time>2026-05-03T07:49:13Z</time></trkpt><trkpt lat="37.6626231" lon="14.5373657"><ele>499.0</ele><time>2026-05-03T07:49:15Z</time></trkpt><trkpt lat="37.6626515" lon="14.5372836"><ele>499.00000000000006</ele><time>2026-05-03T07:49:16Z</time></trkpt><trkpt lat="37.6626733" lon="14.5371894"><ele>499.0</ele><time>2026-05-03T07:49:17Z</time></trkpt><trkpt lat="37.6626948" lon="14.5370853"><ele>499.0</ele><time>2026-05-03T07:49:18Z</time></trkpt><trkpt lat="37.6627154" lon="14.5369884"><ele>499.0</ele><time>2026-05-03T07:49:19Z</time></trkpt><trkpt lat="37.6627319" lon="14.5368854"><ele>499.00000000000006</ele><time>2026-05-03T07:49:20Z</time></trkpt><trkpt lat="37.6627589" lon="14.5367759"><ele>499.0</ele><time>2026-05-03T07:49:21Z</time></trkpt><trkpt lat="37.6627939" lon="14.5366806"><ele>496.83333333333337</ele><time>2026-05-03T07:49:22Z</time></trkpt><trkpt lat="37.6628398" lon="14.5366023"><ele>494.6666666666667</ele><time>2026-05-03T07:49:23Z</time></trkpt><trkpt lat="37.6628888" lon="14.5365203"><ele>492.5</ele><time>2026-05-03T07:49:24Z</time></trkpt><trkpt lat="37.6629478" lon="14.5364428"><ele>490.33333333333337</ele><time>2026-05-03T07:49:25Z</time></trkpt><trkpt lat="37.663005" lon="14.5363674"><ele>488.1666666666667</ele><time>2026-05-03T07:49:26Z</time></trkpt><trkpt lat="37.6630489" lon="14.5362762"><ele>486.0</ele><time>2026-05-03T07:49:27Z</time></trkpt><trkpt lat="37.6630765" lon="14.5361797"><ele>485.8</ele><time>2026-05-03T07:49:28Z</time></trkpt><trkpt lat="37.6630905" lon="14.5360808"><ele>485.6</ele><time>2026-05-03T07:49:29Z</time></trkpt><trkpt lat="37.6630829" lon="14.5359692"><ele>485.4</ele><time>2026-05-03T07:49:30Z</time></trkpt><trkpt lat="37.6630462" lon="14.5358376"><ele>485.2</ele><time>2026-05-03T07:49:31Z</time></trkpt><trkpt lat="37.662978" lon="14.5356525"><ele>485.0</ele><time>2026-05-03T07:49:32Z</time></trkpt><trkpt lat="37.6629188" lon="14.5354614"><ele>484.5</ele><time>2026-05-03T07:49:33Z</time></trkpt><trkpt lat="37.6628762" lon="14.535281"><ele>484.0</ele><time>2026-05-03T07:49:34Z</time></trkpt><trkpt lat="37.6628443" lon="14.5351266"><ele>483.5</ele><time>2026-05-03T07:49:35Z</time></trkpt><trkpt lat="37.6628359" lon="14.5349755"><ele>483.0</ele><time>2026-05-03T07:49:36Z</time></trkpt><trkpt lat="37.6628481" lon="14.5348428"><ele>483.0</ele><time>2026-05-03T07:49:37Z</time></trkpt><trkpt lat="37.6628789" lon="14.5347461"><ele>482.99999999999994</ele><time>2026-05-03T07:49:38Z</time></trkpt><trkpt lat="37.6629354" lon="14.5346805"><ele>482.99999999999994</ele><time>2026-05-03T07:49:39Z</time></trkpt><trkpt lat="37.6630134" lon="14.5346473"><ele>483.0</ele><time>2026-05-03T07:49:40Z</time></trkpt><trkpt lat="37.6631299" lon="14.5346489"><ele>483.0</ele><time>2026-05-03T07:49:41Z</time></trkpt><trkpt lat="37.6632881" lon="14.5346779"><ele>483.0</ele><time>2026-05-03T07:49:42Z</time></trkpt><trkpt lat="37.6634725" lon="14.5347043"><ele>483.0</ele><time>2026-05-03T07:49:43Z</time></trkpt><trkpt lat="37.6636549" lon="14.5347071"><ele>483.0</ele><time>2026-05-03T07:49:44Z</time></trkpt><trkpt lat="37.6638249" lon="14.5346967"><ele>481.25</ele><time>2026-05-03T07:49:45Z</time></trkpt><trkpt lat="37.6639736" lon="14.5346788"><ele>479.5</ele><time>2026-05-03T07:49:45.999Z</time></trkpt><trkpt lat="37.664116" lon="14.5346832"><ele>477.75</ele><time>2026-05-03T07:49:47Z</time></trkpt><trkpt lat="37.6642455" lon="14.5347397"><ele>476.0</ele><time>2026-05-03T07:49:48Z</time></trkpt><trkpt lat="37.6643478" lon="14.5347959"><ele>476.0</ele><time>2026-05-03T07:49:49Z</time></trkpt><trkpt lat="37.6644339" lon="14.5348339"><ele>476.0</ele><time>2026-05-03T07:49:50Z</time></trkpt><trkpt lat="37.6645109" lon="14.5348513"><ele>476.0</ele><time>2026-05-03T07:49:51Z</time></trkpt><trkpt lat="37.6645996" lon="14.5348797"><ele>476.0</ele><time>2026-05-03T07:49:52Z</time></trkpt><trkpt lat="37.6646962" lon="14.5349052"><ele>476.0</ele><time>2026-05-03T07:49:52.999Z</time></trkpt><trkpt lat="37.6648026" lon="14.534924"><ele>475.3333333333333</ele><time>2026-05-03T07:49:54Z</time></trkpt><trkpt lat="37.664903" lon="14.534948"><ele>474.66666666666663</ele><time>2026-05-03T07:49:55Z</time></trkpt><trkpt lat="37.6649965" lon="14.5349731"><ele>474.0</ele><time>2026-05-03T07:49:56Z</time></trkpt><trkpt lat="37.6650758" lon="14.5350176"><ele>473.33333333333337</ele><time>2026-05-03T07:49:57Z</time></trkpt><trkpt lat="37.6651423" lon="14.5350727"><ele>472.6666666666667</ele><time>2026-05-03T07:49:58Z</time></trkpt><trkpt lat="37.6652068" lon="14.5351337"><ele>472.0</ele><time>2026-05-03T07:49:59Z</time></trkpt><trkpt lat="37.6652617" lon="14.5352116"><ele>473.20000000000005</ele><time>2026-05-03T07:49:59.999Z</time></trkpt><trkpt lat="37.6653295" lon="14.53529"><ele>474.40000000000003</ele><time>2026-05-03T07:50:01Z</time></trkpt><trkpt lat="37.6654002" lon="14.5353669"><ele>475.59999999999997</ele><time>2026-05-03T07:50:02Z</time></trkpt><trkpt lat="37.6654743" lon="14.5354535"><ele>476.79999999999995</ele><time>2026-05-03T07:50:03Z</time></trkpt><trkpt lat="37.6655542" lon="14.5355299"><ele>478.0</ele><time>2026-05-03T07:50:04Z</time></trkpt><trkpt lat="37.66564" lon="14.5356067"><ele>475.2</ele><time>2026-05-03T07:50:05Z</time></trkpt><trkpt lat="37.6657334" lon="14.5356679"><ele>472.4</ele><time>2026-05-03T07:50:06Z</time></trkpt><trkpt lat="37.6658248" lon="14.5357349"><ele>469.59999999999997</ele><time>2026-05-03T07:50:07Z</time></trkpt><trkpt lat="37.665912" lon="14.5358008"><ele>466.79999999999995</ele><time>2026-05-03T07:50:08Z</time></trkpt><trkpt lat="37.6659917" lon="14.5358671"><ele>464.0</ele><time>2026-05-03T07:50:09Z</time></trkpt><trkpt lat="37.6660608" lon="14.5359277"><ele>463.6</ele><time>2026-05-03T07:50:10Z</time></trkpt><trkpt lat="37.6661305" lon="14.5359801"><ele>463.2</ele><time>2026-05-03T07:50:11Z</time></trkpt><trkpt lat="37.6662121" lon="14.5360055"><ele>462.80000000000007</ele><time>2026-05-03T07:50:11.999Z</time></trkpt><trkpt lat="37.6663081" lon="14.5359979"><ele>462.40000000000003</ele><time>2026-05-03T07:50:13Z</time></trkpt><trkpt lat="37.6664029" lon="14.5359693"><ele>462.0</ele><time>2026-05-03T07:50:14Z</time></trkpt><trkpt lat="37.6665052" lon="14.5359433"><ele>462.0</ele><time>2026-05-03T07:50:15Z</time></trkpt><trkpt lat="37.6666233" lon="14.5359157"><ele>462.00000000000006</ele><time>2026-05-03T07:50:16Z</time></trkpt><trkpt lat="37.6667264" lon="14.5358915"><ele>462.00000000000006</ele><time>2026-05-03T07:50:17Z</time></trkpt><trkpt lat="37.6668344" lon="14.5358768"><ele>462.0</ele><time>2026-05-03T07:50:18Z</time></trkpt><trkpt lat="37.6669454" lon="14.5358896"><ele>462.0</ele><time>2026-05-03T07:50:19Z</time></trkpt><trkpt lat="37.66705" lon="14.5359264"><ele>461.0</ele><time>2026-05-03T07:50:20Z</time></trkpt><trkpt lat="37.6671595" lon="14.5359619"><ele>460.00000000000006</ele><time>2026-05-03T07:50:21Z</time></trkpt><trkpt lat="37.667259" lon="14.5359803"><ele>459.00000000000006</ele><time>2026-05-03T07:50:22Z</time></trkpt><trkpt lat="37.667357" lon="14.5359752"><ele>458.0</ele><time>2026-05-03T07:50:23Z</time></trkpt><trkpt lat="37.6674502" lon="14.5359563"><ele>457.0</ele><time>2026-05-03T07:50:24Z</time></trkpt><trkpt lat="37.667536" lon="14.5359436"><ele>457.0</ele><time>2026-05-03T07:50:25Z</time></trkpt><trkpt lat="37.6676211" lon="14.5359192"><ele>457.00000000000006</ele><time>2026-05-03T07:50:26Z</time></trkpt><trkpt lat="37.6676984" lon="14.5358862"><ele>457.00000000000006</ele><time>2026-05-03T07:50:27Z</time></trkpt><trkpt lat="37.6677811" lon="14.5358323"><ele>457.0</ele><time>2026-05-03T07:50:28Z</time></trkpt><trkpt lat="37.6678678" lon="14.5357771"><ele>457.0</ele><time>2026-05-03T07:50:29Z</time></trkpt><trkpt lat="37.66796" lon="14.5357245"><ele>455.8</ele><time>2026-05-03T07:50:30Z</time></trkpt><trkpt lat="37.6680481" lon="14.5356968"><ele>454.6</ele><time>2026-05-03T07:50:30.999Z</time></trkpt><trkpt lat="37.6681381" lon="14.5357016"><ele>453.40000000000003</ele><time>2026-05-03T07:50:32Z</time></trkpt><trkpt lat="37.6682248" lon="14.535736"><ele>452.20000000000005</ele><time>2026-05-03T07:50:33Z</time></trkpt><trkpt lat="37.6683042" lon="14.5358051"><ele>451.0</ele><time>2026-05-03T07:50:34Z</time></trkpt><trkpt lat="37.6683852" lon="14.5358776"><ele>451.0</ele><time>2026-05-03T07:50:35Z</time></trkpt><trkpt lat="37.6684692" lon="14.5359395"><ele>451.0</ele><time>2026-05-03T07:50:36Z</time></trkpt><trkpt lat="37.668573" lon="14.5359646"><ele>451.0</ele><time>2026-05-03T07:50:37Z</time></trkpt><trkpt lat="37.6686869" lon="14.5359589"><ele>451.0</ele><time>2026-05-03T07:50:38Z</time></trkpt><trkpt lat="37.6688051" lon="14.5359467"><ele>451.0</ele><time>2026-05-03T07:50:39Z</time></trkpt><trkpt lat="37.6689183" lon="14.5359206"><ele>449.25</ele><time>2026-05-03T07:50:40Z</time></trkpt><trkpt lat="37.6690321" lon="14.5358813"><ele>447.5</ele><time>2026-05-03T07:50:41Z</time></trkpt><trkpt lat="37.6691429" lon="14.5358279"><ele>445.75</ele><time>2026-05-03T07:50:42Z</time></trkpt><trkpt lat="37.669253" lon="14.5357776"><ele>444.0</ele><time>2026-05-03T07:50:43Z</time></trkpt><trkpt lat="37.6693628" lon="14.5357258"><ele>441.4</ele><time>2026-05-03T07:50:44Z</time></trkpt><trkpt lat="37.6694664" lon="14.53567"><ele>438.79999999999995</ele><time>2026-05-03T07:50:45Z</time></trkpt><trkpt lat="37.6695616" lon="14.5356164"><ele>436.20000000000005</ele><time>2026-05-03T07:50:46Z</time></trkpt><trkpt lat="37.6696532" lon="14.5355549"><ele>433.6</ele><time>2026-05-03T07:50:47Z</time></trkpt><trkpt lat="37.6697197" lon="14.5354655"><ele>431.0</ele><time>2026-05-03T07:50:48Z</time></trkpt><trkpt lat="37.6697564" lon="14.5353574"><ele>431.0</ele><time>2026-05-03T07:50:49Z</time></trkpt><trkpt lat="37.6697819" lon="14.5352319"><ele>431.0</ele><time>2026-05-03T07:50:50Z</time></trkpt><trkpt lat="37.669786" lon="14.535084"><ele>431.0</ele><time>2026-05-03T07:50:51Z</time></trkpt><trkpt lat="37.6698068" lon="14.5349344"><ele>431.0</ele><time>2026-05-03T07:50:52Z</time></trkpt><trkpt lat="37.6698284" lon="14.5347849"><ele>431.0</ele><time>2026-05-03T07:50:53Z</time></trkpt><trkpt lat="37.6698639" lon="14.534633"><ele>431.0</ele><time>2026-05-03T07:50:54Z</time></trkpt><trkpt lat="37.6699171" lon="14.5344876"><ele>431.0</ele><time>2026-05-03T07:50:55Z</time></trkpt><trkpt lat="37.6699768" lon="14.5343497"><ele>431.0</ele><time>2026-05-03T07:50:56Z</time></trkpt><trkpt lat="37.6700481" lon="14.5342218"><ele>431.4</ele><time>2026-05-03T07:50:57Z</time></trkpt><trkpt lat="37.6701213" lon="14.5341144"><ele>431.8</ele><time>2026-05-03T07:50:58Z</time></trkpt><trkpt lat="37.6701872" lon="14.5340088"><ele>432.19999999999993</ele><time>2026-05-03T07:50:59Z</time></trkpt><trkpt lat="37.6702452" lon="14.5339023"><ele>432.59999999999997</ele><time>2026-05-03T07:51:00Z</time></trkpt><trkpt lat="37.6702794" lon="14.5337865"><ele>433.0</ele><time>2026-05-03T07:51:01Z</time></trkpt><trkpt lat="37.6702654" lon="14.5336725"><ele>433.0</ele><time>2026-05-03T07:51:02Z</time></trkpt><trkpt lat="37.670229" lon="14.5335693"><ele>432.99999999999994</ele><time>2026-05-03T07:51:03Z</time></trkpt><trkpt lat="37.6701622" lon="14.5334716"><ele>432.99999999999994</ele><time>2026-05-03T07:51:04Z</time></trkpt><trkpt lat="37.6700992" lon="14.5333615"><ele>433.0</ele><time>2026-05-03T07:51:05Z</time></trkpt><trkpt lat="37.6700814" lon="14.5332374"><ele>433.0</ele><time>2026-05-03T07:51:06Z</time></trkpt><trkpt lat="37.6701024" lon="14.5331108"><ele>433.0</ele><time>2026-05-03T07:51:07Z</time></trkpt><trkpt lat="37.6701546" lon="14.5329917"><ele>433.0</ele><time>2026-05-03T07:51:08Z</time></trkpt><trkpt lat="37.6702214" lon="14.5328705"><ele>433.0</ele><time>2026-05-03T07:51:09Z</time></trkpt><trkpt lat="37.6702876" lon="14.5327415"><ele>433.0</ele><time>2026-05-03T07:51:10Z</time></trkpt><trkpt lat="37.6703601" lon="14.5326229"><ele>428.25</ele><time>2026-05-03T07:51:11Z</time></trkpt><trkpt lat="37.670428" lon="14.532509"><ele>423.5</ele><time>2026-05-03T07:51:12Z</time></trkpt><trkpt lat="37.6704998" lon="14.5323873"><ele>418.75</ele><time>2026-05-03T07:51:13Z</time></trkpt><trkpt lat="37.6705708" lon="14.5322622"><ele>414.0</ele><time>2026-05-03T07:51:14Z</time></trkpt><trkpt lat="37.6706471" lon="14.5321321"><ele>415.0</ele><time>2026-05-03T07:51:15Z</time></trkpt><trkpt lat="37.67073" lon="14.531991"><ele>416.0</ele><time>2026-05-03T07:51:16Z</time></trkpt><trkpt lat="37.6708108" lon="14.5318543"><ele>417.0</ele><time>2026-05-03T07:51:17Z</time></trkpt><trkpt lat="37.6708961" lon="14.5317138"><ele>418.0</ele><time>2026-05-03T07:51:18Z</time></trkpt><trkpt lat="37.6709795" lon="14.531576"><ele>418.0</ele><time>2026-05-03T07:51:19Z</time></trkpt><trkpt lat="37.671053" lon="14.531443"><ele>418.0</ele><time>2026-05-03T07:51:20Z</time></trkpt><trkpt lat="37.6711192" lon="14.5313089"><ele>418.0</ele><time>2026-05-03T07:51:21Z</time></trkpt><trkpt lat="37.6711734" lon="14.5311806"><ele>418.0</ele><time>2026-05-03T07:51:22Z</time></trkpt><trkpt lat="37.6712211" lon="14.5310485"><ele>414.0</ele><time>2026-05-03T07:51:23Z</time></trkpt><trkpt lat="37.6712516" lon="14.5309116"><ele>410.0</ele><time>2026-05-03T07:51:24Z</time></trkpt><trkpt lat="37.6712545" lon="14.5307737"><ele>406.0</ele><time>2026-05-03T07:51:25Z</time></trkpt><trkpt lat="37.6712239" lon="14.5306346"><ele>402.0</ele><time>2026-05-03T07:51:26Z</time></trkpt><trkpt lat="37.671184" lon="14.5304957"><ele>401.0</ele><time>2026-05-03T07:51:27Z</time></trkpt><trkpt lat="37.6711378" lon="14.5303707"><ele>400.0</ele><time>2026-05-03T07:51:28Z</time></trkpt><trkpt lat="37.6710877" lon="14.5302521"><ele>399.0</ele><time>2026-05-03T07:51:29Z</time></trkpt><trkpt lat="37.6710359" lon="14.5301305"><ele>398.0</ele><time>2026-05-03T07:51:30Z</time></trkpt><trkpt lat="37.6710013" lon="14.5300061"><ele>397.0</ele><time>2026-05-03T07:51:31Z</time></trkpt><trkpt lat="37.6710011" lon="14.5298729"><ele>402.0</ele><time>2026-05-03T07:51:32Z</time></trkpt><trkpt lat="37.6710169" lon="14.5297281"><ele>407.0</ele><time>2026-05-03T07:51:33Z</time></trkpt><trkpt lat="37.6710365" lon="14.5295797"><ele>412.0</ele><time>2026-05-03T07:51:34Z</time></trkpt><trkpt lat="37.6710555" lon="14.5294323"><ele>417.0</ele><time>2026-05-03T07:51:35Z</time></trkpt><trkpt lat="37.6710774" lon="14.5292866"><ele>412.75</ele><time>2026-05-03T07:51:36Z</time></trkpt><trkpt lat="37.6711084" lon="14.5291375"><ele>408.5</ele><time>2026-05-03T07:51:37Z</time></trkpt><trkpt lat="37.6711492" lon="14.5289906"><ele>404.25</ele><time>2026-05-03T07:51:38Z</time></trkpt><trkpt lat="37.6711994" lon="14.5288379"><ele>400.0</ele><time>2026-05-03T07:51:39Z</time></trkpt><trkpt lat="37.6712498" lon="14.528677"><ele>399.25</ele><time>2026-05-03T07:51:39.999Z</time></trkpt><trkpt lat="37.6712708" lon="14.5285008"><ele>398.5</ele><time>2026-05-03T07:51:41Z</time></trkpt><trkpt lat="37.6712759" lon="14.5283217"><ele>397.75</ele><time>2026-05-03T07:51:42Z</time></trkpt><trkpt lat="37.6712713" lon="14.5281508"><ele>397.0</ele><time>2026-05-03T07:51:43Z</time></trkpt><trkpt lat="37.6712732" lon="14.5279857"><ele>396.40000000000003</ele><time>2026-05-03T07:51:44Z</time></trkpt><trkpt lat="37.6712698" lon="14.5278359"><ele>395.8</ele><time>2026-05-03T07:51:45Z</time></trkpt><trkpt lat="37.6712695" lon="14.527703"><ele>395.2</ele><time>2026-05-03T07:51:46Z</time></trkpt><trkpt lat="37.6712834" lon="14.5275989"><ele>394.6</ele><time>2026-05-03T07:51:47Z</time></trkpt><trkpt lat="37.671326" lon="14.5275147"><ele>394.0</ele><time>2026-05-03T07:51:48Z</time></trkpt><trkpt lat="37.6714445" lon="14.5275144"><ele>394.0</ele><time>2026-05-03T07:51:50Z</time></trkpt><trkpt lat="37.6714948" lon="14.5276801"><ele>394.0</ele><time>2026-05-03T07:51:52Z</time></trkpt><trkpt lat="37.6715085" lon="14.5278297"><ele>394.0</ele><time>2026-05-03T07:51:53Z</time></trkpt><trkpt lat="37.6715371" lon="14.5280582"><ele>394.0</ele><time>2026-05-03T07:51:54Z</time></trkpt><trkpt lat="37.6715996" lon="14.5283241"><ele>395.5</ele><time>2026-05-03T07:51:55Z</time></trkpt><trkpt lat="37.6716496" lon="14.5286389"><ele>397.0</ele><time>2026-05-03T07:51:56Z</time></trkpt><trkpt lat="37.6717069" lon="14.5289868"><ele>397.0</ele><time>2026-05-03T07:51:57Z</time></trkpt><trkpt lat="37.6717663" lon="14.5293389"><ele>397.0</ele><time>2026-05-03T07:51:58Z</time></trkpt><trkpt lat="37.6718227" lon="14.5296766"><ele>397.0</ele><time>2026-05-03T07:51:59Z</time></trkpt><trkpt lat="37.6718788" lon="14.5299991"><ele>397.0</ele><time>2026-05-03T07:52:00Z</time></trkpt><trkpt lat="37.6719332" lon="14.5303084"><ele>389.5</ele><time>2026-05-03T07:52:01Z</time></trkpt><trkpt lat="37.6719831" lon="14.5306026"><ele>382.0</ele><time>2026-05-03T07:52:02Z</time></trkpt><trkpt lat="37.6720343" lon="14.5308795"><ele>382.0</ele><time>2026-05-03T07:52:03Z</time></trkpt><trkpt lat="37.6720823" lon="14.5311425"><ele>382.0</ele><time>2026-05-03T07:52:04Z</time></trkpt><trkpt lat="37.6721257" lon="14.5313989"><ele>382.0</ele><time>2026-05-03T07:52:05Z</time></trkpt><trkpt lat="37.6721659" lon="14.5316366"><ele>381.3333333333333</ele><time>2026-05-03T07:52:06Z</time></trkpt><trkpt lat="37.6721994" lon="14.5318656"><ele>380.6666666666667</ele><time>2026-05-03T07:52:07Z</time></trkpt><trkpt lat="37.6722365" lon="14.5320846"><ele>380.0</ele><time>2026-05-03T07:52:08Z</time></trkpt><trkpt lat="37.6722733" lon="14.53228"><ele>379.5</ele><time>2026-05-03T07:52:09Z</time></trkpt><trkpt lat="37.672307" lon="14.532464"><ele>379.0</ele><time>2026-05-03T07:52:10Z</time></trkpt><trkpt lat="37.672337" lon="14.5326293"><ele>378.5</ele><time>2026-05-03T07:52:11Z</time></trkpt><trkpt lat="37.6723781" lon="14.5327841"><ele>378.0</ele><time>2026-05-03T07:52:11.999Z</time></trkpt><trkpt lat="37.6724411" lon="14.532915"><ele>378.0</ele><time>2026-05-03T07:52:13Z</time></trkpt><trkpt lat="37.6725252" lon="14.5330145"><ele>378.0</ele><time>2026-05-03T07:52:14Z</time></trkpt><trkpt lat="37.6726287" lon="14.533078"><ele>378.0</ele><time>2026-05-03T07:52:15Z</time></trkpt><trkpt lat="37.6727461" lon="14.5331107"><ele>378.0</ele><time>2026-05-03T07:52:16Z</time></trkpt><trkpt lat="37.6728739" lon="14.5330837"><ele>377.0</ele><time>2026-05-03T07:52:17Z</time></trkpt><trkpt lat="37.6730077" lon="14.5330167"><ele>376.0</ele><time>2026-05-03T07:52:18Z</time></trkpt><trkpt lat="37.673161" lon="14.5329054"><ele>375.0</ele><time>2026-05-03T07:52:19Z</time></trkpt><trkpt lat="37.6733462" lon="14.5327714"><ele>375.0</ele><time>2026-05-03T07:52:20Z</time></trkpt><trkpt lat="37.6735393" lon="14.5326306"><ele>375.0</ele><time>2026-05-03T07:52:21Z</time></trkpt><trkpt lat="37.6737418" lon="14.5324901"><ele>373.5</ele><time>2026-05-03T07:52:22Z</time></trkpt><trkpt lat="37.6739489" lon="14.5323424"><ele>372.0</ele><time>2026-05-03T07:52:23Z</time></trkpt><trkpt lat="37.6741563" lon="14.5322011"><ele>372.0</ele><time>2026-05-03T07:52:24Z</time></trkpt><trkpt lat="37.6743581" lon="14.5320577"><ele>372.0</ele><time>2026-05-03T07:52:25Z</time></trkpt><trkpt lat="37.6745632" lon="14.5319182"><ele>373.3333333333333</ele><time>2026-05-03T07:52:26Z</time></trkpt><trkpt lat="37.6747587" lon="14.5317775"><ele>374.66666666666663</ele><time>2026-05-03T07:52:27Z</time></trkpt><trkpt lat="37.6749493" lon="14.5316452"><ele>376.0</ele><time>2026-05-03T07:52:28Z</time></trkpt><trkpt lat="37.6751416" lon="14.531513"><ele>375.66666666666663</ele><time>2026-05-03T07:52:29Z</time></trkpt><trkpt lat="37.6753275" lon="14.5313805"><ele>375.3333333333333</ele><time>2026-05-03T07:52:30Z</time></trkpt><trkpt lat="37.6755082" lon="14.5312503"><ele>375.0</ele><time>2026-05-03T07:52:31Z</time></trkpt><trkpt lat="37.6756799" lon="14.5311255"><ele>376.6666666666667</ele><time>2026-05-03T07:52:31.999Z</time></trkpt><trkpt lat="37.6758353" lon="14.5310213"><ele>378.33333333333337</ele><time>2026-05-03T07:52:33Z</time></trkpt><trkpt lat="37.6759783" lon="14.5309527"><ele>380.0</ele><time>2026-05-03T07:52:34Z</time></trkpt><trkpt lat="37.676131" lon="14.5309193"><ele>383.0</ele><time>2026-05-03T07:52:35Z</time></trkpt><trkpt lat="37.6762886" lon="14.5309373"><ele>386.0</ele><time>2026-05-03T07:52:36Z</time></trkpt><trkpt lat="37.6764466" lon="14.5310248"><ele>389.0</ele><time>2026-05-03T07:52:37Z</time></trkpt><trkpt lat="37.6766144" lon="14.5311731"><ele>389.5</ele><time>2026-05-03T07:52:38Z</time></trkpt><trkpt lat="37.6768009" lon="14.5313594"><ele>390.0</ele><time>2026-05-03T07:52:39Z</time></trkpt><trkpt lat="37.6769972" lon="14.531555"><ele>390.0</ele><time>2026-05-03T07:52:40Z</time></trkpt><trkpt lat="37.6771728" lon="14.5317432"><ele>390.0</ele><time>2026-05-03T07:52:41Z</time></trkpt><trkpt lat="37.6773393" lon="14.5319143"><ele>390.0</ele><time>2026-05-03T07:52:42Z</time></trkpt><trkpt lat="37.6775059" lon="14.5320585"><ele>390.66666666666663</ele><time>2026-05-03T07:52:43Z</time></trkpt><trkpt lat="37.6776877" lon="14.5321513"><ele>391.3333333333333</ele><time>2026-05-03T07:52:44Z</time></trkpt><trkpt lat="37.6778747" lon="14.5322067"><ele>392.0</ele><time>2026-05-03T07:52:45Z</time></trkpt><trkpt lat="37.6780801" lon="14.5322083"><ele>392.0</ele><time>2026-05-03T07:52:46Z</time></trkpt><trkpt lat="37.6782945" lon="14.5321472"><ele>392.0</ele><time>2026-05-03T07:52:47Z</time></trkpt><trkpt lat="37.6785273" lon="14.5320469"><ele>398.5</ele><time>2026-05-03T07:52:48Z</time></trkpt><trkpt lat="37.6787642" lon="14.5319344"><ele>405.0</ele><time>2026-05-03T07:52:49Z</time></trkpt><trkpt lat="37.6790063" lon="14.5318262"><ele>405.0</ele><time>2026-05-03T07:52:50Z</time></trkpt><trkpt lat="37.6792378" lon="14.5317167"><ele>405.0</ele><time>2026-05-03T07:52:51Z</time></trkpt><trkpt lat="37.6794701" lon="14.5315893"><ele>405.5</ele><time>2026-05-03T07:52:52Z</time></trkpt><trkpt lat="37.679692" lon="14.5314406"><ele>406.0</ele><time>2026-05-03T07:52:53Z</time></trkpt><trkpt lat="37.6799031" lon="14.5312914"><ele>412.5</ele><time>2026-05-03T07:52:54Z</time></trkpt><trkpt lat="37.680114" lon="14.5311395"><ele>419.0</ele><time>2026-05-03T07:52:55Z</time></trkpt><trkpt lat="37.6803218" lon="14.5309832"><ele>422.0</ele><time>2026-05-03T07:52:56Z</time></trkpt><trkpt lat="37.6805269" lon="14.5308289"><ele>425.0</ele><time>2026-05-03T07:52:57Z</time></trkpt><trkpt lat="37.6807366" lon="14.5306801"><ele>425.0</ele><time>2026-05-03T07:52:58Z</time></trkpt><trkpt lat="37.6809542" lon="14.5305395"><ele>425.0</ele><time>2026-05-03T07:52:59Z</time></trkpt><trkpt lat="37.6811777" lon="14.5304143"><ele>429.0</ele><time>2026-05-03T07:53:00Z</time></trkpt><trkpt lat="37.6814084" lon="14.5302875"><ele>433.0</ele><time>2026-05-03T07:53:01Z</time></trkpt><trkpt lat="37.6816524" lon="14.5301778"><ele>433.0</ele><time>2026-05-03T07:53:02Z</time></trkpt><trkpt lat="37.6818973" lon="14.5300778"><ele>433.0</ele><time>2026-05-03T07:53:03Z</time></trkpt><trkpt lat="37.6821444" lon="14.5299815"><ele>432.5</ele><time>2026-05-03T07:53:04Z</time></trkpt><trkpt lat="37.6823886" lon="14.5298879"><ele>432.0</ele><time>2026-05-03T07:53:05Z</time></trkpt><trkpt lat="37.682632" lon="14.5298018"><ele>432.5</ele><time>2026-05-03T07:53:06Z</time></trkpt><trkpt lat="37.6828735" lon="14.5297243"><ele>433.0</ele><time>2026-05-03T07:53:07Z</time></trkpt><trkpt lat="37.6831012" lon="14.5296386"><ele>438.5</ele><time>2026-05-03T07:53:08Z</time></trkpt><trkpt lat="37.6833207" lon="14.529533"><ele>444.0</ele><time>2026-05-03T07:53:09Z</time></trkpt><trkpt lat="37.6835266" lon="14.5294"><ele>443.5</ele><time>2026-05-03T07:53:10Z</time></trkpt><trkpt lat="37.6837331" lon="14.5292448"><ele>443.0</ele><time>2026-05-03T07:53:11Z</time></trkpt><trkpt lat="37.6839332" lon="14.5290814"><ele>443.0</ele><time>2026-05-03T07:53:12Z</time></trkpt><trkpt lat="37.6841146" lon="14.5289265"><ele>443.0</ele><time>2026-05-03T07:53:13Z</time></trkpt><trkpt lat="37.6842858" lon="14.528788"><ele>443.0</ele><time>2026-05-03T07:53:14Z</time></trkpt><trkpt lat="37.6844517" lon="14.5286686"><ele>444.0</ele><time>2026-05-03T07:53:15Z</time></trkpt><trkpt lat="37.6846545" lon="14.5285976"><ele>445.0</ele><time>2026-05-03T07:53:16Z</time></trkpt><trkpt lat="37.6848831" lon="14.5285541"><ele>446.0</ele><time>2026-05-03T07:53:17Z</time></trkpt><trkpt lat="37.6851193" lon="14.5285106"><ele>451.0</ele><time>2026-05-03T07:53:18Z</time></trkpt><trkpt lat="37.6853559" lon="14.5284722"><ele>456.0</ele><time>2026-05-03T07:53:19Z</time></trkpt><trkpt lat="37.6855935" lon="14.5284468"><ele>456.0</ele><time>2026-05-03T07:53:20Z</time></trkpt><trkpt lat="37.6858296" lon="14.5284345"><ele>456.0</ele><time>2026-05-03T07:53:21Z</time></trkpt><trkpt lat="37.6860602" lon="14.5284326"><ele>462.0</ele><time>2026-05-03T07:53:22Z</time></trkpt><trkpt lat="37.6862913" lon="14.5284307"><ele>468.0</ele><time>2026-05-03T07:53:23Z</time></trkpt><trkpt lat="37.6865132" lon="14.5284466"><ele>468.0</ele><time>2026-05-03T07:53:24Z</time></trkpt><trkpt lat="37.6867343" lon="14.5284859"><ele>468.0</ele><time>2026-05-03T07:53:25Z</time></trkpt><trkpt lat="37.6869519" lon="14.5285452"><ele>468.0</ele><time>2026-05-03T07:53:26Z</time></trkpt><trkpt lat="37.6871699" lon="14.5286155"><ele>474.5</ele><time>2026-05-03T07:53:27Z</time></trkpt><trkpt lat="37.6873922" lon="14.5286864"><ele>481.0</ele><time>2026-05-03T07:53:28Z</time></trkpt><trkpt lat="37.687614" lon="14.528756"><ele>484.6666666666667</ele><time>2026-05-03T07:53:29Z</time></trkpt><trkpt lat="37.6878291" lon="14.5288248"><ele>488.33333333333337</ele><time>2026-05-03T07:53:30Z</time></trkpt><trkpt lat="37.6880266" lon="14.5288867"><ele>492.0</ele><time>2026-05-03T07:53:31Z</time></trkpt><trkpt lat="37.688207" lon="14.5289633"><ele>492.0</ele><time>2026-05-03T07:53:32Z</time></trkpt><trkpt lat="37.6883645" lon="14.5290689"><ele>492.0</ele><time>2026-05-03T07:53:33Z</time></trkpt><trkpt lat="37.6885015" lon="14.5292128"><ele>492.0</ele><time>2026-05-03T07:53:34Z</time></trkpt><trkpt lat="37.6886046" lon="14.5293951"><ele>497.0</ele><time>2026-05-03T07:53:35Z</time></trkpt><trkpt lat="37.688668" lon="14.5296086"><ele>502.0</ele><time>2026-05-03T07:53:36Z</time></trkpt><trkpt lat="37.6886911" lon="14.5298488"><ele>507.0</ele><time>2026-05-03T07:53:37Z</time></trkpt><trkpt lat="37.688676" lon="14.530122"><ele>510.33333333333337</ele><time>2026-05-03T07:53:38Z</time></trkpt><trkpt lat="37.6886621" lon="14.5303988"><ele>513.6666666666667</ele><time>2026-05-03T07:53:39Z</time></trkpt><trkpt lat="37.6886486" lon="14.5306694"><ele>517.0</ele><time>2026-05-03T07:53:40Z</time></trkpt><trkpt lat="37.6886409" lon="14.5309247"><ele>517.0</ele><time>2026-05-03T07:53:41Z</time></trkpt><trkpt lat="37.6886837" lon="14.5311553"><ele>517.0</ele><time>2026-05-03T07:53:42Z</time></trkpt><trkpt lat="37.6887751" lon="14.5313639"><ele>517.0</ele><time>2026-05-03T07:53:43Z</time></trkpt><trkpt lat="37.6889288" lon="14.5315531"><ele>514.5</ele><time>2026-05-03T07:53:44Z</time></trkpt><trkpt lat="37.6891206" lon="14.531726"><ele>512.0</ele><time>2026-05-03T07:53:45Z</time></trkpt><trkpt lat="37.6893315" lon="14.5319038"><ele>516.0</ele><time>2026-05-03T07:53:46Z</time></trkpt><trkpt lat="37.6895387" lon="14.5320801"><ele>520.0</ele><time>2026-05-03T07:53:47Z</time></trkpt><trkpt lat="37.6897361" lon="14.5322472"><ele>520.0</ele><time>2026-05-03T07:53:48Z</time></trkpt><trkpt lat="37.689906" lon="14.5324189"><ele>520.0</ele><time>2026-05-03T07:53:49Z</time></trkpt><trkpt lat="37.6900612" lon="14.532632"><ele>520.0</ele><time>2026-05-03T07:53:50Z</time></trkpt><trkpt lat="37.6902036" lon="14.5328829"><ele>528.0</ele><time>2026-05-03T07:53:51Z</time></trkpt><trkpt lat="37.6903306" lon="14.5331769"><ele>536.0</ele><time>2026-05-03T07:53:52Z</time></trkpt><trkpt lat="37.6904476" lon="14.533493"><ele>539.0</ele><time>2026-05-03T07:53:53Z</time></trkpt><trkpt lat="37.6905591" lon="14.5338027"><ele>542.0</ele><time>2026-05-03T07:53:54Z</time></trkpt><trkpt lat="37.6906638" lon="14.5340928"><ele>542.0</ele><time>2026-05-03T07:53:55Z</time></trkpt><trkpt lat="37.6907644" lon="14.5343556"><ele>542.0</ele><time>2026-05-03T07:53:56Z</time></trkpt><trkpt lat="37.6908651" lon="14.5345778"><ele>542.0</ele><time>2026-05-03T07:53:57Z</time></trkpt><trkpt lat="37.6909954" lon="14.5347654"><ele>544.6666666666666</ele><time>2026-05-03T07:53:58Z</time></trkpt><trkpt lat="37.6911637" lon="14.5349027"><ele>547.3333333333334</ele><time>2026-05-03T07:53:59Z</time></trkpt><trkpt lat="37.6913517" lon="14.5349766"><ele>550.0</ele><time>2026-05-03T07:54:00Z</time></trkpt><trkpt lat="37.6915426" lon="14.5349827"><ele>550.0</ele><time>2026-05-03T07:54:00.999Z</time></trkpt><trkpt lat="37.6917375" lon="14.5349365"><ele>550.0</ele><time>2026-05-03T07:54:02Z</time></trkpt><trkpt lat="37.6919012" lon="14.5348255"><ele>550.0</ele><time>2026-05-03T07:54:03Z</time></trkpt><trkpt lat="37.6920481" lon="14.5346555"><ele>553.5</ele><time>2026-05-03T07:54:04Z</time></trkpt><trkpt lat="37.6921677" lon="14.5344099"><ele>557.0</ele><time>2026-05-03T07:54:05Z</time></trkpt><trkpt lat="37.6922702" lon="14.5341123"><ele>557.0</ele><time>2026-05-03T07:54:06Z</time></trkpt><trkpt lat="37.6923858" lon="14.5338233"><ele>557.0</ele><time>2026-05-03T07:54:07Z</time></trkpt><trkpt lat="37.6925319" lon="14.5335334"><ele>562.5</ele><time>2026-05-03T07:54:08Z</time></trkpt><trkpt lat="37.6926942" lon="14.5332553"><ele>568.0</ele><time>2026-05-03T07:54:09Z</time></trkpt><trkpt lat="37.6928439" lon="14.5330128"><ele>572.0</ele><time>2026-05-03T07:54:10Z</time></trkpt><trkpt lat="37.692979" lon="14.5328007"><ele>576.0</ele><time>2026-05-03T07:54:11Z</time></trkpt><trkpt lat="37.6930966" lon="14.5325984"><ele>580.0</ele><time>2026-05-03T07:54:12Z</time></trkpt><trkpt lat="37.6932256" lon="14.532416"><ele>580.0</ele><time>2026-05-03T07:54:13Z</time></trkpt><trkpt lat="37.6933733" lon="14.5322748"><ele>580.0</ele><time>2026-05-03T07:54:14Z</time></trkpt><trkpt lat="37.6935362" lon="14.5321661"><ele>580.0</ele><time>2026-05-03T07:54:15Z</time></trkpt><trkpt lat="37.6937094" lon="14.5320983"><ele>582.6666666666667</ele><time>2026-05-03T07:54:16Z</time></trkpt><trkpt lat="37.69388" lon="14.5320807"><ele>585.3333333333334</ele><time>2026-05-03T07:54:17Z</time></trkpt><trkpt lat="37.6940383" lon="14.5321085"><ele>588.0</ele><time>2026-05-03T07:54:18Z</time></trkpt><trkpt lat="37.6941982" lon="14.5321552"><ele>588.0</ele><time>2026-05-03T07:54:19Z</time></trkpt><trkpt lat="37.6943588" lon="14.5322101"><ele>588.0</ele><time>2026-05-03T07:54:20Z</time></trkpt><trkpt lat="37.6945164" lon="14.5322651"><ele>588.0</ele><time>2026-05-03T07:54:21Z</time></trkpt><trkpt lat="37.6946681" lon="14.5323287"><ele>589.0</ele><time>2026-05-03T07:54:22Z</time></trkpt><trkpt lat="37.6948176" lon="14.5323894"><ele>590.0</ele><time>2026-05-03T07:54:23Z</time></trkpt><trkpt lat="37.6949628" lon="14.5324427"><ele>591.0</ele><time>2026-05-03T07:54:24Z</time></trkpt><trkpt lat="37.6951098" lon="14.5324982"><ele>589.6666666666666</ele><time>2026-05-03T07:54:25Z</time></trkpt><trkpt lat="37.6952545" lon="14.5325584"><ele>588.3333333333333</ele><time>2026-05-03T07:54:26Z</time></trkpt><trkpt lat="37.6954012" lon="14.5326365"><ele>587.0</ele><time>2026-05-03T07:54:27Z</time></trkpt><trkpt lat="37.6955306" lon="14.5327386"><ele>587.0</ele><time>2026-05-03T07:54:28Z</time></trkpt><trkpt lat="37.6956484" lon="14.5328338"><ele>587.0</ele><time>2026-05-03T07:54:29Z</time></trkpt><trkpt lat="37.6957581" lon="14.53293"><ele>587.0</ele><time>2026-05-03T07:54:30Z</time></trkpt><trkpt lat="37.6958659" lon="14.5330225"><ele>587.0</ele><time>2026-05-03T07:54:31Z</time></trkpt><trkpt lat="37.6959727" lon="14.5331111"><ele>594.0</ele><time>2026-05-03T07:54:32Z</time></trkpt><trkpt lat="37.696093" lon="14.533181"><ele>601.0</ele><time>2026-05-03T07:54:33Z</time></trkpt><trkpt lat="37.6962129" lon="14.5332073"><ele>608.0</ele><time>2026-05-03T07:54:34Z</time></trkpt><trkpt lat="37.6963337" lon="14.5331776"><ele>615.0</ele><time>2026-05-03T07:54:35Z</time></trkpt><trkpt lat="37.6964519" lon="14.5331147"><ele>615.0</ele><time>2026-05-03T07:54:36Z</time></trkpt><trkpt lat="37.6965841" lon="14.5330645"><ele>615.0</ele><time>2026-05-03T07:54:37Z</time></trkpt><trkpt lat="37.6967525" lon="14.5330555"><ele>615.0</ele><time>2026-05-03T07:54:38Z</time></trkpt><trkpt lat="37.6969084" lon="14.5330702"><ele>615.75</ele><time>2026-05-03T07:54:39Z</time></trkpt><trkpt lat="37.6970589" lon="14.5330831"><ele>616.5</ele><time>2026-05-03T07:54:40Z</time></trkpt><trkpt lat="37.6971853" lon="14.5331"><ele>617.25</ele><time>2026-05-03T07:54:41Z</time></trkpt><trkpt lat="37.6972951" lon="14.5331621"><ele>618.0</ele><time>2026-05-03T07:54:42Z</time></trkpt><trkpt lat="37.6974119" lon="14.5332533"><ele>618.0</ele><time>2026-05-03T07:54:43Z</time></trkpt><trkpt lat="37.6975359" lon="14.5333325"><ele>618.0</ele><time>2026-05-03T07:54:44Z</time></trkpt><trkpt lat="37.6976704" lon="14.5334018"><ele>618.0</ele><time>2026-05-03T07:54:45Z</time></trkpt><trkpt lat="37.697809" lon="14.5334741"><ele>618.0</ele><time>2026-05-03T07:54:46Z</time></trkpt><trkpt lat="37.6979505" lon="14.5335391"><ele>616.75</ele><time>2026-05-03T07:54:47Z</time></trkpt><trkpt lat="37.6980937" lon="14.5335863"><ele>615.5</ele><time>2026-05-03T07:54:48Z</time></trkpt><trkpt lat="37.6982378" lon="14.5336237"><ele>614.25</ele><time>2026-05-03T07:54:49Z</time></trkpt><trkpt lat="37.6983732" lon="14.5336464"><ele>613.0</ele><time>2026-05-03T07:54:50Z</time></trkpt><trkpt lat="37.6984903" lon="14.5336743"><ele>615.25</ele><time>2026-05-03T07:54:51Z</time></trkpt><trkpt lat="37.6986104" lon="14.5336978"><ele>617.5</ele><time>2026-05-03T07:54:52Z</time></trkpt><trkpt lat="37.6987234" lon="14.5337527"><ele>619.75</ele><time>2026-05-03T07:54:53Z</time></trkpt><trkpt lat="37.6988332" lon="14.5338403"><ele>622.0</ele><time>2026-05-03T07:54:54Z</time></trkpt><trkpt lat="37.6989561" lon="14.5339305"><ele>630.0</ele><time>2026-05-03T07:54:55Z</time></trkpt><trkpt lat="37.699123" lon="14.5339888"><ele>638.0</ele><time>2026-05-03T07:54:56Z</time></trkpt><trkpt lat="37.6993021" lon="14.5340269"><ele>646.0</ele><time>2026-05-03T07:54:57Z</time></trkpt><trkpt lat="37.6994828" lon="14.5340706"><ele>647.6666666666667</ele><time>2026-05-03T07:54:58Z</time></trkpt><trkpt lat="37.6996617" lon="14.5341039"><ele>649.3333333333334</ele><time>2026-05-03T07:54:59Z</time></trkpt><trkpt lat="37.699829" lon="14.534131"><ele>651.0</ele><time>2026-05-03T07:55:00Z</time></trkpt><trkpt lat="37.6999768" lon="14.5341666"><ele>651.0</ele><time>2026-05-03T07:55:01Z</time></trkpt><trkpt lat="37.7001303" lon="14.5341725"><ele>651.0</ele><time>2026-05-03T07:55:02Z</time></trkpt><trkpt lat="37.7003067" lon="14.5341147"><ele>651.0</ele><time>2026-05-03T07:55:03Z</time></trkpt><trkpt lat="37.7004937" lon="14.5340283"><ele>655.0</ele><time>2026-05-03T07:55:04Z</time></trkpt><trkpt lat="37.7006727" lon="14.5339403"><ele>659.0</ele><time>2026-05-03T07:55:05Z</time></trkpt><trkpt lat="37.7008228" lon="14.5338521"><ele>663.0</ele><time>2026-05-03T07:55:05.999Z</time></trkpt><trkpt lat="37.7009758" lon="14.5337717"><ele>663.6666666666666</ele><time>2026-05-03T07:55:07Z</time></trkpt><trkpt lat="37.7011492" lon="14.5337317"><ele>664.3333333333333</ele><time>2026-05-03T07:55:08Z</time></trkpt><trkpt lat="37.7013476" lon="14.5337207"><ele>665.0</ele><time>2026-05-03T07:55:09Z</time></trkpt><trkpt lat="37.7015642" lon="14.5336829"><ele>665.0</ele><time>2026-05-03T07:55:10Z</time></trkpt><trkpt lat="37.7017776" lon="14.533583"><ele>665.0</ele><time>2026-05-03T07:55:11Z</time></trkpt><trkpt lat="37.7019502" lon="14.5334741"><ele>665.0</ele><time>2026-05-03T07:55:12Z</time></trkpt><trkpt lat="37.7020974" lon="14.5333719"><ele>670.0</ele><time>2026-05-03T07:55:13Z</time></trkpt><trkpt lat="37.7022262" lon="14.5332656"><ele>675.0</ele><time>2026-05-03T07:55:14Z</time></trkpt><trkpt lat="37.7023145" lon="14.5331609"><ele>680.0</ele><time>2026-05-03T07:55:15Z</time></trkpt><trkpt lat="37.7024101" lon="14.5330803"><ele>685.0</ele><time>2026-05-03T07:55:16Z</time></trkpt><trkpt lat="37.7025126" lon="14.5330502"><ele>685.0</ele><time>2026-05-03T07:55:17Z</time></trkpt><trkpt lat="37.7025926" lon="14.5330561"><ele>685.0</ele><time>2026-05-03T07:55:18Z</time></trkpt><trkpt lat="37.7026664" lon="14.5330822"><ele>685.0</ele><time>2026-05-03T07:55:19Z</time></trkpt><trkpt lat="37.7027344" lon="14.5331137"><ele>685.0</ele><time>2026-05-03T07:55:20Z</time></trkpt><trkpt lat="37.7028302" lon="14.5331783"><ele>685.0</ele><time>2026-05-03T07:55:22Z</time></trkpt><trkpt lat="37.7028972" lon="14.5331954"><ele>685.0</ele><time>2026-05-03T07:55:49Z</time></trkpt><trkpt lat="37.7029879" lon="14.5332522"><ele>687.0</ele><time>2026-05-03T07:55:51Z</time></trkpt><trkpt lat="37.7030633" lon="14.5333669"><ele>689.0</ele><time>2026-05-03T07:55:53Z</time></trkpt><trkpt lat="37.7031024" lon="14.5334328"><ele>691.0</ele><time>2026-05-03T07:55:54Z</time></trkpt><trkpt lat="37.7031348" lon="14.5335118"><ele>693.0</ele><time>2026-05-03T07:55:55Z</time></trkpt><trkpt lat="37.7031758" lon="14.5335858"><ele>695.0</ele><time>2026-05-03T07:55:56Z</time></trkpt><trkpt lat="37.7032102" lon="14.5336578"><ele>697.0</ele><time>2026-05-03T07:55:57Z</time></trkpt><trkpt lat="37.703251" lon="14.5337305"><ele>697.6666666666667</ele><time>2026-05-03T07:55:58Z</time></trkpt><trkpt lat="37.7032969" lon="14.5337982"><ele>698.3333333333334</ele><time>2026-05-03T07:55:59Z</time></trkpt><trkpt lat="37.7033443" lon="14.53387"><ele>699.0</ele><time>2026-05-03T07:56:00Z</time></trkpt><trkpt lat="37.7033984" lon="14.5339356"><ele>699.6666666666666</ele><time>2026-05-03T07:56:01Z</time></trkpt><trkpt lat="37.7034511" lon="14.5339925"><ele>700.3333333333333</ele><time>2026-05-03T07:56:01.999Z</time></trkpt><trkpt lat="37.703557" lon="14.5340611"><ele>701.0</ele><time>2026-05-03T07:56:04Z</time></trkpt><trkpt lat="37.7036723" lon="14.5340649"><ele>698.1999999999999</ele><time>2026-05-03T07:56:06Z</time></trkpt><trkpt lat="37.7037798" lon="14.5340261"><ele>695.4</ele><time>2026-05-03T07:56:08Z</time></trkpt><trkpt lat="37.703879" lon="14.5340021"><ele>692.6</ele><time>2026-05-03T07:56:10Z</time></trkpt><trkpt lat="37.7039991" lon="14.5339847"><ele>689.8</ele><time>2026-05-03T07:56:12Z</time></trkpt><trkpt lat="37.7040633" lon="14.5339854"><ele>687.0</ele><time>2026-05-03T07:56:13Z</time></trkpt><trkpt lat="37.704178" lon="14.534032"><ele>687.0</ele><time>2026-05-03T07:56:15Z</time></trkpt><trkpt lat="37.7042415" lon="14.5340469"><ele>687.0</ele><time>2026-05-03T07:56:16Z</time></trkpt><trkpt lat="37.7043098" lon="14.534061"><ele>687.0</ele><time>2026-05-03T07:56:17Z</time></trkpt><trkpt lat="37.704423" lon="14.5340994"><ele>687.0</ele><time>2026-05-03T07:56:19Z</time></trkpt><trkpt lat="37.7045402" lon="14.534111"><ele>687.0</ele><time>2026-05-03T07:56:21Z</time></trkpt><trkpt lat="37.7046009" lon="14.5341353"><ele>687.0</ele><time>2026-05-03T07:56:22Z</time></trkpt><trkpt lat="37.7046613" lon="14.5341729"><ele>686.7142857142858</ele><time>2026-05-03T07:56:22.999Z</time></trkpt><trkpt lat="37.7047194" lon="14.5342087"><ele>686.4285714285713</ele><time>2026-05-03T07:56:23.999Z</time></trkpt><trkpt lat="37.7047851" lon="14.5342292"><ele>686.1428571428571</ele><time>2026-05-03T07:56:25Z</time></trkpt><trkpt lat="37.7048472" lon="14.5342585"><ele>685.8571428571429</ele><time>2026-05-03T07:56:26Z</time></trkpt><trkpt lat="37.7049132" lon="14.5342884"><ele>685.5714285714287</ele><time>2026-05-03T07:56:27Z</time></trkpt><trkpt lat="37.7049762" lon="14.5343125"><ele>685.2857142857142</ele><time>2026-05-03T07:56:28Z</time></trkpt><trkpt lat="37.7050401" lon="14.5343338"><ele>685.0</ele><time>2026-05-03T07:56:29Z</time></trkpt><trkpt lat="37.7051064" lon="14.5343669"><ele>685.0</ele><time>2026-05-03T07:56:30Z</time></trkpt><trkpt lat="37.7051706" lon="14.5343954"><ele>685.0</ele><time>2026-05-03T07:56:31Z</time></trkpt><trkpt lat="37.7052828" lon="14.5344486"><ele>685.0</ele><time>2026-05-03T07:56:33Z</time></trkpt><trkpt lat="37.7053859" lon="14.5344907"><ele>685.0</ele><time>2026-05-03T07:56:35Z</time></trkpt><trkpt lat="37.7054797" lon="14.5345202"><ele>685.0</ele><time>2026-05-03T07:56:37Z</time></trkpt><trkpt lat="37.7055553" lon="14.5345524"><ele>695.0</ele><time>2026-05-03T07:56:39Z</time></trkpt><trkpt lat="37.7056142" lon="14.5345861"><ele>675.0</ele><time>2026-05-03T07:56:43Z</time></trkpt></trkseg><trkseg><trkpt lat="37.70569" lon="14.5345629"><ele>675.0</ele><time>2026-05-03T08:34:58Z</time></trkpt><trkpt lat="37.7057626" lon="14.5345993"><ele>675.0</ele><time>2026-05-03T08:35:00Z</time></trkpt><trkpt lat="37.7058309" lon="14.5346372"><ele>675.0</ele><time>2026-05-03T08:35:02Z</time></trkpt><trkpt lat="37.705929" lon="14.5346714"><ele>675.0</ele><time>2026-05-03T08:35:04Z</time></trkpt><trkpt lat="37.7060387" lon="14.5347187"><ele>675.0</ele><time>2026-05-03T08:35:06Z</time></trkpt><trkpt lat="37.7061039" lon="14.5347344"><ele>675.0</ele><time>2026-05-03T08:35:07Z</time></trkpt><trkpt lat="37.7061692" lon="14.5347431"><ele>675.5714285714286</ele><time>2026-05-03T08:35:08Z</time></trkpt><trkpt lat="37.7062382" lon="14.5347559"><ele>676.1428571428571</ele><time>2026-05-03T08:35:09Z</time></trkpt><trkpt lat="37.7063028" lon="14.5347649"><ele>676.7142857142858</ele><time>2026-05-03T08:35:10Z</time></trkpt><trkpt lat="37.706369" lon="14.5347736"><ele>677.2857142857142</ele><time>2026-05-03T08:35:11Z</time></trkpt><trkpt lat="37.7064832" lon="14.5347876"><ele>677.8571428571429</ele><time>2026-05-03T08:35:13Z</time></trkpt><trkpt lat="37.7065464" lon="14.5347872"><ele>678.4285714285714</ele><time>2026-05-03T08:35:14Z</time></trkpt><trkpt lat="37.7066098" lon="14.5348036"><ele>679.0</ele><time>2026-05-03T08:35:15Z</time></trkpt><trkpt lat="37.706678" lon="14.5348037"><ele>679.0</ele><time>2026-05-03T08:35:16Z</time></trkpt><trkpt lat="37.706746" lon="14.5348077"><ele>679.0</ele><time>2026-05-03T08:35:17Z</time></trkpt><trkpt lat="37.7068156" lon="14.5348161"><ele>679.0</ele><time>2026-05-03T08:35:18Z</time></trkpt><trkpt lat="37.7068891" lon="14.5348257"><ele>679.0</ele><time>2026-05-03T08:35:19Z</time></trkpt><trkpt lat="37.7069534" lon="14.5348352"><ele>679.0</ele><time>2026-05-03T08:35:20Z</time></trkpt><trkpt lat="37.7070245" lon="14.534842"><ele>679.0</ele><time>2026-05-03T08:35:21Z</time></trkpt><trkpt lat="37.7071413" lon="14.5348393"><ele>677.4000000000001</ele><time>2026-05-03T08:35:23Z</time></trkpt><trkpt lat="37.707284" lon="14.5348189"><ele>675.8</ele><time>2026-05-03T08:35:25Z</time></trkpt><trkpt lat="37.7073498" lon="14.5347926"><ele>674.2</ele><time>2026-05-03T08:35:26Z</time></trkpt><trkpt lat="37.7074226" lon="14.5347686"><ele>672.5999999999999</ele><time>2026-05-03T08:35:27Z</time></trkpt><trkpt lat="37.7074962" lon="14.5346974"><ele>671.0</ele><time>2026-05-03T08:35:28Z</time></trkpt><trkpt lat="37.7075676" lon="14.5346427"><ele>671.0</ele><time>2026-05-03T08:35:29Z</time></trkpt><trkpt lat="37.7076371" lon="14.5346026"><ele>671.0</ele><time>2026-05-03T08:35:30Z</time></trkpt><trkpt lat="37.7077002" lon="14.5345484"><ele>671.0</ele><time>2026-05-03T08:35:31Z</time></trkpt><trkpt lat="37.7077715" lon="14.5345089"><ele>671.0</ele><time>2026-05-03T08:35:32Z</time></trkpt><trkpt lat="37.7078471" lon="14.5344628"><ele>671.0</ele><time>2026-05-03T08:35:33Z</time></trkpt><trkpt lat="37.7079271" lon="14.5344153"><ele>671.0</ele><time>2026-05-03T08:35:34Z</time></trkpt><trkpt lat="37.7080135" lon="14.5343691"><ele>671.0</ele><time>2026-05-03T08:35:35Z</time></trkpt><trkpt lat="37.7080928" lon="14.5343209"><ele>671.0</ele><time>2026-05-03T08:35:36Z</time></trkpt><trkpt lat="37.7081716" lon="14.5342565"><ele>671.0</ele><time>2026-05-03T08:35:37Z</time></trkpt><trkpt lat="37.7082484" lon="14.5341931"><ele>671.0</ele><time>2026-05-03T08:35:38Z</time></trkpt><trkpt lat="37.7083237" lon="14.5341307"><ele>671.0</ele><time>2026-05-03T08:35:39Z</time></trkpt><trkpt lat="37.7083971" lon="14.5340762"><ele>671.0</ele><time>2026-05-03T08:35:40Z</time></trkpt><trkpt lat="37.7084731" lon="14.534051"><ele>671.0</ele><time>2026-05-03T08:35:41Z</time></trkpt><trkpt lat="37.7085409" lon="14.5340638"><ele>671.0</ele><time>2026-05-03T08:35:42Z</time></trkpt><trkpt lat="37.7086063" lon="14.5341112"><ele>671.0</ele><time>2026-05-03T08:35:43Z</time></trkpt><trkpt lat="37.7086726" lon="14.5341698"><ele>671.0</ele><time>2026-05-03T08:35:44Z</time></trkpt><trkpt lat="37.7087397" lon="14.5342224"><ele>671.0</ele><time>2026-05-03T08:35:45Z</time></trkpt><trkpt lat="37.708794" lon="14.5342846"><ele>671.0</ele><time>2026-05-03T08:35:46Z</time></trkpt><trkpt lat="37.7088539" lon="14.5343396"><ele>672.5</ele><time>2026-05-03T08:35:47Z</time></trkpt><trkpt lat="37.7089085" lon="14.5343913"><ele>674.0</ele><time>2026-05-03T08:35:48Z</time></trkpt><trkpt lat="37.7089574" lon="14.5344461"><ele>675.5</ele><time>2026-05-03T08:35:49Z</time></trkpt><trkpt lat="37.7089949" lon="14.5345147"><ele>677.0</ele><time>2026-05-03T08:35:50Z</time></trkpt><trkpt lat="37.709029" lon="14.5345897"><ele>678.5</ele><time>2026-05-03T08:35:51Z</time></trkpt><trkpt lat="37.7091016" lon="14.5346958"><ele>680.0</ele><time>2026-05-03T08:35:53Z</time></trkpt><trkpt lat="37.7092096" lon="14.5347573"><ele>676.4</ele><time>2026-05-03T08:35:55Z</time></trkpt><trkpt lat="37.7093329" lon="14.5348199"><ele>672.8</ele><time>2026-05-03T08:35:57Z</time></trkpt><trkpt lat="37.7094014" lon="14.5348483"><ele>669.2</ele><time>2026-05-03T08:35:58Z</time></trkpt><trkpt lat="37.7094763" lon="14.5348504"><ele>665.6</ele><time>2026-05-03T08:35:59Z</time></trkpt><trkpt lat="37.7095405" lon="14.5348324"><ele>662.0</ele><time>2026-05-03T08:36:00Z</time></trkpt><trkpt lat="37.7096639" lon="14.5348078"><ele>662.0</ele><time>2026-05-03T08:36:02Z</time></trkpt><trkpt lat="37.7097149" lon="14.5348922"><ele>662.0</ele><time>2026-05-03T08:36:04Z</time></trkpt><trkpt lat="37.7097855" lon="14.5349966"><ele>662.0</ele><time>2026-05-03T08:36:06Z</time></trkpt><trkpt lat="37.7098601" lon="14.5350761"><ele>662.0</ele><time>2026-05-03T08:36:08Z</time></trkpt><trkpt lat="37.7099396" lon="14.5351594"><ele>662.0</ele><time>2026-05-03T08:36:10Z</time></trkpt><trkpt lat="37.7100195" lon="14.5352538"><ele>662.0</ele><time>2026-05-03T08:36:12Z</time></trkpt><trkpt lat="37.7100848" lon="14.5353518"><ele>662.0</ele><time>2026-05-03T08:36:14Z</time></trkpt><trkpt lat="37.7101623" lon="14.5354429"><ele>662.0</ele><time>2026-05-03T08:36:16Z</time></trkpt><trkpt lat="37.7102566" lon="14.5355136"><ele>662.0</ele><time>2026-05-03T08:36:18Z</time></trkpt><trkpt lat="37.7103561" lon="14.5355817"><ele>662.0</ele><time>2026-05-03T08:36:20Z</time></trkpt><trkpt lat="37.7104431" lon="14.5356392"><ele>660.4000000000001</ele><time>2026-05-03T08:36:22Z</time></trkpt><trkpt lat="37.7105421" lon="14.5356742"><ele>658.8000000000001</ele><time>2026-05-03T08:36:24Z</time></trkpt><trkpt lat="37.7106447" lon="14.5356871"><ele>657.2</ele><time>2026-05-03T08:36:26Z</time></trkpt><trkpt lat="37.7107543" lon="14.5356704"><ele>655.6</ele><time>2026-05-03T08:36:28Z</time></trkpt><trkpt lat="37.7108597" lon="14.5356433"><ele>654.0</ele><time>2026-05-03T08:36:30Z</time></trkpt><trkpt lat="37.7109248" lon="14.5356311"><ele>654.0</ele><time>2026-05-03T08:36:32Z</time></trkpt><trkpt lat="37.7109813" lon="14.5355736"><ele>654.0</ele><time>2026-05-03T08:36:34Z</time></trkpt><trkpt lat="37.7110338" lon="14.5355268"><ele>654.0</ele><time>2026-05-03T08:36:42Z</time></trkpt><trkpt lat="37.7111098" lon="14.5355534"><ele>654.0</ele><time>2026-05-03T08:40:43Z</time></trkpt><trkpt lat="37.7111839" lon="14.5356148"><ele>654.0</ele><time>2026-05-03T08:40:53Z</time></trkpt><trkpt lat="37.7112404" lon="14.5356603"><ele>654.0</ele><time>2026-05-03T08:40:55Z</time></trkpt><trkpt lat="37.7113011" lon="14.5357157"><ele>654.0</ele><time>2026-05-03T08:40:58Z</time></trkpt><trkpt lat="37.7113656" lon="14.5357903"><ele>654.6666666666666</ele><time>2026-05-03T08:41:01Z</time></trkpt><trkpt lat="37.7114113" lon="14.5358767"><ele>655.3333333333334</ele><time>2026-05-03T08:41:04Z</time></trkpt><trkpt lat="37.7114402" lon="14.5359653"><ele>656.0</ele><time>2026-05-03T08:41:07Z</time></trkpt><trkpt lat="37.7114464" lon="14.5360735"><ele>656.6666666666667</ele><time>2026-05-03T08:41:10Z</time></trkpt><trkpt lat="37.7114551" lon="14.5361823"><ele>657.3333333333334</ele><time>2026-05-03T08:41:13Z</time></trkpt><trkpt lat="37.7114627" lon="14.5362876"><ele>658.0</ele><time>2026-05-03T08:41:15Z</time></trkpt><trkpt lat="37.7114812" lon="14.5363984"><ele>658.0</ele><time>2026-05-03T08:41:17Z</time></trkpt><trkpt lat="37.7114962" lon="14.5365118"><ele>658.0</ele><time>2026-05-03T08:41:19Z</time></trkpt><trkpt lat="37.7115042" lon="14.5366305"><ele>658.0</ele><time>2026-05-03T08:41:21Z</time></trkpt><trkpt lat="37.711515" lon="14.5367549"><ele>658.0</ele><time>2026-05-03T08:41:23Z</time></trkpt><trkpt lat="37.711521" lon="14.5368816"><ele>658.0</ele><time>2026-05-03T08:41:25Z</time></trkpt><trkpt lat="37.7115402" lon="14.537001"><ele>656.2</ele><time>2026-05-03T08:41:27Z</time></trkpt><trkpt lat="37.7115632" lon="14.5371276"><ele>654.4</ele><time>2026-05-03T08:41:29Z</time></trkpt><trkpt lat="37.7115894" lon="14.5372388"><ele>652.6</ele><time>2026-05-03T08:41:31Z</time></trkpt><trkpt lat="37.711648" lon="14.5373307"><ele>650.8000000000001</ele><time>2026-05-03T08:41:33Z</time></trkpt><trkpt lat="37.7117242" lon="14.5374201"><ele>649.0</ele><time>2026-05-03T08:41:35Z</time></trkpt><trkpt lat="37.7117945" lon="14.5375429"><ele>649.0</ele><time>2026-05-03T08:41:37Z</time></trkpt><trkpt lat="37.7118728" lon="14.5376712"><ele>649.0</ele><time>2026-05-03T08:41:39Z</time></trkpt><trkpt lat="37.7119245" lon="14.5377187"><ele>649.0</ele><time>2026-05-03T08:41:39.999Z</time></trkpt><trkpt lat="37.711965" lon="14.5377879"><ele>649.0</ele><time>2026-05-03T08:41:41Z</time></trkpt><trkpt lat="37.7120135" lon="14.5378521"><ele>649.0</ele><time>2026-05-03T08:41:42Z</time></trkpt><trkpt lat="37.7120569" lon="14.5379229"><ele>649.0</ele><time>2026-05-03T08:41:43Z</time></trkpt><trkpt lat="37.7120989" lon="14.5379886"><ele>648.6666666666667</ele><time>2026-05-03T08:41:44Z</time></trkpt><trkpt lat="37.7121348" lon="14.5380762"><ele>648.3333333333334</ele><time>2026-05-03T08:41:45Z</time></trkpt><trkpt lat="37.7121514" lon="14.5381761"><ele>648.0</ele><time>2026-05-03T08:41:46Z</time></trkpt><trkpt lat="37.7121822" lon="14.5382617"><ele>647.6666666666666</ele><time>2026-05-03T08:41:47Z</time></trkpt><trkpt lat="37.7122536" lon="14.5383277"><ele>647.3333333333333</ele><time>2026-05-03T08:41:48Z</time></trkpt><trkpt lat="37.7123017" lon="14.5383981"><ele>647.0</ele><time>2026-05-03T08:41:49Z</time></trkpt><trkpt lat="37.7123467" lon="14.5384722"><ele>647.0</ele><time>2026-05-03T08:41:50Z</time></trkpt><trkpt lat="37.7124007" lon="14.5385185"><ele>647.0</ele><time>2026-05-03T08:41:51Z</time></trkpt><trkpt lat="37.7124716" lon="14.5385038"><ele>647.0</ele><time>2026-05-03T08:41:52Z</time></trkpt><trkpt lat="37.7125381" lon="14.5384988"><ele>647.0</ele><time>2026-05-03T08:41:53Z</time></trkpt><trkpt lat="37.7126556" lon="14.5385006"><ele>647.0</ele><time>2026-05-03T08:41:55Z</time></trkpt><trkpt lat="37.712736" lon="14.5384762"><ele>647.0</ele><time>2026-05-03T08:41:56Z</time></trkpt><trkpt lat="37.7127916" lon="14.538437"><ele>646.3333333333333</ele><time>2026-05-03T08:41:57Z</time></trkpt><trkpt lat="37.7128449" lon="14.5383821"><ele>645.6666666666666</ele><time>2026-05-03T08:41:58Z</time></trkpt><trkpt lat="37.7129023" lon="14.5383434"><ele>645.0</ele><time>2026-05-03T08:41:59Z</time></trkpt><trkpt lat="37.7130306" lon="14.5382956"><ele>644.3333333333334</ele><time>2026-05-03T08:42:01Z</time></trkpt><trkpt lat="37.7131021" lon="14.5383054"><ele>643.6666666666667</ele><time>2026-05-03T08:42:02Z</time></trkpt><trkpt lat="37.7131865" lon="14.5383063"><ele>643.0</ele><time>2026-05-03T08:42:03Z</time></trkpt><trkpt lat="37.7132574" lon="14.5383118"><ele>643.0</ele><time>2026-05-03T08:42:04Z</time></trkpt><trkpt lat="37.7133347" lon="14.538314"><ele>643.0</ele><time>2026-05-03T08:42:05Z</time></trkpt><trkpt lat="37.7134115" lon="14.538334"><ele>643.0</ele><time>2026-05-03T08:42:06Z</time></trkpt><trkpt lat="37.7134835" lon="14.5383701"><ele>643.0</ele><time>2026-05-03T08:42:07Z</time></trkpt><trkpt lat="37.7135539" lon="14.5383963"><ele>643.0</ele><time>2026-05-03T08:42:08Z</time></trkpt><trkpt lat="37.7136361" lon="14.5384394"><ele>643.0</ele><time>2026-05-03T08:42:09Z</time></trkpt><trkpt lat="37.713716" lon="14.5384777"><ele>643.5</ele><time>2026-05-03T08:42:10Z</time></trkpt><trkpt lat="37.7137916" lon="14.5385099"><ele>644.0</ele><time>2026-05-03T08:42:11Z</time></trkpt><trkpt lat="37.7138746" lon="14.5385284"><ele>644.5</ele><time>2026-05-03T08:42:12Z</time></trkpt><trkpt lat="37.7139696" lon="14.5385387"><ele>645.0</ele><time>2026-05-03T08:42:13Z</time></trkpt><trkpt lat="37.7140564" lon="14.5385503"><ele>645.5</ele><time>2026-05-03T08:42:14Z</time></trkpt><trkpt lat="37.7141451" lon="14.538539"><ele>646.0</ele><time>2026-05-03T08:42:15Z</time></trkpt><trkpt lat="37.7142279" lon="14.5385263"><ele>646.0</ele><time>2026-05-03T08:42:16Z</time></trkpt><trkpt lat="37.7143145" lon="14.5384907"><ele>646.0</ele><time>2026-05-03T08:42:17Z</time></trkpt><trkpt lat="37.7143898" lon="14.5384499"><ele>646.0</ele><time>2026-05-03T08:42:18Z</time></trkpt><trkpt lat="37.7144571" lon="14.5383926"><ele>646.0</ele><time>2026-05-03T08:42:19Z</time></trkpt><trkpt lat="37.7145111" lon="14.5383165"><ele>646.0</ele><time>2026-05-03T08:42:20Z</time></trkpt><trkpt lat="37.7145438" lon="14.5382239"><ele>646.0</ele><time>2026-05-03T08:42:21Z</time></trkpt><trkpt lat="37.7145625" lon="14.5381179"><ele>643.4</ele><time>2026-05-03T08:42:22Z</time></trkpt><trkpt lat="37.7145701" lon="14.5380125"><ele>640.8</ele><time>2026-05-03T08:42:23Z</time></trkpt><trkpt lat="37.7145806" lon="14.5379084"><ele>638.1999999999999</ele><time>2026-05-03T08:42:24Z</time></trkpt><trkpt lat="37.714586" lon="14.5377903"><ele>635.5999999999999</ele><time>2026-05-03T08:42:25Z</time></trkpt><trkpt lat="37.7145973" lon="14.5376682"><ele>633.0</ele><time>2026-05-03T08:42:26Z</time></trkpt><trkpt lat="37.7146103" lon="14.5375409"><ele>633.0</ele><time>2026-05-03T08:42:27Z</time></trkpt><trkpt lat="37.7146153" lon="14.5374137"><ele>633.0</ele><time>2026-05-03T08:42:28Z</time></trkpt><trkpt lat="37.7146235" lon="14.5372858"><ele>633.0</ele><time>2026-05-03T08:42:29Z</time></trkpt><trkpt lat="37.7146363" lon="14.5371689"><ele>633.0</ele><time>2026-05-03T08:42:30Z</time></trkpt><trkpt lat="37.7146589" lon="14.5370672"><ele>633.0</ele><time>2026-05-03T08:42:31Z</time></trkpt><trkpt lat="37.7147057" lon="14.5369859"><ele>634.1666666666666</ele><time>2026-05-03T08:42:32Z</time></trkpt><trkpt lat="37.7147704" lon="14.5369291"><ele>635.3333333333334</ele><time>2026-05-03T08:42:33Z</time></trkpt><trkpt lat="37.7148342" lon="14.5368799"><ele>636.5</ele><time>2026-05-03T08:42:34Z</time></trkpt><trkpt lat="37.7148878" lon="14.5368275"><ele>637.6666666666667</ele><time>2026-05-03T08:42:35Z</time></trkpt><trkpt lat="37.714927" lon="14.5367581"><ele>638.8333333333334</ele><time>2026-05-03T08:42:36Z</time></trkpt><trkpt lat="37.7149546" lon="14.5366001"><ele>640.0</ele><time>2026-05-03T08:42:38Z</time></trkpt><trkpt lat="37.7149843" lon="14.5365205"><ele>640.0</ele><time>2026-05-03T08:42:39Z</time></trkpt><trkpt lat="37.7150331" lon="14.5364461"><ele>640.0</ele><time>2026-05-03T08:42:40Z</time></trkpt><trkpt lat="37.7150938" lon="14.5363711"><ele>640.0</ele><time>2026-05-03T08:42:41Z</time></trkpt><trkpt lat="37.7151627" lon="14.5362913"><ele>640.0</ele><time>2026-05-03T08:42:42Z</time></trkpt><trkpt lat="37.7152319" lon="14.5362228"><ele>640.0</ele><time>2026-05-03T08:42:43Z</time></trkpt><trkpt lat="37.7153043" lon="14.5361552"><ele>640.0</ele><time>2026-05-03T08:42:44Z</time></trkpt><trkpt lat="37.7153703" lon="14.5361065"><ele>640.6666666666667</ele><time>2026-05-03T08:42:45Z</time></trkpt><trkpt lat="37.7154501" lon="14.5360485"><ele>641.3333333333334</ele><time>2026-05-03T08:42:47Z</time></trkpt><trkpt lat="37.7155324" lon="14.5359166"><ele>642.0</ele><time>2026-05-03T08:43:04Z</time></trkpt><trkpt lat="37.7155919" lon="14.5358704"><ele>642.6666666666666</ele><time>2026-05-03T08:43:05Z</time></trkpt><trkpt lat="37.7156425" lon="14.5358114"><ele>643.3333333333333</ele><time>2026-05-03T08:43:06Z</time></trkpt><trkpt lat="37.7156987" lon="14.5357462"><ele>644.0</ele><time>2026-05-03T08:43:07Z</time></trkpt><trkpt lat="37.7157678" lon="14.535672"><ele>644.0</ele><time>2026-05-03T08:43:08Z</time></trkpt><trkpt lat="37.7158288" lon="14.5355985"><ele>644.0</ele><time>2026-05-03T08:43:09Z</time></trkpt><trkpt lat="37.7158963" lon="14.5355259"><ele>644.0</ele><time>2026-05-03T08:43:10Z</time></trkpt><trkpt lat="37.7159552" lon="14.5354526"><ele>644.0</ele><time>2026-05-03T08:43:10.999Z</time></trkpt><trkpt lat="37.7160144" lon="14.5353671"><ele>644.0</ele><time>2026-05-03T08:43:12Z</time></trkpt><trkpt lat="37.7160742" lon="14.5352752"><ele>644.0</ele><time>2026-05-03T08:43:13Z</time></trkpt><trkpt lat="37.7161343" lon="14.5351786"><ele>645.2</ele><time>2026-05-03T08:43:14Z</time></trkpt><trkpt lat="37.7161727" lon="14.5350668"><ele>646.4000000000001</ele><time>2026-05-03T08:43:15Z</time></trkpt><trkpt lat="37.7161883" lon="14.5349506"><ele>647.6</ele><time>2026-05-03T08:43:16Z</time></trkpt><trkpt lat="37.716185" lon="14.5348294"><ele>648.8</ele><time>2026-05-03T08:43:17Z</time></trkpt><trkpt lat="37.716161" lon="14.534712"><ele>650.0</ele><time>2026-05-03T08:43:18Z</time></trkpt><trkpt lat="37.7161286" lon="14.5345982"><ele>652.2</ele><time>2026-05-03T08:43:19Z</time></trkpt><trkpt lat="37.7161092" lon="14.5344745"><ele>654.4</ele><time>2026-05-03T08:43:20Z</time></trkpt><trkpt lat="37.7161082" lon="14.5343477"><ele>656.5999999999999</ele><time>2026-05-03T08:43:21Z</time></trkpt><trkpt lat="37.7161426" lon="14.5342196"><ele>658.8</ele><time>2026-05-03T08:43:22Z</time></trkpt><trkpt lat="37.7161905" lon="14.5340956"><ele>661.0</ele><time>2026-05-03T08:43:23Z</time></trkpt><trkpt lat="37.7162439" lon="14.5339629"><ele>661.0</ele><time>2026-05-03T08:43:24Z</time></trkpt><trkpt lat="37.7163091" lon="14.5338336"><ele>661.0</ele><time>2026-05-03T08:43:25Z</time></trkpt><trkpt lat="37.7163871" lon="14.5337278"><ele>661.0</ele><time>2026-05-03T08:43:26Z</time></trkpt><trkpt lat="37.7164907" lon="14.5336434"><ele>661.0</ele><time>2026-05-03T08:43:27Z</time></trkpt><trkpt lat="37.716608" lon="14.5335903"><ele>662.75</ele><time>2026-05-03T08:43:28Z</time></trkpt><trkpt lat="37.7167384" lon="14.5335543"><ele>664.5</ele><time>2026-05-03T08:43:29Z</time></trkpt><trkpt lat="37.7168817" lon="14.5335353"><ele>666.25</ele><time>2026-05-03T08:43:30Z</time></trkpt><trkpt lat="37.7170255" lon="14.533509"><ele>668.0</ele><time>2026-05-03T08:43:31Z</time></trkpt><trkpt lat="37.7171737" lon="14.5335098"><ele>668.5</ele><time>2026-05-03T08:43:32Z</time></trkpt><trkpt lat="37.7173117" lon="14.5335591"><ele>669.0</ele><time>2026-05-03T08:43:33Z</time></trkpt><trkpt lat="37.7174448" lon="14.5336304"><ele>669.5</ele><time>2026-05-03T08:43:34Z</time></trkpt><trkpt lat="37.7175782" lon="14.5337165"><ele>670.0</ele><time>2026-05-03T08:43:35Z</time></trkpt><trkpt lat="37.7177155" lon="14.5338088"><ele>673.6666666666667</ele><time>2026-05-03T08:43:36Z</time></trkpt><trkpt lat="37.7178574" lon="14.5338966"><ele>677.3333333333334</ele><time>2026-05-03T08:43:37Z</time></trkpt><trkpt lat="37.7179936" lon="14.5339757"><ele>681.0</ele><time>2026-05-03T08:43:38Z</time></trkpt><trkpt lat="37.7181308" lon="14.5340474"><ele>681.0</ele><time>2026-05-03T08:43:39Z</time></trkpt><trkpt lat="37.7182787" lon="14.5341014"><ele>681.0</ele><time>2026-05-03T08:43:40Z</time></trkpt><trkpt lat="37.7184321" lon="14.5341343"><ele>681.0</ele><time>2026-05-03T08:43:41Z</time></trkpt><trkpt lat="37.7185852" lon="14.5341569"><ele>681.0</ele><time>2026-05-03T08:43:42Z</time></trkpt><trkpt lat="37.718743" lon="14.5341748"><ele>681.0</ele><time>2026-05-03T08:43:43Z</time></trkpt><trkpt lat="37.7189013" lon="14.5341879"><ele>681.0</ele><time>2026-05-03T08:43:44Z</time></trkpt><trkpt lat="37.7190631" lon="14.5342051"><ele>681.0</ele><time>2026-05-03T08:43:45Z</time></trkpt><trkpt lat="37.7192139" lon="14.5342231"><ele>681.0</ele><time>2026-05-03T08:43:46Z</time></trkpt><trkpt lat="37.7193673" lon="14.5342319"><ele>681.0</ele><time>2026-05-03T08:43:46.999Z</time></trkpt><trkpt lat="37.7195127" lon="14.5342548"><ele>681.6666666666666</ele><time>2026-05-03T08:43:48Z</time></trkpt><trkpt lat="37.7196632" lon="14.5342754"><ele>682.3333333333333</ele><time>2026-05-03T08:43:49Z</time></trkpt><trkpt lat="37.7198189" lon="14.534285"><ele>683.0</ele><time>2026-05-03T08:43:50Z</time></trkpt><trkpt lat="37.719967" lon="14.5342712"><ele>683.0</ele><time>2026-05-03T08:43:51Z</time></trkpt><trkpt lat="37.7201186" lon="14.5342355"><ele>683.0</ele><time>2026-05-03T08:43:52Z</time></trkpt><trkpt lat="37.7202667" lon="14.5341689"><ele>683.0</ele><time>2026-05-03T08:43:53Z</time></trkpt><trkpt lat="37.7204079" lon="14.5340952"><ele>684.25</ele><time>2026-05-03T08:43:54Z</time></trkpt><trkpt lat="37.720547" lon="14.534016"><ele>685.5</ele><time>2026-05-03T08:43:55Z</time></trkpt><trkpt lat="37.7206722" lon="14.53396"><ele>686.75</ele><time>2026-05-03T08:43:56Z</time></trkpt><trkpt lat="37.7207862" lon="14.5339364"><ele>688.0</ele><time>2026-05-03T08:43:57Z</time></trkpt><trkpt lat="37.7209216" lon="14.5339402"><ele>691.3333333333334</ele><time>2026-05-03T08:43:58Z</time></trkpt><trkpt lat="37.7210694" lon="14.5339847"><ele>694.6666666666666</ele><time>2026-05-03T08:43:58.999Z</time></trkpt><trkpt lat="37.721223" lon="14.5340465"><ele>698.0</ele><time>2026-05-03T08:44:00Z</time></trkpt><trkpt lat="37.7213815" lon="14.5341087"><ele>698.0</ele><time>2026-05-03T08:44:01Z</time></trkpt><trkpt lat="37.7215229" lon="14.5341815"><ele>698.0</ele><time>2026-05-03T08:44:02Z</time></trkpt><trkpt lat="37.7216361" lon="14.5343013"><ele>698.0</ele><time>2026-05-03T08:44:03Z</time></trkpt><trkpt lat="37.7217301" lon="14.5344546"><ele>698.75</ele><time>2026-05-03T08:44:04Z</time></trkpt><trkpt lat="37.721816" lon="14.5345813"><ele>699.5</ele><time>2026-05-03T08:44:05Z</time></trkpt><trkpt lat="37.721901" lon="14.5346916"><ele>700.25</ele><time>2026-05-03T08:44:06Z</time></trkpt><trkpt lat="37.7219908" lon="14.5347779"><ele>701.0</ele><time>2026-05-03T08:44:07Z</time></trkpt><trkpt lat="37.7220983" lon="14.5348258"><ele>701.0</ele><time>2026-05-03T08:44:08Z</time></trkpt><trkpt lat="37.7222127" lon="14.534829"><ele>701.0</ele><time>2026-05-03T08:44:09Z</time></trkpt><trkpt lat="37.7223399" lon="14.534791"><ele>701.0</ele><time>2026-05-03T08:44:10Z</time></trkpt><trkpt lat="37.7224893" lon="14.5347071"><ele>701.0</ele><time>2026-05-03T08:44:11Z</time></trkpt><trkpt lat="37.7226667" lon="14.5346017"><ele>704.0</ele><time>2026-05-03T08:44:12Z</time></trkpt><trkpt lat="37.7228469" lon="14.5345054"><ele>707.0</ele><time>2026-05-03T08:44:13Z</time></trkpt><trkpt lat="37.7230097" lon="14.5344085"><ele>710.0</ele><time>2026-05-03T08:44:14Z</time></trkpt><trkpt lat="37.7231719" lon="14.5343298"><ele>710.0</ele><time>2026-05-03T08:44:15Z</time></trkpt><trkpt lat="37.7233252" lon="14.5342857"><ele>710.0</ele><time>2026-05-03T08:44:16Z</time></trkpt><trkpt lat="37.7234882" lon="14.5342801"><ele>710.0</ele><time>2026-05-03T08:44:17Z</time></trkpt><trkpt lat="37.7236649" lon="14.5342935"><ele>711.3333333333333</ele><time>2026-05-03T08:44:18Z</time></trkpt><trkpt lat="37.7238398" lon="14.534326"><ele>712.6666666666666</ele><time>2026-05-03T08:44:19Z</time></trkpt><trkpt lat="37.7240143" lon="14.5343559"><ele>714.0</ele><time>2026-05-03T08:44:20Z</time></trkpt><trkpt lat="37.7241926" lon="14.5343938"><ele>714.0</ele><time>2026-05-03T08:44:21Z</time></trkpt><trkpt lat="37.7243741" lon="14.5344298"><ele>714.0</ele><time>2026-05-03T08:44:22Z</time></trkpt><trkpt lat="37.7245501" lon="14.5344821"><ele>714.0</ele><time>2026-05-03T08:44:23Z</time></trkpt><trkpt lat="37.7247195" lon="14.5345408"><ele>711.3333333333334</ele><time>2026-05-03T08:44:24Z</time></trkpt><trkpt lat="37.7248776" lon="14.534593"><ele>708.6666666666667</ele><time>2026-05-03T08:44:25Z</time></trkpt><trkpt lat="37.7250447" lon="14.5346189"><ele>706.0</ele><time>2026-05-03T08:44:26Z</time></trkpt><trkpt lat="37.7252262" lon="14.5345873"><ele>711.3333333333334</ele><time>2026-05-03T08:44:27Z</time></trkpt><trkpt lat="37.7253982" lon="14.5345273"><ele>716.6666666666666</ele><time>2026-05-03T08:44:28Z</time></trkpt><trkpt lat="37.7255724" lon="14.5344682"><ele>722.0</ele><time>2026-05-03T08:44:29Z</time></trkpt><trkpt lat="37.7257554" lon="14.5344531"><ele>722.0</ele><time>2026-05-03T08:44:30Z</time></trkpt><trkpt lat="37.7259464" lon="14.5344584"><ele>722.0</ele><time>2026-05-03T08:44:31Z</time></trkpt><trkpt lat="37.7261354" lon="14.5344744"><ele>722.0</ele><time>2026-05-03T08:44:32Z</time></trkpt><trkpt lat="37.7263331" lon="14.534495"><ele>723.0</ele><time>2026-05-03T08:44:33Z</time></trkpt><trkpt lat="37.7265287" lon="14.53452"><ele>724.0</ele><time>2026-05-03T08:44:34Z</time></trkpt><trkpt lat="37.7267242" lon="14.5345435"><ele>725.0</ele><time>2026-05-03T08:44:35Z</time></trkpt><trkpt lat="37.7269091" lon="14.5345664"><ele>719.6666666666666</ele><time>2026-05-03T08:44:36Z</time></trkpt><trkpt lat="37.7270843" lon="14.5345953"><ele>714.3333333333334</ele><time>2026-05-03T08:44:37Z</time></trkpt><trkpt lat="37.7272554" lon="14.5346147"><ele>709.0</ele><time>2026-05-03T08:44:38Z</time></trkpt><trkpt lat="37.7274271" lon="14.534613"><ele>709.0</ele><time>2026-05-03T08:44:39Z</time></trkpt><trkpt lat="37.7276034" lon="14.5345637"><ele>709.0</ele><time>2026-05-03T08:44:40Z</time></trkpt><trkpt lat="37.7277693" lon="14.5344747"><ele>709.0</ele><time>2026-05-03T08:44:41Z</time></trkpt><trkpt lat="37.7279218" lon="14.5343949"><ele>713.0</ele><time>2026-05-03T08:44:42Z</time></trkpt><trkpt lat="37.7280722" lon="14.5343446"><ele>717.0</ele><time>2026-05-03T08:44:43Z</time></trkpt><trkpt lat="37.7282407" lon="14.5343291"><ele>721.0</ele><time>2026-05-03T08:44:44Z</time></trkpt><trkpt lat="37.7284267" lon="14.5343343"><ele>721.0</ele><time>2026-05-03T08:44:45Z</time></trkpt><trkpt lat="37.7286265" lon="14.534348"><ele>721.0</ele><time>2026-05-03T08:44:46Z</time></trkpt><trkpt lat="37.7288286" lon="14.534366"><ele>721.0</ele><time>2026-05-03T08:44:47Z</time></trkpt><trkpt lat="37.7290123" lon="14.5343874"><ele>721.0</ele><time>2026-05-03T08:44:48Z</time></trkpt><trkpt lat="37.7291907" lon="14.5344063"><ele>721.0</ele><time>2026-05-03T08:44:49Z</time></trkpt><trkpt lat="37.7293664" lon="14.5344018"><ele>721.0</ele><time>2026-05-03T08:44:50Z</time></trkpt><trkpt lat="37.7295388" lon="14.5343543"><ele>718.3333333333334</ele><time>2026-05-03T08:44:51Z</time></trkpt><trkpt lat="37.7297115" lon="14.5342784"><ele>715.6666666666666</ele><time>2026-05-03T08:44:52Z</time></trkpt><trkpt lat="37.72988" lon="14.5341888"><ele>713.0</ele><time>2026-05-03T08:44:53Z</time></trkpt><trkpt lat="37.7300566" lon="14.5341021"><ele>713.3333333333333</ele><time>2026-05-03T08:44:54Z</time></trkpt><trkpt lat="37.7302333" lon="14.5340043"><ele>713.6666666666666</ele><time>2026-05-03T08:44:55Z</time></trkpt><trkpt lat="37.7303997" lon="14.5338748"><ele>714.0</ele><time>2026-05-03T08:44:56Z</time></trkpt><trkpt lat="37.7305517" lon="14.5337105"><ele>714.0</ele><time>2026-05-03T08:44:57Z</time></trkpt><trkpt lat="37.7307004" lon="14.5335345"><ele>714.0</ele><time>2026-05-03T08:44:58Z</time></trkpt><trkpt lat="37.7308526" lon="14.5333461"><ele>714.0</ele><time>2026-05-03T08:44:59Z</time></trkpt><trkpt lat="37.7310148" lon="14.5331733"><ele>713.6666666666666</ele><time>2026-05-03T08:45:00Z</time></trkpt><trkpt lat="37.7311705" lon="14.5330187"><ele>713.3333333333333</ele><time>2026-05-03T08:45:01Z</time></trkpt><trkpt lat="37.7313231" lon="14.5328834"><ele>713.0</ele><time>2026-05-03T08:45:02Z</time></trkpt><trkpt lat="37.7314571" lon="14.5327447"><ele>713.0</ele><time>2026-05-03T08:45:03Z</time></trkpt><trkpt lat="37.7315682" lon="14.5325762"><ele>713.0</ele><time>2026-05-03T08:45:04Z</time></trkpt><trkpt lat="37.731658" lon="14.5323778"><ele>713.0</ele><time>2026-05-03T08:45:05Z</time></trkpt><trkpt lat="37.7317474" lon="14.5321821"><ele>713.6666666666666</ele><time>2026-05-03T08:45:06Z</time></trkpt><trkpt lat="37.7318376" lon="14.5320064"><ele>714.3333333333334</ele><time>2026-05-03T08:45:07Z</time></trkpt><trkpt lat="37.7319459" lon="14.5318672"><ele>715.0</ele><time>2026-05-03T08:45:08Z</time></trkpt><trkpt lat="37.7320726" lon="14.5317723"><ele>715.0</ele><time>2026-05-03T08:45:09Z</time></trkpt><trkpt lat="37.7322089" lon="14.5317148"><ele>715.0</ele><time>2026-05-03T08:45:10Z</time></trkpt><trkpt lat="37.732349" lon="14.5317073"><ele>715.0</ele><time>2026-05-03T08:45:11Z</time></trkpt><trkpt lat="37.7324906" lon="14.531743"><ele>715.0</ele><time>2026-05-03T08:45:12Z</time></trkpt><trkpt lat="37.7326337" lon="14.5318149"><ele>715.6666666666667</ele><time>2026-05-03T08:45:13Z</time></trkpt><trkpt lat="37.7327722" lon="14.5319148"><ele>716.3333333333334</ele><time>2026-05-03T08:45:14Z</time></trkpt><trkpt lat="37.7329224" lon="14.5319902"><ele>717.0</ele><time>2026-05-03T08:45:15Z</time></trkpt><trkpt lat="37.7330963" lon="14.5320232"><ele>717.0</ele><time>2026-05-03T08:45:16Z</time></trkpt><trkpt lat="37.7332911" lon="14.5319978"><ele>717.0</ele><time>2026-05-03T08:45:17Z</time></trkpt><trkpt lat="37.7334648" lon="14.5319634"><ele>717.0</ele><time>2026-05-03T08:45:18Z</time></trkpt><trkpt lat="37.7336202" lon="14.5319553"><ele>717.5</ele><time>2026-05-03T08:45:19Z</time></trkpt><trkpt lat="37.7337652" lon="14.5319709"><ele>718.0</ele><time>2026-05-03T08:45:20Z</time></trkpt><trkpt lat="37.7338985" lon="14.5320151"><ele>718.5</ele><time>2026-05-03T08:45:21Z</time></trkpt><trkpt lat="37.7340263" lon="14.5320991"><ele>719.0</ele><time>2026-05-03T08:45:22Z</time></trkpt><trkpt lat="37.7341466" lon="14.5322122"><ele>715.0</ele><time>2026-05-03T08:45:23Z</time></trkpt><trkpt lat="37.7342847" lon="14.532328"><ele>711.0</ele><time>2026-05-03T08:45:24Z</time></trkpt><trkpt lat="37.7344146" lon="14.5324355"><ele>707.0</ele><time>2026-05-03T08:45:25Z</time></trkpt><trkpt lat="37.7345447" lon="14.5325288"><ele>707.0</ele><time>2026-05-03T08:45:26Z</time></trkpt><trkpt lat="37.7346815" lon="14.5325851"><ele>707.0</ele><time>2026-05-03T08:45:27Z</time></trkpt><trkpt lat="37.7348189" lon="14.5325959"><ele>707.0</ele><time>2026-05-03T08:45:28Z</time></trkpt><trkpt lat="37.7349558" lon="14.5325598"><ele>707.0</ele><time>2026-05-03T08:45:29Z</time></trkpt><trkpt lat="37.7350813" lon="14.5324701"><ele>707.0</ele><time>2026-05-03T08:45:30Z</time></trkpt><trkpt lat="37.7351886" lon="14.5323255"><ele>707.0</ele><time>2026-05-03T08:45:31Z</time></trkpt><trkpt lat="37.7352931" lon="14.5321448"><ele>707.0</ele><time>2026-05-03T08:45:32Z</time></trkpt><trkpt lat="37.735405" lon="14.5319494"><ele>705.6666666666666</ele><time>2026-05-03T08:45:33Z</time></trkpt><trkpt lat="37.7355302" lon="14.5317496"><ele>704.3333333333334</ele><time>2026-05-03T08:45:34Z</time></trkpt><trkpt lat="37.735693" lon="14.5315515"><ele>703.0</ele><time>2026-05-03T08:45:35Z</time></trkpt><trkpt lat="37.735873" lon="14.5313752"><ele>702.0</ele><time>2026-05-03T08:45:36Z</time></trkpt><trkpt lat="37.7360558" lon="14.5312261"><ele>701.0</ele><time>2026-05-03T08:45:37Z</time></trkpt><trkpt lat="37.7362322" lon="14.5310774"><ele>700.0</ele><time>2026-05-03T08:45:38Z</time></trkpt><trkpt lat="37.7364042" lon="14.5309404"><ele>700.0</ele><time>2026-05-03T08:45:39Z</time></trkpt><trkpt lat="37.7365797" lon="14.5308215"><ele>700.0</ele><time>2026-05-03T08:45:40Z</time></trkpt><trkpt lat="37.7367681" lon="14.5307314"><ele>700.0</ele><time>2026-05-03T08:45:41Z</time></trkpt><trkpt lat="37.7369598" lon="14.5306535"><ele>697.6666666666667</ele><time>2026-05-03T08:45:42Z</time></trkpt><trkpt lat="37.7371501" lon="14.5305829"><ele>695.3333333333334</ele><time>2026-05-03T08:45:43Z</time></trkpt><trkpt lat="37.7373218" lon="14.5305195"><ele>693.0</ele><time>2026-05-03T08:45:44Z</time></trkpt><trkpt lat="37.7374839" lon="14.5304685"><ele>693.0</ele><time>2026-05-03T08:45:45Z</time></trkpt><trkpt lat="37.7376471" lon="14.5304432"><ele>693.0</ele><time>2026-05-03T08:45:46Z</time></trkpt><trkpt lat="37.7378126" lon="14.5304607"><ele>693.0</ele><time>2026-05-03T08:45:47Z</time></trkpt><trkpt lat="37.7379774" lon="14.5305146"><ele>694.0</ele><time>2026-05-03T08:45:48Z</time></trkpt><trkpt lat="37.738137" lon="14.5305817"><ele>695.0</ele><time>2026-05-03T08:45:49Z</time></trkpt><trkpt lat="37.738286" lon="14.530658"><ele>696.0</ele><time>2026-05-03T08:45:50Z</time></trkpt><trkpt lat="37.7384251" lon="14.5307343"><ele>700.0</ele><time>2026-05-03T08:45:51Z</time></trkpt><trkpt lat="37.7385557" lon="14.530833"><ele>704.0</ele><time>2026-05-03T08:45:52Z</time></trkpt><trkpt lat="37.7386723" lon="14.5309503"><ele>708.0</ele><time>2026-05-03T08:45:53Z</time></trkpt><trkpt lat="37.7387707" lon="14.5310925"><ele>710.0</ele><time>2026-05-03T08:45:54Z</time></trkpt><trkpt lat="37.7388572" lon="14.5312627"><ele>712.0</ele><time>2026-05-03T08:45:55Z</time></trkpt><trkpt lat="37.7389338" lon="14.5314406"><ele>714.0</ele><time>2026-05-03T08:45:56Z</time></trkpt><trkpt lat="37.7390144" lon="14.5316151"><ele>714.0</ele><time>2026-05-03T08:45:57Z</time></trkpt><trkpt lat="37.7390936" lon="14.5317807"><ele>714.0</ele><time>2026-05-03T08:45:58Z</time></trkpt><trkpt lat="37.7391668" lon="14.5319419"><ele>714.0</ele><time>2026-05-03T08:45:59Z</time></trkpt><trkpt lat="37.7392485" lon="14.5321056"><ele>715.6666666666666</ele><time>2026-05-03T08:46:00Z</time></trkpt><trkpt lat="37.7393417" lon="14.532262"><ele>717.3333333333333</ele><time>2026-05-03T08:46:01Z</time></trkpt><trkpt lat="37.7394481" lon="14.5324014"><ele>719.0</ele><time>2026-05-03T08:46:02Z</time></trkpt><trkpt lat="37.7395554" lon="14.5325239"><ele>719.0</ele><time>2026-05-03T08:46:03Z</time></trkpt><trkpt lat="37.7396717" lon="14.5326529"><ele>719.0</ele><time>2026-05-03T08:46:03.999Z</time></trkpt><trkpt lat="37.739776" lon="14.5327768"><ele>719.0</ele><time>2026-05-03T08:46:05Z</time></trkpt><trkpt lat="37.7398813" lon="14.5329042"><ele>719.0</ele><time>2026-05-03T08:46:06Z</time></trkpt><trkpt lat="37.7399917" lon="14.5330246"><ele>716.6666666666666</ele><time>2026-05-03T08:46:07Z</time></trkpt><trkpt lat="37.7401259" lon="14.533132"><ele>714.3333333333334</ele><time>2026-05-03T08:46:08Z</time></trkpt><trkpt lat="37.7403075" lon="14.5332339"><ele>712.0</ele><time>2026-05-03T08:46:09Z</time></trkpt><trkpt lat="37.7405118" lon="14.5333584"><ele>721.0</ele><time>2026-05-03T08:46:10Z</time></trkpt><trkpt lat="37.7407097" lon="14.5335193"><ele>730.0</ele><time>2026-05-03T08:46:11Z</time></trkpt><trkpt lat="37.7408992" lon="14.5336727"><ele>729.6666666666667</ele><time>2026-05-03T08:46:12Z</time></trkpt><trkpt lat="37.7410783" lon="14.5338248"><ele>729.3333333333334</ele><time>2026-05-03T08:46:13Z</time></trkpt><trkpt lat="37.7412578" lon="14.5339789"><ele>729.0</ele><time>2026-05-03T08:46:14Z</time></trkpt><trkpt lat="37.7414731" lon="14.5340985"><ele>729.0</ele><time>2026-05-03T08:46:15Z</time></trkpt><trkpt lat="37.7417042" lon="14.5342194"><ele>729.0</ele><time>2026-05-03T08:46:16Z</time></trkpt><trkpt lat="37.7419166" lon="14.5343293"><ele>730.0</ele><time>2026-05-03T08:46:17Z</time></trkpt><trkpt lat="37.7421191" lon="14.5344182"><ele>731.0</ele><time>2026-05-03T08:46:18Z</time></trkpt><trkpt lat="37.7423267" lon="14.5344856"><ele>732.0</ele><time>2026-05-03T08:46:19Z</time></trkpt><trkpt lat="37.7425413" lon="14.5345235"><ele>736.5</ele><time>2026-05-03T08:46:20Z</time></trkpt><trkpt lat="37.7427655" lon="14.5345501"><ele>741.0</ele><time>2026-05-03T08:46:21Z</time></trkpt><trkpt lat="37.7430013" lon="14.5345749"><ele>746.5</ele><time>2026-05-03T08:46:22Z</time></trkpt><trkpt lat="37.7432321" lon="14.5345936"><ele>752.0</ele><time>2026-05-03T08:46:23Z</time></trkpt><trkpt lat="37.7434501" lon="14.5346184"><ele>755.6666666666666</ele><time>2026-05-03T08:46:24Z</time></trkpt><trkpt lat="37.7436366" lon="14.5346634"><ele>759.3333333333334</ele><time>2026-05-03T08:46:25Z</time></trkpt><trkpt lat="37.7438301" lon="14.5347608"><ele>763.0</ele><time>2026-05-03T08:46:26Z</time></trkpt><trkpt lat="37.7440227" lon="14.5349148"><ele>763.0</ele><time>2026-05-03T08:46:27Z</time></trkpt><trkpt lat="37.7442044" lon="14.5351036"><ele>763.0</ele><time>2026-05-03T08:46:28Z</time></trkpt><trkpt lat="37.7443981" lon="14.5353047"><ele>771.0</ele><time>2026-05-03T08:46:29Z</time></trkpt><trkpt lat="37.7445816" lon="14.5354991"><ele>779.0</ele><time>2026-05-03T08:46:30Z</time></trkpt><trkpt lat="37.7447597" lon="14.5356839"><ele>779.0</ele><time>2026-05-03T08:46:31Z</time></trkpt><trkpt lat="37.7449199" lon="14.535854"><ele>779.0</ele><time>2026-05-03T08:46:32Z</time></trkpt><trkpt lat="37.7450705" lon="14.5360446"><ele>779.0</ele><time>2026-05-03T08:46:33Z</time></trkpt><trkpt lat="37.7452072" lon="14.536279"><ele>779.3333333333334</ele><time>2026-05-03T08:46:34Z</time></trkpt><trkpt lat="37.7453241" lon="14.5364892"><ele>779.6666666666667</ele><time>2026-05-03T08:46:35Z</time></trkpt><trkpt lat="37.74543" lon="14.536687"><ele>780.0</ele><time>2026-05-03T08:46:36Z</time></trkpt><trkpt lat="37.7455365" lon="14.5368527"><ele>780.0</ele><time>2026-05-03T08:46:37Z</time></trkpt><trkpt lat="37.7456784" lon="14.5369877"><ele>780.0</ele><time>2026-05-03T08:46:38Z</time></trkpt><trkpt lat="37.7458467" lon="14.5370763"><ele>780.0</ele><time>2026-05-03T08:46:39Z</time></trkpt><trkpt lat="37.7460214" lon="14.5371382"><ele>790.0</ele><time>2026-05-03T08:46:40Z</time></trkpt><trkpt lat="37.7461745" lon="14.5371942"><ele>800.0</ele><time>2026-05-03T08:46:41Z</time></trkpt><trkpt lat="37.7463075" lon="14.5372837"><ele>810.0</ele><time>2026-05-03T08:46:42Z</time></trkpt><trkpt lat="37.7464164" lon="14.5374172"><ele>810.0</ele><time>2026-05-03T08:46:43Z</time></trkpt><trkpt lat="37.7464837" lon="14.5375868"><ele>810.0</ele><time>2026-05-03T08:46:44Z</time></trkpt><trkpt lat="37.7465024" lon="14.5377769"><ele>810.0</ele><time>2026-05-03T08:46:45Z</time></trkpt><trkpt lat="37.7465128" lon="14.5379602"><ele>810.0</ele><time>2026-05-03T08:46:46Z</time></trkpt><trkpt lat="37.7463982" lon="14.5381438"><ele>814.6666666666667</ele><time>2026-05-03T08:46:47Z</time></trkpt><trkpt lat="37.7463261" lon="14.5383277"><ele>819.3333333333334</ele><time>2026-05-03T08:46:48Z</time></trkpt><trkpt lat="37.7462925" lon="14.5385124"><ele>824.0</ele><time>2026-05-03T08:46:49Z</time></trkpt><trkpt lat="37.7463048" lon="14.5386892"><ele>822.5</ele><time>2026-05-03T08:46:50Z</time></trkpt><trkpt lat="37.7463585" lon="14.5388461"><ele>821.0</ele><time>2026-05-03T08:46:51Z</time></trkpt><trkpt lat="37.7464116" lon="14.5390102"><ele>819.5</ele><time>2026-05-03T08:46:52Z</time></trkpt><trkpt lat="37.746511" lon="14.5391243"><ele>818.0</ele><time>2026-05-03T08:46:53Z</time></trkpt><trkpt lat="37.746776" lon="14.5390922"><ele>822.3333333333334</ele><time>2026-05-03T08:46:54Z</time></trkpt><trkpt lat="37.7469555" lon="14.5391683"><ele>826.6666666666667</ele><time>2026-05-03T08:46:55Z</time></trkpt><trkpt lat="37.7471281" lon="14.5392958"><ele>831.0</ele><time>2026-05-03T08:46:56Z</time></trkpt><trkpt lat="37.7472778" lon="14.5394806"><ele>823.6666666666667</ele><time>2026-05-03T08:46:57Z</time></trkpt><trkpt lat="37.7474604" lon="14.539652"><ele>816.3333333333334</ele><time>2026-05-03T08:46:58Z</time></trkpt><trkpt lat="37.7476454" lon="14.5397877"><ele>809.0</ele><time>2026-05-03T08:46:59Z</time></trkpt><trkpt lat="37.7478012" lon="14.5398895"><ele>809.0</ele><time>2026-05-03T08:47:00Z</time></trkpt><trkpt lat="37.7479382" lon="14.5399562"><ele>809.0</ele><time>2026-05-03T08:47:01Z</time></trkpt><trkpt lat="37.7480668" lon="14.539979"><ele>809.0</ele><time>2026-05-03T08:47:02Z</time></trkpt><trkpt lat="37.7482227" lon="14.5399403"><ele>809.0</ele><time>2026-05-03T08:47:03Z</time></trkpt><trkpt lat="37.7484075" lon="14.5398757"><ele>810.0</ele><time>2026-05-03T08:47:04Z</time></trkpt><trkpt lat="37.7486206" lon="14.5398195"><ele>811.0</ele><time>2026-05-03T08:47:05Z</time></trkpt><trkpt lat="37.7488026" lon="14.5397499"><ele>812.0</ele><time>2026-05-03T08:47:06Z</time></trkpt><trkpt lat="37.7489643" lon="14.5397328"><ele>812.0</ele><time>2026-05-03T08:47:07Z</time></trkpt><trkpt lat="37.7490994" lon="14.5397252"><ele>812.0</ele><time>2026-05-03T08:47:08Z</time></trkpt><trkpt lat="37.7492812" lon="14.5398102"><ele>812.0</ele><time>2026-05-03T08:47:09Z</time></trkpt><trkpt lat="37.7493621" lon="14.5400148"><ele>812.0</ele><time>2026-05-03T08:47:10Z</time></trkpt><trkpt lat="37.7495037" lon="14.5402507"><ele>812.0</ele><time>2026-05-03T08:47:11Z</time></trkpt><trkpt lat="37.7497012" lon="14.5403983"><ele>812.0</ele><time>2026-05-03T08:47:12Z</time></trkpt><trkpt lat="37.7498861" lon="14.5405739"><ele>812.0</ele><time>2026-05-03T08:47:13Z</time></trkpt><trkpt lat="37.7500539" lon="14.5408054"><ele>814.3333333333334</ele><time>2026-05-03T08:47:14Z</time></trkpt><trkpt lat="37.7502141" lon="14.5410076"><ele>816.6666666666667</ele><time>2026-05-03T08:47:15Z</time></trkpt><trkpt lat="37.7503767" lon="14.541156"><ele>819.0</ele><time>2026-05-03T08:47:16Z</time></trkpt><trkpt lat="37.7505044" lon="14.5413101"><ele>819.0</ele><time>2026-05-03T08:47:17Z</time></trkpt><trkpt lat="37.7505774" lon="14.5414803"><ele>819.0</ele><time>2026-05-03T08:47:17.999Z</time></trkpt><trkpt lat="37.7506124" lon="14.5416882"><ele>819.0</ele><time>2026-05-03T08:47:19Z</time></trkpt><trkpt lat="37.7506321" lon="14.5418993"><ele>816.3333333333333</ele><time>2026-05-03T08:47:20Z</time></trkpt><trkpt lat="37.7507144" lon="14.5421077"><ele>813.6666666666666</ele><time>2026-05-03T08:47:21Z</time></trkpt><trkpt lat="37.750829" lon="14.5423101"><ele>811.0</ele><time>2026-05-03T08:47:22Z</time></trkpt><trkpt lat="37.7509413" lon="14.5424784"><ele>816.3333333333333</ele><time>2026-05-03T08:47:23Z</time></trkpt><trkpt lat="37.7510696" lon="14.5426094"><ele>821.6666666666667</ele><time>2026-05-03T08:47:24Z</time></trkpt><trkpt lat="37.7512143" lon="14.5426836"><ele>827.0</ele><time>2026-05-03T08:47:25Z</time></trkpt><trkpt lat="37.7514028" lon="14.5427309"><ele>827.0</ele><time>2026-05-03T08:47:26Z</time></trkpt><trkpt lat="37.7516245" lon="14.5427681"><ele>827.0</ele><time>2026-05-03T08:47:27Z</time></trkpt><trkpt lat="37.7518329" lon="14.5428024"><ele>827.0</ele><time>2026-05-03T08:47:28Z</time></trkpt><trkpt lat="37.752048" lon="14.542836"><ele>821.0</ele><time>2026-05-03T08:47:29Z</time></trkpt><trkpt lat="37.7523037" lon="14.5428769"><ele>815.0</ele><time>2026-05-03T08:47:30Z</time></trkpt><trkpt lat="37.7525162" lon="14.5429152"><ele>815.0</ele><time>2026-05-03T08:47:31Z</time></trkpt><trkpt lat="37.7526808" lon="14.5429451"><ele>815.0</ele><time>2026-05-03T08:47:32Z</time></trkpt><trkpt lat="37.7528813" lon="14.5429431"><ele>815.0</ele><time>2026-05-03T08:47:33Z</time></trkpt><trkpt lat="37.7530998" lon="14.5428726"><ele>805.0</ele><time>2026-05-03T08:47:34Z</time></trkpt><trkpt lat="37.7533272" lon="14.5427487"><ele>795.0</ele><time>2026-05-03T08:47:35Z</time></trkpt><trkpt lat="37.7535734" lon="14.5426187"><ele>791.5</ele><time>2026-05-03T08:47:36Z</time></trkpt><trkpt lat="37.7538407" lon="14.5425305"><ele>788.0</ele><time>2026-05-03T08:47:37Z</time></trkpt><trkpt lat="37.7541269" lon="14.5424666"><ele>785.5</ele><time>2026-05-03T08:47:38Z</time></trkpt><trkpt lat="37.7543953" lon="14.5424339"><ele>783.0</ele><time>2026-05-03T08:47:39Z</time></trkpt><trkpt lat="37.7546457" lon="14.5424058"><ele>783.0</ele><time>2026-05-03T08:47:40Z</time></trkpt><trkpt lat="37.7548721" lon="14.5424053"><ele>783.0</ele><time>2026-05-03T08:47:40.999Z</time></trkpt><trkpt lat="37.7551103" lon="14.5424553"><ele>783.5</ele><time>2026-05-03T08:47:42Z</time></trkpt><trkpt lat="37.7553583" lon="14.5425406"><ele>784.0</ele><time>2026-05-03T08:47:43Z</time></trkpt><trkpt lat="37.7555905" lon="14.5426411"><ele>784.0</ele><time>2026-05-03T08:47:44Z</time></trkpt><trkpt lat="37.7557913" lon="14.5427398"><ele>784.0</ele><time>2026-05-03T08:47:45Z</time></trkpt><trkpt lat="37.7559783" lon="14.5428972"><ele>784.0</ele><time>2026-05-03T08:47:46Z</time></trkpt><trkpt lat="37.7561603" lon="14.5431157"><ele>786.5</ele><time>2026-05-03T08:47:47Z</time></trkpt><trkpt lat="37.7563371" lon="14.5433564"><ele>789.0</ele><time>2026-05-03T08:47:48Z</time></trkpt><trkpt lat="37.7565001" lon="14.5435716"><ele>786.0</ele><time>2026-05-03T08:47:49Z</time></trkpt><trkpt lat="37.7566639" lon="14.5437597"><ele>783.0</ele><time>2026-05-03T08:47:50Z</time></trkpt><trkpt lat="37.7568802" lon="14.5439214"><ele>783.0</ele><time>2026-05-03T08:47:51Z</time></trkpt><trkpt lat="37.7571158" lon="14.5440437"><ele>783.0</ele><time>2026-05-03T08:47:52Z</time></trkpt><trkpt lat="37.7573417" lon="14.5441398"><ele>783.0</ele><time>2026-05-03T08:47:53Z</time></trkpt><trkpt lat="37.7575928" lon="14.544199"><ele>783.0</ele><time>2026-05-03T08:47:54Z</time></trkpt><trkpt lat="37.7578633" lon="14.5442174"><ele>781.0</ele><time>2026-05-03T08:47:55Z</time></trkpt><trkpt lat="37.7581242" lon="14.5442373"><ele>779.0</ele><time>2026-05-03T08:47:56Z</time></trkpt><trkpt lat="37.7583787" lon="14.5442892"><ele>778.5</ele><time>2026-05-03T08:47:57Z</time></trkpt><trkpt lat="37.7586229" lon="14.5443588"><ele>778.0</ele><time>2026-05-03T08:47:58Z</time></trkpt><trkpt lat="37.7588782" lon="14.5444458"><ele>780.0</ele><time>2026-05-03T08:47:59Z</time></trkpt><trkpt lat="37.7591462" lon="14.5445647"><ele>782.0</ele><time>2026-05-03T08:47:59.999Z</time></trkpt><trkpt lat="37.7594163" lon="14.5447086"><ele>784.0</ele><time>2026-05-03T08:48:01Z</time></trkpt><trkpt lat="37.7596881" lon="14.5448707"><ele>786.0</ele><time>2026-05-03T08:48:02Z</time></trkpt><trkpt lat="37.759961" lon="14.5450384"><ele>785.0</ele><time>2026-05-03T08:48:03Z</time></trkpt><trkpt lat="37.7602267" lon="14.5451972"><ele>784.0</ele><time>2026-05-03T08:48:04Z</time></trkpt><trkpt lat="37.7604701" lon="14.5453462"><ele>789.0</ele><time>2026-05-03T08:48:05Z</time></trkpt><trkpt lat="37.7607053" lon="14.545491"><ele>794.0</ele><time>2026-05-03T08:48:06Z</time></trkpt><trkpt lat="37.7609321" lon="14.5456231"><ele>796.0</ele><time>2026-05-03T08:48:07Z</time></trkpt><trkpt lat="37.7611554" lon="14.5457535"><ele>798.0</ele><time>2026-05-03T08:48:08Z</time></trkpt><trkpt lat="37.7613812" lon="14.5458955"><ele>798.0</ele><time>2026-05-03T08:48:09Z</time></trkpt><trkpt lat="37.7616141" lon="14.5460402"><ele>798.0</ele><time>2026-05-03T08:48:10Z</time></trkpt><trkpt lat="37.7618616" lon="14.5461798"><ele>801.5</ele><time>2026-05-03T08:48:11Z</time></trkpt><trkpt lat="37.7621086" lon="14.5462989"><ele>805.0</ele><time>2026-05-03T08:48:12Z</time></trkpt><trkpt lat="37.7623822" lon="14.5463711"><ele>805.0</ele><time>2026-05-03T08:48:13Z</time></trkpt><trkpt lat="37.7626655" lon="14.5464133"><ele>805.0</ele><time>2026-05-03T08:48:14Z</time></trkpt><trkpt lat="37.7629482" lon="14.5464479"><ele>809.0</ele><time>2026-05-03T08:48:15Z</time></trkpt><trkpt lat="37.7632178" lon="14.546479"><ele>813.0</ele><time>2026-05-03T08:48:16Z</time></trkpt><trkpt lat="37.7634842" lon="14.5465061"><ele>816.0</ele><time>2026-05-03T08:48:17Z</time></trkpt><trkpt lat="37.7637527" lon="14.546565"><ele>819.0</ele><time>2026-05-03T08:48:18Z</time></trkpt><trkpt lat="37.7640192" lon="14.5466631"><ele>819.0</ele><time>2026-05-03T08:48:19Z</time></trkpt><trkpt lat="37.7642867" lon="14.5467997"><ele>819.0</ele><time>2026-05-03T08:48:20Z</time></trkpt><trkpt lat="37.7645531" lon="14.5469459"><ele>823.5</ele><time>2026-05-03T08:48:21Z</time></trkpt><trkpt lat="37.7648158" lon="14.5470955"><ele>828.0</ele><time>2026-05-03T08:48:21.999Z</time></trkpt><trkpt lat="37.7650591" lon="14.5472369"><ele>831.3333333333333</ele><time>2026-05-03T08:48:23Z</time></trkpt><trkpt lat="37.7652757" lon="14.5473655"><ele>834.6666666666666</ele><time>2026-05-03T08:48:24Z</time></trkpt><trkpt lat="37.7654644" lon="14.5474731"><ele>838.0</ele><time>2026-05-03T08:48:25Z</time></trkpt><trkpt lat="37.7656113" lon="14.5475812"><ele>838.0</ele><time>2026-05-03T08:48:26Z</time></trkpt><trkpt lat="37.7657189" lon="14.5477152"><ele>838.0</ele><time>2026-05-03T08:48:27Z</time></trkpt><trkpt lat="37.7657633" lon="14.5478843"><ele>838.0</ele><time>2026-05-03T08:48:28Z</time></trkpt><trkpt lat="37.7657624" lon="14.5480696"><ele>838.0</ele><time>2026-05-03T08:48:29Z</time></trkpt><trkpt lat="37.7657331" lon="14.5482685"><ele>839.25</ele><time>2026-05-03T08:48:30Z</time></trkpt><trkpt lat="37.7657403" lon="14.5484621"><ele>840.5</ele><time>2026-05-03T08:48:31Z</time></trkpt><trkpt lat="37.7657831" lon="14.548641"><ele>841.75</ele><time>2026-05-03T08:48:32Z</time></trkpt><trkpt lat="37.7658772" lon="14.5487845"><ele>843.0</ele><time>2026-05-03T08:48:33Z</time></trkpt><trkpt lat="37.766036" lon="14.5489013"><ele>845.3333333333333</ele><time>2026-05-03T08:48:34Z</time></trkpt><trkpt lat="37.7662272" lon="14.549017"><ele>847.6666666666666</ele><time>2026-05-03T08:48:35Z</time></trkpt><trkpt lat="37.7664372" lon="14.5491445"><ele>850.0</ele><time>2026-05-03T08:48:36Z</time></trkpt><trkpt lat="37.7666588" lon="14.5492828"><ele>854.5</ele><time>2026-05-03T08:48:37Z</time></trkpt><trkpt lat="37.766895" lon="14.5494244"><ele>859.0</ele><time>2026-05-03T08:48:38Z</time></trkpt><trkpt lat="37.7671311" lon="14.5495525"><ele>863.0</ele><time>2026-05-03T08:48:39Z</time></trkpt><trkpt lat="37.7673732" lon="14.5496885"><ele>867.0</ele><time>2026-05-03T08:48:40Z</time></trkpt><trkpt lat="37.7675981" lon="14.5498421"><ele>868.6666666666667</ele><time>2026-05-03T08:48:41Z</time></trkpt><trkpt lat="37.7677986" lon="14.5499926"><ele>870.3333333333334</ele><time>2026-05-03T08:48:42Z</time></trkpt><trkpt lat="37.7679611" lon="14.5501408"><ele>872.0</ele><time>2026-05-03T08:48:43Z</time></trkpt><trkpt lat="37.7680893" lon="14.5503207"><ele>874.0</ele><time>2026-05-03T08:48:44Z</time></trkpt><trkpt lat="37.7681735" lon="14.550521"><ele>876.0</ele><time>2026-05-03T08:48:45Z</time></trkpt><trkpt lat="37.7682645" lon="14.5507259"><ele>878.0</ele><time>2026-05-03T08:48:46Z</time></trkpt><trkpt lat="37.7683892" lon="14.5509027"><ele>881.5</ele><time>2026-05-03T08:48:47Z</time></trkpt><trkpt lat="37.7685676" lon="14.5510619"><ele>885.0</ele><time>2026-05-03T08:48:48Z</time></trkpt><trkpt lat="37.7687796" lon="14.5512134"><ele>885.5</ele><time>2026-05-03T08:48:49Z</time></trkpt><trkpt lat="37.7690061" lon="14.5513717"><ele>886.0</ele><time>2026-05-03T08:48:50Z</time></trkpt><trkpt lat="37.7692207" lon="14.5515202"><ele>889.3333333333333</ele><time>2026-05-03T08:48:51Z</time></trkpt><trkpt lat="37.7694113" lon="14.5516555"><ele>892.6666666666667</ele><time>2026-05-03T08:48:52Z</time></trkpt><trkpt lat="37.7695906" lon="14.5517688"><ele>896.0</ele><time>2026-05-03T08:48:53Z</time></trkpt><trkpt lat="37.7697683" lon="14.5518325"><ele>896.0</ele><time>2026-05-03T08:48:54Z</time></trkpt><trkpt lat="37.7699557" lon="14.5518488"><ele>896.0</ele><time>2026-05-03T08:48:55Z</time></trkpt><trkpt lat="37.7701431" lon="14.551846"><ele>896.0</ele><time>2026-05-03T08:48:56Z</time></trkpt><trkpt lat="37.7703088" lon="14.5518244"><ele>901.0</ele><time>2026-05-03T08:48:57Z</time></trkpt><trkpt lat="37.7704532" lon="14.5517265"><ele>906.0</ele><time>2026-05-03T08:48:58Z</time></trkpt><trkpt lat="37.770606" lon="14.5515649"><ele>911.0</ele><time>2026-05-03T08:48:59Z</time></trkpt><trkpt lat="37.7707529" lon="14.5513603"><ele>913.3333333333334</ele><time>2026-05-03T08:49:00Z</time></trkpt><trkpt lat="37.7709067" lon="14.5511544"><ele>915.6666666666667</ele><time>2026-05-03T08:49:01Z</time></trkpt><trkpt lat="37.7710433" lon="14.5509739"><ele>918.0</ele><time>2026-05-03T08:49:02Z</time></trkpt><trkpt lat="37.771164" lon="14.550838"><ele>918.0</ele><time>2026-05-03T08:49:03Z</time></trkpt><trkpt lat="37.7712834" lon="14.550759"><ele>918.0</ele><time>2026-05-03T08:49:04Z</time></trkpt><trkpt lat="37.7713948" lon="14.5506944"><ele>918.0</ele><time>2026-05-03T08:49:05Z</time></trkpt><trkpt lat="37.771499" lon="14.5507097"><ele>918.0</ele><time>2026-05-03T08:49:06Z</time></trkpt><trkpt lat="37.7715442" lon="14.5509786"><ele>918.0</ele><time>2026-05-03T08:49:07Z</time></trkpt><trkpt lat="37.7715258" lon="14.5511492"><ele>918.0</ele><time>2026-05-03T08:49:08Z</time></trkpt><trkpt lat="37.7714739" lon="14.5513639"><ele>918.0</ele><time>2026-05-03T08:49:09Z</time></trkpt><trkpt lat="37.7713767" lon="14.5515921"><ele>919.0</ele><time>2026-05-03T08:49:10Z</time></trkpt><trkpt lat="37.7712549" lon="14.5518181"><ele>920.0</ele><time>2026-05-03T08:49:11Z</time></trkpt><trkpt lat="37.7711177" lon="14.5520171"><ele>921.0</ele><time>2026-05-03T08:49:12Z</time></trkpt><trkpt lat="37.7709875" lon="14.552182"><ele>921.0</ele><time>2026-05-03T08:49:13Z</time></trkpt><trkpt lat="37.7708912" lon="14.5523452"><ele>921.0</ele><time>2026-05-03T08:49:14Z</time></trkpt><trkpt lat="37.770802" lon="14.5524982"><ele>921.0</ele><time>2026-05-03T08:49:15Z</time></trkpt><trkpt lat="37.7707579" lon="14.5526455"><ele>921.0</ele><time>2026-05-03T08:49:16Z</time></trkpt><trkpt lat="37.7707655" lon="14.5527899"><ele>921.0</ele><time>2026-05-03T08:49:17Z</time></trkpt><trkpt lat="37.7708208" lon="14.552912"><ele>920.9999999999999</ele><time>2026-05-03T08:49:18Z</time></trkpt><trkpt lat="37.7709173" lon="14.5529933"><ele>920.9999999999999</ele><time>2026-05-03T08:49:19Z</time></trkpt><trkpt lat="37.7710288" lon="14.5530085"><ele>921.0</ele><time>2026-05-03T08:49:20Z</time></trkpt><trkpt lat="37.7711339" lon="14.553011"><ele>921.0</ele><time>2026-05-03T08:49:21Z</time></trkpt><trkpt lat="37.7712563" lon="14.5528987"><ele>930.5</ele><time>2026-05-03T08:49:22Z</time></trkpt><trkpt lat="37.7714393" lon="14.5526455"><ele>940.0</ele><time>2026-05-03T08:49:23Z</time></trkpt><trkpt lat="37.7715911" lon="14.5524733"><ele>940.0</ele><time>2026-05-03T08:49:24Z</time></trkpt><trkpt lat="37.7718185" lon="14.552286"><ele>940.0</ele><time>2026-05-03T08:49:25Z</time></trkpt><trkpt lat="37.7720471" lon="14.5521364"><ele>943.0</ele><time>2026-05-03T08:49:26Z</time></trkpt><trkpt lat="37.772266" lon="14.5519973"><ele>946.0</ele><time>2026-05-03T08:49:27Z</time></trkpt><trkpt lat="37.7724593" lon="14.5518658"><ele>946.0</ele><time>2026-05-03T08:49:28Z</time></trkpt><trkpt lat="37.7726247" lon="14.551719"><ele>946.0</ele><time>2026-05-03T08:49:29Z</time></trkpt><trkpt lat="37.7727533" lon="14.5515263"><ele>946.0</ele><time>2026-05-03T08:49:30Z</time></trkpt><trkpt lat="37.7728534" lon="14.5513321"><ele>948.5</ele><time>2026-05-03T08:49:31Z</time></trkpt><trkpt lat="37.7729501" lon="14.551188"><ele>951.0</ele><time>2026-05-03T08:49:32Z</time></trkpt><trkpt lat="37.7730639" lon="14.5510901"><ele>953.5</ele><time>2026-05-03T08:49:33Z</time></trkpt><trkpt lat="37.7732011" lon="14.551047"><ele>956.0</ele><time>2026-05-03T08:49:34Z</time></trkpt><trkpt lat="37.7733762" lon="14.5510476"><ele>955.0</ele><time>2026-05-03T08:49:35Z</time></trkpt><trkpt lat="37.7735781" lon="14.5510677"><ele>954.0</ele><time>2026-05-03T08:49:36Z</time></trkpt><trkpt lat="37.7737615" lon="14.5510824"><ele>953.0</ele><time>2026-05-03T08:49:37Z</time></trkpt><trkpt lat="37.7739025" lon="14.5511272"><ele>953.0</ele><time>2026-05-03T08:49:38Z</time></trkpt><trkpt lat="37.7740347" lon="14.5511983"><ele>953.0</ele><time>2026-05-03T08:49:39Z</time></trkpt><trkpt lat="37.7740971" lon="14.5513238"><ele>953.0</ele><time>2026-05-03T08:49:40Z</time></trkpt><trkpt lat="37.7741361" lon="14.5514846"><ele>953.0</ele><time>2026-05-03T08:49:41Z</time></trkpt><trkpt lat="37.7741405" lon="14.5517059"><ele>957.0</ele><time>2026-05-03T08:49:42Z</time></trkpt><trkpt lat="37.7741272" lon="14.5519618"><ele>961.0</ele><time>2026-05-03T08:49:43Z</time></trkpt><trkpt lat="37.7741087" lon="14.5522399"><ele>965.0</ele><time>2026-05-03T08:49:44Z</time></trkpt><trkpt lat="37.7740885" lon="14.5525072"><ele>968.3333333333334</ele><time>2026-05-03T08:49:45Z</time></trkpt><trkpt lat="37.7740803" lon="14.5527326"><ele>971.6666666666667</ele><time>2026-05-03T08:49:46Z</time></trkpt><trkpt lat="37.7740984" lon="14.5529342"><ele>975.0</ele><time>2026-05-03T08:49:47Z</time></trkpt><trkpt lat="37.7741542" lon="14.5530953"><ele>977.3333333333333</ele><time>2026-05-03T08:49:48Z</time></trkpt><trkpt lat="37.7742522" lon="14.5532163"><ele>979.6666666666666</ele><time>2026-05-03T08:49:49Z</time></trkpt><trkpt lat="37.774395" lon="14.5532787"><ele>982.0</ele><time>2026-05-03T08:49:50Z</time></trkpt><trkpt lat="37.7745713" lon="14.5532779"><ele>984.0</ele><time>2026-05-03T08:49:51Z</time></trkpt><trkpt lat="37.7747677" lon="14.5532479"><ele>986.0</ele><time>2026-05-03T08:49:52Z</time></trkpt><trkpt lat="37.7749745" lon="14.553269"><ele>988.0</ele><time>2026-05-03T08:49:53Z</time></trkpt><trkpt lat="37.7751875" lon="14.5533329"><ele>988.0</ele><time>2026-05-03T08:49:54Z</time></trkpt><trkpt lat="37.7753945" lon="14.5534441"><ele>988.0</ele><time>2026-05-03T08:49:55Z</time></trkpt><trkpt lat="37.7755776" lon="14.5535549"><ele>988.0</ele><time>2026-05-03T08:49:56Z</time></trkpt><trkpt lat="37.7757323" lon="14.5536739"><ele>992.6666666666666</ele><time>2026-05-03T08:49:57Z</time></trkpt><trkpt lat="37.7758514" lon="14.5538415"><ele>997.3333333333333</ele><time>2026-05-03T08:49:58Z</time></trkpt><trkpt lat="37.7759691" lon="14.554065"><ele>1002.0</ele><time>2026-05-03T08:49:59Z</time></trkpt><trkpt lat="37.7760767" lon="14.5543226"><ele>1009.5</ele><time>2026-05-03T08:50:00Z</time></trkpt><trkpt lat="37.7761714" lon="14.554602"><ele>1017.0</ele><time>2026-05-03T08:50:01Z</time></trkpt><trkpt lat="37.7762748" lon="14.5548898"><ele>1017.0</ele><time>2026-05-03T08:50:02Z</time></trkpt><trkpt lat="37.7763766" lon="14.5551639"><ele>1017.0</ele><time>2026-05-03T08:50:03Z</time></trkpt><trkpt lat="37.7764672" lon="14.5554056"><ele>1017.6666666666667</ele><time>2026-05-03T08:50:04Z</time></trkpt><trkpt lat="37.7765575" lon="14.5556372"><ele>1018.3333333333334</ele><time>2026-05-03T08:50:05Z</time></trkpt><trkpt lat="37.7766909" lon="14.5558072"><ele>1019.0</ele><time>2026-05-03T08:50:06Z</time></trkpt><trkpt lat="37.7768353" lon="14.5559659"><ele>1020.3333333333334</ele><time>2026-05-03T08:50:07Z</time></trkpt><trkpt lat="37.7769938" lon="14.5561065"><ele>1021.6666666666667</ele><time>2026-05-03T08:50:08Z</time></trkpt><trkpt lat="37.7771259" lon="14.5562359"><ele>1023.0</ele><time>2026-05-03T08:50:09Z</time></trkpt><trkpt lat="37.7772547" lon="14.5563176"><ele>1017.3333333333333</ele><time>2026-05-03T08:50:10Z</time></trkpt><trkpt lat="37.7774043" lon="14.5563539"><ele>1011.6666666666666</ele><time>2026-05-03T08:50:11Z</time></trkpt><trkpt lat="37.7775775" lon="14.5563409"><ele>1006.0</ele><time>2026-05-03T08:50:12Z</time></trkpt><trkpt lat="37.7777632" lon="14.5562804"><ele>1006.6666666666666</ele><time>2026-05-03T08:50:13Z</time></trkpt><trkpt lat="37.7779633" lon="14.5561738"><ele>1007.3333333333333</ele><time>2026-05-03T08:50:14Z</time></trkpt><trkpt lat="37.7781542" lon="14.5560434"><ele>1008.0</ele><time>2026-05-03T08:50:15Z</time></trkpt><trkpt lat="37.7783143" lon="14.5559296"><ele>1008.0</ele><time>2026-05-03T08:50:16Z</time></trkpt><trkpt lat="37.7784748" lon="14.5558539"><ele>1008.0</ele><time>2026-05-03T08:50:17Z</time></trkpt><trkpt lat="37.7786568" lon="14.555834"><ele>1008.0</ele><time>2026-05-03T08:50:18Z</time></trkpt><trkpt lat="37.7788513" lon="14.5558539"><ele>1008.6666666666667</ele><time>2026-05-03T08:50:19Z</time></trkpt><trkpt lat="37.7790542" lon="14.5558855"><ele>1009.3333333333334</ele><time>2026-05-03T08:50:20Z</time></trkpt><trkpt lat="37.7792272" lon="14.5559614"><ele>1010.0</ele><time>2026-05-03T08:50:21Z</time></trkpt><trkpt lat="37.7793992" lon="14.5560444"><ele>1010.5</ele><time>2026-05-03T08:50:22Z</time></trkpt><trkpt lat="37.7795457" lon="14.5562724"><ele>1011.0</ele><time>2026-05-03T08:50:23Z</time></trkpt><trkpt lat="37.779719" lon="14.5564563"><ele>1011.0</ele><time>2026-05-03T08:50:24Z</time></trkpt><trkpt lat="37.7799233" lon="14.5566188"><ele>1011.0</ele><time>2026-05-03T08:50:25Z</time></trkpt><trkpt lat="37.7801227" lon="14.5567352"><ele>1012.0</ele><time>2026-05-03T08:50:26Z</time></trkpt><trkpt lat="37.7802831" lon="14.5568261"><ele>1013.0</ele><time>2026-05-03T08:50:27Z</time></trkpt><trkpt lat="37.7804173" lon="14.5569269"><ele>1014.0</ele><time>2026-05-03T08:50:28Z</time></trkpt><trkpt lat="37.7805178" lon="14.557053"><ele>1014.0</ele><time>2026-05-03T08:50:29Z</time></trkpt><trkpt lat="37.7805874" lon="14.557229"><ele>1014.0</ele><time>2026-05-03T08:50:30Z</time></trkpt><trkpt lat="37.7806243" lon="14.5574382"><ele>1014.0</ele><time>2026-05-03T08:50:31Z</time></trkpt><trkpt lat="37.7806809" lon="14.5576473"><ele>1014.0</ele><time>2026-05-03T08:50:32Z</time></trkpt><trkpt lat="37.7807874" lon="14.5578525"><ele>1014.0</ele><time>2026-05-03T08:50:33Z</time></trkpt><trkpt lat="37.7809402" lon="14.5580515"><ele>1014.0</ele><time>2026-05-03T08:50:34Z</time></trkpt><trkpt lat="37.7810799" lon="14.558242"><ele>1014.3333333333333</ele><time>2026-05-03T08:50:35Z</time></trkpt><trkpt lat="37.7811976" lon="14.5584438"><ele>1014.6666666666666</ele><time>2026-05-03T08:50:36Z</time></trkpt><trkpt lat="37.7812555" lon="14.5586501"><ele>1015.0</ele><time>2026-05-03T08:50:37Z</time></trkpt><trkpt lat="37.78133" lon="14.5588207"><ele>1009.6666666666666</ele><time>2026-05-03T08:50:38Z</time></trkpt><trkpt lat="37.7814107" lon="14.5589821"><ele>1004.3333333333333</ele><time>2026-05-03T08:50:39Z</time></trkpt><trkpt lat="37.7815725" lon="14.5590191"><ele>999.0</ele><time>2026-05-03T08:50:40Z</time></trkpt><trkpt lat="37.7817446" lon="14.5590439"><ele>995.5</ele><time>2026-05-03T08:50:41Z</time></trkpt><trkpt lat="37.7819579" lon="14.5590289"><ele>992.0</ele><time>2026-05-03T08:50:42Z</time></trkpt><trkpt lat="37.7821946" lon="14.5589708"><ele>992.0</ele><time>2026-05-03T08:50:43Z</time></trkpt><trkpt lat="37.7824156" lon="14.558889"><ele>992.0</ele><time>2026-05-03T08:50:44Z</time></trkpt><trkpt lat="37.7826067" lon="14.5588203"><ele>992.0</ele><time>2026-05-03T08:50:45Z</time></trkpt><trkpt lat="37.7827759" lon="14.5587918"><ele>993.3333333333334</ele><time>2026-05-03T08:50:46Z</time></trkpt><trkpt lat="37.7829438" lon="14.5588148"><ele>994.6666666666667</ele><time>2026-05-03T08:50:47Z</time></trkpt><trkpt lat="37.7831044" lon="14.5588974"><ele>996.0</ele><time>2026-05-03T08:50:48Z</time></trkpt><trkpt lat="37.7832548" lon="14.5590467"><ele>996.0</ele><time>2026-05-03T08:50:48.999Z</time></trkpt><trkpt lat="37.7833949" lon="14.5592582"><ele>996.0</ele><time>2026-05-03T08:50:50Z</time></trkpt><trkpt lat="37.7835134" lon="14.5594828"><ele>996.0</ele><time>2026-05-03T08:50:51Z</time></trkpt><trkpt lat="37.7836295" lon="14.5596882"><ele>997.3333333333333</ele><time>2026-05-03T08:50:52Z</time></trkpt><trkpt lat="37.78374" lon="14.5598542"><ele>998.6666666666666</ele><time>2026-05-03T08:50:53Z</time></trkpt><trkpt lat="37.7838653" lon="14.5599723"><ele>1000.0</ele><time>2026-05-03T08:50:54Z</time></trkpt><trkpt lat="37.7840187" lon="14.5600492"><ele>1000.0</ele><time>2026-05-03T08:50:55Z</time></trkpt><trkpt lat="37.7842065" lon="14.5600841"><ele>1000.0</ele><time>2026-05-03T08:50:56Z</time></trkpt><trkpt lat="37.7844011" lon="14.5601194"><ele>1000.0</ele><time>2026-05-03T08:50:57Z</time></trkpt><trkpt lat="37.7845681" lon="14.5601658"><ele>999.6666666666666</ele><time>2026-05-03T08:50:58Z</time></trkpt><trkpt lat="37.7847089" lon="14.5602413"><ele>999.3333333333333</ele><time>2026-05-03T08:50:59Z</time></trkpt><trkpt lat="37.7848268" lon="14.5603811"><ele>999.0</ele><time>2026-05-03T08:51:00Z</time></trkpt><trkpt lat="37.7849312" lon="14.5605878"><ele>999.0</ele><time>2026-05-03T08:51:01Z</time></trkpt><trkpt lat="37.7850301" lon="14.5608369"><ele>999.0</ele><time>2026-05-03T08:51:02Z</time></trkpt><trkpt lat="37.7851411" lon="14.5610996"><ele>999.6666666666667</ele><time>2026-05-03T08:51:03Z</time></trkpt><trkpt lat="37.7852434" lon="14.5613574"><ele>1000.3333333333334</ele><time>2026-05-03T08:51:04Z</time></trkpt><trkpt lat="37.7853368" lon="14.5615895"><ele>1001.0</ele><time>2026-05-03T08:51:05Z</time></trkpt><trkpt lat="37.7854285" lon="14.561782"><ele>1001.0</ele><time>2026-05-03T08:51:06Z</time></trkpt><trkpt lat="37.7855615" lon="14.5619451"><ele>1001.0</ele><time>2026-05-03T08:51:07Z</time></trkpt><trkpt lat="37.7857472" lon="14.5620773"><ele>1001.0</ele><time>2026-05-03T08:51:08Z</time></trkpt><trkpt lat="37.7859342" lon="14.5621689"><ele>1001.3333333333334</ele><time>2026-05-03T08:51:09Z</time></trkpt><trkpt lat="37.7860939" lon="14.562266"><ele>1001.6666666666667</ele><time>2026-05-03T08:51:10Z</time></trkpt><trkpt lat="37.7862182" lon="14.5623929"><ele>1002.0</ele><time>2026-05-03T08:51:11Z</time></trkpt><trkpt lat="37.7863185" lon="14.5625784"><ele>1002.0</ele><time>2026-05-03T08:51:12Z</time></trkpt><trkpt lat="37.7863893" lon="14.5628361"><ele>1002.0</ele><time>2026-05-03T08:51:13Z</time></trkpt><trkpt lat="37.7864594" lon="14.5631123"><ele>1002.0</ele><time>2026-05-03T08:51:14Z</time></trkpt><trkpt lat="37.7865299" lon="14.5633701"><ele>1001.3333333333333</ele><time>2026-05-03T08:51:15Z</time></trkpt><trkpt lat="37.7865938" lon="14.5635992"><ele>1000.6666666666666</ele><time>2026-05-03T08:51:16Z</time></trkpt><trkpt lat="37.7866832" lon="14.5638077"><ele>1000.0</ele><time>2026-05-03T08:51:16.999Z</time></trkpt><trkpt lat="37.7868318" lon="14.5639948"><ele>1001.0</ele><time>2026-05-03T08:51:18Z</time></trkpt><trkpt lat="37.7870274" lon="14.5641729"><ele>1002.0</ele><time>2026-05-03T08:51:19Z</time></trkpt><trkpt lat="37.7872202" lon="14.5643512"><ele>1002.0</ele><time>2026-05-03T08:51:20Z</time></trkpt><trkpt lat="37.7874031" lon="14.5645148"><ele>1002.0</ele><time>2026-05-03T08:51:21Z</time></trkpt><trkpt lat="37.7875702" lon="14.5646645"><ele>1002.0</ele><time>2026-05-03T08:51:22Z</time></trkpt><trkpt lat="37.7877126" lon="14.56482"><ele>1000.0</ele><time>2026-05-03T08:51:23Z</time></trkpt><trkpt lat="37.7878175" lon="14.5649961"><ele>998.0</ele><time>2026-05-03T08:51:24Z</time></trkpt><trkpt lat="37.7878922" lon="14.5651958"><ele>996.0</ele><time>2026-05-03T08:51:25Z</time></trkpt><trkpt lat="37.7879559" lon="14.5654084"><ele>994.3333333333333</ele><time>2026-05-03T08:51:26Z</time></trkpt><trkpt lat="37.788018" lon="14.5656315"><ele>992.6666666666666</ele><time>2026-05-03T08:51:27Z</time></trkpt><trkpt lat="37.7880773" lon="14.5658585"><ele>991.0</ele><time>2026-05-03T08:51:28Z</time></trkpt><trkpt lat="37.7881353" lon="14.566092"><ele>990.6666666666666</ele><time>2026-05-03T08:51:29Z</time></trkpt><trkpt lat="37.7881939" lon="14.5663173"><ele>990.3333333333333</ele><time>2026-05-03T08:51:30Z</time></trkpt><trkpt lat="37.7882477" lon="14.5665332"><ele>990.0</ele><time>2026-05-03T08:51:31Z</time></trkpt><trkpt lat="37.7882943" lon="14.5667385"><ele>990.0</ele><time>2026-05-03T08:51:32Z</time></trkpt><trkpt lat="37.7883311" lon="14.5669389"><ele>990.0</ele><time>2026-05-03T08:51:33Z</time></trkpt><trkpt lat="37.7883423" lon="14.5671375"><ele>990.0</ele><time>2026-05-03T08:51:34Z</time></trkpt><trkpt lat="37.7883448" lon="14.5673411"><ele>991.0</ele><time>2026-05-03T08:51:35Z</time></trkpt><trkpt lat="37.7883437" lon="14.5675498"><ele>992.0</ele><time>2026-05-03T08:51:36Z</time></trkpt><trkpt lat="37.7883375" lon="14.567756"><ele>993.0</ele><time>2026-05-03T08:51:37Z</time></trkpt><trkpt lat="37.7883337" lon="14.5679504"><ele>995.25</ele><time>2026-05-03T08:51:38Z</time></trkpt><trkpt lat="37.7883423" lon="14.5681311"><ele>997.5</ele><time>2026-05-03T08:51:39Z</time></trkpt><trkpt lat="37.7883764" lon="14.568297"><ele>999.75</ele><time>2026-05-03T08:51:40Z</time></trkpt><trkpt lat="37.788431" lon="14.5684491"><ele>1002.0</ele><time>2026-05-03T08:51:41Z</time></trkpt><trkpt lat="37.7885048" lon="14.5685926"><ele>998.0</ele><time>2026-05-03T08:51:42Z</time></trkpt><trkpt lat="37.7885857" lon="14.5687264"><ele>994.0</ele><time>2026-05-03T08:51:43Z</time></trkpt><trkpt lat="37.7886559" lon="14.5688685"><ele>990.0</ele><time>2026-05-03T08:51:44Z</time></trkpt><trkpt lat="37.7887052" lon="14.5690236"><ele>986.0</ele><time>2026-05-03T08:51:45Z</time></trkpt><trkpt lat="37.7887415" lon="14.5691926"><ele>986.0</ele><time>2026-05-03T08:51:46Z</time></trkpt><trkpt lat="37.788764" lon="14.5693705"><ele>986.0</ele><time>2026-05-03T08:51:47Z</time></trkpt><trkpt lat="37.7887863" lon="14.5695639"><ele>986.0</ele><time>2026-05-03T08:51:48Z</time></trkpt><trkpt lat="37.7888094" lon="14.5697582"><ele>986.0</ele><time>2026-05-03T08:51:49Z</time></trkpt><trkpt lat="37.7888285" lon="14.5699636"><ele>986.0</ele><time>2026-05-03T08:51:50Z</time></trkpt><trkpt lat="37.7888451" lon="14.5701633"><ele>986.0</ele><time>2026-05-03T08:51:51Z</time></trkpt><trkpt lat="37.7888656" lon="14.5703606"><ele>987.5</ele><time>2026-05-03T08:51:52Z</time></trkpt><trkpt lat="37.7888903" lon="14.5705477"><ele>989.0</ele><time>2026-05-03T08:51:53Z</time></trkpt><trkpt lat="37.788913" lon="14.5707346"><ele>990.5</ele><time>2026-05-03T08:51:54Z</time></trkpt><trkpt lat="37.7889453" lon="14.5709167"><ele>992.0</ele><time>2026-05-03T08:51:55Z</time></trkpt><trkpt lat="37.7889845" lon="14.5711012"><ele>995.3333333333334</ele><time>2026-05-03T08:51:56Z</time></trkpt><trkpt lat="37.7890265" lon="14.5712893"><ele>998.6666666666667</ele><time>2026-05-03T08:51:57Z</time></trkpt><trkpt lat="37.7890698" lon="14.5714759"><ele>1002.0</ele><time>2026-05-03T08:51:58Z</time></trkpt><trkpt lat="37.7891203" lon="14.5716623"><ele>1002.0</ele><time>2026-05-03T08:51:59Z</time></trkpt><trkpt lat="37.7891662" lon="14.5718547"><ele>1002.0</ele><time>2026-05-03T08:52:00Z</time></trkpt><trkpt lat="37.789216" lon="14.5720383"><ele>1002.0</ele><time>2026-05-03T08:52:01Z</time></trkpt><trkpt lat="37.7892638" lon="14.5722231"><ele>1002.6666666666667</ele><time>2026-05-03T08:52:02Z</time></trkpt><trkpt lat="37.7893107" lon="14.5724063"><ele>1003.3333333333334</ele><time>2026-05-03T08:52:03Z</time></trkpt><trkpt lat="37.7893496" lon="14.5725912"><ele>1004.0</ele><time>2026-05-03T08:52:03.999Z</time></trkpt><trkpt lat="37.7893894" lon="14.5727719"><ele>1004.0</ele><time>2026-05-03T08:52:05Z</time></trkpt><trkpt lat="37.7894253" lon="14.5729534"><ele>1004.0</ele><time>2026-05-03T08:52:06Z</time></trkpt><trkpt lat="37.7894587" lon="14.5731278"><ele>1004.0</ele><time>2026-05-03T08:52:07Z</time></trkpt><trkpt lat="37.7894883" lon="14.5733035"><ele>1004.0</ele><time>2026-05-03T08:52:08Z</time></trkpt><trkpt lat="37.7895195" lon="14.5734736"><ele>1004.0</ele><time>2026-05-03T08:52:09Z</time></trkpt><trkpt lat="37.7895419" lon="14.5736383"><ele>1004.0</ele><time>2026-05-03T08:52:10Z</time></trkpt><trkpt lat="37.7895533" lon="14.5738039"><ele>1004.0</ele><time>2026-05-03T08:52:10.999Z</time></trkpt><trkpt lat="37.789571" lon="14.5739586"><ele>1004.0</ele><time>2026-05-03T08:52:12Z</time></trkpt><trkpt lat="37.7895845" lon="14.5741213"><ele>1004.5</ele><time>2026-05-03T08:52:13Z</time></trkpt><trkpt lat="37.789601" lon="14.5742925"><ele>1005.0</ele><time>2026-05-03T08:52:14Z</time></trkpt><trkpt lat="37.7896176" lon="14.574457"><ele>1005.5</ele><time>2026-05-03T08:52:15Z</time></trkpt><trkpt lat="37.7896252" lon="14.5746302"><ele>1006.0</ele><time>2026-05-03T08:52:16Z</time></trkpt><trkpt lat="37.7896352" lon="14.5747971"><ele>1006.0</ele><time>2026-05-03T08:52:17Z</time></trkpt><trkpt lat="37.7896483" lon="14.57496"><ele>1006.0</ele><time>2026-05-03T08:52:18Z</time></trkpt><trkpt lat="37.789657" lon="14.5751247"><ele>1006.0</ele><time>2026-05-03T08:52:19Z</time></trkpt><trkpt lat="37.7896729" lon="14.5752897"><ele>1006.0</ele><time>2026-05-03T08:52:20Z</time></trkpt><trkpt lat="37.7897038" lon="14.5754524"><ele>1003.5</ele><time>2026-05-03T08:52:21Z</time></trkpt><trkpt lat="37.789758" lon="14.575605"><ele>1001.0</ele><time>2026-05-03T08:52:22Z</time></trkpt><trkpt lat="37.7898216" lon="14.5757482"><ele>998.5</ele><time>2026-05-03T08:52:23Z</time></trkpt><trkpt lat="37.7898815" lon="14.5758892"><ele>996.0</ele><time>2026-05-03T08:52:24Z</time></trkpt><trkpt lat="37.7899329" lon="14.5760283"><ele>996.0</ele><time>2026-05-03T08:52:25Z</time></trkpt><trkpt lat="37.7899805" lon="14.57617"><ele>996.0</ele><time>2026-05-03T08:52:26Z</time></trkpt><trkpt lat="37.7900167" lon="14.5763161"><ele>996.0</ele><time>2026-05-03T08:52:27Z</time></trkpt><trkpt lat="37.790034" lon="14.5764726"><ele>996.0</ele><time>2026-05-03T08:52:28Z</time></trkpt><trkpt lat="37.7900417" lon="14.5766234"><ele>994.0</ele><time>2026-05-03T08:52:29Z</time></trkpt><trkpt lat="37.7900334" lon="14.5767926"><ele>992.0</ele><time>2026-05-03T08:52:30Z</time></trkpt><trkpt lat="37.7900045" lon="14.5769488"><ele>990.0</ele><time>2026-05-03T08:52:31Z</time></trkpt><trkpt lat="37.7899769" lon="14.5771059"><ele>988.0</ele><time>2026-05-03T08:52:32Z</time></trkpt><trkpt lat="37.7899684" lon="14.5772626"><ele>987.25</ele><time>2026-05-03T08:52:33Z</time></trkpt><trkpt lat="37.7899705" lon="14.577423"><ele>986.5</ele><time>2026-05-03T08:52:34Z</time></trkpt><trkpt lat="37.7899841" lon="14.5775802"><ele>985.75</ele><time>2026-05-03T08:52:35Z</time></trkpt><trkpt lat="37.7900131" lon="14.5777279"><ele>985.0</ele><time>2026-05-03T08:52:36Z</time></trkpt><trkpt lat="37.7900591" lon="14.5778733"><ele>983.5</ele><time>2026-05-03T08:52:37Z</time></trkpt><trkpt lat="37.7901064" lon="14.5780148"><ele>982.0</ele><time>2026-05-03T08:52:38Z</time></trkpt><trkpt lat="37.790156" lon="14.5781591"><ele>980.5</ele><time>2026-05-03T08:52:39Z</time></trkpt><trkpt lat="37.7902083" lon="14.5782961"><ele>979.0</ele><time>2026-05-03T08:52:40Z</time></trkpt><trkpt lat="37.7902517" lon="14.5784278"><ele>981.8000000000001</ele><time>2026-05-03T08:52:41Z</time></trkpt><trkpt lat="37.7902932" lon="14.5785544"><ele>984.6000000000001</ele><time>2026-05-03T08:52:42Z</time></trkpt><trkpt lat="37.7903339" lon="14.5786819"><ele>987.4</ele><time>2026-05-03T08:52:43Z</time></trkpt><trkpt lat="37.7903609" lon="14.5788046"><ele>990.2</ele><time>2026-05-03T08:52:44Z</time></trkpt><trkpt lat="37.7903929" lon="14.578918"><ele>993.0</ele><time>2026-05-03T08:52:45Z</time></trkpt><trkpt lat="37.7904182" lon="14.5790313"><ele>993.0</ele><time>2026-05-03T08:52:46Z</time></trkpt><trkpt lat="37.7904378" lon="14.5791503"><ele>993.0</ele><time>2026-05-03T08:52:47Z</time></trkpt><trkpt lat="37.7904489" lon="14.5792594"><ele>993.0</ele><time>2026-05-03T08:52:48Z</time></trkpt><trkpt lat="37.7904464" lon="14.5793665"><ele>993.0</ele><time>2026-05-03T08:52:49Z</time></trkpt><trkpt lat="37.7904243" lon="14.5794666"><ele>993.0</ele><time>2026-05-03T08:52:50Z</time></trkpt><trkpt lat="37.7903887" lon="14.5795638"><ele>993.0</ele><time>2026-05-03T08:52:51Z</time></trkpt><trkpt lat="37.7903547" lon="14.5796572"><ele>994.1666666666666</ele><time>2026-05-03T08:52:52Z</time></trkpt><trkpt lat="37.7903179" lon="14.5797441"><ele>995.3333333333333</ele><time>2026-05-03T08:52:53Z</time></trkpt><trkpt lat="37.7902803" lon="14.5798341"><ele>996.5</ele><time>2026-05-03T08:52:54Z</time></trkpt><trkpt lat="37.7902423" lon="14.5799273"><ele>997.6666666666666</ele><time>2026-05-03T08:52:55Z</time></trkpt><trkpt lat="37.7902064" lon="14.5800183"><ele>998.8333333333333</ele><time>2026-05-03T08:52:56Z</time></trkpt><trkpt lat="37.7901672" lon="14.5801099"><ele>1000.0</ele><time>2026-05-03T08:52:57Z</time></trkpt><trkpt lat="37.7901257" lon="14.5801998"><ele>998.8333333333333</ele><time>2026-05-03T08:52:58Z</time></trkpt><trkpt lat="37.790087" lon="14.5802909"><ele>997.6666666666666</ele><time>2026-05-03T08:52:59Z</time></trkpt><trkpt lat="37.7900428" lon="14.5803865"><ele>996.5</ele><time>2026-05-03T08:53:00Z</time></trkpt><trkpt lat="37.7900004" lon="14.580478"><ele>995.3333333333333</ele><time>2026-05-03T08:53:01Z</time></trkpt><trkpt lat="37.7899657" lon="14.5805614"><ele>994.1666666666666</ele><time>2026-05-03T08:53:02Z</time></trkpt><trkpt lat="37.7899302" lon="14.5806444"><ele>993.0</ele><time>2026-05-03T08:53:02.999Z</time></trkpt><trkpt lat="37.7898934" lon="14.5807117"><ele>993.0</ele><time>2026-05-03T08:53:04Z</time></trkpt><trkpt lat="37.7898527" lon="14.580779"><ele>993.0</ele><time>2026-05-03T08:53:06Z</time></trkpt><trkpt lat="37.7898364" lon="14.5808642"><ele>993.0</ele><time>2026-05-03T08:53:22Z</time></trkpt><trkpt lat="37.7897997" lon="14.5809756"><ele>993.0</ele><time>2026-05-03T08:53:24Z</time></trkpt><trkpt lat="37.7897552" lon="14.581102"><ele>993.0</ele><time>2026-05-03T08:53:26Z</time></trkpt><trkpt lat="37.7897311" lon="14.5811871"><ele>993.0</ele><time>2026-05-03T08:53:27Z</time></trkpt><trkpt lat="37.7897145" lon="14.5812747"><ele>994.0</ele><time>2026-05-03T08:53:28Z</time></trkpt><trkpt lat="37.7897003" lon="14.5813723"><ele>995.0</ele><time>2026-05-03T08:53:29Z</time></trkpt><trkpt lat="37.7896874" lon="14.5814815"><ele>996.0</ele><time>2026-05-03T08:53:30Z</time></trkpt><trkpt lat="37.7896754" lon="14.581602"><ele>997.0</ele><time>2026-05-03T08:53:31Z</time></trkpt><trkpt lat="37.7896584" lon="14.5817227"><ele>998.0</ele><time>2026-05-03T08:53:32Z</time></trkpt><trkpt lat="37.7896389" lon="14.5818603"><ele>998.0</ele><time>2026-05-03T08:53:33Z</time></trkpt><trkpt lat="37.7896239" lon="14.5820051"><ele>998.0</ele><time>2026-05-03T08:53:34Z</time></trkpt><trkpt lat="37.789605" lon="14.5821419"><ele>998.0</ele><time>2026-05-03T08:53:35Z</time></trkpt><trkpt lat="37.7895948" lon="14.5822736"><ele>998.0</ele><time>2026-05-03T08:53:36Z</time></trkpt><trkpt lat="37.7895932" lon="14.5824107"><ele>998.0</ele><time>2026-05-03T08:53:37Z</time></trkpt><trkpt lat="37.789606" lon="14.5825452"><ele>998.0</ele><time>2026-05-03T08:53:38Z</time></trkpt><trkpt lat="37.7896253" lon="14.5826741"><ele>998.0</ele><time>2026-05-03T08:53:39Z</time></trkpt><trkpt lat="37.7896562" lon="14.5828079"><ele>998.0</ele><time>2026-05-03T08:53:40Z</time></trkpt><trkpt lat="37.7896921" lon="14.5829447"><ele>998.0</ele><time>2026-05-03T08:53:41Z</time></trkpt><trkpt lat="37.789725" lon="14.5830887"><ele>998.0</ele><time>2026-05-03T08:53:42Z</time></trkpt><trkpt lat="37.7897426" lon="14.5832325"><ele>998.0</ele><time>2026-05-03T08:53:43Z</time></trkpt><trkpt lat="37.7897323" lon="14.5833779"><ele>998.0</ele><time>2026-05-03T08:53:44Z</time></trkpt><trkpt lat="37.7897161" lon="14.5835275"><ele>998.0</ele><time>2026-05-03T08:53:45Z</time></trkpt><trkpt lat="37.7896949" lon="14.5836721"><ele>998.0</ele><time>2026-05-03T08:53:46Z</time></trkpt><trkpt lat="37.7896731" lon="14.5838091"><ele>997.4</ele><time>2026-05-03T08:53:47Z</time></trkpt><trkpt lat="37.7896485" lon="14.5839411"><ele>996.8</ele><time>2026-05-03T08:53:48Z</time></trkpt><trkpt lat="37.7896257" lon="14.5840719"><ele>996.2</ele><time>2026-05-03T08:53:49Z</time></trkpt><trkpt lat="37.7896029" lon="14.5841913"><ele>995.6</ele><time>2026-05-03T08:53:50Z</time></trkpt><trkpt lat="37.7895818" lon="14.5842972"><ele>995.0</ele><time>2026-05-03T08:53:51Z</time></trkpt><trkpt lat="37.7895572" lon="14.584395"><ele>995.0</ele><time>2026-05-03T08:53:52Z</time></trkpt><trkpt lat="37.7895425" lon="14.5844955"><ele>995.0</ele><time>2026-05-03T08:53:52.999Z</time></trkpt><trkpt lat="37.7895268" lon="14.5846008"><ele>995.0</ele><time>2026-05-03T08:53:54Z</time></trkpt><trkpt lat="37.7895143" lon="14.5847168"><ele>995.0</ele><time>2026-05-03T08:53:55Z</time></trkpt><trkpt lat="37.7895118" lon="14.5848423"><ele>995.0</ele><time>2026-05-03T08:53:56Z</time></trkpt><trkpt lat="37.7895163" lon="14.5849734"><ele>993.6</ele><time>2026-05-03T08:53:57Z</time></trkpt><trkpt lat="37.7895231" lon="14.5851102"><ele>992.2</ele><time>2026-05-03T08:53:58Z</time></trkpt><trkpt lat="37.7895339" lon="14.5852458"><ele>990.8</ele><time>2026-05-03T08:53:59Z</time></trkpt><trkpt lat="37.789548" lon="14.5853762"><ele>989.4</ele><time>2026-05-03T08:54:00Z</time></trkpt><trkpt lat="37.78956" lon="14.5854978"><ele>988.0</ele><time>2026-05-03T08:54:01Z</time></trkpt><trkpt lat="37.7895709" lon="14.5856107"><ele>987.6666666666666</ele><time>2026-05-03T08:54:02Z</time></trkpt><trkpt lat="37.7895832" lon="14.5857064"><ele>987.3333333333333</ele><time>2026-05-03T08:54:03Z</time></trkpt><trkpt lat="37.7895957" lon="14.5857977"><ele>987.0</ele><time>2026-05-03T08:54:04Z</time></trkpt><trkpt lat="37.7896004" lon="14.5858895"><ele>986.6666666666667</ele><time>2026-05-03T08:54:05Z</time></trkpt><trkpt lat="37.789609" lon="14.5859778"><ele>986.3333333333334</ele><time>2026-05-03T08:54:06Z</time></trkpt><trkpt lat="37.7896103" lon="14.5861165"><ele>986.0</ele><time>2026-05-03T08:54:08Z</time></trkpt><trkpt lat="37.7896161" lon="14.5862059"><ele>983.0</ele><time>2026-05-03T08:54:09.999Z</time></trkpt><trkpt lat="37.7896653" lon="14.5862736"><ele>983.0</ele><time>2026-05-03T08:54:13Z</time></trkpt><trkpt lat="37.7897155" lon="14.5863238"><ele>983.0</ele><time>2026-05-03T08:54:19Z</time></trkpt></trkseg><trkseg><trkpt lat="37.7898394" lon="14.5858552"><ele>986.0000000000001</ele><time>2026-05-03T09:11:03Z</time></trkpt><trkpt lat="37.7898817" lon="14.5857747"><ele>986.0</ele><time>2026-05-03T09:11:04Z</time></trkpt><trkpt lat="37.7899316" lon="14.5856994"><ele>986.0</ele><time>2026-05-03T09:11:05Z</time></trkpt><trkpt lat="37.7899945" lon="14.5856224"><ele>986.0</ele><time>2026-05-03T09:11:06Z</time></trkpt><trkpt lat="37.7900732" lon="14.5855546"><ele>986.0000000000001</ele><time>2026-05-03T09:11:07Z</time></trkpt><trkpt lat="37.7901659" lon="14.5855012"><ele>986.0</ele><time>2026-05-03T09:11:08Z</time></trkpt><trkpt lat="37.7902596" lon="14.585458"><ele>984.5</ele><time>2026-05-03T09:11:09Z</time></trkpt><trkpt lat="37.7903622" lon="14.585424"><ele>983.0</ele><time>2026-05-03T09:11:10Z</time></trkpt><trkpt lat="37.7904772" lon="14.5853947"><ele>981.5</ele><time>2026-05-03T09:11:11Z</time></trkpt><trkpt lat="37.7905977" lon="14.5853793"><ele>980.0</ele><time>2026-05-03T09:11:12Z</time></trkpt><trkpt lat="37.7907245" lon="14.5853951"><ele>980.0</ele><time>2026-05-03T09:11:13Z</time></trkpt><trkpt lat="37.7908399" lon="14.5854464"><ele>980.0</ele><time>2026-05-03T09:11:14Z</time></trkpt><trkpt lat="37.7909397" lon="14.5854938"><ele>980.0</ele><time>2026-05-03T09:11:15Z</time></trkpt><trkpt lat="37.7910428" lon="14.58554"><ele>980.0</ele><time>2026-05-03T09:11:16Z</time></trkpt><trkpt lat="37.7911442" lon="14.5855796"><ele>980.0</ele><time>2026-05-03T09:11:17Z</time></trkpt><trkpt lat="37.7912522" lon="14.5856024"><ele>979.6</ele><time>2026-05-03T09:11:18Z</time></trkpt><trkpt lat="37.7913619" lon="14.5856001"><ele>979.2</ele><time>2026-05-03T09:11:18.999Z</time></trkpt><trkpt lat="37.7914677" lon="14.5855822"><ele>978.8</ele><time>2026-05-03T09:11:20Z</time></trkpt><trkpt lat="37.7915804" lon="14.5855569"><ele>978.4</ele><time>2026-05-03T09:11:21Z</time></trkpt><trkpt lat="37.79169" lon="14.585524"><ele>978.0</ele><time>2026-05-03T09:11:22Z</time></trkpt><trkpt lat="37.7918007" lon="14.5854853"><ele>977.2</ele><time>2026-05-03T09:11:23Z</time></trkpt><trkpt lat="37.7919029" lon="14.5854417"><ele>976.4</ele><time>2026-05-03T09:11:24Z</time></trkpt><trkpt lat="37.7920014" lon="14.585404"><ele>975.6000000000001</ele><time>2026-05-03T09:11:25Z</time></trkpt><trkpt lat="37.7920977" lon="14.5853721"><ele>974.8000000000001</ele><time>2026-05-03T09:11:25.999Z</time></trkpt><trkpt lat="37.7922016" lon="14.5853373"><ele>974.0</ele><time>2026-05-03T09:11:27Z</time></trkpt><trkpt lat="37.7923056" lon="14.5853001"><ele>973.25</ele><time>2026-05-03T09:11:28Z</time></trkpt><trkpt lat="37.7924135" lon="14.5852444"><ele>972.5</ele><time>2026-05-03T09:11:29Z</time></trkpt><trkpt lat="37.7925273" lon="14.5851413"><ele>971.75</ele><time>2026-05-03T09:11:30Z</time></trkpt><trkpt lat="37.7926642" lon="14.5850004"><ele>971.0</ele><time>2026-05-03T09:11:31Z</time></trkpt><trkpt lat="37.7928234" lon="14.5848647"><ele>971.0</ele><time>2026-05-03T09:11:32Z</time></trkpt><trkpt lat="37.7929759" lon="14.5847304"><ele>971.0</ele><time>2026-05-03T09:11:33Z</time></trkpt><trkpt lat="37.7931112" lon="14.5845963"><ele>971.0</ele><time>2026-05-03T09:11:34Z</time></trkpt><trkpt lat="37.7932434" lon="14.584465"><ele>971.0</ele><time>2026-05-03T09:11:35Z</time></trkpt><trkpt lat="37.7933617" lon="14.5843223"><ele>971.0</ele><time>2026-05-03T09:11:36Z</time></trkpt><trkpt lat="37.7934534" lon="14.5841479"><ele>971.0</ele><time>2026-05-03T09:11:37Z</time></trkpt><trkpt lat="37.7935316" lon="14.5839443"><ele>971.0</ele><time>2026-05-03T09:11:38Z</time></trkpt><trkpt lat="37.7935993" lon="14.5837124"><ele>971.0</ele><time>2026-05-03T09:11:39Z</time></trkpt><trkpt lat="37.7936594" lon="14.583486"><ele>971.0</ele><time>2026-05-03T09:11:40Z</time></trkpt><trkpt lat="37.7937176" lon="14.5832884"><ele>971.3333333333334</ele><time>2026-05-03T09:11:41Z</time></trkpt><trkpt lat="37.7938071" lon="14.5831179"><ele>971.6666666666667</ele><time>2026-05-03T09:11:42Z</time></trkpt><trkpt lat="37.7939162" lon="14.5829731"><ele>972.0</ele><time>2026-05-03T09:11:43Z</time></trkpt><trkpt lat="37.7940597" lon="14.5828449"><ele>974.6666666666667</ele><time>2026-05-03T09:11:44Z</time></trkpt><trkpt lat="37.7942521" lon="14.5827489"><ele>977.3333333333334</ele><time>2026-05-03T09:11:45Z</time></trkpt><trkpt lat="37.7944613" lon="14.5826679"><ele>980.0</ele><time>2026-05-03T09:11:46Z</time></trkpt><trkpt lat="37.7946582" lon="14.5825858"><ele>980.0</ele><time>2026-05-03T09:11:47Z</time></trkpt><trkpt lat="37.7948397" lon="14.5825091"><ele>980.0</ele><time>2026-05-03T09:11:48Z</time></trkpt><trkpt lat="37.7950038" lon="14.5824356"><ele>980.0</ele><time>2026-05-03T09:11:49Z</time></trkpt><trkpt lat="37.795149" lon="14.5823391"><ele>978.3333333333334</ele><time>2026-05-03T09:11:50Z</time></trkpt><trkpt lat="37.7952806" lon="14.5822026"><ele>976.6666666666667</ele><time>2026-05-03T09:11:51Z</time></trkpt><trkpt lat="37.7953729" lon="14.5820256"><ele>975.0</ele><time>2026-05-03T09:11:52Z</time></trkpt><trkpt lat="37.7954431" lon="14.5818374"><ele>975.0</ele><time>2026-05-03T09:11:53Z</time></trkpt><trkpt lat="37.7955089" lon="14.5816501"><ele>975.0</ele><time>2026-05-03T09:11:54Z</time></trkpt><trkpt lat="37.7955646" lon="14.5814649"><ele>975.0</ele><time>2026-05-03T09:11:55Z</time></trkpt><trkpt lat="37.7956206" lon="14.5812809"><ele>975.3333333333333</ele><time>2026-05-03T09:11:56Z</time></trkpt><trkpt lat="37.7956768" lon="14.5810984"><ele>975.6666666666666</ele><time>2026-05-03T09:11:57Z</time></trkpt><trkpt lat="37.7957303" lon="14.5809105"><ele>976.0</ele><time>2026-05-03T09:11:58Z</time></trkpt><trkpt lat="37.7957825" lon="14.5807199"><ele>976.0</ele><time>2026-05-03T09:11:59Z</time></trkpt><trkpt lat="37.7958388" lon="14.5805286"><ele>976.0</ele><time>2026-05-03T09:12:00Z</time></trkpt><trkpt lat="37.795897" lon="14.5803345"><ele>976.0</ele><time>2026-05-03T09:12:01Z</time></trkpt><trkpt lat="37.7959568" lon="14.5801439"><ele>975.6666666666666</ele><time>2026-05-03T09:12:02Z</time></trkpt><trkpt lat="37.7960216" lon="14.5799522"><ele>975.3333333333333</ele><time>2026-05-03T09:12:02.999Z</time></trkpt><trkpt lat="37.796085" lon="14.5797629"><ele>975.0</ele><time>2026-05-03T09:12:04Z</time></trkpt><trkpt lat="37.7961468" lon="14.5795642"><ele>976.6666666666667</ele><time>2026-05-03T09:12:05Z</time></trkpt><trkpt lat="37.7962072" lon="14.5793717"><ele>978.3333333333334</ele><time>2026-05-03T09:12:06Z</time></trkpt><trkpt lat="37.7962648" lon="14.5791693"><ele>980.0</ele><time>2026-05-03T09:12:07Z</time></trkpt><trkpt lat="37.7963236" lon="14.578969"><ele>980.0</ele><time>2026-05-03T09:12:08Z</time></trkpt><trkpt lat="37.7963802" lon="14.5787838"><ele>980.0</ele><time>2026-05-03T09:12:09Z</time></trkpt><trkpt lat="37.796451" lon="14.5786072"><ele>980.0</ele><time>2026-05-03T09:12:10Z</time></trkpt><trkpt lat="37.7965486" lon="14.5784444"><ele>980.6666666666667</ele><time>2026-05-03T09:12:11Z</time></trkpt><trkpt lat="37.796663" lon="14.5783026"><ele>981.3333333333333</ele><time>2026-05-03T09:12:12Z</time></trkpt><trkpt lat="37.7967816" lon="14.5781892"><ele>982.0</ele><time>2026-05-03T09:12:13Z</time></trkpt><trkpt lat="37.7969135" lon="14.5780878"><ele>982.0</ele><time>2026-05-03T09:12:14Z</time></trkpt><trkpt lat="37.7970513" lon="14.5779792"><ele>982.0</ele><time>2026-05-03T09:12:15Z</time></trkpt><trkpt lat="37.7971856" lon="14.5778755"><ele>982.0</ele><time>2026-05-03T09:12:16Z</time></trkpt><trkpt lat="37.7973184" lon="14.5777713"><ele>983.0</ele><time>2026-05-03T09:12:16.999Z</time></trkpt><trkpt lat="37.7974516" lon="14.5776605"><ele>984.0</ele><time>2026-05-03T09:12:18Z</time></trkpt><trkpt lat="37.7975884" lon="14.5775489"><ele>985.0</ele><time>2026-05-03T09:12:19Z</time></trkpt><trkpt lat="37.7977128" lon="14.5774428"><ele>984.25</ele><time>2026-05-03T09:12:20Z</time></trkpt><trkpt lat="37.7978178" lon="14.5773262"><ele>983.5</ele><time>2026-05-03T09:12:21Z</time></trkpt><trkpt lat="37.7979013" lon="14.5771904"><ele>982.75</ele><time>2026-05-03T09:12:22Z</time></trkpt><trkpt lat="37.7979626" lon="14.5770386"><ele>982.0</ele><time>2026-05-03T09:12:23Z</time></trkpt><trkpt lat="37.7980127" lon="14.5768711"><ele>982.0</ele><time>2026-05-03T09:12:24Z</time></trkpt><trkpt lat="37.7980495" lon="14.5766884"><ele>982.0</ele><time>2026-05-03T09:12:25Z</time></trkpt><trkpt lat="37.79809" lon="14.5765046"><ele>982.0</ele><time>2026-05-03T09:12:26Z</time></trkpt><trkpt lat="37.7981244" lon="14.5763104"><ele>981.0</ele><time>2026-05-03T09:12:27Z</time></trkpt><trkpt lat="37.7981605" lon="14.5761141"><ele>980.0</ele><time>2026-05-03T09:12:28Z</time></trkpt><trkpt lat="37.7981987" lon="14.5759239"><ele>979.0</ele><time>2026-05-03T09:12:29Z</time></trkpt><trkpt lat="37.7982341" lon="14.5757526"><ele>979.0</ele><time>2026-05-03T09:12:30Z</time></trkpt><trkpt lat="37.7982619" lon="14.57559"><ele>979.0</ele><time>2026-05-03T09:12:31Z</time></trkpt><trkpt lat="37.7982859" lon="14.575434"><ele>979.0</ele><time>2026-05-03T09:12:32Z</time></trkpt><trkpt lat="37.7983133" lon="14.5752808"><ele>979.0</ele><time>2026-05-03T09:12:33Z</time></trkpt><trkpt lat="37.7983446" lon="14.575136"><ele>979.0</ele><time>2026-05-03T09:12:34Z</time></trkpt><trkpt lat="37.7983703" lon="14.5750056"><ele>979.0000000000001</ele><time>2026-05-03T09:12:35Z</time></trkpt><trkpt lat="37.7984145" lon="14.5748907"><ele>979.0000000000001</ele><time>2026-05-03T09:12:36Z</time></trkpt><trkpt lat="37.7984721" lon="14.5748092"><ele>979.0</ele><time>2026-05-03T09:12:37Z</time></trkpt><trkpt lat="37.7985441" lon="14.574754"><ele>979.0</ele><time>2026-05-03T09:12:38Z</time></trkpt><trkpt lat="37.7986267" lon="14.5747207"><ele>978.4000000000001</ele><time>2026-05-03T09:12:39Z</time></trkpt><trkpt lat="37.7987242" lon="14.5746933"><ele>977.8000000000001</ele><time>2026-05-03T09:12:40Z</time></trkpt><trkpt lat="37.7988269" lon="14.5746663"><ele>977.1999999999999</ele><time>2026-05-03T09:12:41Z</time></trkpt><trkpt lat="37.7989322" lon="14.574641"><ele>976.5999999999999</ele><time>2026-05-03T09:12:42Z</time></trkpt><trkpt lat="37.7990504" lon="14.5746024"><ele>976.0</ele><time>2026-05-03T09:12:43Z</time></trkpt><trkpt lat="37.7991735" lon="14.5745684"><ele>976.0</ele><time>2026-05-03T09:12:44Z</time></trkpt><trkpt lat="37.7993054" lon="14.5745475"><ele>976.0</ele><time>2026-05-03T09:12:45Z</time></trkpt><trkpt lat="37.7994342" lon="14.5745153"><ele>976.0</ele><time>2026-05-03T09:12:46Z</time></trkpt><trkpt lat="37.7995679" lon="14.5744782"><ele>976.0</ele><time>2026-05-03T09:12:47Z</time></trkpt><trkpt lat="37.7997021" lon="14.574441"><ele>979.0</ele><time>2026-05-03T09:12:48Z</time></trkpt><trkpt lat="37.7998393" lon="14.5744115"><ele>982.0</ele><time>2026-05-03T09:12:49Z</time></trkpt><trkpt lat="37.7999781" lon="14.5743796"><ele>985.0</ele><time>2026-05-03T09:12:50Z</time></trkpt><trkpt lat="37.8001266" lon="14.5743396"><ele>988.0</ele><time>2026-05-03T09:12:51Z</time></trkpt><trkpt lat="37.8002804" lon="14.5742941"><ele>990.6666666666666</ele><time>2026-05-03T09:12:52Z</time></trkpt><trkpt lat="37.800438" lon="14.574251"><ele>993.3333333333333</ele><time>2026-05-03T09:12:53Z</time></trkpt><trkpt lat="37.8005935" lon="14.5742153"><ele>996.0</ele><time>2026-05-03T09:12:54Z</time></trkpt><trkpt lat="37.8007488" lon="14.5741758"><ele>996.0</ele><time>2026-05-03T09:12:55Z</time></trkpt><trkpt lat="37.8009031" lon="14.574137"><ele>996.0</ele><time>2026-05-03T09:12:55.999Z</time></trkpt><trkpt lat="37.8010643" lon="14.5740956"><ele>996.0</ele><time>2026-05-03T09:12:57Z</time></trkpt><trkpt lat="37.8012268" lon="14.5740565"><ele>998.3333333333333</ele><time>2026-05-03T09:12:58Z</time></trkpt><trkpt lat="37.8013896" lon="14.5740135"><ele>1000.6666666666666</ele><time>2026-05-03T09:12:59Z</time></trkpt><trkpt lat="37.801552" lon="14.573972"><ele>1003.0</ele><time>2026-05-03T09:13:00Z</time></trkpt><trkpt lat="37.8017183" lon="14.5739284"><ele>1006.6666666666666</ele><time>2026-05-03T09:13:01Z</time></trkpt><trkpt lat="37.8018814" lon="14.5738971"><ele>1010.3333333333333</ele><time>2026-05-03T09:13:02Z</time></trkpt><trkpt lat="37.8020475" lon="14.5738522"><ele>1014.0</ele><time>2026-05-03T09:13:03Z</time></trkpt><trkpt lat="37.8022099" lon="14.5738026"><ele>1014.0</ele><time>2026-05-03T09:13:04Z</time></trkpt><trkpt lat="37.8023673" lon="14.5737567"><ele>1014.0</ele><time>2026-05-03T09:13:05Z</time></trkpt><trkpt lat="37.802529" lon="14.5737046"><ele>1014.0</ele><time>2026-05-03T09:13:06Z</time></trkpt><trkpt lat="37.8026898" lon="14.573655"><ele>1017.3333333333333</ele><time>2026-05-03T09:13:07Z</time></trkpt><trkpt lat="37.8028533" lon="14.5736169"><ele>1020.6666666666666</ele><time>2026-05-03T09:13:08Z</time></trkpt><trkpt lat="37.8030178" lon="14.5735727"><ele>1024.0</ele><time>2026-05-03T09:13:08.999Z</time></trkpt><trkpt lat="37.8031831" lon="14.5735234"><ele>1024.0</ele><time>2026-05-03T09:13:10Z</time></trkpt><trkpt lat="37.803351" lon="14.5734798"><ele>1024.0</ele><time>2026-05-03T09:13:11Z</time></trkpt><trkpt lat="37.8035162" lon="14.5734398"><ele>1024.0</ele><time>2026-05-03T09:13:12Z</time></trkpt><trkpt lat="37.8036817" lon="14.5734077"><ele>1027.0</ele><time>2026-05-03T09:13:13Z</time></trkpt><trkpt lat="37.8038446" lon="14.5733843"><ele>1030.0</ele><time>2026-05-03T09:13:14Z</time></trkpt><trkpt lat="37.8040076" lon="14.5733647"><ele>1033.0</ele><time>2026-05-03T09:13:15Z</time></trkpt><trkpt lat="37.8041517" lon="14.5733474"><ele>1033.0</ele><time>2026-05-03T09:13:16Z</time></trkpt><trkpt lat="37.8042817" lon="14.5733551"><ele>1033.0</ele><time>2026-05-03T09:13:17Z</time></trkpt><trkpt lat="37.804403" lon="14.5733746"><ele>1033.0</ele><time>2026-05-03T09:13:18Z</time></trkpt><trkpt lat="37.8045159" lon="14.573419"><ele>1033.0</ele><time>2026-05-03T09:13:19Z</time></trkpt><trkpt lat="37.8046193" lon="14.5735046"><ele>1035.5</ele><time>2026-05-03T09:13:20Z</time></trkpt><trkpt lat="37.8047129" lon="14.57363"><ele>1038.0</ele><time>2026-05-03T09:13:21Z</time></trkpt><trkpt lat="37.8048065" lon="14.5737684"><ele>1040.5</ele><time>2026-05-03T09:13:21.999Z</time></trkpt><trkpt lat="37.8048901" lon="14.5739073"><ele>1043.0</ele><time>2026-05-03T09:13:23Z</time></trkpt><trkpt lat="37.8049763" lon="14.5740482"><ele>1043.0</ele><time>2026-05-03T09:13:24Z</time></trkpt><trkpt lat="37.8050572" lon="14.5741774"><ele>1043.0</ele><time>2026-05-03T09:13:25Z</time></trkpt><trkpt lat="37.8051456" lon="14.5742814"><ele>1043.0</ele><time>2026-05-03T09:13:26Z</time></trkpt><trkpt lat="37.8052376" lon="14.5743407"><ele>1043.0</ele><time>2026-05-03T09:13:27Z</time></trkpt><trkpt lat="37.8053448" lon="14.5743599"><ele>1045.4</ele><time>2026-05-03T09:13:27.999Z</time></trkpt><trkpt lat="37.8054536" lon="14.5743302"><ele>1047.8</ele><time>2026-05-03T09:13:29Z</time></trkpt><trkpt lat="37.8055628" lon="14.5742948"><ele>1050.2</ele><time>2026-05-03T09:13:30Z</time></trkpt><trkpt lat="37.8056737" lon="14.574264"><ele>1052.6</ele><time>2026-05-03T09:13:31Z</time></trkpt><trkpt lat="37.8057818" lon="14.574239"><ele>1055.0</ele><time>2026-05-03T09:13:32Z</time></trkpt><trkpt lat="37.805899" lon="14.5741978"><ele>1056.25</ele><time>2026-05-03T09:13:33Z</time></trkpt><trkpt lat="37.8060255" lon="14.5741574"><ele>1057.5</ele><time>2026-05-03T09:13:33.999Z</time></trkpt><trkpt lat="37.8061532" lon="14.574149"><ele>1058.75</ele><time>2026-05-03T09:13:35Z</time></trkpt><trkpt lat="37.8062872" lon="14.5741672"><ele>1060.0</ele><time>2026-05-03T09:13:36Z</time></trkpt><trkpt lat="37.8064237" lon="14.5741892"><ele>1060.0</ele><time>2026-05-03T09:13:37Z</time></trkpt><trkpt lat="37.8065609" lon="14.5742092"><ele>1060.0</ele><time>2026-05-03T09:13:38Z</time></trkpt><trkpt lat="37.806698" lon="14.5742295"><ele>1060.0</ele><time>2026-05-03T09:13:39Z</time></trkpt><trkpt lat="37.8068316" lon="14.5742473"><ele>1060.0</ele><time>2026-05-03T09:13:40Z</time></trkpt><trkpt lat="37.8069653" lon="14.5742645"><ele>1062.5</ele><time>2026-05-03T09:13:41Z</time></trkpt><trkpt lat="37.8071062" lon="14.574279"><ele>1065.0</ele><time>2026-05-03T09:13:42Z</time></trkpt><trkpt lat="37.807249" lon="14.5742997"><ele>1067.5</ele><time>2026-05-03T09:13:43Z</time></trkpt><trkpt lat="37.8074031" lon="14.5743217"><ele>1070.0</ele><time>2026-05-03T09:13:44Z</time></trkpt><trkpt lat="37.8075628" lon="14.5743461"><ele>1076.0</ele><time>2026-05-03T09:13:45Z</time></trkpt><trkpt lat="37.8077271" lon="14.5743666"><ele>1082.0</ele><time>2026-05-03T09:13:46Z</time></trkpt><trkpt lat="37.8078904" lon="14.5743913"><ele>1088.0</ele><time>2026-05-03T09:13:47Z</time></trkpt><trkpt lat="37.8080581" lon="14.5744243"><ele>1088.0</ele><time>2026-05-03T09:13:48Z</time></trkpt><trkpt lat="37.8082299" lon="14.5744582"><ele>1088.0</ele><time>2026-05-03T09:13:49Z</time></trkpt><trkpt lat="37.8083726" lon="14.5745135"><ele>1088.0</ele><time>2026-05-03T09:13:50Z</time></trkpt><trkpt lat="37.8085118" lon="14.574557"><ele>1089.0</ele><time>2026-05-03T09:13:51Z</time></trkpt><trkpt lat="37.8086474" lon="14.5745793"><ele>1090.0</ele><time>2026-05-03T09:13:52Z</time></trkpt><trkpt lat="37.808754" lon="14.5745629"><ele>1091.0</ele><time>2026-05-03T09:13:53Z</time></trkpt><trkpt lat="37.8088602" lon="14.5745342"><ele>1092.0</ele><time>2026-05-03T09:13:54Z</time></trkpt><trkpt lat="37.8089597" lon="14.5744791"><ele>1092.75</ele><time>2026-05-03T09:13:55Z</time></trkpt><trkpt lat="37.80904" lon="14.5743902"><ele>1093.5</ele><time>2026-05-03T09:13:56Z</time></trkpt><trkpt lat="37.8091035" lon="14.5742753"><ele>1094.25</ele><time>2026-05-03T09:13:57Z</time></trkpt><trkpt lat="37.8091512" lon="14.5741447"><ele>1095.0</ele><time>2026-05-03T09:13:58Z</time></trkpt><trkpt lat="37.8091856" lon="14.5739969"><ele>1095.0</ele><time>2026-05-03T09:13:59Z</time></trkpt><trkpt lat="37.809219" lon="14.5738486"><ele>1095.0</ele><time>2026-05-03T09:14:00Z</time></trkpt><trkpt lat="37.8092472" lon="14.5737134"><ele>1095.0</ele><time>2026-05-03T09:14:01Z</time></trkpt><trkpt lat="37.8092711" lon="14.5735724"><ele>1095.0</ele><time>2026-05-03T09:14:02Z</time></trkpt><trkpt lat="37.8093032" lon="14.5734368"><ele>1091.75</ele><time>2026-05-03T09:14:03Z</time></trkpt><trkpt lat="37.809336" lon="14.5732969"><ele>1088.5</ele><time>2026-05-03T09:14:04Z</time></trkpt><trkpt lat="37.8093607" lon="14.5731532"><ele>1085.25</ele><time>2026-05-03T09:14:05Z</time></trkpt><trkpt lat="37.8093927" lon="14.5730154"><ele>1082.0</ele><time>2026-05-03T09:14:06Z</time></trkpt><trkpt lat="37.809424" lon="14.5728716"><ele>1084.0</ele><time>2026-05-03T09:14:07Z</time></trkpt><trkpt lat="37.809454" lon="14.5727182"><ele>1086.0</ele><time>2026-05-03T09:14:08Z</time></trkpt><trkpt lat="37.8094741" lon="14.5725559"><ele>1088.0</ele><time>2026-05-03T09:14:09Z</time></trkpt><trkpt lat="37.8094757" lon="14.5723883"><ele>1090.0</ele><time>2026-05-03T09:14:10Z</time></trkpt><trkpt lat="37.809473" lon="14.5722351"><ele>1090.0</ele><time>2026-05-03T09:14:11Z</time></trkpt><trkpt lat="37.8094634" lon="14.5720696"><ele>1090.0</ele><time>2026-05-03T09:14:12Z</time></trkpt><trkpt lat="37.8094575" lon="14.5719118"><ele>1090.0</ele><time>2026-05-03T09:14:13Z</time></trkpt><trkpt lat="37.8094506" lon="14.5717403"><ele>1090.0</ele><time>2026-05-03T09:14:14Z</time></trkpt><trkpt lat="37.8094505" lon="14.5715806"><ele>1091.2</ele><time>2026-05-03T09:14:15Z</time></trkpt><trkpt lat="37.8094803" lon="14.5714685"><ele>1092.4</ele><time>2026-05-03T09:14:16Z</time></trkpt><trkpt lat="37.8095303" lon="14.5713651"><ele>1093.6</ele><time>2026-05-03T09:14:17Z</time></trkpt><trkpt lat="37.809602" lon="14.5712712"><ele>1094.8</ele><time>2026-05-03T09:14:18Z</time></trkpt><trkpt lat="37.8096961" lon="14.5711752"><ele>1096.0</ele><time>2026-05-03T09:14:19Z</time></trkpt><trkpt lat="37.8098076" lon="14.5710755"><ele>1097.75</ele><time>2026-05-03T09:14:19.999Z</time></trkpt><trkpt lat="37.8099181" lon="14.5709814"><ele>1099.5</ele><time>2026-05-03T09:14:21Z</time></trkpt><trkpt lat="37.810028" lon="14.5708841"><ele>1101.25</ele><time>2026-05-03T09:14:22Z</time></trkpt><trkpt lat="37.8101375" lon="14.5707882"><ele>1103.0</ele><time>2026-05-03T09:14:23Z</time></trkpt><trkpt lat="37.8102466" lon="14.5706828"><ele>1103.0</ele><time>2026-05-03T09:14:24Z</time></trkpt><trkpt lat="37.810346" lon="14.5705871"><ele>1103.0</ele><time>2026-05-03T09:14:25Z</time></trkpt><trkpt lat="37.810445" lon="14.5704956"><ele>1103.0</ele><time>2026-05-03T09:14:26Z</time></trkpt><trkpt lat="37.8105457" lon="14.5704095"><ele>1103.0</ele><time>2026-05-03T09:14:27Z</time></trkpt><trkpt lat="37.8106262" lon="14.5703317"><ele>1106.8</ele><time>2026-05-03T09:14:28Z</time></trkpt><trkpt lat="37.8106867" lon="14.5702508"><ele>1110.6</ele><time>2026-05-03T09:14:29Z</time></trkpt><trkpt lat="37.8107288" lon="14.5701491"><ele>1114.4</ele><time>2026-05-03T09:14:30Z</time></trkpt><trkpt lat="37.8107616" lon="14.5700381"><ele>1118.2</ele><time>2026-05-03T09:14:31Z</time></trkpt><trkpt lat="37.8107749" lon="14.5699193"><ele>1122.0</ele><time>2026-05-03T09:14:31.998Z</time></trkpt><trkpt lat="37.8107642" lon="14.5698006"><ele>1122.0</ele><time>2026-05-03T09:14:33Z</time></trkpt><trkpt lat="37.8107582" lon="14.5696749"><ele>1122.0</ele><time>2026-05-03T09:14:34Z</time></trkpt><trkpt lat="37.8107367" lon="14.5695372"><ele>1122.0</ele><time>2026-05-03T09:14:35Z</time></trkpt><trkpt lat="37.8107173" lon="14.5694053"><ele>1122.0</ele><time>2026-05-03T09:14:36Z</time></trkpt><trkpt lat="37.8106982" lon="14.5692668"><ele>1122.0</ele><time>2026-05-03T09:14:37Z</time></trkpt><trkpt lat="37.8106734" lon="14.5691296"><ele>1123.0</ele><time>2026-05-03T09:14:38Z</time></trkpt><trkpt lat="37.8106508" lon="14.568992"><ele>1124.0</ele><time>2026-05-03T09:14:39Z</time></trkpt><trkpt lat="37.8106279" lon="14.5688582"><ele>1125.0</ele><time>2026-05-03T09:14:40Z</time></trkpt><trkpt lat="37.8106003" lon="14.5687124"><ele>1126.0</ele><time>2026-05-03T09:14:41Z</time></trkpt><trkpt lat="37.8105765" lon="14.5685745"><ele>1127.0</ele><time>2026-05-03T09:14:42Z</time></trkpt><trkpt lat="37.8105501" lon="14.5684314"><ele>1127.25</ele><time>2026-05-03T09:14:43Z</time></trkpt><trkpt lat="37.8105177" lon="14.5682841"><ele>1127.5</ele><time>2026-05-03T09:14:44Z</time></trkpt><trkpt lat="37.8105" lon="14.5681426"><ele>1127.75</ele><time>2026-05-03T09:14:45Z</time></trkpt><trkpt lat="37.8104927" lon="14.5679944"><ele>1128.0</ele><time>2026-05-03T09:14:46Z</time></trkpt><trkpt lat="37.8104894" lon="14.5678491"><ele>1128.25</ele><time>2026-05-03T09:14:47Z</time></trkpt><trkpt lat="37.8104986" lon="14.5676999"><ele>1128.5</ele><time>2026-05-03T09:14:48Z</time></trkpt><trkpt lat="37.8105098" lon="14.5675435"><ele>1128.75</ele><time>2026-05-03T09:14:49Z</time></trkpt><trkpt lat="37.8105286" lon="14.5673858"><ele>1129.0</ele><time>2026-05-03T09:14:50Z</time></trkpt><trkpt lat="37.8105597" lon="14.5672256"><ele>1129.0</ele><time>2026-05-03T09:14:51Z</time></trkpt><trkpt lat="37.810591" lon="14.5670621"><ele>1129.0</ele><time>2026-05-03T09:14:52Z</time></trkpt><trkpt lat="37.8106215" lon="14.5668986"><ele>1129.0</ele><time>2026-05-03T09:14:53Z</time></trkpt><trkpt lat="37.8106587" lon="14.5667352"><ele>1129.0</ele><time>2026-05-03T09:14:54Z</time></trkpt><trkpt lat="37.8106989" lon="14.5665747"><ele>1131.0</ele><time>2026-05-03T09:14:55Z</time></trkpt><trkpt lat="37.8107569" lon="14.5664264"><ele>1133.0</ele><time>2026-05-03T09:14:56Z</time></trkpt><trkpt lat="37.8108247" lon="14.5662808"><ele>1135.0</ele><time>2026-05-03T09:14:57Z</time></trkpt><trkpt lat="37.8109017" lon="14.5661397"><ele>1137.0</ele><time>2026-05-03T09:14:57.999Z</time></trkpt><trkpt lat="37.8109859" lon="14.5659969"><ele>1136.75</ele><time>2026-05-03T09:14:59Z</time></trkpt><trkpt lat="37.8110734" lon="14.5658528"><ele>1136.5</ele><time>2026-05-03T09:14:59.999Z</time></trkpt><trkpt lat="37.8111541" lon="14.5657078"><ele>1136.25</ele><time>2026-05-03T09:15:01Z</time></trkpt><trkpt lat="37.8112317" lon="14.5655626"><ele>1136.0</ele><time>2026-05-03T09:15:02Z</time></trkpt><trkpt lat="37.8113192" lon="14.5654237"><ele>1137.75</ele><time>2026-05-03T09:15:03Z</time></trkpt><trkpt lat="37.8114064" lon="14.5652859"><ele>1139.5</ele><time>2026-05-03T09:15:04Z</time></trkpt><trkpt lat="37.8114899" lon="14.5651431"><ele>1141.25</ele><time>2026-05-03T09:15:05Z</time></trkpt><trkpt lat="37.8115785" lon="14.5650002"><ele>1143.0</ele><time>2026-05-03T09:15:06Z</time></trkpt><trkpt lat="37.8116671" lon="14.5648519"><ele>1143.0</ele><time>2026-05-03T09:15:07Z</time></trkpt><trkpt lat="37.8117547" lon="14.5647108"><ele>1143.0</ele><time>2026-05-03T09:15:07.999Z</time></trkpt><trkpt lat="37.8118392" lon="14.5645677"><ele>1143.0</ele><time>2026-05-03T09:15:09Z</time></trkpt><trkpt lat="37.8119256" lon="14.5644206"><ele>1143.0</ele><time>2026-05-03T09:15:10Z</time></trkpt><trkpt lat="37.8120084" lon="14.5642735"><ele>1144.25</ele><time>2026-05-03T09:15:11Z</time></trkpt><trkpt lat="37.8120933" lon="14.5641293"><ele>1145.5</ele><time>2026-05-03T09:15:12Z</time></trkpt><trkpt lat="37.8121775" lon="14.5639901"><ele>1146.75</ele><time>2026-05-03T09:15:13Z</time></trkpt><trkpt lat="37.8122666" lon="14.5638544"><ele>1148.0</ele><time>2026-05-03T09:15:14Z</time></trkpt><trkpt lat="37.8123525" lon="14.5637277"><ele>1148.0</ele><time>2026-05-03T09:15:15Z</time></trkpt><trkpt lat="37.8124425" lon="14.5635933"><ele>1148.0</ele><time>2026-05-03T09:15:16Z</time></trkpt><trkpt lat="37.8125376" lon="14.56348"><ele>1148.0</ele><time>2026-05-03T09:15:17Z</time></trkpt><trkpt lat="37.8126229" lon="14.5633622"><ele>1148.0</ele><time>2026-05-03T09:15:18Z</time></trkpt><trkpt lat="37.8126967" lon="14.5632432"><ele>1148.0</ele><time>2026-05-03T09:15:19Z</time></trkpt><trkpt lat="37.8127577" lon="14.5631198"><ele>1148.0</ele><time>2026-05-03T09:15:20Z</time></trkpt><trkpt lat="37.8127974" lon="14.5629878"><ele>1148.0</ele><time>2026-05-03T09:15:21Z</time></trkpt><trkpt lat="37.8128311" lon="14.5628532"><ele>1148.0</ele><time>2026-05-03T09:15:22Z</time></trkpt><trkpt lat="37.8128577" lon="14.5627169"><ele>1148.0</ele><time>2026-05-03T09:15:23Z</time></trkpt><trkpt lat="37.8128882" lon="14.5625866"><ele>1146.8</ele><time>2026-05-03T09:15:24Z</time></trkpt><trkpt lat="37.8129227" lon="14.5624633"><ele>1145.6</ele><time>2026-05-03T09:15:25Z</time></trkpt><trkpt lat="37.8129615" lon="14.562344"><ele>1144.4</ele><time>2026-05-03T09:15:26Z</time></trkpt><trkpt lat="37.8130113" lon="14.5622301"><ele>1143.2</ele><time>2026-05-03T09:15:27Z</time></trkpt><trkpt lat="37.813079" lon="14.5621262"><ele>1142.0</ele><time>2026-05-03T09:15:28Z</time></trkpt><trkpt lat="37.8131644" lon="14.5620331"><ele>1141.2</ele><time>2026-05-03T09:15:29Z</time></trkpt><trkpt lat="37.8132567" lon="14.5619678"><ele>1140.4</ele><time>2026-05-03T09:15:30Z</time></trkpt><trkpt lat="37.8133631" lon="14.5619171"><ele>1139.6</ele><time>2026-05-03T09:15:31Z</time></trkpt><trkpt lat="37.8134639" lon="14.5618525"><ele>1138.8</ele><time>2026-05-03T09:15:32Z</time></trkpt><trkpt lat="37.8135573" lon="14.5617814"><ele>1138.0</ele><time>2026-05-03T09:15:33Z</time></trkpt><trkpt lat="37.8136488" lon="14.5616968"><ele>1135.25</ele><time>2026-05-03T09:15:34Z</time></trkpt><trkpt lat="37.8137308" lon="14.561592"><ele>1132.5</ele><time>2026-05-03T09:15:35Z</time></trkpt><trkpt lat="37.8138092" lon="14.5614831"><ele>1129.75</ele><time>2026-05-03T09:15:36Z</time></trkpt><trkpt lat="37.8138848" lon="14.5613717"><ele>1127.0</ele><time>2026-05-03T09:15:37Z</time></trkpt><trkpt lat="37.8139736" lon="14.561269"><ele>1126.75</ele><time>2026-05-03T09:15:38Z</time></trkpt><trkpt lat="37.8140599" lon="14.5611601"><ele>1126.5</ele><time>2026-05-03T09:15:38.999Z</time></trkpt><trkpt lat="37.8141492" lon="14.561052"><ele>1126.25</ele><time>2026-05-03T09:15:40Z</time></trkpt><trkpt lat="37.8142483" lon="14.5609403"><ele>1126.0</ele><time>2026-05-03T09:15:41Z</time></trkpt><trkpt lat="37.8143625" lon="14.5608199"><ele>1125.25</ele><time>2026-05-03T09:15:42Z</time></trkpt><trkpt lat="37.8144834" lon="14.5607046"><ele>1124.5</ele><time>2026-05-03T09:15:43Z</time></trkpt><trkpt lat="37.8145998" lon="14.560607"><ele>1123.75</ele><time>2026-05-03T09:15:44Z</time></trkpt><trkpt lat="37.8147165" lon="14.5605111"><ele>1123.0</ele><time>2026-05-03T09:15:45Z</time></trkpt><trkpt lat="37.8148346" lon="14.560435"><ele>1123.0</ele><time>2026-05-03T09:15:46Z</time></trkpt><trkpt lat="37.8149686" lon="14.5603784"><ele>1123.0</ele><time>2026-05-03T09:15:47Z</time></trkpt><trkpt lat="37.8151091" lon="14.5603285"><ele>1123.0</ele><time>2026-05-03T09:15:48Z</time></trkpt><trkpt lat="37.8152522" lon="14.5602775"><ele>1123.0</ele><time>2026-05-03T09:15:49Z</time></trkpt><trkpt lat="37.8153896" lon="14.5602254"><ele>1125.0</ele><time>2026-05-03T09:15:50Z</time></trkpt><trkpt lat="37.8155292" lon="14.5601701"><ele>1127.0</ele><time>2026-05-03T09:15:51Z</time></trkpt><trkpt lat="37.8156586" lon="14.5601251"><ele>1129.0</ele><time>2026-05-03T09:15:52Z</time></trkpt><trkpt lat="37.8157911" lon="14.5600853"><ele>1131.0</ele><time>2026-05-03T09:15:53Z</time></trkpt><trkpt lat="37.8159268" lon="14.5600272"><ele>1129.5</ele><time>2026-05-03T09:15:54Z</time></trkpt><trkpt lat="37.8160515" lon="14.5599372"><ele>1128.0</ele><time>2026-05-03T09:15:55Z</time></trkpt><trkpt lat="37.8161709" lon="14.5598495"><ele>1126.5</ele><time>2026-05-03T09:15:56Z</time></trkpt><trkpt lat="37.8162912" lon="14.5597577"><ele>1125.0</ele><time>2026-05-03T09:15:57Z</time></trkpt><trkpt lat="37.8164212" lon="14.5596832"><ele>1125.0</ele><time>2026-05-03T09:15:58Z</time></trkpt><trkpt lat="37.8165613" lon="14.5596191"><ele>1125.0</ele><time>2026-05-03T09:15:59Z</time></trkpt><trkpt lat="37.8167143" lon="14.5595603"><ele>1125.0</ele><time>2026-05-03T09:16:00Z</time></trkpt><trkpt lat="37.8168823" lon="14.5594953"><ele>1131.0</ele><time>2026-05-03T09:16:01Z</time></trkpt><trkpt lat="37.8170425" lon="14.5594169"><ele>1137.0</ele><time>2026-05-03T09:16:02Z</time></trkpt><trkpt lat="37.8171954" lon="14.5593296"><ele>1143.0</ele><time>2026-05-03T09:16:03Z</time></trkpt><trkpt lat="37.8173274" lon="14.5592447"><ele>1143.0</ele><time>2026-05-03T09:16:04Z</time></trkpt><trkpt lat="37.8174598" lon="14.5591502"><ele>1143.0</ele><time>2026-05-03T09:16:05Z</time></trkpt><trkpt lat="37.8175852" lon="14.5590346"><ele>1143.0</ele><time>2026-05-03T09:16:06Z</time></trkpt><trkpt lat="37.8177048" lon="14.5589085"><ele>1141.6666666666667</ele><time>2026-05-03T09:16:07Z</time></trkpt><trkpt lat="37.817821" lon="14.5587822"><ele>1140.3333333333335</ele><time>2026-05-03T09:16:08Z</time></trkpt><trkpt lat="37.8179355" lon="14.5586566"><ele>1139.0</ele><time>2026-05-03T09:16:09Z</time></trkpt><trkpt lat="37.8180525" lon="14.558532"><ele>1139.0</ele><time>2026-05-03T09:16:10Z</time></trkpt><trkpt lat="37.81817" lon="14.5583978"><ele>1139.0</ele><time>2026-05-03T09:16:11Z</time></trkpt><trkpt lat="37.8182813" lon="14.5582646"><ele>1139.0</ele><time>2026-05-03T09:16:12Z</time></trkpt><trkpt lat="37.8183936" lon="14.558127"><ele>1139.25</ele><time>2026-05-03T09:16:13Z</time></trkpt><trkpt lat="37.8185" lon="14.5579915"><ele>1139.5</ele><time>2026-05-03T09:16:14Z</time></trkpt><trkpt lat="37.8186037" lon="14.5578713"><ele>1139.75</ele><time>2026-05-03T09:16:15Z</time></trkpt><trkpt lat="37.8187097" lon="14.5577606"><ele>1140.0</ele><time>2026-05-03T09:16:16Z</time></trkpt><trkpt lat="37.8188323" lon="14.5576852"><ele>1140.0</ele><time>2026-05-03T09:16:17Z</time></trkpt><trkpt lat="37.8189656" lon="14.5576468"><ele>1140.0</ele><time>2026-05-03T09:16:18Z</time></trkpt><trkpt lat="37.8191003" lon="14.5576313"><ele>1140.0</ele><time>2026-05-03T09:16:19Z</time></trkpt><trkpt lat="37.8192353" lon="14.5576239"><ele>1140.0</ele><time>2026-05-03T09:16:20Z</time></trkpt><trkpt lat="37.8193714" lon="14.5576131"><ele>1138.75</ele><time>2026-05-03T09:16:21Z</time></trkpt><trkpt lat="37.8195083" lon="14.5575907"><ele>1137.5</ele><time>2026-05-03T09:16:22Z</time></trkpt><trkpt lat="37.8196487" lon="14.5575496"><ele>1136.25</ele><time>2026-05-03T09:16:23Z</time></trkpt><trkpt lat="37.8197805" lon="14.5574942"><ele>1135.0</ele><time>2026-05-03T09:16:24Z</time></trkpt><trkpt lat="37.8199028" lon="14.5574391"><ele>1135.0</ele><time>2026-05-03T09:16:25Z</time></trkpt><trkpt lat="37.8200199" lon="14.5573917"><ele>1135.0</ele><time>2026-05-03T09:16:26Z</time></trkpt><trkpt lat="37.8201318" lon="14.5573455"><ele>1135.0</ele><time>2026-05-03T09:16:27Z</time></trkpt><trkpt lat="37.8202526" lon="14.5573135"><ele>1135.0</ele><time>2026-05-03T09:16:28Z</time></trkpt><trkpt lat="37.8203774" lon="14.5573149"><ele>1132.5</ele><time>2026-05-03T09:16:29Z</time></trkpt><trkpt lat="37.8205008" lon="14.55734"><ele>1130.0</ele><time>2026-05-03T09:16:30Z</time></trkpt><trkpt lat="37.8206256" lon="14.5573711"><ele>1127.5</ele><time>2026-05-03T09:16:31Z</time></trkpt><trkpt lat="37.8207501" lon="14.5573921"><ele>1125.0</ele><time>2026-05-03T09:16:32Z</time></trkpt><trkpt lat="37.8208692" lon="14.5574089"><ele>1122.25</ele><time>2026-05-03T09:16:33Z</time></trkpt><trkpt lat="37.8209897" lon="14.5574207"><ele>1119.5</ele><time>2026-05-03T09:16:34Z</time></trkpt><trkpt lat="37.8211066" lon="14.5574185"><ele>1116.75</ele><time>2026-05-03T09:16:35Z</time></trkpt><trkpt lat="37.821224" lon="14.5574142"><ele>1114.0</ele><time>2026-05-03T09:16:36Z</time></trkpt><trkpt lat="37.82134" lon="14.5574025"><ele>1114.0</ele><time>2026-05-03T09:16:37Z</time></trkpt><trkpt lat="37.8214519" lon="14.5573918"><ele>1114.0</ele><time>2026-05-03T09:16:38Z</time></trkpt><trkpt lat="37.8215638" lon="14.5573838"><ele>1114.0</ele><time>2026-05-03T09:16:39Z</time></trkpt><trkpt lat="37.8216785" lon="14.5573723"><ele>1114.0</ele><time>2026-05-03T09:16:40Z</time></trkpt><trkpt lat="37.8217868" lon="14.5573756"><ele>1114.0</ele><time>2026-05-03T09:16:41Z</time></trkpt><trkpt lat="37.8219034" lon="14.5573853"><ele>1111.0</ele><time>2026-05-03T09:16:42Z</time></trkpt><trkpt lat="37.8220104" lon="14.5574077"><ele>1108.0</ele><time>2026-05-03T09:16:43Z</time></trkpt><trkpt lat="37.8221156" lon="14.5574355"><ele>1105.0</ele><time>2026-05-03T09:16:44Z</time></trkpt><trkpt lat="37.8222199" lon="14.5574692"><ele>1102.0</ele><time>2026-05-03T09:16:45Z</time></trkpt><trkpt lat="37.8223256" lon="14.5575174"><ele>1099.0</ele><time>2026-05-03T09:16:46Z</time></trkpt><trkpt lat="37.822425" lon="14.5575545"><ele>1099.0</ele><time>2026-05-03T09:16:47Z</time></trkpt><trkpt lat="37.8225244" lon="14.5575985"><ele>1099.0</ele><time>2026-05-03T09:16:48Z</time></trkpt><trkpt lat="37.8226271" lon="14.5576385"><ele>1099.0</ele><time>2026-05-03T09:16:48.999Z</time></trkpt><trkpt lat="37.8227355" lon="14.5576841"><ele>1099.0</ele><time>2026-05-03T09:16:50Z</time></trkpt><trkpt lat="37.8228394" lon="14.557719"><ele>1099.0</ele><time>2026-05-03T09:16:51Z</time></trkpt><trkpt lat="37.8229431" lon="14.5577514"><ele>1097.25</ele><time>2026-05-03T09:16:52Z</time></trkpt><trkpt lat="37.8230565" lon="14.5577889"><ele>1095.5</ele><time>2026-05-03T09:16:53Z</time></trkpt><trkpt lat="37.8231625" lon="14.5578226"><ele>1093.75</ele><time>2026-05-03T09:16:54Z</time></trkpt><trkpt lat="37.823279" lon="14.5578484"><ele>1092.0</ele><time>2026-05-03T09:16:55Z</time></trkpt><trkpt lat="37.823393" lon="14.5578734"><ele>1091.5</ele><time>2026-05-03T09:16:56Z</time></trkpt><trkpt lat="37.8235085" lon="14.5578831"><ele>1091.0</ele><time>2026-05-03T09:16:57Z</time></trkpt><trkpt lat="37.8236301" lon="14.5578884"><ele>1090.5</ele><time>2026-05-03T09:16:58Z</time></trkpt><trkpt lat="37.8237499" lon="14.5578885"><ele>1090.0</ele><time>2026-05-03T09:16:59Z</time></trkpt><trkpt lat="37.8238734" lon="14.5578924"><ele>1090.0</ele><time>2026-05-03T09:17:00Z</time></trkpt><trkpt lat="37.8240031" lon="14.5578836"><ele>1090.0</ele><time>2026-05-03T09:17:01Z</time></trkpt><trkpt lat="37.8241259" lon="14.5578668"><ele>1090.0</ele><time>2026-05-03T09:17:02Z</time></trkpt><trkpt lat="37.8242543" lon="14.5578472"><ele>1090.0</ele><time>2026-05-03T09:17:03Z</time></trkpt><trkpt lat="37.8243777" lon="14.5578093"><ele>1090.0</ele><time>2026-05-03T09:17:04Z</time></trkpt><trkpt lat="37.8244984" lon="14.557771"><ele>1090.0</ele><time>2026-05-03T09:17:05Z</time></trkpt><trkpt lat="37.8246195" lon="14.5577294"><ele>1090.0</ele><time>2026-05-03T09:17:06Z</time></trkpt><trkpt lat="37.8247415" lon="14.5577018"><ele>1090.0</ele><time>2026-05-03T09:17:07Z</time></trkpt><trkpt lat="37.8248567" lon="14.5576869"><ele>1090.0</ele><time>2026-05-03T09:17:08Z</time></trkpt><trkpt lat="37.8249725" lon="14.5577036"><ele>1090.0</ele><time>2026-05-03T09:17:09Z</time></trkpt><trkpt lat="37.8250833" lon="14.5577539"><ele>1090.0</ele><time>2026-05-03T09:17:10Z</time></trkpt><trkpt lat="37.82518" lon="14.5578386"><ele>1090.0</ele><time>2026-05-03T09:17:11Z</time></trkpt><trkpt lat="37.8252664" lon="14.5579417"><ele>1089.2</ele><time>2026-05-03T09:17:12Z</time></trkpt><trkpt lat="37.8253425" lon="14.5580497"><ele>1088.4</ele><time>2026-05-03T09:17:13Z</time></trkpt><trkpt lat="37.825419" lon="14.5581562"><ele>1087.6</ele><time>2026-05-03T09:17:14Z</time></trkpt><trkpt lat="37.8254929" lon="14.5582548"><ele>1086.8</ele><time>2026-05-03T09:17:15Z</time></trkpt><trkpt lat="37.8255605" lon="14.5583615"><ele>1086.0</ele><time>2026-05-03T09:17:16Z</time></trkpt><trkpt lat="37.825639" lon="14.5584748"><ele>1086.0</ele><time>2026-05-03T09:17:17Z</time></trkpt><trkpt lat="37.825722" lon="14.5585807"><ele>1086.0</ele><time>2026-05-03T09:17:18Z</time></trkpt><trkpt lat="37.825806" lon="14.558695"><ele>1086.0</ele><time>2026-05-03T09:17:19Z</time></trkpt><trkpt lat="37.8258851" lon="14.5588066"><ele>1086.0</ele><time>2026-05-03T09:17:20Z</time></trkpt><trkpt lat="37.8259681" lon="14.5589155"><ele>1086.0</ele><time>2026-05-03T09:17:21Z</time></trkpt><trkpt lat="37.8260494" lon="14.5590225"><ele>1086.0</ele><time>2026-05-03T09:17:22Z</time></trkpt><trkpt lat="37.8261435" lon="14.5591181"><ele>1086.0</ele><time>2026-05-03T09:17:23Z</time></trkpt><trkpt lat="37.8262406" lon="14.5592123"><ele>1086.0</ele><time>2026-05-03T09:17:24Z</time></trkpt><trkpt lat="37.8263351" lon="14.559304"><ele>1086.0</ele><time>2026-05-03T09:17:25Z</time></trkpt><trkpt lat="37.8264354" lon="14.5593878"><ele>1086.0</ele><time>2026-05-03T09:17:26Z</time></trkpt><trkpt lat="37.8265413" lon="14.5594776"><ele>1086.0</ele><time>2026-05-03T09:17:27Z</time></trkpt><trkpt lat="37.8266548" lon="14.5595646"><ele>1086.0</ele><time>2026-05-03T09:17:28Z</time></trkpt><trkpt lat="37.8267639" lon="14.5596545"><ele>1089.0</ele><time>2026-05-03T09:17:29Z</time></trkpt><trkpt lat="37.8268708" lon="14.5597503"><ele>1092.0</ele><time>2026-05-03T09:17:30Z</time></trkpt><trkpt lat="37.8269742" lon="14.5598464"><ele>1095.0</ele><time>2026-05-03T09:17:31Z</time></trkpt><trkpt lat="37.8270808" lon="14.5599412"><ele>1098.0</ele><time>2026-05-03T09:17:32Z</time></trkpt><trkpt lat="37.827185" lon="14.5600373"><ele>1098.0</ele><time>2026-05-03T09:17:33Z</time></trkpt><trkpt lat="37.8272918" lon="14.5601346"><ele>1098.0</ele><time>2026-05-03T09:17:34Z</time></trkpt><trkpt lat="37.8274043" lon="14.5602431"><ele>1098.0</ele><time>2026-05-03T09:17:35Z</time></trkpt><trkpt lat="37.8275123" lon="14.560355"><ele>1098.0</ele><time>2026-05-03T09:17:35.999Z</time></trkpt><trkpt lat="37.8276205" lon="14.5604725"><ele>1099.75</ele><time>2026-05-03T09:17:37Z</time></trkpt><trkpt lat="37.8277268" lon="14.5605916"><ele>1101.5</ele><time>2026-05-03T09:17:38Z</time></trkpt><trkpt lat="37.8278388" lon="14.560708"><ele>1103.25</ele><time>2026-05-03T09:17:39Z</time></trkpt><trkpt lat="37.8279399" lon="14.5608214"><ele>1105.0</ele><time>2026-05-03T09:17:40Z</time></trkpt><trkpt lat="37.8280432" lon="14.5609335"><ele>1105.0</ele><time>2026-05-03T09:17:41Z</time></trkpt><trkpt lat="37.8281523" lon="14.5610438"><ele>1105.0</ele><time>2026-05-03T09:17:42Z</time></trkpt><trkpt lat="37.8282569" lon="14.5611527"><ele>1105.0</ele><time>2026-05-03T09:17:43Z</time></trkpt><trkpt lat="37.8283514" lon="14.5612524"><ele>1105.0</ele><time>2026-05-03T09:17:44Z</time></trkpt><trkpt lat="37.8284396" lon="14.561351"><ele>1103.0</ele><time>2026-05-03T09:17:45Z</time></trkpt><trkpt lat="37.8285107" lon="14.5614557"><ele>1101.0</ele><time>2026-05-03T09:17:46Z</time></trkpt><trkpt lat="37.8285516" lon="14.5615728"><ele>1099.0</ele><time>2026-05-03T09:17:47Z</time></trkpt><trkpt lat="37.828591" lon="14.5616969"><ele>1097.0</ele><time>2026-05-03T09:17:48Z</time></trkpt><trkpt lat="37.8285661" lon="14.5618489"><ele>1095.0</ele><time>2026-05-03T09:17:49Z</time></trkpt><trkpt lat="37.8285629" lon="14.5620013"><ele>1092.5</ele><time>2026-05-03T09:17:50Z</time></trkpt><trkpt lat="37.8285542" lon="14.5621639"><ele>1090.0</ele><time>2026-05-03T09:17:51Z</time></trkpt><trkpt lat="37.8285455" lon="14.5623277"><ele>1087.5</ele><time>2026-05-03T09:17:52Z</time></trkpt><trkpt lat="37.8285304" lon="14.562499"><ele>1085.0</ele><time>2026-05-03T09:17:53Z</time></trkpt><trkpt lat="37.8285058" lon="14.5626706"><ele>1085.0</ele><time>2026-05-03T09:17:54Z</time></trkpt><trkpt lat="37.8285015" lon="14.5628459"><ele>1085.0</ele><time>2026-05-03T09:17:55Z</time></trkpt><trkpt lat="37.8285097" lon="14.5630174"><ele>1085.0</ele><time>2026-05-03T09:17:56Z</time></trkpt><trkpt lat="37.8285132" lon="14.5631901"><ele>1085.0</ele><time>2026-05-03T09:17:57Z</time></trkpt><trkpt lat="37.8285201" lon="14.5633483"><ele>1081.25</ele><time>2026-05-03T09:17:57.999Z</time></trkpt><trkpt lat="37.828519" lon="14.5635096"><ele>1077.5</ele><time>2026-05-03T09:17:59Z</time></trkpt><trkpt lat="37.828518" lon="14.5636704"><ele>1073.75</ele><time>2026-05-03T09:18:00Z</time></trkpt><trkpt lat="37.8285147" lon="14.5638368"><ele>1070.0</ele><time>2026-05-03T09:18:01Z</time></trkpt><trkpt lat="37.8284968" lon="14.5639983"><ele>1074.0</ele><time>2026-05-03T09:18:02Z</time></trkpt><trkpt lat="37.8284716" lon="14.5641619"><ele>1078.0</ele><time>2026-05-03T09:18:03Z</time></trkpt><trkpt lat="37.8284561" lon="14.5643229"><ele>1082.0</ele><time>2026-05-03T09:18:04Z</time></trkpt><trkpt lat="37.8284487" lon="14.5644798"><ele>1086.0</ele><time>2026-05-03T09:18:05Z</time></trkpt><trkpt lat="37.8284504" lon="14.5646398"><ele>1086.0</ele><time>2026-05-03T09:18:06Z</time></trkpt><trkpt lat="37.8284724" lon="14.5647953"><ele>1086.0</ele><time>2026-05-03T09:18:07Z</time></trkpt><trkpt lat="37.82851" lon="14.5649551"><ele>1086.0</ele><time>2026-05-03T09:18:08Z</time></trkpt><trkpt lat="37.8285369" lon="14.5651114"><ele>1086.0</ele><time>2026-05-03T09:18:09Z</time></trkpt><trkpt lat="37.8285584" lon="14.5652625"><ele>1075.75</ele><time>2026-05-03T09:18:10Z</time></trkpt><trkpt lat="37.828578" lon="14.5654147"><ele>1065.5</ele><time>2026-05-03T09:18:11Z</time></trkpt><trkpt lat="37.8285718" lon="14.565571"><ele>1055.25</ele><time>2026-05-03T09:18:12Z</time></trkpt><trkpt lat="37.8285433" lon="14.5657201"><ele>1045.0</ele><time>2026-05-03T09:18:13Z</time></trkpt><trkpt lat="37.8285073" lon="14.5658706"><ele>1053.0</ele><time>2026-05-03T09:18:14Z</time></trkpt><trkpt lat="37.8284613" lon="14.5660319"><ele>1061.0</ele><time>2026-05-03T09:18:15Z</time></trkpt><trkpt lat="37.8284221" lon="14.5661887"><ele>1069.0</ele><time>2026-05-03T09:18:16Z</time></trkpt><trkpt lat="37.8283839" lon="14.5663494"><ele>1077.0</ele><time>2026-05-03T09:18:17Z</time></trkpt><trkpt lat="37.8283529" lon="14.5665198"><ele>1077.0</ele><time>2026-05-03T09:18:18Z</time></trkpt><trkpt lat="37.8283445" lon="14.5666841"><ele>1077.0</ele><time>2026-05-03T09:18:19Z</time></trkpt><trkpt lat="37.8283419" lon="14.5668528"><ele>1077.0</ele><time>2026-05-03T09:18:20Z</time></trkpt><trkpt lat="37.8283336" lon="14.5670044"><ele>1077.0</ele><time>2026-05-03T09:18:21Z</time></trkpt><trkpt lat="37.8283382" lon="14.5671618"><ele>1076.0</ele><time>2026-05-03T09:18:22Z</time></trkpt><trkpt lat="37.8283464" lon="14.5673036"><ele>1075.0</ele><time>2026-05-03T09:18:23Z</time></trkpt><trkpt lat="37.8283479" lon="14.5674403"><ele>1074.0</ele><time>2026-05-03T09:18:24Z</time></trkpt><trkpt lat="37.8283654" lon="14.567553"><ele>1073.0</ele><time>2026-05-03T09:18:25Z</time></trkpt><trkpt lat="37.8283811" lon="14.5676368"><ele>1072.0</ele><time>2026-05-03T09:18:26Z</time></trkpt><trkpt lat="37.8284663" lon="14.5677274"><ele>1063.4</ele><time>2026-05-03T09:18:28Z</time></trkpt><trkpt lat="37.8285749" lon="14.5676739"><ele>1054.8000000000002</ele><time>2026-05-03T09:18:30Z</time></trkpt><trkpt lat="37.8285975" lon="14.5675881"><ele>1046.2</ele><time>2026-05-03T09:18:31Z</time></trkpt><trkpt lat="37.8286031" lon="14.5674792"><ele>1037.6000000000001</ele><time>2026-05-03T09:18:32Z</time></trkpt><trkpt lat="37.8286013" lon="14.5673533"><ele>1029.0</ele><time>2026-05-03T09:18:33Z</time></trkpt><trkpt lat="37.8285968" lon="14.5672221"><ele>1029.0</ele><time>2026-05-03T09:18:34Z</time></trkpt><trkpt lat="37.8285932" lon="14.5670853"><ele>1029.0</ele><time>2026-05-03T09:18:35Z</time></trkpt><trkpt lat="37.8285984" lon="14.5669448"><ele>1029.0</ele><time>2026-05-03T09:18:36Z</time></trkpt><trkpt lat="37.8286194" lon="14.5668076"><ele>1029.0</ele><time>2026-05-03T09:18:37Z</time></trkpt><trkpt lat="37.8286568" lon="14.56668"><ele>1029.0</ele><time>2026-05-03T09:18:38Z</time></trkpt><trkpt lat="37.82871" lon="14.5665544"><ele>1030.0</ele><time>2026-05-03T09:18:39Z</time></trkpt><trkpt lat="37.8287744" lon="14.5664214"><ele>1031.0</ele><time>2026-05-03T09:18:40Z</time></trkpt><trkpt lat="37.8288366" lon="14.566289"><ele>1032.0</ele><time>2026-05-03T09:18:41Z</time></trkpt><trkpt lat="37.8288978" lon="14.5661614"><ele>1033.0</ele><time>2026-05-03T09:18:42Z</time></trkpt><trkpt lat="37.8289605" lon="14.566039"><ele>1036.0</ele><time>2026-05-03T09:18:43Z</time></trkpt><trkpt lat="37.8290222" lon="14.5659146"><ele>1039.0</ele><time>2026-05-03T09:18:44Z</time></trkpt><trkpt lat="37.829076" lon="14.565781"><ele>1042.0</ele><time>2026-05-03T09:18:45Z</time></trkpt><trkpt lat="37.8291343" lon="14.5656429"><ele>1045.0</ele><time>2026-05-03T09:18:46Z</time></trkpt><trkpt lat="37.8291817" lon="14.5655092"><ele>1045.0</ele><time>2026-05-03T09:18:47Z</time></trkpt><trkpt lat="37.8292162" lon="14.5653706"><ele>1045.0</ele><time>2026-05-03T09:18:47.999Z</time></trkpt><trkpt lat="37.8292389" lon="14.565221"><ele>1045.0</ele><time>2026-05-03T09:18:49Z</time></trkpt><trkpt lat="37.8292526" lon="14.5650632"><ele>1045.0</ele><time>2026-05-03T09:18:50Z</time></trkpt><trkpt lat="37.8292671" lon="14.5649126"><ele>1046.2</ele><time>2026-05-03T09:18:51Z</time></trkpt><trkpt lat="37.8292683" lon="14.5647719"><ele>1047.4</ele><time>2026-05-03T09:18:52Z</time></trkpt><trkpt lat="37.8292741" lon="14.5646328"><ele>1048.6</ele><time>2026-05-03T09:18:53Z</time></trkpt><trkpt lat="37.8292911" lon="14.5645116"><ele>1049.8</ele><time>2026-05-03T09:18:54Z</time></trkpt><trkpt lat="37.829325" lon="14.5644097"><ele>1051.0</ele><time>2026-05-03T09:18:55Z</time></trkpt><trkpt lat="37.8293918" lon="14.5643298"><ele>1047.2</ele><time>2026-05-03T09:18:56Z</time></trkpt><trkpt lat="37.8294749" lon="14.5642636"><ele>1043.3999999999999</ele><time>2026-05-03T09:18:57Z</time></trkpt><trkpt lat="37.8295627" lon="14.5641961"><ele>1039.6</ele><time>2026-05-03T09:18:58Z</time></trkpt><trkpt lat="37.829657" lon="14.5641391"><ele>1035.8</ele><time>2026-05-03T09:18:59Z</time></trkpt><trkpt lat="37.8297539" lon="14.5640777"><ele>1032.0</ele><time>2026-05-03T09:19:00Z</time></trkpt><trkpt lat="37.8298523" lon="14.5639985"><ele>1032.0</ele><time>2026-05-03T09:19:01Z</time></trkpt><trkpt lat="37.8299383" lon="14.5639189"><ele>1032.0</ele><time>2026-05-03T09:19:02Z</time></trkpt><trkpt lat="37.8300191" lon="14.5638465"><ele>1032.0</ele><time>2026-05-03T09:19:03Z</time></trkpt><trkpt lat="37.8301097" lon="14.5638054"><ele>1032.0</ele><time>2026-05-03T09:19:04Z</time></trkpt><trkpt lat="37.8301991" lon="14.5638043"><ele>1032.0</ele><time>2026-05-03T09:19:05Z</time></trkpt><trkpt lat="37.8302885" lon="14.5638352"><ele>1030.2</ele><time>2026-05-03T09:19:06Z</time></trkpt><trkpt lat="37.8303803" lon="14.5638783"><ele>1028.4</ele><time>2026-05-03T09:19:07Z</time></trkpt><trkpt lat="37.8304611" lon="14.563921"><ele>1026.6</ele><time>2026-05-03T09:19:08Z</time></trkpt><trkpt lat="37.8305339" lon="14.5639755"><ele>1024.8</ele><time>2026-05-03T09:19:09Z</time></trkpt><trkpt lat="37.8305675" lon="14.5640908"><ele>1023.0</ele><time>2026-05-03T09:19:11Z</time></trkpt><trkpt lat="37.830469" lon="14.564097"><ele>1023.0</ele><time>2026-05-03T09:19:13Z</time></trkpt><trkpt lat="37.8303987" lon="14.5640491"><ele>1023.0</ele><time>2026-05-03T09:19:14Z</time></trkpt><trkpt lat="37.8303163" lon="14.5639964"><ele>1023.0</ele><time>2026-05-03T09:19:15Z</time></trkpt><trkpt lat="37.8302246" lon="14.5639608"><ele>1023.0</ele><time>2026-05-03T09:19:16Z</time></trkpt><trkpt lat="37.830137" lon="14.5639619"><ele>1023.0</ele><time>2026-05-03T09:19:17Z</time></trkpt><trkpt lat="37.8300487" lon="14.5640071"><ele>1025.25</ele><time>2026-05-03T09:19:18Z</time></trkpt><trkpt lat="37.8299631" lon="14.5640877"><ele>1027.5</ele><time>2026-05-03T09:19:19Z</time></trkpt><trkpt lat="37.8298633" lon="14.5641891"><ele>1029.75</ele><time>2026-05-03T09:19:19.999Z</time></trkpt><trkpt lat="37.829766" lon="14.5642902"><ele>1032.0</ele><time>2026-05-03T09:19:21Z</time></trkpt><trkpt lat="37.8296869" lon="14.5643818"><ele>1032.0</ele><time>2026-05-03T09:19:22Z</time></trkpt><trkpt lat="37.8296331" lon="14.5644754"><ele>1032.0</ele><time>2026-05-03T09:19:23Z</time></trkpt><trkpt lat="37.8296142" lon="14.5645762"><ele>1032.0</ele><time>2026-05-03T09:19:24Z</time></trkpt><trkpt lat="37.8296381" lon="14.5646951"><ele>1032.0</ele><time>2026-05-03T09:19:25Z</time></trkpt><trkpt lat="37.8296816" lon="14.5648256"><ele>1032.0</ele><time>2026-05-03T09:19:26Z</time></trkpt><trkpt lat="37.829729" lon="14.5649699"><ele>1028.5</ele><time>2026-05-03T09:19:27Z</time></trkpt><trkpt lat="37.8297788" lon="14.5651215"><ele>1025.0</ele><time>2026-05-03T09:19:28Z</time></trkpt><trkpt lat="37.8298231" lon="14.5652734"><ele>1021.5</ele><time>2026-05-03T09:19:29Z</time></trkpt><trkpt lat="37.8298595" lon="14.5654238"><ele>1018.0</ele><time>2026-05-03T09:19:30Z</time></trkpt><trkpt lat="37.829875" lon="14.5655888"><ele>1016.75</ele><time>2026-05-03T09:19:31Z</time></trkpt><trkpt lat="37.8298778" lon="14.565758"><ele>1015.5</ele><time>2026-05-03T09:19:32Z</time></trkpt><trkpt lat="37.8298849" lon="14.5659218"><ele>1014.25</ele><time>2026-05-03T09:19:33Z</time></trkpt><trkpt lat="37.8298908" lon="14.5660896"><ele>1013.0</ele><time>2026-05-03T09:19:34Z</time></trkpt><trkpt lat="37.8299012" lon="14.566246"><ele>1010.75</ele><time>2026-05-03T09:19:35Z</time></trkpt><trkpt lat="37.8299013" lon="14.5663988"><ele>1008.5</ele><time>2026-05-03T09:19:36Z</time></trkpt><trkpt lat="37.8298761" lon="14.5665437"><ele>1006.25</ele><time>2026-05-03T09:19:37Z</time></trkpt><trkpt lat="37.8298126" lon="14.5666591"><ele>1004.0</ele><time>2026-05-03T09:19:38Z</time></trkpt><trkpt lat="37.8297296" lon="14.5667519"><ele>1004.0</ele><time>2026-05-03T09:19:39Z</time></trkpt><trkpt lat="37.8296484" lon="14.5668425"><ele>1004.0000000000001</ele><time>2026-05-03T09:19:40Z</time></trkpt><trkpt lat="37.8295932" lon="14.5669574"><ele>1004.0000000000001</ele><time>2026-05-03T09:19:41Z</time></trkpt><trkpt lat="37.8295745" lon="14.567094"><ele>1004.0</ele><time>2026-05-03T09:19:42Z</time></trkpt><trkpt lat="37.8295674" lon="14.5672274"><ele>1004.0</ele><time>2026-05-03T09:19:43Z</time></trkpt><trkpt lat="37.8295652" lon="14.5673735"><ele>1001.0</ele><time>2026-05-03T09:19:44Z</time></trkpt><trkpt lat="37.8295603" lon="14.5675362"><ele>998.0</ele><time>2026-05-03T09:19:45Z</time></trkpt><trkpt lat="37.8295421" lon="14.5677038"><ele>995.0</ele><time>2026-05-03T09:19:46Z</time></trkpt><trkpt lat="37.8295187" lon="14.5678746"><ele>992.0</ele><time>2026-05-03T09:19:47Z</time></trkpt><trkpt lat="37.8294899" lon="14.5680523"><ele>989.25</ele><time>2026-05-03T09:19:48Z</time></trkpt><trkpt lat="37.8294643" lon="14.5682421"><ele>986.5</ele><time>2026-05-03T09:19:49Z</time></trkpt><trkpt lat="37.8294307" lon="14.5684169"><ele>983.75</ele><time>2026-05-03T09:19:50Z</time></trkpt><trkpt lat="37.8293978" lon="14.5685818"><ele>981.0</ele><time>2026-05-03T09:19:51Z</time></trkpt><trkpt lat="37.8293784" lon="14.5687413"><ele>980.5</ele><time>2026-05-03T09:19:52Z</time></trkpt><trkpt lat="37.8293863" lon="14.568911"><ele>980.0</ele><time>2026-05-03T09:19:53Z</time></trkpt><trkpt lat="37.8294168" lon="14.5690973"><ele>979.5</ele><time>2026-05-03T09:19:54Z</time></trkpt><trkpt lat="37.8294527" lon="14.5692926"><ele>979.0</ele><time>2026-05-03T09:19:55Z</time></trkpt><trkpt lat="37.8294943" lon="14.5694749"><ele>980.0</ele><time>2026-05-03T09:19:56Z</time></trkpt><trkpt lat="37.8295348" lon="14.569641"><ele>981.0</ele><time>2026-05-03T09:19:57Z</time></trkpt><trkpt lat="37.8295723" lon="14.5698019"><ele>982.0</ele><time>2026-05-03T09:19:58Z</time></trkpt><trkpt lat="37.8296128" lon="14.5699395"><ele>983.0</ele><time>2026-05-03T09:19:59Z</time></trkpt><trkpt lat="37.829673" lon="14.5700518"><ele>983.0</ele><time>2026-05-03T09:20:00Z</time></trkpt><trkpt lat="37.8297631" lon="14.5701327"><ele>983.0</ele><time>2026-05-03T09:20:01Z</time></trkpt><trkpt lat="37.8298648" lon="14.5702089"><ele>983.0</ele><time>2026-05-03T09:20:02Z</time></trkpt><trkpt lat="37.8299751" lon="14.570262"><ele>983.0</ele><time>2026-05-03T09:20:03Z</time></trkpt><trkpt lat="37.8301015" lon="14.570323"><ele>981.5</ele><time>2026-05-03T09:20:04Z</time></trkpt><trkpt lat="37.8302286" lon="14.5703931"><ele>980.0</ele><time>2026-05-03T09:20:04.999Z</time></trkpt><trkpt lat="37.8303527" lon="14.5704569"><ele>978.5</ele><time>2026-05-03T09:20:05.999Z</time></trkpt><trkpt lat="37.8304673" lon="14.5705268"><ele>977.0</ele><time>2026-05-03T09:20:07Z</time></trkpt><trkpt lat="37.8305854" lon="14.5705886"><ele>977.0</ele><time>2026-05-03T09:20:08Z</time></trkpt><trkpt lat="37.8306949" lon="14.5706516"><ele>977.0</ele><time>2026-05-03T09:20:09Z</time></trkpt><trkpt lat="37.8307894" lon="14.5707066"><ele>977.0</ele><time>2026-05-03T09:20:10Z</time></trkpt><trkpt lat="37.8308599" lon="14.57077"><ele>977.0</ele><time>2026-05-03T09:20:11Z</time></trkpt><trkpt lat="37.8309084" lon="14.5708509"><ele>977.0</ele><time>2026-05-03T09:20:12Z</time></trkpt><trkpt lat="37.8309171" lon="14.5709402"><ele>977.0</ele><time>2026-05-03T09:20:13Z</time></trkpt><trkpt lat="37.830902" lon="14.5710277"><ele>977.0</ele><time>2026-05-03T09:20:14Z</time></trkpt><trkpt lat="37.8308571" lon="14.5711301"><ele>977.0</ele><time>2026-05-03T09:20:15Z</time></trkpt><trkpt lat="37.8307891" lon="14.5712491"><ele>977.0</ele><time>2026-05-03T09:20:15.999Z</time></trkpt><trkpt lat="37.8307163" lon="14.5713861"><ele>977.0</ele><time>2026-05-03T09:20:17Z</time></trkpt><trkpt lat="37.8306522" lon="14.5715164"><ele>975.0</ele><time>2026-05-03T09:20:18Z</time></trkpt><trkpt lat="37.8305912" lon="14.5716556"><ele>973.0</ele><time>2026-05-03T09:20:19Z</time></trkpt><trkpt lat="37.8305408" lon="14.571803"><ele>971.0</ele><time>2026-05-03T09:20:20Z</time></trkpt><trkpt lat="37.8305114" lon="14.5719489"><ele>969.0</ele><time>2026-05-03T09:20:21Z</time></trkpt><trkpt lat="37.8304818" lon="14.5720987"><ele>966.0</ele><time>2026-05-03T09:20:22Z</time></trkpt><trkpt lat="37.8304543" lon="14.5722465"><ele>963.0</ele><time>2026-05-03T09:20:23Z</time></trkpt><trkpt lat="37.8304202" lon="14.5723954"><ele>960.0</ele><time>2026-05-03T09:20:24Z</time></trkpt><trkpt lat="37.8303961" lon="14.5725357"><ele>957.0</ele><time>2026-05-03T09:20:25Z</time></trkpt><trkpt lat="37.8303645" lon="14.5726596"><ele>957.0</ele><time>2026-05-03T09:20:26Z</time></trkpt><trkpt lat="37.8303091" lon="14.5727648"><ele>957.0</ele><time>2026-05-03T09:20:27Z</time></trkpt><trkpt lat="37.8302353" lon="14.5728534"><ele>957.0</ele><time>2026-05-03T09:20:28Z</time></trkpt><trkpt lat="37.8301652" lon="14.5729386"><ele>957.0</ele><time>2026-05-03T09:20:28.999Z</time></trkpt><trkpt lat="37.8300965" lon="14.5730111"><ele>957.0</ele><time>2026-05-03T09:20:30Z</time></trkpt><trkpt lat="37.8300104" lon="14.5730725"><ele>957.1666666666666</ele><time>2026-05-03T09:20:31Z</time></trkpt><trkpt lat="37.8299421" lon="14.5731398"><ele>957.3333333333333</ele><time>2026-05-03T09:20:32Z</time></trkpt><trkpt lat="37.829869" lon="14.5731951"><ele>957.5</ele><time>2026-05-03T09:20:33Z</time></trkpt><trkpt lat="37.829803" lon="14.5732498"><ele>957.6666666666666</ele><time>2026-05-03T09:20:34Z</time></trkpt><trkpt lat="37.8297339" lon="14.5732974"><ele>957.8333333333333</ele><time>2026-05-03T09:20:35Z</time></trkpt><trkpt lat="37.8296665" lon="14.5733429"><ele>958.0</ele><time>2026-05-03T09:20:36Z</time></trkpt><trkpt lat="37.8295622" lon="14.5734349"><ele>958.0</ele><time>2026-05-03T09:20:38Z</time></trkpt><trkpt lat="37.8295607" lon="14.5735546"><ele>958.0</ele><time>2026-05-03T09:20:40Z</time></trkpt><trkpt lat="37.8295532" lon="14.5737013"><ele>958.0</ele><time>2026-05-03T09:20:42Z</time></trkpt><trkpt lat="37.8295489" lon="14.5738003"><ele>958.0</ele><time>2026-05-03T09:20:43Z</time></trkpt><trkpt lat="37.8295325" lon="14.5739006"><ele>958.0</ele><time>2026-05-03T09:20:44Z</time></trkpt><trkpt lat="37.8295283" lon="14.5740053"><ele>956.1666666666666</ele><time>2026-05-03T09:20:45Z</time></trkpt><trkpt lat="37.8295299" lon="14.5741148"><ele>954.3333333333333</ele><time>2026-05-03T09:20:46Z</time></trkpt><trkpt lat="37.8295194" lon="14.5742128"><ele>952.5</ele><time>2026-05-03T09:20:47Z</time></trkpt><trkpt lat="37.8295092" lon="14.5743178"><ele>950.6666666666667</ele><time>2026-05-03T09:20:48Z</time></trkpt><trkpt lat="37.8294929" lon="14.5744081"><ele>948.8333333333334</ele><time>2026-05-03T09:20:49Z</time></trkpt><trkpt lat="37.8294854" lon="14.5744936"><ele>947.0</ele><time>2026-05-03T09:20:50Z</time></trkpt><trkpt lat="37.8294796" lon="14.5745775"><ele>945.1428571428571</ele><time>2026-05-03T09:20:51Z</time></trkpt><trkpt lat="37.8294736" lon="14.5746641"><ele>943.2857142857142</ele><time>2026-05-03T09:20:52Z</time></trkpt><trkpt lat="37.8294719" lon="14.5747551"><ele>941.4285714285713</ele><time>2026-05-03T09:20:53Z</time></trkpt><trkpt lat="37.8294636" lon="14.5748457"><ele>939.5714285714284</ele><time>2026-05-03T09:20:54Z</time></trkpt><trkpt lat="37.8294637" lon="14.5749355"><ele>937.7142857142857</ele><time>2026-05-03T09:20:55Z</time></trkpt><trkpt lat="37.8294608" lon="14.575027"><ele>935.8571428571427</ele><time>2026-05-03T09:20:56Z</time></trkpt><trkpt lat="37.829458" lon="14.5751146"><ele>933.9999999999999</ele><time>2026-05-03T09:20:57Z</time></trkpt><trkpt lat="37.8294489" lon="14.5751995"><ele>933.9999999999999</ele><time>2026-05-03T09:20:58Z</time></trkpt><trkpt lat="37.829445" lon="14.5752925"><ele>934.0</ele><time>2026-05-03T09:20:59Z</time></trkpt><trkpt lat="37.8294454" lon="14.5753818"><ele>933.9999999999999</ele><time>2026-05-03T09:21:00Z</time></trkpt><trkpt lat="37.8294397" lon="14.5754624"><ele>933.9999999999999</ele><time>2026-05-03T09:21:01Z</time></trkpt><trkpt lat="37.8294341" lon="14.5755472"><ele>934.0</ele><time>2026-05-03T09:21:02Z</time></trkpt><trkpt lat="37.8294247" lon="14.5756261"><ele>933.9999999999999</ele><time>2026-05-03T09:21:03Z</time></trkpt><trkpt lat="37.8294186" lon="14.5757089"><ele>933.9999999999999</ele><time>2026-05-03T09:21:04Z</time></trkpt><trkpt lat="37.8294104" lon="14.5758626"><ele>940.0</ele><time>2026-05-03T09:21:06Z</time></trkpt><trkpt lat="37.8294053" lon="14.5760082"><ele>940.0</ele><time>2026-05-03T09:21:08Z</time></trkpt><trkpt lat="37.8293974" lon="14.5761385"><ele>940.0</ele><time>2026-05-03T09:21:10Z</time></trkpt><trkpt lat="37.8294048" lon="14.5762536"><ele>950.0</ele><time>2026-05-03T09:21:12Z</time></trkpt><trkpt lat="37.8294509" lon="14.576308"><ele>950.0</ele><time>2026-05-03T09:21:14Z</time></trkpt></trkseg><trkseg><trkpt lat="37.8294163" lon="14.5762012"><ele>948.3333333333334</ele><time>2026-05-03T09:53:04Z</time></trkpt><trkpt lat="37.8294246" lon="14.5761122"><ele>946.6666666666667</ele><time>2026-05-03T09:53:05Z</time></trkpt><trkpt lat="37.8294322" lon="14.5760308"><ele>945.0</ele><time>2026-05-03T09:53:06Z</time></trkpt><trkpt lat="37.8294378" lon="14.5759418"><ele>943.3333333333333</ele><time>2026-05-03T09:53:07Z</time></trkpt><trkpt lat="37.8294469" lon="14.5758426"><ele>941.6666666666666</ele><time>2026-05-03T09:53:08Z</time></trkpt><trkpt lat="37.8294557" lon="14.5757372"><ele>940.0</ele><time>2026-05-03T09:53:09Z</time></trkpt><trkpt lat="37.8294628" lon="14.5756344"><ele>940.0</ele><time>2026-05-03T09:53:10Z</time></trkpt><trkpt lat="37.8294666" lon="14.5755209"><ele>940.0</ele><time>2026-05-03T09:53:11Z</time></trkpt><trkpt lat="37.8294795" lon="14.5754022"><ele>940.0</ele><time>2026-05-03T09:53:12Z</time></trkpt><trkpt lat="37.829485" lon="14.5752721"><ele>940.0</ele><time>2026-05-03T09:53:12.999Z</time></trkpt><trkpt lat="37.8294959" lon="14.5751484"><ele>940.0</ele><time>2026-05-03T09:53:14Z</time></trkpt><trkpt lat="37.8295037" lon="14.5750271"><ele>938.8</ele><time>2026-05-03T09:53:15Z</time></trkpt><trkpt lat="37.8295056" lon="14.5749085"><ele>937.6</ele><time>2026-05-03T09:53:16Z</time></trkpt><trkpt lat="37.8295084" lon="14.5747908"><ele>936.4000000000001</ele><time>2026-05-03T09:53:17Z</time></trkpt><trkpt lat="37.8295134" lon="14.5746692"><ele>935.2</ele><time>2026-05-03T09:53:18Z</time></trkpt><trkpt lat="37.8295202" lon="14.5745549"><ele>934.0</ele><time>2026-05-03T09:53:19Z</time></trkpt><trkpt lat="37.8295273" lon="14.5744375"><ele>936.6</ele><time>2026-05-03T09:53:20Z</time></trkpt><trkpt lat="37.8295342" lon="14.5743201"><ele>939.2</ele><time>2026-05-03T09:53:21Z</time></trkpt><trkpt lat="37.8295447" lon="14.574202"><ele>941.8000000000001</ele><time>2026-05-03T09:53:22Z</time></trkpt><trkpt lat="37.8295496" lon="14.5740813"><ele>944.4000000000001</ele><time>2026-05-03T09:53:23Z</time></trkpt><trkpt lat="37.8295629" lon="14.5739601"><ele>947.0</ele><time>2026-05-03T09:53:24Z</time></trkpt><trkpt lat="37.829571" lon="14.5738343"><ele>947.0000000000001</ele><time>2026-05-03T09:53:25Z</time></trkpt><trkpt lat="37.8295784" lon="14.5737174"><ele>947.0</ele><time>2026-05-03T09:53:26Z</time></trkpt><trkpt lat="37.8295832" lon="14.5736104"><ele>947.0</ele><time>2026-05-03T09:53:26.999Z</time></trkpt><trkpt lat="37.8295921" lon="14.5735136"><ele>947.0</ele><time>2026-05-03T09:53:28Z</time></trkpt><trkpt lat="37.8296556" lon="14.5734065"><ele>947.0000000000001</ele><time>2026-05-03T09:53:30Z</time></trkpt><trkpt lat="37.8297227" lon="14.5733572"><ele>947.0</ele><time>2026-05-03T09:53:31Z</time></trkpt><trkpt lat="37.8297847" lon="14.573294"><ele>946.2</ele><time>2026-05-03T09:53:32Z</time></trkpt><trkpt lat="37.8298528" lon="14.5732404"><ele>945.4000000000001</ele><time>2026-05-03T09:53:33Z</time></trkpt><trkpt lat="37.8299291" lon="14.5731902"><ele>944.5999999999999</ele><time>2026-05-03T09:53:34Z</time></trkpt><trkpt lat="37.8300017" lon="14.5731356"><ele>943.8</ele><time>2026-05-03T09:53:35Z</time></trkpt><trkpt lat="37.8300768" lon="14.5730653"><ele>943.0</ele><time>2026-05-03T09:53:36Z</time></trkpt><trkpt lat="37.8301669" lon="14.5729887"><ele>943.0</ele><time>2026-05-03T09:53:37Z</time></trkpt><trkpt lat="37.8302531" lon="14.5729076"><ele>943.0</ele><time>2026-05-03T09:53:38Z</time></trkpt><trkpt lat="37.8303246" lon="14.5728154"><ele>943.0</ele><time>2026-05-03T09:53:39Z</time></trkpt><trkpt lat="37.8303933" lon="14.5726968"><ele>943.0</ele><time>2026-05-03T09:53:40Z</time></trkpt><trkpt lat="37.8304415" lon="14.5725529"><ele>943.0</ele><time>2026-05-03T09:53:41Z</time></trkpt><trkpt lat="37.8304774" lon="14.5723918"><ele>947.6666666666666</ele><time>2026-05-03T09:53:42Z</time></trkpt><trkpt lat="37.830512" lon="14.5721991"><ele>952.3333333333333</ele><time>2026-05-03T09:53:43Z</time></trkpt><trkpt lat="37.83055" lon="14.572015"><ele>957.0</ele><time>2026-05-03T09:53:44Z</time></trkpt><trkpt lat="37.8305811" lon="14.5718372"><ele>961.0</ele><time>2026-05-03T09:53:45Z</time></trkpt><trkpt lat="37.8306383" lon="14.5716592"><ele>965.0</ele><time>2026-05-03T09:53:46Z</time></trkpt><trkpt lat="37.8307249" lon="14.5714896"><ele>969.0</ele><time>2026-05-03T09:53:47Z</time></trkpt><trkpt lat="37.8308037" lon="14.5713347"><ele>969.0</ele><time>2026-05-03T09:53:48Z</time></trkpt><trkpt lat="37.8308787" lon="14.5711997"><ele>969.0000000000001</ele><time>2026-05-03T09:53:49Z</time></trkpt><trkpt lat="37.8309362" lon="14.5710754"><ele>969.0000000000001</ele><time>2026-05-03T09:53:50Z</time></trkpt><trkpt lat="37.8309652" lon="14.5709587"><ele>969.0</ele><time>2026-05-03T09:53:51Z</time></trkpt><trkpt lat="37.8309552" lon="14.5708482"><ele>969.0</ele><time>2026-05-03T09:53:52Z</time></trkpt><trkpt lat="37.8309186" lon="14.5707693"><ele>971.0</ele><time>2026-05-03T09:53:53Z</time></trkpt><trkpt lat="37.8308467" lon="14.5706978"><ele>973.0</ele><time>2026-05-03T09:53:54Z</time></trkpt><trkpt lat="37.8307684" lon="14.5706301"><ele>975.0</ele><time>2026-05-03T09:53:55Z</time></trkpt><trkpt lat="37.8306827" lon="14.5705682"><ele>977.0</ele><time>2026-05-03T09:53:56Z</time></trkpt><trkpt lat="37.8305188" lon="14.5705017"><ele>977.0</ele><time>2026-05-03T09:53:57Z</time></trkpt><trkpt lat="37.8303734" lon="14.5704273"><ele>977.0</ele><time>2026-05-03T09:53:58Z</time></trkpt><trkpt lat="37.8302165" lon="14.5703536"><ele>977.0</ele><time>2026-05-03T09:53:59Z</time></trkpt><trkpt lat="37.8300686" lon="14.5702853"><ele>978.5</ele><time>2026-05-03T09:54:00Z</time></trkpt><trkpt lat="37.8299461" lon="14.570226"><ele>980.0</ele><time>2026-05-03T09:54:01Z</time></trkpt><trkpt lat="37.8298348" lon="14.5701763"><ele>981.5</ele><time>2026-05-03T09:54:02Z</time></trkpt><trkpt lat="37.8297494" lon="14.5701026"><ele>983.0</ele><time>2026-05-03T09:54:03Z</time></trkpt><trkpt lat="37.8296775" lon="14.5700051"><ele>983.0</ele><time>2026-05-03T09:54:04Z</time></trkpt><trkpt lat="37.8296206" lon="14.5698904"><ele>983.0</ele><time>2026-05-03T09:54:05Z</time></trkpt><trkpt lat="37.8295681" lon="14.5697805"><ele>983.0</ele><time>2026-05-03T09:54:06Z</time></trkpt><trkpt lat="37.8295276" lon="14.5696197"><ele>983.0</ele><time>2026-05-03T09:54:07Z</time></trkpt><trkpt lat="37.8295031" lon="14.5694182"><ele>982.0</ele><time>2026-05-03T09:54:08Z</time></trkpt><trkpt lat="37.829465" lon="14.5692273"><ele>981.0</ele><time>2026-05-03T09:54:09Z</time></trkpt><trkpt lat="37.8294268" lon="14.5690567"><ele>980.0</ele><time>2026-05-03T09:54:10Z</time></trkpt><trkpt lat="37.8294005" lon="14.5688833"><ele>979.0</ele><time>2026-05-03T09:54:11Z</time></trkpt><trkpt lat="37.829406" lon="14.5687128"><ele>979.5</ele><time>2026-05-03T09:54:12Z</time></trkpt><trkpt lat="37.8294311" lon="14.5685537"><ele>980.0</ele><time>2026-05-03T09:54:12.999Z</time></trkpt><trkpt lat="37.8294626" lon="14.5683731"><ele>980.5</ele><time>2026-05-03T09:54:14Z</time></trkpt><trkpt lat="37.8294899" lon="14.5682038"><ele>981.0</ele><time>2026-05-03T09:54:15Z</time></trkpt><trkpt lat="37.8295172" lon="14.5680167"><ele>984.6666666666667</ele><time>2026-05-03T09:54:16Z</time></trkpt><trkpt lat="37.8295469" lon="14.5678219"><ele>988.3333333333334</ele><time>2026-05-03T09:54:17Z</time></trkpt><trkpt lat="37.8295835" lon="14.5676294"><ele>992.0</ele><time>2026-05-03T09:54:18Z</time></trkpt><trkpt lat="37.8295956" lon="14.5674554"><ele>992.0</ele><time>2026-05-03T09:54:19Z</time></trkpt><trkpt lat="37.8296005" lon="14.5672932"><ele>992.0</ele><time>2026-05-03T09:54:20Z</time></trkpt><trkpt lat="37.8295994" lon="14.5671432"><ele>992.0</ele><time>2026-05-03T09:54:21Z</time></trkpt><trkpt lat="37.8296192" lon="14.5670047"><ele>992.0</ele><time>2026-05-03T09:54:21.999Z</time></trkpt><trkpt lat="37.8296613" lon="14.5668853"><ele>994.4000000000001</ele><time>2026-05-03T09:54:23Z</time></trkpt><trkpt lat="37.8297321" lon="14.5667929"><ele>996.8000000000001</ele><time>2026-05-03T09:54:24Z</time></trkpt><trkpt lat="37.8298138" lon="14.5667076"><ele>999.2</ele><time>2026-05-03T09:54:25Z</time></trkpt><trkpt lat="37.8298766" lon="14.5665949"><ele>1001.6</ele><time>2026-05-03T09:54:26Z</time></trkpt><trkpt lat="37.8299208" lon="14.5664579"><ele>1004.0</ele><time>2026-05-03T09:54:27Z</time></trkpt><trkpt lat="37.8299356" lon="14.5663068"><ele>1006.25</ele><time>2026-05-03T09:54:28Z</time></trkpt><trkpt lat="37.8299309" lon="14.5661375"><ele>1008.5</ele><time>2026-05-03T09:54:29Z</time></trkpt><trkpt lat="37.8299298" lon="14.5659607"><ele>1010.75</ele><time>2026-05-03T09:54:30Z</time></trkpt><trkpt lat="37.8299241" lon="14.5657799"><ele>1013.0</ele><time>2026-05-03T09:54:31Z</time></trkpt><trkpt lat="37.8299196" lon="14.5655994"><ele>1013.0</ele><time>2026-05-03T09:54:32Z</time></trkpt><trkpt lat="37.8298969" lon="14.5654258"><ele>1013.0</ele><time>2026-05-03T09:54:33Z</time></trkpt><trkpt lat="37.8298561" lon="14.5652531"><ele>1013.0</ele><time>2026-05-03T09:54:34Z</time></trkpt><trkpt lat="37.8298021" lon="14.5650795"><ele>1013.0</ele><time>2026-05-03T09:54:35Z</time></trkpt><trkpt lat="37.8297451" lon="14.5649143"><ele>1014.0</ele><time>2026-05-03T09:54:36Z</time></trkpt><trkpt lat="37.8296924" lon="14.5647658"><ele>1015.0</ele><time>2026-05-03T09:54:37Z</time></trkpt><trkpt lat="37.8296627" lon="14.5646427"><ele>1016.0</ele><time>2026-05-03T09:54:38Z</time></trkpt><trkpt lat="37.8296665" lon="14.5645192"><ele>1017.0</ele><time>2026-05-03T09:54:39Z</time></trkpt><trkpt lat="37.8297084" lon="14.5644146"><ele>1018.0</ele><time>2026-05-03T09:54:40Z</time></trkpt><trkpt lat="37.8297921" lon="14.5643156"><ele>1019.25</ele><time>2026-05-03T09:54:41Z</time></trkpt><trkpt lat="37.8298863" lon="14.5642043"><ele>1020.5</ele><time>2026-05-03T09:54:42Z</time></trkpt><trkpt lat="37.8299789" lon="14.5640904"><ele>1021.75</ele><time>2026-05-03T09:54:43Z</time></trkpt><trkpt lat="37.830067" lon="14.5640128"><ele>1023.0</ele><time>2026-05-03T09:54:44Z</time></trkpt><trkpt lat="37.8301569" lon="14.5639889"><ele>1023.0</ele><time>2026-05-03T09:54:45Z</time></trkpt><trkpt lat="37.8302448" lon="14.5640023"><ele>1023.0</ele><time>2026-05-03T09:54:46Z</time></trkpt><trkpt lat="37.830341" lon="14.5640607"><ele>1023.0</ele><time>2026-05-03T09:54:47Z</time></trkpt><trkpt lat="37.8304267" lon="14.5641131"><ele>1023.0</ele><time>2026-05-03T09:54:48Z</time></trkpt><trkpt lat="37.8305013" lon="14.5641413"><ele>1023.0</ele><time>2026-05-03T09:54:49Z</time></trkpt><trkpt lat="37.8305732" lon="14.5641304"><ele>1023.0</ele><time>2026-05-03T09:54:50Z</time></trkpt><trkpt lat="37.8306014" lon="14.564"><ele>1023.0</ele><time>2026-05-03T09:54:52Z</time></trkpt><trkpt lat="37.8305588" lon="14.5639381"><ele>1023.0</ele><time>2026-05-03T09:54:53Z</time></trkpt><trkpt lat="37.830492" lon="14.5638964"><ele>1023.0</ele><time>2026-05-03T09:54:53.999Z</time></trkpt><trkpt lat="37.830405" lon="14.5638466"><ele>1023.0</ele><time>2026-05-03T09:54:55Z</time></trkpt><trkpt lat="37.8303024" lon="14.5637972"><ele>1023.0</ele><time>2026-05-03T09:54:56Z</time></trkpt><trkpt lat="37.8301938" lon="14.5637622"><ele>1025.25</ele><time>2026-05-03T09:54:57Z</time></trkpt><trkpt lat="37.8300957" lon="14.563778"><ele>1027.5</ele><time>2026-05-03T09:54:58Z</time></trkpt><trkpt lat="37.8299886" lon="14.5638391"><ele>1029.75</ele><time>2026-05-03T09:54:59Z</time></trkpt><trkpt lat="37.8298737" lon="14.5639388"><ele>1032.0</ele><time>2026-05-03T09:55:00Z</time></trkpt><trkpt lat="37.8297411" lon="14.5640342"><ele>1032.0</ele><time>2026-05-03T09:55:01Z</time></trkpt><trkpt lat="37.8295952" lon="14.5641224"><ele>1032.0</ele><time>2026-05-03T09:55:02Z</time></trkpt><trkpt lat="37.8294715" lon="14.5642119"><ele>1032.0</ele><time>2026-05-03T09:55:03Z</time></trkpt><trkpt lat="37.8293732" lon="14.5643006"><ele>1032.0</ele><time>2026-05-03T09:55:04Z</time></trkpt><trkpt lat="37.829304" lon="14.5643954"><ele>1036.75</ele><time>2026-05-03T09:55:05Z</time></trkpt><trkpt lat="37.8292633" lon="14.5645235"><ele>1041.5</ele><time>2026-05-03T09:55:06Z</time></trkpt><trkpt lat="37.8292578" lon="14.5646768"><ele>1046.25</ele><time>2026-05-03T09:55:07Z</time></trkpt><trkpt lat="37.8292548" lon="14.5648463"><ele>1051.0</ele><time>2026-05-03T09:55:08Z</time></trkpt><trkpt lat="37.8292451" lon="14.5650279"><ele>1051.0</ele><time>2026-05-03T09:55:09Z</time></trkpt><trkpt lat="37.8292248" lon="14.5652028"><ele>1051.0</ele><time>2026-05-03T09:55:10Z</time></trkpt><trkpt lat="37.8291911" lon="14.5653617"><ele>1051.0</ele><time>2026-05-03T09:55:11Z</time></trkpt><trkpt lat="37.8291507" lon="14.5655105"><ele>1051.0</ele><time>2026-05-03T09:55:12Z</time></trkpt><trkpt lat="37.8291018" lon="14.5656618"><ele>1049.5</ele><time>2026-05-03T09:55:13Z</time></trkpt><trkpt lat="37.8290444" lon="14.565806"><ele>1048.0</ele><time>2026-05-03T09:55:14Z</time></trkpt><trkpt lat="37.8289729" lon="14.5659551"><ele>1046.5</ele><time>2026-05-03T09:55:15Z</time></trkpt><trkpt lat="37.8288992" lon="14.5661034"><ele>1045.0</ele><time>2026-05-03T09:55:16Z</time></trkpt><trkpt lat="37.8288262" lon="14.5662479"><ele>1042.0</ele><time>2026-05-03T09:55:17Z</time></trkpt><trkpt lat="37.8287519" lon="14.566395"><ele>1039.0</ele><time>2026-05-03T09:55:18Z</time></trkpt><trkpt lat="37.828676" lon="14.5665343"><ele>1036.0</ele><time>2026-05-03T09:55:19Z</time></trkpt><trkpt lat="37.8286166" lon="14.5666791"><ele>1033.0</ele><time>2026-05-03T09:55:20Z</time></trkpt><trkpt lat="37.8285752" lon="14.5668338"><ele>1033.0</ele><time>2026-05-03T09:55:21Z</time></trkpt><trkpt lat="37.8285654" lon="14.567006"><ele>1033.0</ele><time>2026-05-03T09:55:22Z</time></trkpt><trkpt lat="37.8285679" lon="14.5671739"><ele>1033.0</ele><time>2026-05-03T09:55:23Z</time></trkpt><trkpt lat="37.8285691" lon="14.5673282"><ele>1033.0</ele><time>2026-05-03T09:55:24Z</time></trkpt><trkpt lat="37.8285741" lon="14.5674594"><ele>1032.2</ele><time>2026-05-03T09:55:25Z</time></trkpt><trkpt lat="37.8285662" lon="14.5675468"><ele>1031.4</ele><time>2026-05-03T09:55:26Z</time></trkpt><trkpt lat="37.8285078" lon="14.5676572"><ele>1030.6000000000001</ele><time>2026-05-03T09:55:28Z</time></trkpt><trkpt lat="37.8284252" lon="14.5676055"><ele>1029.8</ele><time>2026-05-03T09:55:30Z</time></trkpt><trkpt lat="37.8283991" lon="14.5674335"><ele>1029.0</ele><time>2026-05-03T09:55:32Z</time></trkpt><trkpt lat="37.82839" lon="14.5673178"><ele>1039.75</ele><time>2026-05-03T09:55:33Z</time></trkpt><trkpt lat="37.8283815" lon="14.5671849"><ele>1050.5</ele><time>2026-05-03T09:55:34Z</time></trkpt><trkpt lat="37.8283726" lon="14.5670348"><ele>1061.25</ele><time>2026-05-03T09:55:35Z</time></trkpt><trkpt lat="37.828372" lon="14.5668815"><ele>1072.0</ele><time>2026-05-03T09:55:36Z</time></trkpt><trkpt lat="37.8283752" lon="14.566722"><ele>1073.25</ele><time>2026-05-03T09:55:37Z</time></trkpt><trkpt lat="37.8283913" lon="14.5665594"><ele>1074.5</ele><time>2026-05-03T09:55:38Z</time></trkpt><trkpt lat="37.8284198" lon="14.5663906"><ele>1075.75</ele><time>2026-05-03T09:55:39Z</time></trkpt><trkpt lat="37.828459" lon="14.5662191"><ele>1077.0</ele><time>2026-05-03T09:55:40Z</time></trkpt><trkpt lat="37.82851" lon="14.5660545"><ele>1069.0</ele><time>2026-05-03T09:55:41Z</time></trkpt><trkpt lat="37.8285562" lon="14.5658849"><ele>1061.0</ele><time>2026-05-03T09:55:42Z</time></trkpt><trkpt lat="37.8285983" lon="14.5657208"><ele>1053.0</ele><time>2026-05-03T09:55:43Z</time></trkpt><trkpt lat="37.8286256" lon="14.5655604"><ele>1045.0</ele><time>2026-05-03T09:55:44Z</time></trkpt><trkpt lat="37.8286297" lon="14.5653768"><ele>1047.0</ele><time>2026-05-03T09:55:45Z</time></trkpt><trkpt lat="37.8286058" lon="14.565176"><ele>1049.0</ele><time>2026-05-03T09:55:46Z</time></trkpt><trkpt lat="37.8285587" lon="14.564971"><ele>1051.0</ele><time>2026-05-03T09:55:47Z</time></trkpt><trkpt lat="37.8285188" lon="14.5647738"><ele>1051.0</ele><time>2026-05-03T09:55:48Z</time></trkpt><trkpt lat="37.8284989" lon="14.5645779"><ele>1051.0</ele><time>2026-05-03T09:55:49Z</time></trkpt><trkpt lat="37.8284986" lon="14.5643727"><ele>1051.0</ele><time>2026-05-03T09:55:50Z</time></trkpt><trkpt lat="37.828522" lon="14.5641632"><ele>1053.6666666666665</ele><time>2026-05-03T09:55:51Z</time></trkpt><trkpt lat="37.8285495" lon="14.5639602"><ele>1056.3333333333333</ele><time>2026-05-03T09:55:52Z</time></trkpt><trkpt lat="37.828558" lon="14.5637516"><ele>1059.0</ele><time>2026-05-03T09:55:53Z</time></trkpt><trkpt lat="37.8285583" lon="14.5635468"><ele>1062.6666666666667</ele><time>2026-05-03T09:55:54Z</time></trkpt><trkpt lat="37.8285493" lon="14.5633382"><ele>1066.3333333333335</ele><time>2026-05-03T09:55:55Z</time></trkpt><trkpt lat="37.8285348" lon="14.5631325"><ele>1070.0</ele><time>2026-05-03T09:55:56Z</time></trkpt><trkpt lat="37.8285259" lon="14.5629355"><ele>1075.0</ele><time>2026-05-03T09:55:57Z</time></trkpt><trkpt lat="37.8285346" lon="14.5627332"><ele>1080.0</ele><time>2026-05-03T09:55:58Z</time></trkpt><trkpt lat="37.8285473" lon="14.5625389"><ele>1085.0</ele><time>2026-05-03T09:55:59Z</time></trkpt><trkpt lat="37.8285576" lon="14.5623364"><ele>1085.0</ele><time>2026-05-03T09:56:00Z</time></trkpt><trkpt lat="37.8285713" lon="14.5621469"><ele>1085.0</ele><time>2026-05-03T09:56:01Z</time></trkpt><trkpt lat="37.8285831" lon="14.5619816"><ele>1085.0</ele><time>2026-05-03T09:56:02Z</time></trkpt><trkpt lat="37.8285992" lon="14.5618328"><ele>1085.0</ele><time>2026-05-03T09:56:03Z</time></trkpt><trkpt lat="37.8286009" lon="14.5616971"><ele>1087.5</ele><time>2026-05-03T09:56:04Z</time></trkpt><trkpt lat="37.8285863" lon="14.5615567"><ele>1090.0</ele><time>2026-05-03T09:56:05Z</time></trkpt><trkpt lat="37.8285433" lon="14.5614269"><ele>1092.5</ele><time>2026-05-03T09:56:06Z</time></trkpt><trkpt lat="37.8284659" lon="14.5613049"><ele>1095.0</ele><time>2026-05-03T09:56:07Z</time></trkpt><trkpt lat="37.8283649" lon="14.5611954"><ele>1098.3333333333333</ele><time>2026-05-03T09:56:08Z</time></trkpt><trkpt lat="37.828251" lon="14.5610743"><ele>1101.6666666666665</ele><time>2026-05-03T09:56:09Z</time></trkpt><trkpt lat="37.8281251" lon="14.5609458"><ele>1105.0</ele><time>2026-05-03T09:56:10Z</time></trkpt><trkpt lat="37.8279995" lon="14.560817"><ele>1105.0</ele><time>2026-05-03T09:56:11Z</time></trkpt><trkpt lat="37.8278718" lon="14.5606877"><ele>1105.0</ele><time>2026-05-03T09:56:12Z</time></trkpt><trkpt lat="37.8277454" lon="14.5605513"><ele>1105.0</ele><time>2026-05-03T09:56:13Z</time></trkpt><trkpt lat="37.8276233" lon="14.5604195"><ele>1102.6666666666665</ele><time>2026-05-03T09:56:14Z</time></trkpt><trkpt lat="37.8274955" lon="14.5602824"><ele>1100.3333333333333</ele><time>2026-05-03T09:56:15Z</time></trkpt><trkpt lat="37.8273684" lon="14.5601537"><ele>1098.0</ele><time>2026-05-03T09:56:16Z</time></trkpt><trkpt lat="37.8272341" lon="14.5600312"><ele>1098.0</ele><time>2026-05-03T09:56:17Z</time></trkpt><trkpt lat="37.8271058" lon="14.5599118"><ele>1098.0</ele><time>2026-05-03T09:56:18Z</time></trkpt><trkpt lat="37.826983" lon="14.5597992"><ele>1098.0</ele><time>2026-05-03T09:56:19Z</time></trkpt><trkpt lat="37.8268639" lon="14.5596897"><ele>1095.5</ele><time>2026-05-03T09:56:20Z</time></trkpt><trkpt lat="37.8267507" lon="14.5595864"><ele>1093.0</ele><time>2026-05-03T09:56:21Z</time></trkpt><trkpt lat="37.8266361" lon="14.5594783"><ele>1090.5</ele><time>2026-05-03T09:56:22Z</time></trkpt><trkpt lat="37.8265215" lon="14.559377"><ele>1088.0</ele><time>2026-05-03T09:56:23Z</time></trkpt><trkpt lat="37.8264038" lon="14.5592777"><ele>1087.3333333333335</ele><time>2026-05-03T09:56:24Z</time></trkpt><trkpt lat="37.8262749" lon="14.5591714"><ele>1086.6666666666667</ele><time>2026-05-03T09:56:25Z</time></trkpt><trkpt lat="37.8261578" lon="14.5590474"><ele>1086.0</ele><time>2026-05-03T09:56:26Z</time></trkpt><trkpt lat="37.8260413" lon="14.5589111"><ele>1086.0</ele><time>2026-05-03T09:56:27Z</time></trkpt><trkpt lat="37.8259264" lon="14.5587669"><ele>1086.0</ele><time>2026-05-03T09:56:28Z</time></trkpt><trkpt lat="37.8258101" lon="14.558616"><ele>1086.0</ele><time>2026-05-03T09:56:29Z</time></trkpt><trkpt lat="37.8256977" lon="14.5584609"><ele>1086.0</ele><time>2026-05-03T09:56:30Z</time></trkpt><trkpt lat="37.825582" lon="14.5583011"><ele>1086.0</ele><time>2026-05-03T09:56:31Z</time></trkpt><trkpt lat="37.8254686" lon="14.5581431"><ele>1086.0</ele><time>2026-05-03T09:56:32Z</time></trkpt><trkpt lat="37.8253602" lon="14.5579918"><ele>1085.5</ele><time>2026-05-03T09:56:33Z</time></trkpt><trkpt lat="37.8252543" lon="14.5578579"><ele>1085.0</ele><time>2026-05-03T09:56:34Z</time></trkpt><trkpt lat="37.8251551" lon="14.5577453"><ele>1084.5</ele><time>2026-05-03T09:56:35Z</time></trkpt><trkpt lat="37.8250416" lon="14.5576696"><ele>1084.0</ele><time>2026-05-03T09:56:36Z</time></trkpt><trkpt lat="37.8249067" lon="14.5576385"><ele>1086.0</ele><time>2026-05-03T09:56:37Z</time></trkpt><trkpt lat="37.8247639" lon="14.5576448"><ele>1088.0</ele><time>2026-05-03T09:56:38Z</time></trkpt><trkpt lat="37.8246015" lon="14.557689"><ele>1090.0</ele><time>2026-05-03T09:56:39Z</time></trkpt><trkpt lat="37.8244258" lon="14.5577474"><ele>1089.6666666666665</ele><time>2026-05-03T09:56:40Z</time></trkpt><trkpt lat="37.8242524" lon="14.5578025"><ele>1089.3333333333333</ele><time>2026-05-03T09:56:41Z</time></trkpt><trkpt lat="37.8240918" lon="14.5578351"><ele>1089.0</ele><time>2026-05-03T09:56:42Z</time></trkpt><trkpt lat="37.8239481" lon="14.5578525"><ele>1089.0</ele><time>2026-05-03T09:56:43Z</time></trkpt><trkpt lat="37.8238165" lon="14.5578568"><ele>1089.0</ele><time>2026-05-03T09:56:44Z</time></trkpt><trkpt lat="37.8236998" lon="14.5578583"><ele>1089.0</ele><time>2026-05-03T09:56:45Z</time></trkpt><trkpt lat="37.8235973" lon="14.55786"><ele>1089.0</ele><time>2026-05-03T09:56:46Z</time></trkpt><trkpt lat="37.8235066" lon="14.557852"><ele>1089.0</ele><time>2026-05-03T09:56:47Z</time></trkpt><trkpt lat="37.8234166" lon="14.5578341"><ele>1089.6000000000001</ele><time>2026-05-03T09:56:48Z</time></trkpt><trkpt lat="37.8233306" lon="14.5578167"><ele>1090.2</ele><time>2026-05-03T09:56:49Z</time></trkpt><trkpt lat="37.8232448" lon="14.5577909"><ele>1090.8000000000002</ele><time>2026-05-03T09:56:50Z</time></trkpt><trkpt lat="37.8231585" lon="14.5577633"><ele>1091.4</ele><time>2026-05-03T09:56:51Z</time></trkpt><trkpt lat="37.8230663" lon="14.5577353"><ele>1092.0</ele><time>2026-05-03T09:56:52Z</time></trkpt><trkpt lat="37.8229582" lon="14.557705"><ele>1092.0</ele><time>2026-05-03T09:56:53Z</time></trkpt><trkpt lat="37.822848" lon="14.5576677"><ele>1092.0</ele><time>2026-05-03T09:56:54Z</time></trkpt><trkpt lat="37.8227355" lon="14.5576128"><ele>1092.0</ele><time>2026-05-03T09:56:55Z</time></trkpt><trkpt lat="37.822604" lon="14.5575575"><ele>1092.0</ele><time>2026-05-03T09:56:56Z</time></trkpt><trkpt lat="37.8224657" lon="14.5575086"><ele>1093.75</ele><time>2026-05-03T09:56:57Z</time></trkpt><trkpt lat="37.8223236" lon="14.5574485"><ele>1095.5</ele><time>2026-05-03T09:56:58Z</time></trkpt><trkpt lat="37.8221844" lon="14.5573968"><ele>1097.25</ele><time>2026-05-03T09:56:59Z</time></trkpt><trkpt lat="37.8220473" lon="14.5573574"><ele>1099.0</ele><time>2026-05-03T09:57:00Z</time></trkpt><trkpt lat="37.8219093" lon="14.5573339"><ele>1102.75</ele><time>2026-05-03T09:57:01Z</time></trkpt><trkpt lat="37.8217718" lon="14.5573281"><ele>1106.5</ele><time>2026-05-03T09:57:02Z</time></trkpt><trkpt lat="37.8216267" lon="14.557329"><ele>1110.25</ele><time>2026-05-03T09:57:03Z</time></trkpt><trkpt lat="37.8214793" lon="14.5573383"><ele>1114.0</ele><time>2026-05-03T09:57:04Z</time></trkpt><trkpt lat="37.8213224" lon="14.5573493"><ele>1114.0</ele><time>2026-05-03T09:57:05Z</time></trkpt><trkpt lat="37.8211684" lon="14.557362"><ele>1114.0</ele><time>2026-05-03T09:57:06Z</time></trkpt><trkpt lat="37.8210136" lon="14.5573669"><ele>1114.0</ele><time>2026-05-03T09:57:07Z</time></trkpt><trkpt lat="37.8208614" lon="14.5573642"><ele>1116.75</ele><time>2026-05-03T09:57:08Z</time></trkpt><trkpt lat="37.820714" lon="14.5573304"><ele>1119.5</ele><time>2026-05-03T09:57:09Z</time></trkpt><trkpt lat="37.820565" lon="14.5572978"><ele>1122.25</ele><time>2026-05-03T09:57:10Z</time></trkpt><trkpt lat="37.8204247" lon="14.5572715"><ele>1125.0</ele><time>2026-05-03T09:57:11Z</time></trkpt><trkpt lat="37.8202876" lon="14.5572703"><ele>1125.0</ele><time>2026-05-03T09:57:12Z</time></trkpt><trkpt lat="37.8201536" lon="14.5572953"><ele>1125.0</ele><time>2026-05-03T09:57:13Z</time></trkpt><trkpt lat="37.8200199" lon="14.5573391"><ele>1125.0</ele><time>2026-05-03T09:57:14Z</time></trkpt><trkpt lat="37.8198802" lon="14.5574009"><ele>1125.0</ele><time>2026-05-03T09:57:15Z</time></trkpt><trkpt lat="37.8197433" lon="14.5574692"><ele>1127.5</ele><time>2026-05-03T09:57:16Z</time></trkpt><trkpt lat="37.8196186" lon="14.5575246"><ele>1130.0</ele><time>2026-05-03T09:57:17Z</time></trkpt><trkpt lat="37.8194932" lon="14.5575635"><ele>1132.5</ele><time>2026-05-03T09:57:18Z</time></trkpt><trkpt lat="37.8193518" lon="14.5575795"><ele>1135.0</ele><time>2026-05-03T09:57:19Z</time></trkpt><trkpt lat="37.8191946" lon="14.5575856"><ele>1136.25</ele><time>2026-05-03T09:57:20Z</time></trkpt><trkpt lat="37.8190565" lon="14.5575976"><ele>1137.5</ele><time>2026-05-03T09:57:21Z</time></trkpt><trkpt lat="37.8189214" lon="14.557623"><ele>1138.75</ele><time>2026-05-03T09:57:22Z</time></trkpt><trkpt lat="37.8187886" lon="14.5576806"><ele>1140.0</ele><time>2026-05-03T09:57:23Z</time></trkpt><trkpt lat="37.8186672" lon="14.5577743"><ele>1139.6666666666667</ele><time>2026-05-03T09:57:24Z</time></trkpt><trkpt lat="37.8185496" lon="14.5578945"><ele>1139.3333333333335</ele><time>2026-05-03T09:57:25Z</time></trkpt><trkpt lat="37.8184413" lon="14.5580338"><ele>1139.0</ele><time>2026-05-03T09:57:26Z</time></trkpt><trkpt lat="37.818327" lon="14.5581813"><ele>1139.0</ele><time>2026-05-03T09:57:27Z</time></trkpt><trkpt lat="37.8182078" lon="14.558332"><ele>1139.0</ele><time>2026-05-03T09:57:28Z</time></trkpt><trkpt lat="37.8180787" lon="14.5584744"><ele>1139.0</ele><time>2026-05-03T09:57:29Z</time></trkpt><trkpt lat="37.8179571" lon="14.5586111"><ele>1140.3333333333335</ele><time>2026-05-03T09:57:30Z</time></trkpt><trkpt lat="37.817834" lon="14.5587459"><ele>1141.6666666666667</ele><time>2026-05-03T09:57:31Z</time></trkpt><trkpt lat="37.8177122" lon="14.5588748"><ele>1143.0</ele><time>2026-05-03T09:57:32Z</time></trkpt><trkpt lat="37.8175904" lon="14.5589958"><ele>1143.0</ele><time>2026-05-03T09:57:33Z</time></trkpt><trkpt lat="37.8174629" lon="14.5591097"><ele>1143.0</ele><time>2026-05-03T09:57:34Z</time></trkpt><trkpt lat="37.8173176" lon="14.5592105"><ele>1143.0</ele><time>2026-05-03T09:57:35Z</time></trkpt><trkpt lat="37.8171628" lon="14.5593073"><ele>1143.0</ele><time>2026-05-03T09:57:36Z</time></trkpt><trkpt lat="37.8170118" lon="14.5593954"><ele>1143.0</ele><time>2026-05-03T09:57:37Z</time></trkpt><trkpt lat="37.8168537" lon="14.559474"><ele>1143.0</ele><time>2026-05-03T09:57:38Z</time></trkpt><trkpt lat="37.8166951" lon="14.559536"><ele>1137.0</ele><time>2026-05-03T09:57:39Z</time></trkpt><trkpt lat="37.8165433" lon="14.5595914"><ele>1131.0</ele><time>2026-05-03T09:57:40Z</time></trkpt><trkpt lat="37.8163966" lon="14.5596612"><ele>1125.0</ele><time>2026-05-03T09:57:41Z</time></trkpt><trkpt lat="37.8162634" lon="14.5597488"><ele>1125.0</ele><time>2026-05-03T09:57:42Z</time></trkpt><trkpt lat="37.8161354" lon="14.559846"><ele>1125.0</ele><time>2026-05-03T09:57:43Z</time></trkpt><trkpt lat="37.8160069" lon="14.5599417"><ele>1125.0</ele><time>2026-05-03T09:57:44Z</time></trkpt><trkpt lat="37.8158663" lon="14.5600183"><ele>1127.0</ele><time>2026-05-03T09:57:45Z</time></trkpt><trkpt lat="37.8157202" lon="14.5600713"><ele>1129.0</ele><time>2026-05-03T09:57:46Z</time></trkpt><trkpt lat="37.8155672" lon="14.5601248"><ele>1131.0</ele><time>2026-05-03T09:57:47Z</time></trkpt><trkpt lat="37.8154125" lon="14.5601797"><ele>1131.0</ele><time>2026-05-03T09:57:48Z</time></trkpt><trkpt lat="37.8152532" lon="14.5602317"><ele>1131.0</ele><time>2026-05-03T09:57:49Z</time></trkpt><trkpt lat="37.8150883" lon="14.5602916"><ele>1131.0</ele><time>2026-05-03T09:57:50Z</time></trkpt><trkpt lat="37.8149268" lon="14.5603567"><ele>1128.3333333333333</ele><time>2026-05-03T09:57:51Z</time></trkpt><trkpt lat="37.8147722" lon="14.5604381"><ele>1125.6666666666665</ele><time>2026-05-03T09:57:52Z</time></trkpt><trkpt lat="37.8146318" lon="14.56055"><ele>1123.0</ele><time>2026-05-03T09:57:53Z</time></trkpt><trkpt lat="37.8144946" lon="14.5606747"><ele>1123.0</ele><time>2026-05-03T09:57:54Z</time></trkpt><trkpt lat="37.8143667" lon="14.560812"><ele>1123.0</ele><time>2026-05-03T09:57:55Z</time></trkpt><trkpt lat="37.8142335" lon="14.56094"><ele>1123.0</ele><time>2026-05-03T09:57:56Z</time></trkpt><trkpt lat="37.8141013" lon="14.5610701"><ele>1124.3333333333333</ele><time>2026-05-03T09:57:57Z</time></trkpt><trkpt lat="37.8139856" lon="14.5612184"><ele>1125.6666666666667</ele><time>2026-05-03T09:57:58Z</time></trkpt><trkpt lat="37.8138769" lon="14.5613667"><ele>1127.0</ele><time>2026-05-03T09:57:59Z</time></trkpt><trkpt lat="37.8137823" lon="14.5615082"><ele>1127.0</ele><time>2026-05-03T09:58:00Z</time></trkpt><trkpt lat="37.8136807" lon="14.5616338"><ele>1127.0</ele><time>2026-05-03T09:58:01Z</time></trkpt><trkpt lat="37.813563" lon="14.5617381"><ele>1127.0</ele><time>2026-05-03T09:58:02Z</time></trkpt><trkpt lat="37.8134337" lon="14.5618295"><ele>1127.0</ele><time>2026-05-03T09:58:03Z</time></trkpt><trkpt lat="37.813299" lon="14.5619156"><ele>1129.75</ele><time>2026-05-03T09:58:04Z</time></trkpt><trkpt lat="37.8131813" lon="14.5619971"><ele>1132.5</ele><time>2026-05-03T09:58:05Z</time></trkpt><trkpt lat="37.8130856" lon="14.5620869"><ele>1135.25</ele><time>2026-05-03T09:58:06Z</time></trkpt><trkpt lat="37.8130116" lon="14.5621824"><ele>1138.0</ele><time>2026-05-03T09:58:07Z</time></trkpt><trkpt lat="37.8129555" lon="14.562303"><ele>1139.0</ele><time>2026-05-03T09:58:08Z</time></trkpt><trkpt lat="37.8129116" lon="14.562438"><ele>1140.0</ele><time>2026-05-03T09:58:09Z</time></trkpt><trkpt lat="37.8128755" lon="14.5625867"><ele>1141.0</ele><time>2026-05-03T09:58:10Z</time></trkpt><trkpt lat="37.8128431" lon="14.562748"><ele>1142.0</ele><time>2026-05-03T09:58:11Z</time></trkpt><trkpt lat="37.812804" lon="14.5629036"><ele>1143.5</ele><time>2026-05-03T09:58:12Z</time></trkpt><trkpt lat="37.8127633" lon="14.5630496"><ele>1145.0</ele><time>2026-05-03T09:58:12.999Z</time></trkpt><trkpt lat="37.8127152" lon="14.5631828"><ele>1146.5</ele><time>2026-05-03T09:58:14Z</time></trkpt><trkpt lat="37.8126429" lon="14.5632879"><ele>1148.0</ele><time>2026-05-03T09:58:15Z</time></trkpt><trkpt lat="37.8125719" lon="14.563395"><ele>1148.0</ele><time>2026-05-03T09:58:16Z</time></trkpt><trkpt lat="37.8124911" lon="14.5634995"><ele>1148.0</ele><time>2026-05-03T09:58:17Z</time></trkpt><trkpt lat="37.8124104" lon="14.5636172"><ele>1148.0</ele><time>2026-05-03T09:58:18Z</time></trkpt><trkpt lat="37.8123269" lon="14.5637324"><ele>1148.0</ele><time>2026-05-03T09:58:19Z</time></trkpt><trkpt lat="37.8122438" lon="14.5638563"><ele>1148.0</ele><time>2026-05-03T09:58:20Z</time></trkpt><trkpt lat="37.8121639" lon="14.5639977"><ele>1148.0</ele><time>2026-05-03T09:58:21Z</time></trkpt><trkpt lat="37.8120821" lon="14.5641466"><ele>1148.0</ele><time>2026-05-03T09:58:22Z</time></trkpt><trkpt lat="37.8119955" lon="14.5643038"><ele>1148.0</ele><time>2026-05-03T09:58:23Z</time></trkpt><trkpt lat="37.8118983" lon="14.5644611"><ele>1146.3333333333335</ele><time>2026-05-03T09:58:24Z</time></trkpt><trkpt lat="37.8117955" lon="14.564617"><ele>1144.6666666666667</ele><time>2026-05-03T09:58:25Z</time></trkpt><trkpt lat="37.8116928" lon="14.5647803"><ele>1143.0</ele><time>2026-05-03T09:58:26Z</time></trkpt><trkpt lat="37.8115935" lon="14.5649445"><ele>1143.0</ele><time>2026-05-03T09:58:27Z</time></trkpt><trkpt lat="37.8115039" lon="14.5650944"><ele>1143.0</ele><time>2026-05-03T09:58:28Z</time></trkpt><trkpt lat="37.8114099" lon="14.5652525"><ele>1143.0</ele><time>2026-05-03T09:58:29Z</time></trkpt><trkpt lat="37.8113142" lon="14.5654156"><ele>1140.6666666666667</ele><time>2026-05-03T09:58:29.999Z</time></trkpt><trkpt lat="37.8112189" lon="14.5655822"><ele>1138.3333333333335</ele><time>2026-05-03T09:58:31Z</time></trkpt><trkpt lat="37.8111202" lon="14.5657505"><ele>1136.0</ele><time>2026-05-03T09:58:32Z</time></trkpt><trkpt lat="37.8110205" lon="14.5659163"><ele>1136.3333333333335</ele><time>2026-05-03T09:58:33Z</time></trkpt><trkpt lat="37.8109211" lon="14.5660731"><ele>1136.6666666666667</ele><time>2026-05-03T09:58:34Z</time></trkpt><trkpt lat="37.81083" lon="14.5662381"><ele>1137.0</ele><time>2026-05-03T09:58:35Z</time></trkpt><trkpt lat="37.8107492" lon="14.5664129"><ele>1137.0</ele><time>2026-05-03T09:58:36Z</time></trkpt><trkpt lat="37.8106782" lon="14.566596"><ele>1137.0</ele><time>2026-05-03T09:58:37Z</time></trkpt><trkpt lat="37.8106237" lon="14.5667991"><ele>1137.0</ele><time>2026-05-03T09:58:38Z</time></trkpt><trkpt lat="37.8105849" lon="14.567004"><ele>1134.3333333333333</ele><time>2026-05-03T09:58:39Z</time></trkpt><trkpt lat="37.8105464" lon="14.5672163"><ele>1131.6666666666665</ele><time>2026-05-03T09:58:40Z</time></trkpt><trkpt lat="37.8105109" lon="14.5674341"><ele>1129.0</ele><time>2026-05-03T09:58:41Z</time></trkpt><trkpt lat="37.8104852" lon="14.5676486"><ele>1128.6666666666665</ele><time>2026-05-03T09:58:42Z</time></trkpt><trkpt lat="37.8104849" lon="14.5678717"><ele>1128.3333333333333</ele><time>2026-05-03T09:58:43Z</time></trkpt><trkpt lat="37.8104962" lon="14.5680874"><ele>1128.0</ele><time>2026-05-03T09:58:44Z</time></trkpt><trkpt lat="37.8105256" lon="14.5683077"><ele>1128.0</ele><time>2026-05-03T09:58:45Z</time></trkpt><trkpt lat="37.8105681" lon="14.5685242"><ele>1128.0</ele><time>2026-05-03T09:58:46Z</time></trkpt><trkpt lat="37.810607" lon="14.5687278"><ele>1128.0</ele><time>2026-05-03T09:58:47Z</time></trkpt><trkpt lat="37.8106438" lon="14.5689215"><ele>1127.75</ele><time>2026-05-03T09:58:48Z</time></trkpt><trkpt lat="37.8106771" lon="14.5691144"><ele>1127.5</ele><time>2026-05-03T09:58:49Z</time></trkpt><trkpt lat="37.8107091" lon="14.5692942"><ele>1127.25</ele><time>2026-05-03T09:58:50Z</time></trkpt><trkpt lat="37.8107375" lon="14.5694543"><ele>1127.0</ele><time>2026-05-03T09:58:51Z</time></trkpt><trkpt lat="37.8107598" lon="14.569595"><ele>1126.0</ele><time>2026-05-03T09:58:52Z</time></trkpt><trkpt lat="37.8107782" lon="14.5697333"><ele>1125.0</ele><time>2026-05-03T09:58:53Z</time></trkpt><trkpt lat="37.8107861" lon="14.5698629"><ele>1124.0</ele><time>2026-05-03T09:58:54Z</time></trkpt><trkpt lat="37.8107844" lon="14.5699955"><ele>1123.0</ele><time>2026-05-03T09:58:55Z</time></trkpt><trkpt lat="37.8107575" lon="14.5701119"><ele>1122.0</ele><time>2026-05-03T09:58:56Z</time></trkpt><trkpt lat="37.8107096" lon="14.5702228"><ele>1122.0</ele><time>2026-05-03T09:58:57Z</time></trkpt><trkpt lat="37.8106395" lon="14.5703183"><ele>1122.0</ele><time>2026-05-03T09:58:58Z</time></trkpt><trkpt lat="37.8105462" lon="14.5703995"><ele>1122.0</ele><time>2026-05-03T09:58:59Z</time></trkpt><trkpt lat="37.8104522" lon="14.5704842"><ele>1122.0</ele><time>2026-05-03T09:59:00Z</time></trkpt><trkpt lat="37.8103467" lon="14.5705762"><ele>1120.0</ele><time>2026-05-03T09:59:01Z</time></trkpt><trkpt lat="37.8102456" lon="14.5706689"><ele>1118.0</ele><time>2026-05-03T09:59:01.999Z</time></trkpt><trkpt lat="37.8101466" lon="14.5707617"><ele>1116.0</ele><time>2026-05-03T09:59:03Z</time></trkpt><trkpt lat="37.8100492" lon="14.5708498"><ele>1114.0</ele><time>2026-05-03T09:59:04Z</time></trkpt><trkpt lat="37.8099461" lon="14.5709358"><ele>1114.0</ele><time>2026-05-03T09:59:05Z</time></trkpt><trkpt lat="37.8098457" lon="14.5710231"><ele>1114.0</ele><time>2026-05-03T09:59:06Z</time></trkpt><trkpt lat="37.8097461" lon="14.5711026"><ele>1114.0</ele><time>2026-05-03T09:59:07Z</time></trkpt><trkpt lat="37.8096608" lon="14.5711759"><ele>1114.0</ele><time>2026-05-03T09:59:08Z</time></trkpt><trkpt lat="37.8095829" lon="14.5712569"><ele>1114.0</ele><time>2026-05-03T09:59:09Z</time></trkpt><trkpt lat="37.8095202" lon="14.5713439"><ele>1110.4</ele><time>2026-05-03T09:59:10Z</time></trkpt><trkpt lat="37.8094696" lon="14.5714398"><ele>1106.8000000000002</ele><time>2026-05-03T09:59:11Z</time></trkpt><trkpt lat="37.80944" lon="14.571541"><ele>1103.1999999999998</ele><time>2026-05-03T09:59:12Z</time></trkpt><trkpt lat="37.8094285" lon="14.571662"><ele>1099.6</ele><time>2026-05-03T09:59:13Z</time></trkpt><trkpt lat="37.8094288" lon="14.5717846"><ele>1096.0</ele><time>2026-05-03T09:59:13.999Z</time></trkpt><trkpt lat="37.809445" lon="14.5719173"><ele>1094.8</ele><time>2026-05-03T09:59:15Z</time></trkpt><trkpt lat="37.8094521" lon="14.5720426"><ele>1093.6</ele><time>2026-05-03T09:59:16Z</time></trkpt><trkpt lat="37.8094543" lon="14.5721603"><ele>1092.4</ele><time>2026-05-03T09:59:17Z</time></trkpt><trkpt lat="37.8094665" lon="14.5722849"><ele>1091.2</ele><time>2026-05-03T09:59:18Z</time></trkpt><trkpt lat="37.809467" lon="14.5724147"><ele>1090.0</ele><time>2026-05-03T09:59:19Z</time></trkpt><trkpt lat="37.809454" lon="14.5725362"><ele>1090.0</ele><time>2026-05-03T09:59:20Z</time></trkpt><trkpt lat="37.8094439" lon="14.5726663"><ele>1090.0</ele><time>2026-05-03T09:59:21Z</time></trkpt><trkpt lat="37.8094193" lon="14.5728031"><ele>1090.0</ele><time>2026-05-03T09:59:22Z</time></trkpt><trkpt lat="37.8093922" lon="14.5729447"><ele>1090.0</ele><time>2026-05-03T09:59:23Z</time></trkpt><trkpt lat="37.8093628" lon="14.5730919"><ele>1090.0</ele><time>2026-05-03T09:59:24Z</time></trkpt><trkpt lat="37.8093337" lon="14.5732461"><ele>1091.25</ele><time>2026-05-03T09:59:25Z</time></trkpt><trkpt lat="37.8093" lon="14.5734118"><ele>1092.5</ele><time>2026-05-03T09:59:26Z</time></trkpt><trkpt lat="37.8092653" lon="14.5735697"><ele>1093.75</ele><time>2026-05-03T09:59:27Z</time></trkpt><trkpt lat="37.8092361" lon="14.573719"><ele>1095.0</ele><time>2026-05-03T09:59:27.999Z</time></trkpt><trkpt lat="37.8092025" lon="14.5738644"><ele>1095.0</ele><time>2026-05-03T09:59:29Z</time></trkpt><trkpt lat="37.8091675" lon="14.5740227"><ele>1095.0</ele><time>2026-05-03T09:59:30Z</time></trkpt><trkpt lat="37.8091269" lon="14.5741756"><ele>1095.0</ele><time>2026-05-03T09:59:31Z</time></trkpt><trkpt lat="37.8090688" lon="14.5743067"><ele>1095.0</ele><time>2026-05-03T09:59:32Z</time></trkpt><trkpt lat="37.8089792" lon="14.5744054"><ele>1095.0</ele><time>2026-05-03T09:59:33Z</time></trkpt><trkpt lat="37.8088809" lon="14.5744732"><ele>1095.0</ele><time>2026-05-03T09:59:34Z</time></trkpt><trkpt lat="37.8087777" lon="14.5745102"><ele>1095.0</ele><time>2026-05-03T09:59:35Z</time></trkpt><trkpt lat="37.8086551" lon="14.574506"><ele>1095.0</ele><time>2026-05-03T09:59:36Z</time></trkpt><trkpt lat="37.8085391" lon="14.5744819"><ele>1093.25</ele><time>2026-05-03T09:59:37Z</time></trkpt><trkpt lat="37.8084133" lon="14.5744488"><ele>1091.5</ele><time>2026-05-03T09:59:38Z</time></trkpt><trkpt lat="37.8082839" lon="14.574413"><ele>1089.75</ele><time>2026-05-03T09:59:39Z</time></trkpt><trkpt lat="37.8081515" lon="14.5743752"><ele>1088.0</ele><time>2026-05-03T09:59:40Z</time></trkpt><trkpt lat="37.8080196" lon="14.5743523"><ele>1088.0</ele><time>2026-05-03T09:59:41Z</time></trkpt><trkpt lat="37.8078818" lon="14.5743271"><ele>1088.0</ele><time>2026-05-03T09:59:42Z</time></trkpt><trkpt lat="37.8077342" lon="14.5743091"><ele>1088.0</ele><time>2026-05-03T09:59:43Z</time></trkpt><trkpt lat="37.8075717" lon="14.5742872"><ele>1082.0</ele><time>2026-05-03T09:59:44Z</time></trkpt><trkpt lat="37.8073804" lon="14.5742652"><ele>1076.0</ele><time>2026-05-03T09:59:45Z</time></trkpt><trkpt lat="37.8071992" lon="14.5742371"><ele>1070.0</ele><time>2026-05-03T09:59:46Z</time></trkpt><trkpt lat="37.8070311" lon="14.5742111"><ele>1070.0</ele><time>2026-05-03T09:59:47Z</time></trkpt><trkpt lat="37.8068679" lon="14.5741936"><ele>1070.0</ele><time>2026-05-03T09:59:48Z</time></trkpt><trkpt lat="37.8067175" lon="14.5741694"><ele>1070.0</ele><time>2026-05-03T09:59:49Z</time></trkpt><trkpt lat="37.806572" lon="14.5741458"><ele>1067.5</ele><time>2026-05-03T09:59:50Z</time></trkpt><trkpt lat="37.8064347" lon="14.5741179"><ele>1065.0</ele><time>2026-05-03T09:59:51Z</time></trkpt><trkpt lat="37.80629" lon="14.5741023"><ele>1062.5</ele><time>2026-05-03T09:59:52Z</time></trkpt><trkpt lat="37.8061389" lon="14.5741058"><ele>1060.0</ele><time>2026-05-03T09:59:53Z</time></trkpt><trkpt lat="37.8059965" lon="14.5741335"><ele>1058.75</ele><time>2026-05-03T09:59:54Z</time></trkpt><trkpt lat="37.8058521" lon="14.5741746"><ele>1057.5</ele><time>2026-05-03T09:59:55Z</time></trkpt><trkpt lat="37.8057084" lon="14.574214"><ele>1056.25</ele><time>2026-05-03T09:59:56Z</time></trkpt><trkpt lat="37.8055833" lon="14.574253"><ele>1055.0</ele><time>2026-05-03T09:59:57Z</time></trkpt><trkpt lat="37.805468" lon="14.5742849"><ele>1055.0</ele><time>2026-05-03T09:59:58Z</time></trkpt><trkpt lat="37.8053545" lon="14.5743025"><ele>1055.0</ele><time>2026-05-03T09:59:59Z</time></trkpt><trkpt lat="37.805253" lon="14.5742841"><ele>1055.0</ele><time>2026-05-03T10:00:00Z</time></trkpt><trkpt lat="37.8051568" lon="14.5742323"><ele>1055.0</ele><time>2026-05-03T10:00:01Z</time></trkpt><trkpt lat="37.8050701" lon="14.5741301"><ele>1055.0</ele><time>2026-05-03T10:00:02Z</time></trkpt><trkpt lat="37.8049858" lon="14.5739974"><ele>1054.25</ele><time>2026-05-03T10:00:03Z</time></trkpt><trkpt lat="37.8048887" lon="14.5738585"><ele>1053.5</ele><time>2026-05-03T10:00:04Z</time></trkpt><trkpt lat="37.8048082" lon="14.5737197"><ele>1052.75</ele><time>2026-05-03T10:00:05Z</time></trkpt><trkpt lat="37.8047284" lon="14.5735965"><ele>1052.0</ele><time>2026-05-03T10:00:06Z</time></trkpt><trkpt lat="37.8046451" lon="14.5734776"><ele>1052.0</ele><time>2026-05-03T10:00:07Z</time></trkpt><trkpt lat="37.8045426" lon="14.5734006"><ele>1052.0</ele><time>2026-05-03T10:00:08Z</time></trkpt><trkpt lat="37.8044247" lon="14.5733526"><ele>1052.0</ele><time>2026-05-03T10:00:09Z</time></trkpt><trkpt lat="37.8042995" lon="14.5733256"><ele>1052.0</ele><time>2026-05-03T10:00:10Z</time></trkpt><trkpt lat="37.8041653" lon="14.5733203"><ele>1045.6666666666667</ele><time>2026-05-03T10:00:11Z</time></trkpt><trkpt lat="37.8040241" lon="14.5733371"><ele>1039.3333333333333</ele><time>2026-05-03T10:00:12Z</time></trkpt><trkpt lat="37.8038681" lon="14.5733689"><ele>1033.0</ele><time>2026-05-03T10:00:13Z</time></trkpt><trkpt lat="37.8037009" lon="14.5733873"><ele>1033.0</ele><time>2026-05-03T10:00:14Z</time></trkpt><trkpt lat="37.8035361" lon="14.5734024"><ele>1033.0</ele><time>2026-05-03T10:00:15Z</time></trkpt><trkpt lat="37.8033707" lon="14.5734402"><ele>1033.0</ele><time>2026-05-03T10:00:16Z</time></trkpt><trkpt lat="37.8031973" lon="14.5734899"><ele>1030.0</ele><time>2026-05-03T10:00:17Z</time></trkpt><trkpt lat="37.803005" lon="14.57355"><ele>1027.0</ele><time>2026-05-03T10:00:18Z</time></trkpt><trkpt lat="37.8028255" lon="14.5736066"><ele>1024.0</ele><time>2026-05-03T10:00:19Z</time></trkpt><trkpt lat="37.8026407" lon="14.5736668"><ele>1020.6666666666666</ele><time>2026-05-03T10:00:20Z</time></trkpt><trkpt lat="37.8024631" lon="14.5737177"><ele>1017.3333333333333</ele><time>2026-05-03T10:00:21Z</time></trkpt><trkpt lat="37.802287" lon="14.5737699"><ele>1014.0</ele><time>2026-05-03T10:00:22Z</time></trkpt><trkpt lat="37.8021094" lon="14.5738149"><ele>1014.0</ele><time>2026-05-03T10:00:23Z</time></trkpt><trkpt lat="37.801938" lon="14.5738614"><ele>1014.0</ele><time>2026-05-03T10:00:24Z</time></trkpt><trkpt lat="37.8017666" lon="14.5739018"><ele>1014.0</ele><time>2026-05-03T10:00:25Z</time></trkpt><trkpt lat="37.8015941" lon="14.5739424"><ele>1010.3333333333333</ele><time>2026-05-03T10:00:26Z</time></trkpt><trkpt lat="37.8014249" lon="14.5739838"><ele>1006.6666666666666</ele><time>2026-05-03T10:00:27Z</time></trkpt><trkpt lat="37.8012491" lon="14.5740263"><ele>1003.0</ele><time>2026-05-03T10:00:28Z</time></trkpt><trkpt lat="37.8010748" lon="14.5740721"><ele>1000.6666666666666</ele><time>2026-05-03T10:00:29Z</time></trkpt><trkpt lat="37.800905" lon="14.5741204"><ele>998.3333333333333</ele><time>2026-05-03T10:00:30Z</time></trkpt><trkpt lat="37.8007389" lon="14.5741686"><ele>996.0</ele><time>2026-05-03T10:00:31Z</time></trkpt><trkpt lat="37.8005744" lon="14.5742112"><ele>996.0</ele><time>2026-05-03T10:00:32Z</time></trkpt><trkpt lat="37.8004081" lon="14.5742524"><ele>996.0</ele><time>2026-05-03T10:00:33Z</time></trkpt><trkpt lat="37.8002398" lon="14.5742943"><ele>996.0</ele><time>2026-05-03T10:00:34Z</time></trkpt><trkpt lat="37.8000749" lon="14.5743317"><ele>993.3333333333333</ele><time>2026-05-03T10:00:35Z</time></trkpt><trkpt lat="37.7999142" lon="14.5743729"><ele>990.6666666666666</ele><time>2026-05-03T10:00:36Z</time></trkpt><trkpt lat="37.7997588" lon="14.5744107"><ele>988.0</ele><time>2026-05-03T10:00:37Z</time></trkpt><trkpt lat="37.7996006" lon="14.57445"><ele>988.0</ele><time>2026-05-03T10:00:38Z</time></trkpt><trkpt lat="37.7994528" lon="14.574488"><ele>988.0</ele><time>2026-05-03T10:00:39Z</time></trkpt><trkpt lat="37.7993138" lon="14.5745247"><ele>988.0</ele><time>2026-05-03T10:00:40Z</time></trkpt><trkpt lat="37.7991806" lon="14.5745572"><ele>988.0</ele><time>2026-05-03T10:00:41Z</time></trkpt><trkpt lat="37.7990534" lon="14.5745873"><ele>985.5999999999999</ele><time>2026-05-03T10:00:42Z</time></trkpt><trkpt lat="37.7989301" lon="14.5746154"><ele>983.1999999999999</ele><time>2026-05-03T10:00:43Z</time></trkpt><trkpt lat="37.7988212" lon="14.574629"><ele>980.8</ele><time>2026-05-03T10:00:44Z</time></trkpt><trkpt lat="37.7987292" lon="14.5746358"><ele>978.4</ele><time>2026-05-03T10:00:45Z</time></trkpt><trkpt lat="37.7986544" lon="14.5746313"><ele>976.0</ele><time>2026-05-03T10:00:46Z</time></trkpt><trkpt lat="37.7985561" lon="14.5745939"><ele>975.9999999999999</ele><time>2026-05-03T10:00:48Z</time></trkpt><trkpt lat="37.7985042" lon="14.5745419"><ele>976.0</ele><time>2026-05-03T10:00:50Z</time></trkpt><trkpt lat="37.7985027" lon="14.5744414"><ele>976.0</ele><time>2026-05-03T10:00:52Z</time></trkpt><trkpt lat="37.7985449" lon="14.5743026"><ele>976.0</ele><time>2026-05-03T10:00:54Z</time></trkpt><trkpt lat="37.7985717" lon="14.5742192"><ele>975.9999999999999</ele><time>2026-05-03T10:00:55Z</time></trkpt><trkpt lat="37.7986163" lon="14.5741254"><ele>976.0</ele><time>2026-05-03T10:00:56Z</time></trkpt><trkpt lat="37.7986679" lon="14.5740289"><ele>977.0</ele><time>2026-05-03T10:00:57Z</time></trkpt><trkpt lat="37.7987337" lon="14.573928"><ele>978.0</ele><time>2026-05-03T10:00:58Z</time></trkpt><trkpt lat="37.7988225" lon="14.5738173"><ele>979.0</ele><time>2026-05-03T10:00:59Z</time></trkpt><trkpt lat="37.7989262" lon="14.5736958"><ele>980.0</ele><time>2026-05-03T10:01:00Z</time></trkpt><trkpt lat="37.7990407" lon="14.5735684"><ele>981.3333333333334</ele><time>2026-05-03T10:01:00.999Z</time></trkpt><trkpt lat="37.7991622" lon="14.5734335"><ele>982.6666666666667</ele><time>2026-05-03T10:01:02Z</time></trkpt><trkpt lat="37.7992844" lon="14.5732947"><ele>984.0</ele><time>2026-05-03T10:01:03Z</time></trkpt><trkpt lat="37.7994058" lon="14.573166"><ele>983.6666666666667</ele><time>2026-05-03T10:01:04Z</time></trkpt><trkpt lat="37.7995307" lon="14.5730297"><ele>983.3333333333334</ele><time>2026-05-03T10:01:05Z</time></trkpt><trkpt lat="37.7996445" lon="14.5729004"><ele>983.0</ele><time>2026-05-03T10:01:06Z</time></trkpt><trkpt lat="37.799754" lon="14.5727877"><ele>983.0</ele><time>2026-05-03T10:01:07Z</time></trkpt><trkpt lat="37.7998717" lon="14.5726993"><ele>983.0</ele><time>2026-05-03T10:01:08Z</time></trkpt><trkpt lat="37.8000097" lon="14.5726519"><ele>983.0</ele><time>2026-05-03T10:01:09Z</time></trkpt><trkpt lat="37.8001581" lon="14.5726331"><ele>983.0</ele><time>2026-05-03T10:01:10Z</time></trkpt><trkpt lat="37.8003204" lon="14.5726386"><ele>983.3333333333334</ele><time>2026-05-03T10:01:11Z</time></trkpt><trkpt lat="37.80048" lon="14.572635"><ele>983.6666666666667</ele><time>2026-05-03T10:01:12Z</time></trkpt><trkpt lat="37.800641" lon="14.5726091"><ele>984.0</ele><time>2026-05-03T10:01:13Z</time></trkpt><trkpt lat="37.8007938" lon="14.5725623"><ele>984.0</ele><time>2026-05-03T10:01:14Z</time></trkpt><trkpt lat="37.8009374" lon="14.5724887"><ele>984.0</ele><time>2026-05-03T10:01:15Z</time></trkpt><trkpt lat="37.8010815" lon="14.5724051"><ele>984.0</ele><time>2026-05-03T10:01:16Z</time></trkpt><trkpt lat="37.8012329" lon="14.5723146"><ele>983.6666666666667</ele><time>2026-05-03T10:01:17Z</time></trkpt><trkpt lat="37.801389" lon="14.5722187"><ele>983.3333333333334</ele><time>2026-05-03T10:01:18Z</time></trkpt><trkpt lat="37.8015573" lon="14.5721188"><ele>983.0</ele><time>2026-05-03T10:01:19Z</time></trkpt><trkpt lat="37.8017362" lon="14.5720114"><ele>987.0</ele><time>2026-05-03T10:01:20Z</time></trkpt><trkpt lat="37.8019093" lon="14.5719038"><ele>991.0</ele><time>2026-05-03T10:01:21Z</time></trkpt><trkpt lat="37.8020772" lon="14.5718029"><ele>995.0</ele><time>2026-05-03T10:01:22Z</time></trkpt><trkpt lat="37.8021839" lon="14.5716778"><ele>995.0</ele><time>2026-05-03T10:01:23Z</time></trkpt><trkpt lat="37.8023017" lon="14.5715175"><ele>995.0</ele><time>2026-05-03T10:01:23.999Z</time></trkpt><trkpt lat="37.8023818" lon="14.5713282"><ele>995.0</ele><time>2026-05-03T10:01:25Z</time></trkpt><trkpt lat="37.8024427" lon="14.5711379"><ele>993.6666666666667</ele><time>2026-05-03T10:01:26Z</time></trkpt><trkpt lat="37.80247" lon="14.5709337"><ele>992.3333333333333</ele><time>2026-05-03T10:01:27Z</time></trkpt><trkpt lat="37.8024587" lon="14.5707238"><ele>991.0</ele><time>2026-05-03T10:01:28Z</time></trkpt><trkpt lat="37.802399" lon="14.5705147"><ele>992.0</ele><time>2026-05-03T10:01:29Z</time></trkpt><trkpt lat="37.8023222" lon="14.570307"><ele>993.0</ele><time>2026-05-03T10:01:30Z</time></trkpt><trkpt lat="37.8022497" lon="14.5701044"><ele>994.0</ele><time>2026-05-03T10:01:31Z</time></trkpt><trkpt lat="37.8021818" lon="14.5699032"><ele>994.0</ele><time>2026-05-03T10:01:32Z</time></trkpt><trkpt lat="37.8021134" lon="14.5697075"><ele>994.0</ele><time>2026-05-03T10:01:33Z</time></trkpt><trkpt lat="37.8020481" lon="14.569526"><ele>994.0</ele><time>2026-05-03T10:01:34Z</time></trkpt><trkpt lat="37.8019865" lon="14.5693519"><ele>993.75</ele><time>2026-05-03T10:01:35Z</time></trkpt><trkpt lat="37.8019443" lon="14.5691706"><ele>993.5</ele><time>2026-05-03T10:01:36Z</time></trkpt><trkpt lat="37.8019395" lon="14.5689869"><ele>993.25</ele><time>2026-05-03T10:01:37Z</time></trkpt><trkpt lat="37.8019694" lon="14.5688023"><ele>993.0</ele><time>2026-05-03T10:01:38Z</time></trkpt><trkpt lat="37.8020304" lon="14.5686212"><ele>993.0</ele><time>2026-05-03T10:01:39Z</time></trkpt><trkpt lat="37.802104" lon="14.5684275"><ele>993.0</ele><time>2026-05-03T10:01:40Z</time></trkpt><trkpt lat="37.8021909" lon="14.5682239"><ele>993.0</ele><time>2026-05-03T10:01:41Z</time></trkpt><trkpt lat="37.8022821" lon="14.5680006"><ele>990.3333333333333</ele><time>2026-05-03T10:01:42Z</time></trkpt><trkpt lat="37.8023906" lon="14.5677685"><ele>987.6666666666666</ele><time>2026-05-03T10:01:43Z</time></trkpt><trkpt lat="37.8025029" lon="14.5675242"><ele>985.0</ele><time>2026-05-03T10:01:44Z</time></trkpt><trkpt lat="37.8026315" lon="14.5672751"><ele>990.3333333333333</ele><time>2026-05-03T10:01:45Z</time></trkpt><trkpt lat="37.8027399" lon="14.5670463"><ele>995.6666666666667</ele><time>2026-05-03T10:01:46Z</time></trkpt><trkpt lat="37.8028342" lon="14.5667764"><ele>1001.0</ele><time>2026-05-03T10:01:47Z</time></trkpt><trkpt lat="37.8028828" lon="14.566481"><ele>999.0</ele><time>2026-05-03T10:01:48Z</time></trkpt><trkpt lat="37.8029161" lon="14.5661903"><ele>997.0</ele><time>2026-05-03T10:01:49Z</time></trkpt><trkpt lat="37.8029459" lon="14.5659259"><ele>995.0</ele><time>2026-05-03T10:01:50Z</time></trkpt><trkpt lat="37.8029876" lon="14.5656828"><ele>995.0</ele><time>2026-05-03T10:01:51Z</time></trkpt><trkpt lat="37.8030485" lon="14.5654611"><ele>995.0</ele><time>2026-05-03T10:01:52Z</time></trkpt><trkpt lat="37.8031383" lon="14.5652575"><ele>995.0</ele><time>2026-05-03T10:01:53Z</time></trkpt><trkpt lat="37.8032536" lon="14.5650846"><ele>995.6666666666667</ele><time>2026-05-03T10:01:54Z</time></trkpt><trkpt lat="37.8033771" lon="14.5649445"><ele>996.3333333333333</ele><time>2026-05-03T10:01:55Z</time></trkpt><trkpt lat="37.8035208" lon="14.5648191"><ele>997.0</ele><time>2026-05-03T10:01:56Z</time></trkpt><trkpt lat="37.8036763" lon="14.5647092"><ele>997.0</ele><time>2026-05-03T10:01:57Z</time></trkpt><trkpt lat="37.8038268" lon="14.5646059"><ele>997.0</ele><time>2026-05-03T10:01:58Z</time></trkpt><trkpt lat="37.8039675" lon="14.5644996"><ele>997.0</ele><time>2026-05-03T10:01:59Z</time></trkpt><trkpt lat="37.8040926" lon="14.5643858"><ele>996.6666666666666</ele><time>2026-05-03T10:02:00Z</time></trkpt><trkpt lat="37.8042026" lon="14.5642512"><ele>996.3333333333333</ele><time>2026-05-03T10:02:01Z</time></trkpt><trkpt lat="37.8043045" lon="14.5640958"><ele>996.0</ele><time>2026-05-03T10:02:02Z</time></trkpt><trkpt lat="37.804391" lon="14.5639124"><ele>996.0</ele><time>2026-05-03T10:02:03Z</time></trkpt><trkpt lat="37.8044739" lon="14.5637156"><ele>996.0</ele><time>2026-05-03T10:02:04Z</time></trkpt><trkpt lat="37.8045539" lon="14.5635195"><ele>996.0</ele><time>2026-05-03T10:02:05Z</time></trkpt><trkpt lat="37.8046351" lon="14.5633099"><ele>993.0</ele><time>2026-05-03T10:02:06Z</time></trkpt><trkpt lat="37.8047298" lon="14.563119"><ele>990.0</ele><time>2026-05-03T10:02:07Z</time></trkpt><trkpt lat="37.8048224" lon="14.5629211"><ele>987.0</ele><time>2026-05-03T10:02:08Z</time></trkpt><trkpt lat="37.8049121" lon="14.562742"><ele>985.6666666666667</ele><time>2026-05-03T10:02:09Z</time></trkpt><trkpt lat="37.805009" lon="14.5625724"><ele>984.3333333333334</ele><time>2026-05-03T10:02:10Z</time></trkpt><trkpt lat="37.8051336" lon="14.5624313"><ele>983.0</ele><time>2026-05-03T10:02:11Z</time></trkpt><trkpt lat="37.8052904" lon="14.5623197"><ele>983.0</ele><time>2026-05-03T10:02:12Z</time></trkpt><trkpt lat="37.8054353" lon="14.5622348"><ele>983.0</ele><time>2026-05-03T10:02:13Z</time></trkpt><trkpt lat="37.8055646" lon="14.5621553"><ele>983.0</ele><time>2026-05-03T10:02:14Z</time></trkpt><trkpt lat="37.8056768" lon="14.5620715"><ele>983.0</ele><time>2026-05-03T10:02:15Z</time></trkpt><trkpt lat="37.8057673" lon="14.5619548"><ele>980.25</ele><time>2026-05-03T10:02:16Z</time></trkpt><trkpt lat="37.8058345" lon="14.5617999"><ele>977.5</ele><time>2026-05-03T10:02:17Z</time></trkpt><trkpt lat="37.8058687" lon="14.5616255"><ele>974.75</ele><time>2026-05-03T10:02:18Z</time></trkpt><trkpt lat="37.8058783" lon="14.5614308"><ele>972.0</ele><time>2026-05-03T10:02:19Z</time></trkpt><trkpt lat="37.8058739" lon="14.5612213"><ele>968.6666666666667</ele><time>2026-05-03T10:02:20Z</time></trkpt><trkpt lat="37.8058726" lon="14.5609957"><ele>965.3333333333334</ele><time>2026-05-03T10:02:21Z</time></trkpt><trkpt lat="37.8058843" lon="14.5607484"><ele>962.0</ele><time>2026-05-03T10:02:22Z</time></trkpt><trkpt lat="37.8059283" lon="14.5604926"><ele>960.5</ele><time>2026-05-03T10:02:23Z</time></trkpt><trkpt lat="37.8059884" lon="14.560207"><ele>959.0</ele><time>2026-05-03T10:02:24Z</time></trkpt><trkpt lat="37.8060205" lon="14.5599241"><ele>965.0</ele><time>2026-05-03T10:02:25Z</time></trkpt><trkpt lat="37.8060177" lon="14.5596547"><ele>971.0</ele><time>2026-05-03T10:02:26Z</time></trkpt><trkpt lat="37.8060163" lon="14.5594262"><ele>977.0</ele><time>2026-05-03T10:02:27Z</time></trkpt><trkpt lat="37.8060462" lon="14.5591988"><ele>977.6666666666667</ele><time>2026-05-03T10:02:28Z</time></trkpt><trkpt lat="37.806108" lon="14.5589631"><ele>978.3333333333333</ele><time>2026-05-03T10:02:29Z</time></trkpt><trkpt lat="37.8061725" lon="14.5587173"><ele>979.0</ele><time>2026-05-03T10:02:30Z</time></trkpt><trkpt lat="37.8062046" lon="14.5584367"><ele>979.0</ele><time>2026-05-03T10:02:31Z</time></trkpt><trkpt lat="37.8062327" lon="14.558139"><ele>979.0</ele><time>2026-05-03T10:02:32Z</time></trkpt><trkpt lat="37.8062455" lon="14.5578646"><ele>977.6666666666666</ele><time>2026-05-03T10:02:32.999Z</time></trkpt><trkpt lat="37.8062553" lon="14.5576155"><ele>976.3333333333333</ele><time>2026-05-03T10:02:33.999Z</time></trkpt><trkpt lat="37.8062746" lon="14.5573903"><ele>975.0</ele><time>2026-05-03T10:02:35Z</time></trkpt><trkpt lat="37.8063199" lon="14.5571896"><ele>971.3333333333333</ele><time>2026-05-03T10:02:36Z</time></trkpt><trkpt lat="37.8063942" lon="14.5570161"><ele>967.6666666666666</ele><time>2026-05-03T10:02:37Z</time></trkpt><trkpt lat="37.806504" lon="14.5568459"><ele>964.0</ele><time>2026-05-03T10:02:38Z</time></trkpt><trkpt lat="37.806629" lon="14.5567188"><ele>964.0</ele><time>2026-05-03T10:02:39Z</time></trkpt><trkpt lat="37.8067562" lon="14.5566331"><ele>964.0</ele><time>2026-05-03T10:02:40Z</time></trkpt><trkpt lat="37.8069042" lon="14.5565924"><ele>964.0</ele><time>2026-05-03T10:02:41Z</time></trkpt><trkpt lat="37.8070496" lon="14.556587"><ele>964.0</ele><time>2026-05-03T10:02:42Z</time></trkpt><trkpt lat="37.8071835" lon="14.5565545"><ele>965.75</ele><time>2026-05-03T10:02:43Z</time></trkpt><trkpt lat="37.8072925" lon="14.5564679"><ele>967.5</ele><time>2026-05-03T10:02:44Z</time></trkpt><trkpt lat="37.8073903" lon="14.5563413"><ele>969.25</ele><time>2026-05-03T10:02:45Z</time></trkpt><trkpt lat="37.8074861" lon="14.5562042"><ele>971.0</ele><time>2026-05-03T10:02:46Z</time></trkpt><trkpt lat="37.8075914" lon="14.5560894"><ele>969.0</ele><time>2026-05-03T10:02:47Z</time></trkpt><trkpt lat="37.8077204" lon="14.5560162"><ele>967.0</ele><time>2026-05-03T10:02:48Z</time></trkpt><trkpt lat="37.8078526" lon="14.5559688"><ele>965.0</ele><time>2026-05-03T10:02:49Z</time></trkpt><trkpt lat="37.8079704" lon="14.5559075"><ele>963.0</ele><time>2026-05-03T10:02:50Z</time></trkpt><trkpt lat="37.8080656" lon="14.5558254"><ele>963.0</ele><time>2026-05-03T10:02:51Z</time></trkpt><trkpt lat="37.808129" lon="14.5557038"><ele>963.0</ele><time>2026-05-03T10:02:52Z</time></trkpt><trkpt lat="37.8081507" lon="14.5555632"><ele>963.0</ele><time>2026-05-03T10:02:53Z</time></trkpt><trkpt lat="37.8081591" lon="14.5553974"><ele>963.0</ele><time>2026-05-03T10:02:54Z</time></trkpt><trkpt lat="37.8081669" lon="14.5552194"><ele>959.3333333333333</ele><time>2026-05-03T10:02:55Z</time></trkpt><trkpt lat="37.8081927" lon="14.5550513"><ele>955.6666666666666</ele><time>2026-05-03T10:02:56Z</time></trkpt><trkpt lat="37.8082594" lon="14.5548613"><ele>952.0</ele><time>2026-05-03T10:02:57Z</time></trkpt><trkpt lat="37.8083414" lon="14.5546691"><ele>950.0</ele><time>2026-05-03T10:02:58Z</time></trkpt><trkpt lat="37.8084168" lon="14.554499"><ele>948.0</ele><time>2026-05-03T10:02:59Z</time></trkpt><trkpt lat="37.8084811" lon="14.5543322"><ele>946.0</ele><time>2026-05-03T10:02:59.999Z</time></trkpt><trkpt lat="37.8085083" lon="14.5541365"><ele>947.0</ele><time>2026-05-03T10:03:01Z</time></trkpt><trkpt lat="37.8084986" lon="14.5539221"><ele>948.0</ele><time>2026-05-03T10:03:02Z</time></trkpt><trkpt lat="37.8084781" lon="14.55368"><ele>949.0</ele><time>2026-05-03T10:03:03Z</time></trkpt><trkpt lat="37.8084536" lon="14.5534604"><ele>949.0</ele><time>2026-05-03T10:03:04Z</time></trkpt><trkpt lat="37.8084224" lon="14.5532485"><ele>949.0</ele><time>2026-05-03T10:03:05Z</time></trkpt><trkpt lat="37.8084305" lon="14.5530374"><ele>949.0</ele><time>2026-05-03T10:03:06Z</time></trkpt><trkpt lat="37.8084724" lon="14.5528446"><ele>954.6666666666666</ele><time>2026-05-03T10:03:07Z</time></trkpt><trkpt lat="37.8085528" lon="14.5526486"><ele>960.3333333333333</ele><time>2026-05-03T10:03:08Z</time></trkpt><trkpt lat="37.8086488" lon="14.5524578"><ele>966.0</ele><time>2026-05-03T10:03:09Z</time></trkpt><trkpt lat="37.808735" lon="14.5522869"><ele>966.0</ele><time>2026-05-03T10:03:10Z</time></trkpt><trkpt lat="37.8087944" lon="14.5521263"><ele>966.0</ele><time>2026-05-03T10:03:11Z</time></trkpt><trkpt lat="37.808819" lon="14.5519543"><ele>966.0</ele><time>2026-05-03T10:03:12Z</time></trkpt><trkpt lat="37.8087854" lon="14.5517921"><ele>966.0</ele><time>2026-05-03T10:03:13Z</time></trkpt><trkpt lat="37.8087104" lon="14.5516158"><ele>966.6666666666667</ele><time>2026-05-03T10:03:13.999Z</time></trkpt><trkpt lat="37.8086197" lon="14.5514229"><ele>967.3333333333334</ele><time>2026-05-03T10:03:15Z</time></trkpt><trkpt lat="37.8085284" lon="14.5512014"><ele>968.0</ele><time>2026-05-03T10:03:16Z</time></trkpt><trkpt lat="37.8084318" lon="14.550979"><ele>968.6666666666667</ele><time>2026-05-03T10:03:17Z</time></trkpt><trkpt lat="37.8083364" lon="14.5507569"><ele>969.3333333333333</ele><time>2026-05-03T10:03:18Z</time></trkpt><trkpt lat="37.8082324" lon="14.5505321"><ele>970.0</ele><time>2026-05-03T10:03:19Z</time></trkpt><trkpt lat="37.8081348" lon="14.5503085"><ele>970.0</ele><time>2026-05-03T10:03:20Z</time></trkpt><trkpt lat="37.8080481" lon="14.5500872"><ele>970.0</ele><time>2026-05-03T10:03:21Z</time></trkpt><trkpt lat="37.8080083" lon="14.5498643"><ele>970.0</ele><time>2026-05-03T10:03:22Z</time></trkpt><trkpt lat="37.807969" lon="14.5496501"><ele>970.3333333333333</ele><time>2026-05-03T10:03:23Z</time></trkpt><trkpt lat="37.8079511" lon="14.5494437"><ele>970.6666666666667</ele><time>2026-05-03T10:03:24Z</time></trkpt><trkpt lat="37.8080091" lon="14.5491822"><ele>971.0</ele><time>2026-05-03T10:03:25Z</time></trkpt><trkpt lat="37.8080277" lon="14.5489614"><ele>971.0</ele><time>2026-05-03T10:03:26Z</time></trkpt><trkpt lat="37.8080723" lon="14.5487614"><ele>971.0</ele><time>2026-05-03T10:03:26.999Z</time></trkpt><trkpt lat="37.8081413" lon="14.5485771"><ele>971.0</ele><time>2026-05-03T10:03:28Z</time></trkpt><trkpt lat="37.8082294" lon="14.5483977"><ele>970.6666666666667</ele><time>2026-05-03T10:03:29Z</time></trkpt><trkpt lat="37.8083412" lon="14.5482366"><ele>970.3333333333333</ele><time>2026-05-03T10:03:30Z</time></trkpt><trkpt lat="37.8084759" lon="14.5480898"><ele>970.0</ele><time>2026-05-03T10:03:31Z</time></trkpt><trkpt lat="37.808622" lon="14.5479555"><ele>972.0</ele><time>2026-05-03T10:03:32Z</time></trkpt><trkpt lat="37.8087713" lon="14.5478206"><ele>974.0</ele><time>2026-05-03T10:03:33Z</time></trkpt><trkpt lat="37.8089238" lon="14.5476866"><ele>976.0</ele><time>2026-05-03T10:03:34Z</time></trkpt><trkpt lat="37.8090762" lon="14.5475606"><ele>976.0</ele><time>2026-05-03T10:03:35Z</time></trkpt><trkpt lat="37.8091974" lon="14.5474117"><ele>976.0</ele><time>2026-05-03T10:03:36Z</time></trkpt><trkpt lat="37.8092922" lon="14.5472148"><ele>976.0</ele><time>2026-05-03T10:03:37Z</time></trkpt><trkpt lat="37.8093657" lon="14.5470329"><ele>976.75</ele><time>2026-05-03T10:03:38Z</time></trkpt><trkpt lat="37.8094199" lon="14.5468877"><ele>977.5</ele><time>2026-05-03T10:03:39Z</time></trkpt><trkpt lat="37.809503" lon="14.5467677"><ele>978.25</ele><time>2026-05-03T10:03:40Z</time></trkpt><trkpt lat="37.8095826" lon="14.5466707"><ele>979.0</ele><time>2026-05-03T10:03:41Z</time></trkpt><trkpt lat="37.8097611" lon="14.5466612"><ele>979.0</ele><time>2026-05-03T10:03:42Z</time></trkpt><trkpt lat="37.8098995" lon="14.5466046"><ele>979.0</ele><time>2026-05-03T10:03:43Z</time></trkpt><trkpt lat="37.8100304" lon="14.5464976"><ele>979.0</ele><time>2026-05-03T10:03:44Z</time></trkpt><trkpt lat="37.8101677" lon="14.546393"><ele>980.5</ele><time>2026-05-03T10:03:45Z</time></trkpt><trkpt lat="37.8103057" lon="14.5462184"><ele>982.0</ele><time>2026-05-03T10:03:46Z</time></trkpt><trkpt lat="37.8104157" lon="14.5459082"><ele>982.0</ele><time>2026-05-03T10:03:47Z</time></trkpt><trkpt lat="37.8105325" lon="14.5456963"><ele>982.0</ele><time>2026-05-03T10:03:48Z</time></trkpt><trkpt lat="37.8106444" lon="14.5454935"><ele>982.0</ele><time>2026-05-03T10:03:49Z</time></trkpt><trkpt lat="37.8107454" lon="14.5453022"><ele>983.0</ele><time>2026-05-03T10:03:50Z</time></trkpt><trkpt lat="37.8108529" lon="14.5451528"><ele>984.0</ele><time>2026-05-03T10:03:51Z</time></trkpt><trkpt lat="37.8109872" lon="14.5450385"><ele>985.0</ele><time>2026-05-03T10:03:52Z</time></trkpt><trkpt lat="37.8111576" lon="14.5449506"><ele>985.0</ele><time>2026-05-03T10:03:53Z</time></trkpt><trkpt lat="37.8113167" lon="14.544883"><ele>985.0</ele><time>2026-05-03T10:03:54Z</time></trkpt><trkpt lat="37.811473" lon="14.5447856"><ele>985.0</ele><time>2026-05-03T10:03:55Z</time></trkpt><trkpt lat="37.811626" lon="14.5447018"><ele>985.0</ele><time>2026-05-03T10:03:56Z</time></trkpt><trkpt lat="37.8117854" lon="14.5445609"><ele>985.0</ele><time>2026-05-03T10:03:57Z</time></trkpt><trkpt lat="37.8118344" lon="14.5442051"><ele>986.3333333333333</ele><time>2026-05-03T10:03:58Z</time></trkpt><trkpt lat="37.8119201" lon="14.5439569"><ele>987.6666666666667</ele><time>2026-05-03T10:03:59Z</time></trkpt><trkpt lat="37.8119463" lon="14.5436998"><ele>989.0</ele><time>2026-05-03T10:04:00Z</time></trkpt><trkpt lat="37.8119633" lon="14.5434704"><ele>989.0</ele><time>2026-05-03T10:04:01Z</time></trkpt><trkpt lat="37.8120006" lon="14.5432387"><ele>989.0</ele><time>2026-05-03T10:04:02Z</time></trkpt><trkpt lat="37.8120927" lon="14.5430038"><ele>989.0</ele><time>2026-05-03T10:04:03Z</time></trkpt><trkpt lat="37.8121969" lon="14.5427438"><ele>979.0</ele><time>2026-05-03T10:04:04Z</time></trkpt><trkpt lat="37.8123041" lon="14.5424746"><ele>969.0</ele><time>2026-05-03T10:04:05Z</time></trkpt><trkpt lat="37.812395" lon="14.5422064"><ele>963.0</ele><time>2026-05-03T10:04:06Z</time></trkpt><trkpt lat="37.8124829" lon="14.5419381"><ele>957.0</ele><time>2026-05-03T10:04:07Z</time></trkpt><trkpt lat="37.8125902" lon="14.541678"><ele>959.3333333333333</ele><time>2026-05-03T10:04:08Z</time></trkpt><trkpt lat="37.8127007" lon="14.541439"><ele>961.6666666666666</ele><time>2026-05-03T10:04:09Z</time></trkpt><trkpt lat="37.8128143" lon="14.5412127"><ele>964.0</ele><time>2026-05-03T10:04:10Z</time></trkpt><trkpt lat="37.8129232" lon="14.5410133"><ele>964.0</ele><time>2026-05-03T10:04:11Z</time></trkpt><trkpt lat="37.8130203" lon="14.5408368"><ele>964.0</ele><time>2026-05-03T10:04:12Z</time></trkpt><trkpt lat="37.8131336" lon="14.5406866"><ele>964.0</ele><time>2026-05-03T10:04:13Z</time></trkpt><trkpt lat="37.8132472" lon="14.5405718"><ele>964.0</ele><time>2026-05-03T10:04:14Z</time></trkpt><trkpt lat="37.8133896" lon="14.540533"><ele>964.0</ele><time>2026-05-03T10:04:15Z</time></trkpt><trkpt lat="37.8135484" lon="14.5405384"><ele>964.0</ele><time>2026-05-03T10:04:16Z</time></trkpt><trkpt lat="37.8137184" lon="14.5405734"><ele>960.3333333333333</ele><time>2026-05-03T10:04:17Z</time></trkpt><trkpt lat="37.8138989" lon="14.5406395"><ele>956.6666666666667</ele><time>2026-05-03T10:04:18Z</time></trkpt><trkpt lat="37.8140849" lon="14.5407133"><ele>953.0</ele><time>2026-05-03T10:04:19Z</time></trkpt><trkpt lat="37.8142417" lon="14.5407823"><ele>950.5</ele><time>2026-05-03T10:04:20Z</time></trkpt><trkpt lat="37.8143854" lon="14.5408585"><ele>948.0</ele><time>2026-05-03T10:04:21Z</time></trkpt><trkpt lat="37.8145018" lon="14.5409608"><ele>945.5</ele><time>2026-05-03T10:04:22Z</time></trkpt><trkpt lat="37.8145842" lon="14.5411144"><ele>943.0</ele><time>2026-05-03T10:04:23Z</time></trkpt><trkpt lat="37.8146522" lon="14.5412914"><ele>943.0</ele><time>2026-05-03T10:04:24Z</time></trkpt><trkpt lat="37.8147149" lon="14.5414939"><ele>943.0</ele><time>2026-05-03T10:04:25Z</time></trkpt><trkpt lat="37.814791" lon="14.5416957"><ele>943.0</ele><time>2026-05-03T10:04:26Z</time></trkpt><trkpt lat="37.8148784" lon="14.5418907"><ele>948.3333333333333</ele><time>2026-05-03T10:04:27Z</time></trkpt><trkpt lat="37.8149665" lon="14.5420823"><ele>953.6666666666667</ele><time>2026-05-03T10:04:28Z</time></trkpt><trkpt lat="37.8150618" lon="14.5422695"><ele>959.0</ele><time>2026-05-03T10:04:29Z</time></trkpt><trkpt lat="37.8151513" lon="14.5424542"><ele>954.6666666666667</ele><time>2026-05-03T10:04:30Z</time></trkpt><trkpt lat="37.8152319" lon="14.5426322"><ele>950.3333333333333</ele><time>2026-05-03T10:04:31Z</time></trkpt><trkpt lat="37.8152916" lon="14.5428107"><ele>946.0</ele><time>2026-05-03T10:04:32Z</time></trkpt><trkpt lat="37.8153139" lon="14.5429949"><ele>946.0</ele><time>2026-05-03T10:04:33Z</time></trkpt><trkpt lat="37.8153228" lon="14.5431669"><ele>946.0</ele><time>2026-05-03T10:04:34Z</time></trkpt><trkpt lat="37.8153462" lon="14.5433356"><ele>946.0</ele><time>2026-05-03T10:04:35Z</time></trkpt><trkpt lat="37.815406" lon="14.5434809"><ele>946.0</ele><time>2026-05-03T10:04:36Z</time></trkpt><trkpt lat="37.8155115" lon="14.5436043"><ele>946.0</ele><time>2026-05-03T10:04:37Z</time></trkpt><trkpt lat="37.8156453" lon="14.5436875"><ele>946.0</ele><time>2026-05-03T10:04:38Z</time></trkpt><trkpt lat="37.8158056" lon="14.5437632"><ele>946.0</ele><time>2026-05-03T10:04:39Z</time></trkpt><trkpt lat="37.8159784" lon="14.5438543"><ele>947.3333333333333</ele><time>2026-05-03T10:04:40Z</time></trkpt><trkpt lat="37.8161542" lon="14.5439498"><ele>948.6666666666667</ele><time>2026-05-03T10:04:41Z</time></trkpt><trkpt lat="37.8163272" lon="14.544047"><ele>950.0</ele><time>2026-05-03T10:04:42Z</time></trkpt><trkpt lat="37.8164899" lon="14.5441336"><ele>950.0</ele><time>2026-05-03T10:04:43Z</time></trkpt><trkpt lat="37.8166398" lon="14.5442174"><ele>950.0</ele><time>2026-05-03T10:04:44Z</time></trkpt><trkpt lat="37.8167678" lon="14.5443239"><ele>950.0</ele><time>2026-05-03T10:04:45Z</time></trkpt><trkpt lat="37.8168794" lon="14.5444697"><ele>950.6666666666667</ele><time>2026-05-03T10:04:46Z</time></trkpt><trkpt lat="37.8169709" lon="14.5446408"><ele>951.3333333333333</ele><time>2026-05-03T10:04:47Z</time></trkpt><trkpt lat="37.8170425" lon="14.5448494"><ele>952.0</ele><time>2026-05-03T10:04:48Z</time></trkpt><trkpt lat="37.8171132" lon="14.5450323"><ele>952.0</ele><time>2026-05-03T10:04:49Z</time></trkpt><trkpt lat="37.8172198" lon="14.545177"><ele>952.0</ele><time>2026-05-03T10:04:50Z</time></trkpt><trkpt lat="37.8173454" lon="14.5452695"><ele>952.0</ele><time>2026-05-03T10:04:51Z</time></trkpt><trkpt lat="37.8174726" lon="14.5453793"><ele>955.5</ele><time>2026-05-03T10:04:52Z</time></trkpt><trkpt lat="37.8175633" lon="14.5455176"><ele>959.0</ele><time>2026-05-03T10:04:53Z</time></trkpt><trkpt lat="37.817649" lon="14.5456739"><ele>962.5</ele><time>2026-05-03T10:04:54Z</time></trkpt><trkpt lat="37.8177236" lon="14.5457959"><ele>966.0</ele><time>2026-05-03T10:04:55Z</time></trkpt><trkpt lat="37.8178288" lon="14.5458622"><ele>966.0</ele><time>2026-05-03T10:04:56Z</time></trkpt><trkpt lat="37.8179715" lon="14.5458781"><ele>966.0</ele><time>2026-05-03T10:04:57Z</time></trkpt><trkpt lat="37.8181327" lon="14.545851"><ele>966.0</ele><time>2026-05-03T10:04:58Z</time></trkpt><trkpt lat="37.8183112" lon="14.5458288"><ele>964.6666666666667</ele><time>2026-05-03T10:04:59Z</time></trkpt><trkpt lat="37.8185031" lon="14.5458134"><ele>963.3333333333334</ele><time>2026-05-03T10:05:00Z</time></trkpt><trkpt lat="37.8187049" lon="14.5458238"><ele>962.0</ele><time>2026-05-03T10:05:00.999Z</time></trkpt><trkpt lat="37.8188852" lon="14.545843"><ele>962.0</ele><time>2026-05-03T10:05:02Z</time></trkpt><trkpt lat="37.8190579" lon="14.5458839"><ele>962.0</ele><time>2026-05-03T10:05:02.999Z</time></trkpt><trkpt lat="37.8192141" lon="14.5459668"><ele>962.0</ele><time>2026-05-03T10:05:03.999Z</time></trkpt><trkpt lat="37.8193615" lon="14.5460921"><ele>962.0</ele><time>2026-05-03T10:05:05Z</time></trkpt><trkpt lat="37.8194844" lon="14.5462054"><ele>962.0</ele><time>2026-05-03T10:05:06Z</time></trkpt><trkpt lat="37.8196076" lon="14.546272"><ele>962.0</ele><time>2026-05-03T10:05:06.999Z</time></trkpt><trkpt lat="37.8197295" lon="14.5462801"><ele>962.0</ele><time>2026-05-03T10:05:08Z</time></trkpt><trkpt lat="37.8198467" lon="14.546216"><ele>962.0</ele><time>2026-05-03T10:05:09Z</time></trkpt><trkpt lat="37.8199757" lon="14.5461728"><ele>962.0</ele><time>2026-05-03T10:05:10Z</time></trkpt><trkpt lat="37.8200508" lon="14.5460742"><ele>962.0</ele><time>2026-05-03T10:05:11Z</time></trkpt><trkpt lat="37.8201812" lon="14.5457947"><ele>964.75</ele><time>2026-05-03T10:05:12Z</time></trkpt><trkpt lat="37.8202848" lon="14.5456288"><ele>967.5</ele><time>2026-05-03T10:05:13Z</time></trkpt><trkpt lat="37.820372" lon="14.5454847"><ele>970.25</ele><time>2026-05-03T10:05:14Z</time></trkpt><trkpt lat="37.8204315" lon="14.5453432"><ele>973.0</ele><time>2026-05-03T10:05:15Z</time></trkpt><trkpt lat="37.8204411" lon="14.5451958"><ele>975.3333333333333</ele><time>2026-05-03T10:05:16Z</time></trkpt><trkpt lat="37.8204069" lon="14.5450335"><ele>977.6666666666667</ele><time>2026-05-03T10:05:17Z</time></trkpt><trkpt lat="37.8203166" lon="14.5448722"><ele>980.0</ele><time>2026-05-03T10:05:18Z</time></trkpt><trkpt lat="37.8202022" lon="14.5447123"><ele>974.6666666666667</ele><time>2026-05-03T10:05:19Z</time></trkpt><trkpt lat="37.8200849" lon="14.544547"><ele>969.3333333333333</ele><time>2026-05-03T10:05:20Z</time></trkpt><trkpt lat="37.8199735" lon="14.5443827"><ele>964.0</ele><time>2026-05-03T10:05:21Z</time></trkpt><trkpt lat="37.8198709" lon="14.5442186"><ele>964.0</ele><time>2026-05-03T10:05:22Z</time></trkpt><trkpt lat="37.8198016" lon="14.5440204"><ele>964.0</ele><time>2026-05-03T10:05:23Z</time></trkpt><trkpt lat="37.8197378" lon="14.5438219"><ele>964.0</ele><time>2026-05-03T10:05:24Z</time></trkpt><trkpt lat="37.8197335" lon="14.5435832"><ele>964.75</ele><time>2026-05-03T10:05:25Z</time></trkpt><trkpt lat="37.8197158" lon="14.543383"><ele>965.5</ele><time>2026-05-03T10:05:26Z</time></trkpt><trkpt lat="37.8197235" lon="14.5432098"><ele>966.25</ele><time>2026-05-03T10:05:27Z</time></trkpt><trkpt lat="37.8197713" lon="14.5430418"><ele>967.0</ele><time>2026-05-03T10:05:28Z</time></trkpt><trkpt lat="37.8198665" lon="14.5428776"><ele>964.3333333333333</ele><time>2026-05-03T10:05:29Z</time></trkpt><trkpt lat="37.8199591" lon="14.5427297"><ele>961.6666666666667</ele><time>2026-05-03T10:05:30Z</time></trkpt><trkpt lat="37.8201186" lon="14.542591"><ele>959.0</ele><time>2026-05-03T10:05:31Z</time></trkpt><trkpt lat="37.8202437" lon="14.5424429"><ele>961.6666666666667</ele><time>2026-05-03T10:05:32Z</time></trkpt><trkpt lat="37.8203721" lon="14.5423096"><ele>964.3333333333333</ele><time>2026-05-03T10:05:33Z</time></trkpt><trkpt lat="37.8204939" lon="14.5421499"><ele>967.0</ele><time>2026-05-03T10:05:34Z</time></trkpt><trkpt lat="37.8205836" lon="14.5419632"><ele>967.0</ele><time>2026-05-03T10:05:35Z</time></trkpt><trkpt lat="37.8206484" lon="14.5417507"><ele>967.0</ele><time>2026-05-03T10:05:36Z</time></trkpt><trkpt lat="37.8206943" lon="14.5415233"><ele>967.0</ele><time>2026-05-03T10:05:37Z</time></trkpt><trkpt lat="37.8207229" lon="14.5412809"><ele>965.6666666666666</ele><time>2026-05-03T10:05:38Z</time></trkpt><trkpt lat="37.8207469" lon="14.5410394"><ele>964.3333333333333</ele><time>2026-05-03T10:05:39Z</time></trkpt><trkpt lat="37.8207757" lon="14.5407972"><ele>963.0</ele><time>2026-05-03T10:05:40Z</time></trkpt><trkpt lat="37.8208002" lon="14.5405567"><ele>963.0</ele><time>2026-05-03T10:05:41Z</time></trkpt><trkpt lat="37.8208258" lon="14.5403256"><ele>963.0</ele><time>2026-05-03T10:05:42Z</time></trkpt><trkpt lat="37.8208548" lon="14.540108"><ele>963.0</ele><time>2026-05-03T10:05:43Z</time></trkpt><trkpt lat="37.8209172" lon="14.5398932"><ele>966.3333333333333</ele><time>2026-05-03T10:05:44Z</time></trkpt><trkpt lat="37.8210111" lon="14.539687"><ele>969.6666666666666</ele><time>2026-05-03T10:05:45Z</time></trkpt><trkpt lat="37.8211488" lon="14.5394909"><ele>973.0</ele><time>2026-05-03T10:05:46Z</time></trkpt><trkpt lat="37.821305" lon="14.5393013"><ele>973.0</ele><time>2026-05-03T10:05:47Z</time></trkpt><trkpt lat="37.8214669" lon="14.5391204"><ele>973.0</ele><time>2026-05-03T10:05:48Z</time></trkpt><trkpt lat="37.8216308" lon="14.5389244"><ele>973.0</ele><time>2026-05-03T10:05:49Z</time></trkpt><trkpt lat="37.8217815" lon="14.5386986"><ele>978.0</ele><time>2026-05-03T10:05:50Z</time></trkpt><trkpt lat="37.8219157" lon="14.538438"><ele>983.0</ele><time>2026-05-03T10:05:51Z</time></trkpt><trkpt lat="37.8220496" lon="14.5381603"><ele>978.5</ele><time>2026-05-03T10:05:52Z</time></trkpt><trkpt lat="37.8221753" lon="14.5378738"><ele>974.0</ele><time>2026-05-03T10:05:53Z</time></trkpt><trkpt lat="37.8222769" lon="14.5375901"><ele>974.0</ele><time>2026-05-03T10:05:54Z</time></trkpt><trkpt lat="37.8223555" lon="14.5373345"><ele>974.0</ele><time>2026-05-03T10:05:55Z</time></trkpt><trkpt lat="37.8224311" lon="14.5371114"><ele>974.0</ele><time>2026-05-03T10:05:56Z</time></trkpt><trkpt lat="37.8224887" lon="14.5369116"><ele>974.6666666666667</ele><time>2026-05-03T10:05:57Z</time></trkpt><trkpt lat="37.8225225" lon="14.5367147"><ele>975.3333333333333</ele><time>2026-05-03T10:05:58Z</time></trkpt><trkpt lat="37.8225142" lon="14.5365111"><ele>976.0</ele><time>2026-05-03T10:05:59Z</time></trkpt><trkpt lat="37.8224577" lon="14.5363046"><ele>977.6666666666666</ele><time>2026-05-03T10:06:00Z</time></trkpt><trkpt lat="37.8223782" lon="14.5361224"><ele>979.3333333333333</ele><time>2026-05-03T10:06:01Z</time></trkpt><trkpt lat="37.822265" lon="14.5359678"><ele>981.0</ele><time>2026-05-03T10:06:02Z</time></trkpt><trkpt lat="37.8221229" lon="14.5358412"><ele>981.0</ele><time>2026-05-03T10:06:03Z</time></trkpt><trkpt lat="37.8219514" lon="14.5357341"><ele>981.0</ele><time>2026-05-03T10:06:04Z</time></trkpt><trkpt lat="37.8217903" lon="14.5356012"><ele>981.0</ele><time>2026-05-03T10:06:05Z</time></trkpt><trkpt lat="37.8216256" lon="14.5354465"><ele>981.6666666666667</ele><time>2026-05-03T10:06:05.999Z</time></trkpt><trkpt lat="37.8214701" lon="14.5352706"><ele>982.3333333333334</ele><time>2026-05-03T10:06:07Z</time></trkpt><trkpt lat="37.8213201" lon="14.5351046"><ele>983.0</ele><time>2026-05-03T10:06:08Z</time></trkpt><trkpt lat="37.8211831" lon="14.5349443"><ele>983.0</ele><time>2026-05-03T10:06:09Z</time></trkpt><trkpt lat="37.8210689" lon="14.5347763"><ele>983.0</ele><time>2026-05-03T10:06:09.999Z</time></trkpt><trkpt lat="37.8209952" lon="14.5345858"><ele>983.0</ele><time>2026-05-03T10:06:11Z</time></trkpt><trkpt lat="37.8209181" lon="14.5343864"><ele>984.0</ele><time>2026-05-03T10:06:12Z</time></trkpt><trkpt lat="37.8208898" lon="14.5341059"><ele>985.0</ele><time>2026-05-03T10:06:13Z</time></trkpt><trkpt lat="37.8208462" lon="14.5338353"><ele>986.0</ele><time>2026-05-03T10:06:14Z</time></trkpt><trkpt lat="37.82081" lon="14.533557"><ele>986.0</ele><time>2026-05-03T10:06:15Z</time></trkpt><trkpt lat="37.8207822" lon="14.5332678"><ele>986.0</ele><time>2026-05-03T10:06:16Z</time></trkpt><trkpt lat="37.8207691" lon="14.5329708"><ele>986.5</ele><time>2026-05-03T10:06:17Z</time></trkpt><trkpt lat="37.8207573" lon="14.5326743"><ele>987.0</ele><time>2026-05-03T10:06:18Z</time></trkpt><trkpt lat="37.820748" lon="14.532399"><ele>987.0</ele><time>2026-05-03T10:06:19Z</time></trkpt><trkpt lat="37.8207389" lon="14.5321364"><ele>987.0</ele><time>2026-05-03T10:06:19.999Z</time></trkpt><trkpt lat="37.8207483" lon="14.531876"><ele>987.0</ele><time>2026-05-03T10:06:21Z</time></trkpt><trkpt lat="37.8208024" lon="14.531632"><ele>984.6666666666667</ele><time>2026-05-03T10:06:22Z</time></trkpt><trkpt lat="37.8208696" lon="14.5314119"><ele>982.3333333333334</ele><time>2026-05-03T10:06:23Z</time></trkpt><trkpt lat="37.8209209" lon="14.5311999"><ele>980.0</ele><time>2026-05-03T10:06:24Z</time></trkpt><trkpt lat="37.8209507" lon="14.5309769"><ele>980.6666666666667</ele><time>2026-05-03T10:06:25Z</time></trkpt><trkpt lat="37.8209396" lon="14.5307522"><ele>981.3333333333333</ele><time>2026-05-03T10:06:26Z</time></trkpt><trkpt lat="37.8209215" lon="14.5305181"><ele>982.0</ele><time>2026-05-03T10:06:27Z</time></trkpt><trkpt lat="37.8207936" lon="14.5302568"><ele>982.0</ele><time>2026-05-03T10:06:28Z</time></trkpt><trkpt lat="37.8207083" lon="14.5299704"><ele>982.0</ele><time>2026-05-03T10:06:29Z</time></trkpt><trkpt lat="37.8206152" lon="14.5296987"><ele>985.0</ele><time>2026-05-03T10:06:30Z</time></trkpt><trkpt lat="37.8205416" lon="14.5294606"><ele>988.0</ele><time>2026-05-03T10:06:31Z</time></trkpt><trkpt lat="37.8204792" lon="14.5292515"><ele>991.0</ele><time>2026-05-03T10:06:32Z</time></trkpt><trkpt lat="37.8203767" lon="14.5290779"><ele>991.0</ele><time>2026-05-03T10:06:33Z</time></trkpt><trkpt lat="37.8202318" lon="14.5289368"><ele>991.0</ele><time>2026-05-03T10:06:34Z</time></trkpt><trkpt lat="37.8200697" lon="14.5288064"><ele>991.0</ele><time>2026-05-03T10:06:35Z</time></trkpt><trkpt lat="37.8199074" lon="14.5286798"><ele>990.0</ele><time>2026-05-03T10:06:36Z</time></trkpt><trkpt lat="37.8197566" lon="14.5285631"><ele>989.0</ele><time>2026-05-03T10:06:37Z</time></trkpt><trkpt lat="37.8196132" lon="14.5284572"><ele>988.0</ele><time>2026-05-03T10:06:38Z</time></trkpt><trkpt lat="37.819491" lon="14.5283502"><ele>988.0</ele><time>2026-05-03T10:06:39Z</time></trkpt><trkpt lat="37.8194179" lon="14.5282252"><ele>988.0</ele><time>2026-05-03T10:06:40Z</time></trkpt><trkpt lat="37.8194004" lon="14.5280701"><ele>988.0</ele><time>2026-05-03T10:06:41Z</time></trkpt><trkpt lat="37.8194395" lon="14.5278788"><ele>988.0</ele><time>2026-05-03T10:06:42Z</time></trkpt><trkpt lat="37.8194854" lon="14.5276508"><ele>990.0</ele><time>2026-05-03T10:06:43Z</time></trkpt><trkpt lat="37.8195415" lon="14.5274027"><ele>992.0</ele><time>2026-05-03T10:06:44Z</time></trkpt><trkpt lat="37.8196052" lon="14.5271404"><ele>994.0</ele><time>2026-05-03T10:06:45Z</time></trkpt><trkpt lat="37.8196733" lon="14.52688"><ele>994.6666666666666</ele><time>2026-05-03T10:06:46Z</time></trkpt><trkpt lat="37.8197199" lon="14.5266348"><ele>995.3333333333333</ele><time>2026-05-03T10:06:47Z</time></trkpt><trkpt lat="37.8197349" lon="14.5263881"><ele>996.0</ele><time>2026-05-03T10:06:48Z</time></trkpt><trkpt lat="37.8197044" lon="14.5261127"><ele>997.0</ele><time>2026-05-03T10:06:49Z</time></trkpt><trkpt lat="37.8196441" lon="14.5258235"><ele>998.0</ele><time>2026-05-03T10:06:50Z</time></trkpt><trkpt lat="37.8195902" lon="14.5255153"><ele>999.0</ele><time>2026-05-03T10:06:51Z</time></trkpt><trkpt lat="37.8195263" lon="14.5252107"><ele>1000.0</ele><time>2026-05-03T10:06:52Z</time></trkpt><trkpt lat="37.8194636" lon="14.5249214"><ele>1000.0</ele><time>2026-05-03T10:06:53Z</time></trkpt><trkpt lat="37.8194171" lon="14.5246304"><ele>1000.0</ele><time>2026-05-03T10:06:54Z</time></trkpt><trkpt lat="37.8194036" lon="14.5243045"><ele>999.0</ele><time>2026-05-03T10:06:55Z</time></trkpt><trkpt lat="37.8194195" lon="14.5239598"><ele>998.0</ele><time>2026-05-03T10:06:56Z</time></trkpt><trkpt lat="37.8194445" lon="14.5236225"><ele>997.6666666666667</ele><time>2026-05-03T10:06:57Z</time></trkpt><trkpt lat="37.819468" lon="14.523323"><ele>997.3333333333333</ele><time>2026-05-03T10:06:58Z</time></trkpt><trkpt lat="37.8194851" lon="14.5230771"><ele>997.0</ele><time>2026-05-03T10:06:59Z</time></trkpt><trkpt lat="37.8194857" lon="14.5228822"><ele>998.6666666666666</ele><time>2026-05-03T10:07:00Z</time></trkpt><trkpt lat="37.8194517" lon="14.5227193"><ele>1000.3333333333333</ele><time>2026-05-03T10:07:01Z</time></trkpt><trkpt lat="37.819364" lon="14.5225772"><ele>1002.0</ele><time>2026-05-03T10:07:02Z</time></trkpt><trkpt lat="37.8192184" lon="14.5224478"><ele>998.0</ele><time>2026-05-03T10:07:03Z</time></trkpt><trkpt lat="37.8190486" lon="14.5223228"><ele>994.0</ele><time>2026-05-03T10:07:04Z</time></trkpt><trkpt lat="37.8188728" lon="14.5222113"><ele>990.0</ele><time>2026-05-03T10:07:05Z</time></trkpt><trkpt lat="37.8187289" lon="14.5221077"><ele>992.75</ele><time>2026-05-03T10:07:06Z</time></trkpt><trkpt lat="37.8186154" lon="14.5220003"><ele>995.5</ele><time>2026-05-03T10:07:07Z</time></trkpt><trkpt lat="37.8185555" lon="14.5218501"><ele>998.25</ele><time>2026-05-03T10:07:08Z</time></trkpt><trkpt lat="37.8185441" lon="14.5216824"><ele>1001.0</ele><time>2026-05-03T10:07:09Z</time></trkpt><trkpt lat="37.8186006" lon="14.5214519"><ele>1001.3333333333334</ele><time>2026-05-03T10:07:10Z</time></trkpt><trkpt lat="37.8186452" lon="14.5212046"><ele>1001.6666666666667</ele><time>2026-05-03T10:07:11Z</time></trkpt><trkpt lat="37.8186815" lon="14.5209697"><ele>1002.0</ele><time>2026-05-03T10:07:12Z</time></trkpt><trkpt lat="37.8186958" lon="14.5207541"><ele>1002.0</ele><time>2026-05-03T10:07:13Z</time></trkpt><trkpt lat="37.8186685" lon="14.5205713"><ele>1002.0</ele><time>2026-05-03T10:07:14Z</time></trkpt><trkpt lat="37.8185863" lon="14.520402"><ele>1002.0</ele><time>2026-05-03T10:07:15Z</time></trkpt><trkpt lat="37.8184588" lon="14.520262"><ele>1001.6666666666667</ele><time>2026-05-03T10:07:16Z</time></trkpt><trkpt lat="37.8182913" lon="14.5201451"><ele>1001.3333333333334</ele><time>2026-05-03T10:07:17Z</time></trkpt><trkpt lat="37.8180821" lon="14.5200639"><ele>1001.0</ele><time>2026-05-03T10:07:18Z</time></trkpt><trkpt lat="37.8178817" lon="14.5200384"><ele>1001.0</ele><time>2026-05-03T10:07:19Z</time></trkpt><trkpt lat="37.8177231" lon="14.520003"><ele>1001.0</ele><time>2026-05-03T10:07:20Z</time></trkpt><trkpt lat="37.8175806" lon="14.5199408"><ele>1001.0</ele><time>2026-05-03T10:07:21Z</time></trkpt><trkpt lat="37.8174767" lon="14.5198254"><ele>1000.6666666666667</ele><time>2026-05-03T10:07:22Z</time></trkpt><trkpt lat="37.8173965" lon="14.5196429"><ele>1000.3333333333333</ele><time>2026-05-03T10:07:23Z</time></trkpt><trkpt lat="37.8173385" lon="14.5194168"><ele>1000.0</ele><time>2026-05-03T10:07:24Z</time></trkpt><trkpt lat="37.8172797" lon="14.5191527"><ele>1000.0</ele><time>2026-05-03T10:07:25Z</time></trkpt><trkpt lat="37.8172132" lon="14.5188832"><ele>1000.0</ele><time>2026-05-03T10:07:26Z</time></trkpt><trkpt lat="37.8171167" lon="14.5186289"><ele>1000.0</ele><time>2026-05-03T10:07:27Z</time></trkpt><trkpt lat="37.8169977" lon="14.5184152"><ele>999.3333333333333</ele><time>2026-05-03T10:07:28Z</time></trkpt><trkpt lat="37.816886" lon="14.5182209"><ele>998.6666666666667</ele><time>2026-05-03T10:07:29Z</time></trkpt><trkpt lat="37.8167902" lon="14.5180442"><ele>998.0</ele><time>2026-05-03T10:07:30Z</time></trkpt><trkpt lat="37.8167085" lon="14.5178732"><ele>1000.0</ele><time>2026-05-03T10:07:31Z</time></trkpt><trkpt lat="37.8166442" lon="14.5176871"><ele>1002.0</ele><time>2026-05-03T10:07:32Z</time></trkpt><trkpt lat="37.816595" lon="14.5174859"><ele>1004.0</ele><time>2026-05-03T10:07:33Z</time></trkpt><trkpt lat="37.8165589" lon="14.517268"><ele>1003.0</ele><time>2026-05-03T10:07:34Z</time></trkpt><trkpt lat="37.8165248" lon="14.5170312"><ele>1002.0</ele><time>2026-05-03T10:07:35Z</time></trkpt><trkpt lat="37.8164866" lon="14.5167828"><ele>1001.0</ele><time>2026-05-03T10:07:36Z</time></trkpt><trkpt lat="37.8164494" lon="14.5165474"><ele>1001.0</ele><time>2026-05-03T10:07:37Z</time></trkpt><trkpt lat="37.8164177" lon="14.5163132"><ele>1001.0</ele><time>2026-05-03T10:07:38Z</time></trkpt><trkpt lat="37.8163887" lon="14.5160901"><ele>1001.0</ele><time>2026-05-03T10:07:39Z</time></trkpt><trkpt lat="37.8163587" lon="14.5158709"><ele>998.0</ele><time>2026-05-03T10:07:40Z</time></trkpt><trkpt lat="37.8163249" lon="14.5156601"><ele>995.0</ele><time>2026-05-03T10:07:41Z</time></trkpt><trkpt lat="37.8162785" lon="14.5154555"><ele>992.0</ele><time>2026-05-03T10:07:42Z</time></trkpt><trkpt lat="37.816205" lon="14.5152576"><ele>990.6666666666667</ele><time>2026-05-03T10:07:43Z</time></trkpt><trkpt lat="37.8161069" lon="14.5150712"><ele>989.3333333333333</ele><time>2026-05-03T10:07:44Z</time></trkpt><trkpt lat="37.8159951" lon="14.5148954"><ele>988.0</ele><time>2026-05-03T10:07:45Z</time></trkpt><trkpt lat="37.8158847" lon="14.5147235"><ele>985.6666666666666</ele><time>2026-05-03T10:07:46Z</time></trkpt><trkpt lat="37.8157823" lon="14.5145664"><ele>983.3333333333333</ele><time>2026-05-03T10:07:47Z</time></trkpt><trkpt lat="37.8156894" lon="14.5144051"><ele>981.0</ele><time>2026-05-03T10:07:48Z</time></trkpt><trkpt lat="37.8155913" lon="14.5142557"><ele>981.0</ele><time>2026-05-03T10:07:49Z</time></trkpt><trkpt lat="37.8154973" lon="14.5141079"><ele>981.0</ele><time>2026-05-03T10:07:50Z</time></trkpt><trkpt lat="37.815402" lon="14.5139608"><ele>981.0</ele><time>2026-05-03T10:07:51Z</time></trkpt><trkpt lat="37.8153103" lon="14.5138134"><ele>981.0</ele><time>2026-05-03T10:07:52Z</time></trkpt><trkpt lat="37.8152197" lon="14.5136648"><ele>979.75</ele><time>2026-05-03T10:07:53Z</time></trkpt><trkpt lat="37.8151263" lon="14.5135169"><ele>978.5</ele><time>2026-05-03T10:07:54Z</time></trkpt><trkpt lat="37.8150435" lon="14.513363"><ele>977.25</ele><time>2026-05-03T10:07:55Z</time></trkpt><trkpt lat="37.8149658" lon="14.5131991"><ele>976.0</ele><time>2026-05-03T10:07:56Z</time></trkpt><trkpt lat="37.8148874" lon="14.5130229"><ele>974.3333333333333</ele><time>2026-05-03T10:07:57Z</time></trkpt><trkpt lat="37.8148141" lon="14.5128512"><ele>972.6666666666667</ele><time>2026-05-03T10:07:58Z</time></trkpt><trkpt lat="37.8147413" lon="14.5126803"><ele>971.0</ele><time>2026-05-03T10:07:59Z</time></trkpt><trkpt lat="37.8146693" lon="14.5125002"><ele>971.0</ele><time>2026-05-03T10:08:00Z</time></trkpt><trkpt lat="37.814592" lon="14.5123297"><ele>971.0</ele><time>2026-05-03T10:08:01Z</time></trkpt><trkpt lat="37.8145234" lon="14.5121552"><ele>971.0</ele><time>2026-05-03T10:08:02Z</time></trkpt><trkpt lat="37.8144606" lon="14.5119891"><ele>969.75</ele><time>2026-05-03T10:08:03Z</time></trkpt><trkpt lat="37.814389" lon="14.5118254"><ele>968.5</ele><time>2026-05-03T10:08:04Z</time></trkpt><trkpt lat="37.8143158" lon="14.5116639"><ele>967.25</ele><time>2026-05-03T10:08:05Z</time></trkpt><trkpt lat="37.8142518" lon="14.5115078"><ele>966.0</ele><time>2026-05-03T10:08:06Z</time></trkpt><trkpt lat="37.8141821" lon="14.5113462"><ele>966.0</ele><time>2026-05-03T10:08:07Z</time></trkpt><trkpt lat="37.8141079" lon="14.5111938"><ele>966.0</ele><time>2026-05-03T10:08:08Z</time></trkpt><trkpt lat="37.814018" lon="14.5110666"><ele>966.0</ele><time>2026-05-03T10:08:09Z</time></trkpt><trkpt lat="37.8139167" lon="14.5109658"><ele>966.0</ele><time>2026-05-03T10:08:10Z</time></trkpt><trkpt lat="37.8138048" lon="14.5108972"><ele>966.0</ele><time>2026-05-03T10:08:11Z</time></trkpt><trkpt lat="37.8136839" lon="14.5108532"><ele>966.0</ele><time>2026-05-03T10:08:12Z</time></trkpt><trkpt lat="37.8135555" lon="14.5108326"><ele>966.0</ele><time>2026-05-03T10:08:13Z</time></trkpt><trkpt lat="37.8134189" lon="14.5108157"><ele>966.0</ele><time>2026-05-03T10:08:14Z</time></trkpt><trkpt lat="37.813281" lon="14.5107932"><ele>966.75</ele><time>2026-05-03T10:08:15Z</time></trkpt><trkpt lat="37.8131478" lon="14.5107716"><ele>967.5</ele><time>2026-05-03T10:08:16Z</time></trkpt><trkpt lat="37.8130106" lon="14.5107573"><ele>968.25</ele><time>2026-05-03T10:08:17Z</time></trkpt><trkpt lat="37.8128687" lon="14.5107335"><ele>969.0</ele><time>2026-05-03T10:08:18Z</time></trkpt><trkpt lat="37.812724" lon="14.5106913"><ele>967.6666666666667</ele><time>2026-05-03T10:08:19Z</time></trkpt><trkpt lat="37.812576" lon="14.5106352"><ele>966.3333333333334</ele><time>2026-05-03T10:08:20Z</time></trkpt><trkpt lat="37.8124268" lon="14.5105727"><ele>965.0</ele><time>2026-05-03T10:08:21Z</time></trkpt><trkpt lat="37.8122728" lon="14.5105065"><ele>965.0</ele><time>2026-05-03T10:08:22Z</time></trkpt><trkpt lat="37.8121179" lon="14.5104377"><ele>965.0</ele><time>2026-05-03T10:08:23Z</time></trkpt><trkpt lat="37.8119695" lon="14.5103726"><ele>965.0</ele><time>2026-05-03T10:08:24Z</time></trkpt><trkpt lat="37.8118129" lon="14.5103078"><ele>975.0</ele><time>2026-05-03T10:08:25Z</time></trkpt><trkpt lat="37.8116601" lon="14.5102516"><ele>985.0</ele><time>2026-05-03T10:08:26Z</time></trkpt><trkpt lat="37.8115056" lon="14.5102128"><ele>995.0</ele><time>2026-05-03T10:08:27Z</time></trkpt><trkpt lat="37.811352" lon="14.5101812"><ele>995.0</ele><time>2026-05-03T10:08:28Z</time></trkpt><trkpt lat="37.8112056" lon="14.5101484"><ele>995.0</ele><time>2026-05-03T10:08:29Z</time></trkpt><trkpt lat="37.8110669" lon="14.5101175"><ele>995.0</ele><time>2026-05-03T10:08:30Z</time></trkpt><trkpt lat="37.8109338" lon="14.5101128"><ele>995.0</ele><time>2026-05-03T10:08:31Z</time></trkpt><trkpt lat="37.8108126" lon="14.5101461"><ele>992.75</ele><time>2026-05-03T10:08:32Z</time></trkpt><trkpt lat="37.8106935" lon="14.5101851"><ele>990.5</ele><time>2026-05-03T10:08:33Z</time></trkpt><trkpt lat="37.8105825" lon="14.5102357"><ele>988.25</ele><time>2026-05-03T10:08:34Z</time></trkpt><trkpt lat="37.8104772" lon="14.5102869"><ele>986.0</ele><time>2026-05-03T10:08:35Z</time></trkpt><trkpt lat="37.8103851" lon="14.510329"><ele>986.0000000000001</ele><time>2026-05-03T10:08:36Z</time></trkpt><trkpt lat="37.8102986" lon="14.5103723"><ele>986.0</ele><time>2026-05-03T10:08:37Z</time></trkpt><trkpt lat="37.8102232" lon="14.5104003"><ele>986.0</ele><time>2026-05-03T10:08:37.999Z</time></trkpt><trkpt lat="37.810158" lon="14.510426"><ele>986.0</ele><time>2026-05-03T10:08:39Z</time></trkpt><trkpt lat="37.8100788" lon="14.5104764"><ele>986.0000000000001</ele><time>2026-05-03T10:08:41Z</time></trkpt><trkpt lat="37.8100044" lon="14.5105176"><ele>986.0</ele><time>2026-05-03T10:08:43Z</time></trkpt><trkpt lat="37.8099037" lon="14.5105552"><ele>986.0</ele><time>2026-05-03T10:08:45Z</time></trkpt><trkpt lat="37.8097796" lon="14.5105597"><ele>985.9999999999999</ele><time>2026-05-03T10:08:47Z</time></trkpt><trkpt lat="37.8097075" lon="14.5105446"><ele>985.9999999999999</ele><time>2026-05-03T10:08:48Z</time></trkpt><trkpt lat="37.8096317" lon="14.5105253"><ele>986.0</ele><time>2026-05-03T10:08:49Z</time></trkpt><trkpt lat="37.8095485" lon="14.5104641"><ele>986.0</ele><time>2026-05-03T10:08:50Z</time></trkpt><trkpt lat="37.8094717" lon="14.5104045"><ele>986.0000000000001</ele><time>2026-05-03T10:08:51Z</time></trkpt><trkpt lat="37.8093909" lon="14.5103355"><ele>986.0</ele><time>2026-05-03T10:08:52Z</time></trkpt><trkpt lat="37.8093232" lon="14.5102579"><ele>986.0</ele><time>2026-05-03T10:08:52.999Z</time></trkpt><trkpt lat="37.8092604" lon="14.5101694"><ele>986.0</ele><time>2026-05-03T10:08:53.999Z</time></trkpt><trkpt lat="37.8092105" lon="14.5100928"><ele>986.0000000000001</ele><time>2026-05-03T10:08:55Z</time></trkpt><trkpt lat="37.8091693" lon="14.5100053"><ele>986.0</ele><time>2026-05-03T10:08:56Z</time></trkpt><trkpt lat="37.8091413" lon="14.5099158"><ele>983.8333333333334</ele><time>2026-05-03T10:08:57Z</time></trkpt><trkpt lat="37.8090961" lon="14.5098391"><ele>981.6666666666667</ele><time>2026-05-03T10:08:57.999Z</time></trkpt><trkpt lat="37.8090462" lon="14.5097786"><ele>979.5</ele><time>2026-05-03T10:08:59Z</time></trkpt><trkpt lat="37.8089797" lon="14.5097324"><ele>977.3333333333333</ele><time>2026-05-03T10:09:00Z</time></trkpt><trkpt lat="37.8089127" lon="14.5096938"><ele>975.1666666666666</ele><time>2026-05-03T10:09:01Z</time></trkpt><trkpt lat="37.8088329" lon="14.50967"><ele>973.0</ele><time>2026-05-03T10:09:02Z</time></trkpt><trkpt lat="37.8087602" lon="14.5096343"><ele>972.9999999999999</ele><time>2026-05-03T10:09:03Z</time></trkpt><trkpt lat="37.8086939" lon="14.5095864"><ele>973.0</ele><time>2026-05-03T10:09:04Z</time></trkpt><trkpt lat="37.8086276" lon="14.5095247"><ele>973.0</ele><time>2026-05-03T10:09:05Z</time></trkpt><trkpt lat="37.8085853" lon="14.5094515"><ele>973.0</ele><time>2026-05-03T10:09:06Z</time></trkpt><trkpt lat="37.8085564" lon="14.5093358"><ele>972.9999999999999</ele><time>2026-05-03T10:09:08Z</time></trkpt><trkpt lat="37.8086155" lon="14.5092247"><ele>973.0</ele><time>2026-05-03T10:09:10Z</time></trkpt><trkpt lat="37.8086643" lon="14.5091739"><ele>974.4999999999999</ele><time>2026-05-03T10:09:11Z</time></trkpt><trkpt lat="37.8087524" lon="14.5090747"><ele>976.0</ele><time>2026-05-03T10:09:13Z</time></trkpt><trkpt lat="37.8087961" lon="14.5090164"><ele>977.5</ele><time>2026-05-03T10:09:14Z</time></trkpt><trkpt lat="37.8088884" lon="14.5089085"><ele>979.0</ele><time>2026-05-03T10:09:16Z</time></trkpt><trkpt lat="37.8089353" lon="14.5088451"><ele>980.4999999999999</ele><time>2026-05-03T10:09:17Z</time></trkpt><trkpt lat="37.8089856" lon="14.5087857"><ele>982.0</ele><time>2026-05-03T10:09:18Z</time></trkpt><trkpt lat="37.8090445" lon="14.5087448"><ele>981.0</ele><time>2026-05-03T10:09:19Z</time></trkpt><trkpt lat="37.8091026" lon="14.5086973"><ele>979.9999999999999</ele><time>2026-05-03T10:09:20Z</time></trkpt><trkpt lat="37.8091543" lon="14.5086361"><ele>979.0</ele><time>2026-05-03T10:09:20.999Z</time></trkpt><trkpt lat="37.8092099" lon="14.5085827"><ele>978.0</ele><time>2026-05-03T10:09:22Z</time></trkpt><trkpt lat="37.8092617" lon="14.5085261"><ele>976.9999999999999</ele><time>2026-05-03T10:09:23Z</time></trkpt><trkpt lat="37.8093136" lon="14.5084727"><ele>976.0</ele><time>2026-05-03T10:09:24Z</time></trkpt><trkpt lat="37.8093644" lon="14.5084235"><ele>975.0</ele><time>2026-05-03T10:09:25Z</time></trkpt><trkpt lat="37.8094126" lon="14.5082934"><ele>975.0</ele><time>2026-05-03T10:09:27Z</time></trkpt><trkpt lat="37.8093633" lon="14.5081743"><ele>975.0</ele><time>2026-05-03T10:09:29Z</time></trkpt><trkpt lat="37.80926" lon="14.5080987"><ele>975.0</ele><time>2026-05-03T10:09:31Z</time></trkpt><trkpt lat="37.8092017" lon="14.5080605"><ele>975.0</ele><time>2026-05-03T10:09:32Z</time></trkpt><trkpt lat="37.809135" lon="14.5080166"><ele>975.0</ele><time>2026-05-03T10:09:33Z</time></trkpt><trkpt lat="37.809056" lon="14.5079704"><ele>973.8333333333334</ele><time>2026-05-03T10:09:34Z</time></trkpt><trkpt lat="37.8089821" lon="14.5079276"><ele>972.6666666666667</ele><time>2026-05-03T10:09:35Z</time></trkpt><trkpt lat="37.8089088" lon="14.507882"><ele>971.5</ele><time>2026-05-03T10:09:36Z</time></trkpt><trkpt lat="37.8088346" lon="14.5078377"><ele>970.3333333333334</ele><time>2026-05-03T10:09:37Z</time></trkpt><trkpt lat="37.8087605" lon="14.5077935"><ele>969.1666666666667</ele><time>2026-05-03T10:09:38Z</time></trkpt><trkpt lat="37.8086857" lon="14.5077473"><ele>968.0</ele><time>2026-05-03T10:09:39Z</time></trkpt><trkpt lat="37.8086088" lon="14.5077012"><ele>967.8333333333334</ele><time>2026-05-03T10:09:40Z</time></trkpt><trkpt lat="37.8085319" lon="14.5076555"><ele>967.6666666666667</ele><time>2026-05-03T10:09:41Z</time></trkpt><trkpt lat="37.8084581" lon="14.5076063"><ele>967.5</ele><time>2026-05-03T10:09:42Z</time></trkpt><trkpt lat="37.8083753" lon="14.5075642"><ele>967.3333333333333</ele><time>2026-05-03T10:09:43Z</time></trkpt><trkpt lat="37.8083025" lon="14.5075174"><ele>967.1666666666666</ele><time>2026-05-03T10:09:44Z</time></trkpt><trkpt lat="37.8082263" lon="14.507478"><ele>967.0</ele><time>2026-05-03T10:09:44.999Z</time></trkpt><trkpt lat="37.8081487" lon="14.5074313"><ele>966.9999999999999</ele><time>2026-05-03T10:09:46Z</time></trkpt><trkpt lat="37.8080857" lon="14.5073887"><ele>967.0</ele><time>2026-05-03T10:09:47Z</time></trkpt><trkpt lat="37.808033" lon="14.507323"><ele>967.0</ele><time>2026-05-03T10:09:48Z</time></trkpt><trkpt lat="37.807974" lon="14.5072604"><ele>967.0</ele><time>2026-05-03T10:09:49Z</time></trkpt><trkpt lat="37.8079178" lon="14.5071876"><ele>966.9999999999999</ele><time>2026-05-03T10:09:50Z</time></trkpt><trkpt lat="37.8078668" lon="14.5071176"><ele>967.0</ele><time>2026-05-03T10:09:51Z</time></trkpt><trkpt lat="37.8078129" lon="14.5070463"><ele>966.2</ele><time>2026-05-03T10:09:52Z</time></trkpt><trkpt lat="37.8077532" lon="14.5069637"><ele>965.4000000000001</ele><time>2026-05-03T10:09:53Z</time></trkpt><trkpt lat="37.8077" lon="14.506884"><ele>964.5999999999999</ele><time>2026-05-03T10:09:54Z</time></trkpt><trkpt lat="37.8076386" lon="14.5068032"><ele>963.8</ele><time>2026-05-03T10:09:54.999Z</time></trkpt><trkpt lat="37.8075695" lon="14.5067178"><ele>963.0</ele><time>2026-05-03T10:09:56Z</time></trkpt><trkpt lat="37.8075016" lon="14.506635"><ele>963.0</ele><time>2026-05-03T10:09:57Z</time></trkpt><trkpt lat="37.8074393" lon="14.5065486"><ele>963.0</ele><time>2026-05-03T10:09:58Z</time></trkpt><trkpt lat="37.8073692" lon="14.5064527"><ele>963.0</ele><time>2026-05-03T10:09:59Z</time></trkpt><trkpt lat="37.8072964" lon="14.5063646"><ele>963.0</ele><time>2026-05-03T10:10:00Z</time></trkpt><trkpt lat="37.8072263" lon="14.5062693"><ele>963.0</ele><time>2026-05-03T10:10:01Z</time></trkpt><trkpt lat="37.807149" lon="14.5061723"><ele>961.5999999999999</ele><time>2026-05-03T10:10:02Z</time></trkpt><trkpt lat="37.8070757" lon="14.5060738"><ele>960.1999999999999</ele><time>2026-05-03T10:10:03Z</time></trkpt><trkpt lat="37.8070036" lon="14.5059768"><ele>958.8</ele><time>2026-05-03T10:10:04Z</time></trkpt><trkpt lat="37.8069356" lon="14.5058797"><ele>957.4</ele><time>2026-05-03T10:10:05Z</time></trkpt><trkpt lat="37.8068889" lon="14.505768"><ele>956.0</ele><time>2026-05-03T10:10:06Z</time></trkpt><trkpt lat="37.80686" lon="14.5056515"><ele>956.0</ele><time>2026-05-03T10:10:07Z</time></trkpt><trkpt lat="37.8068472" lon="14.5055267"><ele>955.9999999999999</ele><time>2026-05-03T10:10:08Z</time></trkpt><trkpt lat="37.8068566" lon="14.5053968"><ele>955.9999999999999</ele><time>2026-05-03T10:10:09Z</time></trkpt><trkpt lat="37.8068651" lon="14.5052745"><ele>956.0</ele><time>2026-05-03T10:10:10Z</time></trkpt><trkpt lat="37.8068839" lon="14.5051426"><ele>956.0</ele><time>2026-05-03T10:10:11Z</time></trkpt><trkpt lat="37.8069044" lon="14.5050264"><ele>953.8333333333334</ele><time>2026-05-03T10:10:12Z</time></trkpt><trkpt lat="37.8069327" lon="14.5049059"><ele>951.6666666666667</ele><time>2026-05-03T10:10:13Z</time></trkpt><trkpt lat="37.8069519" lon="14.5047966"><ele>949.5</ele><time>2026-05-03T10:10:14Z</time></trkpt><trkpt lat="37.8069694" lon="14.5046948"><ele>947.3333333333333</ele><time>2026-05-03T10:10:15Z</time></trkpt><trkpt lat="37.806996" lon="14.504601"><ele>945.1666666666666</ele><time>2026-05-03T10:10:16Z</time></trkpt><trkpt lat="37.8070147" lon="14.5044927"><ele>943.0</ele><time>2026-05-03T10:10:17Z</time></trkpt><trkpt lat="37.8070223" lon="14.5043724"><ele>942.4</ele><time>2026-05-03T10:10:18Z</time></trkpt><trkpt lat="37.8070239" lon="14.5042497"><ele>941.8</ele><time>2026-05-03T10:10:19Z</time></trkpt><trkpt lat="37.8070262" lon="14.5041247"><ele>941.2</ele><time>2026-05-03T10:10:20Z</time></trkpt><trkpt lat="37.8070307" lon="14.5039985"><ele>940.6</ele><time>2026-05-03T10:10:21Z</time></trkpt><trkpt lat="37.8070303" lon="14.503878"><ele>940.0</ele><time>2026-05-03T10:10:22Z</time></trkpt><trkpt lat="37.8070484" lon="14.5037585"><ele>941.75</ele><time>2026-05-03T10:10:23Z</time></trkpt><trkpt lat="37.807079" lon="14.5036388"><ele>943.5</ele><time>2026-05-03T10:10:24Z</time></trkpt><trkpt lat="37.8071303" lon="14.5035161"><ele>945.25</ele><time>2026-05-03T10:10:25Z</time></trkpt><trkpt lat="37.8072009" lon="14.5033925"><ele>947.0</ele><time>2026-05-03T10:10:26Z</time></trkpt><trkpt lat="37.8072807" lon="14.5032787"><ele>947.0</ele><time>2026-05-03T10:10:27Z</time></trkpt><trkpt lat="37.8073702" lon="14.5031735"><ele>947.0</ele><time>2026-05-03T10:10:28Z</time></trkpt><trkpt lat="37.8074668" lon="14.5030564"><ele>947.0</ele><time>2026-05-03T10:10:29Z</time></trkpt><trkpt lat="37.8075688" lon="14.5029293"><ele>947.0</ele><time>2026-05-03T10:10:30Z</time></trkpt><trkpt lat="37.8076737" lon="14.5028112"><ele>945.75</ele><time>2026-05-03T10:10:31Z</time></trkpt><trkpt lat="37.8077829" lon="14.5026927"><ele>944.5</ele><time>2026-05-03T10:10:32Z</time></trkpt><trkpt lat="37.8079094" lon="14.5025997"><ele>943.25</ele><time>2026-05-03T10:10:33Z</time></trkpt><trkpt lat="37.8080498" lon="14.5025088"><ele>942.0</ele><time>2026-05-03T10:10:33.999Z</time></trkpt><trkpt lat="37.8082011" lon="14.5024289"><ele>942.0</ele><time>2026-05-03T10:10:35Z</time></trkpt><trkpt lat="37.808352" lon="14.5023432"><ele>942.0</ele><time>2026-05-03T10:10:36Z</time></trkpt><trkpt lat="37.8085028" lon="14.5022498"><ele>942.0</ele><time>2026-05-03T10:10:37Z</time></trkpt><trkpt lat="37.8086556" lon="14.5021596"><ele>941.6666666666667</ele><time>2026-05-03T10:10:38Z</time></trkpt><trkpt lat="37.8088118" lon="14.5020737"><ele>941.3333333333334</ele><time>2026-05-03T10:10:38.999Z</time></trkpt><trkpt lat="37.8089759" lon="14.5019773"><ele>941.0</ele><time>2026-05-03T10:10:40Z</time></trkpt><trkpt lat="37.809138" lon="14.5018762"><ele>941.0</ele><time>2026-05-03T10:10:41Z</time></trkpt><trkpt lat="37.8092891" lon="14.5017815"><ele>941.0</ele><time>2026-05-03T10:10:42Z</time></trkpt><trkpt lat="37.8094371" lon="14.5016647"><ele>941.0</ele><time>2026-05-03T10:10:43Z</time></trkpt><trkpt lat="37.8095763" lon="14.501499"><ele>937.3333333333334</ele><time>2026-05-03T10:10:44Z</time></trkpt><trkpt lat="37.8097126" lon="14.5012944"><ele>933.6666666666667</ele><time>2026-05-03T10:10:45Z</time></trkpt><trkpt lat="37.8098378" lon="14.5010794"><ele>930.0</ele><time>2026-05-03T10:10:46Z</time></trkpt><trkpt lat="37.8099594" lon="14.5008442"><ele>930.0</ele><time>2026-05-03T10:10:47Z</time></trkpt><trkpt lat="37.8100816" lon="14.5006353"><ele>930.0</ele><time>2026-05-03T10:10:48Z</time></trkpt><trkpt lat="37.8102008" lon="14.5004344"><ele>930.0</ele><time>2026-05-03T10:10:49Z</time></trkpt><trkpt lat="37.8103403" lon="14.5002406"><ele>928.0</ele><time>2026-05-03T10:10:50Z</time></trkpt><trkpt lat="37.8105015" lon="14.5000657"><ele>926.0</ele><time>2026-05-03T10:10:51Z</time></trkpt><trkpt lat="37.8106663" lon="14.4999067"><ele>924.0</ele><time>2026-05-03T10:10:52Z</time></trkpt><trkpt lat="37.81083" lon="14.4997556"><ele>924.0</ele><time>2026-05-03T10:10:53Z</time></trkpt><trkpt lat="37.8110062" lon="14.4996169"><ele>924.0</ele><time>2026-05-03T10:10:54Z</time></trkpt><trkpt lat="37.8112062" lon="14.4994993"><ele>924.0</ele><time>2026-05-03T10:10:55Z</time></trkpt><trkpt lat="37.811419" lon="14.4993979"><ele>924.0</ele><time>2026-05-03T10:10:56Z</time></trkpt><trkpt lat="37.8116271" lon="14.4993094"><ele>924.0</ele><time>2026-05-03T10:10:57Z</time></trkpt><trkpt lat="37.8118273" lon="14.499224"><ele>924.0</ele><time>2026-05-03T10:10:58Z</time></trkpt><trkpt lat="37.8120329" lon="14.4991215"><ele>924.6666666666667</ele><time>2026-05-03T10:10:59Z</time></trkpt><trkpt lat="37.8122243" lon="14.4989757"><ele>925.3333333333334</ele><time>2026-05-03T10:11:00Z</time></trkpt><trkpt lat="37.8124062" lon="14.4988109"><ele>926.0</ele><time>2026-05-03T10:11:01Z</time></trkpt><trkpt lat="37.812586" lon="14.4986435"><ele>918.0</ele><time>2026-05-03T10:11:02Z</time></trkpt><trkpt lat="37.8127946" lon="14.4984819"><ele>910.0</ele><time>2026-05-03T10:11:03Z</time></trkpt><trkpt lat="37.812998" lon="14.4983521"><ele>910.0</ele><time>2026-05-03T10:11:04Z</time></trkpt><trkpt lat="37.8131956" lon="14.4982324"><ele>910.0</ele><time>2026-05-03T10:11:05Z</time></trkpt><trkpt lat="37.8133878" lon="14.4981306"><ele>910.0</ele><time>2026-05-03T10:11:06Z</time></trkpt><trkpt lat="37.8135812" lon="14.4980616"><ele>905.0</ele><time>2026-05-03T10:11:07Z</time></trkpt><trkpt lat="37.8137692" lon="14.4980079"><ele>900.0</ele><time>2026-05-03T10:11:08Z</time></trkpt><trkpt lat="37.8139295" lon="14.4979822"><ele>895.0</ele><time>2026-05-03T10:11:09Z</time></trkpt><trkpt lat="37.8140605" lon="14.4979404"><ele>894.25</ele><time>2026-05-03T10:11:10Z</time></trkpt><trkpt lat="37.81417" lon="14.4979053"><ele>893.5</ele><time>2026-05-03T10:11:11Z</time></trkpt><trkpt lat="37.8142528" lon="14.4978388"><ele>892.75</ele><time>2026-05-03T10:11:12Z</time></trkpt><trkpt lat="37.8143138" lon="14.4977055"><ele>892.0</ele><time>2026-05-03T10:11:13Z</time></trkpt><trkpt lat="37.8143728" lon="14.4975427"><ele>892.0</ele><time>2026-05-03T10:11:14Z</time></trkpt><trkpt lat="37.8144299" lon="14.4973448"><ele>892.0</ele><time>2026-05-03T10:11:15Z</time></trkpt><trkpt lat="37.8145736" lon="14.4970985"><ele>892.0</ele><time>2026-05-03T10:11:16Z</time></trkpt><trkpt lat="37.8146999" lon="14.4968806"><ele>896.0</ele><time>2026-05-03T10:11:17Z</time></trkpt><trkpt lat="37.8148351" lon="14.4966944"><ele>900.0</ele><time>2026-05-03T10:11:18Z</time></trkpt><trkpt lat="37.8149484" lon="14.4965067"><ele>904.0</ele><time>2026-05-03T10:11:19Z</time></trkpt><trkpt lat="37.8150446" lon="14.4963091"><ele>903.0</ele><time>2026-05-03T10:11:20Z</time></trkpt><trkpt lat="37.8151001" lon="14.4960854"><ele>902.0</ele><time>2026-05-03T10:11:21Z</time></trkpt><trkpt lat="37.8151408" lon="14.4958676"><ele>901.0</ele><time>2026-05-03T10:11:22Z</time></trkpt><trkpt lat="37.8151562" lon="14.4956561"><ele>901.0</ele><time>2026-05-03T10:11:23Z</time></trkpt><trkpt lat="37.8151461" lon="14.495435"><ele>901.0</ele><time>2026-05-03T10:11:24Z</time></trkpt><trkpt lat="37.8150966" lon="14.4952147"><ele>901.0</ele><time>2026-05-03T10:11:25Z</time></trkpt><trkpt lat="37.8150142" lon="14.4950089"><ele>894.6666666666666</ele><time>2026-05-03T10:11:26Z</time></trkpt><trkpt lat="37.8149253" lon="14.4948232"><ele>888.3333333333333</ele><time>2026-05-03T10:11:27Z</time></trkpt><trkpt lat="37.8148302" lon="14.4946697"><ele>882.0</ele><time>2026-05-03T10:11:28Z</time></trkpt><trkpt lat="37.8147103" lon="14.4945499"><ele>882.0</ele><time>2026-05-03T10:11:29Z</time></trkpt><trkpt lat="37.8145643" lon="14.4944575"><ele>882.0</ele><time>2026-05-03T10:11:30Z</time></trkpt><trkpt lat="37.814395" lon="14.4943681"><ele>882.0</ele><time>2026-05-03T10:11:31Z</time></trkpt><trkpt lat="37.8142105" lon="14.4942555"><ele>882.0</ele><time>2026-05-03T10:11:32Z</time></trkpt><trkpt lat="37.8140183" lon="14.4941136"><ele>882.0</ele><time>2026-05-03T10:11:33Z</time></trkpt><trkpt lat="37.8138412" lon="14.4939695"><ele>882.0</ele><time>2026-05-03T10:11:34Z</time></trkpt><trkpt lat="37.8136674" lon="14.4938348"><ele>875.3333333333333</ele><time>2026-05-03T10:11:35Z</time></trkpt><trkpt lat="37.8135082" lon="14.4937105"><ele>868.6666666666666</ele><time>2026-05-03T10:11:36Z</time></trkpt><trkpt lat="37.8133596" lon="14.493622"><ele>862.0</ele><time>2026-05-03T10:11:37Z</time></trkpt><trkpt lat="37.8131986" lon="14.4935961"><ele>862.0</ele><time>2026-05-03T10:11:38Z</time></trkpt><trkpt lat="37.81303" lon="14.4935972"><ele>862.0</ele><time>2026-05-03T10:11:39Z</time></trkpt><trkpt lat="37.8128187" lon="14.4937416"><ele>862.0</ele><time>2026-05-03T10:11:40Z</time></trkpt><trkpt lat="37.8126084" lon="14.49384"><ele>875.5</ele><time>2026-05-03T10:11:41Z</time></trkpt><trkpt lat="37.8123867" lon="14.4939416"><ele>889.0</ele><time>2026-05-03T10:11:42Z</time></trkpt><trkpt lat="37.8121747" lon="14.4940392"><ele>889.0</ele><time>2026-05-03T10:11:43Z</time></trkpt><trkpt lat="37.8119694" lon="14.4941201"><ele>889.0</ele><time>2026-05-03T10:11:44Z</time></trkpt><trkpt lat="37.8117924" lon="14.4941849"><ele>889.0</ele><time>2026-05-03T10:11:45Z</time></trkpt><trkpt lat="37.8116278" lon="14.4942309"><ele>884.25</ele><time>2026-05-03T10:11:46Z</time></trkpt><trkpt lat="37.8114866" lon="14.4942538"><ele>879.5</ele><time>2026-05-03T10:11:47Z</time></trkpt><trkpt lat="37.8113483" lon="14.4942176"><ele>874.75</ele><time>2026-05-03T10:11:48Z</time></trkpt><trkpt lat="37.8112" lon="14.4941331"><ele>870.0</ele><time>2026-05-03T10:11:49Z</time></trkpt><trkpt lat="37.8110487" lon="14.4940301"><ele>871.6666666666667</ele><time>2026-05-03T10:11:50Z</time></trkpt><trkpt lat="37.8108882" lon="14.4939353"><ele>873.3333333333334</ele><time>2026-05-03T10:11:51Z</time></trkpt><trkpt lat="37.810736" lon="14.4938315"><ele>875.0</ele><time>2026-05-03T10:11:52Z</time></trkpt><trkpt lat="37.8106065" lon="14.4937463"><ele>875.0</ele><time>2026-05-03T10:11:53Z</time></trkpt><trkpt lat="37.8104702" lon="14.4937001"><ele>875.0</ele><time>2026-05-03T10:11:54Z</time></trkpt><trkpt lat="37.8103321" lon="14.4937209"><ele>875.0</ele><time>2026-05-03T10:11:55Z</time></trkpt><trkpt lat="37.8101869" lon="14.4937962"><ele>875.0</ele><time>2026-05-03T10:11:56Z</time></trkpt><trkpt lat="37.8100277" lon="14.4939007"><ele>872.6666666666667</ele><time>2026-05-03T10:11:57Z</time></trkpt><trkpt lat="37.8098387" lon="14.493968"><ele>870.3333333333333</ele><time>2026-05-03T10:11:58Z</time></trkpt><trkpt lat="37.8096518" lon="14.4940105"><ele>868.0</ele><time>2026-05-03T10:11:59Z</time></trkpt><trkpt lat="37.8094699" lon="14.4940638"><ele>861.6666666666666</ele><time>2026-05-03T10:12:00Z</time></trkpt><trkpt lat="37.8093112" lon="14.4941135"><ele>855.3333333333333</ele><time>2026-05-03T10:12:01Z</time></trkpt><trkpt lat="37.8091671" lon="14.4942046"><ele>849.0</ele><time>2026-05-03T10:12:02Z</time></trkpt><trkpt lat="37.8090267" lon="14.4943502"><ele>849.0</ele><time>2026-05-03T10:12:03Z</time></trkpt><trkpt lat="37.8089098" lon="14.494504"><ele>849.0</ele><time>2026-05-03T10:12:04Z</time></trkpt><trkpt lat="37.8087778" lon="14.4946298"><ele>849.0</ele><time>2026-05-03T10:12:05Z</time></trkpt><trkpt lat="37.8086303" lon="14.4947136"><ele>850.3333333333333</ele><time>2026-05-03T10:12:06Z</time></trkpt><trkpt lat="37.8084511" lon="14.4947636"><ele>851.6666666666666</ele><time>2026-05-03T10:12:07Z</time></trkpt><trkpt lat="37.8082913" lon="14.4948234"><ele>853.0</ele><time>2026-05-03T10:12:08Z</time></trkpt><trkpt lat="37.8081291" lon="14.4949066"><ele>853.0</ele><time>2026-05-03T10:12:09Z</time></trkpt><trkpt lat="37.80797" lon="14.4950477"><ele>853.0</ele><time>2026-05-03T10:12:10Z</time></trkpt><trkpt lat="37.8078249" lon="14.4951956"><ele>853.0</ele><time>2026-05-03T10:12:11Z</time></trkpt><trkpt lat="37.8076717" lon="14.495309"><ele>856.6666666666666</ele><time>2026-05-03T10:12:12Z</time></trkpt><trkpt lat="37.8074974" lon="14.495388"><ele>860.3333333333333</ele><time>2026-05-03T10:12:13Z</time></trkpt><trkpt lat="37.8073277" lon="14.4954398"><ele>864.0</ele><time>2026-05-03T10:12:14Z</time></trkpt><trkpt lat="37.807173" lon="14.4954797"><ele>864.0</ele><time>2026-05-03T10:12:15Z</time></trkpt><trkpt lat="37.8070446" lon="14.4954821"><ele>864.0</ele><time>2026-05-03T10:12:16Z</time></trkpt><trkpt lat="37.8069218" lon="14.4954339"><ele>864.0</ele><time>2026-05-03T10:12:17Z</time></trkpt><trkpt lat="37.8068151" lon="14.4953819"><ele>864.0</ele><time>2026-05-03T10:12:18Z</time></trkpt><trkpt lat="37.8067098" lon="14.4951777"><ele>853.6666666666667</ele><time>2026-05-03T10:12:19Z</time></trkpt><trkpt lat="37.8065619" lon="14.495052"><ele>843.3333333333334</ele><time>2026-05-03T10:12:20Z</time></trkpt><trkpt lat="37.8063668" lon="14.4949363"><ele>833.0</ele><time>2026-05-03T10:12:21Z</time></trkpt><trkpt lat="37.806149" lon="14.4948276"><ele>838.0</ele><time>2026-05-03T10:12:21.999Z</time></trkpt><trkpt lat="37.805925" lon="14.494728"><ele>843.0</ele><time>2026-05-03T10:12:23Z</time></trkpt><trkpt lat="37.8057004" lon="14.4946285"><ele>830.5</ele><time>2026-05-03T10:12:24Z</time></trkpt><trkpt lat="37.8054851" lon="14.4945365"><ele>818.0</ele><time>2026-05-03T10:12:25Z</time></trkpt><trkpt lat="37.8052733" lon="14.4944462"><ele>820.6666666666667</ele><time>2026-05-03T10:12:26Z</time></trkpt><trkpt lat="37.8050676" lon="14.4943516"><ele>823.3333333333333</ele><time>2026-05-03T10:12:27Z</time></trkpt><trkpt lat="37.8048644" lon="14.4942627"><ele>826.0</ele><time>2026-05-03T10:12:28Z</time></trkpt><trkpt lat="37.8046696" lon="14.4941815"><ele>826.0</ele><time>2026-05-03T10:12:29Z</time></trkpt><trkpt lat="37.8044751" lon="14.494129"><ele>826.0</ele><time>2026-05-03T10:12:30Z</time></trkpt><trkpt lat="37.8042849" lon="14.4941169"><ele>826.0</ele><time>2026-05-03T10:12:31Z</time></trkpt><trkpt lat="37.8041053" lon="14.494138"><ele>826.75</ele><time>2026-05-03T10:12:32Z</time></trkpt><trkpt lat="37.803958" lon="14.4941617"><ele>827.5</ele><time>2026-05-03T10:12:33Z</time></trkpt><trkpt lat="37.8038324" lon="14.4941797"><ele>828.25</ele><time>2026-05-03T10:12:34Z</time></trkpt><trkpt lat="37.8037328" lon="14.4941806"><ele>829.0</ele><time>2026-05-03T10:12:35Z</time></trkpt><trkpt lat="37.8036557" lon="14.4941481"><ele>829.0</ele><time>2026-05-03T10:12:36Z</time></trkpt><trkpt lat="37.8036232" lon="14.4940737"><ele>829.0</ele><time>2026-05-03T10:12:37Z</time></trkpt><trkpt lat="37.8036512" lon="14.4939857"><ele>829.0</ele><time>2026-05-03T10:12:38Z</time></trkpt><trkpt lat="37.8037335" lon="14.4938919"><ele>829.0</ele><time>2026-05-03T10:12:39Z</time></trkpt><trkpt lat="37.8038584" lon="14.4938048"><ele>829.0</ele><time>2026-05-03T10:12:40Z</time></trkpt><trkpt lat="37.8040044" lon="14.4937463"><ele>821.0</ele><time>2026-05-03T10:12:41Z</time></trkpt><trkpt lat="37.804179" lon="14.4937417"><ele>813.0</ele><time>2026-05-03T10:12:42Z</time></trkpt><trkpt lat="37.8043528" lon="14.4937513"><ele>805.0</ele><time>2026-05-03T10:12:43Z</time></trkpt><trkpt lat="37.8045174" lon="14.4937083"><ele>804.6666666666666</ele><time>2026-05-03T10:12:44Z</time></trkpt><trkpt lat="37.8046767" lon="14.4936308"><ele>804.3333333333333</ele><time>2026-05-03T10:12:45Z</time></trkpt><trkpt lat="37.8048387" lon="14.4935578"><ele>804.0</ele><time>2026-05-03T10:12:46Z</time></trkpt><trkpt lat="37.8050216" lon="14.4935202"><ele>803.3333333333333</ele><time>2026-05-03T10:12:47Z</time></trkpt><trkpt lat="37.8052166" lon="14.4935248"><ele>802.6666666666666</ele><time>2026-05-03T10:12:48Z</time></trkpt><trkpt lat="37.8054259" lon="14.4935605"><ele>802.0</ele><time>2026-05-03T10:12:49Z</time></trkpt><trkpt lat="37.8056419" lon="14.4936159"><ele>802.0</ele><time>2026-05-03T10:12:50Z</time></trkpt><trkpt lat="37.8058737" lon="14.4936984"><ele>802.0</ele><time>2026-05-03T10:12:51Z</time></trkpt><trkpt lat="37.8060867" lon="14.4937886"><ele>803.0</ele><time>2026-05-03T10:12:52Z</time></trkpt><trkpt lat="37.8062938" lon="14.4938746"><ele>804.0</ele><time>2026-05-03T10:12:53Z</time></trkpt><trkpt lat="37.8064857" lon="14.4939524"><ele>805.0</ele><time>2026-05-03T10:12:54Z</time></trkpt><trkpt lat="37.8066593" lon="14.4940215"><ele>805.0</ele><time>2026-05-03T10:12:55Z</time></trkpt><trkpt lat="37.806822" lon="14.4940765"><ele>805.0</ele><time>2026-05-03T10:12:56Z</time></trkpt><trkpt lat="37.8069731" lon="14.4940916"><ele>805.0</ele><time>2026-05-03T10:12:57Z</time></trkpt><trkpt lat="37.8071219" lon="14.4940679"><ele>805.6666666666666</ele><time>2026-05-03T10:12:58Z</time></trkpt><trkpt lat="37.8072854" lon="14.4939669"><ele>806.3333333333333</ele><time>2026-05-03T10:12:59Z</time></trkpt><trkpt lat="37.807438" lon="14.4938507"><ele>807.0</ele><time>2026-05-03T10:13:00Z</time></trkpt><trkpt lat="37.8075813" lon="14.4937358"><ele>804.0</ele><time>2026-05-03T10:13:01Z</time></trkpt><trkpt lat="37.8077142" lon="14.4936158"><ele>801.0</ele><time>2026-05-03T10:13:02Z</time></trkpt><trkpt lat="37.8078306" lon="14.4934747"><ele>798.0</ele><time>2026-05-03T10:13:03Z</time></trkpt><trkpt lat="37.8079254" lon="14.4933182"><ele>798.0</ele><time>2026-05-03T10:13:04Z</time></trkpt><trkpt lat="37.808" lon="14.4931492"><ele>798.0</ele><time>2026-05-03T10:13:05Z</time></trkpt><trkpt lat="37.8080696" lon="14.4929865"><ele>798.0</ele><time>2026-05-03T10:13:06Z</time></trkpt><trkpt lat="37.8081451" lon="14.4928222"><ele>798.0</ele><time>2026-05-03T10:13:07Z</time></trkpt><trkpt lat="37.8082238" lon="14.4926606"><ele>798.25</ele><time>2026-05-03T10:13:08Z</time></trkpt><trkpt lat="37.8083186" lon="14.4925135"><ele>798.5</ele><time>2026-05-03T10:13:09Z</time></trkpt><trkpt lat="37.8084169" lon="14.492375"><ele>798.75</ele><time>2026-05-03T10:13:10Z</time></trkpt><trkpt lat="37.8085182" lon="14.4922381"><ele>799.0</ele><time>2026-05-03T10:13:11Z</time></trkpt><trkpt lat="37.808618" lon="14.4921109"><ele>795.5</ele><time>2026-05-03T10:13:12Z</time></trkpt><trkpt lat="37.8087221" lon="14.4919774"><ele>792.0</ele><time>2026-05-03T10:13:13Z</time></trkpt><trkpt lat="37.808822" lon="14.4918491"><ele>788.5</ele><time>2026-05-03T10:13:14Z</time></trkpt><trkpt lat="37.8089211" lon="14.4917305"><ele>785.0</ele><time>2026-05-03T10:13:15Z</time></trkpt><trkpt lat="37.8090227" lon="14.4916298"><ele>785.0</ele><time>2026-05-03T10:13:16Z</time></trkpt><trkpt lat="37.8091304" lon="14.4915579"><ele>785.0</ele><time>2026-05-03T10:13:17Z</time></trkpt><trkpt lat="37.8092515" lon="14.4915169"><ele>785.0</ele><time>2026-05-03T10:13:18Z</time></trkpt><trkpt lat="37.8093791" lon="14.4914853"><ele>785.0</ele><time>2026-05-03T10:13:19Z</time></trkpt><trkpt lat="37.8095121" lon="14.4914639"><ele>784.0</ele><time>2026-05-03T10:13:20Z</time></trkpt><trkpt lat="37.8096422" lon="14.4914429"><ele>783.0</ele><time>2026-05-03T10:13:21Z</time></trkpt><trkpt lat="37.8097616" lon="14.4914407"><ele>782.0</ele><time>2026-05-03T10:13:22Z</time></trkpt><trkpt lat="37.8098766" lon="14.4914648"><ele>781.0</ele><time>2026-05-03T10:13:23Z</time></trkpt><trkpt lat="37.809988" lon="14.491519"><ele>781.0</ele><time>2026-05-03T10:13:24Z</time></trkpt><trkpt lat="37.8100932" lon="14.4915964"><ele>781.0</ele><time>2026-05-03T10:13:25Z</time></trkpt><trkpt lat="37.8101989" lon="14.4916778"><ele>781.0</ele><time>2026-05-03T10:13:26Z</time></trkpt><trkpt lat="37.8103164" lon="14.4917353"><ele>781.0</ele><time>2026-05-03T10:13:27Z</time></trkpt><trkpt lat="37.8104363" lon="14.4917552"><ele>780.75</ele><time>2026-05-03T10:13:28Z</time></trkpt><trkpt lat="37.8105612" lon="14.4917421"><ele>780.5</ele><time>2026-05-03T10:13:29Z</time></trkpt><trkpt lat="37.810697" lon="14.4917131"><ele>780.25</ele><time>2026-05-03T10:13:30Z</time></trkpt><trkpt lat="37.8108197" lon="14.4916884"><ele>780.0</ele><time>2026-05-03T10:13:31Z</time></trkpt><trkpt lat="37.8109342" lon="14.4916906"><ele>779.8333333333334</ele><time>2026-05-03T10:13:32Z</time></trkpt><trkpt lat="37.8110359" lon="14.4917105"><ele>779.6666666666667</ele><time>2026-05-03T10:13:33Z</time></trkpt><trkpt lat="37.8111172" lon="14.4917123"><ele>779.5</ele><time>2026-05-03T10:13:34Z</time></trkpt><trkpt lat="37.8111872" lon="14.4916889"><ele>779.3333333333334</ele><time>2026-05-03T10:13:35Z</time></trkpt><trkpt lat="37.8112353" lon="14.4916274"><ele>779.1666666666667</ele><time>2026-05-03T10:13:36Z</time></trkpt><trkpt lat="37.8112384" lon="14.4915411"><ele>779.0</ele><time>2026-05-03T10:13:37Z</time></trkpt><trkpt lat="37.8112038" lon="14.4914685"><ele>779.0</ele><time>2026-05-03T10:13:38Z</time></trkpt><trkpt lat="37.8111361" lon="14.4914325"><ele>779.0</ele><time>2026-05-03T10:13:39Z</time></trkpt><trkpt lat="37.8110539" lon="14.4914241"><ele>779.0</ele><time>2026-05-03T10:13:40Z</time></trkpt><trkpt lat="37.8109634" lon="14.4914351"><ele>779.0</ele><time>2026-05-03T10:13:41Z</time></trkpt><trkpt lat="37.8108635" lon="14.4914488"><ele>779.0</ele><time>2026-05-03T10:13:42Z</time></trkpt><trkpt lat="37.8107502" lon="14.4914617"><ele>779.25</ele><time>2026-05-03T10:13:43Z</time></trkpt><trkpt lat="37.8106323" lon="14.4914665"><ele>779.5</ele><time>2026-05-03T10:13:44Z</time></trkpt><trkpt lat="37.810509" lon="14.491441"><ele>779.75</ele><time>2026-05-03T10:13:45Z</time></trkpt><trkpt lat="37.8103883" lon="14.4913947"><ele>780.0</ele><time>2026-05-03T10:13:46Z</time></trkpt><trkpt lat="37.8102823" lon="14.4913199"><ele>773.25</ele><time>2026-05-03T10:13:47Z</time></trkpt><trkpt lat="37.8101717" lon="14.4912238"><ele>766.5</ele><time>2026-05-03T10:13:48Z</time></trkpt><trkpt lat="37.8100509" lon="14.4911303"><ele>759.75</ele><time>2026-05-03T10:13:49Z</time></trkpt><trkpt lat="37.8099091" lon="14.4910691"><ele>753.0</ele><time>2026-05-03T10:13:50Z</time></trkpt><trkpt lat="37.8097507" lon="14.491024"><ele>752.3333333333334</ele><time>2026-05-03T10:13:51Z</time></trkpt><trkpt lat="37.8095671" lon="14.4910036"><ele>751.6666666666667</ele><time>2026-05-03T10:13:52Z</time></trkpt><trkpt lat="37.8093439" lon="14.4910054"><ele>751.0</ele><time>2026-05-03T10:13:53Z</time></trkpt><trkpt lat="37.8090915" lon="14.4910096"><ele>751.0</ele><time>2026-05-03T10:13:54Z</time></trkpt><trkpt lat="37.8088443" lon="14.4910222"><ele>751.0</ele><time>2026-05-03T10:13:55Z</time></trkpt><trkpt lat="37.8086036" lon="14.4910226"><ele>751.0</ele><time>2026-05-03T10:13:56Z</time></trkpt><trkpt lat="37.8083755" lon="14.4909997"><ele>751.0</ele><time>2026-05-03T10:13:57Z</time></trkpt><trkpt lat="37.808165" lon="14.4909577"><ele>751.0</ele><time>2026-05-03T10:13:58Z</time></trkpt><trkpt lat="37.8079771" lon="14.4908969"><ele>751.0</ele><time>2026-05-03T10:13:59Z</time></trkpt><trkpt lat="37.8077874" lon="14.490798"><ele>751.0</ele><time>2026-05-03T10:14:00Z</time></trkpt><trkpt lat="37.8076275" lon="14.4906776"><ele>751.0</ele><time>2026-05-03T10:14:01Z</time></trkpt><trkpt lat="37.8074641" lon="14.4905449"><ele>748.6666666666667</ele><time>2026-05-03T10:14:02Z</time></trkpt><trkpt lat="37.807309" lon="14.4904179"><ele>746.3333333333334</ele><time>2026-05-03T10:14:03Z</time></trkpt><trkpt lat="37.8071573" lon="14.4903168"><ele>744.0</ele><time>2026-05-03T10:14:04Z</time></trkpt><trkpt lat="37.8069827" lon="14.4902632"><ele>743.3333333333334</ele><time>2026-05-03T10:14:05Z</time></trkpt><trkpt lat="37.8068065" lon="14.4902359"><ele>742.6666666666667</ele><time>2026-05-03T10:14:06Z</time></trkpt><trkpt lat="37.8066253" lon="14.4902455"><ele>742.0</ele><time>2026-05-03T10:14:07Z</time></trkpt><trkpt lat="37.8064537" lon="14.4902981"><ele>742.0</ele><time>2026-05-03T10:14:08Z</time></trkpt><trkpt lat="37.8062949" lon="14.4903698"><ele>742.0</ele><time>2026-05-03T10:14:09Z</time></trkpt><trkpt lat="37.8061386" lon="14.4904085"><ele>742.0</ele><time>2026-05-03T10:14:10Z</time></trkpt><trkpt lat="37.8059636" lon="14.4904038"><ele>740.6666666666667</ele><time>2026-05-03T10:14:11Z</time></trkpt><trkpt lat="37.805775" lon="14.4903726"><ele>739.3333333333334</ele><time>2026-05-03T10:14:12Z</time></trkpt><trkpt lat="37.8056011" lon="14.490327"><ele>738.0</ele><time>2026-05-03T10:14:13Z</time></trkpt><trkpt lat="37.8054513" lon="14.490274"><ele>738.0</ele><time>2026-05-03T10:14:14Z</time></trkpt><trkpt lat="37.8053201" lon="14.4902008"><ele>738.0</ele><time>2026-05-03T10:14:15Z</time></trkpt><trkpt lat="37.8052262" lon="14.490078"><ele>738.0</ele><time>2026-05-03T10:14:16Z</time></trkpt><trkpt lat="37.8051499" lon="14.4899083"><ele>738.0</ele><time>2026-05-03T10:14:17Z</time></trkpt><trkpt lat="37.8050887" lon="14.4897162"><ele>735.0</ele><time>2026-05-03T10:14:18Z</time></trkpt><trkpt lat="37.8050396" lon="14.4894996"><ele>732.0</ele><time>2026-05-03T10:14:19Z</time></trkpt><trkpt lat="37.8049785" lon="14.4893065"><ele>729.0</ele><time>2026-05-03T10:14:20Z</time></trkpt><trkpt lat="37.8048961" lon="14.4891231"><ele>729.0</ele><time>2026-05-03T10:14:21Z</time></trkpt><trkpt lat="37.804782" lon="14.4889571"><ele>729.0</ele><time>2026-05-03T10:14:22Z</time></trkpt><trkpt lat="37.8046198" lon="14.4888084"><ele>729.0</ele><time>2026-05-03T10:14:23Z</time></trkpt><trkpt lat="37.8044549" lon="14.4886741"><ele>728.6666666666666</ele><time>2026-05-03T10:14:24Z</time></trkpt><trkpt lat="37.8042948" lon="14.4885482"><ele>728.3333333333333</ele><time>2026-05-03T10:14:25Z</time></trkpt><trkpt lat="37.8041347" lon="14.4884362"><ele>728.0</ele><time>2026-05-03T10:14:26Z</time></trkpt><trkpt lat="37.8039815" lon="14.4883262"><ele>728.0</ele><time>2026-05-03T10:14:27Z</time></trkpt><trkpt lat="37.8038334" lon="14.4882485"><ele>728.0</ele><time>2026-05-03T10:14:28Z</time></trkpt><trkpt lat="37.8036882" lon="14.4881941"><ele>728.0</ele><time>2026-05-03T10:14:29Z</time></trkpt><trkpt lat="37.8035497" lon="14.4881912"><ele>727.75</ele><time>2026-05-03T10:14:30Z</time></trkpt><trkpt lat="37.8034249" lon="14.4882461"><ele>727.5</ele><time>2026-05-03T10:14:31Z</time></trkpt><trkpt lat="37.8033255" lon="14.4883679"><ele>727.25</ele><time>2026-05-03T10:14:32Z</time></trkpt><trkpt lat="37.8032422" lon="14.4885495"><ele>727.0</ele><time>2026-05-03T10:14:33Z</time></trkpt><trkpt lat="37.8031537" lon="14.4887676"><ele>728.6666666666667</ele><time>2026-05-03T10:14:34Z</time></trkpt><trkpt lat="37.8030665" lon="14.488993"><ele>730.3333333333334</ele><time>2026-05-03T10:14:35Z</time></trkpt><trkpt lat="37.8029831" lon="14.4892134"><ele>732.0</ele><time>2026-05-03T10:14:36Z</time></trkpt><trkpt lat="37.802902" lon="14.4894198"><ele>733.6666666666666</ele><time>2026-05-03T10:14:37Z</time></trkpt><trkpt lat="37.8028043" lon="14.4896106"><ele>735.3333333333333</ele><time>2026-05-03T10:14:38Z</time></trkpt><trkpt lat="37.8026875" lon="14.4897642"><ele>737.0</ele><time>2026-05-03T10:14:39Z</time></trkpt><trkpt lat="37.8025628" lon="14.4898831"><ele>734.0</ele><time>2026-05-03T10:14:40Z</time></trkpt><trkpt lat="37.8024547" lon="14.4899709"><ele>731.0</ele><time>2026-05-03T10:14:41Z</time></trkpt><trkpt lat="37.802356" lon="14.4900171"><ele>728.0</ele><time>2026-05-03T10:14:42Z</time></trkpt><trkpt lat="37.8022691" lon="14.4900058"><ele>725.0</ele><time>2026-05-03T10:14:43Z</time></trkpt><trkpt lat="37.8022074" lon="14.4899359"><ele>722.0</ele><time>2026-05-03T10:14:44Z</time></trkpt><trkpt lat="37.8021782" lon="14.4898345"><ele>722.0</ele><time>2026-05-03T10:14:45Z</time></trkpt><trkpt lat="37.8022066" lon="14.489739"><ele>722.0</ele><time>2026-05-03T10:14:46Z</time></trkpt><trkpt lat="37.8022877" lon="14.4896516"><ele>722.0</ele><time>2026-05-03T10:14:47Z</time></trkpt><trkpt lat="37.8024003" lon="14.4895759"><ele>722.0</ele><time>2026-05-03T10:14:48Z</time></trkpt><trkpt lat="37.802513" lon="14.4894815"><ele>720.25</ele><time>2026-05-03T10:14:49Z</time></trkpt><trkpt lat="37.8026135" lon="14.4893723"><ele>718.5</ele><time>2026-05-03T10:14:50Z</time></trkpt><trkpt lat="37.8026927" lon="14.4892448"><ele>716.75</ele><time>2026-05-03T10:14:51Z</time></trkpt><trkpt lat="37.8027227" lon="14.4890835"><ele>715.0</ele><time>2026-05-03T10:14:52Z</time></trkpt><trkpt lat="37.8027077" lon="14.4888952"><ele>714.0</ele><time>2026-05-03T10:14:53Z</time></trkpt><trkpt lat="37.8026578" lon="14.4886927"><ele>713.0</ele><time>2026-05-03T10:14:54Z</time></trkpt><trkpt lat="37.8025839" lon="14.4884756"><ele>712.0</ele><time>2026-05-03T10:14:55Z</time></trkpt><trkpt lat="37.8025101" lon="14.4882381"><ele>712.0</ele><time>2026-05-03T10:14:56Z</time></trkpt><trkpt lat="37.802438" lon="14.4880037"><ele>712.0</ele><time>2026-05-03T10:14:57Z</time></trkpt><trkpt lat="37.8023689" lon="14.4877747"><ele>712.0</ele><time>2026-05-03T10:14:58Z</time></trkpt><trkpt lat="37.8022942" lon="14.4875503"><ele>712.3333333333334</ele><time>2026-05-03T10:14:59Z</time></trkpt><trkpt lat="37.8022237" lon="14.4873429"><ele>712.6666666666666</ele><time>2026-05-03T10:15:00Z</time></trkpt><trkpt lat="37.8021605" lon="14.4871402"><ele>713.0</ele><time>2026-05-03T10:15:01Z</time></trkpt><trkpt lat="37.8021159" lon="14.4869771"><ele>711.0</ele><time>2026-05-03T10:15:02Z</time></trkpt><trkpt lat="37.8020844" lon="14.4868156"><ele>709.0</ele><time>2026-05-03T10:15:03Z</time></trkpt><trkpt lat="37.8020842" lon="14.4866462"><ele>707.0</ele><time>2026-05-03T10:15:04Z</time></trkpt><trkpt lat="37.8021348" lon="14.486484"><ele>705.0</ele><time>2026-05-03T10:15:05Z</time></trkpt><trkpt lat="37.8022265" lon="14.486361"><ele>702.0</ele><time>2026-05-03T10:15:06Z</time></trkpt><trkpt lat="37.8023605" lon="14.4862577"><ele>699.0</ele><time>2026-05-03T10:15:07Z</time></trkpt><trkpt lat="37.8025175" lon="14.4861514"><ele>696.0</ele><time>2026-05-03T10:15:08Z</time></trkpt><trkpt lat="37.802683" lon="14.4860356"><ele>696.0</ele><time>2026-05-03T10:15:09Z</time></trkpt><trkpt lat="37.8028543" lon="14.4859211"><ele>696.0</ele><time>2026-05-03T10:15:10Z</time></trkpt><trkpt lat="37.8030244" lon="14.4858133"><ele>696.0</ele><time>2026-05-03T10:15:11Z</time></trkpt><trkpt lat="37.8031898" lon="14.4857065"><ele>696.0</ele><time>2026-05-03T10:15:12Z</time></trkpt><trkpt lat="37.8033724" lon="14.4856205"><ele>696.0</ele><time>2026-05-03T10:15:13Z</time></trkpt><trkpt lat="37.8035766" lon="14.4855652"><ele>696.0</ele><time>2026-05-03T10:15:14Z</time></trkpt><trkpt lat="37.8037702" lon="14.4855221"><ele>696.3333333333334</ele><time>2026-05-03T10:15:15Z</time></trkpt><trkpt lat="37.8039563" lon="14.4854522"><ele>696.6666666666667</ele><time>2026-05-03T10:15:16Z</time></trkpt><trkpt lat="37.8041473" lon="14.4853496"><ele>697.0</ele><time>2026-05-03T10:15:17Z</time></trkpt><trkpt lat="37.8043239" lon="14.4852316"><ele>694.0</ele><time>2026-05-03T10:15:18Z</time></trkpt><trkpt lat="37.8044765" lon="14.4851214"><ele>691.0</ele><time>2026-05-03T10:15:19Z</time></trkpt><trkpt lat="37.8046044" lon="14.4850142"><ele>688.0</ele><time>2026-05-03T10:15:20Z</time></trkpt><trkpt lat="37.8047095" lon="14.4848949"><ele>688.0</ele><time>2026-05-03T10:15:21Z</time></trkpt><trkpt lat="37.8047824" lon="14.4847451"><ele>688.0</ele><time>2026-05-03T10:15:22Z</time></trkpt><trkpt lat="37.8048208" lon="14.4845639"><ele>688.0</ele><time>2026-05-03T10:15:23Z</time></trkpt><trkpt lat="37.8048203" lon="14.4843745"><ele>688.0</ele><time>2026-05-03T10:15:23.999Z</time></trkpt><trkpt lat="37.8047759" lon="14.4841625"><ele>684.0</ele><time>2026-05-03T10:15:25Z</time></trkpt><trkpt lat="37.804712" lon="14.4839466"><ele>680.0</ele><time>2026-05-03T10:15:26Z</time></trkpt><trkpt lat="37.804633" lon="14.4837173"><ele>676.0</ele><time>2026-05-03T10:15:27Z</time></trkpt><trkpt lat="37.8045634" lon="14.4834918"><ele>674.0</ele><time>2026-05-03T10:15:28Z</time></trkpt><trkpt lat="37.8044898" lon="14.483289"><ele>672.0</ele><time>2026-05-03T10:15:29Z</time></trkpt><trkpt lat="37.8044276" lon="14.4830896"><ele>670.0</ele><time>2026-05-03T10:15:30Z</time></trkpt><trkpt lat="37.8043633" lon="14.4829132"><ele>669.2</ele><time>2026-05-03T10:15:30.999Z</time></trkpt><trkpt lat="37.8043161" lon="14.4827654"><ele>668.4</ele><time>2026-05-03T10:15:32Z</time></trkpt><trkpt lat="37.8043015" lon="14.4826328"><ele>667.5999999999999</ele><time>2026-05-03T10:15:33Z</time></trkpt><trkpt lat="37.8043288" lon="14.4825231"><ele>666.8</ele><time>2026-05-03T10:15:34Z</time></trkpt><trkpt lat="37.8044049" lon="14.4824803"><ele>666.0</ele><time>2026-05-03T10:15:35Z</time></trkpt><trkpt lat="37.8044999" lon="14.4824855"><ele>665.25</ele><time>2026-05-03T10:15:36Z</time></trkpt><trkpt lat="37.8046137" lon="14.4825604"><ele>664.5</ele><time>2026-05-03T10:15:37Z</time></trkpt><trkpt lat="37.8047172" lon="14.4826738"><ele>663.75</ele><time>2026-05-03T10:15:38Z</time></trkpt><trkpt lat="37.8048345" lon="14.4828202"><ele>663.0</ele><time>2026-05-03T10:15:39Z</time></trkpt><trkpt lat="37.8049545" lon="14.4829586"><ele>663.75</ele><time>2026-05-03T10:15:40Z</time></trkpt><trkpt lat="37.8050724" lon="14.4830916"><ele>664.5</ele><time>2026-05-03T10:15:41Z</time></trkpt><trkpt lat="37.8051867" lon="14.4832077"><ele>665.25</ele><time>2026-05-03T10:15:42Z</time></trkpt><trkpt lat="37.8053111" lon="14.483296"><ele>666.0</ele><time>2026-05-03T10:15:43Z</time></trkpt><trkpt lat="37.8054403" lon="14.4833202"><ele>666.0</ele><time>2026-05-03T10:15:44Z</time></trkpt><trkpt lat="37.8055726" lon="14.4832941"><ele>666.0</ele><time>2026-05-03T10:15:45Z</time></trkpt><trkpt lat="37.8057092" lon="14.4832073"><ele>666.0</ele><time>2026-05-03T10:15:46Z</time></trkpt><trkpt lat="37.8058477" lon="14.4830949"><ele>666.0</ele><time>2026-05-03T10:15:47Z</time></trkpt><trkpt lat="37.8059911" lon="14.4829827"><ele>666.0</ele><time>2026-05-03T10:15:48Z</time></trkpt><trkpt lat="37.8061452" lon="14.4828814"><ele>666.0</ele><time>2026-05-03T10:15:49Z</time></trkpt><trkpt lat="37.8063046" lon="14.4827999"><ele>663.3333333333334</ele><time>2026-05-03T10:15:50Z</time></trkpt><trkpt lat="37.8064644" lon="14.4827458"><ele>660.6666666666667</ele><time>2026-05-03T10:15:51Z</time></trkpt><trkpt lat="37.8066109" lon="14.4827025"><ele>658.0</ele><time>2026-05-03T10:15:52Z</time></trkpt><trkpt lat="37.8067575" lon="14.4826832"><ele>655.3333333333334</ele><time>2026-05-03T10:15:53Z</time></trkpt><trkpt lat="37.8069169" lon="14.4827059"><ele>652.6666666666666</ele><time>2026-05-03T10:15:54Z</time></trkpt><trkpt lat="37.8070858" lon="14.4827549"><ele>650.0</ele><time>2026-05-03T10:15:55Z</time></trkpt><trkpt lat="37.8072686" lon="14.4828259"><ele>650.0</ele><time>2026-05-03T10:15:56Z</time></trkpt><trkpt lat="37.8074405" lon="14.4828921"><ele>650.0</ele><time>2026-05-03T10:15:57Z</time></trkpt><trkpt lat="37.8076003" lon="14.4829523"><ele>650.0</ele><time>2026-05-03T10:15:58Z</time></trkpt><trkpt lat="37.8077386" lon="14.4829942"><ele>649.75</ele><time>2026-05-03T10:15:59Z</time></trkpt><trkpt lat="37.8078606" lon="14.4829962"><ele>649.5</ele><time>2026-05-03T10:16:00Z</time></trkpt><trkpt lat="37.8079705" lon="14.4829398"><ele>649.25</ele><time>2026-05-03T10:16:01Z</time></trkpt><trkpt lat="37.8080589" lon="14.4828317"><ele>649.0</ele><time>2026-05-03T10:16:02Z</time></trkpt><trkpt lat="37.8081018" lon="14.4826891"><ele>647.0</ele><time>2026-05-03T10:16:03Z</time></trkpt><trkpt lat="37.8080979" lon="14.4825341"><ele>645.0</ele><time>2026-05-03T10:16:04Z</time></trkpt><trkpt lat="37.8080473" lon="14.4823703"><ele>643.0</ele><time>2026-05-03T10:16:05Z</time></trkpt><trkpt lat="37.8079765" lon="14.4822089"><ele>641.0</ele><time>2026-05-03T10:16:06Z</time></trkpt><trkpt lat="37.8078932" lon="14.4820765"><ele>640.75</ele><time>2026-05-03T10:16:07Z</time></trkpt><trkpt lat="37.8077915" lon="14.4819762"><ele>640.5</ele><time>2026-05-03T10:16:08Z</time></trkpt><trkpt lat="37.8076799" lon="14.4819048"><ele>640.25</ele><time>2026-05-03T10:16:09Z</time></trkpt><trkpt lat="37.8075719" lon="14.4818444"><ele>640.0</ele><time>2026-05-03T10:16:10Z</time></trkpt><trkpt lat="37.8074616" lon="14.4817872"><ele>640.0</ele><time>2026-05-03T10:16:11Z</time></trkpt><trkpt lat="37.8073495" lon="14.4817294"><ele>640.0</ele><time>2026-05-03T10:16:12Z</time></trkpt><trkpt lat="37.8072389" lon="14.481676"><ele>640.0</ele><time>2026-05-03T10:16:13Z</time></trkpt><trkpt lat="37.8071288" lon="14.4816128"><ele>640.0</ele><time>2026-05-03T10:16:14Z</time></trkpt><trkpt lat="37.8070146" lon="14.4815438"><ele>640.0</ele><time>2026-05-03T10:16:15Z</time></trkpt><trkpt lat="37.8069081" lon="14.4814584"><ele>640.0</ele><time>2026-05-03T10:16:16Z</time></trkpt><trkpt lat="37.8067956" lon="14.4813655"><ele>640.0</ele><time>2026-05-03T10:16:16.999Z</time></trkpt><trkpt lat="37.8066846" lon="14.4812675"><ele>640.0</ele><time>2026-05-03T10:16:18Z</time></trkpt><trkpt lat="37.8065752" lon="14.4811649"><ele>637.75</ele><time>2026-05-03T10:16:19Z</time></trkpt><trkpt lat="37.8064665" lon="14.4810615"><ele>635.5</ele><time>2026-05-03T10:16:20Z</time></trkpt><trkpt lat="37.8063629" lon="14.4809521"><ele>633.25</ele><time>2026-05-03T10:16:21Z</time></trkpt><trkpt lat="37.8062637" lon="14.4808409"><ele>631.0</ele><time>2026-05-03T10:16:22Z</time></trkpt><trkpt lat="37.8061636" lon="14.4807258"><ele>631.0</ele><time>2026-05-03T10:16:22.999Z</time></trkpt><trkpt lat="37.806079" lon="14.4805945"><ele>631.0</ele><time>2026-05-03T10:16:24Z</time></trkpt><trkpt lat="37.8060046" lon="14.4804619"><ele>631.0</ele><time>2026-05-03T10:16:25Z</time></trkpt><trkpt lat="37.8059302" lon="14.480311"><ele>631.0</ele><time>2026-05-03T10:16:26Z</time></trkpt><trkpt lat="37.8058646" lon="14.4801381"><ele>630.25</ele><time>2026-05-03T10:16:27Z</time></trkpt><trkpt lat="37.8058231" lon="14.4799622"><ele>629.5</ele><time>2026-05-03T10:16:28Z</time></trkpt><trkpt lat="37.8057924" lon="14.479786"><ele>628.75</ele><time>2026-05-03T10:16:28.999Z</time></trkpt><trkpt lat="37.8057584" lon="14.4796048"><ele>628.0</ele><time>2026-05-03T10:16:30Z</time></trkpt><trkpt lat="37.8057116" lon="14.4794364"><ele>626.25</ele><time>2026-05-03T10:16:31Z</time></trkpt><trkpt lat="37.8056434" lon="14.4792811"><ele>624.5</ele><time>2026-05-03T10:16:32Z</time></trkpt><trkpt lat="37.8055606" lon="14.4791476"><ele>622.75</ele><time>2026-05-03T10:16:33Z</time></trkpt><trkpt lat="37.8054738" lon="14.4790374"><ele>621.0</ele><time>2026-05-03T10:16:34Z</time></trkpt><trkpt lat="37.8053888" lon="14.4789317"><ele>621.0</ele><time>2026-05-03T10:16:35Z</time></trkpt><trkpt lat="37.8053138" lon="14.4788201"><ele>621.0</ele><time>2026-05-03T10:16:36Z</time></trkpt><trkpt lat="37.8052608" lon="14.4787119"><ele>621.0</ele><time>2026-05-03T10:16:37Z</time></trkpt><trkpt lat="37.8052304" lon="14.4785982"><ele>621.0</ele><time>2026-05-03T10:16:38Z</time></trkpt><trkpt lat="37.8052185" lon="14.4784813"><ele>621.0</ele><time>2026-05-03T10:16:39Z</time></trkpt><trkpt lat="37.8052235" lon="14.4783805"><ele>619.8333333333334</ele><time>2026-05-03T10:16:40Z</time></trkpt><trkpt lat="37.8052396" lon="14.4782993"><ele>618.6666666666666</ele><time>2026-05-03T10:16:41Z</time></trkpt><trkpt lat="37.805307" lon="14.478246"><ele>617.5</ele><time>2026-05-03T10:16:43Z</time></trkpt><trkpt lat="37.8053644" lon="14.4783156"><ele>616.3333333333333</ele><time>2026-05-03T10:16:45Z</time></trkpt><trkpt lat="37.8054477" lon="14.478428"><ele>615.1666666666666</ele><time>2026-05-03T10:16:47Z</time></trkpt><trkpt lat="37.8054947" lon="14.4784871"><ele>614.0</ele><time>2026-05-03T10:16:48Z</time></trkpt><trkpt lat="37.805547" lon="14.4785404"><ele>614.0</ele><time>2026-05-03T10:16:49Z</time></trkpt><trkpt lat="37.8056094" lon="14.4785782"><ele>614.0</ele><time>2026-05-03T10:16:50Z</time></trkpt><trkpt lat="37.8056894" lon="14.4786144"><ele>614.0</ele><time>2026-05-03T10:16:51Z</time></trkpt><trkpt lat="37.8057841" lon="14.4786437"><ele>614.0</ele><time>2026-05-03T10:16:52Z</time></trkpt><trkpt lat="37.8058982" lon="14.478666"><ele>614.0</ele><time>2026-05-03T10:16:53Z</time></trkpt><trkpt lat="37.8060174" lon="14.478685"><ele>612.5</ele><time>2026-05-03T10:16:54Z</time></trkpt><trkpt lat="37.8061375" lon="14.4787096"><ele>611.0</ele><time>2026-05-03T10:16:55Z</time></trkpt><trkpt lat="37.8062617" lon="14.4787243"><ele>609.5</ele><time>2026-05-03T10:16:56Z</time></trkpt><trkpt lat="37.8063999" lon="14.4787412"><ele>608.0</ele><time>2026-05-03T10:16:57Z</time></trkpt><trkpt lat="37.8065379" lon="14.4787613"><ele>608.3333333333333</ele><time>2026-05-03T10:16:58Z</time></trkpt><trkpt lat="37.8066839" lon="14.4787764"><ele>608.6666666666666</ele><time>2026-05-03T10:16:59Z</time></trkpt><trkpt lat="37.80683" lon="14.4788031"><ele>609.0</ele><time>2026-05-03T10:17:00Z</time></trkpt><trkpt lat="37.8069848" lon="14.47883"><ele>609.0</ele><time>2026-05-03T10:17:01Z</time></trkpt><trkpt lat="37.8071294" lon="14.4788489"><ele>609.0</ele><time>2026-05-03T10:17:02Z</time></trkpt><trkpt lat="37.8072712" lon="14.4788599"><ele>609.0</ele><time>2026-05-03T10:17:03Z</time></trkpt><trkpt lat="37.8074166" lon="14.4788359"><ele>609.0</ele><time>2026-05-03T10:17:04Z</time></trkpt><trkpt lat="37.8075625" lon="14.4787917"><ele>607.75</ele><time>2026-05-03T10:17:05Z</time></trkpt><trkpt lat="37.8076865" lon="14.4787236"><ele>606.5</ele><time>2026-05-03T10:17:06Z</time></trkpt><trkpt lat="37.8078044" lon="14.4786596"><ele>605.25</ele><time>2026-05-03T10:17:07Z</time></trkpt><trkpt lat="37.8079287" lon="14.4785973"><ele>604.0</ele><time>2026-05-03T10:17:08Z</time></trkpt><trkpt lat="37.8080573" lon="14.4785307"><ele>604.0</ele><time>2026-05-03T10:17:09Z</time></trkpt><trkpt lat="37.8081811" lon="14.4784628"><ele>604.0</ele><time>2026-05-03T10:17:10Z</time></trkpt><trkpt lat="37.8082947" lon="14.4783928"><ele>604.0</ele><time>2026-05-03T10:17:11Z</time></trkpt><trkpt lat="37.8083963" lon="14.4783113"><ele>604.0</ele><time>2026-05-03T10:17:12Z</time></trkpt><trkpt lat="37.8084728" lon="14.4782029"><ele>605.25</ele><time>2026-05-03T10:17:13Z</time></trkpt><trkpt lat="37.8085192" lon="14.4780735"><ele>606.5</ele><time>2026-05-03T10:17:14Z</time></trkpt><trkpt lat="37.8085336" lon="14.4779255"><ele>607.75</ele><time>2026-05-03T10:17:15Z</time></trkpt><trkpt lat="37.8085067" lon="14.4777874"><ele>609.0</ele><time>2026-05-03T10:17:16Z</time></trkpt><trkpt lat="37.8084357" lon="14.4776429"><ele>609.0</ele><time>2026-05-03T10:17:17Z</time></trkpt><trkpt lat="37.8083458" lon="14.4775004"><ele>609.0</ele><time>2026-05-03T10:17:18Z</time></trkpt><trkpt lat="37.8082524" lon="14.4773739"><ele>609.0</ele><time>2026-05-03T10:17:19Z</time></trkpt><trkpt lat="37.8081736" lon="14.4772332"><ele>609.0</ele><time>2026-05-03T10:17:20Z</time></trkpt><trkpt lat="37.8081193" lon="14.4770827"><ele>609.75</ele><time>2026-05-03T10:17:21Z</time></trkpt><trkpt lat="37.8081015" lon="14.4769226"><ele>610.5</ele><time>2026-05-03T10:17:22Z</time></trkpt><trkpt lat="37.8081246" lon="14.4767727"><ele>611.25</ele><time>2026-05-03T10:17:23Z</time></trkpt><trkpt lat="37.8081954" lon="14.4766224"><ele>612.0</ele><time>2026-05-03T10:17:24Z</time></trkpt><trkpt lat="37.8082991" lon="14.476472"><ele>612.0</ele><time>2026-05-03T10:17:25Z</time></trkpt><trkpt lat="37.8084178" lon="14.4763077"><ele>612.0</ele><time>2026-05-03T10:17:26Z</time></trkpt><trkpt lat="37.8085396" lon="14.4761423"><ele>612.0</ele><time>2026-05-03T10:17:27Z</time></trkpt><trkpt lat="37.8086622" lon="14.4759898"><ele>613.3333333333334</ele><time>2026-05-03T10:17:28Z</time></trkpt><trkpt lat="37.8087759" lon="14.4758395"><ele>614.6666666666667</ele><time>2026-05-03T10:17:29Z</time></trkpt><trkpt lat="37.8088964" lon="14.475695"><ele>616.0</ele><time>2026-05-03T10:17:30Z</time></trkpt><trkpt lat="37.8090438" lon="14.475575"><ele>616.0</ele><time>2026-05-03T10:17:31Z</time></trkpt><trkpt lat="37.8091992" lon="14.4754821"><ele>616.0</ele><time>2026-05-03T10:17:32Z</time></trkpt><trkpt lat="37.809341" lon="14.4753833"><ele>616.0</ele><time>2026-05-03T10:17:33Z</time></trkpt><trkpt lat="37.8094832" lon="14.4752254"><ele>617.6666666666667</ele><time>2026-05-03T10:17:34Z</time></trkpt><trkpt lat="37.8096177" lon="14.4750244"><ele>619.3333333333334</ele><time>2026-05-03T10:17:35Z</time></trkpt><trkpt lat="37.8097448" lon="14.4747946"><ele>621.0</ele><time>2026-05-03T10:17:36Z</time></trkpt><trkpt lat="37.809866" lon="14.4745639"><ele>621.0</ele><time>2026-05-03T10:17:37Z</time></trkpt><trkpt lat="37.8099785" lon="14.4743582"><ele>621.0</ele><time>2026-05-03T10:17:38Z</time></trkpt><trkpt lat="37.8100785" lon="14.4741496"><ele>621.0</ele><time>2026-05-03T10:17:39Z</time></trkpt><trkpt lat="37.8101524" lon="14.4739302"><ele>626.3333333333334</ele><time>2026-05-03T10:17:40Z</time></trkpt><trkpt lat="37.8102031" lon="14.4736885"><ele>631.6666666666667</ele><time>2026-05-03T10:17:41Z</time></trkpt><trkpt lat="37.8102295" lon="14.4734463"><ele>637.0</ele><time>2026-05-03T10:17:42Z</time></trkpt><trkpt lat="37.8102717" lon="14.4732193"><ele>637.0</ele><time>2026-05-03T10:17:43Z</time></trkpt><trkpt lat="37.8103317" lon="14.4730019"><ele>637.0</ele><time>2026-05-03T10:17:44Z</time></trkpt><trkpt lat="37.8104004" lon="14.4727815"><ele>637.0</ele><time>2026-05-03T10:17:45Z</time></trkpt><trkpt lat="37.8104905" lon="14.4725744"><ele>636.25</ele><time>2026-05-03T10:17:46Z</time></trkpt><trkpt lat="37.8105824" lon="14.4724061"><ele>635.5</ele><time>2026-05-03T10:17:47Z</time></trkpt><trkpt lat="37.8106699" lon="14.4722496"><ele>634.75</ele><time>2026-05-03T10:17:48Z</time></trkpt><trkpt lat="37.8107521" lon="14.4721135"><ele>634.0</ele><time>2026-05-03T10:17:49Z</time></trkpt><trkpt lat="37.8108423" lon="14.4720071"><ele>634.2</ele><time>2026-05-03T10:17:50Z</time></trkpt><trkpt lat="37.8109375" lon="14.4719455"><ele>634.4</ele><time>2026-05-03T10:17:51Z</time></trkpt><trkpt lat="37.8110284" lon="14.4719357"><ele>634.6</ele><time>2026-05-03T10:17:52Z</time></trkpt><trkpt lat="37.8111333" lon="14.4719724"><ele>634.8</ele><time>2026-05-03T10:17:53Z</time></trkpt><trkpt lat="37.8112355" lon="14.4720229"><ele>635.0</ele><time>2026-05-03T10:17:54Z</time></trkpt><trkpt lat="37.8113311" lon="14.4720511"><ele>635.0</ele><time>2026-05-03T10:17:55Z</time></trkpt><trkpt lat="37.8114338" lon="14.4720304"><ele>635.0</ele><time>2026-05-03T10:17:56Z</time></trkpt><trkpt lat="37.8115337" lon="14.4719645"><ele>635.0</ele><time>2026-05-03T10:17:57Z</time></trkpt><trkpt lat="37.8116238" lon="14.4718538"><ele>635.0</ele><time>2026-05-03T10:17:58Z</time></trkpt><trkpt lat="37.8117204" lon="14.4717036"><ele>642.3333333333333</ele><time>2026-05-03T10:17:59Z</time></trkpt><trkpt lat="37.8118259" lon="14.4715387"><ele>649.6666666666666</ele><time>2026-05-03T10:18:00Z</time></trkpt><trkpt lat="37.811939" lon="14.471385"><ele>657.0</ele><time>2026-05-03T10:18:01Z</time></trkpt><trkpt lat="37.8120824" lon="14.471291"><ele>654.25</ele><time>2026-05-03T10:18:02Z</time></trkpt><trkpt lat="37.8122222" lon="14.4712373"><ele>651.5</ele><time>2026-05-03T10:18:03Z</time></trkpt><trkpt lat="37.8123477" lon="14.4711864"><ele>648.75</ele><time>2026-05-03T10:18:04Z</time></trkpt><trkpt lat="37.8124511" lon="14.4711043"><ele>646.0</ele><time>2026-05-03T10:18:05Z</time></trkpt><trkpt lat="37.812534" lon="14.4709907"><ele>646.0</ele><time>2026-05-03T10:18:06Z</time></trkpt><trkpt lat="37.8125972" lon="14.470836"><ele>646.0</ele><time>2026-05-03T10:18:07Z</time></trkpt><trkpt lat="37.812643" lon="14.4706517"><ele>646.0</ele><time>2026-05-03T10:18:08Z</time></trkpt><trkpt lat="37.8126669" lon="14.4704444"><ele>647.0</ele><time>2026-05-03T10:18:09Z</time></trkpt><trkpt lat="37.8126727" lon="14.4702088"><ele>648.0</ele><time>2026-05-03T10:18:10Z</time></trkpt><trkpt lat="37.8126544" lon="14.4699713"><ele>649.0</ele><time>2026-05-03T10:18:11Z</time></trkpt><trkpt lat="37.812644" lon="14.4697564"><ele>648.0</ele><time>2026-05-03T10:18:12Z</time></trkpt><trkpt lat="37.8126485" lon="14.4695605"><ele>647.0</ele><time>2026-05-03T10:18:13Z</time></trkpt><trkpt lat="37.8126694" lon="14.4693792"><ele>646.0</ele><time>2026-05-03T10:18:14Z</time></trkpt><trkpt lat="37.8127326" lon="14.469205"><ele>650.75</ele><time>2026-05-03T10:18:15Z</time></trkpt><trkpt lat="37.8128201" lon="14.4690546"><ele>655.5</ele><time>2026-05-03T10:18:16Z</time></trkpt><trkpt lat="37.812932" lon="14.468944"><ele>660.25</ele><time>2026-05-03T10:18:17Z</time></trkpt><trkpt lat="37.8130688" lon="14.4688601"><ele>665.0</ele><time>2026-05-03T10:18:18Z</time></trkpt><trkpt lat="37.8132185" lon="14.4687873"><ele>667.0</ele><time>2026-05-03T10:18:19Z</time></trkpt><trkpt lat="37.8133712" lon="14.468699"><ele>669.0</ele><time>2026-05-03T10:18:20Z</time></trkpt><trkpt lat="37.8135254" lon="14.4685923"><ele>671.0</ele><time>2026-05-03T10:18:21Z</time></trkpt><trkpt lat="37.8136758" lon="14.4684771"><ele>671.0</ele><time>2026-05-03T10:18:22Z</time></trkpt><trkpt lat="37.8138159" lon="14.4683777"><ele>671.0</ele><time>2026-05-03T10:18:23Z</time></trkpt><trkpt lat="37.8139414" lon="14.4682649"><ele>671.0</ele><time>2026-05-03T10:18:24Z</time></trkpt><trkpt lat="37.8140426" lon="14.4681324"><ele>671.0</ele><time>2026-05-03T10:18:25Z</time></trkpt><trkpt lat="37.8141334" lon="14.467979"><ele>671.0</ele><time>2026-05-03T10:18:26Z</time></trkpt><trkpt lat="37.8141955" lon="14.467851"><ele>671.0</ele><time>2026-05-03T10:18:27Z</time></trkpt><trkpt lat="37.8142538" lon="14.4677852"><ele>671.0</ele><time>2026-05-03T10:18:28Z</time></trkpt><trkpt lat="37.8143605" lon="14.4677745"><ele>673.25</ele><time>2026-05-03T10:18:30Z</time></trkpt><trkpt lat="37.8143549" lon="14.4679317"><ele>675.5</ele><time>2026-05-03T10:18:31Z</time></trkpt><trkpt lat="37.8143544" lon="14.4680588"><ele>677.75</ele><time>2026-05-03T10:18:32Z</time></trkpt><trkpt lat="37.8143418" lon="14.4682101"><ele>680.0</ele><time>2026-05-03T10:18:33Z</time></trkpt><trkpt lat="37.8143418" lon="14.4683673"><ele>679.75</ele><time>2026-05-03T10:18:34Z</time></trkpt><trkpt lat="37.8143239" lon="14.468534"><ele>679.5</ele><time>2026-05-03T10:18:35Z</time></trkpt><trkpt lat="37.8142618" lon="14.4687094"><ele>679.25</ele><time>2026-05-03T10:18:36Z</time></trkpt><trkpt lat="37.8141819" lon="14.4688827"><ele>679.0</ele><time>2026-05-03T10:18:37Z</time></trkpt><trkpt lat="37.814108" lon="14.4690317"><ele>679.0</ele><time>2026-05-03T10:18:38Z</time></trkpt><trkpt lat="37.8140134" lon="14.4691469"><ele>679.0</ele><time>2026-05-03T10:18:39Z</time></trkpt><trkpt lat="37.8138938" lon="14.4692346"><ele>679.0</ele><time>2026-05-03T10:18:40Z</time></trkpt><trkpt lat="37.8137632" lon="14.4693048"><ele>679.0</ele><time>2026-05-03T10:18:41Z</time></trkpt><trkpt lat="37.8136372" lon="14.4693782"><ele>679.0</ele><time>2026-05-03T10:18:42Z</time></trkpt><trkpt lat="37.8135302" lon="14.46945"><ele>679.0</ele><time>2026-05-03T10:18:43Z</time></trkpt><trkpt lat="37.8134523" lon="14.469534"><ele>679.0</ele><time>2026-05-03T10:18:44Z</time></trkpt><trkpt lat="37.8134092" lon="14.4696185"><ele>679.0</ele><time>2026-05-03T10:18:45Z</time></trkpt><trkpt lat="37.8134639" lon="14.4697531"><ele>679.0</ele><time>2026-05-03T10:18:47Z</time></trkpt><trkpt lat="37.8135405" lon="14.4697573"><ele>682.4000000000001</ele><time>2026-05-03T10:18:48Z</time></trkpt><trkpt lat="37.8136277" lon="14.4697223"><ele>685.8</ele><time>2026-05-03T10:18:49Z</time></trkpt><trkpt lat="37.8137285" lon="14.469674"><ele>689.2</ele><time>2026-05-03T10:18:50Z</time></trkpt><trkpt lat="37.8138429" lon="14.4696268"><ele>692.5999999999999</ele><time>2026-05-03T10:18:51Z</time></trkpt><trkpt lat="37.8139617" lon="14.4696162"><ele>696.0</ele><time>2026-05-03T10:18:52Z</time></trkpt><trkpt lat="37.8140953" lon="14.4696293"><ele>696.0</ele><time>2026-05-03T10:18:53Z</time></trkpt><trkpt lat="37.8142353" lon="14.4696579"><ele>696.0</ele><time>2026-05-03T10:18:54Z</time></trkpt><trkpt lat="37.8143711" lon="14.4696806"><ele>696.0</ele><time>2026-05-03T10:18:55Z</time></trkpt><trkpt lat="37.8145231" lon="14.4696549"><ele>696.0</ele><time>2026-05-03T10:18:56Z</time></trkpt><trkpt lat="37.8146724" lon="14.4695886"><ele>695.6666666666666</ele><time>2026-05-03T10:18:57Z</time></trkpt><trkpt lat="37.8148227" lon="14.4695014"><ele>695.3333333333333</ele><time>2026-05-03T10:18:58Z</time></trkpt><trkpt lat="37.8149695" lon="14.4694019"><ele>695.0</ele><time>2026-05-03T10:18:59Z</time></trkpt><trkpt lat="37.815107" lon="14.4693026"><ele>698.6666666666666</ele><time>2026-05-03T10:19:00Z</time></trkpt><trkpt lat="37.815223" lon="14.4691719"><ele>702.3333333333334</ele><time>2026-05-03T10:19:01Z</time></trkpt><trkpt lat="37.8153142" lon="14.46901"><ele>706.0</ele><time>2026-05-03T10:19:02Z</time></trkpt><trkpt lat="37.8153951" lon="14.4688437"><ele>704.5</ele><time>2026-05-03T10:19:03Z</time></trkpt><trkpt lat="37.8154725" lon="14.4686837"><ele>703.0</ele><time>2026-05-03T10:19:04Z</time></trkpt><trkpt lat="37.8155588" lon="14.4685497"><ele>701.5</ele><time>2026-05-03T10:19:05Z</time></trkpt><trkpt lat="37.8156511" lon="14.4684342"><ele>700.0</ele><time>2026-05-03T10:19:06Z</time></trkpt><trkpt lat="37.8157659" lon="14.4683385"><ele>700.0</ele><time>2026-05-03T10:19:07Z</time></trkpt><trkpt lat="37.8158983" lon="14.468264"><ele>700.0</ele><time>2026-05-03T10:19:08Z</time></trkpt><trkpt lat="37.8160338" lon="14.4682096"><ele>700.0</ele><time>2026-05-03T10:19:09Z</time></trkpt><trkpt lat="37.8161682" lon="14.4681544"><ele>700.0</ele><time>2026-05-03T10:19:10Z</time></trkpt><trkpt lat="37.8162869" lon="14.4681112"><ele>701.3333333333334</ele><time>2026-05-03T10:19:11Z</time></trkpt><trkpt lat="37.8163906" lon="14.4680786"><ele>702.6666666666667</ele><time>2026-05-03T10:19:12Z</time></trkpt><trkpt lat="37.816467" lon="14.468087"><ele>704.0</ele><time>2026-05-03T10:19:13Z</time></trkpt><trkpt lat="37.81652" lon="14.4681359"><ele>705.3333333333334</ele><time>2026-05-03T10:19:14Z</time></trkpt><trkpt lat="37.8164857" lon="14.4682692"><ele>706.6666666666666</ele><time>2026-05-03T10:19:16Z</time></trkpt><trkpt lat="37.8164131" lon="14.4683253"><ele>708.0</ele><time>2026-05-03T10:19:17Z</time></trkpt><trkpt lat="37.8163183" lon="14.4683943"><ele>708.0</ele><time>2026-05-03T10:19:18Z</time></trkpt><trkpt lat="37.8162207" lon="14.4684721"><ele>708.0</ele><time>2026-05-03T10:19:19Z</time></trkpt><trkpt lat="37.8161379" lon="14.468565"><ele>708.0</ele><time>2026-05-03T10:19:20Z</time></trkpt><trkpt lat="37.8160644" lon="14.4686627"><ele>708.0</ele><time>2026-05-03T10:19:21Z</time></trkpt><trkpt lat="37.8160146" lon="14.4687807"><ele>708.0</ele><time>2026-05-03T10:19:21.999Z</time></trkpt><trkpt lat="37.8159916" lon="14.4689195"><ele>710.5</ele><time>2026-05-03T10:19:23Z</time></trkpt><trkpt lat="37.816008" lon="14.469072"><ele>713.0</ele><time>2026-05-03T10:19:24Z</time></trkpt><trkpt lat="37.816048" lon="14.4692362"><ele>715.5</ele><time>2026-05-03T10:19:25Z</time></trkpt><trkpt lat="37.8160864" lon="14.4694078"><ele>718.0</ele><time>2026-05-03T10:19:26Z</time></trkpt><trkpt lat="37.8161021" lon="14.4695918"><ele>716.75</ele><time>2026-05-03T10:19:27Z</time></trkpt><trkpt lat="37.81608" lon="14.4697501"><ele>715.5</ele><time>2026-05-03T10:19:28Z</time></trkpt><trkpt lat="37.8160289" lon="14.4699004"><ele>714.25</ele><time>2026-05-03T10:19:29Z</time></trkpt><trkpt lat="37.8159549" lon="14.4700282"><ele>713.0</ele><time>2026-05-03T10:19:30Z</time></trkpt><trkpt lat="37.8158559" lon="14.4701215"><ele>713.0</ele><time>2026-05-03T10:19:31Z</time></trkpt><trkpt lat="37.8157372" lon="14.470197"><ele>713.0</ele><time>2026-05-03T10:19:32Z</time></trkpt><trkpt lat="37.815632" lon="14.4702649"><ele>713.0</ele><time>2026-05-03T10:19:33Z</time></trkpt><trkpt lat="37.8155417" lon="14.4703249"><ele>713.0</ele><time>2026-05-03T10:19:34Z</time></trkpt><trkpt lat="37.8154821" lon="14.4704012"><ele>713.0</ele><time>2026-05-03T10:19:35Z</time></trkpt><trkpt lat="37.8155015" lon="14.4705447"><ele>714.2</ele><time>2026-05-03T10:19:37Z</time></trkpt><trkpt lat="37.8155716" lon="14.4705737"><ele>715.4</ele><time>2026-05-03T10:19:38Z</time></trkpt><trkpt lat="37.815655" lon="14.4705473"><ele>716.6</ele><time>2026-05-03T10:19:39Z</time></trkpt><trkpt lat="37.8157536" lon="14.470504"><ele>717.8000000000001</ele><time>2026-05-03T10:19:40Z</time></trkpt><trkpt lat="37.815871" lon="14.4704521"><ele>719.0</ele><time>2026-05-03T10:19:41Z</time></trkpt><trkpt lat="37.8160032" lon="14.4703991"><ele>721.3333333333333</ele><time>2026-05-03T10:19:42Z</time></trkpt><trkpt lat="37.8161511" lon="14.4703526"><ele>723.6666666666666</ele><time>2026-05-03T10:19:43Z</time></trkpt><trkpt lat="37.8162965" lon="14.4702826"><ele>726.0</ele><time>2026-05-03T10:19:44Z</time></trkpt><trkpt lat="37.8164402" lon="14.4701871"><ele>726.0</ele><time>2026-05-03T10:19:45Z</time></trkpt><trkpt lat="37.8165752" lon="14.4700672"><ele>726.0</ele><time>2026-05-03T10:19:46Z</time></trkpt><trkpt lat="37.8167001" lon="14.4699456"><ele>726.0</ele><time>2026-05-03T10:19:47Z</time></trkpt><trkpt lat="37.8168358" lon="14.4698129"><ele>727.3333333333334</ele><time>2026-05-03T10:19:48Z</time></trkpt><trkpt lat="37.8169793" lon="14.469688"><ele>728.6666666666667</ele><time>2026-05-03T10:19:49Z</time></trkpt><trkpt lat="37.8171389" lon="14.4695771"><ele>730.0</ele><time>2026-05-03T10:19:50Z</time></trkpt><trkpt lat="37.817298" lon="14.4694807"><ele>730.0</ele><time>2026-05-03T10:19:51Z</time></trkpt><trkpt lat="37.8174609" lon="14.4693881"><ele>730.0</ele><time>2026-05-03T10:19:52Z</time></trkpt><trkpt lat="37.8176074" lon="14.4693012"><ele>730.0</ele><time>2026-05-03T10:19:53Z</time></trkpt><trkpt lat="37.8177329" lon="14.4692119"><ele>731.5</ele><time>2026-05-03T10:19:54Z</time></trkpt><trkpt lat="37.817813" lon="14.4691254"><ele>733.0</ele><time>2026-05-03T10:19:55Z</time></trkpt><trkpt lat="37.8178906" lon="14.4690464"><ele>734.5</ele><time>2026-05-03T10:19:56Z</time></trkpt><trkpt lat="37.8179559" lon="14.4690236"><ele>736.0</ele><time>2026-05-03T10:19:57Z</time></trkpt><trkpt lat="37.8180043" lon="14.4691168"><ele>737.5</ele><time>2026-05-03T10:19:59Z</time></trkpt><trkpt lat="37.8179752" lon="14.4691994"><ele>739.0</ele><time>2026-05-03T10:20:00Z</time></trkpt><trkpt lat="37.8179232" lon="14.469296"><ele>739.0</ele><time>2026-05-03T10:20:01Z</time></trkpt><trkpt lat="37.817855" lon="14.469407"><ele>739.0</ele><time>2026-05-03T10:20:02Z</time></trkpt><trkpt lat="37.8177791" lon="14.4695385"><ele>739.0</ele><time>2026-05-03T10:20:03Z</time></trkpt><trkpt lat="37.8176962" lon="14.4696863"><ele>739.0</ele><time>2026-05-03T10:20:04Z</time></trkpt><trkpt lat="37.8176113" lon="14.4698427"><ele>739.75</ele><time>2026-05-03T10:20:05Z</time></trkpt><trkpt lat="37.8175364" lon="14.4700117"><ele>740.5</ele><time>2026-05-03T10:20:06Z</time></trkpt><trkpt lat="37.8174554" lon="14.4701792"><ele>741.25</ele><time>2026-05-03T10:20:07Z</time></trkpt><trkpt lat="37.8173646" lon="14.4703104"><ele>742.0</ele><time>2026-05-03T10:20:08Z</time></trkpt><trkpt lat="37.8172754" lon="14.4704023"><ele>742.8333333333334</ele><time>2026-05-03T10:20:09Z</time></trkpt><trkpt lat="37.8172095" lon="14.4704937"><ele>743.6666666666667</ele><time>2026-05-03T10:20:10Z</time></trkpt><trkpt lat="37.8171893" lon="14.4705937"><ele>744.5</ele><time>2026-05-03T10:20:11Z</time></trkpt><trkpt lat="37.8172089" lon="14.4706709"><ele>745.3333333333334</ele><time>2026-05-03T10:20:12Z</time></trkpt><trkpt lat="37.8172666" lon="14.470711"><ele>746.1666666666666</ele><time>2026-05-03T10:20:13Z</time></trkpt><trkpt lat="37.8173562" lon="14.4706985"><ele>747.0</ele><time>2026-05-03T10:20:14Z</time></trkpt><trkpt lat="37.8174796" lon="14.4706533"><ele>747.0</ele><time>2026-05-03T10:20:15Z</time></trkpt><trkpt lat="37.8176259" lon="14.4706124"><ele>747.0</ele><time>2026-05-03T10:20:16Z</time></trkpt><trkpt lat="37.8177805" lon="14.4705495"><ele>747.0</ele><time>2026-05-03T10:20:16.999Z</time></trkpt><trkpt lat="37.8179352" lon="14.4704438"><ele>749.0</ele><time>2026-05-03T10:20:18Z</time></trkpt><trkpt lat="37.8180818" lon="14.4703104"><ele>751.0</ele><time>2026-05-03T10:20:19Z</time></trkpt><trkpt lat="37.8182148" lon="14.4701942"><ele>753.0</ele><time>2026-05-03T10:20:20Z</time></trkpt><trkpt lat="37.8183386" lon="14.4700839"><ele>753.0</ele><time>2026-05-03T10:20:21Z</time></trkpt><trkpt lat="37.8184531" lon="14.4699875"><ele>753.0</ele><time>2026-05-03T10:20:22Z</time></trkpt><trkpt lat="37.8185395" lon="14.4699311"><ele>753.0</ele><time>2026-05-03T10:20:23Z</time></trkpt><trkpt lat="37.8186119" lon="14.4699131"><ele>753.0</ele><time>2026-05-03T10:20:24Z</time></trkpt><trkpt lat="37.8186595" lon="14.4699949"><ele>753.0</ele><time>2026-05-03T10:20:26Z</time></trkpt><trkpt lat="37.8185898" lon="14.4701535"><ele>753.0</ele><time>2026-05-03T10:20:28Z</time></trkpt><trkpt lat="37.8185387" lon="14.4702768"><ele>753.0</ele><time>2026-05-03T10:20:29Z</time></trkpt><trkpt lat="37.8184778" lon="14.4704326"><ele>753.0</ele><time>2026-05-03T10:20:30Z</time></trkpt><trkpt lat="37.8184201" lon="14.4706014"><ele>753.0</ele><time>2026-05-03T10:20:31Z</time></trkpt><trkpt lat="37.8183585" lon="14.4707659"><ele>755.75</ele><time>2026-05-03T10:20:32Z</time></trkpt><trkpt lat="37.8182973" lon="14.4709293"><ele>758.5</ele><time>2026-05-03T10:20:33Z</time></trkpt><trkpt lat="37.8182303" lon="14.4710653"><ele>761.25</ele><time>2026-05-03T10:20:34Z</time></trkpt><trkpt lat="37.8181768" lon="14.4711762"><ele>764.0</ele><time>2026-05-03T10:20:35Z</time></trkpt><trkpt lat="37.8181504" lon="14.4712747"><ele>764.0</ele><time>2026-05-03T10:20:36Z</time></trkpt><trkpt lat="37.8181537" lon="14.4713656"><ele>764.0</ele><time>2026-05-03T10:20:37Z</time></trkpt><trkpt lat="37.8182763" lon="14.4714029"><ele>764.0</ele><time>2026-05-03T10:20:39Z</time></trkpt><trkpt lat="37.8183439" lon="14.4713941"><ele>764.0</ele><time>2026-05-03T10:20:40Z</time></trkpt><trkpt lat="37.8184461" lon="14.4712629"><ele>764.0</ele><time>2026-05-03T10:20:41Z</time></trkpt><trkpt lat="37.818556" lon="14.4711573"><ele>769.6666666666666</ele><time>2026-05-03T10:20:42Z</time></trkpt><trkpt lat="37.8186787" lon="14.4710284"><ele>775.3333333333333</ele><time>2026-05-03T10:20:43Z</time></trkpt><trkpt lat="37.8188172" lon="14.4708897"><ele>781.0</ele><time>2026-05-03T10:20:44Z</time></trkpt><trkpt lat="37.8189651" lon="14.4707755"><ele>781.0</ele><time>2026-05-03T10:20:45Z</time></trkpt><trkpt lat="37.8191002" lon="14.4706825"><ele>781.0</ele><time>2026-05-03T10:20:46Z</time></trkpt><trkpt lat="37.8192203" lon="14.4705953"><ele>781.0</ele><time>2026-05-03T10:20:47Z</time></trkpt><trkpt lat="37.8193388" lon="14.4705423"><ele>781.0</ele><time>2026-05-03T10:20:48Z</time></trkpt><trkpt lat="37.8194681" lon="14.4705419"><ele>783.3333333333333</ele><time>2026-05-03T10:20:49Z</time></trkpt><trkpt lat="37.8196116" lon="14.4705745"><ele>785.6666666666667</ele><time>2026-05-03T10:20:50Z</time></trkpt><trkpt lat="37.8197726" lon="14.4706167"><ele>788.0</ele><time>2026-05-03T10:20:51Z</time></trkpt><trkpt lat="37.819947" lon="14.4706396"><ele>788.0</ele><time>2026-05-03T10:20:52Z</time></trkpt><trkpt lat="37.82012" lon="14.4706495"><ele>788.0</ele><time>2026-05-03T10:20:53Z</time></trkpt><trkpt lat="37.8202938" lon="14.4706148"><ele>788.0</ele><time>2026-05-03T10:20:54Z</time></trkpt><trkpt lat="37.8204612" lon="14.4705487"><ele>787.5</ele><time>2026-05-03T10:20:55Z</time></trkpt><trkpt lat="37.8206044" lon="14.4704734"><ele>787.0</ele><time>2026-05-03T10:20:56Z</time></trkpt><trkpt lat="37.8207168" lon="14.4704105"><ele>786.5</ele><time>2026-05-03T10:20:57Z</time></trkpt><trkpt lat="37.8208127" lon="14.4703791"><ele>786.0</ele><time>2026-05-03T10:20:58Z</time></trkpt><trkpt lat="37.8208837" lon="14.4704044"><ele>789.0</ele><time>2026-05-03T10:20:59Z</time></trkpt><trkpt lat="37.8209198" lon="14.4704773"><ele>792.0</ele><time>2026-05-03T10:21:00Z</time></trkpt><trkpt lat="37.8209189" lon="14.4705753"><ele>795.0</ele><time>2026-05-03T10:21:01Z</time></trkpt><trkpt lat="37.8208721" lon="14.4706765"><ele>798.0</ele><time>2026-05-03T10:21:02Z</time></trkpt><trkpt lat="37.8207997" lon="14.4707848"><ele>801.0</ele><time>2026-05-03T10:21:03Z</time></trkpt><trkpt lat="37.8207125" lon="14.4708953"><ele>801.0</ele><time>2026-05-03T10:21:04Z</time></trkpt><trkpt lat="37.8206097" lon="14.4709634"><ele>801.0</ele><time>2026-05-03T10:21:05Z</time></trkpt><trkpt lat="37.8204758" lon="14.4710063"><ele>801.0</ele><time>2026-05-03T10:21:06Z</time></trkpt><trkpt lat="37.8203421" lon="14.4710398"><ele>801.0</ele><time>2026-05-03T10:21:07Z</time></trkpt><trkpt lat="37.8202355" lon="14.4710851"><ele>801.0</ele><time>2026-05-03T10:21:08Z</time></trkpt><trkpt lat="37.8201578" lon="14.4711618"><ele>801.0</ele><time>2026-05-03T10:21:09Z</time></trkpt><trkpt lat="37.820131" lon="14.4712536"><ele>801.0</ele><time>2026-05-03T10:21:10Z</time></trkpt><trkpt lat="37.8201513" lon="14.4713561"><ele>801.0</ele><time>2026-05-03T10:21:11Z</time></trkpt><trkpt lat="37.82022" lon="14.4714386"><ele>801.0</ele><time>2026-05-03T10:21:12Z</time></trkpt><trkpt lat="37.8203202" lon="14.4714935"><ele>802.3333333333333</ele><time>2026-05-03T10:21:12.999Z</time></trkpt><trkpt lat="37.8204473" lon="14.4715078"><ele>803.6666666666666</ele><time>2026-05-03T10:21:14Z</time></trkpt><trkpt lat="37.8205972" lon="14.4714751"><ele>805.0</ele><time>2026-05-03T10:21:15Z</time></trkpt><trkpt lat="37.8207616" lon="14.471409"><ele>805.0</ele><time>2026-05-03T10:21:16Z</time></trkpt><trkpt lat="37.8209305" lon="14.4713227"><ele>805.0</ele><time>2026-05-03T10:21:17Z</time></trkpt><trkpt lat="37.821094" lon="14.4712074"><ele>805.0</ele><time>2026-05-03T10:21:18Z</time></trkpt><trkpt lat="37.8212446" lon="14.471086"><ele>807.6666666666666</ele><time>2026-05-03T10:21:19Z</time></trkpt><trkpt lat="37.8214053" lon="14.4709782"><ele>810.3333333333333</ele><time>2026-05-03T10:21:19.999Z</time></trkpt><trkpt lat="37.8215803" lon="14.4709096"><ele>813.0</ele><time>2026-05-03T10:21:21Z</time></trkpt><trkpt lat="37.8217658" lon="14.4708505"><ele>817.3333333333333</ele><time>2026-05-03T10:21:22Z</time></trkpt><trkpt lat="37.8219486" lon="14.4707632"><ele>821.6666666666666</ele><time>2026-05-03T10:21:23Z</time></trkpt><trkpt lat="37.8221224" lon="14.4706555"><ele>826.0</ele><time>2026-05-03T10:21:24Z</time></trkpt><trkpt lat="37.8222846" lon="14.4705623"><ele>826.0</ele><time>2026-05-03T10:21:25Z</time></trkpt><trkpt lat="37.8224309" lon="14.4704867"><ele>826.0</ele><time>2026-05-03T10:21:26Z</time></trkpt><trkpt lat="37.8225526" lon="14.4704284"><ele>826.0</ele><time>2026-05-03T10:21:27Z</time></trkpt><trkpt lat="37.8226505" lon="14.4704093"><ele>826.0</ele><time>2026-05-03T10:21:28Z</time></trkpt><trkpt lat="37.8227203" lon="14.4704351"><ele>826.0</ele><time>2026-05-03T10:21:29Z</time></trkpt><trkpt lat="37.8227298" lon="14.4705585"><ele>826.0</ele><time>2026-05-03T10:21:31Z</time></trkpt><trkpt lat="37.8226771" lon="14.4706374"><ele>826.0</ele><time>2026-05-03T10:21:31.999Z</time></trkpt><trkpt lat="37.8226147" lon="14.4707292"><ele>826.0</ele><time>2026-05-03T10:21:33Z</time></trkpt><trkpt lat="37.8225786" lon="14.4708542"><ele>826.0</ele><time>2026-05-03T10:21:34Z</time></trkpt><trkpt lat="37.8225854" lon="14.4709987"><ele>826.0</ele><time>2026-05-03T10:21:35Z</time></trkpt><trkpt lat="37.8226368" lon="14.4711178"><ele>826.0</ele><time>2026-05-03T10:21:36Z</time></trkpt><trkpt lat="37.8227279" lon="14.4712051"><ele>826.0</ele><time>2026-05-03T10:21:36.999Z</time></trkpt><trkpt lat="37.8228595" lon="14.4712571"><ele>826.0</ele><time>2026-05-03T10:21:38Z</time></trkpt><trkpt lat="37.8230144" lon="14.4712872"><ele>828.0</ele><time>2026-05-03T10:21:39Z</time></trkpt><trkpt lat="37.8231851" lon="14.4713146"><ele>830.0</ele><time>2026-05-03T10:21:40Z</time></trkpt><trkpt lat="37.8233656" lon="14.4713314"><ele>832.0</ele><time>2026-05-03T10:21:41Z</time></trkpt><trkpt lat="37.8235522" lon="14.4713486"><ele>836.3333333333333</ele><time>2026-05-03T10:21:42Z</time></trkpt><trkpt lat="37.8237402" lon="14.4713827"><ele>840.6666666666667</ele><time>2026-05-03T10:21:43Z</time></trkpt><trkpt lat="37.8239053" lon="14.4714323"><ele>845.0</ele><time>2026-05-03T10:21:44Z</time></trkpt><trkpt lat="37.8240521" lon="14.4714898"><ele>845.0</ele><time>2026-05-03T10:21:45Z</time></trkpt><trkpt lat="37.8241799" lon="14.4715631"><ele>845.0</ele><time>2026-05-03T10:21:46Z</time></trkpt><trkpt lat="37.8242802" lon="14.471671"><ele>845.0</ele><time>2026-05-03T10:21:47Z</time></trkpt><trkpt lat="37.8243513" lon="14.4718144"><ele>845.0</ele><time>2026-05-03T10:21:48Z</time></trkpt><trkpt lat="37.8243895" lon="14.4719709"><ele>848.4</ele><time>2026-05-03T10:21:49Z</time></trkpt><trkpt lat="37.8244083" lon="14.4721015"><ele>851.8</ele><time>2026-05-03T10:21:50Z</time></trkpt><trkpt lat="37.8244466" lon="14.4721943"><ele>855.2</ele><time>2026-05-03T10:21:51Z</time></trkpt><trkpt lat="37.8245076" lon="14.4722365"><ele>858.6</ele><time>2026-05-03T10:21:52Z</time></trkpt><trkpt lat="37.8246042" lon="14.4721499"><ele>862.0</ele><time>2026-05-03T10:21:54Z</time></trkpt><trkpt lat="37.8246214" lon="14.4720514"><ele>862.4000000000001</ele><time>2026-05-03T10:21:55Z</time></trkpt><trkpt lat="37.8246299" lon="14.4719273"><ele>862.8000000000001</ele><time>2026-05-03T10:21:55.999Z</time></trkpt><trkpt lat="37.8246504" lon="14.4717936"><ele>863.2</ele><time>2026-05-03T10:21:57Z</time></trkpt><trkpt lat="37.8246615" lon="14.4716628"><ele>863.6</ele><time>2026-05-03T10:21:58Z</time></trkpt><trkpt lat="37.8246823" lon="14.4715298"><ele>864.0</ele><time>2026-05-03T10:21:59Z</time></trkpt><trkpt lat="37.8247308" lon="14.471404"><ele>864.0</ele><time>2026-05-03T10:22:00Z</time></trkpt><trkpt lat="37.8247934" lon="14.4713212"><ele>864.0000000000001</ele><time>2026-05-03T10:22:01Z</time></trkpt><trkpt lat="37.8248716" lon="14.4712552"><ele>864.0000000000001</ele><time>2026-05-03T10:22:02Z</time></trkpt><trkpt lat="37.8249628" lon="14.4712309"><ele>864.0</ele><time>2026-05-03T10:22:03Z</time></trkpt><trkpt lat="37.8250623" lon="14.4712461"><ele>864.0</ele><time>2026-05-03T10:22:04Z</time></trkpt><trkpt lat="37.8251767" lon="14.4712884"><ele>865.25</ele><time>2026-05-03T10:22:05Z</time></trkpt><trkpt lat="37.8252944" lon="14.4713281"><ele>866.5</ele><time>2026-05-03T10:22:06Z</time></trkpt><trkpt lat="37.8254215" lon="14.4713114"><ele>867.75</ele><time>2026-05-03T10:22:07Z</time></trkpt><trkpt lat="37.8255517" lon="14.4712548"><ele>869.0</ele><time>2026-05-03T10:22:08Z</time></trkpt><trkpt lat="37.8256763" lon="14.4711729"><ele>869.0</ele><time>2026-05-03T10:22:09Z</time></trkpt><trkpt lat="37.8257952" lon="14.471074"><ele>869.0</ele><time>2026-05-03T10:22:10Z</time></trkpt><trkpt lat="37.8258885" lon="14.4709457"><ele>869.0</ele><time>2026-05-03T10:22:11Z</time></trkpt><trkpt lat="37.8259694" lon="14.4707892"><ele>869.0</ele><time>2026-05-03T10:22:12Z</time></trkpt><trkpt lat="37.8260445" lon="14.4706216"><ele>874.0</ele><time>2026-05-03T10:22:13Z</time></trkpt><trkpt lat="37.8261223" lon="14.4704485"><ele>879.0</ele><time>2026-05-03T10:22:14Z</time></trkpt><trkpt lat="37.8262186" lon="14.4702836"><ele>884.0</ele><time>2026-05-03T10:22:15Z</time></trkpt><trkpt lat="37.8263141" lon="14.4701204"><ele>884.0</ele><time>2026-05-03T10:22:16Z</time></trkpt><trkpt lat="37.8264162" lon="14.4699632"><ele>884.0</ele><time>2026-05-03T10:22:17Z</time></trkpt><trkpt lat="37.8265274" lon="14.4698149"><ele>884.0</ele><time>2026-05-03T10:22:18Z</time></trkpt><trkpt lat="37.8266776" lon="14.4696797"><ele>885.6666666666667</ele><time>2026-05-03T10:22:19Z</time></trkpt><trkpt lat="37.8268535" lon="14.4695512"><ele>887.3333333333333</ele><time>2026-05-03T10:22:20Z</time></trkpt><trkpt lat="37.8270013" lon="14.4694333"><ele>889.0</ele><time>2026-05-03T10:22:21Z</time></trkpt><trkpt lat="37.8271345" lon="14.4693182"><ele>889.0</ele><time>2026-05-03T10:22:22Z</time></trkpt><trkpt lat="37.8272655" lon="14.4692426"><ele>889.0</ele><time>2026-05-03T10:22:22.999Z</time></trkpt><trkpt lat="37.8273915" lon="14.4692066"><ele>889.0</ele><time>2026-05-03T10:22:24Z</time></trkpt><trkpt lat="37.8275212" lon="14.4692118"><ele>889.0</ele><time>2026-05-03T10:22:25Z</time></trkpt><trkpt lat="37.8276601" lon="14.4692449"><ele>887.75</ele><time>2026-05-03T10:22:26Z</time></trkpt><trkpt lat="37.8277987" lon="14.4692955"><ele>886.5</ele><time>2026-05-03T10:22:27Z</time></trkpt><trkpt lat="37.8279375" lon="14.4693689"><ele>885.25</ele><time>2026-05-03T10:22:28Z</time></trkpt><trkpt lat="37.8280691" lon="14.4694481"><ele>884.0</ele><time>2026-05-03T10:22:29Z</time></trkpt><trkpt lat="37.8281956" lon="14.4695434"><ele>886.6666666666667</ele><time>2026-05-03T10:22:30Z</time></trkpt><trkpt lat="37.8283119" lon="14.4696667"><ele>889.3333333333333</ele><time>2026-05-03T10:22:31Z</time></trkpt><trkpt lat="37.8284267" lon="14.4698158"><ele>892.0</ele><time>2026-05-03T10:22:32Z</time></trkpt><trkpt lat="37.8285267" lon="14.4699781"><ele>892.0</ele><time>2026-05-03T10:22:33Z</time></trkpt><trkpt lat="37.8286126" lon="14.4701408"><ele>892.0</ele><time>2026-05-03T10:22:34Z</time></trkpt><trkpt lat="37.8286918" lon="14.4702974"><ele>892.0</ele><time>2026-05-03T10:22:35Z</time></trkpt><trkpt lat="37.8287889" lon="14.4704198"><ele>892.0</ele><time>2026-05-03T10:22:36Z</time></trkpt><trkpt lat="37.8289176" lon="14.4705119"><ele>896.3333333333333</ele><time>2026-05-03T10:22:37Z</time></trkpt><trkpt lat="37.8290691" lon="14.4705806"><ele>900.6666666666667</ele><time>2026-05-03T10:22:38Z</time></trkpt><trkpt lat="37.8292274" lon="14.4706447"><ele>905.0</ele><time>2026-05-03T10:22:39Z</time></trkpt><trkpt lat="37.8293919" lon="14.4707107"><ele>905.0</ele><time>2026-05-03T10:22:40Z</time></trkpt><trkpt lat="37.8295607" lon="14.4707847"><ele>905.0</ele><time>2026-05-03T10:22:41Z</time></trkpt><trkpt lat="37.8297106" lon="14.4708352"><ele>905.0</ele><time>2026-05-03T10:22:42Z</time></trkpt><trkpt lat="37.8298432" lon="14.4708727"><ele>905.0</ele><time>2026-05-03T10:22:43Z</time></trkpt><trkpt lat="37.8299671" lon="14.4709119"><ele>905.0</ele><time>2026-05-03T10:22:44Z</time></trkpt><trkpt lat="37.830071" lon="14.4709442"><ele>905.0</ele><time>2026-05-03T10:22:45Z</time></trkpt><trkpt lat="37.8301641" lon="14.4709826"><ele>905.0</ele><time>2026-05-03T10:22:46Z</time></trkpt><trkpt lat="37.8302446" lon="14.47104"><ele>905.0</ele><time>2026-05-03T10:22:47Z</time></trkpt><trkpt lat="37.830314" lon="14.4711372"><ele>904.0</ele><time>2026-05-03T10:22:48Z</time></trkpt><trkpt lat="37.8303639" lon="14.471264"><ele>903.0</ele><time>2026-05-03T10:22:49Z</time></trkpt><trkpt lat="37.8304027" lon="14.4714171"><ele>902.0</ele><time>2026-05-03T10:22:50Z</time></trkpt><trkpt lat="37.830437" lon="14.4715725"><ele>901.0</ele><time>2026-05-03T10:22:51Z</time></trkpt><trkpt lat="37.8304864" lon="14.4717099"><ele>903.1999999999999</ele><time>2026-05-03T10:22:52Z</time></trkpt><trkpt lat="37.8305525" lon="14.4718115"><ele>905.3999999999999</ele><time>2026-05-03T10:22:53Z</time></trkpt><trkpt lat="37.830627" lon="14.4718828"><ele>907.6</ele><time>2026-05-03T10:22:54Z</time></trkpt><trkpt lat="37.8307258" lon="14.4719109"><ele>909.8</ele><time>2026-05-03T10:22:55Z</time></trkpt><trkpt lat="37.8308458" lon="14.4719186"><ele>912.0</ele><time>2026-05-03T10:22:56Z</time></trkpt><trkpt lat="37.8309804" lon="14.4719221"><ele>912.5</ele><time>2026-05-03T10:22:57Z</time></trkpt><trkpt lat="37.8311174" lon="14.4719286"><ele>913.0</ele><time>2026-05-03T10:22:58Z</time></trkpt><trkpt lat="37.8312526" lon="14.4719493"><ele>913.5</ele><time>2026-05-03T10:22:59Z</time></trkpt><trkpt lat="37.8313836" lon="14.4720265"><ele>914.0</ele><time>2026-05-03T10:23:00Z</time></trkpt><trkpt lat="37.8315239" lon="14.4720679"><ele>914.0</ele><time>2026-05-03T10:23:01Z</time></trkpt><trkpt lat="37.8316815" lon="14.4720844"><ele>914.0</ele><time>2026-05-03T10:23:02Z</time></trkpt><trkpt lat="37.8318448" lon="14.4720908"><ele>914.0</ele><time>2026-05-03T10:23:03Z</time></trkpt><trkpt lat="37.832002" lon="14.4721021"><ele>918.0</ele><time>2026-05-03T10:23:04Z</time></trkpt><trkpt lat="37.8321401" lon="14.4721332"><ele>922.0</ele><time>2026-05-03T10:23:05Z</time></trkpt><trkpt lat="37.8322777" lon="14.4721994"><ele>926.0</ele><time>2026-05-03T10:23:06Z</time></trkpt><trkpt lat="37.8324111" lon="14.4722778"><ele>930.0</ele><time>2026-05-03T10:23:07Z</time></trkpt><trkpt lat="37.8325428" lon="14.4723575"><ele>927.6666666666667</ele><time>2026-05-03T10:23:08Z</time></trkpt><trkpt lat="37.832684" lon="14.4724328"><ele>925.3333333333334</ele><time>2026-05-03T10:23:09Z</time></trkpt><trkpt lat="37.8328323" lon="14.4725068"><ele>923.0</ele><time>2026-05-03T10:23:10Z</time></trkpt><trkpt lat="37.8329839" lon="14.472589"><ele>923.0</ele><time>2026-05-03T10:23:11Z</time></trkpt><trkpt lat="37.8331457" lon="14.4726832"><ele>923.0</ele><time>2026-05-03T10:23:12Z</time></trkpt><trkpt lat="37.8333035" lon="14.4727846"><ele>923.0</ele><time>2026-05-03T10:23:12.999Z</time></trkpt><trkpt lat="37.8334613" lon="14.4728881"><ele>928.3333333333334</ele><time>2026-05-03T10:23:14Z</time></trkpt><trkpt lat="37.8336273" lon="14.4729954"><ele>933.6666666666667</ele><time>2026-05-03T10:23:15Z</time></trkpt><trkpt lat="37.8337851" lon="14.4730925"><ele>939.0</ele><time>2026-05-03T10:23:16Z</time></trkpt><trkpt lat="37.833949" lon="14.4731919"><ele>939.0</ele><time>2026-05-03T10:23:17Z</time></trkpt><trkpt lat="37.8341116" lon="14.4732948"><ele>939.0</ele><time>2026-05-03T10:23:18Z</time></trkpt><trkpt lat="37.8342769" lon="14.4733943"><ele>939.0</ele><time>2026-05-03T10:23:19Z</time></trkpt><trkpt lat="37.8344386" lon="14.473502"><ele>940.3333333333333</ele><time>2026-05-03T10:23:20Z</time></trkpt><trkpt lat="37.834604" lon="14.4736076"><ele>941.6666666666666</ele><time>2026-05-03T10:23:21Z</time></trkpt><trkpt lat="37.8347645" lon="14.473714"><ele>943.0</ele><time>2026-05-03T10:23:22Z</time></trkpt><trkpt lat="37.8349268" lon="14.4738157"><ele>942.3333333333333</ele><time>2026-05-03T10:23:23Z</time></trkpt><trkpt lat="37.8350844" lon="14.4739151"><ele>941.6666666666667</ele><time>2026-05-03T10:23:24Z</time></trkpt><trkpt lat="37.8352409" lon="14.4740212"><ele>941.0</ele><time>2026-05-03T10:23:25Z</time></trkpt><trkpt lat="37.8354019" lon="14.4741231"><ele>941.0</ele><time>2026-05-03T10:23:26Z</time></trkpt><trkpt lat="37.8355462" lon="14.4742193"><ele>941.0</ele><time>2026-05-03T10:23:27Z</time></trkpt><trkpt lat="37.8356769" lon="14.4743108"><ele>941.0</ele><time>2026-05-03T10:23:28Z</time></trkpt><trkpt lat="37.8357998" lon="14.4744374"><ele>941.0</ele><time>2026-05-03T10:23:29Z</time></trkpt><trkpt lat="37.835922" lon="14.4746022"><ele>941.0</ele><time>2026-05-03T10:23:30Z</time></trkpt><trkpt lat="37.8360384" lon="14.4747643"><ele>941.0</ele><time>2026-05-03T10:23:31Z</time></trkpt><trkpt lat="37.8361611" lon="14.4749085"><ele>942.3333333333334</ele><time>2026-05-03T10:23:32Z</time></trkpt><trkpt lat="37.8362973" lon="14.4750397"><ele>943.6666666666667</ele><time>2026-05-03T10:23:33Z</time></trkpt><trkpt lat="37.8364637" lon="14.475167"><ele>945.0</ele><time>2026-05-03T10:23:34Z</time></trkpt><trkpt lat="37.8366377" lon="14.475288"><ele>945.0</ele><time>2026-05-03T10:23:35Z</time></trkpt><trkpt lat="37.8367979" lon="14.4753982"><ele>945.0</ele><time>2026-05-03T10:23:36Z</time></trkpt><trkpt lat="37.8369444" lon="14.4755104"><ele>945.0</ele><time>2026-05-03T10:23:37Z</time></trkpt><trkpt lat="37.8370732" lon="14.4756309"><ele>949.0</ele><time>2026-05-03T10:23:38Z</time></trkpt><trkpt lat="37.8371952" lon="14.4757444"><ele>953.0</ele><time>2026-05-03T10:23:39Z</time></trkpt><trkpt lat="37.837311" lon="14.4758241"><ele>957.0</ele><time>2026-05-03T10:23:40Z</time></trkpt><trkpt lat="37.8374267" lon="14.4758562"><ele>961.0</ele><time>2026-05-03T10:23:41Z</time></trkpt><trkpt lat="37.8375516" lon="14.4758469"><ele>959.25</ele><time>2026-05-03T10:23:42Z</time></trkpt><trkpt lat="37.83768" lon="14.475839"><ele>957.5</ele><time>2026-05-03T10:23:43Z</time></trkpt><trkpt lat="37.837798" lon="14.4758852"><ele>955.75</ele><time>2026-05-03T10:23:44Z</time></trkpt><trkpt lat="37.837907" lon="14.4759716"><ele>954.0</ele><time>2026-05-03T10:23:45Z</time></trkpt><trkpt lat="37.8380073" lon="14.4761107"><ele>954.0</ele><time>2026-05-03T10:23:46Z</time></trkpt><trkpt lat="37.8380965" lon="14.4762476"><ele>954.0</ele><time>2026-05-03T10:23:47Z</time></trkpt><trkpt lat="37.8381939" lon="14.4763704"><ele>954.0</ele><time>2026-05-03T10:23:48Z</time></trkpt><trkpt lat="37.838302" lon="14.4764757"><ele>954.0</ele><time>2026-05-03T10:23:49Z</time></trkpt><trkpt lat="37.8383939" lon="14.4765756"><ele>953.25</ele><time>2026-05-03T10:23:50Z</time></trkpt><trkpt lat="37.8384584" lon="14.4767041"><ele>952.5</ele><time>2026-05-03T10:23:51Z</time></trkpt><trkpt lat="37.8385245" lon="14.4768753"><ele>951.75</ele><time>2026-05-03T10:23:52Z</time></trkpt><trkpt lat="37.8386145" lon="14.4770503"><ele>951.0</ele><time>2026-05-03T10:23:53Z</time></trkpt><trkpt lat="37.8387179" lon="14.477199"><ele>957.0</ele><time>2026-05-03T10:23:54Z</time></trkpt><trkpt lat="37.8388367" lon="14.4773396"><ele>963.0</ele><time>2026-05-03T10:23:55Z</time></trkpt><trkpt lat="37.8389605" lon="14.4774609"><ele>969.0</ele><time>2026-05-03T10:23:56Z</time></trkpt><trkpt lat="37.8390787" lon="14.4775577"><ele>969.0</ele><time>2026-05-03T10:23:57Z</time></trkpt><trkpt lat="37.8391911" lon="14.4776396"><ele>969.0</ele><time>2026-05-03T10:23:58Z</time></trkpt><trkpt lat="37.8392876" lon="14.4777254"><ele>969.0</ele><time>2026-05-03T10:23:59Z</time></trkpt><trkpt lat="37.8393658" lon="14.4778289"><ele>969.0</ele><time>2026-05-03T10:24:00Z</time></trkpt><trkpt lat="37.8394265" lon="14.4779523"><ele>968.0</ele><time>2026-05-03T10:24:01Z</time></trkpt><trkpt lat="37.8394738" lon="14.4780871"><ele>967.0</ele><time>2026-05-03T10:24:02Z</time></trkpt><trkpt lat="37.8395136" lon="14.4782362"><ele>966.0</ele><time>2026-05-03T10:24:03Z</time></trkpt><trkpt lat="37.8395657" lon="14.4783942"><ele>965.0</ele><time>2026-05-03T10:24:04Z</time></trkpt><trkpt lat="37.8396301" lon="14.4785391"><ele>965.0</ele><time>2026-05-03T10:24:05Z</time></trkpt><trkpt lat="37.839712" lon="14.4786712"><ele>965.0</ele><time>2026-05-03T10:24:06Z</time></trkpt><trkpt lat="37.8398043" lon="14.4787972"><ele>965.0</ele><time>2026-05-03T10:24:07Z</time></trkpt><trkpt lat="37.839892" lon="14.4789231"><ele>965.0</ele><time>2026-05-03T10:24:08Z</time></trkpt><trkpt lat="37.8399749" lon="14.4790548"><ele>966.6</ele><time>2026-05-03T10:24:09Z</time></trkpt><trkpt lat="37.840057" lon="14.4791682"><ele>968.2</ele><time>2026-05-03T10:24:10Z</time></trkpt><trkpt lat="37.840131" lon="14.4792651"><ele>969.8</ele><time>2026-05-03T10:24:11Z</time></trkpt><trkpt lat="37.8402101" lon="14.4793476"><ele>971.4</ele><time>2026-05-03T10:24:12Z</time></trkpt><trkpt lat="37.8403003" lon="14.4793966"><ele>973.0</ele><time>2026-05-03T10:24:13Z</time></trkpt><trkpt lat="37.8403933" lon="14.4794019"><ele>973.8</ele><time>2026-05-03T10:24:14Z</time></trkpt><trkpt lat="37.8404945" lon="14.4793792"><ele>974.5999999999999</ele><time>2026-05-03T10:24:14.999Z</time></trkpt><trkpt lat="37.8405995" lon="14.479348"><ele>975.4000000000001</ele><time>2026-05-03T10:24:16Z</time></trkpt><trkpt lat="37.8407023" lon="14.4793149"><ele>976.2</ele><time>2026-05-03T10:24:17Z</time></trkpt><trkpt lat="37.8408076" lon="14.4792911"><ele>977.0</ele><time>2026-05-03T10:24:17.999Z</time></trkpt><trkpt lat="37.8409099" lon="14.4792612"><ele>977.6</ele><time>2026-05-03T10:24:19Z</time></trkpt><trkpt lat="37.8410107" lon="14.4792267"><ele>978.2</ele><time>2026-05-03T10:24:20Z</time></trkpt><trkpt lat="37.8411008" lon="14.4791842"><ele>978.8</ele><time>2026-05-03T10:24:21Z</time></trkpt><trkpt lat="37.8411953" lon="14.4791385"><ele>979.4</ele><time>2026-05-03T10:24:22Z</time></trkpt><trkpt lat="37.8412917" lon="14.4791118"><ele>980.0</ele><time>2026-05-03T10:24:23Z</time></trkpt><trkpt lat="37.8413855" lon="14.4791036"><ele>980.0</ele><time>2026-05-03T10:24:24Z</time></trkpt><trkpt lat="37.8414793" lon="14.4791214"><ele>980.0</ele><time>2026-05-03T10:24:25Z</time></trkpt><trkpt lat="37.8415673" lon="14.4791387"><ele>980.0</ele><time>2026-05-03T10:24:26Z</time></trkpt><trkpt lat="37.8416607" lon="14.4791535"><ele>980.0</ele><time>2026-05-03T10:24:27Z</time></trkpt><trkpt lat="37.8417524" lon="14.4791643"><ele>980.0</ele><time>2026-05-03T10:24:28Z</time></trkpt><trkpt lat="37.8418449" lon="14.4791729"><ele>982.0</ele><time>2026-05-03T10:24:29Z</time></trkpt><trkpt lat="37.8419465" lon="14.4791956"><ele>984.0</ele><time>2026-05-03T10:24:30Z</time></trkpt><trkpt lat="37.842041" lon="14.4792071"><ele>986.0</ele><time>2026-05-03T10:24:31Z</time></trkpt><trkpt lat="37.8421366" lon="14.4792059"><ele>988.0</ele><time>2026-05-03T10:24:32Z</time></trkpt><trkpt lat="37.842224" lon="14.4792141"><ele>990.0</ele><time>2026-05-03T10:24:32.999Z</time></trkpt><trkpt lat="37.8423081" lon="14.4792185"><ele>990.0</ele><time>2026-05-03T10:24:34Z</time></trkpt><trkpt lat="37.8423866" lon="14.4792274"><ele>990.0</ele><time>2026-05-03T10:24:35Z</time></trkpt><trkpt lat="37.842465" lon="14.4792296"><ele>990.0</ele><time>2026-05-03T10:24:36Z</time></trkpt><trkpt lat="37.8425781" lon="14.4792386"><ele>990.0</ele><time>2026-05-03T10:24:38Z</time></trkpt><trkpt lat="37.8426372" lon="14.4792879"><ele>990.0</ele><time>2026-05-03T10:24:39.999Z</time></trkpt><trkpt lat="37.8426327" lon="14.4793714"><ele>990.0</ele><time>2026-05-03T10:24:43Z</time></trkpt><trkpt lat="37.8426055" lon="14.4794608"><ele>990.0</ele><time>2026-05-03T10:25:25Z</time></trkpt><trkpt lat="37.8425595" lon="14.479579"><ele>990.0</ele><time>2026-05-03T10:25:27Z</time></trkpt><trkpt lat="37.8424892" lon="14.4797034"><ele>990.0</ele><time>2026-05-03T10:25:29Z</time></trkpt><trkpt lat="37.8424324" lon="14.479754"><ele>990.0</ele><time>2026-05-03T10:25:30Z</time></trkpt><trkpt lat="37.8423586" lon="14.4797926"><ele>990.0</ele><time>2026-05-03T10:25:31Z</time></trkpt><trkpt lat="37.8422785" lon="14.4797956"><ele>991.6</ele><time>2026-05-03T10:25:32Z</time></trkpt><trkpt lat="37.8421921" lon="14.4797849"><ele>993.2</ele><time>2026-05-03T10:25:33Z</time></trkpt><trkpt lat="37.8421105" lon="14.4797826"><ele>994.8</ele><time>2026-05-03T10:25:34Z</time></trkpt><trkpt lat="37.8420393" lon="14.4797967"><ele>996.4</ele><time>2026-05-03T10:25:35Z</time></trkpt><trkpt lat="37.8419818" lon="14.4799175"><ele>998.0</ele><time>2026-05-03T10:25:37Z</time></trkpt><trkpt lat="37.8420655" lon="14.4800035"><ele>998.0</ele><time>2026-05-03T10:25:39Z</time></trkpt><trkpt lat="37.8421484" lon="14.4800055"><ele>998.0</ele><time>2026-05-03T10:25:40Z</time></trkpt><trkpt lat="37.8422473" lon="14.4800025"><ele>998.0</ele><time>2026-05-03T10:25:41Z</time></trkpt><trkpt lat="37.8423444" lon="14.4799933"><ele>998.0</ele><time>2026-05-03T10:25:42Z</time></trkpt><trkpt lat="37.8424412" lon="14.4799733"><ele>998.0</ele><time>2026-05-03T10:25:43Z</time></trkpt><trkpt lat="37.8425338" lon="14.4799545"><ele>998.0000000000001</ele><time>2026-05-03T10:25:44Z</time></trkpt><trkpt lat="37.8426082" lon="14.4799453"><ele>998.0</ele><time>2026-05-03T10:25:45Z</time></trkpt><trkpt lat="37.8426674" lon="14.4800179"><ele>998.0</ele><time>2026-05-03T10:25:47Z</time></trkpt><trkpt lat="37.8425975" lon="14.4800718"><ele>998.0</ele><time>2026-05-03T10:25:49Z</time></trkpt><trkpt lat="37.842527" lon="14.4800816"><ele>998.0000000000001</ele><time>2026-05-03T10:25:50Z</time></trkpt><trkpt lat="37.8424488" lon="14.4800936"><ele>998.0</ele><time>2026-05-03T10:25:51Z</time></trkpt><trkpt lat="37.8423659" lon="14.4801057"><ele>998.0000000000001</ele><time>2026-05-03T10:25:52Z</time></trkpt><trkpt lat="37.8422802" lon="14.4801294"><ele>998.0</ele><time>2026-05-03T10:25:53Z</time></trkpt><trkpt lat="37.8422104" lon="14.48016"><ele>998.0000000000001</ele><time>2026-05-03T10:25:54Z</time></trkpt><trkpt lat="37.842166" lon="14.4802211"><ele>998.0000000000001</ele><time>2026-05-03T10:25:55Z</time></trkpt><trkpt lat="37.8421666" lon="14.4803015"><ele>998.0</ele><time>2026-05-03T10:25:56Z</time></trkpt><trkpt lat="37.84221" lon="14.4803743"><ele>998.0000000000001</ele><time>2026-05-03T10:25:57Z</time></trkpt><trkpt lat="37.8422757" lon="14.4804029"><ele>998.0000000000001</ele><time>2026-05-03T10:25:58Z</time></trkpt><trkpt lat="37.8423631" lon="14.4804073"><ele>998.0</ele><time>2026-05-03T10:25:59Z</time></trkpt><trkpt lat="37.8424677" lon="14.4803863"><ele>998.0</ele><time>2026-05-03T10:25:59.999Z</time></trkpt><trkpt lat="37.8425739" lon="14.480342"><ele>998.0</ele><time>2026-05-03T10:26:01Z</time></trkpt><trkpt lat="37.8426929" lon="14.480284"><ele>998.0</ele><time>2026-05-03T10:26:02Z</time></trkpt><trkpt lat="37.8428072" lon="14.4802224"><ele>999.5</ele><time>2026-05-03T10:26:03Z</time></trkpt><trkpt lat="37.8429255" lon="14.4801589"><ele>1001.0</ele><time>2026-05-03T10:26:04Z</time></trkpt><trkpt lat="37.8430496" lon="14.4800867"><ele>1002.5</ele><time>2026-05-03T10:26:05Z</time></trkpt><trkpt lat="37.8431703" lon="14.4800324"><ele>1004.0</ele><time>2026-05-03T10:26:06Z</time></trkpt><trkpt lat="37.8432984" lon="14.4799889"><ele>1004.0</ele><time>2026-05-03T10:26:07Z</time></trkpt><trkpt lat="37.8434219" lon="14.4799494"><ele>1004.0</ele><time>2026-05-03T10:26:08Z</time></trkpt><trkpt lat="37.8435447" lon="14.4799266"><ele>1004.0</ele><time>2026-05-03T10:26:08.999Z</time></trkpt><trkpt lat="37.8436707" lon="14.4799119"><ele>1004.0</ele><time>2026-05-03T10:26:10Z</time></trkpt><trkpt lat="37.8438002" lon="14.4798951"><ele>1006.0</ele><time>2026-05-03T10:26:11Z</time></trkpt><trkpt lat="37.8439238" lon="14.4798738"><ele>1008.0000000000001</ele><time>2026-05-03T10:26:12Z</time></trkpt><trkpt lat="37.8440213" lon="14.4798376"><ele>1010.0000000000001</ele><time>2026-05-03T10:26:13Z</time></trkpt><trkpt lat="37.8440974" lon="14.4797836"><ele>1012.0</ele><time>2026-05-03T10:26:14Z</time></trkpt><trkpt lat="37.8441439" lon="14.4797012"><ele>1014.0</ele><time>2026-05-03T10:26:15Z</time></trkpt><trkpt lat="37.8441585" lon="14.4796051"><ele>1014.2</ele><time>2026-05-03T10:26:16Z</time></trkpt><trkpt lat="37.8441558" lon="14.4795036"><ele>1014.4000000000001</ele><time>2026-05-03T10:26:17Z</time></trkpt><trkpt lat="37.8441528" lon="14.4793747"><ele>1014.6</ele><time>2026-05-03T10:26:18Z</time></trkpt><trkpt lat="37.8441657" lon="14.4792435"><ele>1014.8</ele><time>2026-05-03T10:26:19Z</time></trkpt><trkpt lat="37.8441942" lon="14.4791141"><ele>1015.0</ele><time>2026-05-03T10:26:20Z</time></trkpt><trkpt lat="37.8442387" lon="14.4790061"><ele>1015.0</ele><time>2026-05-03T10:26:21Z</time></trkpt><trkpt lat="37.8442931" lon="14.4789224"><ele>1015.0</ele><time>2026-05-03T10:26:22Z</time></trkpt><trkpt lat="37.8443651" lon="14.4788699"><ele>1015.0</ele><time>2026-05-03T10:26:23Z</time></trkpt><trkpt lat="37.8444509" lon="14.4788466"><ele>1015.0</ele><time>2026-05-03T10:26:24Z</time></trkpt><trkpt lat="37.8445547" lon="14.4788671"><ele>1015.0</ele><time>2026-05-03T10:26:25Z</time></trkpt><trkpt lat="37.8446653" lon="14.4788998"><ele>1018.75</ele><time>2026-05-03T10:26:26Z</time></trkpt><trkpt lat="37.8447889" lon="14.4789435"><ele>1022.5</ele><time>2026-05-03T10:26:27Z</time></trkpt><trkpt lat="37.8449278" lon="14.4789838"><ele>1026.25</ele><time>2026-05-03T10:26:28Z</time></trkpt><trkpt lat="37.8450846" lon="14.4790283"><ele>1030.0</ele><time>2026-05-03T10:26:29Z</time></trkpt><trkpt lat="37.8452521" lon="14.4790699"><ele>1034.0</ele><time>2026-05-03T10:26:30Z</time></trkpt><trkpt lat="37.8454152" lon="14.4791061"><ele>1038.0</ele><time>2026-05-03T10:26:31Z</time></trkpt><trkpt lat="37.8455701" lon="14.4791386"><ele>1042.0</ele><time>2026-05-03T10:26:32Z</time></trkpt><trkpt lat="37.8457229" lon="14.4791523"><ele>1042.0</ele><time>2026-05-03T10:26:33Z</time></trkpt><trkpt lat="37.8458757" lon="14.4791537"><ele>1042.0</ele><time>2026-05-03T10:26:34Z</time></trkpt><trkpt lat="37.8460206" lon="14.4791455"><ele>1042.0</ele><time>2026-05-03T10:26:35Z</time></trkpt><trkpt lat="37.84615" lon="14.4791324"><ele>1042.0</ele><time>2026-05-03T10:26:36Z</time></trkpt><trkpt lat="37.8462553" lon="14.479105"><ele>1041.0</ele><time>2026-05-03T10:26:37Z</time></trkpt><trkpt lat="37.8463604" lon="14.4790264"><ele>1040.0</ele><time>2026-05-03T10:26:38Z</time></trkpt><trkpt lat="37.8464505" lon="14.478903"><ele>1039.0</ele><time>2026-05-03T10:26:39Z</time></trkpt><trkpt lat="37.8465266" lon="14.4787583"><ele>1038.0</ele><time>2026-05-03T10:26:40Z</time></trkpt><trkpt lat="37.8465958" lon="14.4785936"><ele>1038.0</ele><time>2026-05-03T10:26:41Z</time></trkpt><trkpt lat="37.8466754" lon="14.4784453"><ele>1038.0</ele><time>2026-05-03T10:26:42Z</time></trkpt><trkpt lat="37.8467709" lon="14.4783119"><ele>1038.0</ele><time>2026-05-03T10:26:43Z</time></trkpt><trkpt lat="37.8468848" lon="14.4781738"><ele>1038.0</ele><time>2026-05-03T10:26:44Z</time></trkpt><trkpt lat="37.8469946" lon="14.4780531"><ele>1043.4</ele><time>2026-05-03T10:26:45Z</time></trkpt><trkpt lat="37.8470814" lon="14.4779576"><ele>1048.8</ele><time>2026-05-03T10:26:46Z</time></trkpt><trkpt lat="37.847155" lon="14.4778623"><ele>1054.2</ele><time>2026-05-03T10:26:47Z</time></trkpt><trkpt lat="37.847224" lon="14.4777542"><ele>1059.6</ele><time>2026-05-03T10:26:48Z</time></trkpt><trkpt lat="37.8472839" lon="14.4776491"><ele>1065.0</ele><time>2026-05-03T10:26:49Z</time></trkpt><trkpt lat="37.8473379" lon="14.4775527"><ele>1065.0</ele><time>2026-05-03T10:26:50Z</time></trkpt><trkpt lat="37.8473678" lon="14.477458"><ele>1065.0</ele><time>2026-05-03T10:26:51Z</time></trkpt><trkpt lat="37.847372" lon="14.4773492"><ele>1065.0</ele><time>2026-05-03T10:26:52Z</time></trkpt><trkpt lat="37.8473608" lon="14.477245"><ele>1065.0</ele><time>2026-05-03T10:26:53Z</time></trkpt><trkpt lat="37.8473398" lon="14.4771505"><ele>1065.0</ele><time>2026-05-03T10:26:54Z</time></trkpt><trkpt lat="37.8473185" lon="14.4770468"><ele>1065.0</ele><time>2026-05-03T10:26:55Z</time></trkpt><trkpt lat="37.8473067" lon="14.4769307"><ele>1063.6666666666667</ele><time>2026-05-03T10:26:56Z</time></trkpt><trkpt lat="37.8472926" lon="14.4768078"><ele>1062.3333333333333</ele><time>2026-05-03T10:26:57Z</time></trkpt><trkpt lat="37.8472765" lon="14.4766967"><ele>1061.0</ele><time>2026-05-03T10:26:58Z</time></trkpt><trkpt lat="37.8472722" lon="14.4765795"><ele>1059.6666666666665</ele><time>2026-05-03T10:26:58.999Z</time></trkpt><trkpt lat="37.8472557" lon="14.4764819"><ele>1058.3333333333333</ele><time>2026-05-03T10:27:00Z</time></trkpt><trkpt lat="37.8473148" lon="14.4764369"><ele>1057.0</ele><time>2026-05-03T10:27:02Z</time></trkpt><trkpt lat="37.847378" lon="14.4764601"><ele>1057.0</ele><time>2026-05-03T10:27:04Z</time></trkpt><trkpt lat="37.8474448" lon="14.4764782"><ele>1057.0</ele><time>2026-05-03T10:27:11Z</time></trkpt><trkpt lat="37.8475504" lon="14.476518"><ele>1057.0</ele><time>2026-05-03T10:27:13Z</time></trkpt><trkpt lat="37.8476264" lon="14.4765752"><ele>1057.0</ele><time>2026-05-03T10:27:15Z</time></trkpt><trkpt lat="37.8476682" lon="14.4766419"><ele>1057.0</ele><time>2026-05-03T10:27:16Z</time></trkpt><trkpt lat="37.8477272" lon="14.4767134"><ele>1057.0</ele><time>2026-05-03T10:27:17Z</time></trkpt><trkpt lat="37.8477898" lon="14.476774"><ele>1059.8333333333333</ele><time>2026-05-03T10:27:18Z</time></trkpt><trkpt lat="37.8478359" lon="14.4768485"><ele>1062.6666666666665</ele><time>2026-05-03T10:27:19Z</time></trkpt><trkpt lat="37.8479104" lon="14.4769282"><ele>1065.5</ele><time>2026-05-03T10:27:20Z</time></trkpt><trkpt lat="37.8479563" lon="14.4770076"><ele>1068.3333333333333</ele><time>2026-05-03T10:27:21Z</time></trkpt><trkpt lat="37.8480056" lon="14.4770833"><ele>1071.1666666666667</ele><time>2026-05-03T10:27:22Z</time></trkpt><trkpt lat="37.8480505" lon="14.4771498"><ele>1074.0</ele><time>2026-05-03T10:27:23Z</time></trkpt><trkpt lat="37.8481462" lon="14.4772554"><ele>1077.0</ele><time>2026-05-03T10:27:25Z</time></trkpt><trkpt lat="37.8482405" lon="14.4773925"><ele>1080.0</ele><time>2026-05-03T10:27:27Z</time></trkpt><trkpt lat="37.8482993" lon="14.47743"><ele>1083.0</ele><time>2026-05-03T10:27:28Z</time></trkpt><trkpt lat="37.8484119" lon="14.4774503"><ele>1086.0</ele><time>2026-05-03T10:27:30Z</time></trkpt><trkpt lat="37.8485142" lon="14.4773982"><ele>1089.0</ele><time>2026-05-03T10:27:32Z</time></trkpt><trkpt lat="37.8486038" lon="14.4773452"><ele>1089.4</ele><time>2026-05-03T10:27:34Z</time></trkpt><trkpt lat="37.8486952" lon="14.4772302"><ele>1089.8000000000002</ele><time>2026-05-03T10:27:36Z</time></trkpt><trkpt lat="37.848764" lon="14.4771128"><ele>1090.1999999999998</ele><time>2026-05-03T10:27:38Z</time></trkpt><trkpt lat="37.8488124" lon="14.477054"><ele>1090.6</ele><time>2026-05-03T10:27:39Z</time></trkpt><trkpt lat="37.8488822" lon="14.4770323"><ele>1091.0</ele><time>2026-05-03T10:27:40Z</time></trkpt><trkpt lat="37.8489895" lon="14.4770288"><ele>1091.0</ele><time>2026-05-03T10:27:42Z</time></trkpt><trkpt lat="37.849114" lon="14.4771117"><ele>1091.0</ele><time>2026-05-03T10:27:44Z</time></trkpt><trkpt lat="37.8491636" lon="14.4771769"><ele>1091.0</ele><time>2026-05-03T10:27:45Z</time></trkpt><trkpt lat="37.849213" lon="14.4772496"><ele>1091.0</ele><time>2026-05-03T10:27:46Z</time></trkpt><trkpt lat="37.8492374" lon="14.4773489"><ele>1091.0</ele><time>2026-05-03T10:27:47Z</time></trkpt><trkpt lat="37.8492427" lon="14.4774445"><ele>1091.0</ele><time>2026-05-03T10:27:48Z</time></trkpt><trkpt lat="37.8492522" lon="14.4775431"><ele>1091.0</ele><time>2026-05-03T10:27:49Z</time></trkpt><trkpt lat="37.8492583" lon="14.477661"><ele>1091.0</ele><time>2026-05-03T10:27:50Z</time></trkpt><trkpt lat="37.849267" lon="14.4777713"><ele>1091.0</ele><time>2026-05-03T10:27:51Z</time></trkpt><trkpt lat="37.8492746" lon="14.477882"><ele>1091.0</ele><time>2026-05-03T10:27:52Z</time></trkpt><trkpt lat="37.8492728" lon="14.4779718"><ele>1091.0</ele><time>2026-05-03T10:27:53Z</time></trkpt><trkpt lat="37.8492716" lon="14.4780627"><ele>1091.0</ele><time>2026-05-03T10:27:54Z</time></trkpt><trkpt lat="37.8492799" lon="14.4781602"><ele>1091.6666666666667</ele><time>2026-05-03T10:27:55Z</time></trkpt><trkpt lat="37.8492797" lon="14.4782608"><ele>1092.3333333333335</ele><time>2026-05-03T10:27:56Z</time></trkpt><trkpt lat="37.8492758" lon="14.4783703"><ele>1093.0</ele><time>2026-05-03T10:27:57Z</time></trkpt><trkpt lat="37.8492747" lon="14.4784607"><ele>1093.6666666666667</ele><time>2026-05-03T10:27:58Z</time></trkpt><trkpt lat="37.8492632" lon="14.4785916"><ele>1094.3333333333333</ele><time>2026-05-03T10:28:00Z</time></trkpt><trkpt lat="37.8492025" lon="14.4786178"><ele>1095.0</ele><time>2026-05-03T10:28:08Z</time></trkpt><trkpt lat="37.8491516" lon="14.4785113"><ele>1095.0</ele><time>2026-05-03T10:28:09.999Z</time></trkpt><trkpt lat="37.8490991" lon="14.478447"><ele>1095.0</ele><time>2026-05-03T10:28:11Z</time></trkpt><trkpt lat="37.8490278" lon="14.478382"><ele>1095.0</ele><time>2026-05-03T10:28:13Z</time></trkpt><trkpt lat="37.848934" lon="14.4783317"><ele>1095.0</ele><time>2026-05-03T10:28:15Z</time></trkpt><trkpt lat="37.8488623" lon="14.4783128"><ele>1095.0</ele><time>2026-05-03T10:28:17Z</time></trkpt><trkpt lat="37.8489554" lon="14.4783271"><ele>1095.0</ele><time>2026-05-03T10:28:58Z</time></trkpt><trkpt lat="37.8490151" lon="14.4783665"><ele>1095.0</ele><time>2026-05-03T10:29:00Z</time></trkpt><trkpt lat="37.8490665" lon="14.4784192"><ele>1095.0</ele><time>2026-05-03T10:29:03Z</time></trkpt><trkpt lat="37.8490608" lon="14.4785457"><ele>1095.0</ele><time>2026-05-03T10:29:12Z</time></trkpt><trkpt lat="37.8490579" lon="14.4786772"><ele>1095.0</ele><time>2026-05-03T10:29:14Z</time></trkpt><trkpt lat="37.8490787" lon="14.4788343"><ele>1095.0</ele><time>2026-05-03T10:29:16Z</time></trkpt><trkpt lat="37.8491097" lon="14.4789841"><ele>1096.3333333333333</ele><time>2026-05-03T10:29:18Z</time></trkpt><trkpt lat="37.8491206" lon="14.4790642"><ele>1097.6666666666667</ele><time>2026-05-03T10:29:19Z</time></trkpt><trkpt lat="37.8491392" lon="14.4792115"><ele>1099.0</ele><time>2026-05-03T10:29:21Z</time></trkpt><trkpt lat="37.8491483" lon="14.4792936"><ele>1100.3333333333335</ele><time>2026-05-03T10:29:21.999Z</time></trkpt><trkpt lat="37.8491415" lon="14.4793785"><ele>1101.6666666666667</ele><time>2026-05-03T10:29:23Z</time></trkpt><trkpt lat="37.8491281" lon="14.4795284"><ele>1103.0</ele><time>2026-05-03T10:29:25Z</time></trkpt><trkpt lat="37.8491244" lon="14.4796177"><ele>1103.2</ele><time>2026-05-03T10:29:27Z</time></trkpt><trkpt lat="37.8491569" lon="14.4796996"><ele>1103.4</ele><time>2026-05-03T10:29:30Z</time></trkpt><trkpt lat="37.8492109" lon="14.479796"><ele>1103.6000000000001</ele><time>2026-05-03T10:29:32Z</time></trkpt><trkpt lat="37.8492633" lon="14.4799234"><ele>1103.8</ele><time>2026-05-03T10:29:34Z</time></trkpt><trkpt lat="37.8493076" lon="14.4800575"><ele>1104.0</ele><time>2026-05-03T10:29:36Z</time></trkpt><trkpt lat="37.8493358" lon="14.4801296"><ele>1100.5</ele><time>2026-05-03T10:29:37Z</time></trkpt><trkpt lat="37.8493622" lon="14.4802029"><ele>1097.0</ele><time>2026-05-03T10:29:38Z</time></trkpt><trkpt lat="37.8494385" lon="14.4803038"><ele>1093.5</ele><time>2026-05-03T10:29:40Z</time></trkpt><trkpt lat="37.8494828" lon="14.4804139"><ele>1090.0</ele><time>2026-05-03T10:29:42Z</time></trkpt><trkpt lat="37.8495021" lon="14.4805044"><ele>1086.5</ele><time>2026-05-03T10:29:44Z</time></trkpt><trkpt lat="37.8495312" lon="14.480617"><ele>1083.0</ele><time>2026-05-03T10:29:47Z</time></trkpt><trkpt lat="37.8495797" lon="14.4806733"><ele>1083.0</ele><time>2026-05-03T10:29:50Z</time></trkpt><trkpt lat="37.8496451" lon="14.4807336"><ele>1083.0</ele><time>2026-05-03T10:29:54Z</time></trkpt><trkpt lat="37.8496843" lon="14.4808064"><ele>1083.0</ele><time>2026-05-03T10:29:57.999Z</time></trkpt><trkpt lat="37.8497429" lon="14.4808695"><ele>1083.0</ele><time>2026-05-03T10:30:01Z</time></trkpt><trkpt lat="37.8498252" lon="14.4808871"><ele>1083.0</ele><time>2026-05-03T10:30:11Z</time></trkpt><trkpt lat="37.8498776" lon="14.4809379"><ele>1083.0</ele><time>2026-05-03T10:30:13Z</time></trkpt><trkpt lat="37.8499321" lon="14.4810502"><ele>1083.0</ele><time>2026-05-03T10:30:15Z</time></trkpt><trkpt lat="37.8499952" lon="14.4811579"><ele>1083.0</ele><time>2026-05-03T10:30:17Z</time></trkpt><trkpt lat="37.850031" lon="14.4812242"><ele>1083.0</ele><time>2026-05-03T10:30:18Z</time></trkpt><trkpt lat="37.8501048" lon="14.4813684"><ele>1083.0</ele><time>2026-05-03T10:30:20Z</time></trkpt><trkpt lat="37.8501446" lon="14.4814396"><ele>1083.0</ele><time>2026-05-03T10:30:21Z</time></trkpt><trkpt lat="37.8501819" lon="14.4815204"><ele>1083.0</ele><time>2026-05-03T10:30:22Z</time></trkpt><trkpt lat="37.8502167" lon="14.4815918"><ele>1084.0</ele><time>2026-05-03T10:30:23Z</time></trkpt><trkpt lat="37.8502603" lon="14.4817292"><ele>1085.0</ele><time>2026-05-03T10:30:25Z</time></trkpt><trkpt lat="37.850286" lon="14.481855"><ele>1086.0</ele><time>2026-05-03T10:30:27Z</time></trkpt><trkpt lat="37.8503058" lon="14.4819713"><ele>1087.0</ele><time>2026-05-03T10:30:29Z</time></trkpt><trkpt lat="37.8503123" lon="14.4820749"><ele>1088.0</ele><time>2026-05-03T10:30:30Z</time></trkpt><trkpt lat="37.8503146" lon="14.4821846"><ele>1091.6</ele><time>2026-05-03T10:30:31Z</time></trkpt><trkpt lat="37.850311" lon="14.4822908"><ele>1095.1999999999998</ele><time>2026-05-03T10:30:32Z</time></trkpt><trkpt lat="37.8503034" lon="14.4823955"><ele>1098.8</ele><time>2026-05-03T10:30:33Z</time></trkpt><trkpt lat="37.8503011" lon="14.4825092"><ele>1102.3999999999999</ele><time>2026-05-03T10:30:34Z</time></trkpt><trkpt lat="37.8502881" lon="14.4826545"><ele>1106.0</ele><time>2026-05-03T10:30:35Z</time></trkpt><trkpt lat="37.8502733" lon="14.4827879"><ele>1106.0</ele><time>2026-05-03T10:30:36Z</time></trkpt><trkpt lat="37.8502724" lon="14.482915"><ele>1106.0</ele><time>2026-05-03T10:30:37Z</time></trkpt><trkpt lat="37.8502782" lon="14.4830293"><ele>1106.0</ele><time>2026-05-03T10:30:38Z</time></trkpt><trkpt lat="37.8502916" lon="14.4831395"><ele>1106.0</ele><time>2026-05-03T10:30:39Z</time></trkpt><trkpt lat="37.8503266" lon="14.4832472"><ele>1106.0</ele><time>2026-05-03T10:30:40Z</time></trkpt><trkpt lat="37.8503675" lon="14.4833399"><ele>1106.8</ele><time>2026-05-03T10:30:41Z</time></trkpt><trkpt lat="37.8504215" lon="14.4834282"><ele>1107.6</ele><time>2026-05-03T10:30:42Z</time></trkpt><trkpt lat="37.8504891" lon="14.4835186"><ele>1108.4</ele><time>2026-05-03T10:30:43Z</time></trkpt><trkpt lat="37.8505495" lon="14.4836059"><ele>1109.2</ele><time>2026-05-03T10:30:44Z</time></trkpt><trkpt lat="37.8506177" lon="14.4836904"><ele>1110.0</ele><time>2026-05-03T10:30:45Z</time></trkpt><trkpt lat="37.8506941" lon="14.4837862"><ele>1107.0</ele><time>2026-05-03T10:30:46Z</time></trkpt><trkpt lat="37.8507696" lon="14.4839025"><ele>1104.0</ele><time>2026-05-03T10:30:47Z</time></trkpt><trkpt lat="37.8508656" lon="14.4840288"><ele>1101.0</ele><time>2026-05-03T10:30:48Z</time></trkpt><trkpt lat="37.8509528" lon="14.4841706"><ele>1098.0</ele><time>2026-05-03T10:30:49Z</time></trkpt><trkpt lat="37.8510442" lon="14.4842808"><ele>1096.5</ele><time>2026-05-03T10:30:50Z</time></trkpt><trkpt lat="37.8511451" lon="14.4843775"><ele>1095.0</ele><time>2026-05-03T10:30:51Z</time></trkpt><trkpt lat="37.8512818" lon="14.484452"><ele>1093.5</ele><time>2026-05-03T10:30:52Z</time></trkpt><trkpt lat="37.8514427" lon="14.4845272"><ele>1092.0</ele><time>2026-05-03T10:30:53Z</time></trkpt><trkpt lat="37.8516109" lon="14.4846319"><ele>1092.0</ele><time>2026-05-03T10:30:54Z</time></trkpt><trkpt lat="37.8517658" lon="14.4847384"><ele>1092.0</ele><time>2026-05-03T10:30:55Z</time></trkpt><trkpt lat="37.8519369" lon="14.4848074"><ele>1092.0</ele><time>2026-05-03T10:30:56Z</time></trkpt><trkpt lat="37.852125" lon="14.4848431"><ele>1099.3333333333333</ele><time>2026-05-03T10:30:57Z</time></trkpt><trkpt lat="37.8523139" lon="14.4848594"><ele>1106.6666666666665</ele><time>2026-05-03T10:30:58Z</time></trkpt><trkpt lat="37.8524834" lon="14.4848772"><ele>1114.0</ele><time>2026-05-03T10:30:59Z</time></trkpt><trkpt lat="37.8526505" lon="14.4849302"><ele>1122.0</ele><time>2026-05-03T10:31:00Z</time></trkpt><trkpt lat="37.8528051" lon="14.4850314"><ele>1130.0</ele><time>2026-05-03T10:31:01Z</time></trkpt><trkpt lat="37.8529713" lon="14.4851731"><ele>1138.0</ele><time>2026-05-03T10:31:02Z</time></trkpt><trkpt lat="37.853147" lon="14.4853101"><ele>1138.0</ele><time>2026-05-03T10:31:03Z</time></trkpt><trkpt lat="37.8533262" lon="14.485413"><ele>1138.0</ele><time>2026-05-03T10:31:04Z</time></trkpt><trkpt lat="37.8535155" lon="14.4854975"><ele>1138.0</ele><time>2026-05-03T10:31:05Z</time></trkpt><trkpt lat="37.8536917" lon="14.4855974"><ele>1135.3333333333333</ele><time>2026-05-03T10:31:06Z</time></trkpt><trkpt lat="37.8538435" lon="14.4857304"><ele>1132.6666666666667</ele><time>2026-05-03T10:31:07Z</time></trkpt><trkpt lat="37.8539837" lon="14.4858655"><ele>1130.0</ele><time>2026-05-03T10:31:08Z</time></trkpt><trkpt lat="37.8541385" lon="14.4860004"><ele>1126.6666666666667</ele><time>2026-05-03T10:31:09Z</time></trkpt><trkpt lat="37.8543007" lon="14.4861204"><ele>1123.3333333333333</ele><time>2026-05-03T10:31:10Z</time></trkpt><trkpt lat="37.8544796" lon="14.4862066"><ele>1120.0</ele><time>2026-05-03T10:31:11Z</time></trkpt><trkpt lat="37.8546646" lon="14.4862813"><ele>1120.0</ele><time>2026-05-03T10:31:12Z</time></trkpt><trkpt lat="37.8548607" lon="14.4863292"><ele>1120.0</ele><time>2026-05-03T10:31:13Z</time></trkpt><trkpt lat="37.8550516" lon="14.4863679"><ele>1120.0</ele><time>2026-05-03T10:31:13.999Z</time></trkpt><trkpt lat="37.8552373" lon="14.4864161"><ele>1122.0</ele><time>2026-05-03T10:31:15Z</time></trkpt><trkpt lat="37.8554186" lon="14.4864704"><ele>1124.0</ele><time>2026-05-03T10:31:16Z</time></trkpt><trkpt lat="37.855607" lon="14.4865158"><ele>1126.0</ele><time>2026-05-03T10:31:17Z</time></trkpt><trkpt lat="37.8557911" lon="14.4865578"><ele>1128.6666666666665</ele><time>2026-05-03T10:31:18Z</time></trkpt><trkpt lat="37.8559742" lon="14.4866044"><ele>1131.3333333333333</ele><time>2026-05-03T10:31:19Z</time></trkpt><trkpt lat="37.8561536" lon="14.4866388"><ele>1134.0</ele><time>2026-05-03T10:31:20Z</time></trkpt><trkpt lat="37.8563348" lon="14.4866552"><ele>1134.0</ele><time>2026-05-03T10:31:21Z</time></trkpt><trkpt lat="37.8565194" lon="14.4866444"><ele>1134.0</ele><time>2026-05-03T10:31:22Z</time></trkpt><trkpt lat="37.8567092" lon="14.4866368"><ele>1134.0</ele><time>2026-05-03T10:31:23Z</time></trkpt><trkpt lat="37.8568984" lon="14.4866568"><ele>1137.3333333333333</ele><time>2026-05-03T10:31:24Z</time></trkpt><trkpt lat="37.8570933" lon="14.4867063"><ele>1140.6666666666665</ele><time>2026-05-03T10:31:24.999Z</time></trkpt><trkpt lat="37.8572899" lon="14.4867685"><ele>1144.0</ele><time>2026-05-03T10:31:26Z</time></trkpt><trkpt lat="37.8574778" lon="14.4868254"><ele>1148.6666666666665</ele><time>2026-05-03T10:31:27Z</time></trkpt><trkpt lat="37.8576732" lon="14.4868874"><ele>1153.3333333333333</ele><time>2026-05-03T10:31:27.999Z</time></trkpt><trkpt lat="37.8578522" lon="14.486946"><ele>1158.0</ele><time>2026-05-03T10:31:29Z</time></trkpt><trkpt lat="37.8580168" lon="14.4870099"><ele>1158.0</ele><time>2026-05-03T10:31:30Z</time></trkpt><trkpt lat="37.85816" lon="14.4870812"><ele>1158.0</ele><time>2026-05-03T10:31:31Z</time></trkpt><trkpt lat="37.858282" lon="14.4871809"><ele>1158.0</ele><time>2026-05-03T10:31:32Z</time></trkpt><trkpt lat="37.8583726" lon="14.4873107"><ele>1158.0</ele><time>2026-05-03T10:31:33Z</time></trkpt><trkpt lat="37.8584316" lon="14.4874697"><ele>1157.75</ele><time>2026-05-03T10:31:34Z</time></trkpt><trkpt lat="37.8584703" lon="14.4876375"><ele>1157.5</ele><time>2026-05-03T10:31:35Z</time></trkpt><trkpt lat="37.8585313" lon="14.487788"><ele>1157.25</ele><time>2026-05-03T10:31:36Z</time></trkpt><trkpt lat="37.8586352" lon="14.4879039"><ele>1157.0</ele><time>2026-05-03T10:31:37Z</time></trkpt><trkpt lat="37.8587811" lon="14.4879902"><ele>1157.6666666666667</ele><time>2026-05-03T10:31:38Z</time></trkpt><trkpt lat="37.8589654" lon="14.4880558"><ele>1158.3333333333333</ele><time>2026-05-03T10:31:39Z</time></trkpt><trkpt lat="37.8591626" lon="14.4881565"><ele>1159.0</ele><time>2026-05-03T10:31:40Z</time></trkpt><trkpt lat="37.8593837" lon="14.4883115"><ele>1159.0</ele><time>2026-05-03T10:31:41Z</time></trkpt><trkpt lat="37.8596047" lon="14.4884685"><ele>1159.0</ele><time>2026-05-03T10:31:42Z</time></trkpt><trkpt lat="37.8598311" lon="14.4886162"><ele>1161.5</ele><time>2026-05-03T10:31:43Z</time></trkpt><trkpt lat="37.860062" lon="14.4887649"><ele>1164.0</ele><time>2026-05-03T10:31:44Z</time></trkpt><trkpt lat="37.8602665" lon="14.4889048"><ele>1164.0</ele><time>2026-05-03T10:31:45Z</time></trkpt><trkpt lat="37.86045" lon="14.4890583"><ele>1164.0</ele><time>2026-05-03T10:31:46Z</time></trkpt><trkpt lat="37.8606269" lon="14.489229"><ele>1164.0</ele><time>2026-05-03T10:31:47Z</time></trkpt><trkpt lat="37.8607644" lon="14.4894158"><ele>1166.6666666666667</ele><time>2026-05-03T10:31:48Z</time></trkpt><trkpt lat="37.86089" lon="14.4896177"><ele>1169.3333333333335</ele><time>2026-05-03T10:31:49Z</time></trkpt><trkpt lat="37.8610178" lon="14.489817"><ele>1172.0</ele><time>2026-05-03T10:31:50Z</time></trkpt><trkpt lat="37.8611418" lon="14.4900131"><ele>1172.0</ele><time>2026-05-03T10:31:51Z</time></trkpt><trkpt lat="37.8612532" lon="14.4902022"><ele>1172.0</ele><time>2026-05-03T10:31:52Z</time></trkpt><trkpt lat="37.8613455" lon="14.4903994"><ele>1172.0</ele><time>2026-05-03T10:31:53Z</time></trkpt><trkpt lat="37.8614253" lon="14.4905907"><ele>1169.3333333333335</ele><time>2026-05-03T10:31:54Z</time></trkpt><trkpt lat="37.8614988" lon="14.4907877"><ele>1166.6666666666667</ele><time>2026-05-03T10:31:55Z</time></trkpt><trkpt lat="37.8615783" lon="14.4909907"><ele>1164.0</ele><time>2026-05-03T10:31:56Z</time></trkpt><trkpt lat="37.8616439" lon="14.4912064"><ele>1163.0</ele><time>2026-05-03T10:31:57Z</time></trkpt><trkpt lat="37.8616979" lon="14.4914332"><ele>1162.0</ele><time>2026-05-03T10:31:58Z</time></trkpt><trkpt lat="37.8617525" lon="14.4916689"><ele>1161.0</ele><time>2026-05-03T10:31:59Z</time></trkpt><trkpt lat="37.8617988" lon="14.4919062"><ele>1168.6666666666667</ele><time>2026-05-03T10:32:00Z</time></trkpt><trkpt lat="37.8618377" lon="14.492136"><ele>1176.3333333333335</ele><time>2026-05-03T10:32:01Z</time></trkpt><trkpt lat="37.8618734" lon="14.4923564"><ele>1184.0</ele><time>2026-05-03T10:32:02Z</time></trkpt><trkpt lat="37.8619101" lon="14.4925685"><ele>1184.0</ele><time>2026-05-03T10:32:03Z</time></trkpt><trkpt lat="37.8619789" lon="14.492776"><ele>1184.0</ele><time>2026-05-03T10:32:03.999Z</time></trkpt><trkpt lat="37.8620722" lon="14.4929841"><ele>1184.0</ele><time>2026-05-03T10:32:05Z</time></trkpt><trkpt lat="37.8621708" lon="14.4932162"><ele>1181.5</ele><time>2026-05-03T10:32:06Z</time></trkpt><trkpt lat="37.8622693" lon="14.4934798"><ele>1179.0</ele><time>2026-05-03T10:32:07Z</time></trkpt><trkpt lat="37.8623544" lon="14.493758"><ele>1175.5</ele><time>2026-05-03T10:32:08Z</time></trkpt><trkpt lat="37.862437" lon="14.4940381"><ele>1172.0</ele><time>2026-05-03T10:32:09Z</time></trkpt><trkpt lat="37.8625213" lon="14.4942968"><ele>1172.0</ele><time>2026-05-03T10:32:10Z</time></trkpt><trkpt lat="37.862602" lon="14.4945361"><ele>1172.0</ele><time>2026-05-03T10:32:11Z</time></trkpt><trkpt lat="37.8627041" lon="14.4947599"><ele>1172.0</ele><time>2026-05-03T10:32:12Z</time></trkpt><trkpt lat="37.8628383" lon="14.4949733"><ele>1172.3333333333335</ele><time>2026-05-03T10:32:13Z</time></trkpt><trkpt lat="37.8629788" lon="14.4951796"><ele>1172.6666666666667</ele><time>2026-05-03T10:32:14Z</time></trkpt><trkpt lat="37.8631195" lon="14.4953947"><ele>1173.0</ele><time>2026-05-03T10:32:15Z</time></trkpt><trkpt lat="37.8632419" lon="14.4955988"><ele>1173.0</ele><time>2026-05-03T10:32:16Z</time></trkpt><trkpt lat="37.8633738" lon="14.4958155"><ele>1173.0</ele><time>2026-05-03T10:32:17Z</time></trkpt><trkpt lat="37.8635045" lon="14.4960276"><ele>1173.0</ele><time>2026-05-03T10:32:18Z</time></trkpt><trkpt lat="37.8636373" lon="14.4962245"><ele>1174.3333333333333</ele><time>2026-05-03T10:32:19Z</time></trkpt><trkpt lat="37.8637655" lon="14.4963982"><ele>1175.6666666666665</ele><time>2026-05-03T10:32:20Z</time></trkpt><trkpt lat="37.8639054" lon="14.4965442"><ele>1177.0</ele><time>2026-05-03T10:32:21Z</time></trkpt><trkpt lat="37.8640567" lon="14.49667"><ele>1177.0</ele><time>2026-05-03T10:32:22Z</time></trkpt><trkpt lat="37.8642191" lon="14.49678"><ele>1177.0</ele><time>2026-05-03T10:32:23Z</time></trkpt><trkpt lat="37.8643763" lon="14.4968743"><ele>1177.0</ele><time>2026-05-03T10:32:24Z</time></trkpt><trkpt lat="37.8645065" lon="14.4969411"><ele>1177.0</ele><time>2026-05-03T10:32:25Z</time></trkpt><trkpt lat="37.864629" lon="14.4969748"><ele>1177.0</ele><time>2026-05-03T10:32:26Z</time></trkpt><trkpt lat="37.8647562" lon="14.4969651"><ele>1177.0</ele><time>2026-05-03T10:32:27Z</time></trkpt><trkpt lat="37.8648894" lon="14.4969311"><ele>1177.0</ele><time>2026-05-03T10:32:28Z</time></trkpt><trkpt lat="37.8650048" lon="14.4968868"><ele>1177.5</ele><time>2026-05-03T10:32:29Z</time></trkpt><trkpt lat="37.865119" lon="14.4968299"><ele>1178.0</ele><time>2026-05-03T10:32:30Z</time></trkpt><trkpt lat="37.8652451" lon="14.4968087"><ele>1178.5</ele><time>2026-05-03T10:32:31Z</time></trkpt><trkpt lat="37.8653602" lon="14.4968227"><ele>1179.0</ele><time>2026-05-03T10:32:32Z</time></trkpt><trkpt lat="37.8654756" lon="14.4968856"><ele>1179.0</ele><time>2026-05-03T10:32:33Z</time></trkpt><trkpt lat="37.8655916" lon="14.4969814"><ele>1179.0</ele><time>2026-05-03T10:32:34Z</time></trkpt><trkpt lat="37.8656999" lon="14.4971118"><ele>1179.0</ele><time>2026-05-03T10:32:35Z</time></trkpt><trkpt lat="37.8658027" lon="14.4972589"><ele>1179.0</ele><time>2026-05-03T10:32:36Z</time></trkpt><trkpt lat="37.8658937" lon="14.49743"><ele>1178.0</ele><time>2026-05-03T10:32:37Z</time></trkpt><trkpt lat="37.8659649" lon="14.4976222"><ele>1177.0</ele><time>2026-05-03T10:32:38Z</time></trkpt><trkpt lat="37.8660339" lon="14.49781"><ele>1176.0</ele><time>2026-05-03T10:32:39Z</time></trkpt><trkpt lat="37.8661005" lon="14.4979802"><ele>1176.0</ele><time>2026-05-03T10:32:40Z</time></trkpt><trkpt lat="37.8661882" lon="14.4981437"><ele>1176.0</ele><time>2026-05-03T10:32:41Z</time></trkpt><trkpt lat="37.8662939" lon="14.4982852"><ele>1176.0</ele><time>2026-05-03T10:32:42Z</time></trkpt><trkpt lat="37.866408" lon="14.4984158"><ele>1176.0</ele><time>2026-05-03T10:32:43Z</time></trkpt><trkpt lat="37.8665171" lon="14.4985279"><ele>1176.0</ele><time>2026-05-03T10:32:44Z</time></trkpt><trkpt lat="37.8666431" lon="14.4985919"><ele>1176.0</ele><time>2026-05-03T10:32:45Z</time></trkpt><trkpt lat="37.866779" lon="14.4986089"><ele>1176.0</ele><time>2026-05-03T10:32:46Z</time></trkpt><trkpt lat="37.8669189" lon="14.4985821"><ele>1176.5</ele><time>2026-05-03T10:32:47Z</time></trkpt><trkpt lat="37.8670504" lon="14.4985546"><ele>1177.0</ele><time>2026-05-03T10:32:48Z</time></trkpt><trkpt lat="37.8671759" lon="14.4985559"><ele>1177.5</ele><time>2026-05-03T10:32:49Z</time></trkpt><trkpt lat="37.8672878" lon="14.4986185"><ele>1178.0</ele><time>2026-05-03T10:32:50Z</time></trkpt><trkpt lat="37.8673663" lon="14.4987236"><ele>1175.6666666666667</ele><time>2026-05-03T10:32:51Z</time></trkpt><trkpt lat="37.867426" lon="14.4988824"><ele>1173.3333333333333</ele><time>2026-05-03T10:32:52Z</time></trkpt><trkpt lat="37.8674806" lon="14.4990696"><ele>1171.0</ele><time>2026-05-03T10:32:53Z</time></trkpt><trkpt lat="37.8675363" lon="14.4992917"><ele>1171.0</ele><time>2026-05-03T10:32:54Z</time></trkpt><trkpt lat="37.8675856" lon="14.4995109"><ele>1171.0</ele><time>2026-05-03T10:32:55Z</time></trkpt><trkpt lat="37.8676416" lon="14.4997067"><ele>1171.0</ele><time>2026-05-03T10:32:56Z</time></trkpt><trkpt lat="37.8677352" lon="14.4998776"><ele>1173.0</ele><time>2026-05-03T10:32:57Z</time></trkpt><trkpt lat="37.8678594" lon="14.5000188"><ele>1175.0</ele><time>2026-05-03T10:32:58Z</time></trkpt><trkpt lat="37.8680147" lon="14.5001489"><ele>1177.0</ele><time>2026-05-03T10:32:59Z</time></trkpt><trkpt lat="37.8681546" lon="14.5002507"><ele>1177.0</ele><time>2026-05-03T10:33:00Z</time></trkpt><trkpt lat="37.8682964" lon="14.50033"><ele>1177.0</ele><time>2026-05-03T10:33:01Z</time></trkpt><trkpt lat="37.8684506" lon="14.5003744"><ele>1177.0</ele><time>2026-05-03T10:33:02Z</time></trkpt><trkpt lat="37.8686159" lon="14.5003845"><ele>1179.3333333333333</ele><time>2026-05-03T10:33:03Z</time></trkpt><trkpt lat="37.86879" lon="14.5003557"><ele>1181.6666666666667</ele><time>2026-05-03T10:33:04Z</time></trkpt><trkpt lat="37.868952" lon="14.500318"><ele>1184.0</ele><time>2026-05-03T10:33:05Z</time></trkpt><trkpt lat="37.8691059" lon="14.5002563"><ele>1184.0</ele><time>2026-05-03T10:33:06Z</time></trkpt><trkpt lat="37.8692586" lon="14.5001513"><ele>1184.0</ele><time>2026-05-03T10:33:07Z</time></trkpt><trkpt lat="37.869403" lon="14.5000146"><ele>1184.0</ele><time>2026-05-03T10:33:08Z</time></trkpt><trkpt lat="37.8695334" lon="14.4998697"><ele>1184.3333333333335</ele><time>2026-05-03T10:33:09Z</time></trkpt><trkpt lat="37.8696597" lon="14.4997282"><ele>1184.6666666666667</ele><time>2026-05-03T10:33:10Z</time></trkpt><trkpt lat="37.8697834" lon="14.499595"><ele>1185.0</ele><time>2026-05-03T10:33:11Z</time></trkpt><trkpt lat="37.8698964" lon="14.4994734"><ele>1185.0</ele><time>2026-05-03T10:33:12Z</time></trkpt><trkpt lat="37.8700297" lon="14.4993852"><ele>1185.0</ele><time>2026-05-03T10:33:13Z</time></trkpt><trkpt lat="37.8701835" lon="14.4993253"><ele>1185.0</ele><time>2026-05-03T10:33:14Z</time></trkpt><trkpt lat="37.8703544" lon="14.4992861"><ele>1184.3333333333333</ele><time>2026-05-03T10:33:15Z</time></trkpt><trkpt lat="37.870516" lon="14.4992479"><ele>1183.6666666666665</ele><time>2026-05-03T10:33:15.999Z</time></trkpt><trkpt lat="37.8706698" lon="14.4992379"><ele>1183.0</ele><time>2026-05-03T10:33:17Z</time></trkpt><trkpt lat="37.8708174" lon="14.499278"><ele>1183.3333333333333</ele><time>2026-05-03T10:33:18Z</time></trkpt><trkpt lat="37.8709588" lon="14.4993823"><ele>1183.6666666666667</ele><time>2026-05-03T10:33:19Z</time></trkpt><trkpt lat="37.8710907" lon="14.4995109"><ele>1184.0</ele><time>2026-05-03T10:33:20Z</time></trkpt><trkpt lat="37.8712291" lon="14.4996064"><ele>1184.0</ele><time>2026-05-03T10:33:21Z</time></trkpt><trkpt lat="37.8713822" lon="14.499662"><ele>1184.0</ele><time>2026-05-03T10:33:22Z</time></trkpt><trkpt lat="37.8715239" lon="14.4996747"><ele>1184.0</ele><time>2026-05-03T10:33:23Z</time></trkpt><trkpt lat="37.8716593" lon="14.4996393"><ele>1184.0</ele><time>2026-05-03T10:33:24Z</time></trkpt><trkpt lat="37.8717813" lon="14.4995551"><ele>1178.0</ele><time>2026-05-03T10:33:25Z</time></trkpt><trkpt lat="37.8718927" lon="14.4994239"><ele>1172.0</ele><time>2026-05-03T10:33:26Z</time></trkpt><trkpt lat="37.8719811" lon="14.4992433"><ele>1166.0</ele><time>2026-05-03T10:33:27Z</time></trkpt><trkpt lat="37.8720506" lon="14.4990403"><ele>1166.0</ele><time>2026-05-03T10:33:27.999Z</time></trkpt><trkpt lat="37.8721163" lon="14.4988418"><ele>1166.0</ele><time>2026-05-03T10:33:29Z</time></trkpt><trkpt lat="37.8721787" lon="14.4986447"><ele>1166.0</ele><time>2026-05-03T10:33:30Z</time></trkpt><trkpt lat="37.8722326" lon="14.4984384"><ele>1167.6666666666667</ele><time>2026-05-03T10:33:31Z</time></trkpt><trkpt lat="37.8722621" lon="14.4982285"><ele>1169.3333333333333</ele><time>2026-05-03T10:33:32Z</time></trkpt><trkpt lat="37.8722632" lon="14.4980274"><ele>1171.0</ele><time>2026-05-03T10:33:33Z</time></trkpt><trkpt lat="37.872272" lon="14.4978497"><ele>1171.8</ele><time>2026-05-03T10:33:34Z</time></trkpt><trkpt lat="37.8722979" lon="14.4977008"><ele>1172.6</ele><time>2026-05-03T10:33:35Z</time></trkpt><trkpt lat="37.8723416" lon="14.497594"><ele>1173.4</ele><time>2026-05-03T10:33:36Z</time></trkpt><trkpt lat="37.8724157" lon="14.4975277"><ele>1174.2</ele><time>2026-05-03T10:33:37Z</time></trkpt><trkpt lat="37.8724983" lon="14.4975134"><ele>1175.0</ele><time>2026-05-03T10:33:38Z</time></trkpt><trkpt lat="37.8725805" lon="14.4975574"><ele>1177.75</ele><time>2026-05-03T10:33:39Z</time></trkpt><trkpt lat="37.872656" lon="14.497651"><ele>1180.5</ele><time>2026-05-03T10:33:40Z</time></trkpt><trkpt lat="37.8727211" lon="14.4977899"><ele>1183.25</ele><time>2026-05-03T10:33:41Z</time></trkpt><trkpt lat="37.8727897" lon="14.4979568"><ele>1186.0</ele><time>2026-05-03T10:33:42Z</time></trkpt><trkpt lat="37.8728615" lon="14.4981356"><ele>1186.0</ele><time>2026-05-03T10:33:43Z</time></trkpt><trkpt lat="37.8729305" lon="14.4983218"><ele>1186.0</ele><time>2026-05-03T10:33:44Z</time></trkpt><trkpt lat="37.8730031" lon="14.4984936"><ele>1186.0</ele><time>2026-05-03T10:33:45Z</time></trkpt><trkpt lat="37.8730839" lon="14.498667"><ele>1183.0</ele><time>2026-05-03T10:33:46Z</time></trkpt><trkpt lat="37.8731893" lon="14.4988328"><ele>1180.0</ele><time>2026-05-03T10:33:47Z</time></trkpt><trkpt lat="37.8733182" lon="14.4989951"><ele>1177.0</ele><time>2026-05-03T10:33:48Z</time></trkpt><trkpt lat="37.8734668" lon="14.4991775"><ele>1177.3333333333333</ele><time>2026-05-03T10:33:49Z</time></trkpt><trkpt lat="37.873608" lon="14.4993406"><ele>1177.6666666666667</ele><time>2026-05-03T10:33:50Z</time></trkpt><trkpt lat="37.8737298" lon="14.4994896"><ele>1178.0</ele><time>2026-05-03T10:33:51Z</time></trkpt><trkpt lat="37.873859" lon="14.4996197"><ele>1178.0</ele><time>2026-05-03T10:33:52Z</time></trkpt><trkpt lat="37.8739926" lon="14.4997215"><ele>1178.0</ele><time>2026-05-03T10:33:53Z</time></trkpt><trkpt lat="37.8741244" lon="14.4997845"><ele>1178.0</ele><time>2026-05-03T10:33:54Z</time></trkpt><trkpt lat="37.8742343" lon="14.4998196"><ele>1178.0</ele><time>2026-05-03T10:33:55Z</time></trkpt><trkpt lat="37.8743331" lon="14.499802"><ele>1175.0</ele><time>2026-05-03T10:33:56Z</time></trkpt><trkpt lat="37.8744216" lon="14.4997409"><ele>1172.0</ele><time>2026-05-03T10:33:57Z</time></trkpt><trkpt lat="37.874511" lon="14.4996482"><ele>1169.0</ele><time>2026-05-03T10:33:58Z</time></trkpt><trkpt lat="37.8746202" lon="14.4995322"><ele>1166.0</ele><time>2026-05-03T10:33:59Z</time></trkpt><trkpt lat="37.8747572" lon="14.4994315"><ele>1174.3333333333335</ele><time>2026-05-03T10:34:00Z</time></trkpt><trkpt lat="37.8749164" lon="14.4993534"><ele>1182.6666666666667</ele><time>2026-05-03T10:34:01Z</time></trkpt><trkpt lat="37.8750812" lon="14.4992552"><ele>1191.0</ele><time>2026-05-03T10:34:02Z</time></trkpt><trkpt lat="37.8752337" lon="14.4991244"><ele>1191.0</ele><time>2026-05-03T10:34:03Z</time></trkpt><trkpt lat="37.8753642" lon="14.4990071"><ele>1191.0</ele><time>2026-05-03T10:34:04Z</time></trkpt><trkpt lat="37.8754785" lon="14.4989041"><ele>1191.0</ele><time>2026-05-03T10:34:05Z</time></trkpt><trkpt lat="37.8755855" lon="14.4988368"><ele>1191.0</ele><time>2026-05-03T10:34:06Z</time></trkpt><trkpt lat="37.8756899" lon="14.4988233"><ele>1191.0</ele><time>2026-05-03T10:34:07Z</time></trkpt><trkpt lat="37.8757974" lon="14.4988724"><ele>1191.0</ele><time>2026-05-03T10:34:08Z</time></trkpt><trkpt lat="37.8759102" lon="14.4989493"><ele>1191.0</ele><time>2026-05-03T10:34:09Z</time></trkpt><trkpt lat="37.8760474" lon="14.4990072"><ele>1191.0</ele><time>2026-05-03T10:34:10Z</time></trkpt><trkpt lat="37.8761927" lon="14.4990131"><ele>1193.0</ele><time>2026-05-03T10:34:10.999Z</time></trkpt><trkpt lat="37.8763477" lon="14.4989689"><ele>1195.0</ele><time>2026-05-03T10:34:12Z</time></trkpt><trkpt lat="37.8765096" lon="14.4989187"><ele>1197.0</ele><time>2026-05-03T10:34:13Z</time></trkpt><trkpt lat="37.8766837" lon="14.4988879"><ele>1198.0</ele><time>2026-05-03T10:34:14Z</time></trkpt><trkpt lat="37.8768665" lon="14.4988758"><ele>1199.0</ele><time>2026-05-03T10:34:15Z</time></trkpt><trkpt lat="37.8770757" lon="14.4988878"><ele>1200.0</ele><time>2026-05-03T10:34:16Z</time></trkpt><trkpt lat="37.8772821" lon="14.4988982"><ele>1200.0</ele><time>2026-05-03T10:34:17Z</time></trkpt><trkpt lat="37.8774699" lon="14.4989191"><ele>1200.0</ele><time>2026-05-03T10:34:18Z</time></trkpt><trkpt lat="37.8776557" lon="14.4989396"><ele>1200.0</ele><time>2026-05-03T10:34:19Z</time></trkpt><trkpt lat="37.8778272" lon="14.4989558"><ele>1197.3333333333333</ele><time>2026-05-03T10:34:20Z</time></trkpt><trkpt lat="37.8779836" lon="14.4989651"><ele>1194.6666666666665</ele><time>2026-05-03T10:34:21Z</time></trkpt><trkpt lat="37.8781311" lon="14.4989399"><ele>1192.0</ele><time>2026-05-03T10:34:22Z</time></trkpt><trkpt lat="37.878269" lon="14.4988634"><ele>1195.0</ele><time>2026-05-03T10:34:23Z</time></trkpt><trkpt lat="37.8783992" lon="14.4987455"><ele>1198.0</ele><time>2026-05-03T10:34:24Z</time></trkpt><trkpt lat="37.8785262" lon="14.4986228"><ele>1201.0</ele><time>2026-05-03T10:34:25Z</time></trkpt><trkpt lat="37.8786579" lon="14.4985226"><ele>1201.0</ele><time>2026-05-03T10:34:26Z</time></trkpt><trkpt lat="37.8787957" lon="14.4984709"><ele>1201.0</ele><time>2026-05-03T10:34:26.999Z</time></trkpt><trkpt lat="37.8789553" lon="14.4984553"><ele>1201.0</ele><time>2026-05-03T10:34:28Z</time></trkpt><trkpt lat="37.8791137" lon="14.4984652"><ele>1195.3333333333333</ele><time>2026-05-03T10:34:29Z</time></trkpt><trkpt lat="37.8792745" lon="14.4984425"><ele>1189.6666666666667</ele><time>2026-05-03T10:34:30Z</time></trkpt><trkpt lat="37.8794412" lon="14.4983953"><ele>1184.0</ele><time>2026-05-03T10:34:31Z</time></trkpt><trkpt lat="37.8796134" lon="14.4982965"><ele>1184.0</ele><time>2026-05-03T10:34:32Z</time></trkpt><trkpt lat="37.8797969" lon="14.4981655"><ele>1184.0</ele><time>2026-05-03T10:34:33Z</time></trkpt><trkpt lat="37.8799852" lon="14.4980118"><ele>1184.0</ele><time>2026-05-03T10:34:34Z</time></trkpt><trkpt lat="37.880154" lon="14.4978429"><ele>1185.0</ele><time>2026-05-03T10:34:35Z</time></trkpt><trkpt lat="37.8803247" lon="14.4976915"><ele>1186.0</ele><time>2026-05-03T10:34:36Z</time></trkpt><trkpt lat="37.8805004" lon="14.4975674"><ele>1187.0</ele><time>2026-05-03T10:34:37Z</time></trkpt><trkpt lat="37.8806577" lon="14.4974236"><ele>1187.0</ele><time>2026-05-03T10:34:38Z</time></trkpt><trkpt lat="37.8808167" lon="14.4972581"><ele>1187.0</ele><time>2026-05-03T10:34:39Z</time></trkpt><trkpt lat="37.8809315" lon="14.4970291"><ele>1187.0</ele><time>2026-05-03T10:34:40Z</time></trkpt><trkpt lat="37.8810509" lon="14.4968152"><ele>1186.3333333333335</ele><time>2026-05-03T10:34:41Z</time></trkpt><trkpt lat="37.8811658" lon="14.4966024"><ele>1185.6666666666667</ele><time>2026-05-03T10:34:42Z</time></trkpt><trkpt lat="37.8812753" lon="14.4964029"><ele>1185.0</ele><time>2026-05-03T10:34:43Z</time></trkpt><trkpt lat="37.8813596" lon="14.4962042"><ele>1185.0</ele><time>2026-05-03T10:34:44Z</time></trkpt><trkpt lat="37.8814173" lon="14.4960035"><ele>1185.0</ele><time>2026-05-03T10:34:45Z</time></trkpt><trkpt lat="37.8814525" lon="14.4958089"><ele>1185.0</ele><time>2026-05-03T10:34:46Z</time></trkpt><trkpt lat="37.8814372" lon="14.4956077"><ele>1186.0</ele><time>2026-05-03T10:34:47Z</time></trkpt><trkpt lat="37.8813931" lon="14.4953962"><ele>1187.0</ele><time>2026-05-03T10:34:48Z</time></trkpt><trkpt lat="37.8813583" lon="14.4951849"><ele>1188.0</ele><time>2026-05-03T10:34:49Z</time></trkpt><trkpt lat="37.8813149" lon="14.4949699"><ele>1188.0</ele><time>2026-05-03T10:34:50Z</time></trkpt><trkpt lat="37.8812803" lon="14.4947645"><ele>1188.0</ele><time>2026-05-03T10:34:51Z</time></trkpt><trkpt lat="37.8812719" lon="14.4945703"><ele>1188.0</ele><time>2026-05-03T10:34:52Z</time></trkpt><trkpt lat="37.8812978" lon="14.4944086"><ele>1188.0</ele><time>2026-05-03T10:34:53Z</time></trkpt><trkpt lat="37.8813624" lon="14.4942686"><ele>1188.75</ele><time>2026-05-03T10:34:54Z</time></trkpt><trkpt lat="37.8814376" lon="14.4941362"><ele>1189.5</ele><time>2026-05-03T10:34:55Z</time></trkpt><trkpt lat="37.8815611" lon="14.4939988"><ele>1190.25</ele><time>2026-05-03T10:34:56Z</time></trkpt><trkpt lat="37.8816491" lon="14.4938488"><ele>1191.0</ele><time>2026-05-03T10:34:57Z</time></trkpt><trkpt lat="37.8816948" lon="14.49368"><ele>1193.0</ele><time>2026-05-03T10:34:58Z</time></trkpt><trkpt lat="37.8817068" lon="14.4934867"><ele>1195.0</ele><time>2026-05-03T10:34:59Z</time></trkpt><trkpt lat="37.881697" lon="14.4932635"><ele>1197.0</ele><time>2026-05-03T10:35:00Z</time></trkpt><trkpt lat="37.8816909" lon="14.493015"><ele>1198.3333333333333</ele><time>2026-05-03T10:35:00.999Z</time></trkpt><trkpt lat="37.8816835" lon="14.4927704"><ele>1199.6666666666665</ele><time>2026-05-03T10:35:02Z</time></trkpt><trkpt lat="37.8816754" lon="14.4925211"><ele>1201.0</ele><time>2026-05-03T10:35:03Z</time></trkpt><trkpt lat="37.8816742" lon="14.4922762"><ele>1202.0</ele><time>2026-05-03T10:35:04Z</time></trkpt><trkpt lat="37.8816873" lon="14.4920405"><ele>1203.0</ele><time>2026-05-03T10:35:05Z</time></trkpt><trkpt lat="37.881691" lon="14.4918168"><ele>1204.0</ele><time>2026-05-03T10:35:06Z</time></trkpt><trkpt lat="37.8816536" lon="14.4915906"><ele>1204.0</ele><time>2026-05-03T10:35:07Z</time></trkpt><trkpt lat="37.8815887" lon="14.491362"><ele>1204.0</ele><time>2026-05-03T10:35:08Z</time></trkpt><trkpt lat="37.8815321" lon="14.4911428"><ele>1204.0</ele><time>2026-05-03T10:35:09Z</time></trkpt><trkpt lat="37.8814938" lon="14.4909276"><ele>1207.0</ele><time>2026-05-03T10:35:10Z</time></trkpt><trkpt lat="37.8814947" lon="14.4907071"><ele>1210.0</ele><time>2026-05-03T10:35:10.999Z</time></trkpt><trkpt lat="37.8815109" lon="14.4904794"><ele>1213.0</ele><time>2026-05-03T10:35:12Z</time></trkpt><trkpt lat="37.8815301" lon="14.4902402"><ele>1214.0</ele><time>2026-05-03T10:35:13Z</time></trkpt><trkpt lat="37.8815603" lon="14.4899932"><ele>1215.0</ele><time>2026-05-03T10:35:14Z</time></trkpt><trkpt lat="37.8815877" lon="14.4897559"><ele>1216.0</ele><time>2026-05-03T10:35:15Z</time></trkpt><trkpt lat="37.8816165" lon="14.489534"><ele>1216.0</ele><time>2026-05-03T10:35:16Z</time></trkpt><trkpt lat="37.881643" lon="14.4893367"><ele>1216.0</ele><time>2026-05-03T10:35:17Z</time></trkpt><trkpt lat="37.8816676" lon="14.4891851"><ele>1216.0</ele><time>2026-05-03T10:35:18Z</time></trkpt><trkpt lat="37.8817194" lon="14.4890895"><ele>1216.0</ele><time>2026-05-03T10:35:19Z</time></trkpt><trkpt lat="37.8817997" lon="14.4890435"><ele>1219.6</ele><time>2026-05-03T10:35:20Z</time></trkpt><trkpt lat="37.881878" lon="14.4890609"><ele>1223.1999999999998</ele><time>2026-05-03T10:35:21Z</time></trkpt><trkpt lat="37.8819443" lon="14.4890911"><ele>1226.8000000000002</ele><time>2026-05-03T10:35:22Z</time></trkpt><trkpt lat="37.8819408" lon="14.4892497"><ele>1230.4</ele><time>2026-05-03T10:35:23Z</time></trkpt><trkpt lat="37.8819086" lon="14.4893874"><ele>1234.0</ele><time>2026-05-03T10:35:24Z</time></trkpt><trkpt lat="37.8818411" lon="14.4895294"><ele>1235.5</ele><time>2026-05-03T10:35:25Z</time></trkpt><trkpt lat="37.8817843" lon="14.4896888"><ele>1237.0</ele><time>2026-05-03T10:35:26Z</time></trkpt><trkpt lat="37.8817612" lon="14.4898592"><ele>1238.5</ele><time>2026-05-03T10:35:27Z</time></trkpt><trkpt lat="37.8817884" lon="14.4900291"><ele>1240.0</ele><time>2026-05-03T10:35:28Z</time></trkpt><trkpt lat="37.8818724" lon="14.490216"><ele>1238.3333333333333</ele><time>2026-05-03T10:35:29Z</time></trkpt><trkpt lat="37.8819819" lon="14.4904277"><ele>1236.6666666666667</ele><time>2026-05-03T10:35:30Z</time></trkpt><trkpt lat="37.882096" lon="14.4906472"><ele>1235.0</ele><time>2026-05-03T10:35:31Z</time></trkpt><trkpt lat="37.8822145" lon="14.4908742"><ele>1235.0</ele><time>2026-05-03T10:35:32Z</time></trkpt><trkpt lat="37.8823384" lon="14.4911036"><ele>1235.0</ele><time>2026-05-03T10:35:33Z</time></trkpt><trkpt lat="37.882478" lon="14.4913229"><ele>1235.0</ele><time>2026-05-03T10:35:34Z</time></trkpt><trkpt lat="37.8826233" lon="14.4915244"><ele>1240.3333333333335</ele><time>2026-05-03T10:35:35Z</time></trkpt><trkpt lat="37.882777" lon="14.4917131"><ele>1245.6666666666667</ele><time>2026-05-03T10:35:36Z</time></trkpt><trkpt lat="37.8829308" lon="14.4918951"><ele>1251.0</ele><time>2026-05-03T10:35:37Z</time></trkpt><trkpt lat="37.8830786" lon="14.4920796"><ele>1248.3333333333333</ele><time>2026-05-03T10:35:38Z</time></trkpt><trkpt lat="37.8832349" lon="14.4922488"><ele>1245.6666666666665</ele><time>2026-05-03T10:35:39Z</time></trkpt><trkpt lat="37.8833928" lon="14.492393"><ele>1243.0</ele><time>2026-05-03T10:35:40Z</time></trkpt><trkpt lat="37.883548" lon="14.4925125"><ele>1248.75</ele><time>2026-05-03T10:35:41Z</time></trkpt><trkpt lat="37.8836706" lon="14.4926238"><ele>1254.5</ele><time>2026-05-03T10:35:42Z</time></trkpt><trkpt lat="37.883748" lon="14.4927675"><ele>1260.25</ele><time>2026-05-03T10:35:43Z</time></trkpt><trkpt lat="37.8837988" lon="14.4929345"><ele>1266.0</ele><time>2026-05-03T10:35:44Z</time></trkpt><trkpt lat="37.8838232" lon="14.4931292"><ele>1266.0</ele><time>2026-05-03T10:35:45Z</time></trkpt><trkpt lat="37.8838151" lon="14.4933427"><ele>1266.0</ele><time>2026-05-03T10:35:46Z</time></trkpt><trkpt lat="37.8837863" lon="14.4935737"><ele>1266.0</ele><time>2026-05-03T10:35:47Z</time></trkpt><trkpt lat="37.8837564" lon="14.4938159"><ele>1266.6666666666667</ele><time>2026-05-03T10:35:48Z</time></trkpt><trkpt lat="37.8837605" lon="14.4940818"><ele>1267.3333333333335</ele><time>2026-05-03T10:35:49Z</time></trkpt><trkpt lat="37.8837987" lon="14.4943506"><ele>1268.0</ele><time>2026-05-03T10:35:50Z</time></trkpt><trkpt lat="37.8838423" lon="14.4945928"><ele>1269.0</ele><time>2026-05-03T10:35:51Z</time></trkpt><trkpt lat="37.8838967" lon="14.4948106"><ele>1270.0</ele><time>2026-05-03T10:35:52Z</time></trkpt><trkpt lat="37.8839509" lon="14.4950001"><ele>1271.0</ele><time>2026-05-03T10:35:53Z</time></trkpt><trkpt lat="37.8839655" lon="14.4951763"><ele>1271.0</ele><time>2026-05-03T10:35:54Z</time></trkpt><trkpt lat="37.8839215" lon="14.4953655"><ele>1271.0</ele><time>2026-05-03T10:35:55Z</time></trkpt><trkpt lat="37.8838472" lon="14.4955734"><ele>1271.0</ele><time>2026-05-03T10:35:56Z</time></trkpt><trkpt lat="37.883786" lon="14.4957718"><ele>1272.6666666666667</ele><time>2026-05-03T10:35:57Z</time></trkpt><trkpt lat="37.8837578" lon="14.4959689"><ele>1274.3333333333333</ele><time>2026-05-03T10:35:58Z</time></trkpt><trkpt lat="37.8837743" lon="14.4961693"><ele>1276.0</ele><time>2026-05-03T10:35:59Z</time></trkpt><trkpt lat="37.8838149" lon="14.4963848"><ele>1276.0</ele><time>2026-05-03T10:36:00Z</time></trkpt><trkpt lat="37.8838649" lon="14.4965965"><ele>1276.0</ele><time>2026-05-03T10:36:01Z</time></trkpt><trkpt lat="37.8839287" lon="14.4967949"><ele>1276.0</ele><time>2026-05-03T10:36:02Z</time></trkpt><trkpt lat="37.8840327" lon="14.4969653"><ele>1274.0</ele><time>2026-05-03T10:36:03Z</time></trkpt><trkpt lat="37.8841721" lon="14.4971203"><ele>1272.0</ele><time>2026-05-03T10:36:04Z</time></trkpt><trkpt lat="37.8843474" lon="14.4972759"><ele>1270.0</ele><time>2026-05-03T10:36:05Z</time></trkpt><trkpt lat="37.8845389" lon="14.4974405"><ele>1275.6666666666665</ele><time>2026-05-03T10:36:06Z</time></trkpt><trkpt lat="37.8847228" lon="14.497589"><ele>1281.3333333333333</ele><time>2026-05-03T10:36:07Z</time></trkpt><trkpt lat="37.8848841" lon="14.4977253"><ele>1287.0</ele><time>2026-05-03T10:36:08Z</time></trkpt><trkpt lat="37.8850301" lon="14.4978612"><ele>1291.0</ele><time>2026-05-03T10:36:09Z</time></trkpt><trkpt lat="37.8851414" lon="14.497997"><ele>1295.0</ele><time>2026-05-03T10:36:10Z</time></trkpt><trkpt lat="37.8852092" lon="14.498154"><ele>1299.0</ele><time>2026-05-03T10:36:11Z</time></trkpt><trkpt lat="37.8852409" lon="14.4983209"><ele>1303.0</ele><time>2026-05-03T10:36:12Z</time></trkpt><trkpt lat="37.8852268" lon="14.4985059"><ele>1303.0</ele><time>2026-05-03T10:36:13Z</time></trkpt><trkpt lat="37.8851694" lon="14.4986947"><ele>1303.0</ele><time>2026-05-03T10:36:14Z</time></trkpt><trkpt lat="37.8851128" lon="14.4988837"><ele>1303.0</ele><time>2026-05-03T10:36:15Z</time></trkpt><trkpt lat="37.8850629" lon="14.4990436"><ele>1302.4</ele><time>2026-05-03T10:36:16Z</time></trkpt><trkpt lat="37.8850475" lon="14.4991836"><ele>1301.8000000000002</ele><time>2026-05-03T10:36:17Z</time></trkpt><trkpt lat="37.8850734" lon="14.4992986"><ele>1301.2</ele><time>2026-05-03T10:36:18Z</time></trkpt><trkpt lat="37.8851353" lon="14.4993794"><ele>1300.6</ele><time>2026-05-03T10:36:19Z</time></trkpt><trkpt lat="37.8852285" lon="14.4994094"><ele>1300.0</ele><time>2026-05-03T10:36:20Z</time></trkpt><trkpt lat="37.8853169" lon="14.4993761"><ele>1300.0</ele><time>2026-05-03T10:36:21Z</time></trkpt><trkpt lat="37.8853958" lon="14.499274"><ele>1300.0</ele><time>2026-05-03T10:36:21.999Z</time></trkpt><trkpt lat="37.8854557" lon="14.4991179"><ele>1300.0</ele><time>2026-05-03T10:36:23Z</time></trkpt><trkpt lat="37.8855155" lon="14.4989243"><ele>1300.0</ele><time>2026-05-03T10:36:24Z</time></trkpt><trkpt lat="37.8855666" lon="14.4986678"><ele>1301.0</ele><time>2026-05-03T10:36:25Z</time></trkpt><trkpt lat="37.885576" lon="14.4983979"><ele>1302.0</ele><time>2026-05-03T10:36:26Z</time></trkpt><trkpt lat="37.8855564" lon="14.4981356"><ele>1303.0</ele><time>2026-05-03T10:36:27Z</time></trkpt><trkpt lat="37.8855193" lon="14.4978747"><ele>1309.0</ele><time>2026-05-03T10:36:28Z</time></trkpt><trkpt lat="37.8854615" lon="14.497608"><ele>1315.0</ele><time>2026-05-03T10:36:29Z</time></trkpt><trkpt lat="37.8853762" lon="14.4973518"><ele>1321.0</ele><time>2026-05-03T10:36:30Z</time></trkpt><trkpt lat="37.8852925" lon="14.4970953"><ele>1326.0</ele><time>2026-05-03T10:36:31Z</time></trkpt><trkpt lat="37.8852038" lon="14.4968407"><ele>1331.0</ele><time>2026-05-03T10:36:32Z</time></trkpt><trkpt lat="37.8851177" lon="14.4965937"><ele>1336.0</ele><time>2026-05-03T10:36:33Z</time></trkpt><trkpt lat="37.8850401" lon="14.4963676"><ele>1325.0</ele><time>2026-05-03T10:36:34Z</time></trkpt><trkpt lat="37.8849653" lon="14.4961666"><ele>1314.0</ele><time>2026-05-03T10:36:35Z</time></trkpt><trkpt lat="37.8849159" lon="14.4959756"><ele>1303.0</ele><time>2026-05-03T10:36:36Z</time></trkpt><trkpt lat="37.8848998" lon="14.4957899"><ele>1303.0</ele><time>2026-05-03T10:36:37Z</time></trkpt><trkpt lat="37.8849153" lon="14.495581"><ele>1303.0</ele><time>2026-05-03T10:36:38Z</time></trkpt><trkpt lat="37.8849545" lon="14.4953702"><ele>1303.0</ele><time>2026-05-03T10:36:39Z</time></trkpt><trkpt lat="37.8849983" lon="14.4951681"><ele>1303.3333333333333</ele><time>2026-05-03T10:36:40Z</time></trkpt><trkpt lat="37.8850436" lon="14.4949849"><ele>1303.6666666666667</ele><time>2026-05-03T10:36:41Z</time></trkpt><trkpt lat="37.8851034" lon="14.4947948"><ele>1304.0</ele><time>2026-05-03T10:36:42Z</time></trkpt><trkpt lat="37.8851951" lon="14.4946212"><ele>1313.0</ele><time>2026-05-03T10:36:43Z</time></trkpt><trkpt lat="37.8852982" lon="14.4944588"><ele>1322.0</ele><time>2026-05-03T10:36:44Z</time></trkpt><trkpt lat="37.8854148" lon="14.4942992"><ele>1331.0</ele><time>2026-05-03T10:36:45Z</time></trkpt><trkpt lat="37.885506" lon="14.4941217"><ele>1331.0</ele><time>2026-05-03T10:36:46Z</time></trkpt><trkpt lat="37.8855626" lon="14.4939205"><ele>1331.0</ele><time>2026-05-03T10:36:47Z</time></trkpt><trkpt lat="37.8855993" lon="14.4937019"><ele>1331.0</ele><time>2026-05-03T10:36:48Z</time></trkpt><trkpt lat="37.8856343" lon="14.4934815"><ele>1331.0</ele><time>2026-05-03T10:36:49Z</time></trkpt><trkpt lat="37.8856662" lon="14.49325"><ele>1331.0</ele><time>2026-05-03T10:36:50Z</time></trkpt><trkpt lat="37.8857064" lon="14.4930038"><ele>1331.0</ele><time>2026-05-03T10:36:51Z</time></trkpt><trkpt lat="37.8857621" lon="14.4927492"><ele>1331.0</ele><time>2026-05-03T10:36:52Z</time></trkpt><trkpt lat="37.8858419" lon="14.4924823"><ele>1331.0</ele><time>2026-05-03T10:36:53Z</time></trkpt><trkpt lat="37.8859194" lon="14.4922156"><ele>1340.3333333333335</ele><time>2026-05-03T10:36:54Z</time></trkpt><trkpt lat="37.8859947" lon="14.4919639"><ele>1349.6666666666667</ele><time>2026-05-03T10:36:55Z</time></trkpt><trkpt lat="37.8860617" lon="14.4917331"><ele>1359.0</ele><time>2026-05-03T10:36:56Z</time></trkpt><trkpt lat="37.8861365" lon="14.4915383"><ele>1359.0</ele><time>2026-05-03T10:36:57Z</time></trkpt><trkpt lat="37.8862502" lon="14.4913633"><ele>1359.0</ele><time>2026-05-03T10:36:58Z</time></trkpt><trkpt lat="37.8863801" lon="14.4912034"><ele>1359.0</ele><time>2026-05-03T10:36:59Z</time></trkpt><trkpt lat="37.8865113" lon="14.4910608"><ele>1357.0</ele><time>2026-05-03T10:37:00Z</time></trkpt><trkpt lat="37.886624" lon="14.4909378"><ele>1355.0</ele><time>2026-05-03T10:37:01Z</time></trkpt><trkpt lat="37.8867212" lon="14.4908398"><ele>1353.0</ele><time>2026-05-03T10:37:02Z</time></trkpt><trkpt lat="37.886825" lon="14.4907806"><ele>1351.0</ele><time>2026-05-03T10:37:03Z</time></trkpt><trkpt lat="37.8869533" lon="14.4907612"><ele>1351.0</ele><time>2026-05-03T10:37:04Z</time></trkpt><trkpt lat="37.887088" lon="14.4907874"><ele>1351.0</ele><time>2026-05-03T10:37:05Z</time></trkpt><trkpt lat="37.8872374" lon="14.490841"><ele>1351.0</ele><time>2026-05-03T10:37:06Z</time></trkpt><trkpt lat="37.8874068" lon="14.4908453"><ele>1351.0</ele><time>2026-05-03T10:37:07Z</time></trkpt><trkpt lat="37.8875763" lon="14.4908422"><ele>1351.0</ele><time>2026-05-03T10:37:08Z</time></trkpt><trkpt lat="37.8877251" lon="14.4908585"><ele>1351.0</ele><time>2026-05-03T10:37:09Z</time></trkpt><trkpt lat="37.8878583" lon="14.4908353"><ele>1351.5</ele><time>2026-05-03T10:37:10Z</time></trkpt><trkpt lat="37.8879593" lon="14.4907647"><ele>1352.0</ele><time>2026-05-03T10:37:11Z</time></trkpt><trkpt lat="37.8880385" lon="14.4906369"><ele>1352.5</ele><time>2026-05-03T10:37:12Z</time></trkpt><trkpt lat="37.8880864" lon="14.4904614"><ele>1353.0</ele><time>2026-05-03T10:37:13Z</time></trkpt><trkpt lat="37.888127" lon="14.4902709"><ele>1353.0</ele><time>2026-05-03T10:37:14Z</time></trkpt><trkpt lat="37.8881691" lon="14.4901169"><ele>1353.0</ele><time>2026-05-03T10:37:15Z</time></trkpt><trkpt lat="37.8882345" lon="14.4900111"><ele>1353.0</ele><time>2026-05-03T10:37:16Z</time></trkpt><trkpt lat="37.8883151" lon="14.4899583"><ele>1353.0</ele><time>2026-05-03T10:37:17Z</time></trkpt><trkpt lat="37.8884061" lon="14.4899749"><ele>1353.0</ele><time>2026-05-03T10:37:18Z</time></trkpt><trkpt lat="37.8884949" lon="14.4899863"><ele>1359.0</ele><time>2026-05-03T10:37:19Z</time></trkpt><trkpt lat="37.888591" lon="14.4901796"><ele>1365.0</ele><time>2026-05-03T10:37:20Z</time></trkpt><trkpt lat="37.8886973" lon="14.4903266"><ele>1371.0</ele><time>2026-05-03T10:37:21Z</time></trkpt><trkpt lat="37.8887954" lon="14.4904596"><ele>1371.5</ele><time>2026-05-03T10:37:22Z</time></trkpt><trkpt lat="37.8888535" lon="14.4905929"><ele>1372.0</ele><time>2026-05-03T10:37:23Z</time></trkpt><trkpt lat="37.8888741" lon="14.4907318"><ele>1372.5</ele><time>2026-05-03T10:37:24Z</time></trkpt><trkpt lat="37.8888489" lon="14.4908701"><ele>1373.0</ele><time>2026-05-03T10:37:25Z</time></trkpt><trkpt lat="37.8887804" lon="14.4909921"><ele>1373.0</ele><time>2026-05-03T10:37:26Z</time></trkpt><trkpt lat="37.8886946" lon="14.491127"><ele>1373.0</ele><time>2026-05-03T10:37:27Z</time></trkpt><trkpt lat="37.8885332" lon="14.4912117"><ele>1373.0</ele><time>2026-05-03T10:37:28Z</time></trkpt><trkpt lat="37.8883735" lon="14.4913112"><ele>1374.6666666666667</ele><time>2026-05-03T10:37:28.999Z</time></trkpt><trkpt lat="37.8882059" lon="14.4914032"><ele>1376.3333333333333</ele><time>2026-05-03T10:37:30Z</time></trkpt><trkpt lat="37.8880181" lon="14.4914962"><ele>1378.0</ele><time>2026-05-03T10:37:31Z</time></trkpt><trkpt lat="37.8878118" lon="14.4915463"><ele>1378.0</ele><time>2026-05-03T10:37:32Z</time></trkpt><trkpt lat="37.8876103" lon="14.4915472"><ele>1378.0</ele><time>2026-05-03T10:37:33Z</time></trkpt><trkpt lat="37.8874373" lon="14.4915736"><ele>1378.0</ele><time>2026-05-03T10:37:34Z</time></trkpt><trkpt lat="37.8872851" lon="14.4916186"><ele>1377.6666666666665</ele><time>2026-05-03T10:37:35Z</time></trkpt><trkpt lat="37.8871571" lon="14.4917023"><ele>1377.3333333333333</ele><time>2026-05-03T10:37:36Z</time></trkpt><trkpt lat="37.8870457" lon="14.4918472"><ele>1377.0</ele><time>2026-05-03T10:37:37Z</time></trkpt><trkpt lat="37.8869441" lon="14.4920329"><ele>1375.0</ele><time>2026-05-03T10:37:38Z</time></trkpt><trkpt lat="37.8868453" lon="14.4922375"><ele>1373.0</ele><time>2026-05-03T10:37:39Z</time></trkpt><trkpt lat="37.8867624" lon="14.4924539"><ele>1371.0</ele><time>2026-05-03T10:37:40Z</time></trkpt><trkpt lat="37.8867072" lon="14.4926509"><ele>1371.0</ele><time>2026-05-03T10:37:41Z</time></trkpt><trkpt lat="37.8866735" lon="14.492835"><ele>1371.0</ele><time>2026-05-03T10:37:42Z</time></trkpt><trkpt lat="37.8866801" lon="14.4930044"><ele>1371.0</ele><time>2026-05-03T10:37:43Z</time></trkpt><trkpt lat="37.8867359" lon="14.4931691"><ele>1371.0</ele><time>2026-05-03T10:37:44Z</time></trkpt><trkpt lat="37.8868295" lon="14.4933347"><ele>1379.3333333333333</ele><time>2026-05-03T10:37:44.999Z</time></trkpt><trkpt lat="37.8869438" lon="14.4935037"><ele>1387.6666666666665</ele><time>2026-05-03T10:37:46Z</time></trkpt><trkpt lat="37.8870772" lon="14.4936836"><ele>1396.0</ele><time>2026-05-03T10:37:47Z</time></trkpt><trkpt lat="37.8872155" lon="14.4938738"><ele>1396.0</ele><time>2026-05-03T10:37:48Z</time></trkpt><trkpt lat="37.887365" lon="14.4940693"><ele>1396.0</ele><time>2026-05-03T10:37:49Z</time></trkpt><trkpt lat="37.8875143" lon="14.4942562"><ele>1396.0</ele><time>2026-05-03T10:37:50Z</time></trkpt><trkpt lat="37.8876637" lon="14.49445"><ele>1400.3333333333333</ele><time>2026-05-03T10:37:51Z</time></trkpt><trkpt lat="37.8878114" lon="14.4946319"><ele>1404.6666666666667</ele><time>2026-05-03T10:37:52Z</time></trkpt><trkpt lat="37.8879544" lon="14.494819"><ele>1409.0</ele><time>2026-05-03T10:37:53Z</time></trkpt><trkpt lat="37.8880876" lon="14.4949893"><ele>1409.0</ele><time>2026-05-03T10:37:54Z</time></trkpt><trkpt lat="37.8882132" lon="14.4951553"><ele>1409.0</ele><time>2026-05-03T10:37:55Z</time></trkpt><trkpt lat="37.888318" lon="14.4953311"><ele>1409.0</ele><time>2026-05-03T10:37:56Z</time></trkpt><trkpt lat="37.8884031" lon="14.4955089"><ele>1415.6666666666667</ele><time>2026-05-03T10:37:57Z</time></trkpt><trkpt lat="37.888466" lon="14.4957006"><ele>1422.3333333333333</ele><time>2026-05-03T10:37:58Z</time></trkpt><trkpt lat="37.888516" lon="14.4959015"><ele>1429.0</ele><time>2026-05-03T10:37:59Z</time></trkpt><trkpt lat="37.8885639" lon="14.496122"><ele>1425.0</ele><time>2026-05-03T10:38:00Z</time></trkpt><trkpt lat="37.8886171" lon="14.4963168"><ele>1421.0</ele><time>2026-05-03T10:38:01Z</time></trkpt><trkpt lat="37.8886809" lon="14.4964922"><ele>1417.0</ele><time>2026-05-03T10:38:02Z</time></trkpt><trkpt lat="37.8887551" lon="14.4966389"><ele>1417.0</ele><time>2026-05-03T10:38:03Z</time></trkpt><trkpt lat="37.888841" lon="14.4967618"><ele>1417.0</ele><time>2026-05-03T10:38:04Z</time></trkpt><trkpt lat="37.8889413" lon="14.4968326"><ele>1417.0</ele><time>2026-05-03T10:38:05Z</time></trkpt><trkpt lat="37.8890589" lon="14.4968456"><ele>1417.0</ele><time>2026-05-03T10:38:06Z</time></trkpt><trkpt lat="37.889178" lon="14.4968154"><ele>1419.5</ele><time>2026-05-03T10:38:07Z</time></trkpt><trkpt lat="37.889303" lon="14.4967529"><ele>1422.0</ele><time>2026-05-03T10:38:08Z</time></trkpt><trkpt lat="37.8894371" lon="14.4967023"><ele>1424.5</ele><time>2026-05-03T10:38:09Z</time></trkpt><trkpt lat="37.8895641" lon="14.4966531"><ele>1427.0</ele><time>2026-05-03T10:38:10Z</time></trkpt><trkpt lat="37.8896818" lon="14.4966153"><ele>1427.0</ele><time>2026-05-03T10:38:11Z</time></trkpt><trkpt lat="37.8897924" lon="14.4966753"><ele>1427.0</ele><time>2026-05-03T10:38:12Z</time></trkpt><trkpt lat="37.8898774" lon="14.4967418"><ele>1427.0</ele><time>2026-05-03T10:38:13Z</time></trkpt><trkpt lat="37.8899601" lon="14.4968156"><ele>1427.0</ele><time>2026-05-03T10:38:14Z</time></trkpt><trkpt lat="37.8900203" lon="14.4968859"><ele>1427.0</ele><time>2026-05-03T10:38:15Z</time></trkpt><trkpt lat="37.8900867" lon="14.4970201"><ele>1436.0</ele><time>2026-05-03T10:38:16Z</time></trkpt><trkpt lat="37.8901614" lon="14.4972037"><ele>1445.0</ele><time>2026-05-03T10:38:17Z</time></trkpt><trkpt lat="37.8902971" lon="14.4975341"><ele>1445.0</ele><time>2026-05-03T10:38:18Z</time></trkpt><trkpt lat="37.8903592" lon="14.4977372"><ele>1445.0</ele><time>2026-05-03T10:38:19Z</time></trkpt><trkpt lat="37.8904023" lon="14.497987"><ele>1445.0</ele><time>2026-05-03T10:38:20Z</time></trkpt><trkpt lat="37.8904713" lon="14.4981958"><ele>1442.6666666666667</ele><time>2026-05-03T10:38:21Z</time></trkpt><trkpt lat="37.8905599" lon="14.4984051"><ele>1440.3333333333333</ele><time>2026-05-03T10:38:22Z</time></trkpt><trkpt lat="37.8906455" lon="14.4986065"><ele>1438.0</ele><time>2026-05-03T10:38:22.999Z</time></trkpt><trkpt lat="37.890722" lon="14.49881"><ele>1435.0</ele><time>2026-05-03T10:38:24Z</time></trkpt><trkpt lat="37.8907795" lon="14.4990189"><ele>1432.0</ele><time>2026-05-03T10:38:25Z</time></trkpt><trkpt lat="37.8908466" lon="14.4992111"><ele>1429.0</ele><time>2026-05-03T10:38:26Z</time></trkpt><trkpt lat="37.8909363" lon="14.4993732"><ele>1433.75</ele><time>2026-05-03T10:38:27Z</time></trkpt><trkpt lat="37.891035" lon="14.4995249"><ele>1438.5</ele><time>2026-05-03T10:38:28Z</time></trkpt><trkpt lat="37.8911239" lon="14.499657"><ele>1443.25</ele><time>2026-05-03T10:38:29Z</time></trkpt><trkpt lat="37.8911992" lon="14.4997866"><ele>1448.0</ele><time>2026-05-03T10:38:30Z</time></trkpt><trkpt lat="37.8912661" lon="14.4999379"><ele>1448.0</ele><time>2026-05-03T10:38:31Z</time></trkpt><trkpt lat="37.891258" lon="14.5001148"><ele>1448.0</ele><time>2026-05-03T10:38:32Z</time></trkpt><trkpt lat="37.8912649" lon="14.5002978"><ele>1448.0</ele><time>2026-05-03T10:38:33Z</time></trkpt><trkpt lat="37.8912625" lon="14.5004835"><ele>1448.0</ele><time>2026-05-03T10:38:34Z</time></trkpt><trkpt lat="37.8912856" lon="14.5006638"><ele>1446.6666666666667</ele><time>2026-05-03T10:38:35Z</time></trkpt><trkpt lat="37.8913214" lon="14.5008541"><ele>1445.3333333333333</ele><time>2026-05-03T10:38:36Z</time></trkpt><trkpt lat="37.8913734" lon="14.5010385"><ele>1444.0</ele><time>2026-05-03T10:38:37Z</time></trkpt><trkpt lat="37.8914354" lon="14.5012193"><ele>1442.75</ele><time>2026-05-03T10:38:38Z</time></trkpt><trkpt lat="37.8915021" lon="14.5013905"><ele>1441.5</ele><time>2026-05-03T10:38:39Z</time></trkpt><trkpt lat="37.8915594" lon="14.5015538"><ele>1440.25</ele><time>2026-05-03T10:38:40Z</time></trkpt><trkpt lat="37.8916185" lon="14.501725"><ele>1439.0</ele><time>2026-05-03T10:38:41Z</time></trkpt><trkpt lat="37.8916677" lon="14.5018861"><ele>1439.0</ele><time>2026-05-03T10:38:42Z</time></trkpt><trkpt lat="37.8917266" lon="14.5020488"><ele>1439.0</ele><time>2026-05-03T10:38:43Z</time></trkpt><trkpt lat="37.8918017" lon="14.5021884"><ele>1439.0</ele><time>2026-05-03T10:38:44Z</time></trkpt><trkpt lat="37.8919023" lon="14.5023267"><ele>1439.0</ele><time>2026-05-03T10:38:44.999Z</time></trkpt><trkpt lat="37.8920171" lon="14.5024191"><ele>1440.6666666666667</ele><time>2026-05-03T10:38:46Z</time></trkpt><trkpt lat="37.8921615" lon="14.5024891"><ele>1442.3333333333333</ele><time>2026-05-03T10:38:47Z</time></trkpt><trkpt lat="37.8923119" lon="14.5025421"><ele>1444.0</ele><time>2026-05-03T10:38:48Z</time></trkpt><trkpt lat="37.892451" lon="14.502556"><ele>1444.0</ele><time>2026-05-03T10:38:49Z</time></trkpt><trkpt lat="37.8925863" lon="14.5025231"><ele>1444.0</ele><time>2026-05-03T10:38:50Z</time></trkpt><trkpt lat="37.8927142" lon="14.5024471"><ele>1444.0</ele><time>2026-05-03T10:38:51Z</time></trkpt><trkpt lat="37.8928352" lon="14.5023352"><ele>1444.0</ele><time>2026-05-03T10:38:52Z</time></trkpt><trkpt lat="37.8929489" lon="14.5022115"><ele>1445.25</ele><time>2026-05-03T10:38:53Z</time></trkpt><trkpt lat="37.8930558" lon="14.5021194"><ele>1446.5</ele><time>2026-05-03T10:38:54Z</time></trkpt><trkpt lat="37.8931983" lon="14.5020839"><ele>1447.75</ele><time>2026-05-03T10:38:55Z</time></trkpt><trkpt lat="37.8933575" lon="14.5020713"><ele>1449.0</ele><time>2026-05-03T10:38:56Z</time></trkpt><trkpt lat="37.893527" lon="14.5020921"><ele>1452.3333333333333</ele><time>2026-05-03T10:38:57Z</time></trkpt><trkpt lat="37.8937" lon="14.5021084"><ele>1455.6666666666665</ele><time>2026-05-03T10:38:58Z</time></trkpt><trkpt lat="37.893861" lon="14.5021354"><ele>1459.0</ele><time>2026-05-03T10:38:59Z</time></trkpt><trkpt lat="37.8939939" lon="14.5022116"><ele>1459.0</ele><time>2026-05-03T10:39:00Z</time></trkpt><trkpt lat="37.894111" lon="14.5023372"><ele>1459.0</ele><time>2026-05-03T10:39:01Z</time></trkpt><trkpt lat="37.894211" lon="14.5024819"><ele>1459.0</ele><time>2026-05-03T10:39:02Z</time></trkpt><trkpt lat="37.8943069" lon="14.5026443"><ele>1459.3333333333333</ele><time>2026-05-03T10:39:03Z</time></trkpt><trkpt lat="37.8944222" lon="14.5027756"><ele>1459.6666666666667</ele><time>2026-05-03T10:39:04Z</time></trkpt><trkpt lat="37.89456" lon="14.5028804"><ele>1460.0</ele><time>2026-05-03T10:39:05Z</time></trkpt><trkpt lat="37.8947197" lon="14.5029557"><ele>1460.0</ele><time>2026-05-03T10:39:06Z</time></trkpt><trkpt lat="37.8948878" lon="14.5030249"><ele>1460.0</ele><time>2026-05-03T10:39:07Z</time></trkpt><trkpt lat="37.8950642" lon="14.5030893"><ele>1460.0</ele><time>2026-05-03T10:39:08Z</time></trkpt><trkpt lat="37.8952409" lon="14.5031624"><ele>1463.6666666666667</ele><time>2026-05-03T10:39:09Z</time></trkpt><trkpt lat="37.8953938" lon="14.5032266"><ele>1467.3333333333333</ele><time>2026-05-03T10:39:10Z</time></trkpt><trkpt lat="37.8955488" lon="14.5032968"><ele>1471.0</ele><time>2026-05-03T10:39:11Z</time></trkpt><trkpt lat="37.8956755" lon="14.5034111"><ele>1471.0</ele><time>2026-05-03T10:39:12Z</time></trkpt><trkpt lat="37.8957824" lon="14.5035796"><ele>1471.0</ele><time>2026-05-03T10:39:13Z</time></trkpt><trkpt lat="37.8958733" lon="14.5037396"><ele>1471.0</ele><time>2026-05-03T10:39:14Z</time></trkpt><trkpt lat="37.895964" lon="14.5039089"><ele>1472.5</ele><time>2026-05-03T10:39:15Z</time></trkpt><trkpt lat="37.8960619" lon="14.5040574"><ele>1474.0</ele><time>2026-05-03T10:39:16Z</time></trkpt><trkpt lat="37.8961797" lon="14.50416"><ele>1475.5</ele><time>2026-05-03T10:39:17Z</time></trkpt><trkpt lat="37.8963208" lon="14.504219"><ele>1477.0</ele><time>2026-05-03T10:39:18Z</time></trkpt><trkpt lat="37.8964712" lon="14.5042402"><ele>1477.0</ele><time>2026-05-03T10:39:19Z</time></trkpt><trkpt lat="37.8966135" lon="14.504235"><ele>1477.0</ele><time>2026-05-03T10:39:20Z</time></trkpt><trkpt lat="37.8967571" lon="14.5041608"><ele>1477.0</ele><time>2026-05-03T10:39:21Z</time></trkpt><trkpt lat="37.8969013" lon="14.5040334"><ele>1477.6666666666665</ele><time>2026-05-03T10:39:22Z</time></trkpt><trkpt lat="37.8970514" lon="14.5038784"><ele>1478.3333333333333</ele><time>2026-05-03T10:39:23Z</time></trkpt><trkpt lat="37.8972027" lon="14.503704"><ele>1479.0</ele><time>2026-05-03T10:39:23.999Z</time></trkpt><trkpt lat="37.8973545" lon="14.5035271"><ele>1482.6666666666667</ele><time>2026-05-03T10:39:25Z</time></trkpt><trkpt lat="37.8975009" lon="14.5033559"><ele>1486.3333333333335</ele><time>2026-05-03T10:39:26Z</time></trkpt><trkpt lat="37.8976393" lon="14.5031817"><ele>1490.0</ele><time>2026-05-03T10:39:27Z</time></trkpt><trkpt lat="37.8977717" lon="14.5030227"><ele>1492.0</ele><time>2026-05-03T10:39:28Z</time></trkpt><trkpt lat="37.8978907" lon="14.5028827"><ele>1494.0</ele><time>2026-05-03T10:39:29Z</time></trkpt><trkpt lat="37.8980329" lon="14.502795"><ele>1496.0</ele><time>2026-05-03T10:39:30Z</time></trkpt><trkpt lat="37.8981877" lon="14.5028136"><ele>1496.0</ele><time>2026-05-03T10:39:31Z</time></trkpt><trkpt lat="37.8983445" lon="14.5028256"><ele>1496.0</ele><time>2026-05-03T10:39:32Z</time></trkpt><trkpt lat="37.8984878" lon="14.5028317"><ele>1496.0</ele><time>2026-05-03T10:39:33Z</time></trkpt><trkpt lat="37.8986393" lon="14.5028993"><ele>1497.5</ele><time>2026-05-03T10:39:34Z</time></trkpt><trkpt lat="37.8987033" lon="14.5030826"><ele>1499.0</ele><time>2026-05-03T10:39:35Z</time></trkpt><trkpt lat="37.8987927" lon="14.5032245"><ele>1500.5</ele><time>2026-05-03T10:39:36Z</time></trkpt><trkpt lat="37.89891" lon="14.5033248"><ele>1502.0</ele><time>2026-05-03T10:39:37Z</time></trkpt><trkpt lat="37.8990409" lon="14.5034002"><ele>1502.0</ele><time>2026-05-03T10:39:38Z</time></trkpt><trkpt lat="37.8991765" lon="14.5034181"><ele>1502.0</ele><time>2026-05-03T10:39:39Z</time></trkpt><trkpt lat="37.8993195" lon="14.5033962"><ele>1502.0</ele><time>2026-05-03T10:39:40Z</time></trkpt><trkpt lat="37.8994547" lon="14.5033247"><ele>1502.0</ele><time>2026-05-03T10:39:41Z</time></trkpt><trkpt lat="37.8995759" lon="14.5032144"><ele>1504.6666666666667</ele><time>2026-05-03T10:39:42Z</time></trkpt><trkpt lat="37.8996944" lon="14.5030888"><ele>1507.3333333333333</ele><time>2026-05-03T10:39:43Z</time></trkpt><trkpt lat="37.8998194" lon="14.5029477"><ele>1510.0</ele><time>2026-05-03T10:39:44Z</time></trkpt><trkpt lat="37.8999343" lon="14.5028079"><ele>1510.0</ele><time>2026-05-03T10:39:45Z</time></trkpt><trkpt lat="37.9000497" lon="14.502678"><ele>1510.0</ele><time>2026-05-03T10:39:46Z</time></trkpt><trkpt lat="37.9001775" lon="14.5025908"><ele>1510.0</ele><time>2026-05-03T10:39:47Z</time></trkpt><trkpt lat="37.9003075" lon="14.5024882"><ele>1511.3333333333333</ele><time>2026-05-03T10:39:48Z</time></trkpt><trkpt lat="37.9004537" lon="14.5024156"><ele>1512.6666666666667</ele><time>2026-05-03T10:39:49Z</time></trkpt><trkpt lat="37.9006026" lon="14.5023422"><ele>1514.0</ele><time>2026-05-03T10:39:50Z</time></trkpt><trkpt lat="37.9007362" lon="14.5022747"><ele>1514.0</ele><time>2026-05-03T10:39:51Z</time></trkpt><trkpt lat="37.9008576" lon="14.5022112"><ele>1514.0</ele><time>2026-05-03T10:39:52Z</time></trkpt><trkpt lat="37.900977" lon="14.5021655"><ele>1514.0</ele><time>2026-05-03T10:39:53Z</time></trkpt><trkpt lat="37.9011089" lon="14.5021648"><ele>1514.0</ele><time>2026-05-03T10:39:54Z</time></trkpt><trkpt lat="37.9012346" lon="14.5022041"><ele>1513.25</ele><time>2026-05-03T10:39:55Z</time></trkpt><trkpt lat="37.9013466" lon="14.5022906"><ele>1512.5</ele><time>2026-05-03T10:39:56Z</time></trkpt><trkpt lat="37.9014417" lon="14.502407"><ele>1511.75</ele><time>2026-05-03T10:39:57Z</time></trkpt><trkpt lat="37.9015439" lon="14.5025426"><ele>1511.0</ele><time>2026-05-03T10:39:58Z</time></trkpt><trkpt lat="37.901644" lon="14.5026741"><ele>1511.0</ele><time>2026-05-03T10:39:59Z</time></trkpt><trkpt lat="37.9017391" lon="14.5028026"><ele>1511.0</ele><time>2026-05-03T10:40:00Z</time></trkpt><trkpt lat="37.901858" lon="14.5029056"><ele>1511.0</ele><time>2026-05-03T10:40:01Z</time></trkpt><trkpt lat="37.9019933" lon="14.5029719"><ele>1511.0</ele><time>2026-05-03T10:40:02Z</time></trkpt><trkpt lat="37.9021334" lon="14.5029928"><ele>1512.0</ele><time>2026-05-03T10:40:03Z</time></trkpt><trkpt lat="37.9022754" lon="14.5030151"><ele>1513.0</ele><time>2026-05-03T10:40:04Z</time></trkpt><trkpt lat="37.9023684" lon="14.5030367"><ele>1514.0</ele><time>2026-05-03T10:40:05Z</time></trkpt><trkpt lat="37.9024579" lon="14.5031105"><ele>1515.0</ele><time>2026-05-03T10:40:06Z</time></trkpt><trkpt lat="37.9025206" lon="14.5032132"><ele>1516.0</ele><time>2026-05-03T10:40:07Z</time></trkpt><trkpt lat="37.9025569" lon="14.5033468"><ele>1516.0</ele><time>2026-05-03T10:40:08Z</time></trkpt><trkpt lat="37.902576" lon="14.5034969"><ele>1516.0</ele><time>2026-05-03T10:40:09Z</time></trkpt><trkpt lat="37.9025594" lon="14.5036483"><ele>1516.0</ele><time>2026-05-03T10:40:10Z</time></trkpt><trkpt lat="37.9025163" lon="14.50378"><ele>1516.0</ele><time>2026-05-03T10:40:11Z</time></trkpt><trkpt lat="37.9024855" lon="14.5039085"><ele>1516.5</ele><time>2026-05-03T10:40:12Z</time></trkpt><trkpt lat="37.9024551" lon="14.5040432"><ele>1517.0</ele><time>2026-05-03T10:40:13Z</time></trkpt><trkpt lat="37.9025544" lon="14.5041613"><ele>1517.5</ele><time>2026-05-03T10:40:14Z</time></trkpt><trkpt lat="37.902607" lon="14.5042784"><ele>1518.0</ele><time>2026-05-03T10:40:15Z</time></trkpt><trkpt lat="37.9026801" lon="14.5043956"><ele>1518.0</ele><time>2026-05-03T10:40:16Z</time></trkpt><trkpt lat="37.9027673" lon="14.5045004"><ele>1518.0</ele><time>2026-05-03T10:40:17Z</time></trkpt><trkpt lat="37.902876" lon="14.504571"><ele>1518.0</ele><time>2026-05-03T10:40:18Z</time></trkpt><trkpt lat="37.9029988" lon="14.5046218"><ele>1518.0</ele><time>2026-05-03T10:40:19Z</time></trkpt><trkpt lat="37.9031265" lon="14.5046544"><ele>1518.75</ele><time>2026-05-03T10:40:20Z</time></trkpt><trkpt lat="37.903248" lon="14.5046859"><ele>1519.5</ele><time>2026-05-03T10:40:21Z</time></trkpt><trkpt lat="37.903374" lon="14.504705"><ele>1520.25</ele><time>2026-05-03T10:40:22Z</time></trkpt><trkpt lat="37.9034993" lon="14.5047499"><ele>1521.0</ele><time>2026-05-03T10:40:23Z</time></trkpt><trkpt lat="37.9036038" lon="14.504805"><ele>1521.0</ele><time>2026-05-03T10:40:24Z</time></trkpt><trkpt lat="37.9037287" lon="14.504922"><ele>1521.0</ele><time>2026-05-03T10:40:25Z</time></trkpt><trkpt lat="37.9038477" lon="14.5050209"><ele>1521.0</ele><time>2026-05-03T10:40:26Z</time></trkpt><trkpt lat="37.9039599" lon="14.5050992"><ele>1521.0</ele><time>2026-05-03T10:40:27Z</time></trkpt><trkpt lat="37.9040724" lon="14.50518"><ele>1521.0</ele><time>2026-05-03T10:40:28Z</time></trkpt><trkpt lat="37.9041871" lon="14.5052234"><ele>1521.0</ele><time>2026-05-03T10:40:29Z</time></trkpt><trkpt lat="37.9042982" lon="14.5052636"><ele>1521.0</ele><time>2026-05-03T10:40:30Z</time></trkpt><trkpt lat="37.9044184" lon="14.5052574"><ele>1521.0</ele><time>2026-05-03T10:40:31Z</time></trkpt><trkpt lat="37.9045469" lon="14.5052443"><ele>1520.0</ele><time>2026-05-03T10:40:32Z</time></trkpt><trkpt lat="37.9046752" lon="14.5052146"><ele>1519.0</ele><time>2026-05-03T10:40:33Z</time></trkpt><trkpt lat="37.9048121" lon="14.5051351"><ele>1518.0</ele><time>2026-05-03T10:40:34Z</time></trkpt><trkpt lat="37.9049375" lon="14.505082"><ele>1517.0</ele><time>2026-05-03T10:40:35Z</time></trkpt><trkpt lat="37.9050591" lon="14.5050488"><ele>1514.3999999999999</ele><time>2026-05-03T10:40:36Z</time></trkpt><trkpt lat="37.9051632" lon="14.5050375"><ele>1511.8</ele><time>2026-05-03T10:40:37Z</time></trkpt><trkpt lat="37.9052542" lon="14.5051184"><ele>1509.2</ele><time>2026-05-03T10:40:38Z</time></trkpt><trkpt lat="37.9053351" lon="14.5052177"><ele>1506.6</ele><time>2026-05-03T10:40:39Z</time></trkpt><trkpt lat="37.9053812" lon="14.5053461"><ele>1504.0</ele><time>2026-05-03T10:40:40Z</time></trkpt><trkpt lat="37.9054208" lon="14.5054873"><ele>1504.0</ele><time>2026-05-03T10:40:41Z</time></trkpt><trkpt lat="37.9054534" lon="14.5056468"><ele>1504.0</ele><time>2026-05-03T10:40:42Z</time></trkpt><trkpt lat="37.9054842" lon="14.5058056"><ele>1504.0</ele><time>2026-05-03T10:40:43Z</time></trkpt><trkpt lat="37.9055152" lon="14.5059528"><ele>1504.0</ele><time>2026-05-03T10:40:44Z</time></trkpt><trkpt lat="37.9055285" lon="14.5060885"><ele>1504.0</ele><time>2026-05-03T10:40:45Z</time></trkpt><trkpt lat="37.9055245" lon="14.5062204"><ele>1504.0</ele><time>2026-05-03T10:40:46Z</time></trkpt><trkpt lat="37.9055021" lon="14.5063597"><ele>1504.0</ele><time>2026-05-03T10:40:47Z</time></trkpt><trkpt lat="37.90545" lon="14.5064756"><ele>1504.0</ele><time>2026-05-03T10:40:48Z</time></trkpt><trkpt lat="37.9053954" lon="14.5065914"><ele>1504.0</ele><time>2026-05-03T10:40:49Z</time></trkpt><trkpt lat="37.9053224" lon="14.5067033"><ele>1504.5</ele><time>2026-05-03T10:40:50Z</time></trkpt><trkpt lat="37.9052436" lon="14.506804"><ele>1505.0</ele><time>2026-05-03T10:40:51Z</time></trkpt><trkpt lat="37.9051288" lon="14.5069404"><ele>1505.5</ele><time>2026-05-03T10:40:52Z</time></trkpt><trkpt lat="37.9050485" lon="14.5070761"><ele>1506.0</ele><time>2026-05-03T10:40:53Z</time></trkpt><trkpt lat="37.9049992" lon="14.5072348"><ele>1506.25</ele><time>2026-05-03T10:40:54Z</time></trkpt><trkpt lat="37.904975" lon="14.5074196"><ele>1506.5</ele><time>2026-05-03T10:40:55Z</time></trkpt><trkpt lat="37.9049563" lon="14.5075949"><ele>1506.75</ele><time>2026-05-03T10:40:56Z</time></trkpt><trkpt lat="37.9049451" lon="14.5077793"><ele>1507.0</ele><time>2026-05-03T10:40:57Z</time></trkpt><trkpt lat="37.9049363" lon="14.5079786"><ele>1507.0</ele><time>2026-05-03T10:40:58Z</time></trkpt><trkpt lat="37.9049321" lon="14.508173"><ele>1507.0</ele><time>2026-05-03T10:40:59Z</time></trkpt><trkpt lat="37.9049277" lon="14.5083477"><ele>1507.0</ele><time>2026-05-03T10:41:00Z</time></trkpt><trkpt lat="37.9049151" lon="14.5085146"><ele>1507.0</ele><time>2026-05-03T10:41:01Z</time></trkpt><trkpt lat="37.9048511" lon="14.5086465"><ele>1504.25</ele><time>2026-05-03T10:41:02Z</time></trkpt><trkpt lat="37.9047757" lon="14.5087761"><ele>1501.5</ele><time>2026-05-03T10:41:03Z</time></trkpt><trkpt lat="37.9047001" lon="14.5088973"><ele>1498.75</ele><time>2026-05-03T10:41:04Z</time></trkpt><trkpt lat="37.9046343" lon="14.5090272"><ele>1496.0</ele><time>2026-05-03T10:41:05Z</time></trkpt><trkpt lat="37.9045806" lon="14.5091828"><ele>1496.0</ele><time>2026-05-03T10:41:06Z</time></trkpt><trkpt lat="37.9045465" lon="14.5093304"><ele>1496.0</ele><time>2026-05-03T10:41:07Z</time></trkpt><trkpt lat="37.9045263" lon="14.5094816"><ele>1496.0</ele><time>2026-05-03T10:41:08Z</time></trkpt><trkpt lat="37.9044714" lon="14.5096233"><ele>1496.0</ele><time>2026-05-03T10:41:09Z</time></trkpt><trkpt lat="37.9043743" lon="14.5097589"><ele>1497.75</ele><time>2026-05-03T10:41:10Z</time></trkpt><trkpt lat="37.9042868" lon="14.5098991"><ele>1499.5</ele><time>2026-05-03T10:41:11Z</time></trkpt><trkpt lat="37.9041789" lon="14.5100312"><ele>1501.25</ele><time>2026-05-03T10:41:12Z</time></trkpt><trkpt lat="37.9040768" lon="14.5101702"><ele>1503.0</ele><time>2026-05-03T10:41:13Z</time></trkpt><trkpt lat="37.9039935" lon="14.5102903"><ele>1501.5</ele><time>2026-05-03T10:41:14Z</time></trkpt><trkpt lat="37.9039348" lon="14.510418"><ele>1500.0</ele><time>2026-05-03T10:41:15Z</time></trkpt><trkpt lat="37.9039052" lon="14.5105538"><ele>1498.5</ele><time>2026-05-03T10:41:16Z</time></trkpt><trkpt lat="37.9039131" lon="14.5106953"><ele>1497.0</ele><time>2026-05-03T10:41:17Z</time></trkpt><trkpt lat="37.9039617" lon="14.5108258"><ele>1497.0</ele><time>2026-05-03T10:41:18Z</time></trkpt><trkpt lat="37.904064" lon="14.5109582"><ele>1497.0</ele><time>2026-05-03T10:41:19Z</time></trkpt><trkpt lat="37.9041737" lon="14.5110566"><ele>1497.0</ele><time>2026-05-03T10:41:20Z</time></trkpt><trkpt lat="37.9042983" lon="14.511136"><ele>1497.0</ele><time>2026-05-03T10:41:21Z</time></trkpt><trkpt lat="37.9044431" lon="14.511186"><ele>1494.75</ele><time>2026-05-03T10:41:22Z</time></trkpt><trkpt lat="37.9045774" lon="14.5112349"><ele>1492.5</ele><time>2026-05-03T10:41:23Z</time></trkpt><trkpt lat="37.9047128" lon="14.5112883"><ele>1490.25</ele><time>2026-05-03T10:41:23.999Z</time></trkpt><trkpt lat="37.904815" lon="14.5113993"><ele>1488.0</ele><time>2026-05-03T10:41:25Z</time></trkpt><trkpt lat="37.9049029" lon="14.5115322"><ele>1488.0</ele><time>2026-05-03T10:41:26Z</time></trkpt><trkpt lat="37.9049772" lon="14.5116729"><ele>1488.0</ele><time>2026-05-03T10:41:27Z</time></trkpt><trkpt lat="37.9050715" lon="14.5117768"><ele>1488.0</ele><time>2026-05-03T10:41:28Z</time></trkpt><trkpt lat="37.9052098" lon="14.5118467"><ele>1488.0</ele><time>2026-05-03T10:41:29Z</time></trkpt><trkpt lat="37.905363" lon="14.5119022"><ele>1488.3333333333333</ele><time>2026-05-03T10:41:30Z</time></trkpt><trkpt lat="37.9055154" lon="14.5119614"><ele>1488.6666666666665</ele><time>2026-05-03T10:41:31Z</time></trkpt><trkpt lat="37.9056772" lon="14.5120317"><ele>1489.0</ele><time>2026-05-03T10:41:32Z</time></trkpt><trkpt lat="37.9058374" lon="14.5121082"><ele>1482.6666666666665</ele><time>2026-05-03T10:41:33Z</time></trkpt><trkpt lat="37.9059991" lon="14.5121866"><ele>1476.3333333333333</ele><time>2026-05-03T10:41:34Z</time></trkpt><trkpt lat="37.9061274" lon="14.51228"><ele>1470.0</ele><time>2026-05-03T10:41:35Z</time></trkpt><trkpt lat="37.9062472" lon="14.5124171"><ele>1470.0</ele><time>2026-05-03T10:41:36Z</time></trkpt><trkpt lat="37.9063626" lon="14.5125751"><ele>1470.0</ele><time>2026-05-03T10:41:37Z</time></trkpt><trkpt lat="37.9064718" lon="14.5127364"><ele>1470.0</ele><time>2026-05-03T10:41:38Z</time></trkpt><trkpt lat="37.9065771" lon="14.5128881"><ele>1470.3333333333333</ele><time>2026-05-03T10:41:39Z</time></trkpt><trkpt lat="37.9066971" lon="14.5130331"><ele>1470.6666666666665</ele><time>2026-05-03T10:41:40Z</time></trkpt><trkpt lat="37.9068484" lon="14.5131424"><ele>1471.0</ele><time>2026-05-03T10:41:41Z</time></trkpt><trkpt lat="37.9070013" lon="14.5132422"><ele>1471.0</ele><time>2026-05-03T10:41:42Z</time></trkpt><trkpt lat="37.9071396" lon="14.5133268"><ele>1471.0</ele><time>2026-05-03T10:41:43Z</time></trkpt><trkpt lat="37.9073052" lon="14.5133657"><ele>1471.0</ele><time>2026-05-03T10:41:43.999Z</time></trkpt><trkpt lat="37.9074685" lon="14.5133679"><ele>1469.25</ele><time>2026-05-03T10:41:45Z</time></trkpt><trkpt lat="37.9076233" lon="14.5133586"><ele>1467.5</ele><time>2026-05-03T10:41:46Z</time></trkpt><trkpt lat="37.9077726" lon="14.5133496"><ele>1465.75</ele><time>2026-05-03T10:41:47Z</time></trkpt><trkpt lat="37.9079124" lon="14.5133749"><ele>1464.0</ele><time>2026-05-03T10:41:48Z</time></trkpt><trkpt lat="37.9080505" lon="14.5134208"><ele>1464.0</ele><time>2026-05-03T10:41:49Z</time></trkpt><trkpt lat="37.9081798" lon="14.5134837"><ele>1464.0</ele><time>2026-05-03T10:41:50Z</time></trkpt><trkpt lat="37.9083099" lon="14.5135773"><ele>1464.0</ele><time>2026-05-03T10:41:51Z</time></trkpt><trkpt lat="37.908446" lon="14.5136787"><ele>1464.0</ele><time>2026-05-03T10:41:52Z</time></trkpt><trkpt lat="37.9085779" lon="14.5137738"><ele>1464.25</ele><time>2026-05-03T10:41:53Z</time></trkpt><trkpt lat="37.9087183" lon="14.513888"><ele>1464.5</ele><time>2026-05-03T10:41:54Z</time></trkpt><trkpt lat="37.9088371" lon="14.5139757"><ele>1464.75</ele><time>2026-05-03T10:41:55Z</time></trkpt><trkpt lat="37.9089597" lon="14.5140247"><ele>1465.0</ele><time>2026-05-03T10:41:56Z</time></trkpt><trkpt lat="37.9090897" lon="14.5140265"><ele>1465.0</ele><time>2026-05-03T10:41:57Z</time></trkpt><trkpt lat="37.9092186" lon="14.5140132"><ele>1465.0</ele><time>2026-05-03T10:41:58Z</time></trkpt><trkpt lat="37.9093692" lon="14.5139411"><ele>1465.0</ele><time>2026-05-03T10:41:59Z</time></trkpt><trkpt lat="37.9095254" lon="14.5138789"><ele>1463.6666666666665</ele><time>2026-05-03T10:42:00Z</time></trkpt><trkpt lat="37.9096759" lon="14.5138118"><ele>1462.3333333333333</ele><time>2026-05-03T10:42:01Z</time></trkpt><trkpt lat="37.9098143" lon="14.5137514"><ele>1461.0</ele><time>2026-05-03T10:42:02Z</time></trkpt><trkpt lat="37.9099566" lon="14.5137016"><ele>1458.6666666666667</ele><time>2026-05-03T10:42:03Z</time></trkpt><trkpt lat="37.9100994" lon="14.5136799"><ele>1456.3333333333335</ele><time>2026-05-03T10:42:04Z</time></trkpt><trkpt lat="37.9102531" lon="14.5137089"><ele>1454.0</ele><time>2026-05-03T10:42:05Z</time></trkpt><trkpt lat="37.9104189" lon="14.5137471"><ele>1454.0</ele><time>2026-05-03T10:42:06Z</time></trkpt><trkpt lat="37.9105762" lon="14.5138186"><ele>1454.0</ele><time>2026-05-03T10:42:07Z</time></trkpt><trkpt lat="37.9107293" lon="14.5138711"><ele>1454.0</ele><time>2026-05-03T10:42:08Z</time></trkpt><trkpt lat="37.9108793" lon="14.5138931"><ele>1455.6666666666667</ele><time>2026-05-03T10:42:09Z</time></trkpt><trkpt lat="37.9110362" lon="14.5138654"><ele>1457.3333333333333</ele><time>2026-05-03T10:42:10Z</time></trkpt><trkpt lat="37.9111806" lon="14.5138044"><ele>1459.0</ele><time>2026-05-03T10:42:11Z</time></trkpt><trkpt lat="37.9113119" lon="14.5137383"><ele>1459.0</ele><time>2026-05-03T10:42:12Z</time></trkpt><trkpt lat="37.9114389" lon="14.5137126"><ele>1459.0</ele><time>2026-05-03T10:42:13Z</time></trkpt><trkpt lat="37.9115641" lon="14.5137235"><ele>1459.0</ele><time>2026-05-03T10:42:13.999Z</time></trkpt><trkpt lat="37.911713" lon="14.5137636"><ele>1459.0</ele><time>2026-05-03T10:42:15Z</time></trkpt><trkpt lat="37.9118661" lon="14.513814"><ele>1459.25</ele><time>2026-05-03T10:42:16Z</time></trkpt><trkpt lat="37.9120086" lon="14.5138591"><ele>1459.5</ele><time>2026-05-03T10:42:17Z</time></trkpt><trkpt lat="37.9121569" lon="14.5138955"><ele>1459.75</ele><time>2026-05-03T10:42:18Z</time></trkpt><trkpt lat="37.9122885" lon="14.5138583"><ele>1460.0</ele><time>2026-05-03T10:42:19Z</time></trkpt><trkpt lat="37.9124198" lon="14.5138206"><ele>1460.0</ele><time>2026-05-03T10:42:20Z</time></trkpt><trkpt lat="37.9125306" lon="14.5137413"><ele>1460.0</ele><time>2026-05-03T10:42:21Z</time></trkpt><trkpt lat="37.9126177" lon="14.5136341"><ele>1460.0</ele><time>2026-05-03T10:42:22Z</time></trkpt><trkpt lat="37.9126668" lon="14.5134977"><ele>1460.0</ele><time>2026-05-03T10:42:23Z</time></trkpt><trkpt lat="37.9127203" lon="14.5133598"><ele>1463.3333333333335</ele><time>2026-05-03T10:42:24Z</time></trkpt><trkpt lat="37.9127028" lon="14.5131435"><ele>1466.6666666666667</ele><time>2026-05-03T10:42:25Z</time></trkpt><trkpt lat="37.9126807" lon="14.5129813"><ele>1470.0</ele><time>2026-05-03T10:42:25.999Z</time></trkpt><trkpt lat="37.9126172" lon="14.5128092"><ele>1465.0</ele><time>2026-05-03T10:42:27Z</time></trkpt><trkpt lat="37.9125261" lon="14.5126402"><ele>1460.0</ele><time>2026-05-03T10:42:28Z</time></trkpt><trkpt lat="37.912433" lon="14.5124847"><ele>1455.0</ele><time>2026-05-03T10:42:29Z</time></trkpt><trkpt lat="37.9123408" lon="14.5123342"><ele>1455.0</ele><time>2026-05-03T10:42:30Z</time></trkpt><trkpt lat="37.912249" lon="14.5121796"><ele>1455.0</ele><time>2026-05-03T10:42:31Z</time></trkpt><trkpt lat="37.9121624" lon="14.5120396"><ele>1455.0</ele><time>2026-05-03T10:42:32Z</time></trkpt><trkpt lat="37.912093" lon="14.5119065"><ele>1455.0</ele><time>2026-05-03T10:42:33Z</time></trkpt><trkpt lat="37.9120467" lon="14.5117439"><ele>1456.0</ele><time>2026-05-03T10:42:34Z</time></trkpt><trkpt lat="37.9120122" lon="14.5115915"><ele>1457.0</ele><time>2026-05-03T10:42:35Z</time></trkpt><trkpt lat="37.9119974" lon="14.5114388"><ele>1458.0</ele><time>2026-05-03T10:42:36Z</time></trkpt><trkpt lat="37.9120127" lon="14.5112915"><ele>1459.0</ele><time>2026-05-03T10:42:37Z</time></trkpt><trkpt lat="37.9120545" lon="14.5111466"><ele>1455.8000000000002</ele><time>2026-05-03T10:42:38Z</time></trkpt><trkpt lat="37.9121186" lon="14.5110368"><ele>1452.6000000000001</ele><time>2026-05-03T10:42:39Z</time></trkpt><trkpt lat="37.9121934" lon="14.5109514"><ele>1449.4</ele><time>2026-05-03T10:42:40Z</time></trkpt><trkpt lat="37.9122955" lon="14.5109439"><ele>1446.2</ele><time>2026-05-03T10:42:41Z</time></trkpt><trkpt lat="37.9124072" lon="14.5109616"><ele>1443.0</ele><time>2026-05-03T10:42:42Z</time></trkpt><trkpt lat="37.9125185" lon="14.5110102"><ele>1441.5</ele><time>2026-05-03T10:42:43Z</time></trkpt><trkpt lat="37.9126438" lon="14.511058"><ele>1440.0</ele><time>2026-05-03T10:42:44Z</time></trkpt><trkpt lat="37.9127644" lon="14.5110867"><ele>1438.5</ele><time>2026-05-03T10:42:45Z</time></trkpt><trkpt lat="37.9128831" lon="14.5110934"><ele>1437.0</ele><time>2026-05-03T10:42:46Z</time></trkpt><trkpt lat="37.9129949" lon="14.5110885"><ele>1437.0</ele><time>2026-05-03T10:42:47Z</time></trkpt><trkpt lat="37.9130997" lon="14.5110825"><ele>1437.0</ele><time>2026-05-03T10:42:48Z</time></trkpt><trkpt lat="37.9132069" lon="14.5110694"><ele>1437.0</ele><time>2026-05-03T10:42:49Z</time></trkpt><trkpt lat="37.9133182" lon="14.511048"><ele>1437.0</ele><time>2026-05-03T10:42:50Z</time></trkpt><trkpt lat="37.913409" lon="14.5109957"><ele>1437.0</ele><time>2026-05-03T10:42:51Z</time></trkpt><trkpt lat="37.9135017" lon="14.5109291"><ele>1435.8</ele><time>2026-05-03T10:42:52Z</time></trkpt><trkpt lat="37.9136054" lon="14.510872"><ele>1434.6</ele><time>2026-05-03T10:42:53Z</time></trkpt><trkpt lat="37.9137094" lon="14.5108419"><ele>1433.3999999999999</ele><time>2026-05-03T10:42:54Z</time></trkpt><trkpt lat="37.9138206" lon="14.5108394"><ele>1432.1999999999998</ele><time>2026-05-03T10:42:55Z</time></trkpt><trkpt lat="37.9139254" lon="14.5108802"><ele>1431.0</ele><time>2026-05-03T10:42:56Z</time></trkpt><trkpt lat="37.9140283" lon="14.5109554"><ele>1431.0</ele><time>2026-05-03T10:42:57Z</time></trkpt><trkpt lat="37.914119" lon="14.5110677"><ele>1431.0</ele><time>2026-05-03T10:42:58Z</time></trkpt><trkpt lat="37.9142197" lon="14.5111836"><ele>1431.0</ele><time>2026-05-03T10:42:59Z</time></trkpt><trkpt lat="37.9143253" lon="14.5112983"><ele>1431.0</ele><time>2026-05-03T10:43:00Z</time></trkpt><trkpt lat="37.9144348" lon="14.5114234"><ele>1433.3333333333333</ele><time>2026-05-03T10:43:01Z</time></trkpt><trkpt lat="37.9145535" lon="14.5115384"><ele>1435.6666666666665</ele><time>2026-05-03T10:43:02Z</time></trkpt><trkpt lat="37.914667" lon="14.5116576"><ele>1438.0</ele><time>2026-05-03T10:43:03Z</time></trkpt><trkpt lat="37.9147882" lon="14.5117793"><ele>1438.0</ele><time>2026-05-03T10:43:04Z</time></trkpt><trkpt lat="37.9149189" lon="14.5118915"><ele>1438.0</ele><time>2026-05-03T10:43:05Z</time></trkpt><trkpt lat="37.9150483" lon="14.5120003"><ele>1438.0</ele><time>2026-05-03T10:43:06Z</time></trkpt><trkpt lat="37.9151656" lon="14.5120898"><ele>1440.0</ele><time>2026-05-03T10:43:07Z</time></trkpt><trkpt lat="37.9152767" lon="14.5121839"><ele>1442.0</ele><time>2026-05-03T10:43:08Z</time></trkpt><trkpt lat="37.9154002" lon="14.5122313"><ele>1444.0</ele><time>2026-05-03T10:43:09Z</time></trkpt><trkpt lat="37.915531" lon="14.5122511"><ele>1446.0</ele><time>2026-05-03T10:43:10Z</time></trkpt><trkpt lat="37.9156537" lon="14.5122294"><ele>1446.0</ele><time>2026-05-03T10:43:11Z</time></trkpt><trkpt lat="37.9158071" lon="14.5122092"><ele>1446.0</ele><time>2026-05-03T10:43:12Z</time></trkpt><trkpt lat="37.9159495" lon="14.5122369"><ele>1446.0</ele><time>2026-05-03T10:43:13Z</time></trkpt><trkpt lat="37.9160874" lon="14.5122642"><ele>1446.0</ele><time>2026-05-03T10:43:14Z</time></trkpt><trkpt lat="37.9162115" lon="14.5123123"><ele>1445.25</ele><time>2026-05-03T10:43:15Z</time></trkpt><trkpt lat="37.9163424" lon="14.512351"><ele>1444.5</ele><time>2026-05-03T10:43:16Z</time></trkpt><trkpt lat="37.9164672" lon="14.5123553"><ele>1443.75</ele><time>2026-05-03T10:43:17Z</time></trkpt><trkpt lat="37.9165955" lon="14.5122942"><ele>1443.0</ele><time>2026-05-03T10:43:18Z</time></trkpt><trkpt lat="37.9167288" lon="14.5122435"><ele>1443.25</ele><time>2026-05-03T10:43:19Z</time></trkpt><trkpt lat="37.9168478" lon="14.5121635"><ele>1443.5</ele><time>2026-05-03T10:43:20Z</time></trkpt><trkpt lat="37.9169521" lon="14.512052"><ele>1443.75</ele><time>2026-05-03T10:43:21Z</time></trkpt><trkpt lat="37.9170228" lon="14.5119146"><ele>1444.0</ele><time>2026-05-03T10:43:22Z</time></trkpt><trkpt lat="37.9170816" lon="14.5117824"><ele>1441.0</ele><time>2026-05-03T10:43:23Z</time></trkpt><trkpt lat="37.917142" lon="14.5116647"><ele>1438.0</ele><time>2026-05-03T10:43:24Z</time></trkpt><trkpt lat="37.9172207" lon="14.511572"><ele>1435.0</ele><time>2026-05-03T10:43:25Z</time></trkpt><trkpt lat="37.9173174" lon="14.5115154"><ele>1432.0</ele><time>2026-05-03T10:43:26Z</time></trkpt><trkpt lat="37.9174088" lon="14.5115304"><ele>1429.0</ele><time>2026-05-03T10:43:27Z</time></trkpt><trkpt lat="37.9174967" lon="14.5115682"><ele>1425.75</ele><time>2026-05-03T10:43:28Z</time></trkpt><trkpt lat="37.9175835" lon="14.5116528"><ele>1422.5</ele><time>2026-05-03T10:43:29Z</time></trkpt><trkpt lat="37.9176778" lon="14.5117479"><ele>1419.25</ele><time>2026-05-03T10:43:30Z</time></trkpt><trkpt lat="37.9177459" lon="14.5118741"><ele>1416.0</ele><time>2026-05-03T10:43:31Z</time></trkpt><trkpt lat="37.9178161" lon="14.5120121"><ele>1419.0</ele><time>2026-05-03T10:43:31.999Z</time></trkpt><trkpt lat="37.9178689" lon="14.5121604"><ele>1422.0</ele><time>2026-05-03T10:43:33Z</time></trkpt><trkpt lat="37.9179429" lon="14.5123025"><ele>1425.0</ele><time>2026-05-03T10:43:34Z</time></trkpt><trkpt lat="37.9180231" lon="14.5124151"><ele>1428.0</ele><time>2026-05-03T10:43:35Z</time></trkpt><trkpt lat="37.9181269" lon="14.512487"><ele>1428.0</ele><time>2026-05-03T10:43:36Z</time></trkpt><trkpt lat="37.9182341" lon="14.5125551"><ele>1428.0</ele><time>2026-05-03T10:43:37Z</time></trkpt><trkpt lat="37.918352" lon="14.512561"><ele>1428.0</ele><time>2026-05-03T10:43:38Z</time></trkpt><trkpt lat="37.9184735" lon="14.512584"><ele>1428.0</ele><time>2026-05-03T10:43:39Z</time></trkpt><trkpt lat="37.9186039" lon="14.5126129"><ele>1428.25</ele><time>2026-05-03T10:43:40Z</time></trkpt><trkpt lat="37.9187395" lon="14.5126386"><ele>1428.5</ele><time>2026-05-03T10:43:41Z</time></trkpt><trkpt lat="37.9188571" lon="14.5126595"><ele>1428.75</ele><time>2026-05-03T10:43:42Z</time></trkpt><trkpt lat="37.9189788" lon="14.512671"><ele>1429.0</ele><time>2026-05-03T10:43:43Z</time></trkpt><trkpt lat="37.9190956" lon="14.5126698"><ele>1429.0</ele><time>2026-05-03T10:43:44Z</time></trkpt><trkpt lat="37.9192006" lon="14.5124943"><ele>1429.0</ele><time>2026-05-03T10:43:45Z</time></trkpt><trkpt lat="37.9193156" lon="14.5123729"><ele>1429.0</ele><time>2026-05-03T10:43:46Z</time></trkpt><trkpt lat="37.9194083" lon="14.512217"><ele>1426.5</ele><time>2026-05-03T10:43:47Z</time></trkpt><trkpt lat="37.9194944" lon="14.5120641"><ele>1424.0</ele><time>2026-05-03T10:43:48Z</time></trkpt><trkpt lat="37.919576" lon="14.5119087"><ele>1421.5</ele><time>2026-05-03T10:43:49Z</time></trkpt><trkpt lat="37.919656" lon="14.5117954"><ele>1419.0</ele><time>2026-05-03T10:43:50Z</time></trkpt><trkpt lat="37.9197284" lon="14.5116986"><ele>1419.0</ele><time>2026-05-03T10:43:51Z</time></trkpt><trkpt lat="37.9198248" lon="14.5116477"><ele>1419.0</ele><time>2026-05-03T10:43:52Z</time></trkpt><trkpt lat="37.9199039" lon="14.5115897"><ele>1419.0</ele><time>2026-05-03T10:43:53Z</time></trkpt><trkpt lat="37.9199852" lon="14.5115968"><ele>1419.0</ele><time>2026-05-03T10:43:54Z</time></trkpt><trkpt lat="37.9200664" lon="14.5117484"><ele>1419.0</ele><time>2026-05-03T10:43:55Z</time></trkpt><trkpt lat="37.9201653" lon="14.5118793"><ele>1413.0</ele><time>2026-05-03T10:43:56Z</time></trkpt><trkpt lat="37.920253" lon="14.5120021"><ele>1407.0</ele><time>2026-05-03T10:43:57Z</time></trkpt><trkpt lat="37.920326" lon="14.5122274"><ele>1401.0</ele><time>2026-05-03T10:43:58Z</time></trkpt><trkpt lat="37.9203925" lon="14.5124125"><ele>1401.0</ele><time>2026-05-03T10:43:59Z</time></trkpt><trkpt lat="37.9204465" lon="14.5126015"><ele>1401.0</ele><time>2026-05-03T10:44:00Z</time></trkpt><trkpt lat="37.9205032" lon="14.5127691"><ele>1401.0</ele><time>2026-05-03T10:44:01Z</time></trkpt><trkpt lat="37.9205523" lon="14.512918"><ele>1401.0</ele><time>2026-05-03T10:44:02Z</time></trkpt><trkpt lat="37.9206223" lon="14.5130574"><ele>1400.25</ele><time>2026-05-03T10:44:03Z</time></trkpt><trkpt lat="37.920741" lon="14.5131693"><ele>1399.5</ele><time>2026-05-03T10:44:04Z</time></trkpt><trkpt lat="37.9208675" lon="14.5132453"><ele>1398.75</ele><time>2026-05-03T10:44:05Z</time></trkpt><trkpt lat="37.9209964" lon="14.5133114"><ele>1398.0</ele><time>2026-05-03T10:44:06Z</time></trkpt><trkpt lat="37.9211641" lon="14.5133663"><ele>1398.0</ele><time>2026-05-03T10:44:07Z</time></trkpt><trkpt lat="37.9213161" lon="14.5134282"><ele>1398.0</ele><time>2026-05-03T10:44:08Z</time></trkpt><trkpt lat="37.9214657" lon="14.5134909"><ele>1398.0</ele><time>2026-05-03T10:44:09Z</time></trkpt><trkpt lat="37.9216067" lon="14.5135562"><ele>1399.0</ele><time>2026-05-03T10:44:10Z</time></trkpt><trkpt lat="37.9217467" lon="14.513662"><ele>1400.0</ele><time>2026-05-03T10:44:11Z</time></trkpt><trkpt lat="37.9218792" lon="14.513776"><ele>1401.0</ele><time>2026-05-03T10:44:12Z</time></trkpt><trkpt lat="37.9220136" lon="14.513895"><ele>1401.0</ele><time>2026-05-03T10:44:13Z</time></trkpt><trkpt lat="37.9221473" lon="14.5140216"><ele>1401.0</ele><time>2026-05-03T10:44:14Z</time></trkpt><trkpt lat="37.9222852" lon="14.5141425"><ele>1401.0</ele><time>2026-05-03T10:44:14.999Z</time></trkpt><trkpt lat="37.9224146" lon="14.5142675"><ele>1401.0</ele><time>2026-05-03T10:44:16Z</time></trkpt><trkpt lat="37.9225521" lon="14.5143691"><ele>1401.0</ele><time>2026-05-03T10:44:17Z</time></trkpt><trkpt lat="37.9226983" lon="14.5144361"><ele>1401.0</ele><time>2026-05-03T10:44:18Z</time></trkpt><trkpt lat="37.9228465" lon="14.514488"><ele>1399.75</ele><time>2026-05-03T10:44:19Z</time></trkpt><trkpt lat="37.9229936" lon="14.5145314"><ele>1398.5</ele><time>2026-05-03T10:44:20Z</time></trkpt><trkpt lat="37.9231338" lon="14.5145741"><ele>1397.25</ele><time>2026-05-03T10:44:21Z</time></trkpt><trkpt lat="37.923267" lon="14.5146135"><ele>1396.0</ele><time>2026-05-03T10:44:22Z</time></trkpt><trkpt lat="37.9234062" lon="14.514649"><ele>1395.5</ele><time>2026-05-03T10:44:23Z</time></trkpt><trkpt lat="37.9235447" lon="14.5146777"><ele>1395.0</ele><time>2026-05-03T10:44:24Z</time></trkpt><trkpt lat="37.923678" lon="14.5146597"><ele>1394.5</ele><time>2026-05-03T10:44:25Z</time></trkpt><trkpt lat="37.9238173" lon="14.5146528"><ele>1394.0</ele><time>2026-05-03T10:44:26Z</time></trkpt><trkpt lat="37.9239632" lon="14.5144902"><ele>1394.0</ele><time>2026-05-03T10:44:27Z</time></trkpt><trkpt lat="37.9241048" lon="14.5144078"><ele>1394.0</ele><time>2026-05-03T10:44:28Z</time></trkpt><trkpt lat="37.9242609" lon="14.5143202"><ele>1394.0</ele><time>2026-05-03T10:44:29Z</time></trkpt><trkpt lat="37.9244469" lon="14.5142408"><ele>1395.0</ele><time>2026-05-03T10:44:30Z</time></trkpt><trkpt lat="37.9246208" lon="14.5141972"><ele>1396.0</ele><time>2026-05-03T10:44:31Z</time></trkpt><trkpt lat="37.9247917" lon="14.5141596"><ele>1397.0</ele><time>2026-05-03T10:44:32Z</time></trkpt><trkpt lat="37.9249501" lon="14.5141298"><ele>1397.6666666666667</ele><time>2026-05-03T10:44:33Z</time></trkpt><trkpt lat="37.925114" lon="14.5141463"><ele>1398.3333333333333</ele><time>2026-05-03T10:44:34Z</time></trkpt><trkpt lat="37.9252613" lon="14.5141671"><ele>1399.0</ele><time>2026-05-03T10:44:35Z</time></trkpt><trkpt lat="37.9254137" lon="14.514178"><ele>1399.0</ele><time>2026-05-03T10:44:36Z</time></trkpt><trkpt lat="37.9255705" lon="14.5141294"><ele>1399.0</ele><time>2026-05-03T10:44:37Z</time></trkpt><trkpt lat="37.9257197" lon="14.5140877"><ele>1399.0</ele><time>2026-05-03T10:44:38Z</time></trkpt><trkpt lat="37.9258571" lon="14.514012"><ele>1399.0</ele><time>2026-05-03T10:44:39Z</time></trkpt><trkpt lat="37.9259938" lon="14.5139513"><ele>1399.0</ele><time>2026-05-03T10:44:40Z</time></trkpt><trkpt lat="37.926111" lon="14.5138742"><ele>1399.0</ele><time>2026-05-03T10:44:41Z</time></trkpt><trkpt lat="37.9262035" lon="14.5137589"><ele>1399.0</ele><time>2026-05-03T10:44:42Z</time></trkpt><trkpt lat="37.926284" lon="14.5136114"><ele>1399.0</ele><time>2026-05-03T10:44:43Z</time></trkpt><trkpt lat="37.9263578" lon="14.5134749"><ele>1399.0</ele><time>2026-05-03T10:44:44Z</time></trkpt><trkpt lat="37.9264127" lon="14.5132975"><ele>1399.0</ele><time>2026-05-03T10:44:45Z</time></trkpt><trkpt lat="37.9264825" lon="14.5131377"><ele>1399.0</ele><time>2026-05-03T10:44:46Z</time></trkpt><trkpt lat="37.9265624" lon="14.5129912"><ele>1396.6666666666665</ele><time>2026-05-03T10:44:47Z</time></trkpt><trkpt lat="37.9266607" lon="14.5128526"><ele>1394.3333333333333</ele><time>2026-05-03T10:44:48Z</time></trkpt><trkpt lat="37.9267906" lon="14.5127371"><ele>1392.0</ele><time>2026-05-03T10:44:49Z</time></trkpt><trkpt lat="37.9269363" lon="14.5126488"><ele>1392.0</ele><time>2026-05-03T10:44:50Z</time></trkpt><trkpt lat="37.9270838" lon="14.5125776"><ele>1392.0</ele><time>2026-05-03T10:44:51Z</time></trkpt><trkpt lat="37.9272256" lon="14.5125017"><ele>1392.0</ele><time>2026-05-03T10:44:52Z</time></trkpt><trkpt lat="37.9273689" lon="14.5124251"><ele>1392.0</ele><time>2026-05-03T10:44:53Z</time></trkpt><trkpt lat="37.9275124" lon="14.512291"><ele>1392.0</ele><time>2026-05-03T10:44:54Z</time></trkpt><trkpt lat="37.9275974" lon="14.5120377"><ele>1392.0</ele><time>2026-05-03T10:44:55Z</time></trkpt><trkpt lat="37.9277184" lon="14.511842"><ele>1391.6666666666667</ele><time>2026-05-03T10:44:56Z</time></trkpt><trkpt lat="37.9278309" lon="14.5116663"><ele>1391.3333333333335</ele><time>2026-05-03T10:44:57Z</time></trkpt><trkpt lat="37.9279333" lon="14.5114965"><ele>1391.0</ele><time>2026-05-03T10:44:58Z</time></trkpt><trkpt lat="37.9280356" lon="14.5113356"><ele>1387.0</ele><time>2026-05-03T10:44:59Z</time></trkpt><trkpt lat="37.928127" lon="14.5111829"><ele>1383.0</ele><time>2026-05-03T10:45:00Z</time></trkpt><trkpt lat="37.9282186" lon="14.5110551"><ele>1379.0</ele><time>2026-05-03T10:45:01Z</time></trkpt><trkpt lat="37.9283246" lon="14.5109576"><ele>1375.0</ele><time>2026-05-03T10:45:02Z</time></trkpt><trkpt lat="37.9284387" lon="14.5108986"><ele>1375.0</ele><time>2026-05-03T10:45:03Z</time></trkpt><trkpt lat="37.9285684" lon="14.5108776"><ele>1375.0</ele><time>2026-05-03T10:45:04Z</time></trkpt><trkpt lat="37.9287047" lon="14.5108813"><ele>1375.0</ele><time>2026-05-03T10:45:05Z</time></trkpt><trkpt lat="37.9288489" lon="14.5108843"><ele>1375.0</ele><time>2026-05-03T10:45:06Z</time></trkpt><trkpt lat="37.9289859" lon="14.510888"><ele>1375.0</ele><time>2026-05-03T10:45:07Z</time></trkpt><trkpt lat="37.9291118" lon="14.510892"><ele>1375.0</ele><time>2026-05-03T10:45:08Z</time></trkpt><trkpt lat="37.9292375" lon="14.5108986"><ele>1375.0</ele><time>2026-05-03T10:45:09Z</time></trkpt><trkpt lat="37.929353" lon="14.5108985"><ele>1375.0</ele><time>2026-05-03T10:45:10Z</time></trkpt><trkpt lat="37.9294716" lon="14.5108906"><ele>1373.75</ele><time>2026-05-03T10:45:11Z</time></trkpt><trkpt lat="37.9295946" lon="14.5108825"><ele>1372.5</ele><time>2026-05-03T10:45:12Z</time></trkpt><trkpt lat="37.9297128" lon="14.5108643"><ele>1371.25</ele><time>2026-05-03T10:45:13Z</time></trkpt><trkpt lat="37.9298291" lon="14.5108436"><ele>1370.0</ele><time>2026-05-03T10:45:14Z</time></trkpt><trkpt lat="37.9299438" lon="14.5108317"><ele>1366.5</ele><time>2026-05-03T10:45:15Z</time></trkpt><trkpt lat="37.9300667" lon="14.5108392"><ele>1363.0</ele><time>2026-05-03T10:45:16Z</time></trkpt><trkpt lat="37.9301858" lon="14.5108817"><ele>1359.5</ele><time>2026-05-03T10:45:17Z</time></trkpt><trkpt lat="37.930313" lon="14.5109549"><ele>1356.0</ele><time>2026-05-03T10:45:18Z</time></trkpt><trkpt lat="37.9304363" lon="14.5110443"><ele>1356.0</ele><time>2026-05-03T10:45:19Z</time></trkpt><trkpt lat="37.9305567" lon="14.5111291"><ele>1356.0</ele><time>2026-05-03T10:45:20Z</time></trkpt><trkpt lat="37.930685" lon="14.5112022"><ele>1356.0</ele><time>2026-05-03T10:45:21Z</time></trkpt><trkpt lat="37.9308191" lon="14.5112573"><ele>1356.0</ele><time>2026-05-03T10:45:22Z</time></trkpt><trkpt lat="37.9309602" lon="14.5113013"><ele>1357.75</ele><time>2026-05-03T10:45:22.999Z</time></trkpt><trkpt lat="37.9310824" lon="14.5113502"><ele>1359.5</ele><time>2026-05-03T10:45:24Z</time></trkpt><trkpt lat="37.9312107" lon="14.5113965"><ele>1361.25</ele><time>2026-05-03T10:45:25Z</time></trkpt><trkpt lat="37.9313382" lon="14.5114907"><ele>1363.0</ele><time>2026-05-03T10:45:26Z</time></trkpt><trkpt lat="37.9314452" lon="14.5115725"><ele>1363.0</ele><time>2026-05-03T10:45:27Z</time></trkpt><trkpt lat="37.931559" lon="14.511652"><ele>1363.0</ele><time>2026-05-03T10:45:28Z</time></trkpt><trkpt lat="37.931679" lon="14.5117189"><ele>1363.0</ele><time>2026-05-03T10:45:29Z</time></trkpt><trkpt lat="37.9318116" lon="14.5116636"><ele>1363.0</ele><time>2026-05-03T10:45:30Z</time></trkpt><trkpt lat="37.93193" lon="14.5116211"><ele>1362.0</ele><time>2026-05-03T10:45:31Z</time></trkpt><trkpt lat="37.9320501" lon="14.5115614"><ele>1361.0</ele><time>2026-05-03T10:45:32Z</time></trkpt><trkpt lat="37.932179" lon="14.5114981"><ele>1360.0</ele><time>2026-05-03T10:45:33Z</time></trkpt><trkpt lat="37.9323062" lon="14.5114334"><ele>1359.0</ele><time>2026-05-03T10:45:34Z</time></trkpt><trkpt lat="37.9325745" lon="14.5112925"><ele>1356.5</ele><time>2026-05-03T10:45:36Z</time></trkpt><trkpt lat="37.9327035" lon="14.511212"><ele>1354.0</ele><time>2026-05-03T10:45:37Z</time></trkpt><trkpt lat="37.9328374" lon="14.5111427"><ele>1351.5</ele><time>2026-05-03T10:45:38Z</time></trkpt><trkpt lat="37.9329812" lon="14.5110684"><ele>1349.0</ele><time>2026-05-03T10:45:39Z</time></trkpt><trkpt lat="37.9331028" lon="14.5110043"><ele>1349.0</ele><time>2026-05-03T10:45:40Z</time></trkpt><trkpt lat="37.9332321" lon="14.5109422"><ele>1349.0</ele><time>2026-05-03T10:45:41Z</time></trkpt><trkpt lat="37.9333531" lon="14.5108853"><ele>1349.0</ele><time>2026-05-03T10:45:42Z</time></trkpt><trkpt lat="37.9334668" lon="14.5108314"><ele>1349.0</ele><time>2026-05-03T10:45:43Z</time></trkpt><trkpt lat="37.9335748" lon="14.5107927"><ele>1348.0</ele><time>2026-05-03T10:45:44Z</time></trkpt><trkpt lat="37.9336936" lon="14.5107708"><ele>1347.0</ele><time>2026-05-03T10:45:45Z</time></trkpt><trkpt lat="37.9338165" lon="14.5107502"><ele>1346.0</ele><time>2026-05-03T10:45:46Z</time></trkpt><trkpt lat="37.9339387" lon="14.5107319"><ele>1345.0</ele><time>2026-05-03T10:45:47Z</time></trkpt><trkpt lat="37.9342143" lon="14.5107202"><ele>1343.75</ele><time>2026-05-03T10:45:49Z</time></trkpt><trkpt lat="37.9343631" lon="14.5107183"><ele>1342.5</ele><time>2026-05-03T10:45:50Z</time></trkpt><trkpt lat="37.9345025" lon="14.510706"><ele>1341.25</ele><time>2026-05-03T10:45:51Z</time></trkpt><trkpt lat="37.9346428" lon="14.5107016"><ele>1340.0</ele><time>2026-05-03T10:45:52Z</time></trkpt><trkpt lat="37.9347815" lon="14.5107093"><ele>1340.0</ele><time>2026-05-03T10:45:53Z</time></trkpt><trkpt lat="37.93492" lon="14.5107311"><ele>1340.0</ele><time>2026-05-03T10:45:54Z</time></trkpt><trkpt lat="37.9350712" lon="14.5107619"><ele>1340.0</ele><time>2026-05-03T10:45:55Z</time></trkpt><trkpt lat="37.9352141" lon="14.510795"><ele>1340.0</ele><time>2026-05-03T10:45:56Z</time></trkpt><trkpt lat="37.9353637" lon="14.5108247"><ele>1337.75</ele><time>2026-05-03T10:45:57Z</time></trkpt><trkpt lat="37.9355117" lon="14.5108414"><ele>1335.5</ele><time>2026-05-03T10:45:58Z</time></trkpt><trkpt lat="37.9356584" lon="14.5108565"><ele>1333.25</ele><time>2026-05-03T10:45:59Z</time></trkpt><trkpt lat="37.9358099" lon="14.5108703"><ele>1331.0</ele><time>2026-05-03T10:46:00Z</time></trkpt><trkpt lat="37.9359654" lon="14.5108824"><ele>1329.0</ele><time>2026-05-03T10:46:01Z</time></trkpt><trkpt lat="37.9361185" lon="14.5108843"><ele>1327.0</ele><time>2026-05-03T10:46:02Z</time></trkpt><trkpt lat="37.9362676" lon="14.5108525"><ele>1325.0</ele><time>2026-05-03T10:46:03Z</time></trkpt><trkpt lat="37.9364171" lon="14.5108068"><ele>1325.0</ele><time>2026-05-03T10:46:04Z</time></trkpt><trkpt lat="37.9365784" lon="14.5107453"><ele>1325.0</ele><time>2026-05-03T10:46:05Z</time></trkpt><trkpt lat="37.9367263" lon="14.5106865"><ele>1325.0</ele><time>2026-05-03T10:46:06Z</time></trkpt><trkpt lat="37.9368718" lon="14.5106281"><ele>1326.0</ele><time>2026-05-03T10:46:07Z</time></trkpt><trkpt lat="37.9370068" lon="14.5105647"><ele>1327.0</ele><time>2026-05-03T10:46:08Z</time></trkpt><trkpt lat="37.9371422" lon="14.5105056"><ele>1328.0</ele><time>2026-05-03T10:46:09Z</time></trkpt><trkpt lat="37.9372783" lon="14.5104405"><ele>1329.0</ele><time>2026-05-03T10:46:10Z</time></trkpt><trkpt lat="37.9374026" lon="14.5103925"><ele>1324.5</ele><time>2026-05-03T10:46:11Z</time></trkpt><trkpt lat="37.9375207" lon="14.5103587"><ele>1320.0</ele><time>2026-05-03T10:46:12Z</time></trkpt><trkpt lat="37.9376363" lon="14.5103786"><ele>1315.5</ele><time>2026-05-03T10:46:13Z</time></trkpt><trkpt lat="37.9377446" lon="14.5104444"><ele>1311.0</ele><time>2026-05-03T10:46:14Z</time></trkpt><trkpt lat="37.9378369" lon="14.5105484"><ele>1311.0</ele><time>2026-05-03T10:46:15Z</time></trkpt><trkpt lat="37.9379241" lon="14.5106688"><ele>1311.0</ele><time>2026-05-03T10:46:16Z</time></trkpt><trkpt lat="37.9380261" lon="14.5107703"><ele>1311.0</ele><time>2026-05-03T10:46:17Z</time></trkpt><trkpt lat="37.9381512" lon="14.5108434"><ele>1311.0</ele><time>2026-05-03T10:46:18Z</time></trkpt><trkpt lat="37.9382982" lon="14.5108846"><ele>1307.0</ele><time>2026-05-03T10:46:19Z</time></trkpt><trkpt lat="37.938445" lon="14.5109149"><ele>1303.0</ele><time>2026-05-03T10:46:20Z</time></trkpt><trkpt lat="37.9385921" lon="14.5109433"><ele>1299.0</ele><time>2026-05-03T10:46:21Z</time></trkpt><trkpt lat="37.9387172" lon="14.5109441"><ele>1295.0</ele><time>2026-05-03T10:46:22Z</time></trkpt><trkpt lat="37.9388393" lon="14.5109464"><ele>1295.0</ele><time>2026-05-03T10:46:23Z</time></trkpt><trkpt lat="37.9389418" lon="14.5109794"><ele>1295.0</ele><time>2026-05-03T10:46:24Z</time></trkpt><trkpt lat="37.9389963" lon="14.5110671"><ele>1295.0</ele><time>2026-05-03T10:46:25Z</time></trkpt><trkpt lat="37.9390622" lon="14.5111464"><ele>1295.0</ele><time>2026-05-03T10:46:26Z</time></trkpt><trkpt lat="37.9390127" lon="14.5112834"><ele>1295.0</ele><time>2026-05-03T10:46:27Z</time></trkpt><trkpt lat="37.9389035" lon="14.5114408"><ele>1294.5</ele><time>2026-05-03T10:46:28Z</time></trkpt><trkpt lat="37.9388308" lon="14.5115829"><ele>1294.0</ele><time>2026-05-03T10:46:28.999Z</time></trkpt><trkpt lat="37.9387457" lon="14.5117076"><ele>1293.5</ele><time>2026-05-03T10:46:30Z</time></trkpt><trkpt lat="37.938606" lon="14.5117973"><ele>1293.0</ele><time>2026-05-03T10:46:31Z</time></trkpt><trkpt lat="37.93849" lon="14.5118721"><ele>1293.0</ele><time>2026-05-03T10:46:32Z</time></trkpt><trkpt lat="37.9384055" lon="14.5119514"><ele>1293.0</ele><time>2026-05-03T10:46:33Z</time></trkpt><trkpt lat="37.938318" lon="14.5120398"><ele>1293.0</ele><time>2026-05-03T10:46:34Z</time></trkpt><trkpt lat="37.9383547" lon="14.5121697"><ele>1293.0</ele><time>2026-05-03T10:46:35Z</time></trkpt><trkpt lat="37.9383791" lon="14.512246"><ele>1293.0</ele><time>2026-05-03T10:46:36Z</time></trkpt><trkpt lat="37.9384603" lon="14.5122901"><ele>1293.0</ele><time>2026-05-03T10:46:37Z</time></trkpt><trkpt lat="37.938544" lon="14.5123314"><ele>1293.0</ele><time>2026-05-03T10:46:38Z</time></trkpt><trkpt lat="37.9386264" lon="14.5123184"><ele>1293.0</ele><time>2026-05-03T10:46:39Z</time></trkpt><trkpt lat="37.9387537" lon="14.5120816"><ele>1293.0</ele><time>2026-05-03T10:46:40Z</time></trkpt><trkpt lat="37.9388695" lon="14.5119416"><ele>1293.0</ele><time>2026-05-03T10:46:41Z</time></trkpt><trkpt lat="37.9389819" lon="14.5117905"><ele>1293.0</ele><time>2026-05-03T10:46:42Z</time></trkpt><trkpt lat="37.9390872" lon="14.5116596"><ele>1293.0</ele><time>2026-05-03T10:46:43Z</time></trkpt><trkpt lat="37.9392088" lon="14.5115152"><ele>1289.3333333333333</ele><time>2026-05-03T10:46:44Z</time></trkpt><trkpt lat="37.9393311" lon="14.5114078"><ele>1285.6666666666665</ele><time>2026-05-03T10:46:45Z</time></trkpt><trkpt lat="37.9395092" lon="14.5113151"><ele>1282.0</ele><time>2026-05-03T10:46:46Z</time></trkpt><trkpt lat="37.9396885" lon="14.5111924"><ele>1282.0</ele><time>2026-05-03T10:46:47Z</time></trkpt><trkpt lat="37.9398595" lon="14.5110574"><ele>1282.0</ele><time>2026-05-03T10:46:48Z</time></trkpt><trkpt lat="37.940047" lon="14.5109015"><ele>1282.0</ele><time>2026-05-03T10:46:49Z</time></trkpt><trkpt lat="37.940218" lon="14.5107557"><ele>1279.3333333333333</ele><time>2026-05-03T10:46:50Z</time></trkpt><trkpt lat="37.9403696" lon="14.5106124"><ele>1276.6666666666667</ele><time>2026-05-03T10:46:51Z</time></trkpt><trkpt lat="37.9405146" lon="14.5104803"><ele>1274.0</ele><time>2026-05-03T10:46:52Z</time></trkpt><trkpt lat="37.9406488" lon="14.5103722"><ele>1274.0</ele><time>2026-05-03T10:46:53Z</time></trkpt><trkpt lat="37.940779" lon="14.5102682"><ele>1274.0</ele><time>2026-05-03T10:46:54Z</time></trkpt><trkpt lat="37.9409189" lon="14.510198"><ele>1274.0</ele><time>2026-05-03T10:46:55Z</time></trkpt><trkpt lat="37.9410782" lon="14.5101691"><ele>1274.3333333333335</ele><time>2026-05-03T10:46:56Z</time></trkpt><trkpt lat="37.9412357" lon="14.5101404"><ele>1274.6666666666667</ele><time>2026-05-03T10:46:57Z</time></trkpt><trkpt lat="37.9413972" lon="14.5101373"><ele>1275.0</ele><time>2026-05-03T10:46:58Z</time></trkpt><trkpt lat="37.9415491" lon="14.510171"><ele>1275.0</ele><time>2026-05-03T10:46:59Z</time></trkpt><trkpt lat="37.9416841" lon="14.5102236"><ele>1275.0</ele><time>2026-05-03T10:47:00Z</time></trkpt><trkpt lat="37.9418168" lon="14.5102751"><ele>1275.0</ele><time>2026-05-03T10:47:01Z</time></trkpt><trkpt lat="37.9419361" lon="14.5103533"><ele>1275.0</ele><time>2026-05-03T10:47:02Z</time></trkpt><trkpt lat="37.9420248" lon="14.5105549"><ele>1276.0</ele><time>2026-05-03T10:47:03Z</time></trkpt><trkpt lat="37.9421464" lon="14.5107136"><ele>1277.0</ele><time>2026-05-03T10:47:04Z</time></trkpt><trkpt lat="37.9422703" lon="14.5108598"><ele>1278.0</ele><time>2026-05-03T10:47:05Z</time></trkpt><trkpt lat="37.9423853" lon="14.5110295"><ele>1278.0</ele><time>2026-05-03T10:47:06Z</time></trkpt><trkpt lat="37.942501" lon="14.5112019"><ele>1278.0</ele><time>2026-05-03T10:47:07Z</time></trkpt><trkpt lat="37.9426007" lon="14.511367"><ele>1278.0</ele><time>2026-05-03T10:47:08Z</time></trkpt><trkpt lat="37.9427022" lon="14.5115219"><ele>1276.5</ele><time>2026-05-03T10:47:09Z</time></trkpt><trkpt lat="37.9427975" lon="14.5116594"><ele>1275.0</ele><time>2026-05-03T10:47:10Z</time></trkpt><trkpt lat="37.9429077" lon="14.511765"><ele>1273.5</ele><time>2026-05-03T10:47:11Z</time></trkpt><trkpt lat="37.9430371" lon="14.5118318"><ele>1272.0</ele><time>2026-05-03T10:47:12Z</time></trkpt><trkpt lat="37.9431767" lon="14.5118449"><ele>1272.0</ele><time>2026-05-03T10:47:13Z</time></trkpt><trkpt lat="37.9433032" lon="14.5118042"><ele>1272.0</ele><time>2026-05-03T10:47:14Z</time></trkpt><trkpt lat="37.9434088" lon="14.5117217"><ele>1272.0</ele><time>2026-05-03T10:47:15Z</time></trkpt><trkpt lat="37.9435178" lon="14.5116319"><ele>1272.0</ele><time>2026-05-03T10:47:16Z</time></trkpt><trkpt lat="37.9436019" lon="14.5114767"><ele>1272.3333333333333</ele><time>2026-05-03T10:47:17Z</time></trkpt><trkpt lat="37.9437066" lon="14.5113559"><ele>1272.6666666666665</ele><time>2026-05-03T10:47:18Z</time></trkpt><trkpt lat="37.9438111" lon="14.5112323"><ele>1273.0</ele><time>2026-05-03T10:47:19Z</time></trkpt><trkpt lat="37.9439849" lon="14.5111932"><ele>1273.0</ele><time>2026-05-03T10:47:20Z</time></trkpt><trkpt lat="37.9441241" lon="14.5111677"><ele>1273.0</ele><time>2026-05-03T10:47:21Z</time></trkpt><trkpt lat="37.944253" lon="14.5111841"><ele>1273.0</ele><time>2026-05-03T10:47:22Z</time></trkpt><trkpt lat="37.9443715" lon="14.5112795"><ele>1273.0</ele><time>2026-05-03T10:47:23Z</time></trkpt><trkpt lat="37.9444854" lon="14.5113691"><ele>1270.5</ele><time>2026-05-03T10:47:24Z</time></trkpt><trkpt lat="37.9445988" lon="14.5114516"><ele>1268.0</ele><time>2026-05-03T10:47:25Z</time></trkpt><trkpt lat="37.9447131" lon="14.5115132"><ele>1265.5</ele><time>2026-05-03T10:47:26Z</time></trkpt><trkpt lat="37.9448165" lon="14.5115401"><ele>1263.0</ele><time>2026-05-03T10:47:27Z</time></trkpt><trkpt lat="37.9449195" lon="14.5115362"><ele>1263.0</ele><time>2026-05-03T10:47:28Z</time></trkpt><trkpt lat="37.9450267" lon="14.5115146"><ele>1263.0</ele><time>2026-05-03T10:47:29Z</time></trkpt><trkpt lat="37.9451443" lon="14.5114833"><ele>1263.0</ele><time>2026-05-03T10:47:30Z</time></trkpt><trkpt lat="37.9452653" lon="14.5114513"><ele>1263.0</ele><time>2026-05-03T10:47:31Z</time></trkpt><trkpt lat="37.9453858" lon="14.5114284"><ele>1262.75</ele><time>2026-05-03T10:47:32Z</time></trkpt><trkpt lat="37.9455096" lon="14.5114248"><ele>1262.5</ele><time>2026-05-03T10:47:33Z</time></trkpt><trkpt lat="37.94562" lon="14.5114628"><ele>1262.25</ele><time>2026-05-03T10:47:33.999Z</time></trkpt><trkpt lat="37.9457177" lon="14.5115229"><ele>1262.0</ele><time>2026-05-03T10:47:34.999Z</time></trkpt><trkpt lat="37.9458127" lon="14.5115899"><ele>1263.2</ele><time>2026-05-03T10:47:36Z</time></trkpt><trkpt lat="37.9459044" lon="14.5116584"><ele>1264.4</ele><time>2026-05-03T10:47:37Z</time></trkpt><trkpt lat="37.945994" lon="14.5117224"><ele>1265.6</ele><time>2026-05-03T10:47:38Z</time></trkpt><trkpt lat="37.9460922" lon="14.5117692"><ele>1266.8</ele><time>2026-05-03T10:47:39Z</time></trkpt><trkpt lat="37.9461927" lon="14.5118006"><ele>1268.0</ele><time>2026-05-03T10:47:40Z</time></trkpt><trkpt lat="37.9462956" lon="14.5118107"><ele>1268.0</ele><time>2026-05-03T10:47:41Z</time></trkpt><trkpt lat="37.9464033" lon="14.5118084"><ele>1268.0</ele><time>2026-05-03T10:47:42Z</time></trkpt><trkpt lat="37.9465152" lon="14.5118019"><ele>1268.0</ele><time>2026-05-03T10:47:43Z</time></trkpt><trkpt lat="37.9466325" lon="14.5117888"><ele>1268.0</ele><time>2026-05-03T10:47:44Z</time></trkpt><trkpt lat="37.9467443" lon="14.5117746"><ele>1264.4</ele><time>2026-05-03T10:47:45Z</time></trkpt><trkpt lat="37.9468431" lon="14.5117529"><ele>1260.8</ele><time>2026-05-03T10:47:46Z</time></trkpt><trkpt lat="37.9469356" lon="14.511711"><ele>1257.2</ele><time>2026-05-03T10:47:47Z</time></trkpt><trkpt lat="37.9470274" lon="14.5116514"><ele>1253.6</ele><time>2026-05-03T10:47:48Z</time></trkpt><trkpt lat="37.9471138" lon="14.5115634"><ele>1250.0</ele><time>2026-05-03T10:47:49Z</time></trkpt><trkpt lat="37.9471898" lon="14.5114501"><ele>1250.0</ele><time>2026-05-03T10:47:50Z</time></trkpt><trkpt lat="37.94725" lon="14.5113162"><ele>1250.0</ele><time>2026-05-03T10:47:51Z</time></trkpt><trkpt lat="37.9473076" lon="14.5111709"><ele>1250.0</ele><time>2026-05-03T10:47:52Z</time></trkpt><trkpt lat="37.9473714" lon="14.5110206"><ele>1250.0</ele><time>2026-05-03T10:47:53Z</time></trkpt><trkpt lat="37.9474417" lon="14.5108594"><ele>1249.25</ele><time>2026-05-03T10:47:54Z</time></trkpt><trkpt lat="37.9475176" lon="14.5107116"><ele>1248.5</ele><time>2026-05-03T10:47:55Z</time></trkpt><trkpt lat="37.9476057" lon="14.5105882"><ele>1247.75</ele><time>2026-05-03T10:47:56Z</time></trkpt><trkpt lat="37.9476879" lon="14.5104673"><ele>1247.0</ele><time>2026-05-03T10:47:57Z</time></trkpt><trkpt lat="37.9477847" lon="14.5103861"><ele>1249.0</ele><time>2026-05-03T10:47:58Z</time></trkpt><trkpt lat="37.9478926" lon="14.5103066"><ele>1251.0</ele><time>2026-05-03T10:47:59Z</time></trkpt><trkpt lat="37.9480024" lon="14.5102324"><ele>1253.0</ele><time>2026-05-03T10:48:00Z</time></trkpt><trkpt lat="37.9481327" lon="14.5102052"><ele>1255.0</ele><time>2026-05-03T10:48:01Z</time></trkpt><trkpt lat="37.9482617" lon="14.5101748"><ele>1254.25</ele><time>2026-05-03T10:48:02Z</time></trkpt><trkpt lat="37.9483998" lon="14.5101387"><ele>1253.5</ele><time>2026-05-03T10:48:03Z</time></trkpt><trkpt lat="37.9485315" lon="14.5100785"><ele>1252.75</ele><time>2026-05-03T10:48:04Z</time></trkpt><trkpt lat="37.948662" lon="14.5100055"><ele>1252.0</ele><time>2026-05-03T10:48:05Z</time></trkpt><trkpt lat="37.948785" lon="14.5099034"><ele>1252.0</ele><time>2026-05-03T10:48:06Z</time></trkpt><trkpt lat="37.9489035" lon="14.5097997"><ele>1252.0</ele><time>2026-05-03T10:48:07Z</time></trkpt><trkpt lat="37.9490235" lon="14.5096883"><ele>1252.0</ele><time>2026-05-03T10:48:08Z</time></trkpt><trkpt lat="37.9491319" lon="14.5095702"><ele>1252.0</ele><time>2026-05-03T10:48:09Z</time></trkpt><trkpt lat="37.9492271" lon="14.5094354"><ele>1249.6666666666665</ele><time>2026-05-03T10:48:10Z</time></trkpt><trkpt lat="37.9493167" lon="14.5092773"><ele>1247.3333333333333</ele><time>2026-05-03T10:48:11Z</time></trkpt><trkpt lat="37.9494033" lon="14.5090968"><ele>1245.0</ele><time>2026-05-03T10:48:12Z</time></trkpt><trkpt lat="37.9494899" lon="14.508924"><ele>1245.0</ele><time>2026-05-03T10:48:13Z</time></trkpt><trkpt lat="37.9495707" lon="14.5087685"><ele>1245.0</ele><time>2026-05-03T10:48:14Z</time></trkpt><trkpt lat="37.9496576" lon="14.5086298"><ele>1245.0</ele><time>2026-05-03T10:48:15Z</time></trkpt><trkpt lat="37.9497485" lon="14.5085156"><ele>1245.0</ele><time>2026-05-03T10:48:16Z</time></trkpt><trkpt lat="37.9498764" lon="14.5084357"><ele>1246.5</ele><time>2026-05-03T10:48:17Z</time></trkpt><trkpt lat="37.9500191" lon="14.5083849"><ele>1248.0</ele><time>2026-05-03T10:48:18Z</time></trkpt><trkpt lat="37.9501604" lon="14.5083319"><ele>1249.5</ele><time>2026-05-03T10:48:19Z</time></trkpt><trkpt lat="37.9503124" lon="14.5083153"><ele>1251.0</ele><time>2026-05-03T10:48:20Z</time></trkpt><trkpt lat="37.9504612" lon="14.50829"><ele>1251.0</ele><time>2026-05-03T10:48:21Z</time></trkpt><trkpt lat="37.950623" lon="14.5082695"><ele>1251.0</ele><time>2026-05-03T10:48:22Z</time></trkpt><trkpt lat="37.9507812" lon="14.5082546"><ele>1251.0</ele><time>2026-05-03T10:48:23Z</time></trkpt><trkpt lat="37.9509319" lon="14.5082425"><ele>1248.5</ele><time>2026-05-03T10:48:24Z</time></trkpt><trkpt lat="37.9510801" lon="14.5082126"><ele>1246.0</ele><time>2026-05-03T10:48:25Z</time></trkpt><trkpt lat="37.951217" lon="14.5081555"><ele>1243.5</ele><time>2026-05-03T10:48:26Z</time></trkpt><trkpt lat="37.9513501" lon="14.5080704"><ele>1241.0</ele><time>2026-05-03T10:48:27Z</time></trkpt><trkpt lat="37.951475" lon="14.5079793"><ele>1244.75</ele><time>2026-05-03T10:48:28Z</time></trkpt><trkpt lat="37.9515856" lon="14.507898"><ele>1248.5</ele><time>2026-05-03T10:48:29Z</time></trkpt><trkpt lat="37.9517152" lon="14.5078407"><ele>1252.25</ele><time>2026-05-03T10:48:30Z</time></trkpt><trkpt lat="37.9518332" lon="14.5078043"><ele>1256.0</ele><time>2026-05-03T10:48:31Z</time></trkpt><trkpt lat="37.9519498" lon="14.5077665"><ele>1256.0</ele><time>2026-05-03T10:48:32Z</time></trkpt><trkpt lat="37.9520953" lon="14.50784"><ele>1256.0</ele><time>2026-05-03T10:48:33Z</time></trkpt><trkpt lat="37.9522427" lon="14.5078791"><ele>1256.0</ele><time>2026-05-03T10:48:34Z</time></trkpt><trkpt lat="37.9523784" lon="14.5079117"><ele>1256.0</ele><time>2026-05-03T10:48:35Z</time></trkpt><trkpt lat="37.9525018" lon="14.5079513"><ele>1251.6666666666667</ele><time>2026-05-03T10:48:36Z</time></trkpt><trkpt lat="37.9526411" lon="14.5080362"><ele>1247.3333333333333</ele><time>2026-05-03T10:48:37Z</time></trkpt><trkpt lat="37.9527625" lon="14.5081607"><ele>1243.0</ele><time>2026-05-03T10:48:38Z</time></trkpt><trkpt lat="37.9528992" lon="14.508274"><ele>1243.0</ele><time>2026-05-03T10:48:39Z</time></trkpt><trkpt lat="37.9530405" lon="14.5084373"><ele>1243.0</ele><time>2026-05-03T10:48:40Z</time></trkpt><trkpt lat="37.9531801" lon="14.5085686"><ele>1243.0</ele><time>2026-05-03T10:48:41Z</time></trkpt><trkpt lat="37.9533086" lon="14.5086878"><ele>1236.0</ele><time>2026-05-03T10:48:42Z</time></trkpt><trkpt lat="37.9534214" lon="14.5087877"><ele>1229.0</ele><time>2026-05-03T10:48:43Z</time></trkpt><trkpt lat="37.9535535" lon="14.5088436"><ele>1222.0</ele><time>2026-05-03T10:48:44Z</time></trkpt><trkpt lat="37.953696" lon="14.5088715"><ele>1215.0</ele><time>2026-05-03T10:48:45Z</time></trkpt><trkpt lat="37.9538383" lon="14.5088652"><ele>1215.0</ele><time>2026-05-03T10:48:46Z</time></trkpt><trkpt lat="37.9539895" lon="14.508833"><ele>1215.0</ele><time>2026-05-03T10:48:47Z</time></trkpt><trkpt lat="37.9541323" lon="14.5087779"><ele>1215.0</ele><time>2026-05-03T10:48:48Z</time></trkpt><trkpt lat="37.9542673" lon="14.5087173"><ele>1215.0</ele><time>2026-05-03T10:48:49Z</time></trkpt><trkpt lat="37.9543843" lon="14.508611"><ele>1214.0</ele><time>2026-05-03T10:48:50Z</time></trkpt><trkpt lat="37.9544817" lon="14.508489"><ele>1213.0</ele><time>2026-05-03T10:48:51Z</time></trkpt><trkpt lat="37.9545644" lon="14.5083508"><ele>1212.0</ele><time>2026-05-03T10:48:52Z</time></trkpt><trkpt lat="37.9546555" lon="14.5082057"><ele>1211.0</ele><time>2026-05-03T10:48:53Z</time></trkpt><trkpt lat="37.9547443" lon="14.5080632"><ele>1216.0</ele><time>2026-05-03T10:48:54Z</time></trkpt><trkpt lat="37.954835" lon="14.5079078"><ele>1221.0</ele><time>2026-05-03T10:48:55Z</time></trkpt><trkpt lat="37.9550053" lon="14.5075981"><ele>1215.75</ele><time>2026-05-03T10:48:57Z</time></trkpt><trkpt lat="37.955077" lon="14.5074412"><ele>1210.5</ele><time>2026-05-03T10:48:58Z</time></trkpt><trkpt lat="37.9551467" lon="14.5072768"><ele>1205.25</ele><time>2026-05-03T10:48:59Z</time></trkpt><trkpt lat="37.9552043" lon="14.5071065"><ele>1200.0</ele><time>2026-05-03T10:49:00Z</time></trkpt><trkpt lat="37.955266" lon="14.5069485"><ele>1200.0</ele><time>2026-05-03T10:49:01Z</time></trkpt><trkpt lat="37.9553447" lon="14.5067887"><ele>1200.0</ele><time>2026-05-03T10:49:02Z</time></trkpt><trkpt lat="37.9554175" lon="14.5066323"><ele>1200.0</ele><time>2026-05-03T10:49:03Z</time></trkpt><trkpt lat="37.9554871" lon="14.5064755"><ele>1200.0</ele><time>2026-05-03T10:49:03.999Z</time></trkpt><trkpt lat="37.955557" lon="14.5063189"><ele>1201.6666666666667</ele><time>2026-05-03T10:49:05Z</time></trkpt><trkpt lat="37.9556241" lon="14.5061464"><ele>1203.3333333333335</ele><time>2026-05-03T10:49:06Z</time></trkpt><trkpt lat="37.9556892" lon="14.5059799"><ele>1205.0</ele><time>2026-05-03T10:49:07Z</time></trkpt><trkpt lat="37.9557533" lon="14.505803"><ele>1205.0</ele><time>2026-05-03T10:49:08Z</time></trkpt><trkpt lat="37.955827" lon="14.5056326"><ele>1205.0</ele><time>2026-05-03T10:49:09Z</time></trkpt><trkpt lat="37.9559135" lon="14.5054563"><ele>1205.0</ele><time>2026-05-03T10:49:10Z</time></trkpt><trkpt lat="37.9559957" lon="14.5052803"><ele>1199.3333333333335</ele><time>2026-05-03T10:49:11Z</time></trkpt><trkpt lat="37.9560605" lon="14.5051169"><ele>1193.6666666666667</ele><time>2026-05-03T10:49:12Z</time></trkpt><trkpt lat="37.9561608" lon="14.504947"><ele>1188.0</ele><time>2026-05-03T10:49:13Z</time></trkpt><trkpt lat="37.9562691" lon="14.5048065"><ele>1188.0</ele><time>2026-05-03T10:49:14Z</time></trkpt><trkpt lat="37.9563729" lon="14.5046453"><ele>1188.0</ele><time>2026-05-03T10:49:15Z</time></trkpt><trkpt lat="37.9564803" lon="14.5045202"><ele>1188.0</ele><time>2026-05-03T10:49:16Z</time></trkpt><trkpt lat="37.9565933" lon="14.5043987"><ele>1186.25</ele><time>2026-05-03T10:49:17Z</time></trkpt><trkpt lat="37.956715" lon="14.5042901"><ele>1184.5</ele><time>2026-05-03T10:49:18Z</time></trkpt><trkpt lat="37.956831" lon="14.5041753"><ele>1182.75</ele><time>2026-05-03T10:49:19Z</time></trkpt><trkpt lat="37.956949" lon="14.5040574"><ele>1181.0</ele><time>2026-05-03T10:49:20Z</time></trkpt><trkpt lat="37.9570505" lon="14.5039599"><ele>1181.0</ele><time>2026-05-03T10:49:21Z</time></trkpt><trkpt lat="37.9571563" lon="14.5038607"><ele>1181.0</ele><time>2026-05-03T10:49:22Z</time></trkpt><trkpt lat="37.9572677" lon="14.5037969"><ele>1181.0</ele><time>2026-05-03T10:49:23Z</time></trkpt><trkpt lat="37.957382" lon="14.503757"><ele>1181.0</ele><time>2026-05-03T10:49:24Z</time></trkpt><trkpt lat="37.9575106" lon="14.5037768"><ele>1179.75</ele><time>2026-05-03T10:49:25Z</time></trkpt><trkpt lat="37.9576375" lon="14.5037727"><ele>1178.5</ele><time>2026-05-03T10:49:26Z</time></trkpt><trkpt lat="37.9577469" lon="14.5037988"><ele>1177.25</ele><time>2026-05-03T10:49:27Z</time></trkpt><trkpt lat="37.9578721" lon="14.5038869"><ele>1176.0</ele><time>2026-05-03T10:49:28Z</time></trkpt><trkpt lat="37.9579914" lon="14.5039907"><ele>1176.0</ele><time>2026-05-03T10:49:29Z</time></trkpt><trkpt lat="37.9580954" lon="14.5041072"><ele>1176.0</ele><time>2026-05-03T10:49:30Z</time></trkpt><trkpt lat="37.9581893" lon="14.5042147"><ele>1176.0</ele><time>2026-05-03T10:49:31Z</time></trkpt><trkpt lat="37.9583039" lon="14.5042903"><ele>1176.0</ele><time>2026-05-03T10:49:32Z</time></trkpt><trkpt lat="37.9584192" lon="14.5043386"><ele>1172.3999999999999</ele><time>2026-05-03T10:49:33Z</time></trkpt><trkpt lat="37.9585289" lon="14.50435"><ele>1168.8</ele><time>2026-05-03T10:49:34Z</time></trkpt><trkpt lat="37.9586376" lon="14.5043325"><ele>1165.1999999999998</ele><time>2026-05-03T10:49:35Z</time></trkpt><trkpt lat="37.9587297" lon="14.5042883"><ele>1161.6</ele><time>2026-05-03T10:49:36Z</time></trkpt><trkpt lat="37.9588178" lon="14.5042081"><ele>1158.0</ele><time>2026-05-03T10:49:37Z</time></trkpt><trkpt lat="37.9589021" lon="14.50412"><ele>1158.0</ele><time>2026-05-03T10:49:38Z</time></trkpt><trkpt lat="37.9589345" lon="14.5039855"><ele>1158.0</ele><time>2026-05-03T10:49:39Z</time></trkpt><trkpt lat="37.9589662" lon="14.5038497"><ele>1158.0</ele><time>2026-05-03T10:49:40Z</time></trkpt><trkpt lat="37.9589732" lon="14.5037113"><ele>1158.0</ele><time>2026-05-03T10:49:41Z</time></trkpt><trkpt lat="37.9589544" lon="14.5035787"><ele>1158.0</ele><time>2026-05-03T10:49:42Z</time></trkpt><trkpt lat="37.958903" lon="14.5034584"><ele>1156.8</ele><time>2026-05-03T10:49:43Z</time></trkpt><trkpt lat="37.9588353" lon="14.5033547"><ele>1155.6</ele><time>2026-05-03T10:49:44Z</time></trkpt><trkpt lat="37.9587594" lon="14.5032566"><ele>1154.4</ele><time>2026-05-03T10:49:45Z</time></trkpt><trkpt lat="37.9586751" lon="14.5031557"><ele>1153.2</ele><time>2026-05-03T10:49:46Z</time></trkpt><trkpt lat="37.958597" lon="14.5030436"><ele>1152.0</ele><time>2026-05-03T10:49:47Z</time></trkpt><trkpt lat="37.9585312" lon="14.5029192"><ele>1149.75</ele><time>2026-05-03T10:49:48Z</time></trkpt><trkpt lat="37.9584966" lon="14.5027617"><ele>1147.5</ele><time>2026-05-03T10:49:49Z</time></trkpt><trkpt lat="37.958463" lon="14.502605"><ele>1145.25</ele><time>2026-05-03T10:49:50Z</time></trkpt><trkpt lat="37.9584848" lon="14.5023947"><ele>1143.0</ele><time>2026-05-03T10:49:51Z</time></trkpt><trkpt lat="37.9584882" lon="14.5022125"><ele>1141.0</ele><time>2026-05-03T10:49:52Z</time></trkpt><trkpt lat="37.9585139" lon="14.5020351"><ele>1139.0</ele><time>2026-05-03T10:49:53Z</time></trkpt><trkpt lat="37.9585024" lon="14.5018582"><ele>1137.0</ele><time>2026-05-03T10:49:54Z</time></trkpt><trkpt lat="37.9584878" lon="14.5016864"><ele>1135.0</ele><time>2026-05-03T10:49:55Z</time></trkpt><trkpt lat="37.9584708" lon="14.5015212"><ele>1135.0</ele><time>2026-05-03T10:49:56Z</time></trkpt><trkpt lat="37.9584582" lon="14.5013751"><ele>1135.0</ele><time>2026-05-03T10:49:57Z</time></trkpt><trkpt lat="37.9585041" lon="14.5012902"><ele>1135.0</ele><time>2026-05-03T10:49:58Z</time></trkpt><trkpt lat="37.9585311" lon="14.5011809"><ele>1135.0</ele><time>2026-05-03T10:49:59Z</time></trkpt><trkpt lat="37.9585797" lon="14.5010917"><ele>1135.0</ele><time>2026-05-03T10:50:00Z</time></trkpt><trkpt lat="37.9586959" lon="14.501132"><ele>1135.0</ele><time>2026-05-03T10:50:02Z</time></trkpt><trkpt lat="37.9588109" lon="14.5013388"><ele>1135.0</ele><time>2026-05-03T10:50:03Z</time></trkpt><trkpt lat="37.958946" lon="14.5015753"><ele>1135.0</ele><time>2026-05-03T10:50:04Z</time></trkpt><trkpt lat="37.9590537" lon="14.5017224"><ele>1135.0</ele><time>2026-05-03T10:50:05Z</time></trkpt><trkpt lat="37.9591548" lon="14.5018739"><ele>1135.0</ele><time>2026-05-03T10:50:06Z</time></trkpt><trkpt lat="37.9592031" lon="14.5020303"><ele>1135.0</ele><time>2026-05-03T10:50:07Z</time></trkpt><trkpt lat="37.9592358" lon="14.5021974"><ele>1135.0</ele><time>2026-05-03T10:50:08Z</time></trkpt><trkpt lat="37.959258" lon="14.5023686"><ele>1133.5</ele><time>2026-05-03T10:50:09Z</time></trkpt><trkpt lat="37.9592698" lon="14.5025234"><ele>1132.0</ele><time>2026-05-03T10:50:10Z</time></trkpt><trkpt lat="37.9592688" lon="14.5026697"><ele>1130.5</ele><time>2026-05-03T10:50:11Z</time></trkpt><trkpt lat="37.9592733" lon="14.5028065"><ele>1129.0</ele><time>2026-05-03T10:50:12Z</time></trkpt><trkpt lat="37.9593075" lon="14.5029366"><ele>1129.0</ele><time>2026-05-03T10:50:13Z</time></trkpt><trkpt lat="37.9593138" lon="14.5030414"><ele>1129.0</ele><time>2026-05-03T10:50:14Z</time></trkpt><trkpt lat="37.9594134" lon="14.5030527"><ele>1129.0</ele><time>2026-05-03T10:50:15Z</time></trkpt><trkpt lat="37.9594857" lon="14.5027767"><ele>1129.0</ele><time>2026-05-03T10:50:16Z</time></trkpt><trkpt lat="37.9594839" lon="14.5026287"><ele>1127.25</ele><time>2026-05-03T10:50:17Z</time></trkpt><trkpt lat="37.9594974" lon="14.5025122"><ele>1125.5</ele><time>2026-05-03T10:50:18Z</time></trkpt><trkpt lat="37.9594956" lon="14.5023661"><ele>1123.75</ele><time>2026-05-03T10:50:19Z</time></trkpt><trkpt lat="37.9594294" lon="14.5022165"><ele>1122.0</ele><time>2026-05-03T10:50:20Z</time></trkpt><trkpt lat="37.9593962" lon="14.5020507"><ele>1118.25</ele><time>2026-05-03T10:50:21Z</time></trkpt><trkpt lat="37.959363" lon="14.5018678"><ele>1114.5</ele><time>2026-05-03T10:50:22Z</time></trkpt><trkpt lat="37.9593417" lon="14.5017001"><ele>1110.75</ele><time>2026-05-03T10:50:23Z</time></trkpt><trkpt lat="37.959319" lon="14.5015338"><ele>1107.0</ele><time>2026-05-03T10:50:24Z</time></trkpt><trkpt lat="37.959302" lon="14.5013708"><ele>1106.5</ele><time>2026-05-03T10:50:25Z</time></trkpt><trkpt lat="37.9593197" lon="14.5012144"><ele>1106.0</ele><time>2026-05-03T10:50:26Z</time></trkpt><trkpt lat="37.9593409" lon="14.5010558"><ele>1105.5</ele><time>2026-05-03T10:50:27Z</time></trkpt><trkpt lat="37.959355" lon="14.5008989"><ele>1105.0</ele><time>2026-05-03T10:50:28Z</time></trkpt><trkpt lat="37.9593943" lon="14.500734"><ele>1105.0</ele><time>2026-05-03T10:50:29Z</time></trkpt><trkpt lat="37.9594348" lon="14.5005576"><ele>1105.0</ele><time>2026-05-03T10:50:30Z</time></trkpt><trkpt lat="37.959516" lon="14.5003399"><ele>1105.0</ele><time>2026-05-03T10:50:31Z</time></trkpt><trkpt lat="37.9595738" lon="14.5001335"><ele>1105.3333333333333</ele><time>2026-05-03T10:50:32Z</time></trkpt><trkpt lat="37.9595982" lon="14.4999067"><ele>1105.6666666666667</ele><time>2026-05-03T10:50:33Z</time></trkpt><trkpt lat="37.959624" lon="14.4997054"><ele>1106.0</ele><time>2026-05-03T10:50:34Z</time></trkpt><trkpt lat="37.9596444" lon="14.4995066"><ele>1105.0</ele><time>2026-05-03T10:50:35Z</time></trkpt><trkpt lat="37.9596561" lon="14.4993233"><ele>1104.0</ele><time>2026-05-03T10:50:36Z</time></trkpt><trkpt lat="37.9595874" lon="14.499163"><ele>1103.0</ele><time>2026-05-03T10:50:37Z</time></trkpt><trkpt lat="37.9595185" lon="14.4989938"><ele>1102.0</ele><time>2026-05-03T10:50:38Z</time></trkpt><trkpt lat="37.9594302" lon="14.4988201"><ele>1102.3333333333333</ele><time>2026-05-03T10:50:39Z</time></trkpt><trkpt lat="37.959332" lon="14.4986258"><ele>1102.6666666666667</ele><time>2026-05-03T10:50:40Z</time></trkpt><trkpt lat="37.9592285" lon="14.4984505"><ele>1103.0</ele><time>2026-05-03T10:50:41Z</time></trkpt><trkpt lat="37.9591342" lon="14.4982844"><ele>1103.0</ele><time>2026-05-03T10:50:42Z</time></trkpt><trkpt lat="37.959007" lon="14.4981321"><ele>1103.0</ele><time>2026-05-03T10:50:43Z</time></trkpt><trkpt lat="37.9588919" lon="14.4979819"><ele>1103.0</ele><time>2026-05-03T10:50:44Z</time></trkpt><trkpt lat="37.9587918" lon="14.4978354"><ele>1099.0</ele><time>2026-05-03T10:50:45Z</time></trkpt><trkpt lat="37.9587386" lon="14.4976867"><ele>1095.0</ele><time>2026-05-03T10:50:46Z</time></trkpt><trkpt lat="37.95868" lon="14.4975231"><ele>1091.0</ele><time>2026-05-03T10:50:47Z</time></trkpt><trkpt lat="37.9587062" lon="14.4973095"><ele>1087.0</ele><time>2026-05-03T10:50:48Z</time></trkpt><trkpt lat="37.9587259" lon="14.4971097"><ele>1085.0</ele><time>2026-05-03T10:50:49Z</time></trkpt><trkpt lat="37.9587415" lon="14.4969218"><ele>1083.0</ele><time>2026-05-03T10:50:50Z</time></trkpt><trkpt lat="37.9587292" lon="14.4967477"><ele>1081.0</ele><time>2026-05-03T10:50:51Z</time></trkpt><trkpt lat="37.958702" lon="14.496596"><ele>1079.0</ele><time>2026-05-03T10:50:52Z</time></trkpt><trkpt lat="37.9586636" lon="14.4964646"><ele>1079.0</ele><time>2026-05-03T10:50:53Z</time></trkpt><trkpt lat="37.9585966" lon="14.4963501"><ele>1079.0</ele><time>2026-05-03T10:50:54Z</time></trkpt><trkpt lat="37.9584939" lon="14.4962853"><ele>1079.0</ele><time>2026-05-03T10:50:55Z</time></trkpt><trkpt lat="37.9583756" lon="14.4962457"><ele>1079.0</ele><time>2026-05-03T10:50:56Z</time></trkpt><trkpt lat="37.9582688" lon="14.4962015"><ele>1079.75</ele><time>2026-05-03T10:50:57Z</time></trkpt><trkpt lat="37.9581643" lon="14.496146"><ele>1080.5</ele><time>2026-05-03T10:50:58Z</time></trkpt><trkpt lat="37.9580839" lon="14.4960654"><ele>1081.25</ele><time>2026-05-03T10:50:59Z</time></trkpt><trkpt lat="37.9580036" lon="14.4959674"><ele>1082.0</ele><time>2026-05-03T10:51:00Z</time></trkpt><trkpt lat="37.957928" lon="14.4957937"><ele>1082.0</ele><time>2026-05-03T10:51:01Z</time></trkpt><trkpt lat="37.9578805" lon="14.4956662"><ele>1082.0</ele><time>2026-05-03T10:51:01.999Z</time></trkpt><trkpt lat="37.9579248" lon="14.4954778"><ele>1082.0</ele><time>2026-05-03T10:51:03Z</time></trkpt><trkpt lat="37.9580489" lon="14.495269"><ele>1079.6666666666667</ele><time>2026-05-03T10:51:04Z</time></trkpt><trkpt lat="37.9580827" lon="14.4950896"><ele>1077.3333333333333</ele><time>2026-05-03T10:51:05Z</time></trkpt><trkpt lat="37.9581407" lon="14.4949127"><ele>1075.0</ele><time>2026-05-03T10:51:06Z</time></trkpt><trkpt lat="37.9582298" lon="14.4947331"><ele>1075.0</ele><time>2026-05-03T10:51:07Z</time></trkpt><trkpt lat="37.9583366" lon="14.4945746"><ele>1075.0</ele><time>2026-05-03T10:51:08Z</time></trkpt><trkpt lat="37.958415" lon="14.4943804"><ele>1075.0</ele><time>2026-05-03T10:51:09Z</time></trkpt><trkpt lat="37.9584901" lon="14.4942085"><ele>1070.5</ele><time>2026-05-03T10:51:10Z</time></trkpt><trkpt lat="37.9585555" lon="14.4940393"><ele>1066.0</ele><time>2026-05-03T10:51:11Z</time></trkpt><trkpt lat="37.9586335" lon="14.4938751"><ele>1061.5</ele><time>2026-05-03T10:51:12Z</time></trkpt><trkpt lat="37.9586975" lon="14.4937203"><ele>1057.0</ele><time>2026-05-03T10:51:13Z</time></trkpt><trkpt lat="37.9587637" lon="14.4935635"><ele>1057.0</ele><time>2026-05-03T10:51:14Z</time></trkpt><trkpt lat="37.9588276" lon="14.4934154"><ele>1057.0</ele><time>2026-05-03T10:51:15Z</time></trkpt><trkpt lat="37.9588702" lon="14.4932579"><ele>1057.0</ele><time>2026-05-03T10:51:16Z</time></trkpt><trkpt lat="37.9589107" lon="14.4930901"><ele>1057.0</ele><time>2026-05-03T10:51:17Z</time></trkpt><trkpt lat="37.9589243" lon="14.4929172"><ele>1056.5</ele><time>2026-05-03T10:51:18Z</time></trkpt><trkpt lat="37.9589466" lon="14.4927215"><ele>1056.0</ele><time>2026-05-03T10:51:19Z</time></trkpt><trkpt lat="37.9589505" lon="14.4925679"><ele>1055.5</ele><time>2026-05-03T10:51:20Z</time></trkpt><trkpt lat="37.9589703" lon="14.4923884"><ele>1055.0</ele><time>2026-05-03T10:51:21Z</time></trkpt><trkpt lat="37.9590154" lon="14.4922337"><ele>1055.0</ele><time>2026-05-03T10:51:22Z</time></trkpt><trkpt lat="37.9590578" lon="14.4920669"><ele>1055.0</ele><time>2026-05-03T10:51:23Z</time></trkpt><trkpt lat="37.9591409" lon="14.4919296"><ele>1055.0</ele><time>2026-05-03T10:51:24Z</time></trkpt><trkpt lat="37.9591933" lon="14.4917923"><ele>1055.0</ele><time>2026-05-03T10:51:25Z</time></trkpt><trkpt lat="37.9592491" lon="14.4916619"><ele>1053.0</ele><time>2026-05-03T10:51:26Z</time></trkpt><trkpt lat="37.9592885" lon="14.4915281"><ele>1051.0</ele><time>2026-05-03T10:51:26.999Z</time></trkpt><trkpt lat="37.9592787" lon="14.4913575"><ele>1049.0</ele><time>2026-05-03T10:51:28Z</time></trkpt><trkpt lat="37.9592452" lon="14.4912201"><ele>1047.0</ele><time>2026-05-03T10:51:29Z</time></trkpt><trkpt lat="37.9592006" lon="14.4910406"><ele>1047.0</ele><time>2026-05-03T10:51:30Z</time></trkpt><trkpt lat="37.959112" lon="14.4908944"><ele>1047.0</ele><time>2026-05-03T10:51:31Z</time></trkpt><trkpt lat="37.9590638" lon="14.4907754"><ele>1047.0</ele><time>2026-05-03T10:51:32Z</time></trkpt><trkpt lat="37.9590794" lon="14.4906484"><ele>1047.0</ele><time>2026-05-03T10:51:33Z</time></trkpt><trkpt lat="37.9591058" lon="14.4905248"><ele>1044.2</ele><time>2026-05-03T10:51:34Z</time></trkpt><trkpt lat="37.9592257" lon="14.4905049"><ele>1041.4</ele><time>2026-05-03T10:51:35Z</time></trkpt><trkpt lat="37.9593204" lon="14.490495"><ele>1038.6</ele><time>2026-05-03T10:51:36Z</time></trkpt><trkpt lat="37.9594165" lon="14.4905476"><ele>1035.8</ele><time>2026-05-03T10:51:37Z</time></trkpt><trkpt lat="37.9595047" lon="14.4905846"><ele>1033.0</ele><time>2026-05-03T10:51:38Z</time></trkpt><trkpt lat="37.9595234" lon="14.4907581"><ele>1033.0</ele><time>2026-05-03T10:51:39Z</time></trkpt><trkpt lat="37.9595562" lon="14.490901"><ele>1033.0</ele><time>2026-05-03T10:51:40Z</time></trkpt><trkpt lat="37.9595479" lon="14.4910881"><ele>1033.0</ele><time>2026-05-03T10:51:41Z</time></trkpt><trkpt lat="37.959552" lon="14.4912607"><ele>1033.0</ele><time>2026-05-03T10:51:42Z</time></trkpt><trkpt lat="37.9595667" lon="14.4914277"><ele>1033.0</ele><time>2026-05-03T10:51:43Z</time></trkpt><trkpt lat="37.959589" lon="14.4915856"><ele>1033.0</ele><time>2026-05-03T10:51:44Z</time></trkpt><trkpt lat="37.9596215" lon="14.4917428"><ele>1033.0</ele><time>2026-05-03T10:51:45Z</time></trkpt><trkpt lat="37.9596708" lon="14.4918813"><ele>1033.0</ele><time>2026-05-03T10:51:46Z</time></trkpt><trkpt lat="37.9597748" lon="14.4920836"><ele>1033.0</ele><time>2026-05-03T10:51:47Z</time></trkpt><trkpt lat="37.9598495" lon="14.4922376"><ele>1033.0</ele><time>2026-05-03T10:51:48Z</time></trkpt><trkpt lat="37.9599015" lon="14.4924289"><ele>1033.0</ele><time>2026-05-03T10:51:49Z</time></trkpt><trkpt lat="37.9599414" lon="14.4926318"><ele>1033.0</ele><time>2026-05-03T10:51:50Z</time></trkpt><trkpt lat="37.9599894" lon="14.4928427"><ele>1033.0</ele><time>2026-05-03T10:51:50.999Z</time></trkpt><trkpt lat="37.9600301" lon="14.493051"><ele>1033.0</ele><time>2026-05-03T10:51:52Z</time></trkpt><trkpt lat="37.9600615" lon="14.4932472"><ele>1029.0</ele><time>2026-05-03T10:51:53Z</time></trkpt><trkpt lat="37.9600913" lon="14.4934411"><ele>1025.0</ele><time>2026-05-03T10:51:54Z</time></trkpt><trkpt lat="37.9601214" lon="14.493627"><ele>1021.0</ele><time>2026-05-03T10:51:55Z</time></trkpt><trkpt lat="37.9601398" lon="14.4938003"><ele>1017.0</ele><time>2026-05-03T10:51:56Z</time></trkpt><trkpt lat="37.9601535" lon="14.4939449"><ele>1017.0</ele><time>2026-05-03T10:51:57Z</time></trkpt><trkpt lat="37.9601992" lon="14.4940779"><ele>1017.0</ele><time>2026-05-03T10:51:58Z</time></trkpt><trkpt lat="37.960256" lon="14.4941578"><ele>1017.0</ele><time>2026-05-03T10:51:59Z</time></trkpt><trkpt lat="37.9603226" lon="14.4941933"><ele>1017.0</ele><time>2026-05-03T10:52:00Z</time></trkpt><trkpt lat="37.9603934" lon="14.4941984"><ele>1017.0</ele><time>2026-05-03T10:52:01Z</time></trkpt><trkpt lat="37.960473" lon="14.4941909"><ele>1017.0</ele><time>2026-05-03T10:52:02Z</time></trkpt><trkpt lat="37.9605381" lon="14.4941457"><ele>1017.0</ele><time>2026-05-03T10:52:03Z</time></trkpt><trkpt lat="37.9605858" lon="14.4940666"><ele>1017.0</ele><time>2026-05-03T10:52:04Z</time></trkpt><trkpt lat="37.960607" lon="14.4939672"><ele>1017.0</ele><time>2026-05-03T10:52:05Z</time></trkpt><trkpt lat="37.96059" lon="14.4938445"><ele>1017.0</ele><time>2026-05-03T10:52:06Z</time></trkpt><trkpt lat="37.960543" lon="14.4937329"><ele>1017.0</ele><time>2026-05-03T10:52:07Z</time></trkpt><trkpt lat="37.9604973" lon="14.4936149"><ele>1015.4000000000001</ele><time>2026-05-03T10:52:08Z</time></trkpt><trkpt lat="37.960473" lon="14.493489"><ele>1013.8000000000001</ele><time>2026-05-03T10:52:09Z</time></trkpt><trkpt lat="37.9604517" lon="14.4933695"><ele>1012.2</ele><time>2026-05-03T10:52:10Z</time></trkpt><trkpt lat="37.9604605" lon="14.4932252"><ele>1010.6</ele><time>2026-05-03T10:52:11Z</time></trkpt><trkpt lat="37.9604774" lon="14.4930886"><ele>1009.0</ele><time>2026-05-03T10:52:12Z</time></trkpt><trkpt lat="37.960519" lon="14.4929461"><ele>1009.0</ele><time>2026-05-03T10:52:13Z</time></trkpt><trkpt lat="37.9605682" lon="14.4928056"><ele>1009.0</ele><time>2026-05-03T10:52:14Z</time></trkpt><trkpt lat="37.9606213" lon="14.4926692"><ele>1009.0</ele><time>2026-05-03T10:52:15Z</time></trkpt><trkpt lat="37.9606803" lon="14.4925297"><ele>1009.0</ele><time>2026-05-03T10:52:16Z</time></trkpt><trkpt lat="37.9607439" lon="14.4923883"><ele>1009.0</ele><time>2026-05-03T10:52:17Z</time></trkpt><trkpt lat="37.9608112" lon="14.4922528"><ele>1009.0</ele><time>2026-05-03T10:52:18Z</time></trkpt><trkpt lat="37.9609013" lon="14.4921133"><ele>1009.0</ele><time>2026-05-03T10:52:19Z</time></trkpt><trkpt lat="37.960997" lon="14.4919698"><ele>1009.0</ele><time>2026-05-03T10:52:20Z</time></trkpt><trkpt lat="37.9611273" lon="14.4918333"><ele>1003.6666666666666</ele><time>2026-05-03T10:52:21Z</time></trkpt><trkpt lat="37.9612426" lon="14.4916919"><ele>998.3333333333333</ele><time>2026-05-03T10:52:22Z</time></trkpt><trkpt lat="37.9613493" lon="14.4915571"><ele>993.0</ele><time>2026-05-03T10:52:23Z</time></trkpt><trkpt lat="37.9614575" lon="14.4914172"><ele>993.0</ele><time>2026-05-03T10:52:24Z</time></trkpt><trkpt lat="37.9615528" lon="14.4912861"><ele>993.0</ele><time>2026-05-03T10:52:25Z</time></trkpt><trkpt lat="37.9616439" lon="14.4911475"><ele>993.0</ele><time>2026-05-03T10:52:26Z</time></trkpt><trkpt lat="37.9617224" lon="14.4909969"><ele>993.0</ele><time>2026-05-03T10:52:27Z</time></trkpt><trkpt lat="37.9617905" lon="14.4908444"><ele>992.0</ele><time>2026-05-03T10:52:28Z</time></trkpt><trkpt lat="37.9618504" lon="14.4906804"><ele>991.0</ele><time>2026-05-03T10:52:29Z</time></trkpt><trkpt lat="37.9619082" lon="14.490525"><ele>990.0</ele><time>2026-05-03T10:52:30Z</time></trkpt><trkpt lat="37.9619689" lon="14.490375"><ele>989.0</ele><time>2026-05-03T10:52:31Z</time></trkpt><trkpt lat="37.9620261" lon="14.4902275"><ele>989.0</ele><time>2026-05-03T10:52:32Z</time></trkpt><trkpt lat="37.9620888" lon="14.4900896"><ele>989.0</ele><time>2026-05-03T10:52:33Z</time></trkpt><trkpt lat="37.9621713" lon="14.4899888"><ele>989.0</ele><time>2026-05-03T10:52:34Z</time></trkpt><trkpt lat="37.9622599" lon="14.4898912"><ele>989.0</ele><time>2026-05-03T10:52:35Z</time></trkpt><trkpt lat="37.9623643" lon="14.4898121"><ele>989.0</ele><time>2026-05-03T10:52:36Z</time></trkpt><trkpt lat="37.9624727" lon="14.4897368"><ele>989.0</ele><time>2026-05-03T10:52:37Z</time></trkpt><trkpt lat="37.9625762" lon="14.4896564"><ele>989.0</ele><time>2026-05-03T10:52:38Z</time></trkpt><trkpt lat="37.9626717" lon="14.4895792"><ele>989.0</ele><time>2026-05-03T10:52:39Z</time></trkpt><trkpt lat="37.962759" lon="14.4894646"><ele>985.25</ele><time>2026-05-03T10:52:40Z</time></trkpt><trkpt lat="37.9628242" lon="14.4893622"><ele>981.5</ele><time>2026-05-03T10:52:41Z</time></trkpt><trkpt lat="37.9628945" lon="14.4892471"><ele>977.75</ele><time>2026-05-03T10:52:42Z</time></trkpt><trkpt lat="37.9629584" lon="14.4891148"><ele>974.0</ele><time>2026-05-03T10:52:43Z</time></trkpt><trkpt lat="37.9630265" lon="14.4889705"><ele>974.0</ele><time>2026-05-03T10:52:44Z</time></trkpt><trkpt lat="37.9630926" lon="14.4888446"><ele>974.0000000000001</ele><time>2026-05-03T10:52:45Z</time></trkpt><trkpt lat="37.9631637" lon="14.4887304"><ele>974.0000000000001</ele><time>2026-05-03T10:52:46Z</time></trkpt><trkpt lat="37.9632321" lon="14.4886355"><ele>974.0</ele><time>2026-05-03T10:52:47Z</time></trkpt><trkpt lat="37.9632985" lon="14.4885336"><ele>974.0</ele><time>2026-05-03T10:52:48Z</time></trkpt><trkpt lat="37.9633755" lon="14.4884374"><ele>975.25</ele><time>2026-05-03T10:52:49Z</time></trkpt><trkpt lat="37.9634587" lon="14.4883499"><ele>976.5</ele><time>2026-05-03T10:52:50Z</time></trkpt><trkpt lat="37.9635727" lon="14.4882954"><ele>977.75</ele><time>2026-05-03T10:52:51Z</time></trkpt><trkpt lat="37.9636845" lon="14.4882249"><ele>979.0</ele><time>2026-05-03T10:52:52Z</time></trkpt><trkpt lat="37.9638042" lon="14.488204"><ele>979.0</ele><time>2026-05-03T10:52:53Z</time></trkpt><trkpt lat="37.9639297" lon="14.4881877"><ele>979.0</ele><time>2026-05-03T10:52:54Z</time></trkpt><trkpt lat="37.9640487" lon="14.4881725"><ele>979.0</ele><time>2026-05-03T10:52:55Z</time></trkpt><trkpt lat="37.9641655" lon="14.488119"><ele>979.0</ele><time>2026-05-03T10:52:56Z</time></trkpt><trkpt lat="37.9642764" lon="14.4880563"><ele>978.0</ele><time>2026-05-03T10:52:57Z</time></trkpt><trkpt lat="37.9643825" lon="14.4879687"><ele>977.0</ele><time>2026-05-03T10:52:58Z</time></trkpt><trkpt lat="37.964479" lon="14.4878721"><ele>976.0</ele><time>2026-05-03T10:52:59Z</time></trkpt><trkpt lat="37.9645881" lon="14.4877725"><ele>975.0</ele><time>2026-05-03T10:53:00Z</time></trkpt><trkpt lat="37.9646813" lon="14.4876606"><ele>975.0</ele><time>2026-05-03T10:53:01Z</time></trkpt><trkpt lat="37.9647914" lon="14.4875228"><ele>975.0</ele><time>2026-05-03T10:53:02Z</time></trkpt><trkpt lat="37.9649091" lon="14.4874095"><ele>975.0</ele><time>2026-05-03T10:53:03Z</time></trkpt><trkpt lat="37.965023" lon="14.4872808"><ele>971.6666666666667</ele><time>2026-05-03T10:53:04Z</time></trkpt><trkpt lat="37.9651376" lon="14.4871555"><ele>968.3333333333334</ele><time>2026-05-03T10:53:05Z</time></trkpt><trkpt lat="37.9652531" lon="14.4870243"><ele>965.0</ele><time>2026-05-03T10:53:06Z</time></trkpt><trkpt lat="37.9653607" lon="14.4868962"><ele>965.0</ele><time>2026-05-03T10:53:07Z</time></trkpt><trkpt lat="37.9654572" lon="14.4867841"><ele>965.0</ele><time>2026-05-03T10:53:08Z</time></trkpt><trkpt lat="37.9655611" lon="14.4866703"><ele>965.0</ele><time>2026-05-03T10:53:09Z</time></trkpt><trkpt lat="37.9656613" lon="14.4865523"><ele>965.0</ele><time>2026-05-03T10:53:10Z</time></trkpt><trkpt lat="37.9657595" lon="14.4864441"><ele>965.0</ele><time>2026-05-03T10:53:11Z</time></trkpt><trkpt lat="37.9658477" lon="14.4863295"><ele>965.0</ele><time>2026-05-03T10:53:12Z</time></trkpt><trkpt lat="37.9659429" lon="14.4862409"><ele>965.0</ele><time>2026-05-03T10:53:13Z</time></trkpt><trkpt lat="37.9660322" lon="14.4861585"><ele>965.0</ele><time>2026-05-03T10:53:14Z</time></trkpt><trkpt lat="37.9661225" lon="14.4860709"><ele>964.2</ele><time>2026-05-03T10:53:15Z</time></trkpt><trkpt lat="37.9662156" lon="14.4860058"><ele>963.4</ele><time>2026-05-03T10:53:16Z</time></trkpt><trkpt lat="37.9662801" lon="14.4859335"><ele>962.5999999999999</ele><time>2026-05-03T10:53:17Z</time></trkpt><trkpt lat="37.9663562" lon="14.4859633"><ele>961.8</ele><time>2026-05-03T10:53:18Z</time></trkpt><trkpt lat="37.9664296" lon="14.4860383"><ele>961.0</ele><time>2026-05-03T10:53:19Z</time></trkpt><trkpt lat="37.9664948" lon="14.4861579"><ele>958.75</ele><time>2026-05-03T10:53:20Z</time></trkpt><trkpt lat="37.9664037" lon="14.4863363"><ele>956.5</ele><time>2026-05-03T10:53:21Z</time></trkpt><trkpt lat="37.9663544" lon="14.486469"><ele>954.25</ele><time>2026-05-03T10:53:22Z</time></trkpt><trkpt lat="37.9662805" lon="14.4865967"><ele>952.0</ele><time>2026-05-03T10:53:23Z</time></trkpt><trkpt lat="37.9662294" lon="14.4867241"><ele>952.0</ele><time>2026-05-03T10:53:24Z</time></trkpt><trkpt lat="37.9662071" lon="14.486882"><ele>952.0</ele><time>2026-05-03T10:53:25Z</time></trkpt><trkpt lat="37.9661865" lon="14.4870541"><ele>952.0</ele><time>2026-05-03T10:53:26Z</time></trkpt><trkpt lat="37.9661759" lon="14.4872152"><ele>952.0</ele><time>2026-05-03T10:53:27Z</time></trkpt><trkpt lat="37.9661814" lon="14.487376"><ele>948.75</ele><time>2026-05-03T10:53:28Z</time></trkpt><trkpt lat="37.9661854" lon="14.4875491"><ele>945.5</ele><time>2026-05-03T10:53:29Z</time></trkpt><trkpt lat="37.9661484" lon="14.4877135"><ele>942.25</ele><time>2026-05-03T10:53:30Z</time></trkpt><trkpt lat="37.9661089" lon="14.4878675"><ele>939.0</ele><time>2026-05-03T10:53:31Z</time></trkpt><trkpt lat="37.9660658" lon="14.4880183"><ele>938.0</ele><time>2026-05-03T10:53:32Z</time></trkpt><trkpt lat="37.9660268" lon="14.4881629"><ele>937.0</ele><time>2026-05-03T10:53:33Z</time></trkpt><trkpt lat="37.9659322" lon="14.488281"><ele>936.0</ele><time>2026-05-03T10:53:34Z</time></trkpt><trkpt lat="37.9658645" lon="14.4884039"><ele>935.0</ele><time>2026-05-03T10:53:35Z</time></trkpt><trkpt lat="37.9657412" lon="14.4884631"><ele>935.75</ele><time>2026-05-03T10:53:36Z</time></trkpt><trkpt lat="37.9656435" lon="14.4885573"><ele>936.5</ele><time>2026-05-03T10:53:37Z</time></trkpt><trkpt lat="37.9655189" lon="14.4886329"><ele>937.25</ele><time>2026-05-03T10:53:38Z</time></trkpt><trkpt lat="37.965403" lon="14.4886989"><ele>938.0</ele><time>2026-05-03T10:53:39Z</time></trkpt><trkpt lat="37.9652949" lon="14.4887924"><ele>938.0000000000001</ele><time>2026-05-03T10:53:40Z</time></trkpt><trkpt lat="37.9652507" lon="14.4889103"><ele>938.0</ele><time>2026-05-03T10:53:41Z</time></trkpt><trkpt lat="37.965251" lon="14.4890107"><ele>938.0</ele><time>2026-05-03T10:53:42Z</time></trkpt><trkpt lat="37.9652852" lon="14.4890994"><ele>938.0</ele><time>2026-05-03T10:53:43Z</time></trkpt><trkpt lat="37.9653405" lon="14.4891629"><ele>938.0000000000001</ele><time>2026-05-03T10:53:44Z</time></trkpt><trkpt lat="37.965424" lon="14.4892188"><ele>938.0</ele><time>2026-05-03T10:53:45Z</time></trkpt><trkpt lat="37.965524" lon="14.4892419"><ele>938.0</ele><time>2026-05-03T10:53:46Z</time></trkpt><trkpt lat="37.9656397" lon="14.4892311"><ele>938.0</ele><time>2026-05-03T10:53:47Z</time></trkpt><trkpt lat="37.9657567" lon="14.4892334"><ele>938.0</ele><time>2026-05-03T10:53:48Z</time></trkpt><trkpt lat="37.9659062" lon="14.4892337"><ele>938.0</ele><time>2026-05-03T10:53:49Z</time></trkpt><trkpt lat="37.9660366" lon="14.4892422"><ele>935.25</ele><time>2026-05-03T10:53:50Z</time></trkpt><trkpt lat="37.9661569" lon="14.4892379"><ele>932.5</ele><time>2026-05-03T10:53:51Z</time></trkpt><trkpt lat="37.9662664" lon="14.4892381"><ele>929.75</ele><time>2026-05-03T10:53:52Z</time></trkpt><trkpt lat="37.9663738" lon="14.4891935"><ele>927.0</ele><time>2026-05-03T10:53:53Z</time></trkpt><trkpt lat="37.9664627" lon="14.4890797"><ele>927.0</ele><time>2026-05-03T10:53:54Z</time></trkpt><trkpt lat="37.9665507" lon="14.4889976"><ele>927.0</ele><time>2026-05-03T10:53:55Z</time></trkpt><trkpt lat="37.9666135" lon="14.4888684"><ele>927.0</ele><time>2026-05-03T10:53:56Z</time></trkpt><trkpt lat="37.9666508" lon="14.4886599"><ele>927.0</ele><time>2026-05-03T10:53:57Z</time></trkpt><trkpt lat="37.9667044" lon="14.4884871"><ele>922.0</ele><time>2026-05-03T10:53:58Z</time></trkpt><trkpt lat="37.9667612" lon="14.4883234"><ele>917.0</ele><time>2026-05-03T10:53:59Z</time></trkpt><trkpt lat="37.9668213" lon="14.4881225"><ele>912.0</ele><time>2026-05-03T10:54:00Z</time></trkpt><trkpt lat="37.9668736" lon="14.4879387"><ele>913.25</ele><time>2026-05-03T10:54:01Z</time></trkpt><trkpt lat="37.9669414" lon="14.487783"><ele>914.5</ele><time>2026-05-03T10:54:02Z</time></trkpt><trkpt lat="37.9670025" lon="14.4876263"><ele>915.75</ele><time>2026-05-03T10:54:03Z</time></trkpt><trkpt lat="37.9670656" lon="14.4874579"><ele>917.0</ele><time>2026-05-03T10:54:04Z</time></trkpt><trkpt lat="37.9671589" lon="14.4873176"><ele>917.0</ele><time>2026-05-03T10:54:05Z</time></trkpt><trkpt lat="37.9672489" lon="14.487188"><ele>917.0</ele><time>2026-05-03T10:54:06Z</time></trkpt><trkpt lat="37.9673656" lon="14.4870746"><ele>917.0</ele><time>2026-05-03T10:54:07Z</time></trkpt><trkpt lat="37.9674894" lon="14.4869168"><ele>912.6666666666667</ele><time>2026-05-03T10:54:08Z</time></trkpt><trkpt lat="37.9676098" lon="14.4867906"><ele>908.3333333333333</ele><time>2026-05-03T10:54:09Z</time></trkpt><trkpt lat="37.9677259" lon="14.4866601"><ele>904.0</ele><time>2026-05-03T10:54:10Z</time></trkpt><trkpt lat="37.9678341" lon="14.4865422"><ele>904.0</ele><time>2026-05-03T10:54:11Z</time></trkpt><trkpt lat="37.9679615" lon="14.4863722"><ele>904.0</ele><time>2026-05-03T10:54:12Z</time></trkpt><trkpt lat="37.9680357" lon="14.4862344"><ele>904.0</ele><time>2026-05-03T10:54:13Z</time></trkpt><trkpt lat="37.9681393" lon="14.4861029"><ele>901.25</ele><time>2026-05-03T10:54:14Z</time></trkpt><trkpt lat="37.9682271" lon="14.48598"><ele>898.5</ele><time>2026-05-03T10:54:15Z</time></trkpt><trkpt lat="37.9683341" lon="14.4858759"><ele>895.75</ele><time>2026-05-03T10:54:16Z</time></trkpt><trkpt lat="37.9684452" lon="14.4858031"><ele>893.0</ele><time>2026-05-03T10:54:17Z</time></trkpt><trkpt lat="37.9685928" lon="14.4857786"><ele>893.0</ele><time>2026-05-03T10:54:18Z</time></trkpt><trkpt lat="37.9687199" lon="14.4857092"><ele>893.0</ele><time>2026-05-03T10:54:19Z</time></trkpt><trkpt lat="37.9688395" lon="14.4856134"><ele>893.0</ele><time>2026-05-03T10:54:20Z</time></trkpt><trkpt lat="37.9689313" lon="14.4854542"><ele>893.0</ele><time>2026-05-03T10:54:21Z</time></trkpt><trkpt lat="37.9689802" lon="14.4853426"><ele>895.25</ele><time>2026-05-03T10:54:22Z</time></trkpt><trkpt lat="37.9690403" lon="14.485183"><ele>897.5</ele><time>2026-05-03T10:54:23Z</time></trkpt><trkpt lat="37.9691083" lon="14.4850558"><ele>899.75</ele><time>2026-05-03T10:54:24Z</time></trkpt><trkpt lat="37.9691666" lon="14.4849121"><ele>902.0</ele><time>2026-05-03T10:54:25Z</time></trkpt><trkpt lat="37.9692009" lon="14.4847504"><ele>898.25</ele><time>2026-05-03T10:54:26Z</time></trkpt><trkpt lat="37.9692326" lon="14.4845811"><ele>894.5</ele><time>2026-05-03T10:54:27Z</time></trkpt><trkpt lat="37.969255" lon="14.4844102"><ele>890.75</ele><time>2026-05-03T10:54:28Z</time></trkpt><trkpt lat="37.9692852" lon="14.484258"><ele>887.0</ele><time>2026-05-03T10:54:29Z</time></trkpt><trkpt lat="37.9693243" lon="14.4841212"><ele>887.0</ele><time>2026-05-03T10:54:30Z</time></trkpt><trkpt lat="37.969406" lon="14.4840285"><ele>887.0</ele><time>2026-05-03T10:54:31Z</time></trkpt><trkpt lat="37.9694689" lon="14.4839232"><ele>887.0</ele><time>2026-05-03T10:54:32Z</time></trkpt><trkpt lat="37.9695648" lon="14.4838766"><ele>887.0</ele><time>2026-05-03T10:54:33Z</time></trkpt><trkpt lat="37.9697169" lon="14.4839239"><ele>887.0</ele><time>2026-05-03T10:54:34Z</time></trkpt><trkpt lat="37.9698346" lon="14.4840254"><ele>887.0</ele><time>2026-05-03T10:54:35Z</time></trkpt><trkpt lat="37.9699601" lon="14.4840395"><ele>887.0</ele><time>2026-05-03T10:54:36Z</time></trkpt><trkpt lat="37.9700789" lon="14.4840112"><ele>887.0</ele><time>2026-05-03T10:54:37Z</time></trkpt><trkpt lat="37.9701964" lon="14.4839702"><ele>885.5</ele><time>2026-05-03T10:54:38Z</time></trkpt><trkpt lat="37.9703023" lon="14.4839119"><ele>884.0</ele><time>2026-05-03T10:54:39Z</time></trkpt><trkpt lat="37.9704165" lon="14.4838733"><ele>882.5</ele><time>2026-05-03T10:54:40Z</time></trkpt><trkpt lat="37.9705237" lon="14.4838702"><ele>881.0</ele><time>2026-05-03T10:54:41Z</time></trkpt><trkpt lat="37.9706785" lon="14.4839467"><ele>881.0</ele><time>2026-05-03T10:54:42Z</time></trkpt><trkpt lat="37.9707338" lon="14.4840378"><ele>880.9999999999999</ele><time>2026-05-03T10:54:43Z</time></trkpt><trkpt lat="37.9708461" lon="14.484098"><ele>880.9999999999999</ele><time>2026-05-03T10:54:44Z</time></trkpt><trkpt lat="37.9709631" lon="14.4840986"><ele>881.0</ele><time>2026-05-03T10:54:45Z</time></trkpt><trkpt lat="37.9710698" lon="14.4840815"><ele>881.0</ele><time>2026-05-03T10:54:46Z</time></trkpt><trkpt lat="37.9711798" lon="14.484073"><ele>880.25</ele><time>2026-05-03T10:54:47Z</time></trkpt><trkpt lat="37.9713003" lon="14.4840107"><ele>879.5</ele><time>2026-05-03T10:54:48Z</time></trkpt><trkpt lat="37.9713608" lon="14.4839196"><ele>878.75</ele><time>2026-05-03T10:54:49Z</time></trkpt><trkpt lat="37.9714746" lon="14.4837933"><ele>878.0</ele><time>2026-05-03T10:54:50Z</time></trkpt><trkpt lat="37.9715576" lon="14.4836742"><ele>878.0</ele><time>2026-05-03T10:54:51Z</time></trkpt><trkpt lat="37.9716474" lon="14.4835317"><ele>878.0</ele><time>2026-05-03T10:54:52Z</time></trkpt><trkpt lat="37.9717353" lon="14.4834258"><ele>878.0</ele><time>2026-05-03T10:54:53Z</time></trkpt><trkpt lat="37.9717921" lon="14.4832941"><ele>878.0</ele><time>2026-05-03T10:54:54Z</time></trkpt><trkpt lat="37.9718158" lon="14.4831575"><ele>871.75</ele><time>2026-05-03T10:54:55Z</time></trkpt><trkpt lat="37.9718431" lon="14.4830362"><ele>865.5</ele><time>2026-05-03T10:54:56Z</time></trkpt><trkpt lat="37.971861" lon="14.4828873"><ele>859.25</ele><time>2026-05-03T10:54:57Z</time></trkpt><trkpt lat="37.971814" lon="14.4826778"><ele>853.0</ele><time>2026-05-03T10:54:58Z</time></trkpt><trkpt lat="37.9717875" lon="14.4824896"><ele>856.0</ele><time>2026-05-03T10:54:59Z</time></trkpt><trkpt lat="37.9716814" lon="14.4823034"><ele>859.0</ele><time>2026-05-03T10:55:00Z</time></trkpt><trkpt lat="37.9716296" lon="14.4821481"><ele>862.0</ele><time>2026-05-03T10:55:01Z</time></trkpt><trkpt lat="37.9715827" lon="14.4819921"><ele>865.0</ele><time>2026-05-03T10:55:02Z</time></trkpt><trkpt lat="37.971563" lon="14.4818403"><ele>865.0</ele><time>2026-05-03T10:55:03Z</time></trkpt><trkpt lat="37.9715891" lon="14.4816984"><ele>865.0</ele><time>2026-05-03T10:55:04Z</time></trkpt><trkpt lat="37.9716227" lon="14.481555"><ele>865.0</ele><time>2026-05-03T10:55:05Z</time></trkpt><trkpt lat="37.9716949" lon="14.481411"><ele>865.0</ele><time>2026-05-03T10:55:06Z</time></trkpt><trkpt lat="37.9717619" lon="14.4812754"><ele>858.25</ele><time>2026-05-03T10:55:07Z</time></trkpt><trkpt lat="37.971832" lon="14.4811402"><ele>851.5</ele><time>2026-05-03T10:55:08Z</time></trkpt><trkpt lat="37.9719088" lon="14.4809733"><ele>844.75</ele><time>2026-05-03T10:55:09Z</time></trkpt><trkpt lat="37.9719808" lon="14.4808178"><ele>838.0</ele><time>2026-05-03T10:55:10Z</time></trkpt><trkpt lat="37.972043" lon="14.4806721"><ele>838.0</ele><time>2026-05-03T10:55:11Z</time></trkpt><trkpt lat="37.9721173" lon="14.4805093"><ele>838.0</ele><time>2026-05-03T10:55:12Z</time></trkpt><trkpt lat="37.9721898" lon="14.4803582"><ele>838.0</ele><time>2026-05-03T10:55:13Z</time></trkpt><trkpt lat="37.972263" lon="14.4802138"><ele>838.0</ele><time>2026-05-03T10:55:14Z</time></trkpt><trkpt lat="37.9723234" lon="14.4800862"><ele>835.75</ele><time>2026-05-03T10:55:15Z</time></trkpt><trkpt lat="37.9724034" lon="14.4799842"><ele>833.5</ele><time>2026-05-03T10:55:15.999Z</time></trkpt><trkpt lat="37.9725056" lon="14.4798947"><ele>831.25</ele><time>2026-05-03T10:55:17Z</time></trkpt><trkpt lat="37.9726178" lon="14.4798264"><ele>829.0</ele><time>2026-05-03T10:55:18Z</time></trkpt><trkpt lat="37.972741" lon="14.4797675"><ele>829.0</ele><time>2026-05-03T10:55:19Z</time></trkpt><trkpt lat="37.9728374" lon="14.4796984"><ele>829.0</ele><time>2026-05-03T10:55:20Z</time></trkpt><trkpt lat="37.9729609" lon="14.4796347"><ele>829.0</ele><time>2026-05-03T10:55:21Z</time></trkpt><trkpt lat="37.9730553" lon="14.479513"><ele>829.0</ele><time>2026-05-03T10:55:22Z</time></trkpt><trkpt lat="37.9731526" lon="14.4794139"><ele>830.75</ele><time>2026-05-03T10:55:23Z</time></trkpt><trkpt lat="37.9732461" lon="14.4793044"><ele>832.5</ele><time>2026-05-03T10:55:24Z</time></trkpt><trkpt lat="37.9733423" lon="14.4791899"><ele>834.25</ele><time>2026-05-03T10:55:25Z</time></trkpt><trkpt lat="37.9734511" lon="14.4791183"><ele>836.0</ele><time>2026-05-03T10:55:26Z</time></trkpt><trkpt lat="37.9735452" lon="14.479011"><ele>836.0</ele><time>2026-05-03T10:55:27Z</time></trkpt><trkpt lat="37.9736686" lon="14.4789859"><ele>836.0</ele><time>2026-05-03T10:55:28Z</time></trkpt><trkpt lat="37.9737763" lon="14.4789636"><ele>836.0</ele><time>2026-05-03T10:55:29Z</time></trkpt><trkpt lat="37.9738812" lon="14.4790554"><ele>836.0</ele><time>2026-05-03T10:55:30Z</time></trkpt><trkpt lat="37.9739904" lon="14.4791677"><ele>836.0</ele><time>2026-05-03T10:55:31Z</time></trkpt><trkpt lat="37.9741043" lon="14.4792346"><ele>836.0</ele><time>2026-05-03T10:55:32Z</time></trkpt><trkpt lat="37.9742026" lon="14.4792451"><ele>836.0</ele><time>2026-05-03T10:55:33Z</time></trkpt><trkpt lat="37.9742848" lon="14.4792154"><ele>836.0</ele><time>2026-05-03T10:55:34Z</time></trkpt><trkpt lat="37.9743342" lon="14.4791575"><ele>836.0</ele><time>2026-05-03T10:55:35Z</time></trkpt><trkpt lat="37.9743606" lon="14.4790467"><ele>832.75</ele><time>2026-05-03T10:55:36Z</time></trkpt><trkpt lat="37.9743759" lon="14.4789212"><ele>829.5</ele><time>2026-05-03T10:55:37Z</time></trkpt><trkpt lat="37.9743677" lon="14.4787779"><ele>826.25</ele><time>2026-05-03T10:55:38Z</time></trkpt><trkpt lat="37.9743537" lon="14.4785945"><ele>823.0</ele><time>2026-05-03T10:55:39Z</time></trkpt><trkpt lat="37.9743495" lon="14.4784298"><ele>823.0</ele><time>2026-05-03T10:55:40Z</time></trkpt><trkpt lat="37.9743647" lon="14.4782987"><ele>823.0</ele><time>2026-05-03T10:55:41Z</time></trkpt><trkpt lat="37.9744084" lon="14.47816"><ele>823.0</ele><time>2026-05-03T10:55:42Z</time></trkpt><trkpt lat="37.9744612" lon="14.4780437"><ele>823.0</ele><time>2026-05-03T10:55:42.999Z</time></trkpt><trkpt lat="37.9745234" lon="14.4779513"><ele>823.0</ele><time>2026-05-03T10:55:44Z</time></trkpt><trkpt lat="37.9745841" lon="14.4778851"><ele>826.0</ele><time>2026-05-03T10:55:45Z</time></trkpt><trkpt lat="37.9746506" lon="14.4778477"><ele>826.0</ele><time>2026-05-03T10:55:46Z</time></trkpt><trkpt lat="37.9747243" lon="14.4778512"><ele>826.0</ele><time>2026-05-03T10:55:48Z</time></trkpt><trkpt lat="37.9747748" lon="14.4779143"><ele>826.0</ele><time>2026-05-03T10:55:51Z</time></trkpt><trkpt lat="37.9747461" lon="14.4779886"><ele>823.0</ele><time>2026-05-03T10:55:54Z</time></trkpt><trkpt lat="37.9746924" lon="14.4780657"><ele>823.0</ele><time>2026-05-03T10:55:58Z</time></trkpt></trkseg><trkseg><trkpt lat="37.9773843" lon="14.4764903"><ele>834.0</ele><time>2026-05-03T12:20:45Z</time></trkpt><trkpt lat="37.9773067" lon="14.4765586"><ele>834.0</ele><time>2026-05-03T12:20:49Z</time></trkpt><trkpt lat="37.9772385" lon="14.4766084"><ele>834.0</ele><time>2026-05-03T12:20:51Z</time></trkpt><trkpt lat="37.9771806" lon="14.476676"><ele>834.0</ele><time>2026-05-03T12:20:53Z</time></trkpt><trkpt lat="37.9771096" lon="14.4767558"><ele>834.0</ele><time>2026-05-03T12:20:55Z</time></trkpt><trkpt lat="37.9770346" lon="14.4768415"><ele>834.0</ele><time>2026-05-03T12:20:57Z</time></trkpt><trkpt lat="37.9769447" lon="14.476911"><ele>834.0</ele><time>2026-05-03T12:20:59Z</time></trkpt><trkpt lat="37.9768658" lon="14.4769983"><ele>834.0</ele><time>2026-05-03T12:21:01Z</time></trkpt><trkpt lat="37.9767736" lon="14.4771044"><ele>834.0</ele><time>2026-05-03T12:21:03Z</time></trkpt><trkpt lat="37.9767269" lon="14.4771698"><ele>834.0</ele><time>2026-05-03T12:21:04Z</time></trkpt><trkpt lat="37.9766383" lon="14.4772405"><ele>834.0</ele><time>2026-05-03T12:21:06Z</time></trkpt><trkpt lat="37.9765417" lon="14.477341"><ele>834.6</ele><time>2026-05-03T12:21:08Z</time></trkpt><trkpt lat="37.9764753" lon="14.4774647"><ele>835.2</ele><time>2026-05-03T12:21:10Z</time></trkpt><trkpt lat="37.9764058" lon="14.4775644"><ele>835.8000000000001</ele><time>2026-05-03T12:21:12Z</time></trkpt><trkpt lat="37.9763149" lon="14.4776482"><ele>836.4000000000001</ele><time>2026-05-03T12:21:14Z</time></trkpt><trkpt lat="37.9762259" lon="14.4777339"><ele>837.0</ele><time>2026-05-03T12:21:16Z</time></trkpt><trkpt lat="37.9761086" lon="14.4778092"><ele>837.0</ele><time>2026-05-03T12:21:18Z</time></trkpt><trkpt lat="37.9760008" lon="14.477876"><ele>837.0</ele><time>2026-05-03T12:21:20Z</time></trkpt><trkpt lat="37.9758835" lon="14.4779165"><ele>837.0</ele><time>2026-05-03T12:21:22Z</time></trkpt><trkpt lat="37.9758133" lon="14.4779185"><ele>837.0</ele><time>2026-05-03T12:21:23Z</time></trkpt><trkpt lat="37.9757187" lon="14.4779708"><ele>837.0</ele><time>2026-05-03T12:21:25Z</time></trkpt><trkpt lat="37.9756367" lon="14.4779869"><ele>836.6</ele><time>2026-05-03T12:21:27Z</time></trkpt><trkpt lat="37.9755276" lon="14.4779902"><ele>836.2</ele><time>2026-05-03T12:22:35Z</time></trkpt><trkpt lat="37.9754471" lon="14.4779621"><ele>835.8</ele><time>2026-05-03T12:22:36Z</time></trkpt><trkpt lat="37.9753745" lon="14.477916"><ele>835.4</ele><time>2026-05-03T12:22:37Z</time></trkpt><trkpt lat="37.9752914" lon="14.4778599"><ele>835.0</ele><time>2026-05-03T12:22:38Z</time></trkpt><trkpt lat="37.9752123" lon="14.4777882"><ele>835.0</ele><time>2026-05-03T12:22:39Z</time></trkpt><trkpt lat="37.9751172" lon="14.4777073"><ele>835.0</ele><time>2026-05-03T12:22:41Z</time></trkpt><trkpt lat="37.9750378" lon="14.4776873"><ele>835.0</ele><time>2026-05-03T12:22:43Z</time></trkpt><trkpt lat="37.9749776" lon="14.4777283"><ele>835.0</ele><time>2026-05-03T12:22:45Z</time></trkpt><trkpt lat="37.9749656" lon="14.4778353"><ele>835.0</ele><time>2026-05-03T12:22:49Z</time></trkpt><trkpt lat="37.9750597" lon="14.4779014"><ele>832.8333333333333</ele><time>2026-05-03T12:22:51Z</time></trkpt><trkpt lat="37.9751213" lon="14.4779428"><ele>830.6666666666666</ele><time>2026-05-03T12:22:52Z</time></trkpt><trkpt lat="37.975185" lon="14.4780002"><ele>828.5</ele><time>2026-05-03T12:22:53Z</time></trkpt><trkpt lat="37.9752578" lon="14.4780579"><ele>826.3333333333333</ele><time>2026-05-03T12:22:54Z</time></trkpt><trkpt lat="37.975323" lon="14.4781142"><ele>824.1666666666666</ele><time>2026-05-03T12:22:55Z</time></trkpt><trkpt lat="37.9753981" lon="14.4781625"><ele>822.0</ele><time>2026-05-03T12:22:56Z</time></trkpt><trkpt lat="37.975478" lon="14.4781979"><ele>822.0</ele><time>2026-05-03T12:22:57Z</time></trkpt><trkpt lat="37.9755693" lon="14.4782215"><ele>822.0</ele><time>2026-05-03T12:22:58Z</time></trkpt><trkpt lat="37.9756728" lon="14.478235"><ele>822.0</ele><time>2026-05-03T12:22:59Z</time></trkpt><trkpt lat="37.9757785" lon="14.478227"><ele>822.0</ele><time>2026-05-03T12:23:00Z</time></trkpt><trkpt lat="37.9758935" lon="14.4782166"><ele>822.0</ele><time>2026-05-03T12:23:01Z</time></trkpt><trkpt lat="37.9760087" lon="14.4782021"><ele>819.5</ele><time>2026-05-03T12:23:02Z</time></trkpt><trkpt lat="37.9761164" lon="14.4781793"><ele>817.0</ele><time>2026-05-03T12:23:03Z</time></trkpt><trkpt lat="37.9762302" lon="14.4781585"><ele>814.5</ele><time>2026-05-03T12:23:04Z</time></trkpt><trkpt lat="37.9763577" lon="14.4781491"><ele>812.0</ele><time>2026-05-03T12:23:05Z</time></trkpt><trkpt lat="37.9764853" lon="14.4781423"><ele>812.0</ele><time>2026-05-03T12:23:06Z</time></trkpt><trkpt lat="37.9766057" lon="14.4781207"><ele>812.0</ele><time>2026-05-03T12:23:07Z</time></trkpt><trkpt lat="37.9767079" lon="14.4780803"><ele>812.0</ele><time>2026-05-03T12:23:08Z</time></trkpt><trkpt lat="37.9768188" lon="14.478026"><ele>812.0</ele><time>2026-05-03T12:23:09Z</time></trkpt><trkpt lat="37.9769139" lon="14.4779537"><ele>812.5</ele><time>2026-05-03T12:23:10Z</time></trkpt><trkpt lat="37.9770254" lon="14.4778751"><ele>813.0</ele><time>2026-05-03T12:23:11Z</time></trkpt><trkpt lat="37.9771293" lon="14.4777963"><ele>813.5</ele><time>2026-05-03T12:23:12Z</time></trkpt><trkpt lat="37.9772381" lon="14.4777213"><ele>814.0</ele><time>2026-05-03T12:23:13Z</time></trkpt><trkpt lat="37.9773492" lon="14.4776493"><ele>814.0</ele><time>2026-05-03T12:23:14Z</time></trkpt><trkpt lat="37.9774576" lon="14.4775808"><ele>814.0</ele><time>2026-05-03T12:23:15Z</time></trkpt><trkpt lat="37.9775748" lon="14.4775061"><ele>814.0</ele><time>2026-05-03T12:23:16Z</time></trkpt><trkpt lat="37.9776805" lon="14.4774193"><ele>814.0</ele><time>2026-05-03T12:23:17Z</time></trkpt><trkpt lat="37.9777934" lon="14.477321"><ele>815.5</ele><time>2026-05-03T12:23:18Z</time></trkpt><trkpt lat="37.9779012" lon="14.4772445"><ele>817.0</ele><time>2026-05-03T12:23:19Z</time></trkpt><trkpt lat="37.9780178" lon="14.4771692"><ele>818.5</ele><time>2026-05-03T12:23:19.999Z</time></trkpt><trkpt lat="37.9781126" lon="14.4771006"><ele>820.0</ele><time>2026-05-03T12:23:21Z</time></trkpt><trkpt lat="37.9782238" lon="14.4770119"><ele>820.0</ele><time>2026-05-03T12:23:22Z</time></trkpt><trkpt lat="37.9783307" lon="14.4769444"><ele>820.0</ele><time>2026-05-03T12:23:23Z</time></trkpt><trkpt lat="37.9784345" lon="14.4769106"><ele>820.0</ele><time>2026-05-03T12:23:24Z</time></trkpt><trkpt lat="37.9785426" lon="14.4768836"><ele>820.0</ele><time>2026-05-03T12:23:25Z</time></trkpt><trkpt lat="37.9786453" lon="14.4768545"><ele>820.0</ele><time>2026-05-03T12:23:26Z</time></trkpt><trkpt lat="37.9787535" lon="14.4768199"><ele>813.4</ele><time>2026-05-03T12:23:27Z</time></trkpt><trkpt lat="37.9788473" lon="14.4767599"><ele>806.8</ele><time>2026-05-03T12:23:28Z</time></trkpt><trkpt lat="37.9789367" lon="14.4766849"><ele>800.2</ele><time>2026-05-03T12:23:29Z</time></trkpt><trkpt lat="37.9790167" lon="14.476577"><ele>793.6</ele><time>2026-05-03T12:23:30Z</time></trkpt><trkpt lat="37.9790987" lon="14.4764674"><ele>787.0</ele><time>2026-05-03T12:23:31Z</time></trkpt><trkpt lat="37.9791867" lon="14.4763432"><ele>781.25</ele><time>2026-05-03T12:23:32Z</time></trkpt><trkpt lat="37.9792784" lon="14.4762277"><ele>775.5</ele><time>2026-05-03T12:23:33Z</time></trkpt><trkpt lat="37.9793689" lon="14.4760957"><ele>769.75</ele><time>2026-05-03T12:23:34Z</time></trkpt><trkpt lat="37.9794537" lon="14.4759855"><ele>764.0</ele><time>2026-05-03T12:23:35Z</time></trkpt><trkpt lat="37.9795293" lon="14.4758724"><ele>764.0</ele><time>2026-05-03T12:23:36Z</time></trkpt><trkpt lat="37.9796072" lon="14.4757559"><ele>764.0</ele><time>2026-05-03T12:23:37Z</time></trkpt><trkpt lat="37.9796803" lon="14.4756466"><ele>764.0</ele><time>2026-05-03T12:23:38Z</time></trkpt><trkpt lat="37.9797254" lon="14.4755239"><ele>764.0</ele><time>2026-05-03T12:23:39Z</time></trkpt><trkpt lat="37.9797598" lon="14.475393"><ele>764.0</ele><time>2026-05-03T12:23:40Z</time></trkpt><trkpt lat="37.9797701" lon="14.4752483"><ele>767.5</ele><time>2026-05-03T12:23:41Z</time></trkpt><trkpt lat="37.9797683" lon="14.4751111"><ele>771.0</ele><time>2026-05-03T12:23:42Z</time></trkpt><trkpt lat="37.979756" lon="14.4749639"><ele>774.5</ele><time>2026-05-03T12:23:43Z</time></trkpt><trkpt lat="37.9797477" lon="14.4748023"><ele>778.0</ele><time>2026-05-03T12:23:44Z</time></trkpt><trkpt lat="37.9797303" lon="14.4746448"><ele>777.4</ele><time>2026-05-03T12:23:45Z</time></trkpt><trkpt lat="37.979719" lon="14.474491"><ele>776.8</ele><time>2026-05-03T12:23:46Z</time></trkpt><trkpt lat="37.9797108" lon="14.4743474"><ele>776.2</ele><time>2026-05-03T12:23:47Z</time></trkpt><trkpt lat="37.9797043" lon="14.4742082"><ele>775.6</ele><time>2026-05-03T12:23:47.999Z</time></trkpt><trkpt lat="37.9797133" lon="14.4740814"><ele>775.0</ele><time>2026-05-03T12:23:49Z</time></trkpt><trkpt lat="37.9797411" lon="14.4739474"><ele>775.0</ele><time>2026-05-03T12:23:50Z</time></trkpt><trkpt lat="37.9798035" lon="14.4738245"><ele>775.0</ele><time>2026-05-03T12:23:51Z</time></trkpt><trkpt lat="37.9798718" lon="14.4737155"><ele>775.0</ele><time>2026-05-03T12:23:52Z</time></trkpt><trkpt lat="37.9799544" lon="14.4736076"><ele>775.0</ele><time>2026-05-03T12:23:53Z</time></trkpt><trkpt lat="37.9800412" lon="14.4734929"><ele>769.75</ele><time>2026-05-03T12:23:54Z</time></trkpt><trkpt lat="37.9801375" lon="14.4733822"><ele>764.5</ele><time>2026-05-03T12:23:55Z</time></trkpt><trkpt lat="37.9802365" lon="14.4732664"><ele>759.25</ele><time>2026-05-03T12:23:56Z</time></trkpt><trkpt lat="37.9803365" lon="14.4731539"><ele>754.0</ele><time>2026-05-03T12:23:57Z</time></trkpt><trkpt lat="37.9804321" lon="14.4730503"><ele>754.0</ele><time>2026-05-03T12:23:58Z</time></trkpt><trkpt lat="37.9805151" lon="14.4729419"><ele>754.0</ele><time>2026-05-03T12:23:59Z</time></trkpt><trkpt lat="37.9806039" lon="14.4728348"><ele>754.0</ele><time>2026-05-03T12:24:00Z</time></trkpt><trkpt lat="37.9806877" lon="14.4727325"><ele>754.0</ele><time>2026-05-03T12:24:01Z</time></trkpt><trkpt lat="37.9807614" lon="14.4726393"><ele>755.8333333333334</ele><time>2026-05-03T12:24:02Z</time></trkpt><trkpt lat="37.9808394" lon="14.4725393"><ele>757.6666666666667</ele><time>2026-05-03T12:24:03Z</time></trkpt><trkpt lat="37.9809046" lon="14.4724555"><ele>759.5</ele><time>2026-05-03T12:24:04Z</time></trkpt><trkpt lat="37.9809281" lon="14.4723658"><ele>761.3333333333334</ele><time>2026-05-03T12:24:05Z</time></trkpt><trkpt lat="37.9809112" lon="14.4722677"><ele>763.1666666666666</ele><time>2026-05-03T12:24:06Z</time></trkpt><trkpt lat="37.9808644" lon="14.4721819"><ele>765.0</ele><time>2026-05-03T12:24:07Z</time></trkpt><trkpt lat="37.9807928" lon="14.4721311"><ele>762.5</ele><time>2026-05-03T12:24:08Z</time></trkpt><trkpt lat="37.9807172" lon="14.4720946"><ele>760.0</ele><time>2026-05-03T12:24:09Z</time></trkpt><trkpt lat="37.9805954" lon="14.4721029"><ele>757.5</ele><time>2026-05-03T12:24:10Z</time></trkpt><trkpt lat="37.9804676" lon="14.4721055"><ele>755.0</ele><time>2026-05-03T12:24:11Z</time></trkpt><trkpt lat="37.9803372" lon="14.4721017"><ele>755.0</ele><time>2026-05-03T12:24:12Z</time></trkpt><trkpt lat="37.9801871" lon="14.4720997"><ele>755.0</ele><time>2026-05-03T12:24:13Z</time></trkpt><trkpt lat="37.9800452" lon="14.4720952"><ele>755.0</ele><time>2026-05-03T12:24:14Z</time></trkpt><trkpt lat="37.9798866" lon="14.4720962"><ele>755.4</ele><time>2026-05-03T12:24:15Z</time></trkpt><trkpt lat="37.9797374" lon="14.4720788"><ele>755.8</ele><time>2026-05-03T12:24:16Z</time></trkpt><trkpt lat="37.9796497" lon="14.472074"><ele>756.2</ele><time>2026-05-03T12:24:17Z</time></trkpt><trkpt lat="37.9795576" lon="14.4720523"><ele>756.6</ele><time>2026-05-03T12:24:18Z</time></trkpt><trkpt lat="37.9794954" lon="14.4719875"><ele>757.0</ele><time>2026-05-03T12:24:19Z</time></trkpt><trkpt lat="37.9794855" lon="14.4718952"><ele>757.0</ele><time>2026-05-03T12:24:20Z</time></trkpt><trkpt lat="37.979457" lon="14.47181"><ele>757.0</ele><time>2026-05-03T12:24:21Z</time></trkpt><trkpt lat="37.9795317" lon="14.4717209"><ele>757.0</ele><time>2026-05-03T12:24:22Z</time></trkpt><trkpt lat="37.9795987" lon="14.4716686"><ele>757.0</ele><time>2026-05-03T12:24:23Z</time></trkpt><trkpt lat="37.9796745" lon="14.471616"><ele>757.0</ele><time>2026-05-03T12:24:24Z</time></trkpt><trkpt lat="37.9798115" lon="14.4716313"><ele>757.0</ele><time>2026-05-03T12:24:25Z</time></trkpt><trkpt lat="37.9799349" lon="14.4716338"><ele>757.0</ele><time>2026-05-03T12:24:26Z</time></trkpt><trkpt lat="37.9800702" lon="14.4716293"><ele>757.0</ele><time>2026-05-03T12:24:27Z</time></trkpt><trkpt lat="37.9802017" lon="14.471612"><ele>757.0</ele><time>2026-05-03T12:24:28Z</time></trkpt><trkpt lat="37.9803381" lon="14.4715969"><ele>756.5</ele><time>2026-05-03T12:24:29Z</time></trkpt><trkpt lat="37.9804747" lon="14.4715851"><ele>756.0</ele><time>2026-05-03T12:24:30Z</time></trkpt><trkpt lat="37.9806088" lon="14.4715731"><ele>755.5</ele><time>2026-05-03T12:24:31Z</time></trkpt><trkpt lat="37.9807536" lon="14.4715738"><ele>755.0</ele><time>2026-05-03T12:24:32Z</time></trkpt><trkpt lat="37.9808909" lon="14.4716209"><ele>750.0</ele><time>2026-05-03T12:24:33Z</time></trkpt><trkpt lat="37.9810222" lon="14.4717022"><ele>745.0</ele><time>2026-05-03T12:24:34Z</time></trkpt><trkpt lat="37.9811485" lon="14.4717878"><ele>740.0</ele><time>2026-05-03T12:24:35Z</time></trkpt><trkpt lat="37.9812614" lon="14.4718696"><ele>735.0</ele><time>2026-05-03T12:24:36Z</time></trkpt><trkpt lat="37.9813668" lon="14.4719422"><ele>735.0</ele><time>2026-05-03T12:24:37Z</time></trkpt><trkpt lat="37.9814776" lon="14.4719987"><ele>735.0</ele><time>2026-05-03T12:24:38Z</time></trkpt><trkpt lat="37.9815817" lon="14.4720075"><ele>735.0</ele><time>2026-05-03T12:24:39Z</time></trkpt><trkpt lat="37.981684" lon="14.4719751"><ele>735.0</ele><time>2026-05-03T12:24:40Z</time></trkpt><trkpt lat="37.9817776" lon="14.4718837"><ele>735.0</ele><time>2026-05-03T12:24:41Z</time></trkpt><trkpt lat="37.9818652" lon="14.471769"><ele>733.0</ele><time>2026-05-03T12:24:42Z</time></trkpt><trkpt lat="37.9819527" lon="14.4716431"><ele>731.0</ele><time>2026-05-03T12:24:43Z</time></trkpt><trkpt lat="37.9820388" lon="14.4715279"><ele>729.0</ele><time>2026-05-03T12:24:44Z</time></trkpt><trkpt lat="37.982122" lon="14.4714171"><ele>727.0</ele><time>2026-05-03T12:24:45Z</time></trkpt><trkpt lat="37.9821914" lon="14.4713235"><ele>727.0</ele><time>2026-05-03T12:24:46Z</time></trkpt><trkpt lat="37.9822572" lon="14.4712606"><ele>727.0</ele><time>2026-05-03T12:24:47Z</time></trkpt><trkpt lat="37.9823198" lon="14.4712102"><ele>727.0</ele><time>2026-05-03T12:24:48Z</time></trkpt><trkpt lat="37.9823847" lon="14.4712462"><ele>727.0</ele><time>2026-05-03T12:24:49Z</time></trkpt><trkpt lat="37.9824316" lon="14.4713215"><ele>727.0</ele><time>2026-05-03T12:24:50Z</time></trkpt><trkpt lat="37.9824364" lon="14.4715051"><ele>727.0</ele><time>2026-05-03T12:24:52Z</time></trkpt><trkpt lat="37.9823377" lon="14.4715903"><ele>727.0</ele><time>2026-05-03T12:24:53Z</time></trkpt><trkpt lat="37.9822241" lon="14.4716957"><ele>727.0</ele><time>2026-05-03T12:24:53.999Z</time></trkpt><trkpt lat="37.9821312" lon="14.4718042"><ele>727.0</ele><time>2026-05-03T12:24:55Z</time></trkpt><trkpt lat="37.9820189" lon="14.471926"><ele>727.0</ele><time>2026-05-03T12:24:56Z</time></trkpt><trkpt lat="37.9819203" lon="14.4720459"><ele>729.0</ele><time>2026-05-03T12:24:57Z</time></trkpt><trkpt lat="37.981838" lon="14.4721782"><ele>731.0</ele><time>2026-05-03T12:24:58Z</time></trkpt><trkpt lat="37.9817649" lon="14.4723262"><ele>733.0</ele><time>2026-05-03T12:24:59Z</time></trkpt><trkpt lat="37.981715" lon="14.4724882"><ele>735.0</ele><time>2026-05-03T12:25:00Z</time></trkpt><trkpt lat="37.9816725" lon="14.4726665"><ele>735.0</ele><time>2026-05-03T12:25:01Z</time></trkpt><trkpt lat="37.9816267" lon="14.4728316"><ele>735.0</ele><time>2026-05-03T12:25:01.999Z</time></trkpt><trkpt lat="37.9815768" lon="14.4729867"><ele>735.0</ele><time>2026-05-03T12:25:03Z</time></trkpt><trkpt lat="37.9815293" lon="14.4731418"><ele>735.0</ele><time>2026-05-03T12:25:04Z</time></trkpt><trkpt lat="37.9814925" lon="14.473277"><ele>732.8333333333334</ele><time>2026-05-03T12:25:05Z</time></trkpt><trkpt lat="37.9814571" lon="14.4733934"><ele>730.6666666666666</ele><time>2026-05-03T12:25:06Z</time></trkpt><trkpt lat="37.9814412" lon="14.4734906"><ele>728.5</ele><time>2026-05-03T12:25:07Z</time></trkpt><trkpt lat="37.9815112" lon="14.473615"><ele>726.3333333333333</ele><time>2026-05-03T12:25:09Z</time></trkpt><trkpt lat="37.981579" lon="14.4736252"><ele>724.1666666666666</ele><time>2026-05-03T12:25:10Z</time></trkpt><trkpt lat="37.9816389" lon="14.4735839"><ele>722.0</ele><time>2026-05-03T12:25:11Z</time></trkpt><trkpt lat="37.9816723" lon="14.4734806"><ele>719.2</ele><time>2026-05-03T12:25:12Z</time></trkpt><trkpt lat="37.9817059" lon="14.4733623"><ele>716.4000000000001</ele><time>2026-05-03T12:25:13Z</time></trkpt><trkpt lat="37.9817423" lon="14.47324"><ele>713.5999999999999</ele><time>2026-05-03T12:25:14Z</time></trkpt><trkpt lat="37.9817762" lon="14.4731047"><ele>710.8</ele><time>2026-05-03T12:25:15Z</time></trkpt><trkpt lat="37.9818097" lon="14.4729548"><ele>708.0</ele><time>2026-05-03T12:25:16Z</time></trkpt><trkpt lat="37.9818511" lon="14.4728211"><ele>708.0</ele><time>2026-05-03T12:25:17Z</time></trkpt><trkpt lat="37.9819589" lon="14.4727023"><ele>708.0</ele><time>2026-05-03T12:25:18Z</time></trkpt><trkpt lat="37.9820759" lon="14.4725838"><ele>708.0</ele><time>2026-05-03T12:25:19Z</time></trkpt><trkpt lat="37.9821901" lon="14.4724797"><ele>708.0</ele><time>2026-05-03T12:25:20Z</time></trkpt><trkpt lat="37.9823093" lon="14.4723733"><ele>708.0</ele><time>2026-05-03T12:25:21Z</time></trkpt><trkpt lat="37.9824229" lon="14.472269"><ele>708.0</ele><time>2026-05-03T12:25:21.999Z</time></trkpt><trkpt lat="37.982544" lon="14.4721649"><ele>708.0</ele><time>2026-05-03T12:25:23Z</time></trkpt><trkpt lat="37.9826605" lon="14.4720677"><ele>708.0</ele><time>2026-05-03T12:25:24Z</time></trkpt><trkpt lat="37.9827723" lon="14.4719655"><ele>707.75</ele><time>2026-05-03T12:25:24.999Z</time></trkpt><trkpt lat="37.9828885" lon="14.4718732"><ele>707.5</ele><time>2026-05-03T12:25:26Z</time></trkpt><trkpt lat="37.9830079" lon="14.4718083"><ele>707.25</ele><time>2026-05-03T12:25:27Z</time></trkpt><trkpt lat="37.9831239" lon="14.4717527"><ele>707.0</ele><time>2026-05-03T12:25:28Z</time></trkpt><trkpt lat="37.9832537" lon="14.4717277"><ele>702.75</ele><time>2026-05-03T12:25:29Z</time></trkpt><trkpt lat="37.9833899" lon="14.4717144"><ele>698.5</ele><time>2026-05-03T12:25:29.999Z</time></trkpt><trkpt lat="37.9835352" lon="14.4716958"><ele>694.25</ele><time>2026-05-03T12:25:31Z</time></trkpt><trkpt lat="37.9836784" lon="14.4716799"><ele>690.0</ele><time>2026-05-03T12:25:32Z</time></trkpt><trkpt lat="37.9838341" lon="14.4716612"><ele>690.0</ele><time>2026-05-03T12:25:33Z</time></trkpt><trkpt lat="37.983985" lon="14.471655"><ele>690.0</ele><time>2026-05-03T12:25:34Z</time></trkpt><trkpt lat="37.9841365" lon="14.4716414"><ele>690.0</ele><time>2026-05-03T12:25:35Z</time></trkpt><trkpt lat="37.9842823" lon="14.4716344"><ele>690.0</ele><time>2026-05-03T12:25:36Z</time></trkpt><trkpt lat="37.9844178" lon="14.4716233"><ele>689.75</ele><time>2026-05-03T12:25:37Z</time></trkpt><trkpt lat="37.9845573" lon="14.4716045"><ele>689.5</ele><time>2026-05-03T12:25:38Z</time></trkpt><trkpt lat="37.9846821" lon="14.4715876"><ele>689.25</ele><time>2026-05-03T12:25:39Z</time></trkpt><trkpt lat="37.9848049" lon="14.4715489"><ele>689.0</ele><time>2026-05-03T12:25:40Z</time></trkpt><trkpt lat="37.984914" lon="14.471485"><ele>689.75</ele><time>2026-05-03T12:25:41Z</time></trkpt><trkpt lat="37.9850308" lon="14.4713979"><ele>690.5</ele><time>2026-05-03T12:25:42Z</time></trkpt><trkpt lat="37.9851422" lon="14.4712952"><ele>691.25</ele><time>2026-05-03T12:25:43Z</time></trkpt><trkpt lat="37.9852538" lon="14.4711917"><ele>692.0</ele><time>2026-05-03T12:25:44Z</time></trkpt><trkpt lat="37.985363" lon="14.4710882"><ele>692.0</ele><time>2026-05-03T12:25:45Z</time></trkpt><trkpt lat="37.9854704" lon="14.4709919"><ele>692.0</ele><time>2026-05-03T12:25:46Z</time></trkpt><trkpt lat="37.9855704" lon="14.4708932"><ele>692.0</ele><time>2026-05-03T12:25:47Z</time></trkpt><trkpt lat="37.9856657" lon="14.4708155"><ele>692.0</ele><time>2026-05-03T12:25:48Z</time></trkpt><trkpt lat="37.9857653" lon="14.4707534"><ele>688.25</ele><time>2026-05-03T12:25:49Z</time></trkpt><trkpt lat="37.9858734" lon="14.4707211"><ele>684.5</ele><time>2026-05-03T12:25:50Z</time></trkpt><trkpt lat="37.9859824" lon="14.4707208"><ele>680.75</ele><time>2026-05-03T12:25:51Z</time></trkpt><trkpt lat="37.9860967" lon="14.4707445"><ele>677.0</ele><time>2026-05-03T12:25:52Z</time></trkpt><trkpt lat="37.9862203" lon="14.4707895"><ele>677.0</ele><time>2026-05-03T12:25:53Z</time></trkpt><trkpt lat="37.9863461" lon="14.4708525"><ele>677.0</ele><time>2026-05-03T12:25:54Z</time></trkpt><trkpt lat="37.9864742" lon="14.4709204"><ele>677.0</ele><time>2026-05-03T12:25:55Z</time></trkpt><trkpt lat="37.9866097" lon="14.4709968"><ele>677.0</ele><time>2026-05-03T12:25:56Z</time></trkpt><trkpt lat="37.9867421" lon="14.4710782"><ele>675.75</ele><time>2026-05-03T12:25:57Z</time></trkpt><trkpt lat="37.9868579" lon="14.471152"><ele>674.5</ele><time>2026-05-03T12:25:58Z</time></trkpt><trkpt lat="37.9869812" lon="14.4712134"><ele>673.25</ele><time>2026-05-03T12:25:59Z</time></trkpt><trkpt lat="37.9871022" lon="14.4712595"><ele>672.0</ele><time>2026-05-03T12:26:00Z</time></trkpt><trkpt lat="37.9872081" lon="14.4713026"><ele>672.0</ele><time>2026-05-03T12:26:01Z</time></trkpt><trkpt lat="37.9873122" lon="14.4713107"><ele>672.0</ele><time>2026-05-03T12:26:02Z</time></trkpt><trkpt lat="37.9874133" lon="14.4712671"><ele>672.0</ele><time>2026-05-03T12:26:03Z</time></trkpt><trkpt lat="37.9875058" lon="14.4711858"><ele>672.0</ele><time>2026-05-03T12:26:04Z</time></trkpt><trkpt lat="37.9875826" lon="14.4710596"><ele>672.0</ele><time>2026-05-03T12:26:05Z</time></trkpt><trkpt lat="37.9876708" lon="14.470928"><ele>674.25</ele><time>2026-05-03T12:26:06Z</time></trkpt><trkpt lat="37.9877785" lon="14.4708013"><ele>676.5</ele><time>2026-05-03T12:26:07Z</time></trkpt><trkpt lat="37.9879052" lon="14.4707097"><ele>678.75</ele><time>2026-05-03T12:26:08Z</time></trkpt><trkpt lat="37.9880417" lon="14.4706253"><ele>681.0</ele><time>2026-05-03T12:26:09Z</time></trkpt><trkpt lat="37.988175" lon="14.4705475"><ele>681.0</ele><time>2026-05-03T12:26:10Z</time></trkpt><trkpt lat="37.9883034" lon="14.4704747"><ele>681.0</ele><time>2026-05-03T12:26:11Z</time></trkpt><trkpt lat="37.9884687" lon="14.4704555"><ele>681.0</ele><time>2026-05-03T12:26:12Z</time></trkpt><trkpt lat="37.9886316" lon="14.4704309"><ele>674.0</ele><time>2026-05-03T12:26:13Z</time></trkpt><trkpt lat="37.9887761" lon="14.4703688"><ele>667.0</ele><time>2026-05-03T12:26:14Z</time></trkpt><trkpt lat="37.9889242" lon="14.4703059"><ele>660.0</ele><time>2026-05-03T12:26:15Z</time></trkpt><trkpt lat="37.9890573" lon="14.4702071"><ele>662.3333333333334</ele><time>2026-05-03T12:26:16Z</time></trkpt><trkpt lat="37.9891911" lon="14.4700986"><ele>664.6666666666667</ele><time>2026-05-03T12:26:17Z</time></trkpt><trkpt lat="37.9893187" lon="14.4699903"><ele>667.0</ele><time>2026-05-03T12:26:18Z</time></trkpt><trkpt lat="37.9894624" lon="14.4698782"><ele>667.0</ele><time>2026-05-03T12:26:19Z</time></trkpt><trkpt lat="37.989596" lon="14.4697677"><ele>667.0</ele><time>2026-05-03T12:26:20Z</time></trkpt><trkpt lat="37.9897308" lon="14.4696602"><ele>667.0</ele><time>2026-05-03T12:26:21Z</time></trkpt><trkpt lat="37.9898742" lon="14.4695568"><ele>666.3333333333334</ele><time>2026-05-03T12:26:22Z</time></trkpt><trkpt lat="37.9900163" lon="14.4694507"><ele>665.6666666666666</ele><time>2026-05-03T12:26:23Z</time></trkpt><trkpt lat="37.9901469" lon="14.4693461"><ele>665.0</ele><time>2026-05-03T12:26:24Z</time></trkpt><trkpt lat="37.9902742" lon="14.4692474"><ele>665.0</ele><time>2026-05-03T12:26:25Z</time></trkpt><trkpt lat="37.9903911" lon="14.4691419"><ele>665.0</ele><time>2026-05-03T12:26:26Z</time></trkpt><trkpt lat="37.9904794" lon="14.4690187"><ele>665.0</ele><time>2026-05-03T12:26:27Z</time></trkpt><trkpt lat="37.9905312" lon="14.4688769"><ele>665.0</ele><time>2026-05-03T12:26:28Z</time></trkpt><trkpt lat="37.9905499" lon="14.4687283"><ele>663.4</ele><time>2026-05-03T12:26:29Z</time></trkpt><trkpt lat="37.9905579" lon="14.4685989"><ele>661.8</ele><time>2026-05-03T12:26:30Z</time></trkpt><trkpt lat="37.990578" lon="14.4684871"><ele>660.2</ele><time>2026-05-03T12:26:31Z</time></trkpt><trkpt lat="37.9906338" lon="14.4683878"><ele>658.6</ele><time>2026-05-03T12:26:32Z</time></trkpt><trkpt lat="37.9906821" lon="14.4682989"><ele>657.0</ele><time>2026-05-03T12:26:33Z</time></trkpt><trkpt lat="37.9908451" lon="14.468296"><ele>657.0</ele><time>2026-05-03T12:26:34Z</time></trkpt><trkpt lat="37.9909812" lon="14.4682742"><ele>657.0</ele><time>2026-05-03T12:26:35Z</time></trkpt><trkpt lat="37.9911329" lon="14.4682487"><ele>657.0</ele><time>2026-05-03T12:26:36Z</time></trkpt><trkpt lat="37.9912817" lon="14.4682224"><ele>657.0</ele><time>2026-05-03T12:26:37Z</time></trkpt><trkpt lat="37.9914306" lon="14.4681948"><ele>657.0</ele><time>2026-05-03T12:26:38Z</time></trkpt><trkpt lat="37.9915686" lon="14.4681148"><ele>657.0</ele><time>2026-05-03T12:26:39Z</time></trkpt><trkpt lat="37.9917123" lon="14.4680402"><ele>657.0</ele><time>2026-05-03T12:26:40Z</time></trkpt><trkpt lat="37.9918554" lon="14.4679665"><ele>645.6666666666666</ele><time>2026-05-03T12:26:41Z</time></trkpt><trkpt lat="37.9919921" lon="14.4679015"><ele>634.3333333333333</ele><time>2026-05-03T12:26:42Z</time></trkpt><trkpt lat="37.9921421" lon="14.4678536"><ele>623.0</ele><time>2026-05-03T12:26:43Z</time></trkpt><trkpt lat="37.9922912" lon="14.4678305"><ele>623.0</ele><time>2026-05-03T12:26:44Z</time></trkpt><trkpt lat="37.9924453" lon="14.4678282"><ele>623.0</ele><time>2026-05-03T12:26:45Z</time></trkpt><trkpt lat="37.9926058" lon="14.4678373"><ele>623.0</ele><time>2026-05-03T12:26:46Z</time></trkpt><trkpt lat="37.9927736" lon="14.4678513"><ele>621.6666666666666</ele><time>2026-05-03T12:26:47Z</time></trkpt><trkpt lat="37.9929428" lon="14.4678682"><ele>620.3333333333334</ele><time>2026-05-03T12:26:48Z</time></trkpt><trkpt lat="37.9931028" lon="14.4678816"><ele>619.0</ele><time>2026-05-03T12:26:49Z</time></trkpt><trkpt lat="37.9932584" lon="14.4678912"><ele>620.5</ele><time>2026-05-03T12:26:50Z</time></trkpt><trkpt lat="37.993405" lon="14.4678908"><ele>622.0</ele><time>2026-05-03T12:26:51Z</time></trkpt><trkpt lat="37.9935437" lon="14.4678807"><ele>623.5</ele><time>2026-05-03T12:26:52Z</time></trkpt><trkpt lat="37.993684" lon="14.4678154"><ele>625.0</ele><time>2026-05-03T12:26:53Z</time></trkpt><trkpt lat="37.9938164" lon="14.4677204"><ele>625.0</ele><time>2026-05-03T12:26:54Z</time></trkpt><trkpt lat="37.9939557" lon="14.4676433"><ele>625.0</ele><time>2026-05-03T12:26:55Z</time></trkpt><trkpt lat="37.9941332" lon="14.46745"><ele>625.0</ele><time>2026-05-03T12:26:56Z</time></trkpt><trkpt lat="37.9942821" lon="14.4673127"><ele>626.3333333333334</ele><time>2026-05-03T12:26:57Z</time></trkpt><trkpt lat="37.994437" lon="14.4671723"><ele>627.6666666666666</ele><time>2026-05-03T12:26:58Z</time></trkpt><trkpt lat="37.9945756" lon="14.4670541"><ele>629.0</ele><time>2026-05-03T12:26:59Z</time></trkpt><trkpt lat="37.9947089" lon="14.4669375"><ele>624.75</ele><time>2026-05-03T12:27:00Z</time></trkpt><trkpt lat="37.99483" lon="14.4668365"><ele>620.5</ele><time>2026-05-03T12:27:01Z</time></trkpt><trkpt lat="37.9949371" lon="14.4667144"><ele>616.25</ele><time>2026-05-03T12:27:02Z</time></trkpt><trkpt lat="37.9950189" lon="14.466568"><ele>612.0</ele><time>2026-05-03T12:27:03Z</time></trkpt><trkpt lat="37.9950718" lon="14.4663956"><ele>605.5</ele><time>2026-05-03T12:27:04Z</time></trkpt><trkpt lat="37.9951074" lon="14.466217"><ele>599.0</ele><time>2026-05-03T12:27:05Z</time></trkpt><trkpt lat="37.9951381" lon="14.4660356"><ele>592.5</ele><time>2026-05-03T12:27:06Z</time></trkpt><trkpt lat="37.9951603" lon="14.4658692"><ele>586.0</ele><time>2026-05-03T12:27:07Z</time></trkpt><trkpt lat="37.9951838" lon="14.4657147"><ele>586.0</ele><time>2026-05-03T12:27:08Z</time></trkpt><trkpt lat="37.9951982" lon="14.4655931"><ele>586.0</ele><time>2026-05-03T12:27:09Z</time></trkpt><trkpt lat="37.9952357" lon="14.4655017"><ele>586.0</ele><time>2026-05-03T12:27:10Z</time></trkpt><trkpt lat="37.9952934" lon="14.465457"><ele>586.0</ele><time>2026-05-03T12:27:11Z</time></trkpt><trkpt lat="37.9953634" lon="14.4654878"><ele>586.0</ele><time>2026-05-03T12:27:12Z</time></trkpt><trkpt lat="37.9954006" lon="14.4655625"><ele>586.0</ele><time>2026-05-03T12:27:13Z</time></trkpt><trkpt lat="37.9954149" lon="14.4656763"><ele>586.0</ele><time>2026-05-03T12:27:14Z</time></trkpt><trkpt lat="37.9954234" lon="14.4658283"><ele>586.0</ele><time>2026-05-03T12:27:15Z</time></trkpt><trkpt lat="37.9954359" lon="14.4660022"><ele>586.0</ele><time>2026-05-03T12:27:16Z</time></trkpt><trkpt lat="37.9954493" lon="14.4661655"><ele>586.0</ele><time>2026-05-03T12:27:17Z</time></trkpt><trkpt lat="37.9954875" lon="14.4663153"><ele>587.75</ele><time>2026-05-03T12:27:18Z</time></trkpt><trkpt lat="37.995555" lon="14.4664401"><ele>589.5</ele><time>2026-05-03T12:27:19Z</time></trkpt><trkpt lat="37.9956373" lon="14.4665366"><ele>591.25</ele><time>2026-05-03T12:27:20Z</time></trkpt><trkpt lat="37.9957428" lon="14.466615"><ele>593.0</ele><time>2026-05-03T12:27:21Z</time></trkpt><trkpt lat="37.9958753" lon="14.4666511"><ele>593.0</ele><time>2026-05-03T12:27:22Z</time></trkpt><trkpt lat="37.9960421" lon="14.4666533"><ele>593.0</ele><time>2026-05-03T12:27:23Z</time></trkpt><trkpt lat="37.9962223" lon="14.4666326"><ele>593.0</ele><time>2026-05-03T12:27:24Z</time></trkpt><trkpt lat="37.9964038" lon="14.466623"><ele>593.0</ele><time>2026-05-03T12:27:25Z</time></trkpt><trkpt lat="37.9965716" lon="14.4666117"><ele>593.0</ele><time>2026-05-03T12:27:26Z</time></trkpt><trkpt lat="37.996734" lon="14.4665787"><ele>593.0</ele><time>2026-05-03T12:27:27Z</time></trkpt><trkpt lat="37.9968861" lon="14.4665226"><ele>591.5</ele><time>2026-05-03T12:27:28Z</time></trkpt><trkpt lat="37.9970313" lon="14.4664438"><ele>590.0</ele><time>2026-05-03T12:27:29Z</time></trkpt><trkpt lat="37.9971646" lon="14.4663649"><ele>588.5</ele><time>2026-05-03T12:27:29.999Z</time></trkpt><trkpt lat="37.9972831" lon="14.4662832"><ele>587.0</ele><time>2026-05-03T12:27:31Z</time></trkpt><trkpt lat="37.9973977" lon="14.4662382"><ele>584.0</ele><time>2026-05-03T12:27:32Z</time></trkpt><trkpt lat="37.9975081" lon="14.4662462"><ele>581.0</ele><time>2026-05-03T12:27:33Z</time></trkpt><trkpt lat="37.9976072" lon="14.4662993"><ele>578.0</ele><time>2026-05-03T12:27:34Z</time></trkpt><trkpt lat="37.9977085" lon="14.466393"><ele>575.0</ele><time>2026-05-03T12:27:35Z</time></trkpt><trkpt lat="37.9978118" lon="14.4665029"><ele>575.0</ele><time>2026-05-03T12:27:36Z</time></trkpt><trkpt lat="37.9979197" lon="14.4665874"><ele>575.0</ele><time>2026-05-03T12:27:37Z</time></trkpt><trkpt lat="37.9980341" lon="14.4666412"><ele>575.0</ele><time>2026-05-03T12:27:38Z</time></trkpt><trkpt lat="37.9981556" lon="14.46664"><ele>575.0</ele><time>2026-05-03T12:27:39Z</time></trkpt><trkpt lat="37.9982875" lon="14.4666139"><ele>572.75</ele><time>2026-05-03T12:27:40Z</time></trkpt><trkpt lat="37.9984221" lon="14.4665485"><ele>570.5</ele><time>2026-05-03T12:27:41Z</time></trkpt><trkpt lat="37.9985602" lon="14.4664937"><ele>568.25</ele><time>2026-05-03T12:27:41.999Z</time></trkpt><trkpt lat="37.9987078" lon="14.4664733"><ele>566.0</ele><time>2026-05-03T12:27:43Z</time></trkpt><trkpt lat="37.99887" lon="14.4664592"><ele>566.0</ele><time>2026-05-03T12:27:44Z</time></trkpt><trkpt lat="37.9990359" lon="14.4664727"><ele>566.0</ele><time>2026-05-03T12:27:45Z</time></trkpt><trkpt lat="37.9992003" lon="14.466483"><ele>566.0</ele><time>2026-05-03T12:27:46Z</time></trkpt><trkpt lat="37.9993649" lon="14.46652"><ele>563.3333333333333</ele><time>2026-05-03T12:27:47Z</time></trkpt><trkpt lat="37.9995281" lon="14.4665771"><ele>560.6666666666666</ele><time>2026-05-03T12:27:48Z</time></trkpt><trkpt lat="37.9997042" lon="14.4666456"><ele>558.0</ele><time>2026-05-03T12:27:49Z</time></trkpt><trkpt lat="37.9999104" lon="14.4667568"><ele>558.0</ele><time>2026-05-03T12:27:50Z</time></trkpt><trkpt lat="38.0001011" lon="14.4668537"><ele>558.0</ele><time>2026-05-03T12:27:51Z</time></trkpt><trkpt lat="38.0002726" lon="14.4669367"><ele>558.0</ele><time>2026-05-03T12:27:52Z</time></trkpt><trkpt lat="38.0004411" lon="14.4670147"><ele>558.0</ele><time>2026-05-03T12:27:53Z</time></trkpt><trkpt lat="38.000591" lon="14.4670735"><ele>558.0</ele><time>2026-05-03T12:27:54Z</time></trkpt><trkpt lat="38.0007345" lon="14.4671059"><ele>558.0</ele><time>2026-05-03T12:27:55Z</time></trkpt><trkpt lat="38.0008785" lon="14.4671008"><ele>558.0</ele><time>2026-05-03T12:27:56Z</time></trkpt><trkpt lat="38.0010324" lon="14.4670538"><ele>554.6666666666666</ele><time>2026-05-03T12:27:57Z</time></trkpt><trkpt lat="38.0012055" lon="14.466971"><ele>551.3333333333333</ele><time>2026-05-03T12:27:58Z</time></trkpt><trkpt lat="38.0013791" lon="14.4668686"><ele>548.0</ele><time>2026-05-03T12:27:59Z</time></trkpt><trkpt lat="38.0015417" lon="14.4667809"><ele>550.3333333333333</ele><time>2026-05-03T12:28:00Z</time></trkpt><trkpt lat="38.0017145" lon="14.466699"><ele>552.6666666666666</ele><time>2026-05-03T12:28:01Z</time></trkpt><trkpt lat="38.0018913" lon="14.4666297"><ele>555.0</ele><time>2026-05-03T12:28:02Z</time></trkpt><trkpt lat="38.0020793" lon="14.4665571"><ele>555.0</ele><time>2026-05-03T12:28:03Z</time></trkpt><trkpt lat="38.0022573" lon="14.4664922"><ele>555.0</ele><time>2026-05-03T12:28:04Z</time></trkpt><trkpt lat="38.0024291" lon="14.46642"><ele>555.0</ele><time>2026-05-03T12:28:05Z</time></trkpt><trkpt lat="38.0025938" lon="14.466355"><ele>556.0</ele><time>2026-05-03T12:28:06Z</time></trkpt><trkpt lat="38.0027494" lon="14.4662794"><ele>557.0</ele><time>2026-05-03T12:28:07Z</time></trkpt><trkpt lat="38.0028955" lon="14.4661789"><ele>558.0</ele><time>2026-05-03T12:28:08Z</time></trkpt><trkpt lat="38.0030232" lon="14.4660364"><ele>553.3333333333334</ele><time>2026-05-03T12:28:09Z</time></trkpt><trkpt lat="38.0031438" lon="14.4658824"><ele>548.6666666666667</ele><time>2026-05-03T12:28:10Z</time></trkpt><trkpt lat="38.0032622" lon="14.4657417"><ele>544.0</ele><time>2026-05-03T12:28:11Z</time></trkpt><trkpt lat="38.0033799" lon="14.4655957"><ele>544.0</ele><time>2026-05-03T12:28:12Z</time></trkpt><trkpt lat="38.0034867" lon="14.4654616"><ele>544.0</ele><time>2026-05-03T12:28:13Z</time></trkpt><trkpt lat="38.0035878" lon="14.4653337"><ele>544.0</ele><time>2026-05-03T12:28:14Z</time></trkpt><trkpt lat="38.0036912" lon="14.4652142"><ele>544.0</ele><time>2026-05-03T12:28:15Z</time></trkpt><trkpt lat="38.0038019" lon="14.4651154"><ele>540.3333333333334</ele><time>2026-05-03T12:28:16Z</time></trkpt><trkpt lat="38.0039367" lon="14.4650124"><ele>536.6666666666666</ele><time>2026-05-03T12:28:17Z</time></trkpt><trkpt lat="38.004073" lon="14.4649186"><ele>533.0</ele><time>2026-05-03T12:28:18Z</time></trkpt><trkpt lat="38.0042044" lon="14.4648426"><ele>533.0</ele><time>2026-05-03T12:28:19Z</time></trkpt><trkpt lat="38.0043205" lon="14.4647737"><ele>533.0</ele><time>2026-05-03T12:28:20Z</time></trkpt><trkpt lat="38.004425" lon="14.4647053"><ele>533.0</ele><time>2026-05-03T12:28:21Z</time></trkpt><trkpt lat="38.004482" lon="14.4646304"><ele>533.0</ele><time>2026-05-03T12:28:22Z</time></trkpt><trkpt lat="38.00451" lon="14.4645387"><ele>533.0</ele><time>2026-05-03T12:28:23Z</time></trkpt><trkpt lat="38.0044928" lon="14.4644434"><ele>530.4</ele><time>2026-05-03T12:28:24Z</time></trkpt><trkpt lat="38.0044405" lon="14.4643706"><ele>527.8</ele><time>2026-05-03T12:28:25Z</time></trkpt><trkpt lat="38.0043677" lon="14.4643285"><ele>525.2</ele><time>2026-05-03T12:28:26Z</time></trkpt><trkpt lat="38.0042715" lon="14.4643139"><ele>522.6</ele><time>2026-05-03T12:28:27Z</time></trkpt><trkpt lat="38.0041566" lon="14.4643161"><ele>520.0</ele><time>2026-05-03T12:28:28Z</time></trkpt><trkpt lat="38.0040245" lon="14.4643295"><ele>517.3333333333334</ele><time>2026-05-03T12:28:29Z</time></trkpt><trkpt lat="38.0038841" lon="14.46435"><ele>514.6666666666666</ele><time>2026-05-03T12:28:30Z</time></trkpt><trkpt lat="38.0037348" lon="14.4643617"><ele>512.0</ele><time>2026-05-03T12:28:31Z</time></trkpt><trkpt lat="38.0035744" lon="14.4643792"><ele>512.0</ele><time>2026-05-03T12:28:32Z</time></trkpt><trkpt lat="38.0034132" lon="14.4643922"><ele>512.0</ele><time>2026-05-03T12:28:33Z</time></trkpt><trkpt lat="38.0032641" lon="14.4644109"><ele>512.0</ele><time>2026-05-03T12:28:34Z</time></trkpt><trkpt lat="38.0031231" lon="14.46443"><ele>510.5</ele><time>2026-05-03T12:28:35Z</time></trkpt><trkpt lat="38.0029849" lon="14.4644501"><ele>509.0</ele><time>2026-05-03T12:28:36Z</time></trkpt><trkpt lat="38.0028585" lon="14.4644625"><ele>507.5</ele><time>2026-05-03T12:28:37Z</time></trkpt><trkpt lat="38.002743" lon="14.464477"><ele>506.0</ele><time>2026-05-03T12:28:38Z</time></trkpt><trkpt lat="38.0026413" lon="14.4644854"><ele>506.0</ele><time>2026-05-03T12:28:39Z</time></trkpt><trkpt lat="38.0025594" lon="14.4644769"><ele>506.0</ele><time>2026-05-03T12:28:40Z</time></trkpt><trkpt lat="38.002496" lon="14.4644547"><ele>506.0</ele><time>2026-05-03T12:28:41Z</time></trkpt><trkpt lat="38.0024825" lon="14.464357"><ele>506.0</ele><time>2026-05-03T12:28:43Z</time></trkpt><trkpt lat="38.0026173" lon="14.4642813"><ele>506.0</ele><time>2026-05-03T12:28:45Z</time></trkpt><trkpt lat="38.0027418" lon="14.4642392"><ele>506.0</ele><time>2026-05-03T12:28:46Z</time></trkpt><trkpt lat="38.0028721" lon="14.464191"><ele>506.0</ele><time>2026-05-03T12:28:47Z</time></trkpt><trkpt lat="38.0030025" lon="14.4641194"><ele>506.0</ele><time>2026-05-03T12:28:48Z</time></trkpt><trkpt lat="38.003134" lon="14.4640287"><ele>506.0</ele><time>2026-05-03T12:28:49Z</time></trkpt><trkpt lat="38.0032495" lon="14.4639152"><ele>507.5</ele><time>2026-05-03T12:28:49.999Z</time></trkpt><trkpt lat="38.0033537" lon="14.4637971"><ele>509.0</ele><time>2026-05-03T12:28:51Z</time></trkpt><trkpt lat="38.0034462" lon="14.4636704"><ele>510.5</ele><time>2026-05-03T12:28:52Z</time></trkpt><trkpt lat="38.0035223" lon="14.4635245"><ele>512.0</ele><time>2026-05-03T12:28:53Z</time></trkpt><trkpt lat="38.0035866" lon="14.4633696"><ele>508.0</ele><time>2026-05-03T12:28:54Z</time></trkpt><trkpt lat="38.0036407" lon="14.4632132"><ele>504.0</ele><time>2026-05-03T12:28:55Z</time></trkpt><trkpt lat="38.0036966" lon="14.4630684"><ele>500.0</ele><time>2026-05-03T12:28:56Z</time></trkpt><trkpt lat="38.0037271" lon="14.4629212"><ele>496.0</ele><time>2026-05-03T12:28:57Z</time></trkpt><trkpt lat="38.00372" lon="14.4627656"><ele>494.25</ele><time>2026-05-03T12:28:58Z</time></trkpt><trkpt lat="38.0036772" lon="14.4626023"><ele>492.5</ele><time>2026-05-03T12:28:59Z</time></trkpt><trkpt lat="38.0036138" lon="14.4624364"><ele>490.75</ele><time>2026-05-03T12:29:00Z</time></trkpt><trkpt lat="38.0035341" lon="14.4622727"><ele>489.0</ele><time>2026-05-03T12:29:01Z</time></trkpt><trkpt lat="38.0034401" lon="14.4621335"><ele>489.25</ele><time>2026-05-03T12:29:02Z</time></trkpt><trkpt lat="38.0033334" lon="14.4620135"><ele>489.5</ele><time>2026-05-03T12:29:03Z</time></trkpt><trkpt lat="38.0032299" lon="14.4619177"><ele>489.75</ele><time>2026-05-03T12:29:04Z</time></trkpt><trkpt lat="38.0031371" lon="14.4618216"><ele>490.0</ele><time>2026-05-03T12:29:05Z</time></trkpt><trkpt lat="38.0030653" lon="14.4617157"><ele>484.0</ele><time>2026-05-03T12:29:06Z</time></trkpt><trkpt lat="38.003015" lon="14.4615763"><ele>478.0</ele><time>2026-05-03T12:29:07Z</time></trkpt><trkpt lat="38.0029779" lon="14.4613942"><ele>472.0</ele><time>2026-05-03T12:29:08Z</time></trkpt><trkpt lat="38.0029451" lon="14.4612313"><ele>466.0</ele><time>2026-05-03T12:29:09Z</time></trkpt><trkpt lat="38.0029179" lon="14.4610705"><ele>464.75</ele><time>2026-05-03T12:29:10Z</time></trkpt><trkpt lat="38.0029052" lon="14.4609108"><ele>463.5</ele><time>2026-05-03T12:29:11Z</time></trkpt><trkpt lat="38.0029091" lon="14.4607517"><ele>462.25</ele><time>2026-05-03T12:29:12Z</time></trkpt><trkpt lat="38.0029484" lon="14.4606012"><ele>461.0</ele><time>2026-05-03T12:29:13Z</time></trkpt><trkpt lat="38.0030165" lon="14.4604347"><ele>458.0</ele><time>2026-05-03T12:29:14Z</time></trkpt><trkpt lat="38.0030831" lon="14.460252"><ele>455.0</ele><time>2026-05-03T12:29:15Z</time></trkpt><trkpt lat="38.0031546" lon="14.4600723"><ele>452.0</ele><time>2026-05-03T12:29:16Z</time></trkpt><trkpt lat="38.0032256" lon="14.4599056"><ele>452.0</ele><time>2026-05-03T12:29:17Z</time></trkpt><trkpt lat="38.0033141" lon="14.459738"><ele>452.0</ele><time>2026-05-03T12:29:18Z</time></trkpt><trkpt lat="38.003408" lon="14.4595823"><ele>452.0</ele><time>2026-05-03T12:29:19Z</time></trkpt><trkpt lat="38.0035148" lon="14.4594351"><ele>453.66666666666663</ele><time>2026-05-03T12:29:20Z</time></trkpt><trkpt lat="38.0036196" lon="14.4592818"><ele>455.33333333333337</ele><time>2026-05-03T12:29:21Z</time></trkpt><trkpt lat="38.003716" lon="14.4591166"><ele>457.0</ele><time>2026-05-03T12:29:22Z</time></trkpt><trkpt lat="38.0038102" lon="14.4589528"><ele>457.0</ele><time>2026-05-03T12:29:23Z</time></trkpt><trkpt lat="38.0039037" lon="14.4587922"><ele>457.0</ele><time>2026-05-03T12:29:24Z</time></trkpt><trkpt lat="38.0039986" lon="14.4586468"><ele>457.0</ele><time>2026-05-03T12:29:25Z</time></trkpt><trkpt lat="38.0041005" lon="14.4585015"><ele>457.0</ele><time>2026-05-03T12:29:26Z</time></trkpt><trkpt lat="38.0042169" lon="14.4583747"><ele>457.0</ele><time>2026-05-03T12:29:27Z</time></trkpt><trkpt lat="38.0043431" lon="14.4582482"><ele>457.0</ele><time>2026-05-03T12:29:28Z</time></trkpt><trkpt lat="38.0044783" lon="14.4581285"><ele>457.0</ele><time>2026-05-03T12:29:29Z</time></trkpt><trkpt lat="38.0046337" lon="14.4580151"><ele>457.0</ele><time>2026-05-03T12:29:30Z</time></trkpt><trkpt lat="38.0048056" lon="14.4579127"><ele>457.0</ele><time>2026-05-03T12:29:31Z</time></trkpt><trkpt lat="38.004971" lon="14.4578259"><ele>453.33333333333337</ele><time>2026-05-03T12:29:32Z</time></trkpt><trkpt lat="38.0051272" lon="14.4577338"><ele>449.66666666666663</ele><time>2026-05-03T12:29:33Z</time></trkpt><trkpt lat="38.0052759" lon="14.4576387"><ele>446.0</ele><time>2026-05-03T12:29:34Z</time></trkpt><trkpt lat="38.0054072" lon="14.4575225"><ele>446.0</ele><time>2026-05-03T12:29:35Z</time></trkpt><trkpt lat="38.005529" lon="14.4573886"><ele>446.0</ele><time>2026-05-03T12:29:36Z</time></trkpt><trkpt lat="38.0056497" lon="14.4572475"><ele>446.0</ele><time>2026-05-03T12:29:37Z</time></trkpt><trkpt lat="38.005764" lon="14.4571087"><ele>444.5</ele><time>2026-05-03T12:29:38Z</time></trkpt><trkpt lat="38.0058631" lon="14.4569844"><ele>443.0</ele><time>2026-05-03T12:29:39Z</time></trkpt><trkpt lat="38.0059588" lon="14.4568693"><ele>441.5</ele><time>2026-05-03T12:29:40Z</time></trkpt><trkpt lat="38.0060605" lon="14.4567904"><ele>440.0</ele><time>2026-05-03T12:29:41Z</time></trkpt><trkpt lat="38.0061716" lon="14.4567602"><ele>440.0</ele><time>2026-05-03T12:29:42Z</time></trkpt><trkpt lat="38.0062944" lon="14.4567653"><ele>440.0</ele><time>2026-05-03T12:29:43Z</time></trkpt><trkpt lat="38.0064279" lon="14.4568108"><ele>440.0</ele><time>2026-05-03T12:29:44Z</time></trkpt><trkpt lat="38.0065505" lon="14.4568471"><ele>440.0</ele><time>2026-05-03T12:29:45Z</time></trkpt><trkpt lat="38.0066698" lon="14.4568507"><ele>438.75</ele><time>2026-05-03T12:29:46Z</time></trkpt><trkpt lat="38.0067768" lon="14.4568157"><ele>437.5</ele><time>2026-05-03T12:29:47Z</time></trkpt><trkpt lat="38.0068567" lon="14.4567382"><ele>436.25</ele><time>2026-05-03T12:29:48Z</time></trkpt><trkpt lat="38.0069061" lon="14.4566129"><ele>435.0</ele><time>2026-05-03T12:29:49Z</time></trkpt><trkpt lat="38.006923" lon="14.4564492"><ele>434.66666666666663</ele><time>2026-05-03T12:29:50Z</time></trkpt><trkpt lat="38.0069162" lon="14.4562465"><ele>434.3333333333333</ele><time>2026-05-03T12:29:51Z</time></trkpt><trkpt lat="38.0069167" lon="14.4560413"><ele>434.0</ele><time>2026-05-03T12:29:52Z</time></trkpt><trkpt lat="38.0069164" lon="14.455849"><ele>434.0</ele><time>2026-05-03T12:29:53Z</time></trkpt><trkpt lat="38.0069164" lon="14.4556657"><ele>434.0</ele><time>2026-05-03T12:29:54Z</time></trkpt><trkpt lat="38.0069359" lon="14.4554806"><ele>434.0</ele><time>2026-05-03T12:29:55Z</time></trkpt><trkpt lat="38.006988" lon="14.4553025"><ele>434.0</ele><time>2026-05-03T12:29:56Z</time></trkpt><trkpt lat="38.0070721" lon="14.4551203"><ele>431.3333333333333</ele><time>2026-05-03T12:29:57Z</time></trkpt><trkpt lat="38.0071831" lon="14.4549262"><ele>428.66666666666663</ele><time>2026-05-03T12:29:58Z</time></trkpt><trkpt lat="38.0073006" lon="14.4547197"><ele>426.0</ele><time>2026-05-03T12:29:59Z</time></trkpt><trkpt lat="38.0074156" lon="14.4545251"><ele>426.33333333333337</ele><time>2026-05-03T12:30:00Z</time></trkpt><trkpt lat="38.0075225" lon="14.4543425"><ele>426.6666666666667</ele><time>2026-05-03T12:30:01Z</time></trkpt><trkpt lat="38.0076239" lon="14.4541687"><ele>427.0</ele><time>2026-05-03T12:30:02Z</time></trkpt><trkpt lat="38.0077181" lon="14.4540038"><ele>427.0</ele><time>2026-05-03T12:30:03Z</time></trkpt><trkpt lat="38.0077941" lon="14.4538482"><ele>427.0</ele><time>2026-05-03T12:30:04Z</time></trkpt><trkpt lat="38.0078478" lon="14.453689"><ele>427.0</ele><time>2026-05-03T12:30:05Z</time></trkpt><trkpt lat="38.0078806" lon="14.4535393"><ele>427.0</ele><time>2026-05-03T12:30:06Z</time></trkpt><trkpt lat="38.0079187" lon="14.4534067"><ele>426.20000000000005</ele><time>2026-05-03T12:30:07Z</time></trkpt><trkpt lat="38.0079801" lon="14.4532929"><ele>425.40000000000003</ele><time>2026-05-03T12:30:08Z</time></trkpt><trkpt lat="38.0080627" lon="14.4532162"><ele>424.6</ele><time>2026-05-03T12:30:09Z</time></trkpt><trkpt lat="38.0081644" lon="14.4531791"><ele>423.79999999999995</ele><time>2026-05-03T12:30:10Z</time></trkpt><trkpt lat="38.0082949" lon="14.453175"><ele>423.0</ele><time>2026-05-03T12:30:11Z</time></trkpt><trkpt lat="38.0084535" lon="14.4531976"><ele>423.0</ele><time>2026-05-03T12:30:12Z</time></trkpt><trkpt lat="38.0086201" lon="14.4532024"><ele>423.0</ele><time>2026-05-03T12:30:13Z</time></trkpt><trkpt lat="38.0087851" lon="14.4532249"><ele>423.0</ele><time>2026-05-03T12:30:14Z</time></trkpt><trkpt lat="38.0089431" lon="14.4532665"><ele>423.0</ele><time>2026-05-03T12:30:15Z</time></trkpt><trkpt lat="38.0090953" lon="14.4532759"><ele>423.0</ele><time>2026-05-03T12:30:16Z</time></trkpt><trkpt lat="38.0092486" lon="14.4532564"><ele>423.0</ele><time>2026-05-03T12:30:17Z</time></trkpt><trkpt lat="38.0094163" lon="14.4532065"><ele>420.0</ele><time>2026-05-03T12:30:18Z</time></trkpt><trkpt lat="38.009606" lon="14.4531282"><ele>417.0</ele><time>2026-05-03T12:30:19Z</time></trkpt><trkpt lat="38.0097902" lon="14.4530435"><ele>414.0</ele><time>2026-05-03T12:30:20Z</time></trkpt><trkpt lat="38.0099575" lon="14.4529528"><ele>408.66666666666663</ele><time>2026-05-03T12:30:21Z</time></trkpt><trkpt lat="38.0101146" lon="14.4528717"><ele>403.3333333333333</ele><time>2026-05-03T12:30:22Z</time></trkpt><trkpt lat="38.0102593" lon="14.4527913"><ele>398.0</ele><time>2026-05-03T12:30:23Z</time></trkpt><trkpt lat="38.0103994" lon="14.4527113"><ele>398.0</ele><time>2026-05-03T12:30:24Z</time></trkpt><trkpt lat="38.0105346" lon="14.4526633"><ele>398.0</ele><time>2026-05-03T12:30:25Z</time></trkpt><trkpt lat="38.0106685" lon="14.4526449"><ele>398.0</ele><time>2026-05-03T12:30:26Z</time></trkpt><trkpt lat="38.010824" lon="14.4526636"><ele>398.0</ele><time>2026-05-03T12:30:27Z</time></trkpt><trkpt lat="38.010974" lon="14.4526888"><ele>395.66666666666663</ele><time>2026-05-03T12:30:28Z</time></trkpt><trkpt lat="38.0111645" lon="14.4527353"><ele>393.33333333333337</ele><time>2026-05-03T12:30:29Z</time></trkpt><trkpt lat="38.0113552" lon="14.452749"><ele>391.0</ele><time>2026-05-03T12:30:30Z</time></trkpt><trkpt lat="38.0115596" lon="14.4528"><ele>388.6666666666667</ele><time>2026-05-03T12:30:31Z</time></trkpt><trkpt lat="38.0117579" lon="14.452849"><ele>386.33333333333337</ele><time>2026-05-03T12:30:32Z</time></trkpt><trkpt lat="38.0119625" lon="14.4528872"><ele>384.0</ele><time>2026-05-03T12:30:33Z</time></trkpt><trkpt lat="38.0121588" lon="14.4529121"><ele>384.0</ele><time>2026-05-03T12:30:34Z</time></trkpt><trkpt lat="38.0123474" lon="14.4529401"><ele>384.0</ele><time>2026-05-03T12:30:35Z</time></trkpt><trkpt lat="38.0125342" lon="14.4529678"><ele>384.0</ele><time>2026-05-03T12:30:36Z</time></trkpt><trkpt lat="38.0127196" lon="14.4529904"><ele>382.6666666666667</ele><time>2026-05-03T12:30:37Z</time></trkpt><trkpt lat="38.0129043" lon="14.453009"><ele>381.33333333333337</ele><time>2026-05-03T12:30:38Z</time></trkpt><trkpt lat="38.0130843" lon="14.4530286"><ele>380.0</ele><time>2026-05-03T12:30:39Z</time></trkpt><trkpt lat="38.013263" lon="14.45305"><ele>379.6666666666667</ele><time>2026-05-03T12:30:40Z</time></trkpt><trkpt lat="38.0134379" lon="14.4530697"><ele>379.3333333333333</ele><time>2026-05-03T12:30:40.999Z</time></trkpt><trkpt lat="38.0136026" lon="14.453085"><ele>379.0</ele><time>2026-05-03T12:30:42Z</time></trkpt><trkpt lat="38.0137657" lon="14.4530953"><ele>379.0</ele><time>2026-05-03T12:30:43Z</time></trkpt><trkpt lat="38.0139235" lon="14.453105"><ele>379.0</ele><time>2026-05-03T12:30:44Z</time></trkpt><trkpt lat="38.0140751" lon="14.4531076"><ele>379.0</ele><time>2026-05-03T12:30:45Z</time></trkpt><trkpt lat="38.0142353" lon="14.4531151"><ele>378.66666666666663</ele><time>2026-05-03T12:30:46Z</time></trkpt><trkpt lat="38.0143901" lon="14.4531337"><ele>378.3333333333333</ele><time>2026-05-03T12:30:47Z</time></trkpt><trkpt lat="38.0145383" lon="14.4531566"><ele>378.0</ele><time>2026-05-03T12:30:48Z</time></trkpt><trkpt lat="38.0146861" lon="14.4531553"><ele>378.0</ele><time>2026-05-03T12:30:49Z</time></trkpt><trkpt lat="38.0148271" lon="14.4531474"><ele>378.0</ele><time>2026-05-03T12:30:50Z</time></trkpt><trkpt lat="38.0149648" lon="14.4531276"><ele>378.0</ele><time>2026-05-03T12:30:51Z</time></trkpt><trkpt lat="38.0151002" lon="14.4531145"><ele>378.0</ele><time>2026-05-03T12:30:51.999Z</time></trkpt><trkpt lat="38.0152289" lon="14.4531141"><ele>375.75</ele><time>2026-05-03T12:30:53Z</time></trkpt><trkpt lat="38.0153575" lon="14.4531232"><ele>373.5</ele><time>2026-05-03T12:30:54Z</time></trkpt><trkpt lat="38.0154825" lon="14.4531272"><ele>371.25</ele><time>2026-05-03T12:30:55Z</time></trkpt><trkpt lat="38.0156168" lon="14.4530769"><ele>369.0</ele><time>2026-05-03T12:30:56Z</time></trkpt><trkpt lat="38.0157393" lon="14.4530057"><ele>370.0</ele><time>2026-05-03T12:30:57Z</time></trkpt><trkpt lat="38.0158654" lon="14.4529112"><ele>371.0</ele><time>2026-05-03T12:30:58Z</time></trkpt><trkpt lat="38.015992" lon="14.4528062"><ele>372.0</ele><time>2026-05-03T12:30:59Z</time></trkpt><trkpt lat="38.0161193" lon="14.4527058"><ele>373.0</ele><time>2026-05-03T12:31:00Z</time></trkpt><trkpt lat="38.0162382" lon="14.4526161"><ele>373.0</ele><time>2026-05-03T12:31:01Z</time></trkpt><trkpt lat="38.0163532" lon="14.4525352"><ele>373.0</ele><time>2026-05-03T12:31:02Z</time></trkpt><trkpt lat="38.016467" lon="14.4524472"><ele>373.0</ele><time>2026-05-03T12:31:03Z</time></trkpt><trkpt lat="38.0165694" lon="14.4523614"><ele>373.0</ele><time>2026-05-03T12:31:04Z</time></trkpt><trkpt lat="38.0166699" lon="14.4522579"><ele>371.25</ele><time>2026-05-03T12:31:05Z</time></trkpt><trkpt lat="38.0167646" lon="14.4521564"><ele>369.5</ele><time>2026-05-03T12:31:06Z</time></trkpt><trkpt lat="38.0168502" lon="14.4520453"><ele>367.75</ele><time>2026-05-03T12:31:07Z</time></trkpt><trkpt lat="38.0169328" lon="14.451929"><ele>366.0</ele><time>2026-05-03T12:31:08Z</time></trkpt><trkpt lat="38.0170128" lon="14.4518181"><ele>366.0</ele><time>2026-05-03T12:31:09Z</time></trkpt><trkpt lat="38.0170972" lon="14.4517235"><ele>366.0</ele><time>2026-05-03T12:31:10Z</time></trkpt><trkpt lat="38.0171904" lon="14.4516441"><ele>366.0</ele><time>2026-05-03T12:31:11Z</time></trkpt><trkpt lat="38.0172829" lon="14.4515779"><ele>366.0</ele><time>2026-05-03T12:31:12Z</time></trkpt><trkpt lat="38.0173729" lon="14.4515184"><ele>366.0</ele><time>2026-05-03T12:31:13Z</time></trkpt><trkpt lat="38.0174572" lon="14.451468"><ele>364.8333333333333</ele><time>2026-05-03T12:31:14Z</time></trkpt><trkpt lat="38.0175401" lon="14.4514361"><ele>363.6666666666667</ele><time>2026-05-03T12:31:15Z</time></trkpt><trkpt lat="38.0176224" lon="14.4514314"><ele>362.5</ele><time>2026-05-03T12:31:16Z</time></trkpt><trkpt lat="38.0177046" lon="14.4514291"><ele>361.33333333333337</ele><time>2026-05-03T12:31:17Z</time></trkpt><trkpt lat="38.0177801" lon="14.4514131"><ele>360.1666666666667</ele><time>2026-05-03T12:31:18Z</time></trkpt><trkpt lat="38.0178528" lon="14.4513761"><ele>359.0</ele><time>2026-05-03T12:31:19Z</time></trkpt><trkpt lat="38.0179253" lon="14.4513367"><ele>359.0</ele><time>2026-05-03T12:31:20Z</time></trkpt><trkpt lat="38.0180062" lon="14.4512977"><ele>359.0</ele><time>2026-05-03T12:31:21Z</time></trkpt><trkpt lat="38.0180934" lon="14.4512421"><ele>359.0</ele><time>2026-05-03T12:31:22Z</time></trkpt><trkpt lat="38.0181907" lon="14.4511856"><ele>359.0</ele><time>2026-05-03T12:31:23Z</time></trkpt><trkpt lat="38.0183019" lon="14.4511223"><ele>359.0</ele><time>2026-05-03T12:31:24Z</time></trkpt><trkpt lat="38.0184329" lon="14.4510579"><ele>358.33333333333337</ele><time>2026-05-03T12:31:25Z</time></trkpt><trkpt lat="38.0186018" lon="14.4509751"><ele>357.6666666666667</ele><time>2026-05-03T12:31:26Z</time></trkpt><trkpt lat="38.0187802" lon="14.4508622"><ele>357.0</ele><time>2026-05-03T12:31:27Z</time></trkpt><trkpt lat="38.0189386" lon="14.4507343"><ele>357.0</ele><time>2026-05-03T12:31:28Z</time></trkpt><trkpt lat="38.0190908" lon="14.4506282"><ele>357.0</ele><time>2026-05-03T12:31:29Z</time></trkpt><trkpt lat="38.0192335" lon="14.4505583"><ele>357.0</ele><time>2026-05-03T12:31:30Z</time></trkpt><trkpt lat="38.0193674" lon="14.4505116"><ele>357.0</ele><time>2026-05-03T12:31:31Z</time></trkpt><trkpt lat="38.0194848" lon="14.4504425"><ele>357.0</ele><time>2026-05-03T12:31:32Z</time></trkpt><trkpt lat="38.019602" lon="14.4503353"><ele>357.0</ele><time>2026-05-03T12:31:33Z</time></trkpt><trkpt lat="38.019709" lon="14.4502144"><ele>357.0</ele><time>2026-05-03T12:31:34Z</time></trkpt><trkpt lat="38.0198011" lon="14.4501097"><ele>357.0</ele><time>2026-05-03T12:31:35Z</time></trkpt><trkpt lat="38.0199255" lon="14.4500173"><ele>357.0</ele><time>2026-05-03T12:31:36Z</time></trkpt><trkpt lat="38.020064" lon="14.4499258"><ele>357.0</ele><time>2026-05-03T12:31:37Z</time></trkpt><trkpt lat="38.0202085" lon="14.4498278"><ele>356.75</ele><time>2026-05-03T12:31:38Z</time></trkpt><trkpt lat="38.0203521" lon="14.4497337"><ele>356.5</ele><time>2026-05-03T12:31:39Z</time></trkpt><trkpt lat="38.0204722" lon="14.4496218"><ele>356.25</ele><time>2026-05-03T12:31:40Z</time></trkpt><trkpt lat="38.020565" lon="14.449515"><ele>356.0</ele><time>2026-05-03T12:31:41Z</time></trkpt><trkpt lat="38.0206415" lon="14.4493986"><ele>356.0</ele><time>2026-05-03T12:31:42Z</time></trkpt><trkpt lat="38.0206897" lon="14.4492703"><ele>356.0</ele><time>2026-05-03T12:31:43Z</time></trkpt><trkpt lat="38.0206998" lon="14.4491333"><ele>356.0</ele><time>2026-05-03T12:31:44Z</time></trkpt><trkpt lat="38.0206812" lon="14.4489868"><ele>356.0</ele><time>2026-05-03T12:31:45Z</time></trkpt><trkpt lat="38.0206525" lon="14.4488354"><ele>353.0</ele><time>2026-05-03T12:31:46Z</time></trkpt><trkpt lat="38.0206221" lon="14.4486919"><ele>350.0</ele><time>2026-05-03T12:31:47Z</time></trkpt><trkpt lat="38.0206076" lon="14.4485568"><ele>347.0</ele><time>2026-05-03T12:31:48Z</time></trkpt><trkpt lat="38.0206161" lon="14.4484083"><ele>344.0</ele><time>2026-05-03T12:31:49Z</time></trkpt><trkpt lat="38.0206531" lon="14.4482592"><ele>344.0</ele><time>2026-05-03T12:31:50Z</time></trkpt><trkpt lat="38.0207035" lon="14.4480916"><ele>344.0</ele><time>2026-05-03T12:31:51Z</time></trkpt><trkpt lat="38.0207559" lon="14.4479126"><ele>344.0</ele><time>2026-05-03T12:31:52Z</time></trkpt><trkpt lat="38.0208013" lon="14.4477153"><ele>351.0</ele><time>2026-05-03T12:31:53Z</time></trkpt><trkpt lat="38.0208373" lon="14.4475138"><ele>358.0</ele><time>2026-05-03T12:31:54Z</time></trkpt><trkpt lat="38.0208681" lon="14.4472962"><ele>365.0</ele><time>2026-05-03T12:31:55Z</time></trkpt><trkpt lat="38.0209006" lon="14.4470691"><ele>365.0</ele><time>2026-05-03T12:31:56Z</time></trkpt><trkpt lat="38.0209312" lon="14.4468408"><ele>365.0</ele><time>2026-05-03T12:31:57Z</time></trkpt><trkpt lat="38.0209522" lon="14.4465998"><ele>365.0</ele><time>2026-05-03T12:31:58Z</time></trkpt><trkpt lat="38.0209681" lon="14.4463596"><ele>362.6666666666667</ele><time>2026-05-03T12:31:59Z</time></trkpt><trkpt lat="38.020974" lon="14.4461413"><ele>360.3333333333333</ele><time>2026-05-03T12:32:00Z</time></trkpt><trkpt lat="38.0209806" lon="14.4459373"><ele>358.0</ele><time>2026-05-03T12:32:01Z</time></trkpt><trkpt lat="38.0209869" lon="14.4457509"><ele>358.0</ele><time>2026-05-03T12:32:02Z</time></trkpt><trkpt lat="38.0209929" lon="14.445589"><ele>358.0</ele><time>2026-05-03T12:32:03Z</time></trkpt><trkpt lat="38.0210284" lon="14.4454499"><ele>358.0</ele><time>2026-05-03T12:32:04Z</time></trkpt><trkpt lat="38.0211028" lon="14.4453317"><ele>358.0</ele><time>2026-05-03T12:32:05Z</time></trkpt><trkpt lat="38.0211847" lon="14.4452137"><ele>356.0</ele><time>2026-05-03T12:32:06Z</time></trkpt><trkpt lat="38.0212946" lon="14.4451277"><ele>354.0</ele><time>2026-05-03T12:32:07Z</time></trkpt><trkpt lat="38.0213938" lon="14.4450609"><ele>352.0</ele><time>2026-05-03T12:32:08Z</time></trkpt><trkpt lat="38.0214774" lon="14.4449871"><ele>350.0</ele><time>2026-05-03T12:32:09Z</time></trkpt><trkpt lat="38.0215466" lon="14.4448837"><ele>350.0</ele><time>2026-05-03T12:32:10Z</time></trkpt><trkpt lat="38.0216038" lon="14.4447744"><ele>350.0</ele><time>2026-05-03T12:32:11Z</time></trkpt><trkpt lat="38.0216424" lon="14.4446584"><ele>350.0</ele><time>2026-05-03T12:32:12Z</time></trkpt><trkpt lat="38.0216619" lon="14.4445567"><ele>350.0</ele><time>2026-05-03T12:32:13Z</time></trkpt><trkpt lat="38.0216482" lon="14.4444513"><ele>350.0</ele><time>2026-05-03T12:32:14Z</time></trkpt><trkpt lat="38.0215937" lon="14.4443701"><ele>347.6</ele><time>2026-05-03T12:32:15Z</time></trkpt><trkpt lat="38.0215079" lon="14.4442907"><ele>345.2</ele><time>2026-05-03T12:32:16Z</time></trkpt><trkpt lat="38.0214131" lon="14.4442328"><ele>342.79999999999995</ele><time>2026-05-03T12:32:17Z</time></trkpt><trkpt lat="38.0213223" lon="14.4441896"><ele>340.4</ele><time>2026-05-03T12:32:18Z</time></trkpt><trkpt lat="38.0212358" lon="14.4441404"><ele>338.0</ele><time>2026-05-03T12:32:19Z</time></trkpt><trkpt lat="38.0211653" lon="14.4440669"><ele>338.0</ele><time>2026-05-03T12:32:20Z</time></trkpt><trkpt lat="38.0211208" lon="14.4439648"><ele>338.0</ele><time>2026-05-03T12:32:21Z</time></trkpt><trkpt lat="38.0211117" lon="14.4438304"><ele>338.0</ele><time>2026-05-03T12:32:22Z</time></trkpt><trkpt lat="38.0211092" lon="14.4436699"><ele>338.0</ele><time>2026-05-03T12:32:23Z</time></trkpt><trkpt lat="38.0211124" lon="14.443496"><ele>335.75</ele><time>2026-05-03T12:32:24Z</time></trkpt><trkpt lat="38.02111" lon="14.4433238"><ele>333.5</ele><time>2026-05-03T12:32:25Z</time></trkpt><trkpt lat="38.0210965" lon="14.4431486"><ele>331.25</ele><time>2026-05-03T12:32:26Z</time></trkpt><trkpt lat="38.0210688" lon="14.4429813"><ele>329.0</ele><time>2026-05-03T12:32:27Z</time></trkpt><trkpt lat="38.0210381" lon="14.4428278"><ele>329.0</ele><time>2026-05-03T12:32:28Z</time></trkpt><trkpt lat="38.0210062" lon="14.442672"><ele>329.0</ele><time>2026-05-03T12:32:29Z</time></trkpt><trkpt lat="38.0209775" lon="14.442518"><ele>329.0</ele><time>2026-05-03T12:32:30Z</time></trkpt><trkpt lat="38.0209525" lon="14.4423774"><ele>329.0</ele><time>2026-05-03T12:32:31Z</time></trkpt><trkpt lat="38.0209362" lon="14.4422431"><ele>329.4</ele><time>2026-05-03T12:32:32Z</time></trkpt><trkpt lat="38.0209723" lon="14.4421268"><ele>329.79999999999995</ele><time>2026-05-03T12:32:33Z</time></trkpt><trkpt lat="38.0210158" lon="14.4420181"><ele>330.20000000000005</ele><time>2026-05-03T12:32:34Z</time></trkpt><trkpt lat="38.021061" lon="14.4419"><ele>330.6</ele><time>2026-05-03T12:32:35Z</time></trkpt><trkpt lat="38.0211144" lon="14.4417598"><ele>331.0</ele><time>2026-05-03T12:32:36Z</time></trkpt><trkpt lat="38.0211633" lon="14.441647"><ele>331.0</ele><time>2026-05-03T12:32:37Z</time></trkpt><trkpt lat="38.0212115" lon="14.4415369"><ele>331.0</ele><time>2026-05-03T12:32:38Z</time></trkpt><trkpt lat="38.0212661" lon="14.4414469"><ele>331.0</ele><time>2026-05-03T12:32:39Z</time></trkpt><trkpt lat="38.0213315" lon="14.4413777"><ele>331.0</ele><time>2026-05-03T12:32:40Z</time></trkpt><trkpt lat="38.0214203" lon="14.4413153"><ele>331.0</ele><time>2026-05-03T12:32:41Z</time></trkpt><trkpt lat="38.0215047" lon="14.4412844"><ele>331.66666666666663</ele><time>2026-05-03T12:32:42Z</time></trkpt><trkpt lat="38.0215852" lon="14.4412603"><ele>332.3333333333333</ele><time>2026-05-03T12:32:43Z</time></trkpt><trkpt lat="38.0216551" lon="14.4412615"><ele>333.0</ele><time>2026-05-03T12:32:44Z</time></trkpt><trkpt lat="38.0217088" lon="14.4413187"><ele>333.6666666666667</ele><time>2026-05-03T12:32:45Z</time></trkpt><trkpt lat="38.021727" lon="14.4414038"><ele>334.33333333333337</ele><time>2026-05-03T12:32:46Z</time></trkpt><trkpt lat="38.0217413" lon="14.4415011"><ele>335.0</ele><time>2026-05-03T12:32:47Z</time></trkpt><trkpt lat="38.0217545" lon="14.4416117"><ele>335.0</ele><time>2026-05-03T12:32:48Z</time></trkpt><trkpt lat="38.021769" lon="14.4417291"><ele>335.0</ele><time>2026-05-03T12:32:49Z</time></trkpt><trkpt lat="38.0217935" lon="14.4418489"><ele>335.0</ele><time>2026-05-03T12:32:50Z</time></trkpt><trkpt lat="38.0218223" lon="14.4419801"><ele>335.0</ele><time>2026-05-03T12:32:50.999Z</time></trkpt><trkpt lat="38.0218534" lon="14.4421111"><ele>335.0</ele><time>2026-05-03T12:32:52Z</time></trkpt><trkpt lat="38.0218727" lon="14.4422523"><ele>335.5</ele><time>2026-05-03T12:32:53Z</time></trkpt><trkpt lat="38.0218745" lon="14.4424174"><ele>336.0</ele><time>2026-05-03T12:32:54Z</time></trkpt><trkpt lat="38.0218691" lon="14.4425921"><ele>336.5</ele><time>2026-05-03T12:32:54.999Z</time></trkpt><trkpt lat="38.0218745" lon="14.4427572"><ele>337.0</ele><time>2026-05-03T12:32:56Z</time></trkpt><trkpt lat="38.021871" lon="14.4429013"><ele>337.0</ele><time>2026-05-03T12:32:57Z</time></trkpt><trkpt lat="38.0218803" lon="14.4430232"><ele>337.0</ele><time>2026-05-03T12:32:58Z</time></trkpt><trkpt lat="38.0219184" lon="14.4431388"><ele>337.0</ele><time>2026-05-03T12:32:59Z</time></trkpt><trkpt lat="38.0219811" lon="14.4432208"><ele>337.0</ele><time>2026-05-03T12:33:00Z</time></trkpt><trkpt lat="38.0220611" lon="14.443268"><ele>337.0</ele><time>2026-05-03T12:33:01Z</time></trkpt><trkpt lat="38.0221519" lon="14.4433097"><ele>337.0</ele><time>2026-05-03T12:33:02Z</time></trkpt><trkpt lat="38.0222428" lon="14.4433399"><ele>337.0</ele><time>2026-05-03T12:33:03Z</time></trkpt><trkpt lat="38.0223251" lon="14.4433567"><ele>337.0</ele><time>2026-05-03T12:33:04Z</time></trkpt><trkpt lat="38.0224064" lon="14.4433814"><ele>337.0</ele><time>2026-05-03T12:33:05Z</time></trkpt><trkpt lat="38.0224892" lon="14.4434246"><ele>337.0</ele><time>2026-05-03T12:33:06Z</time></trkpt><trkpt lat="38.0225533" lon="14.4434978"><ele>337.0</ele><time>2026-05-03T12:33:07Z</time></trkpt><trkpt lat="38.0225944" lon="14.4435988"><ele>332.5</ele><time>2026-05-03T12:33:08Z</time></trkpt><trkpt lat="38.0226151" lon="14.4437203"><ele>328.0</ele><time>2026-05-03T12:33:09Z</time></trkpt><trkpt lat="38.0226231" lon="14.4438689"><ele>323.5</ele><time>2026-05-03T12:33:10Z</time></trkpt><trkpt lat="38.0226307" lon="14.4440293"><ele>319.0</ele><time>2026-05-03T12:33:11Z</time></trkpt><trkpt lat="38.0226413" lon="14.4441992"><ele>319.0</ele><time>2026-05-03T12:33:12Z</time></trkpt><trkpt lat="38.0226672" lon="14.4443689"><ele>319.0</ele><time>2026-05-03T12:33:13Z</time></trkpt><trkpt lat="38.022705" lon="14.4445372"><ele>319.0</ele><time>2026-05-03T12:33:14Z</time></trkpt><trkpt lat="38.0227475" lon="14.4446859"><ele>319.0</ele><time>2026-05-03T12:33:15Z</time></trkpt><trkpt lat="38.0228103" lon="14.4448137"><ele>319.25</ele><time>2026-05-03T12:33:16Z</time></trkpt><trkpt lat="38.0228847" lon="14.4449287"><ele>319.5</ele><time>2026-05-03T12:33:17Z</time></trkpt><trkpt lat="38.0229826" lon="14.4450064"><ele>319.75</ele><time>2026-05-03T12:33:18Z</time></trkpt><trkpt lat="38.0230874" lon="14.4450592"><ele>320.0</ele><time>2026-05-03T12:33:19Z</time></trkpt><trkpt lat="38.023201" lon="14.4450784"><ele>316.8</ele><time>2026-05-03T12:33:20Z</time></trkpt><trkpt lat="38.0233154" lon="14.4450514"><ele>313.6</ele><time>2026-05-03T12:33:21Z</time></trkpt><trkpt lat="38.0234182" lon="14.4450001"><ele>310.4</ele><time>2026-05-03T12:33:22Z</time></trkpt><trkpt lat="38.0235133" lon="14.4449403"><ele>307.2</ele><time>2026-05-03T12:33:23Z</time></trkpt><trkpt lat="38.0236053" lon="14.444878"><ele>304.0</ele><time>2026-05-03T12:33:24Z</time></trkpt><trkpt lat="38.0236974" lon="14.4448099"><ele>304.0</ele><time>2026-05-03T12:33:25Z</time></trkpt><trkpt lat="38.0237861" lon="14.4447449"><ele>304.0</ele><time>2026-05-03T12:33:26Z</time></trkpt><trkpt lat="38.023868" lon="14.4446792"><ele>304.0</ele><time>2026-05-03T12:33:27Z</time></trkpt><trkpt lat="38.0239592" lon="14.4446388"><ele>304.0</ele><time>2026-05-03T12:33:28Z</time></trkpt><trkpt lat="38.0240602" lon="14.4446175"><ele>304.0</ele><time>2026-05-03T12:33:29Z</time></trkpt><trkpt lat="38.0241792" lon="14.4446138"><ele>295.0</ele><time>2026-05-03T12:33:29.999Z</time></trkpt><trkpt lat="38.0242973" lon="14.4446182"><ele>286.0</ele><time>2026-05-03T12:33:31Z</time></trkpt><trkpt lat="38.0244185" lon="14.4446122"><ele>277.0</ele><time>2026-05-03T12:33:32Z</time></trkpt><trkpt lat="38.0245465" lon="14.4445864"><ele>268.0</ele><time>2026-05-03T12:33:33Z</time></trkpt><trkpt lat="38.0246652" lon="14.444543"><ele>268.0</ele><time>2026-05-03T12:33:34Z</time></trkpt><trkpt lat="38.0247808" lon="14.444493"><ele>268.0</ele><time>2026-05-03T12:33:35Z</time></trkpt><trkpt lat="38.0248991" lon="14.4444832"><ele>268.0</ele><time>2026-05-03T12:33:36Z</time></trkpt><trkpt lat="38.0250158" lon="14.4444972"><ele>268.0</ele><time>2026-05-03T12:33:37Z</time></trkpt><trkpt lat="38.0251389" lon="14.4444914"><ele>267.0</ele><time>2026-05-03T12:33:38Z</time></trkpt><trkpt lat="38.0252579" lon="14.4444596"><ele>266.0</ele><time>2026-05-03T12:33:39Z</time></trkpt><trkpt lat="38.0253767" lon="14.444412"><ele>265.0</ele><time>2026-05-03T12:33:40Z</time></trkpt><trkpt lat="38.0254876" lon="14.4443871"><ele>264.0</ele><time>2026-05-03T12:33:41Z</time></trkpt><trkpt lat="38.0256101" lon="14.444391"><ele>264.0</ele><time>2026-05-03T12:33:42Z</time></trkpt><trkpt lat="38.025736" lon="14.4444258"><ele>264.0</ele><time>2026-05-03T12:33:43Z</time></trkpt><trkpt lat="38.0258621" lon="14.4444664"><ele>264.0</ele><time>2026-05-03T12:33:44Z</time></trkpt><trkpt lat="38.0259837" lon="14.4444984"><ele>264.0</ele><time>2026-05-03T12:33:45Z</time></trkpt><trkpt lat="38.0261004" lon="14.4445045"><ele>263.0</ele><time>2026-05-03T12:33:46Z</time></trkpt><trkpt lat="38.0262098" lon="14.4445249"><ele>262.0</ele><time>2026-05-03T12:33:47Z</time></trkpt><trkpt lat="38.0263059" lon="14.4445633"><ele>261.0</ele><time>2026-05-03T12:33:48Z</time></trkpt><trkpt lat="38.0263817" lon="14.4446343"><ele>260.0</ele><time>2026-05-03T12:33:49Z</time></trkpt><trkpt lat="38.0264108" lon="14.4447382"><ele>259.0</ele><time>2026-05-03T12:33:50Z</time></trkpt><trkpt lat="38.0264014" lon="14.4448569"><ele>263.2</ele><time>2026-05-03T12:33:50.999Z</time></trkpt><trkpt lat="38.0263474" lon="14.4449908"><ele>267.4</ele><time>2026-05-03T12:33:52Z</time></trkpt><trkpt lat="38.0262759" lon="14.4451301"><ele>271.6</ele><time>2026-05-03T12:33:53Z</time></trkpt><trkpt lat="38.0262162" lon="14.4452603"><ele>275.8</ele><time>2026-05-03T12:33:54Z</time></trkpt><trkpt lat="38.0261963" lon="14.4453518"><ele>280.0</ele><time>2026-05-03T12:33:55Z</time></trkpt><trkpt lat="38.0262105" lon="14.4454321"><ele>280.0</ele><time>2026-05-03T12:33:56Z</time></trkpt><trkpt lat="38.0263302" lon="14.4455027"><ele>280.0</ele><time>2026-05-03T12:33:58Z</time></trkpt><trkpt lat="38.0263964" lon="14.4454638"><ele>280.0</ele><time>2026-05-03T12:33:59Z</time></trkpt><trkpt lat="38.0264532" lon="14.4453775"><ele>280.0</ele><time>2026-05-03T12:34:00Z</time></trkpt><trkpt lat="38.0265195" lon="14.4452687"><ele>280.0</ele><time>2026-05-03T12:34:01Z</time></trkpt><trkpt lat="38.0265809" lon="14.4451521"><ele>280.0</ele><time>2026-05-03T12:34:02Z</time></trkpt><trkpt lat="38.0266405" lon="14.4450409"><ele>280.0</ele><time>2026-05-03T12:34:03Z</time></trkpt><trkpt lat="38.0266987" lon="14.4449224"><ele>280.0</ele><time>2026-05-03T12:34:04Z</time></trkpt><trkpt lat="38.0267367" lon="14.4447778"><ele>280.0</ele><time>2026-05-03T12:34:05Z</time></trkpt><trkpt lat="38.0267422" lon="14.4446436"><ele>280.0</ele><time>2026-05-03T12:34:06Z</time></trkpt><trkpt lat="38.026726" lon="14.4445165"><ele>274.75</ele><time>2026-05-03T12:34:07Z</time></trkpt><trkpt lat="38.0266694" lon="14.4444061"><ele>269.5</ele><time>2026-05-03T12:34:08Z</time></trkpt><trkpt lat="38.0265725" lon="14.4443127"><ele>264.25</ele><time>2026-05-03T12:34:09Z</time></trkpt><trkpt lat="38.0264453" lon="14.4442316"><ele>259.0</ele><time>2026-05-03T12:34:10Z</time></trkpt><trkpt lat="38.0263129" lon="14.4441523"><ele>259.0</ele><time>2026-05-03T12:34:11Z</time></trkpt><trkpt lat="38.0261967" lon="14.444056"><ele>259.0</ele><time>2026-05-03T12:34:12Z</time></trkpt><trkpt lat="38.0260944" lon="14.4439489"><ele>259.0</ele><time>2026-05-03T12:34:13Z</time></trkpt><trkpt lat="38.0260091" lon="14.4438275"><ele>259.0</ele><time>2026-05-03T12:34:14Z</time></trkpt><trkpt lat="38.0259193" lon="14.4437333"><ele>254.0</ele><time>2026-05-03T12:34:15Z</time></trkpt><trkpt lat="38.0258103" lon="14.4436795"><ele>249.0</ele><time>2026-05-03T12:34:16Z</time></trkpt><trkpt lat="38.0256948" lon="14.443669"><ele>244.0</ele><time>2026-05-03T12:34:17Z</time></trkpt><trkpt lat="38.0255782" lon="14.443698"><ele>239.0</ele><time>2026-05-03T12:34:18Z</time></trkpt><trkpt lat="38.0254713" lon="14.4437397"><ele>239.0</ele><time>2026-05-03T12:34:19Z</time></trkpt><trkpt lat="38.0253658" lon="14.4437844"><ele>238.99999999999997</ele><time>2026-05-03T12:34:20Z</time></trkpt><trkpt lat="38.0252815" lon="14.4438101"><ele>238.99999999999997</ele><time>2026-05-03T12:34:21Z</time></trkpt><trkpt lat="38.0251913" lon="14.4438035"><ele>239.0</ele><time>2026-05-03T12:34:23Z</time></trkpt><trkpt lat="38.0252195" lon="14.4437113"><ele>239.0</ele><time>2026-05-03T12:34:27Z</time></trkpt><trkpt lat="38.0253159" lon="14.4436838"><ele>239.0</ele><time>2026-05-03T12:34:29Z</time></trkpt><trkpt lat="38.0254405" lon="14.4436426"><ele>238.99999999999997</ele><time>2026-05-03T12:34:31Z</time></trkpt><trkpt lat="38.0255165" lon="14.4436101"><ele>238.99999999999997</ele><time>2026-05-03T12:34:32Z</time></trkpt><trkpt lat="38.0256029" lon="14.4435744"><ele>239.0</ele><time>2026-05-03T12:34:33Z</time></trkpt><trkpt lat="38.0256949" lon="14.4435342"><ele>239.0</ele><time>2026-05-03T12:34:34Z</time></trkpt><trkpt lat="38.0257931" lon="14.4435009"><ele>236.0</ele><time>2026-05-03T12:34:34.999Z</time></trkpt><trkpt lat="38.0258837" lon="14.4434957"><ele>232.99999999999997</ele><time>2026-05-03T12:34:36Z</time></trkpt><trkpt lat="38.0259773" lon="14.4435259"><ele>229.99999999999997</ele><time>2026-05-03T12:34:37Z</time></trkpt><trkpt lat="38.0260592" lon="14.4435926"><ele>227.0</ele><time>2026-05-03T12:34:38Z</time></trkpt><trkpt lat="38.0261296" lon="14.4436719"><ele>224.0</ele><time>2026-05-03T12:34:39Z</time></trkpt><trkpt lat="38.0262016" lon="14.4437517"><ele>227.25</ele><time>2026-05-03T12:34:40Z</time></trkpt><trkpt lat="38.0262879" lon="14.4438265"><ele>230.5</ele><time>2026-05-03T12:34:41Z</time></trkpt><trkpt lat="38.0264005" lon="14.44387"><ele>233.75</ele><time>2026-05-03T12:34:42Z</time></trkpt><trkpt lat="38.0265371" lon="14.4438911"><ele>237.0</ele><time>2026-05-03T12:34:43Z</time></trkpt><trkpt lat="38.0266843" lon="14.4439108"><ele>237.0</ele><time>2026-05-03T12:34:44Z</time></trkpt><trkpt lat="38.0268431" lon="14.4439463"><ele>237.0</ele><time>2026-05-03T12:34:45Z</time></trkpt><trkpt lat="38.0270344" lon="14.4439834"><ele>237.0</ele><time>2026-05-03T12:34:46Z</time></trkpt><trkpt lat="38.0272181" lon="14.4440488"><ele>237.0</ele><time>2026-05-03T12:34:47Z</time></trkpt><trkpt lat="38.0273895" lon="14.4441104"><ele>237.0</ele><time>2026-05-03T12:34:48Z</time></trkpt><trkpt lat="38.0275513" lon="14.4441564"><ele>237.0</ele><time>2026-05-03T12:34:49Z</time></trkpt><trkpt lat="38.0277083" lon="14.4441868"><ele>232.25</ele><time>2026-05-03T12:34:50Z</time></trkpt><trkpt lat="38.0278537" lon="14.4442108"><ele>227.5</ele><time>2026-05-03T12:34:51Z</time></trkpt><trkpt lat="38.0279843" lon="14.4442286"><ele>222.75</ele><time>2026-05-03T12:34:52Z</time></trkpt><trkpt lat="38.028103" lon="14.4442437"><ele>218.0</ele><time>2026-05-03T12:34:53Z</time></trkpt><trkpt lat="38.0281967" lon="14.444282"><ele>218.00000000000003</ele><time>2026-05-03T12:34:54Z</time></trkpt><trkpt lat="38.0282486" lon="14.444342"><ele>218.0</ele><time>2026-05-03T12:34:55Z</time></trkpt><trkpt lat="38.0282567" lon="14.4444232"><ele>218.0</ele><time>2026-05-03T12:34:56Z</time></trkpt><trkpt lat="38.0282211" lon="14.4445029"><ele>218.0</ele><time>2026-05-03T12:34:57Z</time></trkpt><trkpt lat="38.0281449" lon="14.4445592"><ele>218.00000000000003</ele><time>2026-05-03T12:34:58Z</time></trkpt><trkpt lat="38.0280342" lon="14.4446098"><ele>218.0</ele><time>2026-05-03T12:34:59Z</time></trkpt><trkpt lat="38.0279022" lon="14.4446839"><ele>219.33333333333334</ele><time>2026-05-03T12:35:00Z</time></trkpt><trkpt lat="38.027756" lon="14.4448172"><ele>220.66666666666669</ele><time>2026-05-03T12:35:01Z</time></trkpt><trkpt lat="38.0276021" lon="14.4449975"><ele>222.0</ele><time>2026-05-03T12:35:02Z</time></trkpt><trkpt lat="38.0274539" lon="14.4451826"><ele>225.66666666666669</ele><time>2026-05-03T12:35:03Z</time></trkpt><trkpt lat="38.0273095" lon="14.4453455"><ele>229.33333333333334</ele><time>2026-05-03T12:35:04Z</time></trkpt><trkpt lat="38.0271769" lon="14.4454953"><ele>233.0</ele><time>2026-05-03T12:35:05Z</time></trkpt><trkpt lat="38.0270728" lon="14.445625"><ele>233.00000000000003</ele><time>2026-05-03T12:35:06Z</time></trkpt><trkpt lat="38.026987" lon="14.4457336"><ele>233.0</ele><time>2026-05-03T12:35:07Z</time></trkpt><trkpt lat="38.0269297" lon="14.4458286"><ele>233.0</ele><time>2026-05-03T12:35:08Z</time></trkpt><trkpt lat="38.0269148" lon="14.4459167"><ele>233.0</ele><time>2026-05-03T12:35:09Z</time></trkpt><trkpt lat="38.0269381" lon="14.4459925"><ele>233.00000000000003</ele><time>2026-05-03T12:35:10Z</time></trkpt><trkpt lat="38.0270024" lon="14.446043"><ele>233.0</ele><time>2026-05-03T12:35:11Z</time></trkpt><trkpt lat="38.0271084" lon="14.446047"><ele>233.0</ele><time>2026-05-03T12:35:12Z</time></trkpt><trkpt lat="38.0272119" lon="14.446057"><ele>233.0</ele><time>2026-05-03T12:35:13Z</time></trkpt><trkpt lat="38.0273651" lon="14.4459746"><ele>233.0</ele><time>2026-05-03T12:35:14Z</time></trkpt><trkpt lat="38.0276993" lon="14.4459114"><ele>224.5</ele><time>2026-05-03T12:35:15Z</time></trkpt><trkpt lat="38.0279467" lon="14.4458684"><ele>216.0</ele><time>2026-05-03T12:35:15.999Z</time></trkpt><trkpt lat="38.0282134" lon="14.4457855"><ele>215.0</ele><time>2026-05-03T12:35:17Z</time></trkpt><trkpt lat="38.0284639" lon="14.445737"><ele>214.0</ele><time>2026-05-03T12:35:18Z</time></trkpt><trkpt lat="38.0286932" lon="14.4456979"><ele>214.0</ele><time>2026-05-03T12:35:19Z</time></trkpt><trkpt lat="38.0288868" lon="14.4456705"><ele>214.0</ele><time>2026-05-03T12:35:20Z</time></trkpt><trkpt lat="38.0290551" lon="14.4456457"><ele>214.0</ele><time>2026-05-03T12:35:21Z</time></trkpt><trkpt lat="38.029203" lon="14.4456216"><ele>211.2</ele><time>2026-05-03T12:35:22Z</time></trkpt><trkpt lat="38.0293285" lon="14.4456149"><ele>208.39999999999998</ele><time>2026-05-03T12:35:23Z</time></trkpt><trkpt lat="38.0294354" lon="14.4456452"><ele>205.6</ele><time>2026-05-03T12:35:24Z</time></trkpt><trkpt lat="38.0295205" lon="14.4457083"><ele>202.8</ele><time>2026-05-03T12:35:25Z</time></trkpt><trkpt lat="38.0295896" lon="14.4458156"><ele>200.0</ele><time>2026-05-03T12:35:26Z</time></trkpt><trkpt lat="38.0296321" lon="14.4459719"><ele>200.0</ele><time>2026-05-03T12:35:27Z</time></trkpt><trkpt lat="38.0296691" lon="14.4461335"><ele>200.0</ele><time>2026-05-03T12:35:28Z</time></trkpt><trkpt lat="38.0296464" lon="14.4464273"><ele>200.0</ele><time>2026-05-03T12:35:29Z</time></trkpt><trkpt lat="38.0296775" lon="14.4466843"><ele>205.0</ele><time>2026-05-03T12:35:30Z</time></trkpt><trkpt lat="38.0297155" lon="14.44693"><ele>210.0</ele><time>2026-05-03T12:35:31Z</time></trkpt><trkpt lat="38.0297498" lon="14.4471536"><ele>215.0</ele><time>2026-05-03T12:35:32Z</time></trkpt><trkpt lat="38.0297586" lon="14.4473446"><ele>215.6</ele><time>2026-05-03T12:35:33Z</time></trkpt><trkpt lat="38.0297502" lon="14.4475096"><ele>216.2</ele><time>2026-05-03T12:35:34Z</time></trkpt><trkpt lat="38.0297422" lon="14.4476328"><ele>216.8</ele><time>2026-05-03T12:35:35Z</time></trkpt><trkpt lat="38.0297647" lon="14.447757"><ele>217.4</ele><time>2026-05-03T12:35:36Z</time></trkpt><trkpt lat="38.0298273" lon="14.4478454"><ele>218.0</ele><time>2026-05-03T12:35:37Z</time></trkpt><trkpt lat="38.0299347" lon="14.4479039"><ele>212.25</ele><time>2026-05-03T12:35:38Z</time></trkpt><trkpt lat="38.0300721" lon="14.4479197"><ele>206.5</ele><time>2026-05-03T12:35:39Z</time></trkpt><trkpt lat="38.0302041" lon="14.4479584"><ele>200.75</ele><time>2026-05-03T12:35:40Z</time></trkpt><trkpt lat="38.0303139" lon="14.448014"><ele>195.0</ele><time>2026-05-03T12:35:41Z</time></trkpt><trkpt lat="38.0303918" lon="14.4481019"><ele>195.0</ele><time>2026-05-03T12:35:42Z</time></trkpt><trkpt lat="38.0304425" lon="14.4482255"><ele>195.0</ele><time>2026-05-03T12:35:43Z</time></trkpt><trkpt lat="38.0304733" lon="14.4483976"><ele>195.0</ele><time>2026-05-03T12:35:44Z</time></trkpt><trkpt lat="38.0304931" lon="14.4485613"><ele>195.0</ele><time>2026-05-03T12:35:45Z</time></trkpt><trkpt lat="38.030487" lon="14.4487351"><ele>195.5</ele><time>2026-05-03T12:35:46Z</time></trkpt><trkpt lat="38.0304647" lon="14.4489076"><ele>196.0</ele><time>2026-05-03T12:35:47Z</time></trkpt><trkpt lat="38.0304215" lon="14.4490826"><ele>196.5</ele><time>2026-05-03T12:35:48Z</time></trkpt><trkpt lat="38.0303657" lon="14.4492472"><ele>197.0</ele><time>2026-05-03T12:35:49Z</time></trkpt><trkpt lat="38.0303147" lon="14.4494171"><ele>197.0</ele><time>2026-05-03T12:35:50Z</time></trkpt><trkpt lat="38.0302553" lon="14.4495823"><ele>197.0</ele><time>2026-05-03T12:35:51Z</time></trkpt><trkpt lat="38.0301885" lon="14.4497441"><ele>197.0</ele><time>2026-05-03T12:35:52Z</time></trkpt><trkpt lat="38.0301424" lon="14.4499051"><ele>197.0</ele><time>2026-05-03T12:35:53Z</time></trkpt><trkpt lat="38.0301159" lon="14.4500614"><ele>194.0</ele><time>2026-05-03T12:35:54Z</time></trkpt><trkpt lat="38.0301139" lon="14.4502129"><ele>191.0</ele><time>2026-05-03T12:35:55Z</time></trkpt><trkpt lat="38.0301066" lon="14.4503432"><ele>188.0</ele><time>2026-05-03T12:35:56Z</time></trkpt><trkpt lat="38.0300728" lon="14.4504584"><ele>185.0</ele><time>2026-05-03T12:35:57Z</time></trkpt><trkpt lat="38.030033" lon="14.4505571"><ele>182.0</ele><time>2026-05-03T12:35:58Z</time></trkpt><trkpt lat="38.0300032" lon="14.4506377"><ele>182.0</ele><time>2026-05-03T12:35:59Z</time></trkpt><trkpt lat="38.0300338" lon="14.4507456"><ele>182.0</ele><time>2026-05-03T12:36:01Z</time></trkpt><trkpt lat="38.0301209" lon="14.4507223"><ele>182.0</ele><time>2026-05-03T12:36:03Z</time></trkpt><trkpt lat="38.030187" lon="14.4506124"><ele>182.0</ele><time>2026-05-03T12:36:05Z</time></trkpt><trkpt lat="38.0302053" lon="14.4505103"><ele>182.0</ele><time>2026-05-03T12:36:06Z</time></trkpt><trkpt lat="38.0302031" lon="14.4503935"><ele>182.0</ele><time>2026-05-03T12:36:07Z</time></trkpt><trkpt lat="38.0302029" lon="14.4502506"><ele>182.0</ele><time>2026-05-03T12:36:08Z</time></trkpt><trkpt lat="38.0302273" lon="14.4500871"><ele>182.0</ele><time>2026-05-03T12:36:09Z</time></trkpt><trkpt lat="38.03029" lon="14.4499132"><ele>182.0</ele><time>2026-05-03T12:36:10Z</time></trkpt><trkpt lat="38.0303574" lon="14.4497414"><ele>187.0</ele><time>2026-05-03T12:36:11Z</time></trkpt><trkpt lat="38.0304368" lon="14.4495762"><ele>192.0</ele><time>2026-05-03T12:36:12Z</time></trkpt><trkpt lat="38.0305166" lon="14.4494005"><ele>197.0</ele><time>2026-05-03T12:36:13Z</time></trkpt><trkpt lat="38.0305846" lon="14.449205"><ele>197.0</ele><time>2026-05-03T12:36:14Z</time></trkpt><trkpt lat="38.0306447" lon="14.4489952"><ele>197.0</ele><time>2026-05-03T12:36:15Z</time></trkpt><trkpt lat="38.0306867" lon="14.4487929"><ele>197.0</ele><time>2026-05-03T12:36:16Z</time></trkpt><trkpt lat="38.0307268" lon="14.4485944"><ele>196.33333333333334</ele><time>2026-05-03T12:36:17Z</time></trkpt><trkpt lat="38.0307566" lon="14.4484139"><ele>195.66666666666669</ele><time>2026-05-03T12:36:18Z</time></trkpt><trkpt lat="38.0307606" lon="14.4482227"><ele>195.0</ele><time>2026-05-03T12:36:19Z</time></trkpt><trkpt lat="38.0307275" lon="14.4480313"><ele>190.25</ele><time>2026-05-03T12:36:20Z</time></trkpt><trkpt lat="38.030677" lon="14.447862"><ele>185.5</ele><time>2026-05-03T12:36:21Z</time></trkpt><trkpt lat="38.0306031" lon="14.4477201"><ele>180.75</ele><time>2026-05-03T12:36:22Z</time></trkpt><trkpt lat="38.0305158" lon="14.4476098"><ele>176.0</ele><time>2026-05-03T12:36:23Z</time></trkpt><trkpt lat="38.0304344" lon="14.4475022"><ele>176.0</ele><time>2026-05-03T12:36:24Z</time></trkpt><trkpt lat="38.0303833" lon="14.4473708"><ele>176.0</ele><time>2026-05-03T12:36:25Z</time></trkpt><trkpt lat="38.0303549" lon="14.4472062"><ele>176.0</ele><time>2026-05-03T12:36:26Z</time></trkpt><trkpt lat="38.0303591" lon="14.4470118"><ele>176.0</ele><time>2026-05-03T12:36:27Z</time></trkpt><trkpt lat="38.0303702" lon="14.4468421"><ele>174.5</ele><time>2026-05-03T12:36:28Z</time></trkpt><trkpt lat="38.0304188" lon="14.4466908"><ele>173.0</ele><time>2026-05-03T12:36:29Z</time></trkpt><trkpt lat="38.0304997" lon="14.4465514"><ele>171.5</ele><time>2026-05-03T12:36:29.999Z</time></trkpt><trkpt lat="38.0305778" lon="14.4464282"><ele>170.0</ele><time>2026-05-03T12:36:31Z</time></trkpt><trkpt lat="38.0306425" lon="14.4462859"><ele>169.75</ele><time>2026-05-03T12:36:32Z</time></trkpt><trkpt lat="38.0306852" lon="14.4461257"><ele>169.5</ele><time>2026-05-03T12:36:33Z</time></trkpt><trkpt lat="38.0306996" lon="14.4459427"><ele>169.25</ele><time>2026-05-03T12:36:34Z</time></trkpt><trkpt lat="38.0306855" lon="14.4457479"><ele>169.0</ele><time>2026-05-03T12:36:35Z</time></trkpt><trkpt lat="38.0306466" lon="14.4455586"><ele>163.5</ele><time>2026-05-03T12:36:36Z</time></trkpt><trkpt lat="38.0306088" lon="14.4453738"><ele>158.0</ele><time>2026-05-03T12:36:37Z</time></trkpt><trkpt lat="38.0305722" lon="14.4452049"><ele>152.5</ele><time>2026-05-03T12:36:38Z</time></trkpt><trkpt lat="38.0305134" lon="14.4450605"><ele>147.0</ele><time>2026-05-03T12:36:39Z</time></trkpt><trkpt lat="38.0304122" lon="14.4449372"><ele>147.0</ele><time>2026-05-03T12:36:40Z</time></trkpt><trkpt lat="38.0302831" lon="14.444847"><ele>147.0</ele><time>2026-05-03T12:36:41Z</time></trkpt><trkpt lat="38.0301523" lon="14.4447832"><ele>147.0</ele><time>2026-05-03T12:36:42Z</time></trkpt><trkpt lat="38.0300419" lon="14.4447196"><ele>147.0</ele><time>2026-05-03T12:36:43Z</time></trkpt><trkpt lat="38.0299683" lon="14.4446433"><ele>145.4</ele><time>2026-05-03T12:36:44Z</time></trkpt><trkpt lat="38.0299331" lon="14.4445467"><ele>143.79999999999998</ele><time>2026-05-03T12:36:45Z</time></trkpt><trkpt lat="38.0299492" lon="14.44444"><ele>142.2</ele><time>2026-05-03T12:36:46Z</time></trkpt><trkpt lat="38.0300111" lon="14.4443499"><ele>140.6</ele><time>2026-05-03T12:36:47Z</time></trkpt><trkpt lat="38.0301075" lon="14.4442691"><ele>139.0</ele><time>2026-05-03T12:36:48Z</time></trkpt><trkpt lat="38.0302311" lon="14.4441693"><ele>139.0</ele><time>2026-05-03T12:36:49Z</time></trkpt><trkpt lat="38.0303565" lon="14.444084"><ele>139.0</ele><time>2026-05-03T12:36:50Z</time></trkpt><trkpt lat="38.0304886" lon="14.4439992"><ele>139.0</ele><time>2026-05-03T12:36:51Z</time></trkpt><trkpt lat="38.0306277" lon="14.4439215"><ele>139.0</ele><time>2026-05-03T12:36:52Z</time></trkpt><trkpt lat="38.0307775" lon="14.4438319"><ele>131.66666666666669</ele><time>2026-05-03T12:36:53Z</time></trkpt><trkpt lat="38.0309208" lon="14.4437529"><ele>124.33333333333334</ele><time>2026-05-03T12:36:54Z</time></trkpt><trkpt lat="38.0310585" lon="14.4436748"><ele>117.0</ele><time>2026-05-03T12:36:55Z</time></trkpt><trkpt lat="38.0311908" lon="14.4435997"><ele>117.0</ele><time>2026-05-03T12:36:56Z</time></trkpt><trkpt lat="38.0313198" lon="14.4435301"><ele>117.0</ele><time>2026-05-03T12:36:57Z</time></trkpt><trkpt lat="38.031446" lon="14.4434737"><ele>117.0</ele><time>2026-05-03T12:36:58Z</time></trkpt><trkpt lat="38.0315788" lon="14.443449"><ele>117.0</ele><time>2026-05-03T12:36:59Z</time></trkpt><trkpt lat="38.0316806" lon="14.4434483"><ele>115.66666666666667</ele><time>2026-05-03T12:37:00Z</time></trkpt><trkpt lat="38.0317621" lon="14.44348"><ele>114.33333333333334</ele><time>2026-05-03T12:37:01Z</time></trkpt><trkpt lat="38.0318149" lon="14.4435497"><ele>113.0</ele><time>2026-05-03T12:37:02Z</time></trkpt><trkpt lat="38.0318234" lon="14.443648"><ele>111.66666666666667</ele><time>2026-05-03T12:37:03Z</time></trkpt><trkpt lat="38.0318077" lon="14.4437532"><ele>110.33333333333334</ele><time>2026-05-03T12:37:04Z</time></trkpt><trkpt lat="38.0318055" lon="14.443843"><ele>109.0</ele><time>2026-05-03T12:37:05Z</time></trkpt><trkpt lat="38.031855" lon="14.4439135"><ele>109.0</ele><time>2026-05-03T12:37:06Z</time></trkpt><trkpt lat="38.0319224" lon="14.4439356"><ele>109.0</ele><time>2026-05-03T12:37:07Z</time></trkpt><trkpt lat="38.0320109" lon="14.4439246"><ele>109.0</ele><time>2026-05-03T12:37:08Z</time></trkpt><trkpt lat="38.0321014" lon="14.4438747"><ele>109.0</ele><time>2026-05-03T12:37:09Z</time></trkpt><trkpt lat="38.0321777" lon="14.4437858"><ele>109.0</ele><time>2026-05-03T12:37:10Z</time></trkpt><trkpt lat="38.0322352" lon="14.4436857"><ele>109.00000000000001</ele><time>2026-05-03T12:37:11Z</time></trkpt><trkpt lat="38.0322568" lon="14.4435713"><ele>109.0</ele><time>2026-05-03T12:37:12Z</time></trkpt><trkpt lat="38.0322522" lon="14.4434579"><ele>109.0</ele><time>2026-05-03T12:37:13Z</time></trkpt><trkpt lat="38.0322584" lon="14.4433582"><ele>109.0</ele><time>2026-05-03T12:37:14Z</time></trkpt><trkpt lat="38.032294" lon="14.443291"><ele>109.00000000000001</ele><time>2026-05-03T12:37:15Z</time></trkpt><trkpt lat="38.0323633" lon="14.4432568"><ele>109.0</ele><time>2026-05-03T12:37:16Z</time></trkpt><trkpt lat="38.0324298" lon="14.4432666"><ele>109.0</ele><time>2026-05-03T12:37:17Z</time></trkpt><trkpt lat="38.032493" lon="14.4433362"><ele>109.0</ele><time>2026-05-03T12:37:18Z</time></trkpt><trkpt lat="38.0325212" lon="14.4434425"><ele>109.0</ele><time>2026-05-03T12:37:19Z</time></trkpt><trkpt lat="38.0325163" lon="14.4435592"><ele>109.0</ele><time>2026-05-03T12:37:20Z</time></trkpt><trkpt lat="38.0324738" lon="14.4436731"><ele>109.0</ele><time>2026-05-03T12:37:21Z</time></trkpt><trkpt lat="38.0324177" lon="14.4437945"><ele>107.0</ele><time>2026-05-03T12:37:22Z</time></trkpt><trkpt lat="38.0323525" lon="14.4439241"><ele>105.0</ele><time>2026-05-03T12:37:23Z</time></trkpt><trkpt lat="38.0322909" lon="14.4440524"><ele>103.0</ele><time>2026-05-03T12:37:24Z</time></trkpt><trkpt lat="38.0322206" lon="14.4441711"><ele>101.0</ele><time>2026-05-03T12:37:25Z</time></trkpt><trkpt lat="38.0321284" lon="14.4442511"><ele>101.0</ele><time>2026-05-03T12:37:26Z</time></trkpt><trkpt lat="38.0320236" lon="14.4443001"><ele>101.0</ele><time>2026-05-03T12:37:27Z</time></trkpt><trkpt lat="38.0318998" lon="14.4442974"><ele>101.0</ele><time>2026-05-03T12:37:28Z</time></trkpt><trkpt lat="38.0317673" lon="14.4442922"><ele>101.0</ele><time>2026-05-03T12:37:29Z</time></trkpt><trkpt lat="38.0316361" lon="14.4442982"><ele>104.25</ele><time>2026-05-03T12:37:30Z</time></trkpt><trkpt lat="38.0314972" lon="14.4443082"><ele>107.5</ele><time>2026-05-03T12:37:31Z</time></trkpt><trkpt lat="38.0313698" lon="14.4443159"><ele>110.75</ele><time>2026-05-03T12:37:32Z</time></trkpt><trkpt lat="38.03125" lon="14.4443235"><ele>114.0</ele><time>2026-05-03T12:37:33Z</time></trkpt><trkpt lat="38.0311488" lon="14.4443351"><ele>114.0</ele><time>2026-05-03T12:37:34Z</time></trkpt><trkpt lat="38.0310791" lon="14.4443517"><ele>114.0</ele><time>2026-05-03T12:37:35Z</time></trkpt><trkpt lat="38.0310101" lon="14.4444672"><ele>114.0</ele><time>2026-05-03T12:37:37Z</time></trkpt><trkpt lat="38.0311035" lon="14.444544"><ele>114.0</ele><time>2026-05-03T12:37:39Z</time></trkpt><trkpt lat="38.031188" lon="14.4445223"><ele>114.0</ele><time>2026-05-03T12:37:40Z</time></trkpt><trkpt lat="38.0312874" lon="14.4445025"><ele>114.0</ele><time>2026-05-03T12:37:41Z</time></trkpt><trkpt lat="38.0314839" lon="14.4445162"><ele>114.0</ele><time>2026-05-03T12:37:42Z</time></trkpt><trkpt lat="38.0316576" lon="14.4445474"><ele>114.0</ele><time>2026-05-03T12:37:43Z</time></trkpt><trkpt lat="38.0318335" lon="14.4445719"><ele>110.75</ele><time>2026-05-03T12:37:44Z</time></trkpt><trkpt lat="38.0319937" lon="14.4445801"><ele>107.5</ele><time>2026-05-03T12:37:45Z</time></trkpt><trkpt lat="38.0321361" lon="14.4445818"><ele>104.25</ele><time>2026-05-03T12:37:46Z</time></trkpt><trkpt lat="38.0322547" lon="14.4445635"><ele>101.0</ele><time>2026-05-03T12:37:47Z</time></trkpt><trkpt lat="38.0323502" lon="14.4445163"><ele>100.99999999999999</ele><time>2026-05-03T12:37:48Z</time></trkpt><trkpt lat="38.0324158" lon="14.4444903"><ele>101.0</ele><time>2026-05-03T12:37:49Z</time></trkpt><trkpt lat="38.0324816" lon="14.4445245"><ele>101.0</ele><time>2026-05-03T12:37:51Z</time></trkpt><trkpt lat="38.0324388" lon="14.4445995"><ele>101.0</ele><time>2026-05-03T12:37:53Z</time></trkpt><trkpt lat="38.0323469" lon="14.4446209"><ele>100.99999999999999</ele><time>2026-05-03T12:37:54Z</time></trkpt><trkpt lat="38.0322171" lon="14.4446396"><ele>101.0</ele><time>2026-05-03T12:37:55Z</time></trkpt><trkpt lat="38.0321021" lon="14.4446515"><ele>96.8</ele><time>2026-05-03T12:37:56Z</time></trkpt><trkpt lat="38.0320105" lon="14.4446413"><ele>92.6</ele><time>2026-05-03T12:37:57Z</time></trkpt><trkpt lat="38.0319284" lon="14.4446547"><ele>88.4</ele><time>2026-05-03T12:37:58Z</time></trkpt><trkpt lat="38.0318631" lon="14.4447666"><ele>84.2</ele><time>2026-05-03T12:38:00Z</time></trkpt><trkpt lat="38.0319485" lon="14.4448216"><ele>80.0</ele><time>2026-05-03T12:38:01Z</time></trkpt><trkpt lat="38.0320353" lon="14.4448356"><ele>80.0</ele><time>2026-05-03T12:38:02Z</time></trkpt><trkpt lat="38.0321291" lon="14.4448591"><ele>80.0</ele><time>2026-05-03T12:38:03Z</time></trkpt><trkpt lat="38.0323152" lon="14.4448052"><ele>80.0</ele><time>2026-05-03T12:38:04Z</time></trkpt><trkpt lat="38.0324604" lon="14.4447885"><ele>80.0</ele><time>2026-05-03T12:38:04.999Z</time></trkpt><trkpt lat="38.0325887" lon="14.4447377"><ele>80.33333333333334</ele><time>2026-05-03T12:38:06Z</time></trkpt><trkpt lat="38.0326966" lon="14.4446343"><ele>80.66666666666667</ele><time>2026-05-03T12:38:07Z</time></trkpt><trkpt lat="38.0328054" lon="14.4444523"><ele>81.0</ele><time>2026-05-03T12:38:08Z</time></trkpt><trkpt lat="38.0328979" lon="14.4442529"><ele>81.0</ele><time>2026-05-03T12:38:09Z</time></trkpt><trkpt lat="38.0329734" lon="14.444061"><ele>81.0</ele><time>2026-05-03T12:38:10Z</time></trkpt><trkpt lat="38.0330351" lon="14.4438625"><ele>81.0</ele><time>2026-05-03T12:38:11Z</time></trkpt><trkpt lat="38.033074" lon="14.4436545"><ele>83.4</ele><time>2026-05-03T12:38:12Z</time></trkpt><trkpt lat="38.0330958" lon="14.4434607"><ele>85.8</ele><time>2026-05-03T12:38:13Z</time></trkpt><trkpt lat="38.0331075" lon="14.4432898"><ele>88.2</ele><time>2026-05-03T12:38:14Z</time></trkpt><trkpt lat="38.0331112" lon="14.4431713"><ele>90.60000000000001</ele><time>2026-05-03T12:38:14.999Z</time></trkpt><trkpt lat="38.033115" lon="14.443087"><ele>93.0</ele><time>2026-05-03T12:38:16Z</time></trkpt><trkpt lat="38.0331796" lon="14.443065"><ele>93.0</ele><time>2026-05-03T12:38:19Z</time></trkpt><trkpt lat="38.0331775" lon="14.4432387"><ele>93.0</ele><time>2026-05-03T12:38:21Z</time></trkpt><trkpt lat="38.0331683" lon="14.4433893"><ele>93.0</ele><time>2026-05-03T12:38:22Z</time></trkpt><trkpt lat="38.0331656" lon="14.4435615"><ele>93.0</ele><time>2026-05-03T12:38:23Z</time></trkpt><trkpt lat="38.0331578" lon="14.4437498"><ele>90.0</ele><time>2026-05-03T12:38:24Z</time></trkpt><trkpt lat="38.0331428" lon="14.4439452"><ele>87.0</ele><time>2026-05-03T12:38:25Z</time></trkpt><trkpt lat="38.0331262" lon="14.4441206"><ele>84.0</ele><time>2026-05-03T12:38:26Z</time></trkpt><trkpt lat="38.0331042" lon="14.4443005"><ele>81.0</ele><time>2026-05-03T12:38:27Z</time></trkpt><trkpt lat="38.0330821" lon="14.4444776"><ele>74.75</ele><time>2026-05-03T12:38:28Z</time></trkpt><trkpt lat="38.0330564" lon="14.4446404"><ele>68.5</ele><time>2026-05-03T12:38:29Z</time></trkpt><trkpt lat="38.0330327" lon="14.4448024"><ele>62.25</ele><time>2026-05-03T12:38:30Z</time></trkpt><trkpt lat="38.0330091" lon="14.4449552"><ele>56.0</ele><time>2026-05-03T12:38:31Z</time></trkpt><trkpt lat="38.0329869" lon="14.4451027"><ele>56.00000000000001</ele><time>2026-05-03T12:38:32Z</time></trkpt><trkpt lat="38.0329645" lon="14.4452373"><ele>56.0</ele><time>2026-05-03T12:38:33Z</time></trkpt><trkpt lat="38.0329319" lon="14.4453478"><ele>56.0</ele><time>2026-05-03T12:38:34Z</time></trkpt><trkpt lat="38.0328776" lon="14.4454315"><ele>56.0</ele><time>2026-05-03T12:38:35Z</time></trkpt><trkpt lat="38.0328083" lon="14.4454718"><ele>56.00000000000001</ele><time>2026-05-03T12:38:36Z</time></trkpt><trkpt lat="38.032738" lon="14.4454961"><ele>56.0</ele><time>2026-05-03T12:38:37Z</time></trkpt><trkpt lat="38.0326703" lon="14.445529"><ele>54.0</ele><time>2026-05-03T12:38:38Z</time></trkpt><trkpt lat="38.0326003" lon="14.4456557"><ele>51.99999999999999</ele><time>2026-05-03T12:38:40Z</time></trkpt><trkpt lat="38.0326372" lon="14.4458106"><ele>50.0</ele><time>2026-05-03T12:38:42Z</time></trkpt><trkpt lat="38.032683" lon="14.4458819"><ele>48.0</ele><time>2026-05-03T12:38:43Z</time></trkpt><trkpt lat="38.0327267" lon="14.4459565"><ele>46.0</ele><time>2026-05-03T12:38:44Z</time></trkpt><trkpt lat="38.0327734" lon="14.4460229"><ele>46.0</ele><time>2026-05-03T12:38:45Z</time></trkpt><trkpt lat="38.0328194" lon="14.4460839"><ele>46.0</ele><time>2026-05-03T12:38:46Z</time></trkpt><trkpt lat="38.0328655" lon="14.4461386"><ele>46.0</ele><time>2026-05-03T12:38:47Z</time></trkpt><trkpt lat="38.0329264" lon="14.4462188"><ele>46.0</ele><time>2026-05-03T12:38:49Z</time></trkpt><trkpt lat="38.0329862" lon="14.446258"><ele>46.0</ele><time>2026-05-03T12:39:13Z</time></trkpt><trkpt lat="38.0330498" lon="14.4462478"><ele>46.0</ele><time>2026-05-03T12:39:17Z</time></trkpt><trkpt lat="38.0330803" lon="14.4460969"><ele>46.0</ele><time>2026-05-03T12:39:20Z</time></trkpt><trkpt lat="38.0330892" lon="14.4460161"><ele>46.0</ele><time>2026-05-03T12:39:21Z</time></trkpt><trkpt lat="38.0331015" lon="14.445929"><ele>46.0</ele><time>2026-05-03T12:39:22Z</time></trkpt><trkpt lat="38.0331143" lon="14.4458368"><ele>46.0</ele><time>2026-05-03T12:39:23Z</time></trkpt><trkpt lat="38.0331264" lon="14.4457429"><ele>46.0</ele><time>2026-05-03T12:39:24Z</time></trkpt><trkpt lat="38.0331373" lon="14.4456484"><ele>46.0</ele><time>2026-05-03T12:39:25Z</time></trkpt><trkpt lat="38.0331472" lon="14.4455425"><ele>46.0</ele><time>2026-05-03T12:39:26Z</time></trkpt><trkpt lat="38.0331577" lon="14.4454378"><ele>48.0</ele><time>2026-05-03T12:39:27Z</time></trkpt><trkpt lat="38.0331676" lon="14.4453278"><ele>50.0</ele><time>2026-05-03T12:39:28Z</time></trkpt><trkpt lat="38.0331812" lon="14.4452105"><ele>51.99999999999999</ele><time>2026-05-03T12:39:29Z</time></trkpt><trkpt lat="38.0331963" lon="14.4450901"><ele>54.0</ele><time>2026-05-03T12:39:30Z</time></trkpt><trkpt lat="38.0332152" lon="14.4449664"><ele>56.0</ele><time>2026-05-03T12:39:31Z</time></trkpt><trkpt lat="38.0332292" lon="14.4448385"><ele>56.0</ele><time>2026-05-03T12:39:32Z</time></trkpt><trkpt lat="38.0332467" lon="14.4447034"><ele>55.99999999999999</ele><time>2026-05-03T12:39:33Z</time></trkpt><trkpt lat="38.0332732" lon="14.4445645"><ele>55.99999999999999</ele><time>2026-05-03T12:39:34Z</time></trkpt><trkpt lat="38.0333046" lon="14.4444348"><ele>56.0</ele><time>2026-05-03T12:39:35Z</time></trkpt><trkpt lat="38.0333405" lon="14.4442945"><ele>56.0</ele><time>2026-05-03T12:39:36Z</time></trkpt><trkpt lat="38.0333864" lon="14.4441474"><ele>54.0</ele><time>2026-05-03T12:39:37Z</time></trkpt><trkpt lat="38.0334402" lon="14.4439902"><ele>52.0</ele><time>2026-05-03T12:39:38Z</time></trkpt><trkpt lat="38.0334947" lon="14.4438303"><ele>50.0</ele><time>2026-05-03T12:39:39Z</time></trkpt><trkpt lat="38.0335493" lon="14.4436698"><ele>48.0</ele><time>2026-05-03T12:39:40Z</time></trkpt><trkpt lat="38.033614" lon="14.4435115"><ele>48.0</ele><time>2026-05-03T12:39:41Z</time></trkpt><trkpt lat="38.0336825" lon="14.4433455"><ele>48.0</ele><time>2026-05-03T12:39:42Z</time></trkpt><trkpt lat="38.0337607" lon="14.4431705"><ele>48.0</ele><time>2026-05-03T12:39:43Z</time></trkpt><trkpt lat="38.0338352" lon="14.4430083"><ele>47.0</ele><time>2026-05-03T12:39:44Z</time></trkpt><trkpt lat="38.0339138" lon="14.4428456"><ele>46.0</ele><time>2026-05-03T12:39:45Z</time></trkpt><trkpt lat="38.0339978" lon="14.4426712"><ele>45.0</ele><time>2026-05-03T12:39:46Z</time></trkpt><trkpt lat="38.0340808" lon="14.4424901"><ele>42.333333333333336</ele><time>2026-05-03T12:39:47Z</time></trkpt><trkpt lat="38.034169" lon="14.4423045"><ele>39.66666666666667</ele><time>2026-05-03T12:39:48Z</time></trkpt><trkpt lat="38.0342647" lon="14.4420968"><ele>37.0</ele><time>2026-05-03T12:39:49Z</time></trkpt><trkpt lat="38.0343683" lon="14.4418709"><ele>37.0</ele><time>2026-05-03T12:39:50Z</time></trkpt><trkpt lat="38.0344724" lon="14.4416468"><ele>37.0</ele><time>2026-05-03T12:39:51Z</time></trkpt><trkpt lat="38.0345807" lon="14.4414156"><ele>37.0</ele><time>2026-05-03T12:39:51.999Z</time></trkpt><trkpt lat="38.0346825" lon="14.4411919"><ele>34.66666666666667</ele><time>2026-05-03T12:39:53Z</time></trkpt><trkpt lat="38.034782" lon="14.4409706"><ele>32.333333333333336</ele><time>2026-05-03T12:39:54Z</time></trkpt><trkpt lat="38.034884" lon="14.4407468"><ele>30.0</ele><time>2026-05-03T12:39:55Z</time></trkpt><trkpt lat="38.0349879" lon="14.4405245"><ele>34.0</ele><time>2026-05-03T12:39:56Z</time></trkpt><trkpt lat="38.0350931" lon="14.4403007"><ele>38.0</ele><time>2026-05-03T12:39:57Z</time></trkpt><trkpt lat="38.0352037" lon="14.4400698"><ele>42.0</ele><time>2026-05-03T12:39:58Z</time></trkpt><trkpt lat="38.0353162" lon="14.4398274"><ele>51.0</ele><time>2026-05-03T12:39:59Z</time></trkpt><trkpt lat="38.0354298" lon="14.439582"><ele>60.0</ele><time>2026-05-03T12:40:00Z</time></trkpt><trkpt lat="38.0355505" lon="14.4393153"><ele>60.0</ele><time>2026-05-03T12:40:01Z</time></trkpt><trkpt lat="38.0356778" lon="14.439044"><ele>60.0</ele><time>2026-05-03T12:40:02Z</time></trkpt><trkpt lat="38.0357996" lon="14.4387946"><ele>47.5</ele><time>2026-05-03T12:40:03Z</time></trkpt><trkpt lat="38.0359064" lon="14.4385251"><ele>35.0</ele><time>2026-05-03T12:40:04Z</time></trkpt><trkpt lat="38.0359928" lon="14.4382566"><ele>35.0</ele><time>2026-05-03T12:40:05Z</time></trkpt><trkpt lat="38.0360648" lon="14.437972"><ele>35.0</ele><time>2026-05-03T12:40:06Z</time></trkpt><trkpt lat="38.0361182" lon="14.4376748"><ele>38.0</ele><time>2026-05-03T12:40:07Z</time></trkpt><trkpt lat="38.0361525" lon="14.4373461"><ele>41.0</ele><time>2026-05-03T12:40:08Z</time></trkpt><trkpt lat="38.0361644" lon="14.4370052"><ele>43.0</ele><time>2026-05-03T12:40:09Z</time></trkpt><trkpt lat="38.0361543" lon="14.4366395"><ele>45.0</ele><time>2026-05-03T12:40:10Z</time></trkpt><trkpt lat="38.0361501" lon="14.4362479"><ele>45.0</ele><time>2026-05-03T12:40:11Z</time></trkpt><trkpt lat="38.0361464" lon="14.4358383"><ele>45.0</ele><time>2026-05-03T12:40:12Z</time></trkpt><trkpt lat="38.0361427" lon="14.4354148"><ele>45.0</ele><time>2026-05-03T12:40:13Z</time></trkpt><trkpt lat="38.036135" lon="14.4350097"><ele>45.0</ele><time>2026-05-03T12:40:14Z</time></trkpt><trkpt lat="38.0361323" lon="14.434634"><ele>43.0</ele><time>2026-05-03T12:40:15Z</time></trkpt><trkpt lat="38.0361323" lon="14.4342712"><ele>41.0</ele><time>2026-05-03T12:40:16Z</time></trkpt><trkpt lat="38.036132" lon="14.4339327"><ele>42.5</ele><time>2026-05-03T12:40:17Z</time></trkpt><trkpt lat="38.0361338" lon="14.4335955"><ele>44.0</ele><time>2026-05-03T12:40:18Z</time></trkpt><trkpt lat="38.0361322" lon="14.4332772"><ele>39.0</ele><time>2026-05-03T12:40:19Z</time></trkpt><trkpt lat="38.0361196" lon="14.4329521"><ele>34.0</ele><time>2026-05-03T12:40:20Z</time></trkpt><trkpt lat="38.0360864" lon="14.4326485"><ele>34.0</ele><time>2026-05-03T12:40:20.999Z</time></trkpt><trkpt lat="38.0360263" lon="14.4323522"><ele>34.0</ele><time>2026-05-03T12:40:22Z</time></trkpt><trkpt lat="38.0359503" lon="14.4320741"><ele>31.0</ele><time>2026-05-03T12:40:23Z</time></trkpt><trkpt lat="38.0358509" lon="14.4318066"><ele>28.0</ele><time>2026-05-03T12:40:24Z</time></trkpt><trkpt lat="38.0357322" lon="14.4315484"><ele>28.5</ele><time>2026-05-03T12:40:25Z</time></trkpt><trkpt lat="38.0355999" lon="14.43131"><ele>29.0</ele><time>2026-05-03T12:40:26Z</time></trkpt><trkpt lat="38.0354538" lon="14.4310838"><ele>29.0</ele><time>2026-05-03T12:40:27Z</time></trkpt><trkpt lat="38.0352923" lon="14.4308906"><ele>29.0</ele><time>2026-05-03T12:40:28Z</time></trkpt><trkpt lat="38.0351106" lon="14.4307385"><ele>29.0</ele><time>2026-05-03T12:40:29Z</time></trkpt><trkpt lat="38.0349081" lon="14.4306274"><ele>27.333333333333332</ele><time>2026-05-03T12:40:30Z</time></trkpt><trkpt lat="38.0347081" lon="14.4305386"><ele>25.666666666666664</ele><time>2026-05-03T12:40:31Z</time></trkpt><trkpt lat="38.0345161" lon="14.4304567"><ele>24.0</ele><time>2026-05-03T12:40:32Z</time></trkpt><trkpt lat="38.0343296" lon="14.4303802"><ele>24.0</ele><time>2026-05-03T12:40:33Z</time></trkpt><trkpt lat="38.0341527" lon="14.4303023"><ele>24.0</ele><time>2026-05-03T12:40:33.999Z</time></trkpt><trkpt lat="38.0339757" lon="14.4302076"><ele>24.0</ele><time>2026-05-03T12:40:35Z</time></trkpt><trkpt lat="38.0338068" lon="14.430089"><ele>23.666666666666668</ele><time>2026-05-03T12:40:36Z</time></trkpt><trkpt lat="38.0336484" lon="14.429952"><ele>23.333333333333336</ele><time>2026-05-03T12:40:37Z</time></trkpt><trkpt lat="38.0334955" lon="14.4297898"><ele>23.0</ele><time>2026-05-03T12:40:38Z</time></trkpt><trkpt lat="38.0333582" lon="14.4296054"><ele>23.0</ele><time>2026-05-03T12:40:39Z</time></trkpt><trkpt lat="38.0332326" lon="14.4293926"><ele>23.0</ele><time>2026-05-03T12:40:40Z</time></trkpt><trkpt lat="38.033123" lon="14.4291528"><ele>23.0</ele><time>2026-05-03T12:40:41Z</time></trkpt><trkpt lat="38.0330285" lon="14.4289003"><ele>23.5</ele><time>2026-05-03T12:40:42Z</time></trkpt><trkpt lat="38.032971" lon="14.4286271"><ele>24.0</ele><time>2026-05-03T12:40:43Z</time></trkpt><trkpt lat="38.0329357" lon="14.4283403"><ele>24.0</ele><time>2026-05-03T12:40:44Z</time></trkpt><trkpt lat="38.0329015" lon="14.4280516"><ele>24.0</ele><time>2026-05-03T12:40:45Z</time></trkpt><trkpt lat="38.0328669" lon="14.4277612"><ele>23.5</ele><time>2026-05-03T12:40:46Z</time></trkpt><trkpt lat="38.0328328" lon="14.4274693"><ele>23.0</ele><time>2026-05-03T12:40:47Z</time></trkpt><trkpt lat="38.0327978" lon="14.4271785"><ele>22.0</ele><time>2026-05-03T12:40:48Z</time></trkpt><trkpt lat="38.0327655" lon="14.4268891"><ele>21.0</ele><time>2026-05-03T12:40:49Z</time></trkpt><trkpt lat="38.0327311" lon="14.4266086"><ele>21.0</ele><time>2026-05-03T12:40:50Z</time></trkpt><trkpt lat="38.0326968" lon="14.4263479"><ele>21.0</ele><time>2026-05-03T12:40:51Z</time></trkpt><trkpt lat="38.0326648" lon="14.4260922"><ele>21.0</ele><time>2026-05-03T12:40:52Z</time></trkpt><trkpt lat="38.0326457" lon="14.4258536"><ele>22.333333333333336</ele><time>2026-05-03T12:40:53Z</time></trkpt><trkpt lat="38.0326574" lon="14.4256146"><ele>23.666666666666668</ele><time>2026-05-03T12:40:54Z</time></trkpt><trkpt lat="38.0327036" lon="14.4253739"><ele>25.0</ele><time>2026-05-03T12:40:55Z</time></trkpt><trkpt lat="38.032774" lon="14.4251373"><ele>28.0</ele><time>2026-05-03T12:40:56Z</time></trkpt><trkpt lat="38.0328776" lon="14.4249097"><ele>31.0</ele><time>2026-05-03T12:40:57Z</time></trkpt><trkpt lat="38.0329707" lon="14.4246959"><ele>34.0</ele><time>2026-05-03T12:40:58Z</time></trkpt><trkpt lat="38.033038" lon="14.4244894"><ele>38.66666666666667</ele><time>2026-05-03T12:40:59Z</time></trkpt><trkpt lat="38.0330844" lon="14.4242922"><ele>43.333333333333336</ele><time>2026-05-03T12:41:00Z</time></trkpt><trkpt lat="38.0331041" lon="14.4240893"><ele>48.0</ele><time>2026-05-03T12:41:01Z</time></trkpt><trkpt lat="38.0331135" lon="14.4238879"><ele>46.5</ele><time>2026-05-03T12:41:02Z</time></trkpt><trkpt lat="38.0331135" lon="14.4236966"><ele>45.0</ele><time>2026-05-03T12:41:03Z</time></trkpt><trkpt lat="38.0331079" lon="14.4235215"><ele>43.5</ele><time>2026-05-03T12:41:04Z</time></trkpt><trkpt lat="38.0331033" lon="14.4233542"><ele>42.0</ele><time>2026-05-03T12:41:05Z</time></trkpt><trkpt lat="38.033082" lon="14.4231898"><ele>42.0</ele><time>2026-05-03T12:41:06Z</time></trkpt><trkpt lat="38.0330335" lon="14.4230321"><ele>42.0</ele><time>2026-05-03T12:41:07Z</time></trkpt><trkpt lat="38.0329516" lon="14.4228615"><ele>42.0</ele><time>2026-05-03T12:41:08Z</time></trkpt><trkpt lat="38.0328588" lon="14.4226541"><ele>38.333333333333336</ele><time>2026-05-03T12:41:09Z</time></trkpt><trkpt lat="38.0327781" lon="14.4224123"><ele>34.66666666666667</ele><time>2026-05-03T12:41:10Z</time></trkpt><trkpt lat="38.0326887" lon="14.4221777"><ele>31.0</ele><time>2026-05-03T12:41:11Z</time></trkpt><trkpt lat="38.0325881" lon="14.4219501"><ele>30.666666666666668</ele><time>2026-05-03T12:41:12Z</time></trkpt><trkpt lat="38.0324998" lon="14.4217284"><ele>30.333333333333336</ele><time>2026-05-03T12:41:13Z</time></trkpt><trkpt lat="38.0324004" lon="14.4215022"><ele>30.0</ele><time>2026-05-03T12:41:14Z</time></trkpt><trkpt lat="38.0323078" lon="14.4212913"><ele>30.0</ele><time>2026-05-03T12:41:15Z</time></trkpt><trkpt lat="38.032213" lon="14.4210832"><ele>30.0</ele><time>2026-05-03T12:41:16Z</time></trkpt><trkpt lat="38.0320889" lon="14.4208838"><ele>30.0</ele><time>2026-05-03T12:41:17Z</time></trkpt><trkpt lat="38.031944" lon="14.4206853"><ele>30.0</ele><time>2026-05-03T12:41:18Z</time></trkpt><trkpt lat="38.0317784" lon="14.4204895"><ele>30.0</ele><time>2026-05-03T12:41:19Z</time></trkpt><trkpt lat="38.0316067" lon="14.4202715"><ele>31.5</ele><time>2026-05-03T12:41:20Z</time></trkpt><trkpt lat="38.0314309" lon="14.4200238"><ele>33.0</ele><time>2026-05-03T12:41:21Z</time></trkpt><trkpt lat="38.0312583" lon="14.4197587"><ele>29.5</ele><time>2026-05-03T12:41:22Z</time></trkpt><trkpt lat="38.0310793" lon="14.4194761"><ele>26.0</ele><time>2026-05-03T12:41:23Z</time></trkpt><trkpt lat="38.0309073" lon="14.4192018"><ele>29.5</ele><time>2026-05-03T12:41:24Z</time></trkpt><trkpt lat="38.0307387" lon="14.4189449"><ele>33.0</ele><time>2026-05-03T12:41:25Z</time></trkpt><trkpt lat="38.030578" lon="14.4186836"><ele>33.0</ele><time>2026-05-03T12:41:26Z</time></trkpt><trkpt lat="38.0304169" lon="14.4184254"><ele>33.0</ele><time>2026-05-03T12:41:27Z</time></trkpt><trkpt lat="38.0302536" lon="14.4181794"><ele>27.5</ele><time>2026-05-03T12:41:28Z</time></trkpt><trkpt lat="38.0300885" lon="14.4179372"><ele>22.0</ele><time>2026-05-03T12:41:29Z</time></trkpt><trkpt lat="38.0299237" lon="14.4176983"><ele>35.0</ele><time>2026-05-03T12:41:30Z</time></trkpt><trkpt lat="38.0297582" lon="14.4174634"><ele>48.0</ele><time>2026-05-03T12:41:31Z</time></trkpt><trkpt lat="38.0295945" lon="14.4172198"><ele>38.5</ele><time>2026-05-03T12:41:32Z</time></trkpt><trkpt lat="38.0294371" lon="14.4169735"><ele>29.0</ele><time>2026-05-03T12:41:33Z</time></trkpt><trkpt lat="38.0292874" lon="14.4167152"><ele>29.0</ele><time>2026-05-03T12:41:34Z</time></trkpt><trkpt lat="38.0291478" lon="14.4164445"><ele>29.0</ele><time>2026-05-03T12:41:35Z</time></trkpt><trkpt lat="38.029002" lon="14.4161786"><ele>36.0</ele><time>2026-05-03T12:41:36Z</time></trkpt><trkpt lat="38.0288578" lon="14.415923"><ele>43.0</ele><time>2026-05-03T12:41:37Z</time></trkpt><trkpt lat="38.0287183" lon="14.415664"><ele>37.0</ele><time>2026-05-03T12:41:38Z</time></trkpt><trkpt lat="38.0285917" lon="14.4154013"><ele>31.0</ele><time>2026-05-03T12:41:39Z</time></trkpt><trkpt lat="38.0284897" lon="14.4151233"><ele>31.0</ele><time>2026-05-03T12:41:40Z</time></trkpt><trkpt lat="38.0284006" lon="14.4148597"><ele>31.0</ele><time>2026-05-03T12:41:41Z</time></trkpt><trkpt lat="38.0283188" lon="14.4146118"><ele>31.0</ele><time>2026-05-03T12:41:42Z</time></trkpt><trkpt lat="38.028228" lon="14.4143968"><ele>31.666666666666668</ele><time>2026-05-03T12:41:43Z</time></trkpt><trkpt lat="38.0281105" lon="14.414194"><ele>32.333333333333336</ele><time>2026-05-03T12:41:44Z</time></trkpt><trkpt lat="38.0279415" lon="14.4140125"><ele>33.0</ele><time>2026-05-03T12:41:45Z</time></trkpt><trkpt lat="38.0277602" lon="14.4138267"><ele>32.0</ele><time>2026-05-03T12:41:46Z</time></trkpt><trkpt lat="38.0275709" lon="14.4136361"><ele>31.0</ele><time>2026-05-03T12:41:47Z</time></trkpt><trkpt lat="38.0273883" lon="14.4134522"><ele>31.0</ele><time>2026-05-03T12:41:48Z</time></trkpt><trkpt lat="38.0272111" lon="14.4132785"><ele>31.0</ele><time>2026-05-03T12:41:49Z</time></trkpt><trkpt lat="38.0270386" lon="14.4131062"><ele>31.0</ele><time>2026-05-03T12:41:50Z</time></trkpt><trkpt lat="38.0268748" lon="14.4129389"><ele>29.666666666666668</ele><time>2026-05-03T12:41:51Z</time></trkpt><trkpt lat="38.0267123" lon="14.4127661"><ele>28.333333333333336</ele><time>2026-05-03T12:41:52Z</time></trkpt><trkpt lat="38.0265526" lon="14.4125796"><ele>27.0</ele><time>2026-05-03T12:41:53Z</time></trkpt><trkpt lat="38.0264043" lon="14.4123699"><ele>30.5</ele><time>2026-05-03T12:41:54Z</time></trkpt><trkpt lat="38.02626" lon="14.4121341"><ele>34.0</ele><time>2026-05-03T12:41:55Z</time></trkpt><trkpt lat="38.0261189" lon="14.4118859"><ele>34.0</ele><time>2026-05-03T12:41:56Z</time></trkpt><trkpt lat="38.0259847" lon="14.4116296"><ele>34.0</ele><time>2026-05-03T12:41:57Z</time></trkpt><trkpt lat="38.0258586" lon="14.4113701"><ele>45.0</ele><time>2026-05-03T12:41:58Z</time></trkpt><trkpt lat="38.0257631" lon="14.4110963"><ele>56.0</ele><time>2026-05-03T12:41:59Z</time></trkpt><trkpt lat="38.0256855" lon="14.4108322"><ele>56.0</ele><time>2026-05-03T12:42:00Z</time></trkpt><trkpt lat="38.0255857" lon="14.4105896"><ele>56.0</ele><time>2026-05-03T12:42:01Z</time></trkpt><trkpt lat="38.025451" lon="14.4103436"><ele>46.5</ele><time>2026-05-03T12:42:02Z</time></trkpt><trkpt lat="38.0252962" lon="14.410086"><ele>37.0</ele><time>2026-05-03T12:42:03Z</time></trkpt><trkpt lat="38.0251448" lon="14.4098132"><ele>32.0</ele><time>2026-05-03T12:42:03.999Z</time></trkpt><trkpt lat="38.0249964" lon="14.4095256"><ele>27.0</ele><time>2026-05-03T12:42:05Z</time></trkpt><trkpt lat="38.0248548" lon="14.4092368"><ele>31.0</ele><time>2026-05-03T12:42:06Z</time></trkpt><trkpt lat="38.0247216" lon="14.4089493"><ele>35.0</ele><time>2026-05-03T12:42:07Z</time></trkpt><trkpt lat="38.0246099" lon="14.4086716"><ele>35.0</ele><time>2026-05-03T12:42:08Z</time></trkpt><trkpt lat="38.0245025" lon="14.4083953"><ele>35.0</ele><time>2026-05-03T12:42:09Z</time></trkpt><trkpt lat="38.0243794" lon="14.4081349"><ele>29.5</ele><time>2026-05-03T12:42:10Z</time></trkpt><trkpt lat="38.0242333" lon="14.4078832"><ele>24.0</ele><time>2026-05-03T12:42:11Z</time></trkpt><trkpt lat="38.0240739" lon="14.407644"><ele>38.5</ele><time>2026-05-03T12:42:12Z</time></trkpt><trkpt lat="38.0239063" lon="14.4074051"><ele>53.0</ele><time>2026-05-03T12:42:13Z</time></trkpt><trkpt lat="38.0237481" lon="14.4071706"><ele>44.0</ele><time>2026-05-03T12:42:14Z</time></trkpt><trkpt lat="38.0235934" lon="14.406932"><ele>35.0</ele><time>2026-05-03T12:42:15Z</time></trkpt><trkpt lat="38.0234487" lon="14.4066906"><ele>40.5</ele><time>2026-05-03T12:42:16Z</time></trkpt><trkpt lat="38.0233073" lon="14.4064501"><ele>46.0</ele><time>2026-05-03T12:42:17Z</time></trkpt><trkpt lat="38.0231716" lon="14.4062146"><ele>46.0</ele><time>2026-05-03T12:42:18Z</time></trkpt><trkpt lat="38.0230415" lon="14.4059711"><ele>46.0</ele><time>2026-05-03T12:42:19Z</time></trkpt><trkpt lat="38.022915" lon="14.4057197"><ele>43.0</ele><time>2026-05-03T12:42:20Z</time></trkpt><trkpt lat="38.0227986" lon="14.4054387"><ele>40.0</ele><time>2026-05-03T12:42:21Z</time></trkpt><trkpt lat="38.0226858" lon="14.4051617"><ele>40.0</ele><time>2026-05-03T12:42:22Z</time></trkpt><trkpt lat="38.0225779" lon="14.4048864"><ele>40.0</ele><time>2026-05-03T12:42:23Z</time></trkpt><trkpt lat="38.022468" lon="14.4046151"><ele>51.5</ele><time>2026-05-03T12:42:24Z</time></trkpt><trkpt lat="38.0223547" lon="14.4043408"><ele>63.0</ele><time>2026-05-03T12:42:25Z</time></trkpt><trkpt lat="38.0222419" lon="14.4040636"><ele>51.0</ele><time>2026-05-03T12:42:26Z</time></trkpt><trkpt lat="38.0221347" lon="14.4037954"><ele>39.0</ele><time>2026-05-03T12:42:27Z</time></trkpt><trkpt lat="38.0220326" lon="14.4035444"><ele>39.0</ele><time>2026-05-03T12:42:28Z</time></trkpt><trkpt lat="38.0219486" lon="14.4032869"><ele>39.0</ele><time>2026-05-03T12:42:29Z</time></trkpt><trkpt lat="38.021893" lon="14.4030211"><ele>39.0</ele><time>2026-05-03T12:42:30Z</time></trkpt><trkpt lat="38.0218556" lon="14.4027431"><ele>39.0</ele><time>2026-05-03T12:42:31Z</time></trkpt><trkpt lat="38.0218347" lon="14.4024442"><ele>39.0</ele><time>2026-05-03T12:42:32Z</time></trkpt><trkpt lat="38.0218194" lon="14.4021456"><ele>39.0</ele><time>2026-05-03T12:42:33Z</time></trkpt><trkpt lat="38.0218083" lon="14.4018479"><ele>39.0</ele><time>2026-05-03T12:42:34Z</time></trkpt><trkpt lat="38.0218171" lon="14.4015592"><ele>38.666666666666664</ele><time>2026-05-03T12:42:35Z</time></trkpt><trkpt lat="38.021831" lon="14.401274"><ele>38.33333333333333</ele><time>2026-05-03T12:42:36Z</time></trkpt><trkpt lat="38.0218814" lon="14.4010165"><ele>38.0</ele><time>2026-05-03T12:42:36.999Z</time></trkpt><trkpt lat="38.0219132" lon="14.4007538"><ele>37.0</ele><time>2026-05-03T12:42:38Z</time></trkpt><trkpt lat="38.0219246" lon="14.4004873"><ele>36.0</ele><time>2026-05-03T12:42:39Z</time></trkpt><trkpt lat="38.0219133" lon="14.4002119"><ele>35.0</ele><time>2026-05-03T12:42:40Z</time></trkpt><trkpt lat="38.0218821" lon="14.3999305"><ele>35.5</ele><time>2026-05-03T12:42:41Z</time></trkpt><trkpt lat="38.0218469" lon="14.3996453"><ele>36.0</ele><time>2026-05-03T12:42:42Z</time></trkpt><trkpt lat="38.0218102" lon="14.3993558"><ele>36.0</ele><time>2026-05-03T12:42:43Z</time></trkpt><trkpt lat="38.0217728" lon="14.3990681"><ele>36.0</ele><time>2026-05-03T12:42:44Z</time></trkpt><trkpt lat="38.0217276" lon="14.3987773"><ele>35.0</ele><time>2026-05-03T12:42:45Z</time></trkpt><trkpt lat="38.0216645" lon="14.3984915"><ele>34.0</ele><time>2026-05-03T12:42:46Z</time></trkpt><trkpt lat="38.0215989" lon="14.3982031"><ele>43.5</ele><time>2026-05-03T12:42:47Z</time></trkpt><trkpt lat="38.0215303" lon="14.3979107"><ele>53.0</ele><time>2026-05-03T12:42:48Z</time></trkpt><trkpt lat="38.0214586" lon="14.3976094"><ele>53.0</ele><time>2026-05-03T12:42:49Z</time></trkpt><trkpt lat="38.0213839" lon="14.3973087"><ele>53.0</ele><time>2026-05-03T12:42:50Z</time></trkpt><trkpt lat="38.0213056" lon="14.3970074"><ele>47.0</ele><time>2026-05-03T12:42:51Z</time></trkpt><trkpt lat="38.0212377" lon="14.3967047"><ele>41.0</ele><time>2026-05-03T12:42:52Z</time></trkpt><trkpt lat="38.0211833" lon="14.3963956"><ele>37.0</ele><time>2026-05-03T12:42:53Z</time></trkpt><trkpt lat="38.0211422" lon="14.3960732"><ele>33.0</ele><time>2026-05-03T12:42:54Z</time></trkpt><trkpt lat="38.0211105" lon="14.3957393"><ele>33.0</ele><time>2026-05-03T12:42:55Z</time></trkpt><trkpt lat="38.0210892" lon="14.3953961"><ele>33.0</ele><time>2026-05-03T12:42:56Z</time></trkpt><trkpt lat="38.0210691" lon="14.3950602"><ele>33.0</ele><time>2026-05-03T12:42:57Z</time></trkpt><trkpt lat="38.0210463" lon="14.3947276"><ele>33.0</ele><time>2026-05-03T12:42:58Z</time></trkpt><trkpt lat="38.0210239" lon="14.3943995"><ele>33.0</ele><time>2026-05-03T12:42:59Z</time></trkpt><trkpt lat="38.0209943" lon="14.3940828"><ele>33.0</ele><time>2026-05-03T12:43:00Z</time></trkpt><trkpt lat="38.0209771" lon="14.3937658"><ele>32.5</ele><time>2026-05-03T12:43:01Z</time></trkpt><trkpt lat="38.0209562" lon="14.3934757"><ele>32.0</ele><time>2026-05-03T12:43:02Z</time></trkpt><trkpt lat="38.0209389" lon="14.3931896"><ele>30.0</ele><time>2026-05-03T12:43:03Z</time></trkpt><trkpt lat="38.0209104" lon="14.3929067"><ele>28.0</ele><time>2026-05-03T12:43:04Z</time></trkpt><trkpt lat="38.0208726" lon="14.3926298"><ele>26.0</ele><time>2026-05-03T12:43:05Z</time></trkpt><trkpt lat="38.0208299" lon="14.3923599"><ele>29.333333333333332</ele><time>2026-05-03T12:43:06Z</time></trkpt><trkpt lat="38.0207865" lon="14.3920944"><ele>32.666666666666664</ele><time>2026-05-03T12:43:07Z</time></trkpt><trkpt lat="38.0207506" lon="14.391823"><ele>36.0</ele><time>2026-05-03T12:43:08Z</time></trkpt><trkpt lat="38.0207391" lon="14.3915629"><ele>32.0</ele><time>2026-05-03T12:43:09Z</time></trkpt><trkpt lat="38.0207255" lon="14.3912934"><ele>28.0</ele><time>2026-05-03T12:43:10Z</time></trkpt><trkpt lat="38.0207146" lon="14.3910326"><ele>24.0</ele><time>2026-05-03T12:43:11Z</time></trkpt><trkpt lat="38.0207038" lon="14.3907788"><ele>24.0</ele><time>2026-05-03T12:43:12Z</time></trkpt><trkpt lat="38.0206965" lon="14.3905269"><ele>24.0</ele><time>2026-05-03T12:43:13Z</time></trkpt><trkpt lat="38.0206836" lon="14.3902835"><ele>24.0</ele><time>2026-05-03T12:43:14Z</time></trkpt><trkpt lat="38.0206749" lon="14.3900463"><ele>24.0</ele><time>2026-05-03T12:43:15Z</time></trkpt><trkpt lat="38.0206635" lon="14.3898181"><ele>24.0</ele><time>2026-05-03T12:43:16Z</time></trkpt><trkpt lat="38.0206504" lon="14.3896014"><ele>24.0</ele><time>2026-05-03T12:43:17Z</time></trkpt><trkpt lat="38.0206389" lon="14.3893898"><ele>26.0</ele><time>2026-05-03T12:43:18Z</time></trkpt><trkpt lat="38.0206276" lon="14.389182"><ele>28.0</ele><time>2026-05-03T12:43:19Z</time></trkpt><trkpt lat="38.0206145" lon="14.3889771"><ele>30.0</ele><time>2026-05-03T12:43:19.999Z</time></trkpt><trkpt lat="38.0206039" lon="14.3887779"><ele>30.0</ele><time>2026-05-03T12:43:21Z</time></trkpt><trkpt lat="38.0205904" lon="14.3885841"><ele>30.0</ele><time>2026-05-03T12:43:22Z</time></trkpt><trkpt lat="38.0205678" lon="14.3883904"><ele>30.0</ele><time>2026-05-03T12:43:22.999Z</time></trkpt><trkpt lat="38.0205337" lon="14.3881905"><ele>27.666666666666668</ele><time>2026-05-03T12:43:24Z</time></trkpt><trkpt lat="38.0204746" lon="14.3879944"><ele>25.333333333333336</ele><time>2026-05-03T12:43:25Z</time></trkpt><trkpt lat="38.0204048" lon="14.3877941"><ele>23.0</ele><time>2026-05-03T12:43:26Z</time></trkpt><trkpt lat="38.0203223" lon="14.3875931"><ele>23.0</ele><time>2026-05-03T12:43:27Z</time></trkpt><trkpt lat="38.020236" lon="14.3873951"><ele>23.0</ele><time>2026-05-03T12:43:28Z</time></trkpt><trkpt lat="38.0201372" lon="14.3871796"><ele>23.0</ele><time>2026-05-03T12:43:29Z</time></trkpt><trkpt lat="38.0200274" lon="14.3869672"><ele>25.333333333333336</ele><time>2026-05-03T12:43:30Z</time></trkpt><trkpt lat="38.0199142" lon="14.3867546"><ele>27.666666666666668</ele><time>2026-05-03T12:43:31Z</time></trkpt><trkpt lat="38.0198084" lon="14.3865312"><ele>30.0</ele><time>2026-05-03T12:43:32Z</time></trkpt><trkpt lat="38.0196933" lon="14.3863064"><ele>30.0</ele><time>2026-05-03T12:43:33Z</time></trkpt><trkpt lat="38.0195809" lon="14.3860739"><ele>30.0</ele><time>2026-05-03T12:43:34Z</time></trkpt><trkpt lat="38.0194637" lon="14.3858409"><ele>30.0</ele><time>2026-05-03T12:43:35Z</time></trkpt><trkpt lat="38.0193468" lon="14.3856137"><ele>26.666666666666668</ele><time>2026-05-03T12:43:36Z</time></trkpt><trkpt lat="38.019233" lon="14.3854016"><ele>23.333333333333336</ele><time>2026-05-03T12:43:37Z</time></trkpt><trkpt lat="38.0191345" lon="14.3851903"><ele>20.0</ele><time>2026-05-03T12:43:38Z</time></trkpt><trkpt lat="38.0190519" lon="14.3849845"><ele>26.333333333333336</ele><time>2026-05-03T12:43:39Z</time></trkpt><trkpt lat="38.0189971" lon="14.3847692"><ele>32.666666666666664</ele><time>2026-05-03T12:43:40Z</time></trkpt><trkpt lat="38.0189675" lon="14.3845337"><ele>39.0</ele><time>2026-05-03T12:43:41Z</time></trkpt><trkpt lat="38.0189547" lon="14.3842858"><ele>39.0</ele><time>2026-05-03T12:43:42Z</time></trkpt><trkpt lat="38.0189431" lon="14.3840315"><ele>39.0</ele><time>2026-05-03T12:43:43Z</time></trkpt><trkpt lat="38.0189253" lon="14.3837808"><ele>39.0</ele><time>2026-05-03T12:43:44Z</time></trkpt><trkpt lat="38.0189167" lon="14.3835199"><ele>36.333333333333336</ele><time>2026-05-03T12:43:45Z</time></trkpt><trkpt lat="38.0189069" lon="14.3832849"><ele>33.66666666666667</ele><time>2026-05-03T12:43:46Z</time></trkpt><trkpt lat="38.018894" lon="14.3830445"><ele>31.0</ele><time>2026-05-03T12:43:47Z</time></trkpt><trkpt lat="38.0188576" lon="14.382809"><ele>31.0</ele><time>2026-05-03T12:43:48Z</time></trkpt><trkpt lat="38.0187903" lon="14.382575"><ele>31.0</ele><time>2026-05-03T12:43:49Z</time></trkpt><trkpt lat="38.018698" lon="14.382324"><ele>31.0</ele><time>2026-05-03T12:43:50Z</time></trkpt><trkpt lat="38.0185906" lon="14.3820693"><ele>27.0</ele><time>2026-05-03T12:43:51Z</time></trkpt><trkpt lat="38.0184797" lon="14.3818088"><ele>23.0</ele><time>2026-05-03T12:43:52Z</time></trkpt><trkpt lat="38.0183666" lon="14.3815477"><ele>39.5</ele><time>2026-05-03T12:43:53Z</time></trkpt><trkpt lat="38.0182502" lon="14.381293"><ele>56.0</ele><time>2026-05-03T12:43:54Z</time></trkpt><trkpt lat="38.0181261" lon="14.3810368"><ele>56.0</ele><time>2026-05-03T12:43:55Z</time></trkpt><trkpt lat="38.018002" lon="14.3807825"><ele>56.0</ele><time>2026-05-03T12:43:56Z</time></trkpt><trkpt lat="38.0178751" lon="14.3805117"><ele>41.0</ele><time>2026-05-03T12:43:57Z</time></trkpt><trkpt lat="38.0177483" lon="14.3802473"><ele>26.0</ele><time>2026-05-03T12:43:58Z</time></trkpt><trkpt lat="38.0176227" lon="14.3799794"><ele>26.0</ele><time>2026-05-03T12:43:59Z</time></trkpt><trkpt lat="38.0175029" lon="14.3797074"><ele>26.0</ele><time>2026-05-03T12:44:00Z</time></trkpt><trkpt lat="38.0173767" lon="14.3794355"><ele>35.0</ele><time>2026-05-03T12:44:01Z</time></trkpt><trkpt lat="38.0172575" lon="14.3791673"><ele>44.0</ele><time>2026-05-03T12:44:02Z</time></trkpt><trkpt lat="38.0171359" lon="14.3789001"><ele>35.0</ele><time>2026-05-03T12:44:03Z</time></trkpt><trkpt lat="38.0170147" lon="14.3786308"><ele>26.0</ele><time>2026-05-03T12:44:04Z</time></trkpt><trkpt lat="38.0168948" lon="14.3783656"><ele>26.0</ele><time>2026-05-03T12:44:05Z</time></trkpt><trkpt lat="38.0167717" lon="14.3781026"><ele>26.0</ele><time>2026-05-03T12:44:06Z</time></trkpt><trkpt lat="38.0166492" lon="14.377838"><ele>42.0</ele><time>2026-05-03T12:44:07Z</time></trkpt><trkpt lat="38.0165304" lon="14.3775785"><ele>58.0</ele><time>2026-05-03T12:44:08Z</time></trkpt><trkpt lat="38.0164212" lon="14.3773319"><ele>52.33333333333333</ele><time>2026-05-03T12:44:09Z</time></trkpt><trkpt lat="38.0163154" lon="14.3770993"><ele>46.666666666666664</ele><time>2026-05-03T12:44:10Z</time></trkpt><trkpt lat="38.0162178" lon="14.3768556"><ele>41.0</ele><time>2026-05-03T12:44:11Z</time></trkpt><trkpt lat="38.0161247" lon="14.3766147"><ele>41.0</ele><time>2026-05-03T12:44:12Z</time></trkpt><trkpt lat="38.0160375" lon="14.3763688"><ele>41.0</ele><time>2026-05-03T12:44:13Z</time></trkpt><trkpt lat="38.0159594" lon="14.376124"><ele>41.0</ele><time>2026-05-03T12:44:14Z</time></trkpt><trkpt lat="38.0158898" lon="14.3758839"><ele>35.666666666666664</ele><time>2026-05-03T12:44:15Z</time></trkpt><trkpt lat="38.0158252" lon="14.3756506"><ele>30.333333333333336</ele><time>2026-05-03T12:44:16Z</time></trkpt><trkpt lat="38.0157541" lon="14.3754339"><ele>25.0</ele><time>2026-05-03T12:44:17Z</time></trkpt><trkpt lat="38.0156797" lon="14.3752144"><ele>35.66666666666667</ele><time>2026-05-03T12:44:18Z</time></trkpt><trkpt lat="38.0156101" lon="14.3749946"><ele>46.333333333333336</ele><time>2026-05-03T12:44:19Z</time></trkpt><trkpt lat="38.0155491" lon="14.3747704"><ele>57.0</ele><time>2026-05-03T12:44:20Z</time></trkpt><trkpt lat="38.0154956" lon="14.374537"><ele>57.0</ele><time>2026-05-03T12:44:21Z</time></trkpt><trkpt lat="38.0154465" lon="14.3743026"><ele>57.0</ele><time>2026-05-03T12:44:22Z</time></trkpt><trkpt lat="38.0153997" lon="14.3740712"><ele>57.0</ele><time>2026-05-03T12:44:23Z</time></trkpt><trkpt lat="38.0153548" lon="14.3738425"><ele>53.0</ele><time>2026-05-03T12:44:24Z</time></trkpt><trkpt lat="38.0153036" lon="14.3736089"><ele>49.0</ele><time>2026-05-03T12:44:25Z</time></trkpt><trkpt lat="38.0152601" lon="14.3733864"><ele>45.0</ele><time>2026-05-03T12:44:26Z</time></trkpt><trkpt lat="38.0152285" lon="14.3731595"><ele>41.666666666666664</ele><time>2026-05-03T12:44:27Z</time></trkpt><trkpt lat="38.0152072" lon="14.3729437"><ele>38.33333333333333</ele><time>2026-05-03T12:44:28Z</time></trkpt><trkpt lat="38.0151998" lon="14.3727257"><ele>35.0</ele><time>2026-05-03T12:44:29Z</time></trkpt><trkpt lat="38.0151929" lon="14.3725029"><ele>35.0</ele><time>2026-05-03T12:44:30Z</time></trkpt><trkpt lat="38.0151841" lon="14.3722865"><ele>35.0</ele><time>2026-05-03T12:44:31Z</time></trkpt><trkpt lat="38.0151725" lon="14.3720421"><ele>35.0</ele><time>2026-05-03T12:44:32Z</time></trkpt><trkpt lat="38.0151537" lon="14.3718131"><ele>30.666666666666664</ele><time>2026-05-03T12:44:33Z</time></trkpt><trkpt lat="38.0151173" lon="14.3715925"><ele>26.333333333333332</ele><time>2026-05-03T12:44:34Z</time></trkpt><trkpt lat="38.0150712" lon="14.3713866"><ele>22.0</ele><time>2026-05-03T12:44:35Z</time></trkpt><trkpt lat="38.0150303" lon="14.3711787"><ele>23.0</ele><time>2026-05-03T12:44:36Z</time></trkpt><trkpt lat="38.0149904" lon="14.3709747"><ele>24.0</ele><time>2026-05-03T12:44:37Z</time></trkpt><trkpt lat="38.0149484" lon="14.3707766"><ele>25.0</ele><time>2026-05-03T12:44:38Z</time></trkpt><trkpt lat="38.0149082" lon="14.3705837"><ele>27.0</ele><time>2026-05-03T12:44:39Z</time></trkpt><trkpt lat="38.0148636" lon="14.3703903"><ele>29.0</ele><time>2026-05-03T12:44:40Z</time></trkpt><trkpt lat="38.0148154" lon="14.3701969"><ele>31.0</ele><time>2026-05-03T12:44:41Z</time></trkpt><trkpt lat="38.0147552" lon="14.3699884"><ele>31.0</ele><time>2026-05-03T12:44:42Z</time></trkpt><trkpt lat="38.0146827" lon="14.369788"><ele>31.0</ele><time>2026-05-03T12:44:43Z</time></trkpt><trkpt lat="38.0146087" lon="14.369588"><ele>31.0</ele><time>2026-05-03T12:44:44Z</time></trkpt><trkpt lat="38.0145305" lon="14.3693933"><ele>31.333333333333336</ele><time>2026-05-03T12:44:45Z</time></trkpt><trkpt lat="38.0144496" lon="14.3691952"><ele>31.666666666666664</ele><time>2026-05-03T12:44:46Z</time></trkpt><trkpt lat="38.0143769" lon="14.3689928"><ele>32.0</ele><time>2026-05-03T12:44:47Z</time></trkpt><trkpt lat="38.0143087" lon="14.368777"><ele>32.0</ele><time>2026-05-03T12:44:48Z</time></trkpt><trkpt lat="38.0142507" lon="14.3685595"><ele>32.0</ele><time>2026-05-03T12:44:49Z</time></trkpt><trkpt lat="38.0141978" lon="14.368338"><ele>32.0</ele><time>2026-05-03T12:44:50Z</time></trkpt><trkpt lat="38.0141561" lon="14.368113"><ele>51.0</ele><time>2026-05-03T12:44:51Z</time></trkpt><trkpt lat="38.0141255" lon="14.3678933"><ele>70.0</ele><time>2026-05-03T12:44:52Z</time></trkpt><trkpt lat="38.014087" lon="14.3676399"><ele>89.0</ele><time>2026-05-03T12:44:53Z</time></trkpt><trkpt lat="38.0140366" lon="14.3673565"><ele>87.0</ele><time>2026-05-03T12:44:54Z</time></trkpt><trkpt lat="38.0139853" lon="14.36703"><ele>85.0</ele><time>2026-05-03T12:44:55Z</time></trkpt><trkpt lat="38.0139409" lon="14.3666918"><ele>81.0</ele><time>2026-05-03T12:44:56Z</time></trkpt><trkpt lat="38.0139084" lon="14.3663533"><ele>77.0</ele><time>2026-05-03T12:44:57Z</time></trkpt><trkpt lat="38.0138687" lon="14.3660187"><ele>77.0</ele><time>2026-05-03T12:44:58Z</time></trkpt><trkpt lat="38.0138292" lon="14.3656935"><ele>77.0</ele><time>2026-05-03T12:44:59Z</time></trkpt><trkpt lat="38.0137913" lon="14.3653644"><ele>73.0</ele><time>2026-05-03T12:45:00Z</time></trkpt><trkpt lat="38.0137569" lon="14.3650449"><ele>69.0</ele><time>2026-05-03T12:45:01Z</time></trkpt><trkpt lat="38.0137371" lon="14.3647333"><ele>67.0</ele><time>2026-05-03T12:45:02Z</time></trkpt><trkpt lat="38.0137488" lon="14.3643971"><ele>65.0</ele><time>2026-05-03T12:45:03Z</time></trkpt><trkpt lat="38.0137742" lon="14.3640705"><ele>64.5</ele><time>2026-05-03T12:45:04Z</time></trkpt><trkpt lat="38.0138136" lon="14.3637377"><ele>64.0</ele><time>2026-05-03T12:45:05Z</time></trkpt><trkpt lat="38.0138443" lon="14.3634114"><ele>64.0</ele><time>2026-05-03T12:45:06Z</time></trkpt><trkpt lat="38.0138738" lon="14.3630841"><ele>64.0</ele><time>2026-05-03T12:45:07Z</time></trkpt><trkpt lat="38.0139018" lon="14.3627648"><ele>62.0</ele><time>2026-05-03T12:45:08Z</time></trkpt><trkpt lat="38.013916" lon="14.3624539"><ele>60.0</ele><time>2026-05-03T12:45:09Z</time></trkpt><trkpt lat="38.0139228" lon="14.3621422"><ele>58.0</ele><time>2026-05-03T12:45:09.999Z</time></trkpt><trkpt lat="38.0139285" lon="14.3618264"><ele>56.0</ele><time>2026-05-03T12:45:11Z</time></trkpt><trkpt lat="38.0139477" lon="14.3615206"><ele>58.0</ele><time>2026-05-03T12:45:12Z</time></trkpt><trkpt lat="38.013986" lon="14.3612357"><ele>60.0</ele><time>2026-05-03T12:45:13Z</time></trkpt><trkpt lat="38.014024" lon="14.3609638"><ele>62.0</ele><time>2026-05-03T12:45:14Z</time></trkpt><trkpt lat="38.0140437" lon="14.3607026"><ele>62.333333333333336</ele><time>2026-05-03T12:45:15Z</time></trkpt><trkpt lat="38.0139961" lon="14.3604481"><ele>62.66666666666667</ele><time>2026-05-03T12:45:16Z</time></trkpt><trkpt lat="38.0139863" lon="14.3601888"><ele>63.0</ele><time>2026-05-03T12:45:17Z</time></trkpt><trkpt lat="38.014015" lon="14.3599179"><ele>62.33333333333333</ele><time>2026-05-03T12:45:18Z</time></trkpt><trkpt lat="38.014052" lon="14.3596748"><ele>61.666666666666664</ele><time>2026-05-03T12:45:19Z</time></trkpt><trkpt lat="38.0140763" lon="14.3594471"><ele>61.0</ele><time>2026-05-03T12:45:20Z</time></trkpt><trkpt lat="38.0140555" lon="14.3592079"><ele>61.0</ele><time>2026-05-03T12:45:21Z</time></trkpt><trkpt lat="38.0140161" lon="14.3589816"><ele>61.0</ele><time>2026-05-03T12:45:22Z</time></trkpt><trkpt lat="38.01397" lon="14.3587781"><ele>61.0</ele><time>2026-05-03T12:45:23Z</time></trkpt><trkpt lat="38.0139147" lon="14.3586086"><ele>57.33333333333333</ele><time>2026-05-03T12:45:23.999Z</time></trkpt><trkpt lat="38.0138088" lon="14.3584633"><ele>53.66666666666667</ele><time>2026-05-03T12:45:25Z</time></trkpt><trkpt lat="38.0136482" lon="14.3583117"><ele>50.0</ele><time>2026-05-03T12:45:26Z</time></trkpt><trkpt lat="38.0135102" lon="14.3581144"><ele>48.0</ele><time>2026-05-03T12:45:27Z</time></trkpt><trkpt lat="38.0134027" lon="14.3579063"><ele>46.0</ele><time>2026-05-03T12:45:28Z</time></trkpt><trkpt lat="38.0132798" lon="14.3576997"><ele>44.0</ele><time>2026-05-03T12:45:29Z</time></trkpt><trkpt lat="38.0131452" lon="14.3575188"><ele>47.5</ele><time>2026-05-03T12:45:30Z</time></trkpt><trkpt lat="38.0130318" lon="14.3573879"><ele>51.0</ele><time>2026-05-03T12:45:31Z</time></trkpt><trkpt lat="38.0129142" lon="14.3572939"><ele>54.5</ele><time>2026-05-03T12:45:32Z</time></trkpt><trkpt lat="38.0127825" lon="14.3572668"><ele>58.0</ele><time>2026-05-03T12:45:33Z</time></trkpt><trkpt lat="38.0126514" lon="14.357276"><ele>57.99999999999999</ele><time>2026-05-03T12:45:34Z</time></trkpt><trkpt lat="38.012542" lon="14.3572732"><ele>58.0</ele><time>2026-05-03T12:45:35Z</time></trkpt><trkpt lat="38.0124916" lon="14.3572137"><ele>58.0</ele><time>2026-05-03T12:45:36Z</time></trkpt><trkpt lat="38.0124727" lon="14.3571311"><ele>58.0</ele><time>2026-05-03T12:45:37Z</time></trkpt><trkpt lat="38.0124616" lon="14.3570346"><ele>57.99999999999999</ele><time>2026-05-03T12:45:37.999Z</time></trkpt><trkpt lat="38.0124814" lon="14.3569194"><ele>58.0</ele><time>2026-05-03T12:45:39Z</time></trkpt><trkpt lat="38.0125694" lon="14.3568326"><ele>62.0</ele><time>2026-05-03T12:45:40Z</time></trkpt><trkpt lat="38.012824" lon="14.3568177"><ele>66.0</ele><time>2026-05-03T12:45:41Z</time></trkpt><trkpt lat="38.0130259" lon="14.3568299"><ele>66.0</ele><time>2026-05-03T12:45:42Z</time></trkpt><trkpt lat="38.0131566" lon="14.3568464"><ele>66.0</ele><time>2026-05-03T12:45:43Z</time></trkpt><trkpt lat="38.0132725" lon="14.3568289"><ele>66.0</ele><time>2026-05-03T12:45:44Z</time></trkpt><trkpt lat="38.0133457" lon="14.3567758"><ele>66.0</ele><time>2026-05-03T12:45:45Z</time></trkpt><trkpt lat="38.0134129" lon="14.3567191"><ele>66.0</ele><time>2026-05-03T12:45:46Z</time></trkpt><trkpt lat="38.0133387" lon="14.3566097"><ele>66.0</ele><time>2026-05-03T12:45:46.999Z</time></trkpt><trkpt lat="38.0132724" lon="14.3565396"><ele>66.0</ele><time>2026-05-03T12:45:48Z</time></trkpt><trkpt lat="38.013181" lon="14.356467"><ele>66.0</ele><time>2026-05-03T12:45:49Z</time></trkpt><trkpt lat="38.0130074" lon="14.3564063"><ele>66.0</ele><time>2026-05-03T12:45:50Z</time></trkpt><trkpt lat="38.0128846" lon="14.356309"><ele>66.0</ele><time>2026-05-03T12:45:51Z</time></trkpt><trkpt lat="38.0128094" lon="14.3561862"><ele>66.0</ele><time>2026-05-03T12:45:52Z</time></trkpt><trkpt lat="38.0127649" lon="14.3560097"><ele>66.0</ele><time>2026-05-03T12:45:53Z</time></trkpt><trkpt lat="38.0127314" lon="14.3557917"><ele>66.0</ele><time>2026-05-03T12:45:54Z</time></trkpt><trkpt lat="38.0126485" lon="14.3555553"><ele>64.66666666666667</ele><time>2026-05-03T12:45:55Z</time></trkpt><trkpt lat="38.012561" lon="14.355306"><ele>63.333333333333336</ele><time>2026-05-03T12:45:56Z</time></trkpt><trkpt lat="38.0125123" lon="14.3550661"><ele>62.0</ele><time>2026-05-03T12:45:57Z</time></trkpt><trkpt lat="38.0124658" lon="14.3548606"><ele>63.75</ele><time>2026-05-03T12:45:58Z</time></trkpt><trkpt lat="38.012442" lon="14.3546702"><ele>65.5</ele><time>2026-05-03T12:45:59Z</time></trkpt><trkpt lat="38.0124367" lon="14.3544993"><ele>67.25</ele><time>2026-05-03T12:46:00Z</time></trkpt><trkpt lat="38.0124482" lon="14.3543553"><ele>69.0</ele><time>2026-05-03T12:46:01Z</time></trkpt><trkpt lat="38.0124729" lon="14.3542327"><ele>68.2</ele><time>2026-05-03T12:46:02Z</time></trkpt><trkpt lat="38.0125276" lon="14.354153"><ele>67.4</ele><time>2026-05-03T12:46:03Z</time></trkpt><trkpt lat="38.0126033" lon="14.3541376"><ele>66.6</ele><time>2026-05-03T12:46:04Z</time></trkpt><trkpt lat="38.012686" lon="14.354184"><ele>65.8</ele><time>2026-05-03T12:46:05Z</time></trkpt><trkpt lat="38.0127846" lon="14.3542863"><ele>65.0</ele><time>2026-05-03T12:46:06Z</time></trkpt><trkpt lat="38.0128794" lon="14.3544031"><ele>65.0</ele><time>2026-05-03T12:46:07Z</time></trkpt><trkpt lat="38.0129632" lon="14.3545325"><ele>65.0</ele><time>2026-05-03T12:46:08Z</time></trkpt><trkpt lat="38.0130347" lon="14.3546729"><ele>65.0</ele><time>2026-05-03T12:46:09Z</time></trkpt><trkpt lat="38.0130901" lon="14.3548055"><ele>65.0</ele><time>2026-05-03T12:46:10Z</time></trkpt><trkpt lat="38.013141" lon="14.3549331"><ele>64.6</ele><time>2026-05-03T12:46:11Z</time></trkpt><trkpt lat="38.0132065" lon="14.3550367"><ele>64.2</ele><time>2026-05-03T12:46:12Z</time></trkpt><trkpt lat="38.0132843" lon="14.3551154"><ele>63.8</ele><time>2026-05-03T12:46:13Z</time></trkpt><trkpt lat="38.0133748" lon="14.3551644"><ele>63.4</ele><time>2026-05-03T12:46:14Z</time></trkpt><trkpt lat="38.0134716" lon="14.3551885"><ele>63.0</ele><time>2026-05-03T12:46:15Z</time></trkpt><trkpt lat="38.0135678" lon="14.3551895"><ele>63.0</ele><time>2026-05-03T12:46:16Z</time></trkpt><trkpt lat="38.013647" lon="14.3551626"><ele>63.0</ele><time>2026-05-03T12:46:17Z</time></trkpt><trkpt lat="38.0137111" lon="14.3551005"><ele>63.0</ele><time>2026-05-03T12:46:18Z</time></trkpt><trkpt lat="38.0137597" lon="14.3550032"><ele>63.0</ele><time>2026-05-03T12:46:19Z</time></trkpt><trkpt lat="38.0137813" lon="14.3548907"><ele>63.0</ele><time>2026-05-03T12:46:20Z</time></trkpt><trkpt lat="38.013787" lon="14.3547607"><ele>63.0</ele><time>2026-05-03T12:46:21Z</time></trkpt><trkpt lat="38.0137846" lon="14.3546351"><ele>64.6</ele><time>2026-05-03T12:46:22Z</time></trkpt><trkpt lat="38.0137773" lon="14.3544904"><ele>66.19999999999999</ele><time>2026-05-03T12:46:23Z</time></trkpt><trkpt lat="38.0137608" lon="14.3543518"><ele>67.8</ele><time>2026-05-03T12:46:24Z</time></trkpt><trkpt lat="38.0137419" lon="14.3542156"><ele>69.39999999999999</ele><time>2026-05-03T12:46:25Z</time></trkpt><trkpt lat="38.0137287" lon="14.354084"><ele>71.0</ele><time>2026-05-03T12:46:26Z</time></trkpt><trkpt lat="38.0137147" lon="14.3539562"><ele>72.2</ele><time>2026-05-03T12:46:27Z</time></trkpt><trkpt lat="38.0136874" lon="14.3538323"><ele>73.39999999999999</ele><time>2026-05-03T12:46:28Z</time></trkpt><trkpt lat="38.013635" lon="14.3537193"><ele>74.6</ele><time>2026-05-03T12:46:29Z</time></trkpt><trkpt lat="38.0135908" lon="14.3536018"><ele>75.8</ele><time>2026-05-03T12:46:30Z</time></trkpt><trkpt lat="38.0135653" lon="14.353486"><ele>77.0</ele><time>2026-05-03T12:46:31Z</time></trkpt><trkpt lat="38.0135751" lon="14.3533773"><ele>77.0</ele><time>2026-05-03T12:46:32Z</time></trkpt><trkpt lat="38.0136115" lon="14.3532851"><ele>77.0</ele><time>2026-05-03T12:46:33Z</time></trkpt><trkpt lat="38.0136371" lon="14.3531969"><ele>77.0</ele><time>2026-05-03T12:46:34Z</time></trkpt><trkpt lat="38.0136708" lon="14.3531017"><ele>77.0</ele><time>2026-05-03T12:46:35Z</time></trkpt><trkpt lat="38.0137138" lon="14.3530003"><ele>77.0</ele><time>2026-05-03T12:46:36Z</time></trkpt><trkpt lat="38.0137541" lon="14.3529088"><ele>77.0</ele><time>2026-05-03T12:46:37Z</time></trkpt><trkpt lat="38.0138014" lon="14.3528104"><ele>77.8</ele><time>2026-05-03T12:46:38Z</time></trkpt><trkpt lat="38.013844" lon="14.352708"><ele>78.6</ele><time>2026-05-03T12:46:39Z</time></trkpt><trkpt lat="38.0138912" lon="14.3526063"><ele>79.39999999999999</ele><time>2026-05-03T12:46:40Z</time></trkpt><trkpt lat="38.0139389" lon="14.3525103"><ele>80.2</ele><time>2026-05-03T12:46:40.999Z</time></trkpt><trkpt lat="38.0139821" lon="14.352411"><ele>81.0</ele><time>2026-05-03T12:46:42Z</time></trkpt><trkpt lat="38.0140305" lon="14.3523082"><ele>81.0</ele><time>2026-05-03T12:46:43Z</time></trkpt><trkpt lat="38.0140819" lon="14.3522081"><ele>81.0</ele><time>2026-05-03T12:46:44Z</time></trkpt><trkpt lat="38.0141266" lon="14.352104"><ele>81.0</ele><time>2026-05-03T12:46:45Z</time></trkpt><trkpt lat="38.0141704" lon="14.3520138"><ele>81.0</ele><time>2026-05-03T12:46:46Z</time></trkpt><trkpt lat="38.0142102" lon="14.3519254"><ele>81.0</ele><time>2026-05-03T12:46:47Z</time></trkpt><trkpt lat="38.0142307" lon="14.3518261"><ele>81.0</ele><time>2026-05-03T12:46:48Z</time></trkpt><trkpt lat="38.0142276" lon="14.3517207"><ele>80.8</ele><time>2026-05-03T12:46:49Z</time></trkpt><trkpt lat="38.0142186" lon="14.3516108"><ele>80.6</ele><time>2026-05-03T12:46:50Z</time></trkpt><trkpt lat="38.0142119" lon="14.3514944"><ele>80.4</ele><time>2026-05-03T12:46:51Z</time></trkpt><trkpt lat="38.0142072" lon="14.3513729"><ele>80.2</ele><time>2026-05-03T12:46:52Z</time></trkpt><trkpt lat="38.0142036" lon="14.3512504"><ele>80.0</ele><time>2026-05-03T12:46:53Z</time></trkpt><trkpt lat="38.0141979" lon="14.3511248"><ele>80.0</ele><time>2026-05-03T12:46:54Z</time></trkpt><trkpt lat="38.0141935" lon="14.3509976"><ele>80.0</ele><time>2026-05-03T12:46:55Z</time></trkpt><trkpt lat="38.0141866" lon="14.3508681"><ele>80.0</ele><time>2026-05-03T12:46:56Z</time></trkpt><trkpt lat="38.0141763" lon="14.3507408"><ele>80.0</ele><time>2026-05-03T12:46:57Z</time></trkpt><trkpt lat="38.0141701" lon="14.3506123"><ele>80.0</ele><time>2026-05-03T12:46:58Z</time></trkpt><trkpt lat="38.0141578" lon="14.3504812"><ele>82.2</ele><time>2026-05-03T12:46:59Z</time></trkpt><trkpt lat="38.0141483" lon="14.3503533"><ele>84.4</ele><time>2026-05-03T12:47:00Z</time></trkpt><trkpt lat="38.0141435" lon="14.3502222"><ele>86.6</ele><time>2026-05-03T12:47:01Z</time></trkpt><trkpt lat="38.0141344" lon="14.3500911"><ele>88.8</ele><time>2026-05-03T12:47:02Z</time></trkpt><trkpt lat="38.0141267" lon="14.3499567"><ele>91.0</ele><time>2026-05-03T12:47:03Z</time></trkpt><trkpt lat="38.014125" lon="14.3498238"><ele>91.4</ele><time>2026-05-03T12:47:04Z</time></trkpt><trkpt lat="38.0141203" lon="14.3496922"><ele>91.8</ele><time>2026-05-03T12:47:05Z</time></trkpt><trkpt lat="38.0141131" lon="14.3495618"><ele>92.2</ele><time>2026-05-03T12:47:06Z</time></trkpt><trkpt lat="38.0141054" lon="14.3494317"><ele>92.60000000000001</ele><time>2026-05-03T12:47:07Z</time></trkpt><trkpt lat="38.0140994" lon="14.3493039"><ele>93.0</ele><time>2026-05-03T12:47:08Z</time></trkpt><trkpt lat="38.0140928" lon="14.3491769"><ele>93.0</ele><time>2026-05-03T12:47:09Z</time></trkpt><trkpt lat="38.0140891" lon="14.349054"><ele>93.0</ele><time>2026-05-03T12:47:10Z</time></trkpt><trkpt lat="38.0140814" lon="14.3489287"><ele>93.0</ele><time>2026-05-03T12:47:11Z</time></trkpt><trkpt lat="38.0140765" lon="14.3488058"><ele>93.0</ele><time>2026-05-03T12:47:12Z</time></trkpt><trkpt lat="38.0140764" lon="14.3486896"><ele>93.0</ele><time>2026-05-03T12:47:13Z</time></trkpt><trkpt lat="38.0140712" lon="14.348573"><ele>92.66666666666667</ele><time>2026-05-03T12:47:14Z</time></trkpt><trkpt lat="38.0140634" lon="14.3484575"><ele>92.33333333333333</ele><time>2026-05-03T12:47:15Z</time></trkpt><trkpt lat="38.0140596" lon="14.3483572"><ele>92.0</ele><time>2026-05-03T12:47:16Z</time></trkpt><trkpt lat="38.014054" lon="14.3482693"><ele>91.66666666666666</ele><time>2026-05-03T12:47:17Z</time></trkpt><trkpt lat="38.0140574" lon="14.3481584"><ele>91.33333333333333</ele><time>2026-05-03T12:47:19Z</time></trkpt><trkpt lat="38.0141226" lon="14.3480944"><ele>91.0</ele><time>2026-05-03T12:47:22Z</time></trkpt><trkpt lat="38.0142041" lon="14.3480662"><ele>86.8</ele><time>2026-05-03T12:47:24Z</time></trkpt><trkpt lat="38.0143114" lon="14.3480301"><ele>82.6</ele><time>2026-05-03T12:47:26Z</time></trkpt><trkpt lat="38.014429" lon="14.3479894"><ele>78.4</ele><time>2026-05-03T12:47:28Z</time></trkpt><trkpt lat="38.0145532" lon="14.3479613"><ele>74.2</ele><time>2026-05-03T12:47:30Z</time></trkpt><trkpt lat="38.0146158" lon="14.3479482"><ele>70.0</ele><time>2026-05-03T12:47:31Z</time></trkpt><trkpt lat="38.0147349" lon="14.3479244"><ele>70.0</ele><time>2026-05-03T12:47:33Z</time></trkpt><trkpt lat="38.0147991" lon="14.3479069"><ele>70.0</ele><time>2026-05-03T12:47:34Z</time></trkpt><trkpt lat="38.0148605" lon="14.3478891"><ele>70.0</ele><time>2026-05-03T12:47:35Z</time></trkpt><trkpt lat="38.0149228" lon="14.3478754"><ele>70.0</ele><time>2026-05-03T12:47:36Z</time></trkpt><trkpt lat="38.0150438" lon="14.347852"><ele>70.0</ele><time>2026-05-03T12:47:38Z</time></trkpt><trkpt lat="38.0151556" lon="14.3478319"><ele>70.0</ele><time>2026-05-03T12:47:40Z</time></trkpt><trkpt lat="38.0152486" lon="14.3478101"><ele>67.0</ele><time>2026-05-03T12:47:42Z</time></trkpt><trkpt lat="38.0153211" lon="14.3477884"><ele>67.0</ele><time>2026-05-03T12:47:44Z</time></trkpt><trkpt lat="38.0153878" lon="14.347751"><ele>67.0</ele><time>2026-05-03T12:47:48Z</time></trkpt><trkpt lat="38.0153764" lon="14.347668"><ele>67.0</ele><time>2026-05-03T12:47:52Z</time></trkpt></trkseg><trkseg><trkpt lat="38.0145333" lon="14.3479787"><ele>70.0</ele><time>2026-05-03T13:53:47Z</time></trkpt><trkpt lat="38.014648" lon="14.347954"><ele>70.0</ele><time>2026-05-03T13:53:49Z</time></trkpt><trkpt lat="38.0148811" lon="14.3478861"><ele>70.0</ele><time>2026-05-03T13:53:53Z</time></trkpt><trkpt lat="38.0149964" lon="14.3478589"><ele>69.4</ele><time>2026-05-03T13:53:55Z</time></trkpt><trkpt lat="38.0151082" lon="14.3478308"><ele>68.8</ele><time>2026-05-03T13:53:57Z</time></trkpt><trkpt lat="38.015209" lon="14.3478069"><ele>68.2</ele><time>2026-05-03T13:53:59Z</time></trkpt><trkpt lat="38.0152777" lon="14.3477783"><ele>67.6</ele><time>2026-05-03T13:54:01Z</time></trkpt><trkpt lat="38.0152019" lon="14.3477198"><ele>67.0</ele><time>2026-05-03T13:54:04Z</time></trkpt><trkpt lat="38.0150797" lon="14.3477534"><ele>67.0</ele><time>2026-05-03T13:54:06Z</time></trkpt><trkpt lat="38.0149988" lon="14.347778"><ele>67.0</ele><time>2026-05-03T13:54:07Z</time></trkpt><trkpt lat="38.0149104" lon="14.3478029"><ele>67.0</ele><time>2026-05-03T13:54:08Z</time></trkpt><trkpt lat="38.0148282" lon="14.3478253"><ele>67.0</ele><time>2026-05-03T13:54:09Z</time></trkpt><trkpt lat="38.014751" lon="14.3478502"><ele>67.0</ele><time>2026-05-03T13:54:10Z</time></trkpt><trkpt lat="38.0146741" lon="14.3478653"><ele>67.0</ele><time>2026-05-03T13:54:11Z</time></trkpt><trkpt lat="38.0145931" lon="14.3478714"><ele>67.5</ele><time>2026-05-03T13:54:12Z</time></trkpt><trkpt lat="38.0145107" lon="14.3478662"><ele>68.0</ele><time>2026-05-03T13:54:13Z</time></trkpt><trkpt lat="38.0144302" lon="14.347838"><ele>68.5</ele><time>2026-05-03T13:54:13.999Z</time></trkpt><trkpt lat="38.0143576" lon="14.3478039"><ele>69.0</ele><time>2026-05-03T13:54:15Z</time></trkpt><trkpt lat="38.0142814" lon="14.3477622"><ele>69.5</ele><time>2026-05-03T13:54:16Z</time></trkpt><trkpt lat="38.0142111" lon="14.3477174"><ele>70.0</ele><time>2026-05-03T13:54:17Z</time></trkpt><trkpt lat="38.0141429" lon="14.3476735"><ele>71.28571428571429</ele><time>2026-05-03T13:54:18Z</time></trkpt><trkpt lat="38.0140794" lon="14.3476367"><ele>72.57142857142857</ele><time>2026-05-03T13:54:19Z</time></trkpt><trkpt lat="38.0140089" lon="14.3475934"><ele>73.85714285714286</ele><time>2026-05-03T13:54:20Z</time></trkpt><trkpt lat="38.0139274" lon="14.3475643"><ele>75.14285714285714</ele><time>2026-05-03T13:54:21Z</time></trkpt><trkpt lat="38.0138505" lon="14.3475351"><ele>76.42857142857143</ele><time>2026-05-03T13:54:22Z</time></trkpt><trkpt lat="38.0137866" lon="14.3475145"><ele>77.71428571428572</ele><time>2026-05-03T13:54:23Z</time></trkpt><trkpt lat="38.0137204" lon="14.3474881"><ele>79.0</ele><time>2026-05-03T13:54:24Z</time></trkpt><trkpt lat="38.0136046" lon="14.3474509"><ele>79.0</ele><time>2026-05-03T13:54:26Z</time></trkpt><trkpt lat="38.013508" lon="14.3474348"><ele>79.0</ele><time>2026-05-03T13:54:28Z</time></trkpt><trkpt lat="38.013407" lon="14.3473915"><ele>79.0</ele><time>2026-05-03T13:54:30Z</time></trkpt><trkpt lat="38.0133247" lon="14.3473426"><ele>79.0</ele><time>2026-05-03T13:54:32Z</time></trkpt><trkpt lat="38.0132633" lon="14.3473659"><ele>91.0</ele><time>2026-05-03T13:54:35Z</time></trkpt><trkpt lat="38.013274" lon="14.3474572"><ele>91.0</ele><time>2026-05-03T13:54:41Z</time></trkpt></trkseg><trkseg><trkpt lat="38.0132161" lon="14.3474015"><ele>91.0</ele><time>2026-05-03T14:07:51Z</time></trkpt><trkpt lat="38.0132753" lon="14.3473577"><ele>91.0</ele><time>2026-05-03T14:09:01Z</time></trkpt><trkpt lat="38.0132017" lon="14.3472272"><ele>91.0</ele><time>2026-05-03T14:09:04Z</time></trkpt><trkpt lat="38.0131348" lon="14.3471575"><ele>91.0</ele><time>2026-05-03T14:09:05Z</time></trkpt><trkpt lat="38.013062" lon="14.3470838"><ele>91.0</ele><time>2026-05-03T14:09:06Z</time></trkpt><trkpt lat="38.0129719" lon="14.3470205"><ele>83.75</ele><time>2026-05-03T14:09:07Z</time></trkpt><trkpt lat="38.0128796" lon="14.3469491"><ele>76.5</ele><time>2026-05-03T14:09:08Z</time></trkpt><trkpt lat="38.0127786" lon="14.3468885"><ele>69.25</ele><time>2026-05-03T14:09:09Z</time></trkpt><trkpt lat="38.0126749" lon="14.3468257"><ele>62.0</ele><time>2026-05-03T14:09:10Z</time></trkpt><trkpt lat="38.0125626" lon="14.3467734"><ele>61.25</ele><time>2026-05-03T14:09:11Z</time></trkpt><trkpt lat="38.0124441" lon="14.3467215"><ele>60.5</ele><time>2026-05-03T14:09:12Z</time></trkpt><trkpt lat="38.0123195" lon="14.3466863"><ele>59.75</ele><time>2026-05-03T14:09:13Z</time></trkpt><trkpt lat="38.0122006" lon="14.3466769"><ele>59.0</ele><time>2026-05-03T14:09:14Z</time></trkpt><trkpt lat="38.0120851" lon="14.3466963"><ele>59.0</ele><time>2026-05-03T14:09:15Z</time></trkpt><trkpt lat="38.0119691" lon="14.3467408"><ele>59.0</ele><time>2026-05-03T14:09:16Z</time></trkpt><trkpt lat="38.0118571" lon="14.3467942"><ele>59.0</ele><time>2026-05-03T14:09:17Z</time></trkpt><trkpt lat="38.0117484" lon="14.3468436"><ele>59.0</ele><time>2026-05-03T14:09:18Z</time></trkpt><trkpt lat="38.0116364" lon="14.3468743"><ele>59.25</ele><time>2026-05-03T14:09:19Z</time></trkpt><trkpt lat="38.0115213" lon="14.3468822"><ele>59.5</ele><time>2026-05-03T14:09:20Z</time></trkpt><trkpt lat="38.0114092" lon="14.3468772"><ele>59.75</ele><time>2026-05-03T14:09:21Z</time></trkpt><trkpt lat="38.0112941" lon="14.346865"><ele>60.0</ele><time>2026-05-03T14:09:22Z</time></trkpt><trkpt lat="38.011179" lon="14.3468447"><ele>60.0</ele><time>2026-05-03T14:09:23Z</time></trkpt><trkpt lat="38.0110683" lon="14.3468316"><ele>60.0</ele><time>2026-05-03T14:09:24Z</time></trkpt><trkpt lat="38.0109604" lon="14.346814"><ele>60.0</ele><time>2026-05-03T14:09:25Z</time></trkpt><trkpt lat="38.010858" lon="14.3467886"><ele>60.0</ele><time>2026-05-03T14:09:26Z</time></trkpt><trkpt lat="38.0107631" lon="14.3467573"><ele>60.0</ele><time>2026-05-03T14:09:27Z</time></trkpt><trkpt lat="38.0106626" lon="14.3467287"><ele>59.6</ele><time>2026-05-03T14:09:28Z</time></trkpt><trkpt lat="38.0105613" lon="14.3467036"><ele>59.2</ele><time>2026-05-03T14:09:28.999Z</time></trkpt><trkpt lat="38.0104611" lon="14.3466841"><ele>58.8</ele><time>2026-05-03T14:09:30Z</time></trkpt><trkpt lat="38.0103661" lon="14.3466718"><ele>58.4</ele><time>2026-05-03T14:09:31Z</time></trkpt><trkpt lat="38.0102778" lon="14.3466648"><ele>58.0</ele><time>2026-05-03T14:09:32Z</time></trkpt><trkpt lat="38.0101981" lon="14.3466661"><ele>58.0</ele><time>2026-05-03T14:09:33Z</time></trkpt><trkpt lat="38.0101168" lon="14.3466637"><ele>58.0</ele><time>2026-05-03T14:09:34Z</time></trkpt><trkpt lat="38.0100156" lon="14.3466675"><ele>58.0</ele><time>2026-05-03T14:09:35Z</time></trkpt><trkpt lat="38.0099026" lon="14.3466555"><ele>58.0</ele><time>2026-05-03T14:09:36Z</time></trkpt><trkpt lat="38.0097748" lon="14.3466575"><ele>58.0</ele><time>2026-05-03T14:09:37Z</time></trkpt><trkpt lat="38.0096342" lon="14.3466615"><ele>57.666666666666664</ele><time>2026-05-03T14:09:38Z</time></trkpt><trkpt lat="38.0094892" lon="14.3466715"><ele>57.33333333333333</ele><time>2026-05-03T14:09:39Z</time></trkpt><trkpt lat="38.0093336" lon="14.3466891"><ele>57.0</ele><time>2026-05-03T14:09:40Z</time></trkpt><trkpt lat="38.0091778" lon="14.3467064"><ele>57.0</ele><time>2026-05-03T14:09:41Z</time></trkpt><trkpt lat="38.0090091" lon="14.3467238"><ele>57.0</ele><time>2026-05-03T14:09:42Z</time></trkpt><trkpt lat="38.0088426" lon="14.346725"><ele>57.0</ele><time>2026-05-03T14:09:43Z</time></trkpt><trkpt lat="38.0086748" lon="14.3467169"><ele>57.0</ele><time>2026-05-03T14:09:44Z</time></trkpt><trkpt lat="38.0085082" lon="14.3466962"><ele>57.0</ele><time>2026-05-03T14:09:45Z</time></trkpt><trkpt lat="38.0083421" lon="14.3466776"><ele>57.0</ele><time>2026-05-03T14:09:46Z</time></trkpt><trkpt lat="38.0081782" lon="14.3466625"><ele>55.66666666666667</ele><time>2026-05-03T14:09:47Z</time></trkpt><trkpt lat="38.0080112" lon="14.3466511"><ele>54.333333333333336</ele><time>2026-05-03T14:09:48Z</time></trkpt><trkpt lat="38.0078436" lon="14.3466389"><ele>53.0</ele><time>2026-05-03T14:09:49Z</time></trkpt><trkpt lat="38.0076823" lon="14.3466348"><ele>53.0</ele><time>2026-05-03T14:09:50Z</time></trkpt><trkpt lat="38.0075188" lon="14.3466327"><ele>53.0</ele><time>2026-05-03T14:09:51Z</time></trkpt><trkpt lat="38.007357" lon="14.3466278"><ele>53.0</ele><time>2026-05-03T14:09:52Z</time></trkpt><trkpt lat="38.0071969" lon="14.3466201"><ele>54.333333333333336</ele><time>2026-05-03T14:09:53Z</time></trkpt><trkpt lat="38.007039" lon="14.3466098"><ele>55.66666666666667</ele><time>2026-05-03T14:09:54Z</time></trkpt><trkpt lat="38.0068814" lon="14.3465945"><ele>57.0</ele><time>2026-05-03T14:09:55Z</time></trkpt><trkpt lat="38.0067231" lon="14.3465713"><ele>59.0</ele><time>2026-05-03T14:09:56Z</time></trkpt><trkpt lat="38.0065669" lon="14.3465339"><ele>61.0</ele><time>2026-05-03T14:09:57Z</time></trkpt><trkpt lat="38.0064136" lon="14.3464773"><ele>63.0</ele><time>2026-05-03T14:09:58Z</time></trkpt><trkpt lat="38.0062579" lon="14.3464204"><ele>63.0</ele><time>2026-05-03T14:09:59Z</time></trkpt><trkpt lat="38.0061035" lon="14.3463785"><ele>63.0</ele><time>2026-05-03T14:10:00Z</time></trkpt><trkpt lat="38.0059405" lon="14.3463528"><ele>63.0</ele><time>2026-05-03T14:10:01Z</time></trkpt><trkpt lat="38.0057851" lon="14.3463399"><ele>59.5</ele><time>2026-05-03T14:10:02Z</time></trkpt><trkpt lat="38.005638" lon="14.346331"><ele>56.0</ele><time>2026-05-03T14:10:03Z</time></trkpt><trkpt lat="38.0054965" lon="14.3463129"><ele>52.5</ele><time>2026-05-03T14:10:04Z</time></trkpt><trkpt lat="38.0053707" lon="14.3462681"><ele>49.0</ele><time>2026-05-03T14:10:05Z</time></trkpt><trkpt lat="38.0052702" lon="14.3461883"><ele>49.0</ele><time>2026-05-03T14:10:06Z</time></trkpt><trkpt lat="38.0051912" lon="14.3460724"><ele>49.0</ele><time>2026-05-03T14:10:07Z</time></trkpt><trkpt lat="38.0051397" lon="14.3459237"><ele>49.0</ele><time>2026-05-03T14:10:08Z</time></trkpt><trkpt lat="38.0050933" lon="14.3457573"><ele>49.0</ele><time>2026-05-03T14:10:09Z</time></trkpt><trkpt lat="38.0050455" lon="14.3455849"><ele>50.25</ele><time>2026-05-03T14:10:10Z</time></trkpt><trkpt lat="38.0049961" lon="14.3454069"><ele>51.5</ele><time>2026-05-03T14:10:11Z</time></trkpt><trkpt lat="38.0049495" lon="14.3452333"><ele>52.75</ele><time>2026-05-03T14:10:12Z</time></trkpt><trkpt lat="38.0049065" lon="14.3450549"><ele>54.0</ele><time>2026-05-03T14:10:13Z</time></trkpt><trkpt lat="38.0048654" lon="14.3448889"><ele>54.0</ele><time>2026-05-03T14:10:14Z</time></trkpt><trkpt lat="38.0048289" lon="14.3447335"><ele>54.00000000000001</ele><time>2026-05-03T14:10:15Z</time></trkpt><trkpt lat="38.0047907" lon="14.3445911"><ele>54.00000000000001</ele><time>2026-05-03T14:10:16Z</time></trkpt><trkpt lat="38.0047771" lon="14.3444726"><ele>54.0</ele><time>2026-05-03T14:10:17Z</time></trkpt><trkpt lat="38.0047736" lon="14.3443653"><ele>54.0</ele><time>2026-05-03T14:10:18Z</time></trkpt><trkpt lat="38.0047804" lon="14.3442675"><ele>54.2</ele><time>2026-05-03T14:10:19Z</time></trkpt><trkpt lat="38.0048049" lon="14.344165"><ele>54.400000000000006</ele><time>2026-05-03T14:10:20Z</time></trkpt><trkpt lat="38.0048368" lon="14.3440529"><ele>54.6</ele><time>2026-05-03T14:10:21Z</time></trkpt><trkpt lat="38.0048569" lon="14.3439351"><ele>54.8</ele><time>2026-05-03T14:10:22Z</time></trkpt><trkpt lat="38.0048622" lon="14.3438089"><ele>55.0</ele><time>2026-05-03T14:10:23Z</time></trkpt><trkpt lat="38.0048503" lon="14.343686"><ele>55.99999999999999</ele><time>2026-05-03T14:10:24Z</time></trkpt><trkpt lat="38.0048198" lon="14.3435719"><ele>57.0</ele><time>2026-05-03T14:10:25Z</time></trkpt><trkpt lat="38.0047746" lon="14.3434735"><ele>58.0</ele><time>2026-05-03T14:10:26Z</time></trkpt><trkpt lat="38.0047152" lon="14.3433874"><ele>59.0</ele><time>2026-05-03T14:10:27Z</time></trkpt><trkpt lat="38.0046497" lon="14.3433242"><ele>59.99999999999999</ele><time>2026-05-03T14:10:28Z</time></trkpt><trkpt lat="38.0045782" lon="14.3432806"><ele>61.0</ele><time>2026-05-03T14:10:29Z</time></trkpt><trkpt lat="38.0045046" lon="14.3432551"><ele>60.99999999999999</ele><time>2026-05-03T14:10:30Z</time></trkpt><trkpt lat="38.0044336" lon="14.3432517"><ele>61.0</ele><time>2026-05-03T14:10:31Z</time></trkpt><trkpt lat="38.0043552" lon="14.3432581"><ele>61.0</ele><time>2026-05-03T14:10:32Z</time></trkpt><trkpt lat="38.0042795" lon="14.3432859"><ele>61.0</ele><time>2026-05-03T14:10:33Z</time></trkpt><trkpt lat="38.0041968" lon="14.3433405"><ele>60.99999999999999</ele><time>2026-05-03T14:10:34Z</time></trkpt><trkpt lat="38.0041248" lon="14.3434081"><ele>61.0</ele><time>2026-05-03T14:10:35Z</time></trkpt><trkpt lat="38.004066" lon="14.3435033"><ele>60.8</ele><time>2026-05-03T14:10:36Z</time></trkpt><trkpt lat="38.0040274" lon="14.343616"><ele>60.599999999999994</ele><time>2026-05-03T14:10:37Z</time></trkpt><trkpt lat="38.0040099" lon="14.3437424"><ele>60.4</ele><time>2026-05-03T14:10:38Z</time></trkpt><trkpt lat="38.0040121" lon="14.3438614"><ele>60.2</ele><time>2026-05-03T14:10:39Z</time></trkpt><trkpt lat="38.0040484" lon="14.3439779"><ele>60.0</ele><time>2026-05-03T14:10:40Z</time></trkpt><trkpt lat="38.0040956" lon="14.3440852"><ele>59.0</ele><time>2026-05-03T14:10:41Z</time></trkpt><trkpt lat="38.0041566" lon="14.3441685"><ele>58.0</ele><time>2026-05-03T14:10:42Z</time></trkpt><trkpt lat="38.0042278" lon="14.3442382"><ele>57.0</ele><time>2026-05-03T14:10:43Z</time></trkpt><trkpt lat="38.0043115" lon="14.3442809"><ele>56.0</ele><time>2026-05-03T14:10:44Z</time></trkpt><trkpt lat="38.0044024" lon="14.3443005"><ele>55.0</ele><time>2026-05-03T14:10:45Z</time></trkpt><trkpt lat="38.0044994" lon="14.3442905"><ele>55.0</ele><time>2026-05-03T14:10:46Z</time></trkpt><trkpt lat="38.0045935" lon="14.3442494"><ele>55.0</ele><time>2026-05-03T14:10:47Z</time></trkpt><trkpt lat="38.0046848" lon="14.3441845"><ele>55.0</ele><time>2026-05-03T14:10:47.999Z</time></trkpt><trkpt lat="38.0047577" lon="14.3440882"><ele>55.0</ele><time>2026-05-03T14:10:49Z</time></trkpt><trkpt lat="38.0048161" lon="14.3439709"><ele>55.0</ele><time>2026-05-03T14:10:50Z</time></trkpt><trkpt lat="38.0048537" lon="14.3438381"><ele>56.5</ele><time>2026-05-03T14:10:51Z</time></trkpt><trkpt lat="38.0048676" lon="14.3436981"><ele>58.0</ele><time>2026-05-03T14:10:52Z</time></trkpt><trkpt lat="38.0048639" lon="14.3435529"><ele>59.5</ele><time>2026-05-03T14:10:53Z</time></trkpt><trkpt lat="38.004868" lon="14.3434067"><ele>61.0</ele><time>2026-05-03T14:10:54Z</time></trkpt><trkpt lat="38.0048909" lon="14.3432671"><ele>61.0</ele><time>2026-05-03T14:10:55Z</time></trkpt><trkpt lat="38.0049417" lon="14.3431417"><ele>61.0</ele><time>2026-05-03T14:10:56Z</time></trkpt><trkpt lat="38.0050136" lon="14.3430323"><ele>61.0</ele><time>2026-05-03T14:10:57Z</time></trkpt><trkpt lat="38.0050997" lon="14.3429409"><ele>61.0</ele><time>2026-05-03T14:10:58Z</time></trkpt><trkpt lat="38.0052016" lon="14.3428682"><ele>61.75</ele><time>2026-05-03T14:10:59Z</time></trkpt><trkpt lat="38.0053064" lon="14.3428064"><ele>62.5</ele><time>2026-05-03T14:11:00Z</time></trkpt><trkpt lat="38.0054162" lon="14.3427435"><ele>63.25</ele><time>2026-05-03T14:11:01Z</time></trkpt><trkpt lat="38.0055242" lon="14.3426698"><ele>64.0</ele><time>2026-05-03T14:11:02Z</time></trkpt><trkpt lat="38.0056377" lon="14.3426042"><ele>64.0</ele><time>2026-05-03T14:11:03Z</time></trkpt><trkpt lat="38.0057572" lon="14.3425322"><ele>64.0</ele><time>2026-05-03T14:11:04Z</time></trkpt><trkpt lat="38.0058846" lon="14.3424592"><ele>64.0</ele><time>2026-05-03T14:11:05Z</time></trkpt><trkpt lat="38.0060142" lon="14.3423749"><ele>64.0</ele><time>2026-05-03T14:11:06Z</time></trkpt><trkpt lat="38.0061436" lon="14.34229"><ele>66.66666666666666</ele><time>2026-05-03T14:11:07Z</time></trkpt><trkpt lat="38.0062815" lon="14.3422134"><ele>69.33333333333333</ele><time>2026-05-03T14:11:08Z</time></trkpt><trkpt lat="38.0064223" lon="14.342129"><ele>72.0</ele><time>2026-05-03T14:11:09Z</time></trkpt><trkpt lat="38.0065627" lon="14.3420399"><ele>66.33333333333333</ele><time>2026-05-03T14:11:10Z</time></trkpt><trkpt lat="38.006706" lon="14.3419535"><ele>60.666666666666664</ele><time>2026-05-03T14:11:11Z</time></trkpt><trkpt lat="38.0068443" lon="14.3418689"><ele>55.0</ele><time>2026-05-03T14:11:12Z</time></trkpt><trkpt lat="38.0069789" lon="14.3417784"><ele>55.0</ele><time>2026-05-03T14:11:12.999Z</time></trkpt><trkpt lat="38.0071044" lon="14.3416978"><ele>55.0</ele><time>2026-05-03T14:11:14Z</time></trkpt><trkpt lat="38.007219" lon="14.3416171"><ele>55.0</ele><time>2026-05-03T14:11:15Z</time></trkpt><trkpt lat="38.0073243" lon="14.3415569"><ele>55.0</ele><time>2026-05-03T14:11:16Z</time></trkpt><trkpt lat="38.0074116" lon="14.3415118"><ele>54.99999999999999</ele><time>2026-05-03T14:11:17Z</time></trkpt><trkpt lat="38.007481" lon="14.3414956"><ele>55.0</ele><time>2026-05-03T14:11:18Z</time></trkpt><trkpt lat="38.007568" lon="14.3414725"><ele>55.0</ele><time>2026-05-03T14:11:20Z</time></trkpt><trkpt lat="38.007597" lon="14.3413991"><ele>55.0</ele><time>2026-05-03T14:11:44Z</time></trkpt><trkpt lat="38.0074976" lon="14.3413929"><ele>54.99999999999999</ele><time>2026-05-03T14:11:47Z</time></trkpt><trkpt lat="38.0074396" lon="14.3414302"><ele>55.0</ele><time>2026-05-03T14:11:48Z</time></trkpt><trkpt lat="38.007365" lon="14.3414813"><ele>55.0</ele><time>2026-05-03T14:11:49Z</time></trkpt><trkpt lat="38.0072718" lon="14.3415399"><ele>55.0</ele><time>2026-05-03T14:11:50Z</time></trkpt><trkpt lat="38.0071669" lon="14.3415985"><ele>55.0</ele><time>2026-05-03T14:11:51Z</time></trkpt><trkpt lat="38.0070634" lon="14.3416649"><ele>55.0</ele><time>2026-05-03T14:11:52Z</time></trkpt><trkpt lat="38.0069493" lon="14.3417278"><ele>55.0</ele><time>2026-05-03T14:11:53Z</time></trkpt><trkpt lat="38.0068113" lon="14.3418184"><ele>55.0</ele><time>2026-05-03T14:11:54Z</time></trkpt><trkpt lat="38.0066499" lon="14.3419179"><ele>55.0</ele><time>2026-05-03T14:11:55Z</time></trkpt><trkpt lat="38.0064812" lon="14.3420232"><ele>53.666666666666664</ele><time>2026-05-03T14:11:56Z</time></trkpt><trkpt lat="38.0063212" lon="14.3421235"><ele>52.33333333333333</ele><time>2026-05-03T14:11:57Z</time></trkpt><trkpt lat="38.0061637" lon="14.3422194"><ele>51.0</ele><time>2026-05-03T14:11:58Z</time></trkpt><trkpt lat="38.0060148" lon="14.3423172"><ele>51.0</ele><time>2026-05-03T14:11:59Z</time></trkpt><trkpt lat="38.0058534" lon="14.3424135"><ele>51.0</ele><time>2026-05-03T14:12:00Z</time></trkpt><trkpt lat="38.0056938" lon="14.3425132"><ele>51.0</ele><time>2026-05-03T14:12:01Z</time></trkpt><trkpt lat="38.0055274" lon="14.3426109"><ele>55.33333333333333</ele><time>2026-05-03T14:12:02Z</time></trkpt><trkpt lat="38.0053653" lon="14.3427094"><ele>59.666666666666664</ele><time>2026-05-03T14:12:03Z</time></trkpt><trkpt lat="38.0052222" lon="14.3428041"><ele>64.0</ele><time>2026-05-03T14:12:04Z</time></trkpt><trkpt lat="38.0050904" lon="14.3429035"><ele>63.400000000000006</ele><time>2026-05-03T14:12:05Z</time></trkpt><trkpt lat="38.0049902" lon="14.3429965"><ele>62.800000000000004</ele><time>2026-05-03T14:12:05.999Z</time></trkpt><trkpt lat="38.0048961" lon="14.3430905"><ele>62.199999999999996</ele><time>2026-05-03T14:12:07Z</time></trkpt><trkpt lat="38.0048209" lon="14.3431541"><ele>61.599999999999994</ele><time>2026-05-03T14:12:08Z</time></trkpt><trkpt lat="38.0047516" lon="14.3431971"><ele>61.0</ele><time>2026-05-03T14:12:09Z</time></trkpt><trkpt lat="38.0046521" lon="14.3432265"><ele>61.0</ele><time>2026-05-03T14:12:11Z</time></trkpt><trkpt lat="38.0045608" lon="14.3432243"><ele>60.99999999999999</ele><time>2026-05-03T14:12:14Z</time></trkpt><trkpt lat="38.0044274" lon="14.3432398"><ele>60.99999999999999</ele><time>2026-05-03T14:12:16Z</time></trkpt><trkpt lat="38.0043332" lon="14.3432705"><ele>61.0</ele><time>2026-05-03T14:12:17Z</time></trkpt><trkpt lat="38.0042461" lon="14.3433323"><ele>61.0</ele><time>2026-05-03T14:12:18Z</time></trkpt><trkpt lat="38.0041586" lon="14.3434231"><ele>60.8</ele><time>2026-05-03T14:12:19Z</time></trkpt><trkpt lat="38.0040888" lon="14.3435306"><ele>60.599999999999994</ele><time>2026-05-03T14:12:20Z</time></trkpt><trkpt lat="38.0040452" lon="14.3436529"><ele>60.4</ele><time>2026-05-03T14:12:21Z</time></trkpt><trkpt lat="38.0040373" lon="14.343782"><ele>60.2</ele><time>2026-05-03T14:12:22Z</time></trkpt><trkpt lat="38.0040591" lon="14.3439061"><ele>60.0</ele><time>2026-05-03T14:12:23Z</time></trkpt><trkpt lat="38.0041246" lon="14.3440076"><ele>59.0</ele><time>2026-05-03T14:12:24Z</time></trkpt><trkpt lat="38.0042007" lon="14.3440895"><ele>58.0</ele><time>2026-05-03T14:12:25Z</time></trkpt><trkpt lat="38.0042908" lon="14.3441424"><ele>57.0</ele><time>2026-05-03T14:12:26Z</time></trkpt><trkpt lat="38.0043913" lon="14.3441529"><ele>56.0</ele><time>2026-05-03T14:12:27Z</time></trkpt><trkpt lat="38.0044896" lon="14.3441265"><ele>55.0</ele><time>2026-05-03T14:12:28Z</time></trkpt><trkpt lat="38.0045824" lon="14.3440461"><ele>55.0</ele><time>2026-05-03T14:12:29Z</time></trkpt><trkpt lat="38.0046586" lon="14.3439315"><ele>55.0</ele><time>2026-05-03T14:12:30Z</time></trkpt><trkpt lat="38.0046948" lon="14.3438003"><ele>55.0</ele><time>2026-05-03T14:12:31Z</time></trkpt><trkpt lat="38.0046938" lon="14.343658"><ele>55.0</ele><time>2026-05-03T14:12:32Z</time></trkpt><trkpt lat="38.0046615" lon="14.3435157"><ele>56.5</ele><time>2026-05-03T14:12:33Z</time></trkpt><trkpt lat="38.0046344" lon="14.3433711"><ele>58.0</ele><time>2026-05-03T14:12:34Z</time></trkpt><trkpt lat="38.0046143" lon="14.3432097"><ele>59.5</ele><time>2026-05-03T14:12:35Z</time></trkpt><trkpt lat="38.0046787" lon="14.3430724"><ele>61.0</ele><time>2026-05-03T14:12:36Z</time></trkpt><trkpt lat="38.0047655" lon="14.3429914"><ele>62.0</ele><time>2026-05-03T14:12:37Z</time></trkpt><trkpt lat="38.0049223" lon="14.3429422"><ele>63.0</ele><time>2026-05-03T14:12:38Z</time></trkpt><trkpt lat="38.0050337" lon="14.3428469"><ele>64.0</ele><time>2026-05-03T14:12:39Z</time></trkpt><trkpt lat="38.0051796" lon="14.3427459"><ele>64.0</ele><time>2026-05-03T14:12:40Z</time></trkpt><trkpt lat="38.0053338" lon="14.3426403"><ele>64.0</ele><time>2026-05-03T14:12:41Z</time></trkpt><trkpt lat="38.0054814" lon="14.3425352"><ele>64.0</ele><time>2026-05-03T14:12:42Z</time></trkpt><trkpt lat="38.0056342" lon="14.3424423"><ele>64.0</ele><time>2026-05-03T14:12:43Z</time></trkpt><trkpt lat="38.0057794" lon="14.3423536"><ele>64.0</ele><time>2026-05-03T14:12:44Z</time></trkpt><trkpt lat="38.0059169" lon="14.3422569"><ele>64.0</ele><time>2026-05-03T14:12:45Z</time></trkpt><trkpt lat="38.006047" lon="14.3421542"><ele>66.66666666666666</ele><time>2026-05-03T14:12:46Z</time></trkpt><trkpt lat="38.0061741" lon="14.3420387"><ele>69.33333333333333</ele><time>2026-05-03T14:12:47Z</time></trkpt><trkpt lat="38.0063062" lon="14.3419109"><ele>72.0</ele><time>2026-05-03T14:12:48Z</time></trkpt><trkpt lat="38.0064409" lon="14.341781"><ele>72.0</ele><time>2026-05-03T14:12:49Z</time></trkpt><trkpt lat="38.0065819" lon="14.3416375"><ele>72.0</ele><time>2026-05-03T14:12:50Z</time></trkpt><trkpt lat="38.0067308" lon="14.3415054"><ele>72.0</ele><time>2026-05-03T14:12:51Z</time></trkpt><trkpt lat="38.006918" lon="14.3413793"><ele>71.33333333333333</ele><time>2026-05-03T14:12:52Z</time></trkpt><trkpt lat="38.0071181" lon="14.3412644"><ele>70.66666666666666</ele><time>2026-05-03T14:12:53Z</time></trkpt><trkpt lat="38.007331" lon="14.3411576"><ele>70.0</ele><time>2026-05-03T14:12:54Z</time></trkpt><trkpt lat="38.0075333" lon="14.3410555"><ele>68.33333333333333</ele><time>2026-05-03T14:12:55Z</time></trkpt><trkpt lat="38.0077237" lon="14.3409625"><ele>66.66666666666667</ele><time>2026-05-03T14:12:56Z</time></trkpt><trkpt lat="38.007887" lon="14.3408649"><ele>65.0</ele><time>2026-05-03T14:12:57Z</time></trkpt><trkpt lat="38.0080263" lon="14.340736"><ele>65.0</ele><time>2026-05-03T14:12:58Z</time></trkpt><trkpt lat="38.0081333" lon="14.3405688"><ele>65.0</ele><time>2026-05-03T14:12:59Z</time></trkpt><trkpt lat="38.0082167" lon="14.3403765"><ele>65.0</ele><time>2026-05-03T14:13:00Z</time></trkpt><trkpt lat="38.0082781" lon="14.3401606"><ele>66.0</ele><time>2026-05-03T14:13:01Z</time></trkpt><trkpt lat="38.0083468" lon="14.339934"><ele>67.0</ele><time>2026-05-03T14:13:02Z</time></trkpt><trkpt lat="38.0084146" lon="14.3397038"><ele>68.0</ele><time>2026-05-03T14:13:03Z</time></trkpt><trkpt lat="38.0084951" lon="14.3394855"><ele>73.0</ele><time>2026-05-03T14:13:04Z</time></trkpt><trkpt lat="38.0085897" lon="14.3392736"><ele>78.0</ele><time>2026-05-03T14:13:05Z</time></trkpt><trkpt lat="38.0086941" lon="14.3390701"><ele>83.0</ele><time>2026-05-03T14:13:06Z</time></trkpt><trkpt lat="38.0088154" lon="14.3388899"><ele>81.66666666666667</ele><time>2026-05-03T14:13:07Z</time></trkpt><trkpt lat="38.0089445" lon="14.3387179"><ele>80.33333333333333</ele><time>2026-05-03T14:13:08Z</time></trkpt><trkpt lat="38.0090887" lon="14.3385637"><ele>79.0</ele><time>2026-05-03T14:13:09Z</time></trkpt><trkpt lat="38.0092479" lon="14.3384184"><ele>79.0</ele><time>2026-05-03T14:13:10Z</time></trkpt><trkpt lat="38.0094168" lon="14.3382777"><ele>79.0</ele><time>2026-05-03T14:13:11Z</time></trkpt><trkpt lat="38.0095965" lon="14.3381415"><ele>79.0</ele><time>2026-05-03T14:13:12Z</time></trkpt><trkpt lat="38.0097808" lon="14.3380115"><ele>81.0</ele><time>2026-05-03T14:13:13Z</time></trkpt><trkpt lat="38.0099684" lon="14.3378782"><ele>83.0</ele><time>2026-05-03T14:13:14Z</time></trkpt><trkpt lat="38.0101545" lon="14.3377505"><ele>85.0</ele><time>2026-05-03T14:13:15Z</time></trkpt><trkpt lat="38.0103384" lon="14.3376173"><ele>85.0</ele><time>2026-05-03T14:13:16Z</time></trkpt><trkpt lat="38.0105212" lon="14.3374898"><ele>85.0</ele><time>2026-05-03T14:13:17Z</time></trkpt><trkpt lat="38.0107037" lon="14.3373571"><ele>85.0</ele><time>2026-05-03T14:13:18Z</time></trkpt><trkpt lat="38.01088" lon="14.3372227"><ele>85.0</ele><time>2026-05-03T14:13:19Z</time></trkpt><trkpt lat="38.0110508" lon="14.3370751"><ele>85.0</ele><time>2026-05-03T14:13:20Z</time></trkpt><trkpt lat="38.0112125" lon="14.3369103"><ele>85.0</ele><time>2026-05-03T14:13:21Z</time></trkpt><trkpt lat="38.011355" lon="14.3367302"><ele>85.0</ele><time>2026-05-03T14:13:22Z</time></trkpt><trkpt lat="38.0114778" lon="14.3365262"><ele>85.0</ele><time>2026-05-03T14:13:23Z</time></trkpt><trkpt lat="38.0115746" lon="14.3363142"><ele>85.0</ele><time>2026-05-03T14:13:24Z</time></trkpt><trkpt lat="38.0116394" lon="14.3360966"><ele>84.66666666666666</ele><time>2026-05-03T14:13:25Z</time></trkpt><trkpt lat="38.0116707" lon="14.3358681"><ele>84.33333333333333</ele><time>2026-05-03T14:13:26Z</time></trkpt><trkpt lat="38.0116743" lon="14.3356345"><ele>84.0</ele><time>2026-05-03T14:13:27Z</time></trkpt><trkpt lat="38.0116422" lon="14.3354051"><ele>84.0</ele><time>2026-05-03T14:13:28Z</time></trkpt><trkpt lat="38.0115839" lon="14.3351776"><ele>84.0</ele><time>2026-05-03T14:13:28.999Z</time></trkpt><trkpt lat="38.011497" lon="14.334963"><ele>84.0</ele><time>2026-05-03T14:13:30Z</time></trkpt><trkpt lat="38.0113964" lon="14.3347531"><ele>85.33333333333333</ele><time>2026-05-03T14:13:31Z</time></trkpt><trkpt lat="38.0112722" lon="14.3345522"><ele>86.66666666666666</ele><time>2026-05-03T14:13:32Z</time></trkpt><trkpt lat="38.0111329" lon="14.3343548"><ele>88.0</ele><time>2026-05-03T14:13:33Z</time></trkpt><trkpt lat="38.0109835" lon="14.3341643"><ele>88.0</ele><time>2026-05-03T14:13:34Z</time></trkpt><trkpt lat="38.0108329" lon="14.3339773"><ele>88.0</ele><time>2026-05-03T14:13:35Z</time></trkpt><trkpt lat="38.0106847" lon="14.3337878"><ele>88.0</ele><time>2026-05-03T14:13:36Z</time></trkpt><trkpt lat="38.0105326" lon="14.3335965"><ele>94.0</ele><time>2026-05-03T14:13:37Z</time></trkpt><trkpt lat="38.0103818" lon="14.3334096"><ele>100.0</ele><time>2026-05-03T14:13:38Z</time></trkpt><trkpt lat="38.0102246" lon="14.3332266"><ele>106.0</ele><time>2026-05-03T14:13:39Z</time></trkpt><trkpt lat="38.0100633" lon="14.333058"><ele>107.66666666666667</ele><time>2026-05-03T14:13:40Z</time></trkpt><trkpt lat="38.0098936" lon="14.332901"><ele>109.33333333333334</ele><time>2026-05-03T14:13:41Z</time></trkpt><trkpt lat="38.0097118" lon="14.3327616"><ele>111.0</ele><time>2026-05-03T14:13:42Z</time></trkpt><trkpt lat="38.009525" lon="14.332634"><ele>111.0</ele><time>2026-05-03T14:13:43Z</time></trkpt><trkpt lat="38.0093399" lon="14.3325245"><ele>111.0</ele><time>2026-05-03T14:13:44Z</time></trkpt><trkpt lat="38.0091334" lon="14.3324736"><ele>111.0</ele><time>2026-05-03T14:13:45Z</time></trkpt><trkpt lat="38.008933" lon="14.3324448"><ele>116.0</ele><time>2026-05-03T14:13:46Z</time></trkpt><trkpt lat="38.0087293" lon="14.332462"><ele>121.0</ele><time>2026-05-03T14:13:47Z</time></trkpt><trkpt lat="38.0085251" lon="14.3325133"><ele>126.0</ele><time>2026-05-03T14:13:48Z</time></trkpt><trkpt lat="38.0083216" lon="14.3325911"><ele>132.33333333333334</ele><time>2026-05-03T14:13:49Z</time></trkpt><trkpt lat="38.0081179" lon="14.3326905"><ele>138.66666666666669</ele><time>2026-05-03T14:13:50Z</time></trkpt><trkpt lat="38.0079217" lon="14.3328092"><ele>145.0</ele><time>2026-05-03T14:13:51Z</time></trkpt><trkpt lat="38.0077273" lon="14.3329485"><ele>143.5</ele><time>2026-05-03T14:13:52Z</time></trkpt><trkpt lat="38.0075336" lon="14.3330987"><ele>142.0</ele><time>2026-05-03T14:13:53Z</time></trkpt><trkpt lat="38.0073368" lon="14.333256"><ele>153.5</ele><time>2026-05-03T14:13:54Z</time></trkpt><trkpt lat="38.0071287" lon="14.3334172"><ele>165.0</ele><time>2026-05-03T14:13:55Z</time></trkpt><trkpt lat="38.0069196" lon="14.3335817"><ele>165.0</ele><time>2026-05-03T14:13:56Z</time></trkpt><trkpt lat="38.006709" lon="14.3337539"><ele>165.0</ele><time>2026-05-03T14:13:57Z</time></trkpt><trkpt lat="38.0064942" lon="14.3339257"><ele>179.5</ele><time>2026-05-03T14:13:58Z</time></trkpt><trkpt lat="38.006283" lon="14.334094"><ele>194.0</ele><time>2026-05-03T14:13:59Z</time></trkpt><trkpt lat="38.0022436" lon="14.33742"><ele>198.5</ele><time>2026-05-03T14:14:19Z</time></trkpt><trkpt lat="38.0020656" lon="14.3376013"><ele>203.0</ele><time>2026-05-03T14:14:20Z</time></trkpt><trkpt lat="38.0018877" lon="14.3377825"><ele>196.0</ele><time>2026-05-03T14:14:21Z</time></trkpt><trkpt lat="38.0003997" lon="14.3406468"><ele>196.0</ele><time>2026-05-03T14:14:32Z</time></trkpt><trkpt lat="38.0002814" lon="14.3409236"><ele>196.0</ele><time>2026-05-03T14:14:33Z</time></trkpt><trkpt lat="38.0001448" lon="14.3411788"><ele>188.5</ele><time>2026-05-03T14:14:34Z</time></trkpt><trkpt lat="38.0000298" lon="14.3414428"><ele>181.0</ele><time>2026-05-03T14:14:35Z</time></trkpt><trkpt lat="37.9999219" lon="14.3416882"><ele>181.0</ele><time>2026-05-03T14:14:36Z</time></trkpt><trkpt lat="37.9998302" lon="14.3419286"><ele>181.0</ele><time>2026-05-03T14:14:37Z</time></trkpt><trkpt lat="37.9997417" lon="14.3421708"><ele>181.0</ele><time>2026-05-03T14:14:38Z</time></trkpt><trkpt lat="37.9996473" lon="14.3423725"><ele>176.66666666666669</ele><time>2026-05-03T14:14:39Z</time></trkpt><trkpt lat="37.9995434" lon="14.3425353"><ele>172.33333333333334</ele><time>2026-05-03T14:14:40Z</time></trkpt><trkpt lat="37.9993961" lon="14.3426567"><ele>168.0</ele><time>2026-05-03T14:14:41Z</time></trkpt><trkpt lat="37.9992242" lon="14.3427435"><ele>179.0</ele><time>2026-05-03T14:14:42Z</time></trkpt><trkpt lat="37.9990337" lon="14.3428049"><ele>190.0</ele><time>2026-05-03T14:14:43Z</time></trkpt><trkpt lat="37.9988267" lon="14.3428682"><ele>201.0</ele><time>2026-05-03T14:14:44Z</time></trkpt><trkpt lat="37.9986134" lon="14.3429662"><ele>200.0</ele><time>2026-05-03T14:14:45Z</time></trkpt><trkpt lat="37.9984051" lon="14.3431052"><ele>199.0</ele><time>2026-05-03T14:14:46Z</time></trkpt><trkpt lat="37.9982072" lon="14.3432532"><ele>199.0</ele><time>2026-05-03T14:14:47Z</time></trkpt><trkpt lat="37.998013" lon="14.3434092"><ele>199.0</ele><time>2026-05-03T14:14:48Z</time></trkpt><trkpt lat="37.9978171" lon="14.3435635"><ele>199.0</ele><time>2026-05-03T14:14:49Z</time></trkpt><trkpt lat="37.9976424" lon="14.3437077"><ele>199.0</ele><time>2026-05-03T14:14:50Z</time></trkpt><trkpt lat="37.9974869" lon="14.3438261"><ele>199.0</ele><time>2026-05-03T14:14:51Z</time></trkpt><trkpt lat="37.9973439" lon="14.3439143"><ele>198.0</ele><time>2026-05-03T14:14:52Z</time></trkpt><trkpt lat="37.9972089" lon="14.3439371"><ele>197.0</ele><time>2026-05-03T14:14:53Z</time></trkpt><trkpt lat="37.9970724" lon="14.3439052"><ele>196.0</ele><time>2026-05-03T14:14:54Z</time></trkpt><trkpt lat="37.9969292" lon="14.3438174"><ele>195.0</ele><time>2026-05-03T14:14:55Z</time></trkpt><trkpt lat="37.9967767" lon="14.3436999"><ele>208.33333333333331</ele><time>2026-05-03T14:14:56Z</time></trkpt><trkpt lat="37.9966046" lon="14.3435971"><ele>221.66666666666666</ele><time>2026-05-03T14:14:57Z</time></trkpt><trkpt lat="37.9964171" lon="14.3435218"><ele>235.0</ele><time>2026-05-03T14:14:58Z</time></trkpt><trkpt lat="37.9961799" lon="14.3435304"><ele>235.0</ele><time>2026-05-03T14:14:59Z</time></trkpt><trkpt lat="37.9959646" lon="14.3435329"><ele>235.0</ele><time>2026-05-03T14:15:00Z</time></trkpt><trkpt lat="37.995755" lon="14.3435305"><ele>235.0</ele><time>2026-05-03T14:15:01Z</time></trkpt><trkpt lat="37.9955624" lon="14.3435487"><ele>235.0</ele><time>2026-05-03T14:15:02Z</time></trkpt><trkpt lat="37.9953774" lon="14.3436082"><ele>235.0</ele><time>2026-05-03T14:15:03Z</time></trkpt><trkpt lat="37.9952063" lon="14.3437139"><ele>235.0</ele><time>2026-05-03T14:15:04Z</time></trkpt><trkpt lat="37.9950668" lon="14.3438546"><ele>233.33333333333331</ele><time>2026-05-03T14:15:05Z</time></trkpt><trkpt lat="37.9949577" lon="14.3440361"><ele>231.66666666666669</ele><time>2026-05-03T14:15:06Z</time></trkpt><trkpt lat="37.9948752" lon="14.3442509"><ele>230.0</ele><time>2026-05-03T14:15:07Z</time></trkpt><trkpt lat="37.9948278" lon="14.3444881"><ele>230.0</ele><time>2026-05-03T14:15:08Z</time></trkpt><trkpt lat="37.9947919" lon="14.3447059"><ele>230.0</ele><time>2026-05-03T14:15:09Z</time></trkpt><trkpt lat="37.9947499" lon="14.3448809"><ele>230.0</ele><time>2026-05-03T14:15:10Z</time></trkpt><trkpt lat="37.9946777" lon="14.3450183"><ele>226.5</ele><time>2026-05-03T14:15:11Z</time></trkpt><trkpt lat="37.9945834" lon="14.3451063"><ele>223.0</ele><time>2026-05-03T14:15:12Z</time></trkpt><trkpt lat="37.9944661" lon="14.3451462"><ele>219.5</ele><time>2026-05-03T14:15:13Z</time></trkpt><trkpt lat="37.9943507" lon="14.345111"><ele>216.0</ele><time>2026-05-03T14:15:14Z</time></trkpt><trkpt lat="37.994232" lon="14.3450132"><ele>222.66666666666669</ele><time>2026-05-03T14:15:15Z</time></trkpt><trkpt lat="37.9940988" lon="14.3448851"><ele>229.33333333333334</ele><time>2026-05-03T14:15:16Z</time></trkpt><trkpt lat="37.9939268" lon="14.3447669"><ele>236.0</ele><time>2026-05-03T14:15:17Z</time></trkpt><trkpt lat="37.9937423" lon="14.3446528"><ele>246.66666666666669</ele><time>2026-05-03T14:15:18Z</time></trkpt><trkpt lat="37.9935471" lon="14.3445602"><ele>257.3333333333333</ele><time>2026-05-03T14:15:19Z</time></trkpt><trkpt lat="37.9933477" lon="14.3444777"><ele>268.0</ele><time>2026-05-03T14:15:20Z</time></trkpt><trkpt lat="37.9931386" lon="14.3444117"><ele>269.3333333333333</ele><time>2026-05-03T14:15:21Z</time></trkpt><trkpt lat="37.9929207" lon="14.3443742"><ele>270.6666666666667</ele><time>2026-05-03T14:15:22Z</time></trkpt><trkpt lat="37.9926992" lon="14.3443411"><ele>272.0</ele><time>2026-05-03T14:15:23Z</time></trkpt><trkpt lat="37.9924818" lon="14.3442996"><ele>269.33333333333337</ele><time>2026-05-03T14:15:24Z</time></trkpt><trkpt lat="37.9922763" lon="14.344256"><ele>266.6666666666667</ele><time>2026-05-03T14:15:25Z</time></trkpt><trkpt lat="37.9920892" lon="14.3441821"><ele>264.0</ele><time>2026-05-03T14:15:26Z</time></trkpt><trkpt lat="37.9919151" lon="14.3441257"><ele>264.0</ele><time>2026-05-03T14:15:27Z</time></trkpt><trkpt lat="37.991751" lon="14.3441364"><ele>264.0</ele><time>2026-05-03T14:15:28Z</time></trkpt><trkpt lat="37.9915886" lon="14.3441864"><ele>264.0</ele><time>2026-05-03T14:15:29Z</time></trkpt><trkpt lat="37.9914162" lon="14.3442375"><ele>263.3333333333333</ele><time>2026-05-03T14:15:30Z</time></trkpt><trkpt lat="37.9912251" lon="14.3442769"><ele>262.66666666666663</ele><time>2026-05-03T14:15:31Z</time></trkpt><trkpt lat="37.9910446" lon="14.3442941"><ele>262.0</ele><time>2026-05-03T14:15:32Z</time></trkpt><trkpt lat="37.990876" lon="14.3442884"><ele>262.5</ele><time>2026-05-03T14:15:33Z</time></trkpt><trkpt lat="37.9907301" lon="14.3442465"><ele>263.0</ele><time>2026-05-03T14:15:34Z</time></trkpt><trkpt lat="37.9906046" lon="14.3441684"><ele>263.5</ele><time>2026-05-03T14:15:35Z</time></trkpt><trkpt lat="37.9904995" lon="14.3440199"><ele>264.0</ele><time>2026-05-03T14:15:36Z</time></trkpt><trkpt lat="37.9903999" lon="14.3438467"><ele>268.3333333333333</ele><time>2026-05-03T14:15:37Z</time></trkpt><trkpt lat="37.9902583" lon="14.3436808"><ele>272.66666666666663</ele><time>2026-05-03T14:15:38Z</time></trkpt><trkpt lat="37.9900861" lon="14.3435223"><ele>277.0</ele><time>2026-05-03T14:15:39Z</time></trkpt><trkpt lat="37.9899075" lon="14.3433683"><ele>277.0</ele><time>2026-05-03T14:15:40Z</time></trkpt><trkpt lat="37.9897285" lon="14.3431764"><ele>277.0</ele><time>2026-05-03T14:15:41Z</time></trkpt><trkpt lat="37.9895639" lon="14.3429564"><ele>288.5</ele><time>2026-05-03T14:15:42Z</time></trkpt><trkpt lat="37.989398" lon="14.3427354"><ele>300.0</ele><time>2026-05-03T14:15:43Z</time></trkpt><trkpt lat="37.9892339" lon="14.3425145"><ele>299.0</ele><time>2026-05-03T14:15:44Z</time></trkpt><trkpt lat="37.9890702" lon="14.3422924"><ele>298.0</ele><time>2026-05-03T14:15:45Z</time></trkpt><trkpt lat="37.9882419" lon="14.3409649"><ele>298.0</ele><time>2026-05-03T14:15:51Z</time></trkpt><trkpt lat="37.9880857" lon="14.340774"><ele>298.0</ele><time>2026-05-03T14:15:52Z</time></trkpt><trkpt lat="37.9879073" lon="14.3405917"><ele>298.0</ele><time>2026-05-03T14:15:53Z</time></trkpt><trkpt lat="37.9877301" lon="14.3404364"><ele>300.66666666666663</ele><time>2026-05-03T14:15:54Z</time></trkpt><trkpt lat="37.9875473" lon="14.3403145"><ele>303.3333333333333</ele><time>2026-05-03T14:15:55Z</time></trkpt><trkpt lat="37.9873672" lon="14.3402186"><ele>306.0</ele><time>2026-05-03T14:15:56Z</time></trkpt><trkpt lat="37.9871812" lon="14.3401348"><ele>306.0</ele><time>2026-05-03T14:15:57Z</time></trkpt><trkpt lat="37.986997" lon="14.3400452"><ele>306.0</ele><time>2026-05-03T14:15:58Z</time></trkpt><trkpt lat="37.9868281" lon="14.339931"><ele>306.0</ele><time>2026-05-03T14:15:59Z</time></trkpt><trkpt lat="37.9866675" lon="14.3398077"><ele>314.6666666666667</ele><time>2026-05-03T14:16:00Z</time></trkpt><trkpt lat="37.9865208" lon="14.3396558"><ele>323.33333333333337</ele><time>2026-05-03T14:16:01Z</time></trkpt><trkpt lat="37.9863866" lon="14.3394871"><ele>332.0</ele><time>2026-05-03T14:16:02Z</time></trkpt><trkpt lat="37.9862578" lon="14.3393065"><ele>332.0</ele><time>2026-05-03T14:16:03Z</time></trkpt><trkpt lat="37.9861223" lon="14.3391349"><ele>332.0</ele><time>2026-05-03T14:16:04Z</time></trkpt><trkpt lat="37.9859804" lon="14.339"><ele>332.0</ele><time>2026-05-03T14:16:05Z</time></trkpt><trkpt lat="37.9858246" lon="14.3388969"><ele>332.33333333333337</ele><time>2026-05-03T14:16:06Z</time></trkpt><trkpt lat="37.9856555" lon="14.3388291"><ele>332.6666666666667</ele><time>2026-05-03T14:16:07Z</time></trkpt><trkpt lat="37.9854733" lon="14.33881"><ele>333.0</ele><time>2026-05-03T14:16:08Z</time></trkpt><trkpt lat="37.9852857" lon="14.3388178"><ele>333.0</ele><time>2026-05-03T14:16:09Z</time></trkpt><trkpt lat="37.9850961" lon="14.3388628"><ele>333.0</ele><time>2026-05-03T14:16:10Z</time></trkpt><trkpt lat="37.9849085" lon="14.3389423"><ele>333.0</ele><time>2026-05-03T14:16:11Z</time></trkpt><trkpt lat="37.9847318" lon="14.3390538"><ele>326.3333333333333</ele><time>2026-05-03T14:16:12Z</time></trkpt><trkpt lat="37.9845581" lon="14.3391831"><ele>319.66666666666663</ele><time>2026-05-03T14:16:13Z</time></trkpt><trkpt lat="37.9843858" lon="14.339315"><ele>313.0</ele><time>2026-05-03T14:16:14Z</time></trkpt><trkpt lat="37.9842182" lon="14.3394427"><ele>311.66666666666663</ele><time>2026-05-03T14:16:15Z</time></trkpt><trkpt lat="37.9840472" lon="14.3395543"><ele>310.3333333333333</ele><time>2026-05-03T14:16:15.999Z</time></trkpt><trkpt lat="37.9838867" lon="14.3396797"><ele>309.0</ele><time>2026-05-03T14:16:17Z</time></trkpt><trkpt lat="37.9837252" lon="14.339819"><ele>309.0</ele><time>2026-05-03T14:16:18Z</time></trkpt><trkpt lat="37.9835891" lon="14.3399877"><ele>309.0</ele><time>2026-05-03T14:16:19Z</time></trkpt><trkpt lat="37.9834645" lon="14.3401766"><ele>309.0</ele><time>2026-05-03T14:16:20Z</time></trkpt><trkpt lat="37.9833567" lon="14.3403854"><ele>312.3333333333333</ele><time>2026-05-03T14:16:21Z</time></trkpt><trkpt lat="37.9832576" lon="14.3405973"><ele>315.66666666666663</ele><time>2026-05-03T14:16:22Z</time></trkpt><trkpt lat="37.983157" lon="14.3408124"><ele>319.0</ele><time>2026-05-03T14:16:22.999Z</time></trkpt><trkpt lat="37.983057" lon="14.3410292"><ele>319.0</ele><time>2026-05-03T14:16:24Z</time></trkpt><trkpt lat="37.982952" lon="14.3412415"><ele>319.0</ele><time>2026-05-03T14:16:25Z</time></trkpt><trkpt lat="37.9828496" lon="14.3414666"><ele>319.0</ele><time>2026-05-03T14:16:26Z</time></trkpt><trkpt lat="37.9827417" lon="14.3416934"><ele>315.0</ele><time>2026-05-03T14:16:27Z</time></trkpt><trkpt lat="37.9826331" lon="14.3419248"><ele>311.0</ele><time>2026-05-03T14:16:28Z</time></trkpt><trkpt lat="37.9825253" lon="14.3421531"><ele>307.0</ele><time>2026-05-03T14:16:29Z</time></trkpt><trkpt lat="37.9824246" lon="14.3423649"><ele>318.0</ele><time>2026-05-03T14:16:30Z</time></trkpt><trkpt lat="37.9823269" lon="14.3425445"><ele>329.0</ele><time>2026-05-03T14:16:31Z</time></trkpt><trkpt lat="37.9822199" lon="14.3426858"><ele>340.0</ele><time>2026-05-03T14:16:32Z</time></trkpt><trkpt lat="37.9821014" lon="14.3427587"><ele>340.0</ele><time>2026-05-03T14:16:33Z</time></trkpt><trkpt lat="37.9819718" lon="14.3427725"><ele>340.0</ele><time>2026-05-03T14:16:34Z</time></trkpt><trkpt lat="37.9818413" lon="14.3427148"><ele>340.0</ele><time>2026-05-03T14:16:35Z</time></trkpt><trkpt lat="37.981717" lon="14.3425848"><ele>340.0</ele><time>2026-05-03T14:16:36Z</time></trkpt><trkpt lat="37.9815944" lon="14.342405"><ele>356.0</ele><time>2026-05-03T14:16:37Z</time></trkpt><trkpt lat="37.9814621" lon="14.3421908"><ele>372.0</ele><time>2026-05-03T14:16:38Z</time></trkpt><trkpt lat="37.9813137" lon="14.3419489"><ele>372.0</ele><time>2026-05-03T14:16:39Z</time></trkpt><trkpt lat="37.9811689" lon="14.3417161"><ele>372.0</ele><time>2026-05-03T14:16:40Z</time></trkpt><trkpt lat="37.9810151" lon="14.3414921"><ele>375.0</ele><time>2026-05-03T14:16:41Z</time></trkpt><trkpt lat="37.9808472" lon="14.3412914"><ele>378.0</ele><time>2026-05-03T14:16:42Z</time></trkpt><trkpt lat="37.9806672" lon="14.3411128"><ele>378.0</ele><time>2026-05-03T14:16:43Z</time></trkpt><trkpt lat="37.9804767" lon="14.3409421"><ele>378.0</ele><time>2026-05-03T14:16:44Z</time></trkpt><trkpt lat="37.9802871" lon="14.3407804"><ele>378.0</ele><time>2026-05-03T14:16:45Z</time></trkpt><trkpt lat="37.9800976" lon="14.3406239"><ele>378.0</ele><time>2026-05-03T14:16:46Z</time></trkpt><trkpt lat="37.9799052" lon="14.3404569"><ele>383.0</ele><time>2026-05-03T14:16:47Z</time></trkpt><trkpt lat="37.979725" lon="14.3403054"><ele>388.0</ele><time>2026-05-03T14:16:48Z</time></trkpt><trkpt lat="37.9795529" lon="14.3401589"><ele>393.0</ele><time>2026-05-03T14:16:49Z</time></trkpt><trkpt lat="37.9793958" lon="14.3399741"><ele>393.0</ele><time>2026-05-03T14:16:50Z</time></trkpt><trkpt lat="37.9792427" lon="14.3397436"><ele>393.0</ele><time>2026-05-03T14:16:51Z</time></trkpt><trkpt lat="37.9791022" lon="14.3394969"><ele>391.0</ele><time>2026-05-03T14:16:52Z</time></trkpt><trkpt lat="37.9789852" lon="14.3392609"><ele>389.0</ele><time>2026-05-03T14:16:52.999Z</time></trkpt><trkpt lat="37.978862" lon="14.3390514"><ele>387.0</ele><time>2026-05-03T14:16:54Z</time></trkpt><trkpt lat="37.9787305" lon="14.3388549"><ele>386.66666666666663</ele><time>2026-05-03T14:16:55Z</time></trkpt><trkpt lat="37.9785859" lon="14.3387026"><ele>386.3333333333333</ele><time>2026-05-03T14:16:56Z</time></trkpt><trkpt lat="37.9784321" lon="14.3385865"><ele>386.0</ele><time>2026-05-03T14:16:57Z</time></trkpt><trkpt lat="37.978266" lon="14.3385177"><ele>386.0</ele><time>2026-05-03T14:16:58Z</time></trkpt><trkpt lat="37.9780896" lon="14.338515"><ele>386.0</ele><time>2026-05-03T14:16:59Z</time></trkpt><trkpt lat="37.9779121" lon="14.3385646"><ele>386.0</ele><time>2026-05-03T14:17:00Z</time></trkpt><trkpt lat="37.977737" lon="14.3386722"><ele>386.0</ele><time>2026-05-03T14:17:01Z</time></trkpt><trkpt lat="37.9775563" lon="14.3388101"><ele>386.0</ele><time>2026-05-03T14:17:02Z</time></trkpt><trkpt lat="37.9773749" lon="14.3389516"><ele>386.0</ele><time>2026-05-03T14:17:03Z</time></trkpt><trkpt lat="37.977192" lon="14.3391072"><ele>385.3333333333333</ele><time>2026-05-03T14:17:04Z</time></trkpt><trkpt lat="37.9770305" lon="14.3392905"><ele>384.66666666666663</ele><time>2026-05-03T14:17:05Z</time></trkpt><trkpt lat="37.9769042" lon="14.3395028"><ele>384.0</ele><time>2026-05-03T14:17:06Z</time></trkpt><trkpt lat="37.9768106" lon="14.3397426"><ele>373.5</ele><time>2026-05-03T14:17:07Z</time></trkpt><trkpt lat="37.9767507" lon="14.3400184"><ele>363.0</ele><time>2026-05-03T14:17:08Z</time></trkpt><trkpt lat="37.9767111" lon="14.3403113"><ele>377.5</ele><time>2026-05-03T14:17:09Z</time></trkpt><trkpt lat="37.9766719" lon="14.3406071"><ele>392.0</ele><time>2026-05-03T14:17:10Z</time></trkpt><trkpt lat="37.9766161" lon="14.3408958"><ele>392.0</ele><time>2026-05-03T14:17:11Z</time></trkpt><trkpt lat="37.9765375" lon="14.3411693"><ele>392.0</ele><time>2026-05-03T14:17:12Z</time></trkpt><trkpt lat="37.9764456" lon="14.34139"><ele>392.0</ele><time>2026-05-03T14:17:13Z</time></trkpt><trkpt lat="37.9763279" lon="14.3416029"><ele>388.0</ele><time>2026-05-03T14:17:14Z</time></trkpt><trkpt lat="37.9761945" lon="14.3418059"><ele>384.0</ele><time>2026-05-03T14:17:15Z</time></trkpt><trkpt lat="37.9760551" lon="14.3420099"><ele>380.0</ele><time>2026-05-03T14:17:16Z</time></trkpt><trkpt lat="37.9759165" lon="14.3422062"><ele>388.0</ele><time>2026-05-03T14:17:17Z</time></trkpt><trkpt lat="37.9757751" lon="14.3423859"><ele>396.0</ele><time>2026-05-03T14:17:18Z</time></trkpt><trkpt lat="37.9756147" lon="14.3425394"><ele>404.0</ele><time>2026-05-03T14:17:19Z</time></trkpt><trkpt lat="37.9754316" lon="14.3426698"><ele>404.0</ele><time>2026-05-03T14:17:20Z</time></trkpt><trkpt lat="37.9752265" lon="14.3427785"><ele>404.0</ele><time>2026-05-03T14:17:21Z</time></trkpt><trkpt lat="37.9750055" lon="14.3428824"><ele>408.3333333333333</ele><time>2026-05-03T14:17:22Z</time></trkpt><trkpt lat="37.9748004" lon="14.3429669"><ele>412.66666666666663</ele><time>2026-05-03T14:17:23Z</time></trkpt><trkpt lat="37.9746036" lon="14.3430132"><ele>417.0</ele><time>2026-05-03T14:17:24Z</time></trkpt><trkpt lat="37.9744062" lon="14.3430225"><ele>417.0</ele><time>2026-05-03T14:17:25Z</time></trkpt><trkpt lat="37.9742242" lon="14.3429952"><ele>417.0</ele><time>2026-05-03T14:17:26Z</time></trkpt><trkpt lat="37.9740639" lon="14.342935"><ele>417.0</ele><time>2026-05-03T14:17:27Z</time></trkpt><trkpt lat="37.9739174" lon="14.3428558"><ele>420.25</ele><time>2026-05-03T14:17:28Z</time></trkpt><trkpt lat="37.9737875" lon="14.342802"><ele>423.5</ele><time>2026-05-03T14:17:29Z</time></trkpt><trkpt lat="37.9736618" lon="14.3427646"><ele>426.75</ele><time>2026-05-03T14:17:30Z</time></trkpt><trkpt lat="37.9735417" lon="14.3427384"><ele>430.0</ele><time>2026-05-03T14:17:31Z</time></trkpt><trkpt lat="37.9734315" lon="14.3427381"><ele>430.8</ele><time>2026-05-03T14:17:32Z</time></trkpt><trkpt lat="37.9733274" lon="14.3427527"><ele>431.6</ele><time>2026-05-03T14:17:33Z</time></trkpt><trkpt lat="37.9732365" lon="14.3427818"><ele>432.4</ele><time>2026-05-03T14:17:34Z</time></trkpt><trkpt lat="37.9731513" lon="14.3428237"><ele>433.2</ele><time>2026-05-03T14:17:35Z</time></trkpt><trkpt lat="37.9730769" lon="14.3428618"><ele>434.0</ele><time>2026-05-03T14:17:36Z</time></trkpt><trkpt lat="37.9729983" lon="14.3428967"><ele>433.99999999999994</ele><time>2026-05-03T14:17:37Z</time></trkpt><trkpt lat="37.9729234" lon="14.3429387"><ele>434.0</ele><time>2026-05-03T14:17:38Z</time></trkpt><trkpt lat="37.9728527" lon="14.3429859"><ele>434.0</ele><time>2026-05-03T14:17:39Z</time></trkpt><trkpt lat="37.9727861" lon="14.3430455"><ele>434.0</ele><time>2026-05-03T14:17:40Z</time></trkpt><trkpt lat="37.972725" lon="14.3431041"><ele>433.99999999999994</ele><time>2026-05-03T14:17:41Z</time></trkpt><trkpt lat="37.972655" lon="14.3431576"><ele>434.0</ele><time>2026-05-03T14:17:42Z</time></trkpt><trkpt lat="37.9725782" lon="14.3431952"><ele>433.2</ele><time>2026-05-03T14:17:43Z</time></trkpt><trkpt lat="37.9724863" lon="14.343255"><ele>432.4</ele><time>2026-05-03T14:17:44Z</time></trkpt><trkpt lat="37.9723863" lon="14.3433173"><ele>431.6</ele><time>2026-05-03T14:17:45Z</time></trkpt><trkpt lat="37.9722908" lon="14.3433748"><ele>430.8</ele><time>2026-05-03T14:17:46Z</time></trkpt><trkpt lat="37.9722009" lon="14.3434416"><ele>430.0</ele><time>2026-05-03T14:17:47Z</time></trkpt><trkpt lat="37.9721059" lon="14.3434825"><ele>430.0</ele><time>2026-05-03T14:17:48Z</time></trkpt><trkpt lat="37.9720112" lon="14.3435164"><ele>430.0</ele><time>2026-05-03T14:17:49Z</time></trkpt><trkpt lat="37.971905" lon="14.3435358"><ele>430.0</ele><time>2026-05-03T14:17:50Z</time></trkpt><trkpt lat="37.9717927" lon="14.3435576"><ele>430.0</ele><time>2026-05-03T14:17:51Z</time></trkpt><trkpt lat="37.971676" lon="14.34358"><ele>430.0</ele><time>2026-05-03T14:17:52Z</time></trkpt><trkpt lat="37.971576" lon="14.343602"><ele>432.1666666666667</ele><time>2026-05-03T14:17:53Z</time></trkpt><trkpt lat="37.9714787" lon="14.3436187"><ele>434.33333333333337</ele><time>2026-05-03T14:17:54Z</time></trkpt><trkpt lat="37.9713867" lon="14.3436208"><ele>436.5</ele><time>2026-05-03T14:17:55Z</time></trkpt><trkpt lat="37.9713079" lon="14.3436064"><ele>438.66666666666663</ele><time>2026-05-03T14:17:56Z</time></trkpt><trkpt lat="37.9712327" lon="14.3435881"><ele>440.8333333333333</ele><time>2026-05-03T14:17:57Z</time></trkpt><trkpt lat="37.9711539" lon="14.3436025"><ele>443.0</ele><time>2026-05-03T14:17:58Z</time></trkpt><trkpt lat="37.9710814" lon="14.3436544"><ele>443.0</ele><time>2026-05-03T14:17:59Z</time></trkpt><trkpt lat="37.971022" lon="14.3437479"><ele>442.99999999999994</ele><time>2026-05-03T14:18:00Z</time></trkpt><trkpt lat="37.9709727" lon="14.3438579"><ele>442.99999999999994</ele><time>2026-05-03T14:18:01Z</time></trkpt><trkpt lat="37.9709254" lon="14.3439773"><ele>443.0</ele><time>2026-05-03T14:18:02Z</time></trkpt><trkpt lat="37.9708857" lon="14.3440909"><ele>443.0</ele><time>2026-05-03T14:18:03Z</time></trkpt><trkpt lat="37.9708432" lon="14.3442066"><ele>443.4</ele><time>2026-05-03T14:18:04Z</time></trkpt><trkpt lat="37.9708025" lon="14.3443276"><ele>443.79999999999995</ele><time>2026-05-03T14:18:05Z</time></trkpt><trkpt lat="37.9707648" lon="14.3444511"><ele>444.2</ele><time>2026-05-03T14:18:06Z</time></trkpt><trkpt lat="37.9707371" lon="14.3445746"><ele>444.6</ele><time>2026-05-03T14:18:07Z</time></trkpt><trkpt lat="37.9707094" lon="14.3446943"><ele>445.0</ele><time>2026-05-03T14:18:08Z</time></trkpt><trkpt lat="37.9706615" lon="14.3447995"><ele>442.6</ele><time>2026-05-03T14:18:09Z</time></trkpt><trkpt lat="37.9705913" lon="14.344873"><ele>440.2</ele><time>2026-05-03T14:18:10Z</time></trkpt><trkpt lat="37.9705033" lon="14.3449425"><ele>437.79999999999995</ele><time>2026-05-03T14:18:11Z</time></trkpt><trkpt lat="37.9704183" lon="14.3450226"><ele>435.4</ele><time>2026-05-03T14:18:12Z</time></trkpt><trkpt lat="37.9703398" lon="14.3451234"><ele>433.0</ele><time>2026-05-03T14:18:13Z</time></trkpt><trkpt lat="37.9702765" lon="14.345231"><ele>433.00000000000006</ele><time>2026-05-03T14:18:14Z</time></trkpt><trkpt lat="37.9702169" lon="14.3453249"><ele>433.0</ele><time>2026-05-03T14:18:15Z</time></trkpt><trkpt lat="37.9701524" lon="14.3453888"><ele>433.0</ele><time>2026-05-03T14:18:16Z</time></trkpt><trkpt lat="37.9700781" lon="14.3454254"><ele>433.0</ele><time>2026-05-03T14:18:17Z</time></trkpt><trkpt lat="37.9700134" lon="14.345413"><ele>433.00000000000006</ele><time>2026-05-03T14:18:18Z</time></trkpt><trkpt lat="37.9699575" lon="14.3453506"><ele>433.0</ele><time>2026-05-03T14:18:19Z</time></trkpt><trkpt lat="37.9699316" lon="14.3452601"><ele>433.0</ele><time>2026-05-03T14:18:20Z</time></trkpt><trkpt lat="37.9699377" lon="14.3451539"><ele>432.99999999999994</ele><time>2026-05-03T14:18:21Z</time></trkpt><trkpt lat="37.9699682" lon="14.3450586"><ele>432.99999999999994</ele><time>2026-05-03T14:18:22Z</time></trkpt><trkpt lat="37.9700243" lon="14.3449583"><ele>433.0</ele><time>2026-05-03T14:18:23Z</time></trkpt><trkpt lat="37.970093" lon="14.3448416"><ele>433.0</ele><time>2026-05-03T14:18:24Z</time></trkpt><trkpt lat="37.970156" lon="14.3447048"><ele>436.0</ele><time>2026-05-03T14:18:25Z</time></trkpt><trkpt lat="37.9702178" lon="14.3445562"><ele>439.0</ele><time>2026-05-03T14:18:26Z</time></trkpt><trkpt lat="37.9702743" lon="14.3444126"><ele>442.0</ele><time>2026-05-03T14:18:27Z</time></trkpt><trkpt lat="37.9703345" lon="14.3442621"><ele>445.0</ele><time>2026-05-03T14:18:28Z</time></trkpt><trkpt lat="37.9703902" lon="14.3440919"><ele>445.0</ele><time>2026-05-03T14:18:29Z</time></trkpt><trkpt lat="37.9704286" lon="14.3439179"><ele>445.0</ele><time>2026-05-03T14:18:30Z</time></trkpt><trkpt lat="37.9704492" lon="14.3437347"><ele>445.0</ele><time>2026-05-03T14:18:31Z</time></trkpt><trkpt lat="37.9704632" lon="14.3435591"><ele>445.0</ele><time>2026-05-03T14:18:32Z</time></trkpt><trkpt lat="37.9704678" lon="14.3433925"><ele>446.75</ele><time>2026-05-03T14:18:33Z</time></trkpt><trkpt lat="37.9704779" lon="14.343231"><ele>448.5</ele><time>2026-05-03T14:18:34Z</time></trkpt><trkpt lat="37.9705014" lon="14.343071"><ele>450.25</ele><time>2026-05-03T14:18:35Z</time></trkpt><trkpt lat="37.9705451" lon="14.3429247"><ele>452.0</ele><time>2026-05-03T14:18:36Z</time></trkpt><trkpt lat="37.9706082" lon="14.3427964"><ele>454.25</ele><time>2026-05-03T14:18:37Z</time></trkpt><trkpt lat="37.9706912" lon="14.3426873"><ele>456.5</ele><time>2026-05-03T14:18:38Z</time></trkpt><trkpt lat="37.9708057" lon="14.3425765"><ele>458.75</ele><time>2026-05-03T14:18:39Z</time></trkpt><trkpt lat="37.970946" lon="14.3424468"><ele>461.0</ele><time>2026-05-03T14:18:40Z</time></trkpt><trkpt lat="37.9711169" lon="14.3423019"><ele>466.66666666666663</ele><time>2026-05-03T14:18:41Z</time></trkpt><trkpt lat="37.9712907" lon="14.3421666"><ele>472.33333333333337</ele><time>2026-05-03T14:18:42Z</time></trkpt><trkpt lat="37.9714367" lon="14.3420384"><ele>478.0</ele><time>2026-05-03T14:18:43Z</time></trkpt><trkpt lat="37.9715733" lon="14.3419224"><ele>474.0</ele><time>2026-05-03T14:18:44Z</time></trkpt><trkpt lat="37.9717034" lon="14.3418064"><ele>470.0</ele><time>2026-05-03T14:18:45Z</time></trkpt><trkpt lat="37.9718023" lon="14.3417218"><ele>466.0</ele><time>2026-05-03T14:18:46Z</time></trkpt><trkpt lat="37.9719062" lon="14.3416436"><ele>462.0</ele><time>2026-05-03T14:18:47Z</time></trkpt><trkpt lat="37.9720007" lon="14.3415768"><ele>462.0</ele><time>2026-05-03T14:18:48Z</time></trkpt><trkpt lat="37.9720828" lon="14.3415215"><ele>462.0</ele><time>2026-05-03T14:18:49Z</time></trkpt><trkpt lat="37.9721478" lon="14.341458"><ele>462.0</ele><time>2026-05-03T14:18:50Z</time></trkpt><trkpt lat="37.972198" lon="14.3413934"><ele>462.0</ele><time>2026-05-03T14:18:51Z</time></trkpt><trkpt lat="37.9722226" lon="14.3413081"><ele>462.0</ele><time>2026-05-03T14:18:52Z</time></trkpt><trkpt lat="37.9722185" lon="14.3412149"><ele>462.0</ele><time>2026-05-03T14:18:53Z</time></trkpt><trkpt lat="37.9721888" lon="14.3411245"><ele>466.0</ele><time>2026-05-03T14:18:54Z</time></trkpt><trkpt lat="37.9721256" lon="14.3410638"><ele>470.00000000000006</ele><time>2026-05-03T14:18:54.999Z</time></trkpt><trkpt lat="37.9720398" lon="14.3410451"><ele>474.00000000000006</ele><time>2026-05-03T14:18:56Z</time></trkpt><trkpt lat="37.9719488" lon="14.3410769"><ele>478.0</ele><time>2026-05-03T14:18:57Z</time></trkpt><trkpt lat="37.9718605" lon="14.3411555"><ele>482.0</ele><time>2026-05-03T14:18:58Z</time></trkpt><trkpt lat="37.9717621" lon="14.3412431"><ele>480.66666666666663</ele><time>2026-05-03T14:18:59Z</time></trkpt><trkpt lat="37.9716356" lon="14.3413578"><ele>479.33333333333337</ele><time>2026-05-03T14:19:00Z</time></trkpt><trkpt lat="37.9714709" lon="14.3414778"><ele>478.0</ele><time>2026-05-03T14:19:01Z</time></trkpt><trkpt lat="37.9712526" lon="14.3415816"><ele>478.0</ele><time>2026-05-03T14:19:02Z</time></trkpt><trkpt lat="37.9710269" lon="14.3416948"><ele>478.0</ele><time>2026-05-03T14:19:03Z</time></trkpt><trkpt lat="37.9707832" lon="14.3418122"><ele>484.33333333333337</ele><time>2026-05-03T14:19:04Z</time></trkpt><trkpt lat="37.9705724" lon="14.3419286"><ele>490.66666666666663</ele><time>2026-05-03T14:19:05Z</time></trkpt><trkpt lat="37.9703745" lon="14.3420346"><ele>497.0</ele><time>2026-05-03T14:19:06Z</time></trkpt><trkpt lat="37.9701886" lon="14.3421388"><ele>493.3333333333333</ele><time>2026-05-03T14:19:07Z</time></trkpt><trkpt lat="37.9700186" lon="14.3422286"><ele>489.66666666666663</ele><time>2026-05-03T14:19:08Z</time></trkpt><trkpt lat="37.9698446" lon="14.3422822"><ele>486.0</ele><time>2026-05-03T14:19:09Z</time></trkpt><trkpt lat="37.969666" lon="14.3423004"><ele>486.0</ele><time>2026-05-03T14:19:10Z</time></trkpt><trkpt lat="37.9694804" lon="14.3422794"><ele>486.0</ele><time>2026-05-03T14:19:11Z</time></trkpt><trkpt lat="37.9692917" lon="14.3422187"><ele>486.0</ele><time>2026-05-03T14:19:12Z</time></trkpt><trkpt lat="37.9690954" lon="14.3421087"><ele>499.33333333333337</ele><time>2026-05-03T14:19:13Z</time></trkpt><trkpt lat="37.9689123" lon="14.3419902"><ele>512.6666666666667</ele><time>2026-05-03T14:19:14Z</time></trkpt><trkpt lat="37.9687583" lon="14.3418535"><ele>526.0</ele><time>2026-05-03T14:19:15Z</time></trkpt><trkpt lat="37.9686219" lon="14.3416976"><ele>526.0</ele><time>2026-05-03T14:19:16Z</time></trkpt><trkpt lat="37.9685055" lon="14.341507"><ele>526.0</ele><time>2026-05-03T14:19:17Z</time></trkpt><trkpt lat="37.9684098" lon="14.3412874"><ele>526.0</ele><time>2026-05-03T14:19:18Z</time></trkpt><trkpt lat="37.968348" lon="14.3410389"><ele>523.3333333333334</ele><time>2026-05-03T14:19:19Z</time></trkpt><trkpt lat="37.9683131" lon="14.3407961"><ele>520.6666666666666</ele><time>2026-05-03T14:19:20Z</time></trkpt><trkpt lat="37.9682716" lon="14.3405653"><ele>518.0</ele><time>2026-05-03T14:19:21Z</time></trkpt><trkpt lat="37.9682178" lon="14.3403409"><ele>523.6666666666666</ele><time>2026-05-03T14:19:22Z</time></trkpt><trkpt lat="37.9680941" lon="14.3401711"><ele>529.3333333333334</ele><time>2026-05-03T14:19:23Z</time></trkpt><trkpt lat="37.9679459" lon="14.3400233"><ele>535.0</ele><time>2026-05-03T14:19:24Z</time></trkpt><trkpt lat="37.9677745" lon="14.3399074"><ele>535.0</ele><time>2026-05-03T14:19:25Z</time></trkpt><trkpt lat="37.9676031" lon="14.339805"><ele>535.0</ele><time>2026-05-03T14:19:26Z</time></trkpt><trkpt lat="37.9674592" lon="14.3396697"><ele>535.0</ele><time>2026-05-03T14:19:27Z</time></trkpt><trkpt lat="37.9673333" lon="14.3395169"><ele>538.3333333333334</ele><time>2026-05-03T14:19:28Z</time></trkpt><trkpt lat="37.9672094" lon="14.3393691"><ele>541.6666666666666</ele><time>2026-05-03T14:19:29Z</time></trkpt><trkpt lat="37.9670955" lon="14.3392192"><ele>545.0</ele><time>2026-05-03T14:19:30Z</time></trkpt><trkpt lat="37.9669757" lon="14.3390186"><ele>538.3333333333333</ele><time>2026-05-03T14:19:31Z</time></trkpt><trkpt lat="37.9668526" lon="14.3388367"><ele>531.6666666666666</ele><time>2026-05-03T14:19:32Z</time></trkpt><trkpt lat="37.9667234" lon="14.3386753"><ele>525.0</ele><time>2026-05-03T14:19:33Z</time></trkpt><trkpt lat="37.9665451" lon="14.3384219"><ele>525.0</ele><time>2026-05-03T14:19:34Z</time></trkpt><trkpt lat="37.9663917" lon="14.3382321"><ele>525.0</ele><time>2026-05-03T14:19:35Z</time></trkpt><trkpt lat="37.9664848" lon="14.3377711"><ele>530.0</ele><time>2026-05-03T14:19:35.999Z</time></trkpt><trkpt lat="37.9665324" lon="14.3375956"><ele>535.0</ele><time>2026-05-03T14:19:37Z</time></trkpt><trkpt lat="37.966494" lon="14.3374739"><ele>540.0</ele><time>2026-05-03T14:19:38Z</time></trkpt><trkpt lat="37.9664561" lon="14.337352"><ele>545.0</ele><time>2026-05-03T14:19:39Z</time></trkpt><trkpt lat="37.9664202" lon="14.3372601"><ele>550.0</ele><time>2026-05-03T14:19:41Z</time></trkpt><trkpt lat="37.9664143" lon="14.3371733"><ele>553.1666666666667</ele><time>2026-05-03T14:19:44Z</time></trkpt><trkpt lat="37.9663797" lon="14.3370861"><ele>556.3333333333334</ele><time>2026-05-03T14:21:29Z</time></trkpt><trkpt lat="37.9663526" lon="14.3370125"><ele>559.5</ele><time>2026-05-03T14:21:30Z</time></trkpt><trkpt lat="37.96632" lon="14.3369174"><ele>562.6666666666666</ele><time>2026-05-03T14:21:31Z</time></trkpt><trkpt lat="37.9662768" lon="14.3368072"><ele>565.8333333333333</ele><time>2026-05-03T14:21:32Z</time></trkpt><trkpt lat="37.966217" lon="14.3366681"><ele>569.0</ele><time>2026-05-03T14:21:33Z</time></trkpt><trkpt lat="37.9661329" lon="14.3365115"><ele>564.0</ele><time>2026-05-03T14:21:34Z</time></trkpt><trkpt lat="37.9660358" lon="14.3363633"><ele>559.0</ele><time>2026-05-03T14:21:35Z</time></trkpt><trkpt lat="37.9659299" lon="14.3362421"><ele>554.0</ele><time>2026-05-03T14:21:36Z</time></trkpt><trkpt lat="37.965799" lon="14.3361267"><ele>554.0</ele><time>2026-05-03T14:21:37Z</time></trkpt><trkpt lat="37.9656413" lon="14.3360342"><ele>554.0</ele><time>2026-05-03T14:21:38Z</time></trkpt><trkpt lat="37.9654691" lon="14.3359743"><ele>554.0</ele><time>2026-05-03T14:21:39Z</time></trkpt><trkpt lat="37.9652896" lon="14.3359416"><ele>554.0</ele><time>2026-05-03T14:21:40Z</time></trkpt><trkpt lat="37.9651122" lon="14.3359527"><ele>554.0</ele><time>2026-05-03T14:21:41Z</time></trkpt><trkpt lat="37.9649393" lon="14.3359945"><ele>554.0</ele><time>2026-05-03T14:21:42Z</time></trkpt><trkpt lat="37.9647709" lon="14.3360689"><ele>553.3333333333333</ele><time>2026-05-03T14:21:42.999Z</time></trkpt><trkpt lat="37.9646147" lon="14.3361756"><ele>552.6666666666666</ele><time>2026-05-03T14:21:44Z</time></trkpt><trkpt lat="37.9644784" lon="14.3363178"><ele>552.0</ele><time>2026-05-03T14:21:45Z</time></trkpt><trkpt lat="37.9643432" lon="14.3364606"><ele>554.3333333333334</ele><time>2026-05-03T14:21:46Z</time></trkpt><trkpt lat="37.9642379" lon="14.3366435"><ele>556.6666666666667</ele><time>2026-05-03T14:21:47Z</time></trkpt><trkpt lat="37.9641268" lon="14.3368034"><ele>559.0</ele><time>2026-05-03T14:21:48Z</time></trkpt><trkpt lat="37.9640141" lon="14.3369372"><ele>559.0</ele><time>2026-05-03T14:21:49Z</time></trkpt><trkpt lat="37.9638825" lon="14.33705"><ele>559.0</ele><time>2026-05-03T14:21:50Z</time></trkpt><trkpt lat="37.9637517" lon="14.337159"><ele>559.0</ele><time>2026-05-03T14:21:51Z</time></trkpt><trkpt lat="37.9635873" lon="14.3372354"><ele>558.3333333333334</ele><time>2026-05-03T14:21:52Z</time></trkpt><trkpt lat="37.9634279" lon="14.3373203"><ele>557.6666666666666</ele><time>2026-05-03T14:21:53Z</time></trkpt><trkpt lat="37.9632636" lon="14.3373928"><ele>557.0</ele><time>2026-05-03T14:21:54Z</time></trkpt><trkpt lat="37.9630821" lon="14.3374285"><ele>557.0</ele><time>2026-05-03T14:21:55Z</time></trkpt><trkpt lat="37.9628967" lon="14.3374532"><ele>557.0</ele><time>2026-05-03T14:21:56Z</time></trkpt><trkpt lat="37.9626835" lon="14.3374354"><ele>557.0</ele><time>2026-05-03T14:21:57Z</time></trkpt><trkpt lat="37.9624245" lon="14.3373817"><ele>556.5</ele><time>2026-05-03T14:21:58Z</time></trkpt><trkpt lat="37.9622143" lon="14.3373084"><ele>556.0</ele><time>2026-05-03T14:21:59Z</time></trkpt><trkpt lat="37.9619475" lon="14.3372728"><ele>571.5</ele><time>2026-05-03T14:22:00Z</time></trkpt><trkpt lat="37.961822" lon="14.3370472"><ele>587.0</ele><time>2026-05-03T14:22:01Z</time></trkpt><trkpt lat="37.9616642" lon="14.3367453"><ele>587.0</ele><time>2026-05-03T14:22:02Z</time></trkpt><trkpt lat="37.9615121" lon="14.3366557"><ele>587.0</ele><time>2026-05-03T14:22:03Z</time></trkpt><trkpt lat="37.9613254" lon="14.3367144"><ele>587.0</ele><time>2026-05-03T14:22:04Z</time></trkpt><trkpt lat="37.961156" lon="14.3367872"><ele>587.0</ele><time>2026-05-03T14:22:05Z</time></trkpt><trkpt lat="37.9609863" lon="14.3369055"><ele>587.0</ele><time>2026-05-03T14:22:06Z</time></trkpt><trkpt lat="37.9608411" lon="14.337053"><ele>587.0</ele><time>2026-05-03T14:22:07Z</time></trkpt><trkpt lat="37.9607214" lon="14.3372203"><ele>584.0</ele><time>2026-05-03T14:22:08Z</time></trkpt><trkpt lat="37.9606355" lon="14.3374381"><ele>581.0</ele><time>2026-05-03T14:22:09Z</time></trkpt><trkpt lat="37.9605763" lon="14.3376965"><ele>578.0</ele><time>2026-05-03T14:22:10Z</time></trkpt><trkpt lat="37.9605458" lon="14.3379894"><ele>577.0</ele><time>2026-05-03T14:22:11Z</time></trkpt><trkpt lat="37.9604931" lon="14.3382814"><ele>576.0</ele><time>2026-05-03T14:22:12Z</time></trkpt><trkpt lat="37.9604187" lon="14.3385494"><ele>576.0</ele><time>2026-05-03T14:22:13Z</time></trkpt><trkpt lat="37.9603423" lon="14.3387935"><ele>576.0</ele><time>2026-05-03T14:22:14Z</time></trkpt><trkpt lat="37.9603119" lon="14.3390562"><ele>576.0</ele><time>2026-05-03T14:22:15Z</time></trkpt><trkpt lat="37.9603203" lon="14.3393572"><ele>576.0</ele><time>2026-05-03T14:22:16Z</time></trkpt><trkpt lat="37.9603623" lon="14.3396748"><ele>576.0</ele><time>2026-05-03T14:22:17Z</time></trkpt><trkpt lat="37.9603879" lon="14.3399792"><ele>577.0</ele><time>2026-05-03T14:22:18Z</time></trkpt><trkpt lat="37.9603859" lon="14.340271"><ele>578.0</ele><time>2026-05-03T14:22:19Z</time></trkpt><trkpt lat="37.9603676" lon="14.3405648"><ele>575.5</ele><time>2026-05-03T14:22:20Z</time></trkpt><trkpt lat="37.9603198" lon="14.3408655"><ele>573.0</ele><time>2026-05-03T14:22:21Z</time></trkpt><trkpt lat="37.9602401" lon="14.3411905"><ele>566.0</ele><time>2026-05-03T14:22:22Z</time></trkpt><trkpt lat="37.9601316" lon="14.3415175"><ele>559.0</ele><time>2026-05-03T14:22:23Z</time></trkpt><trkpt lat="37.9600343" lon="14.3418705"><ele>579.0</ele><time>2026-05-03T14:22:24Z</time></trkpt><trkpt lat="37.9599617" lon="14.342223"><ele>599.0</ele><time>2026-05-03T14:22:25Z</time></trkpt><trkpt lat="37.9598995" lon="14.3425518"><ele>599.0</ele><time>2026-05-03T14:22:26Z</time></trkpt><trkpt lat="37.9598353" lon="14.3428575"><ele>599.0</ele><time>2026-05-03T14:22:27Z</time></trkpt><trkpt lat="37.9597368" lon="14.3431269"><ele>598.3333333333333</ele><time>2026-05-03T14:22:28Z</time></trkpt><trkpt lat="37.9596456" lon="14.343396"><ele>597.6666666666666</ele><time>2026-05-03T14:22:29Z</time></trkpt><trkpt lat="37.9595627" lon="14.343647"><ele>597.0</ele><time>2026-05-03T14:22:30Z</time></trkpt><trkpt lat="37.9594235" lon="14.3438695"><ele>618.0</ele><time>2026-05-03T14:22:31Z</time></trkpt><trkpt lat="37.9590975" lon="14.3438439"><ele>639.0</ele><time>2026-05-03T14:22:32Z</time></trkpt><trkpt lat="37.9588624" lon="14.3438275"><ele>639.0</ele><time>2026-05-03T14:22:33Z</time></trkpt><trkpt lat="37.9586419" lon="14.3438327"><ele>639.0</ele><time>2026-05-03T14:22:34Z</time></trkpt><trkpt lat="37.9584276" lon="14.343784"><ele>639.0</ele><time>2026-05-03T14:22:35Z</time></trkpt><trkpt lat="37.9582086" lon="14.3436656"><ele>637.0</ele><time>2026-05-03T14:22:36Z</time></trkpt><trkpt lat="37.9579967" lon="14.343534"><ele>635.0</ele><time>2026-05-03T14:22:37Z</time></trkpt><trkpt lat="37.9577892" lon="14.3433747"><ele>635.0</ele><time>2026-05-03T14:22:38Z</time></trkpt><trkpt lat="37.9575769" lon="14.3432157"><ele>635.0</ele><time>2026-05-03T14:22:39Z</time></trkpt><trkpt lat="37.9573675" lon="14.3430496"><ele>645.0</ele><time>2026-05-03T14:22:40Z</time></trkpt><trkpt lat="37.9571663" lon="14.3428841"><ele>655.0</ele><time>2026-05-03T14:22:41Z</time></trkpt><trkpt lat="37.9569725" lon="14.3427256"><ele>655.0</ele><time>2026-05-03T14:22:42Z</time></trkpt><trkpt lat="37.9567811" lon="14.3425678"><ele>655.0</ele><time>2026-05-03T14:22:43Z</time></trkpt><trkpt lat="37.9566147" lon="14.3424423"><ele>655.0</ele><time>2026-05-03T14:22:44Z</time></trkpt><trkpt lat="37.9564235" lon="14.3423169"><ele>651.5</ele><time>2026-05-03T14:22:45Z</time></trkpt><trkpt lat="37.9561204" lon="14.3424285"><ele>648.0</ele><time>2026-05-03T14:22:46Z</time></trkpt><trkpt lat="37.9558926" lon="14.3424111"><ele>644.5</ele><time>2026-05-03T14:22:47Z</time></trkpt><trkpt lat="37.955672" lon="14.3423897"><ele>641.0</ele><time>2026-05-03T14:22:48Z</time></trkpt><trkpt lat="37.9554354" lon="14.3423322"><ele>641.0</ele><time>2026-05-03T14:22:49Z</time></trkpt><trkpt lat="37.9551977" lon="14.3422236"><ele>641.0</ele><time>2026-05-03T14:22:50Z</time></trkpt><trkpt lat="37.9549555" lon="14.3420782"><ele>650.5</ele><time>2026-05-03T14:22:51Z</time></trkpt><trkpt lat="37.9547191" lon="14.3419219"><ele>660.0</ele><time>2026-05-03T14:22:52Z</time></trkpt><trkpt lat="37.954493" lon="14.3417658"><ele>660.0</ele><time>2026-05-03T14:22:53Z</time></trkpt><trkpt lat="37.9542851" lon="14.3416284"><ele>660.0</ele><time>2026-05-03T14:22:54Z</time></trkpt><trkpt lat="37.9540873" lon="14.3414814"><ele>664.0</ele><time>2026-05-03T14:22:55Z</time></trkpt><trkpt lat="37.9539602" lon="14.3413079"><ele>668.0</ele><time>2026-05-03T14:22:56Z</time></trkpt><trkpt lat="37.9538408" lon="14.3411044"><ele>672.0</ele><time>2026-05-03T14:22:57Z</time></trkpt><trkpt lat="37.9537441" lon="14.3408671"><ele>672.0</ele><time>2026-05-03T14:22:58Z</time></trkpt><trkpt lat="37.9536526" lon="14.3406354"><ele>672.0</ele><time>2026-05-03T14:22:59Z</time></trkpt><trkpt lat="37.9535464" lon="14.3404215"><ele>672.0</ele><time>2026-05-03T14:23:00Z</time></trkpt><trkpt lat="37.9534211" lon="14.3402345"><ele>668.0</ele><time>2026-05-03T14:23:01Z</time></trkpt><trkpt lat="37.9532627" lon="14.3400897"><ele>664.0</ele><time>2026-05-03T14:23:02Z</time></trkpt><trkpt lat="37.9530671" lon="14.3399929"><ele>660.0</ele><time>2026-05-03T14:23:03Z</time></trkpt><trkpt lat="37.9528472" lon="14.3399263"><ele>660.0</ele><time>2026-05-03T14:23:04Z</time></trkpt><trkpt lat="37.9526136" lon="14.3398791"><ele>660.0</ele><time>2026-05-03T14:23:05Z</time></trkpt><trkpt lat="37.9523614" lon="14.3398806"><ele>661.0</ele><time>2026-05-03T14:23:06Z</time></trkpt><trkpt lat="37.9521067" lon="14.339899"><ele>662.0</ele><time>2026-05-03T14:23:07Z</time></trkpt><trkpt lat="37.9518557" lon="14.3399133"><ele>666.0</ele><time>2026-05-03T14:23:08Z</time></trkpt><trkpt lat="37.9516102" lon="14.3399345"><ele>670.0</ele><time>2026-05-03T14:23:09Z</time></trkpt><trkpt lat="37.9513691" lon="14.3399465"><ele>670.0</ele><time>2026-05-03T14:23:10Z</time></trkpt><trkpt lat="37.951131" lon="14.3399662"><ele>670.0</ele><time>2026-05-03T14:23:11Z</time></trkpt><trkpt lat="37.9508959" lon="14.3399865"><ele>674.0</ele><time>2026-05-03T14:23:12Z</time></trkpt><trkpt lat="37.9506617" lon="14.3399982"><ele>678.0</ele><time>2026-05-03T14:23:13Z</time></trkpt><trkpt lat="37.9504259" lon="14.3400102"><ele>678.0</ele><time>2026-05-03T14:23:14Z</time></trkpt><trkpt lat="37.9501978" lon="14.340018"><ele>678.0</ele><time>2026-05-03T14:23:15Z</time></trkpt><trkpt lat="37.9499776" lon="14.340036"><ele>678.0</ele><time>2026-05-03T14:23:16Z</time></trkpt><trkpt lat="37.9497602" lon="14.3400604"><ele>680.3333333333334</ele><time>2026-05-03T14:23:17Z</time></trkpt><trkpt lat="37.9495514" lon="14.3401082"><ele>682.6666666666667</ele><time>2026-05-03T14:23:18Z</time></trkpt><trkpt lat="37.9493653" lon="14.3402127"><ele>685.0</ele><time>2026-05-03T14:23:19Z</time></trkpt><trkpt lat="37.9491906" lon="14.3403613"><ele>687.0</ele><time>2026-05-03T14:23:20Z</time></trkpt><trkpt lat="37.9490338" lon="14.3405491"><ele>689.0</ele><time>2026-05-03T14:23:21Z</time></trkpt><trkpt lat="37.9489018" lon="14.3407669"><ele>691.0</ele><time>2026-05-03T14:23:22Z</time></trkpt><trkpt lat="37.9488052" lon="14.3410035"><ele>687.0</ele><time>2026-05-03T14:23:23Z</time></trkpt><trkpt lat="37.9487381" lon="14.3412436"><ele>683.0</ele><time>2026-05-03T14:23:24Z</time></trkpt><trkpt lat="37.948665" lon="14.341468"><ele>679.0</ele><time>2026-05-03T14:23:25Z</time></trkpt><trkpt lat="37.948563" lon="14.3416636"><ele>676.6666666666667</ele><time>2026-05-03T14:23:26Z</time></trkpt><trkpt lat="37.9484547" lon="14.3418559"><ele>674.3333333333334</ele><time>2026-05-03T14:23:27Z</time></trkpt><trkpt lat="37.9483123" lon="14.342025"><ele>672.0</ele><time>2026-05-03T14:23:28Z</time></trkpt><trkpt lat="37.9481791" lon="14.3421848"><ele>676.75</ele><time>2026-05-03T14:23:29Z</time></trkpt><trkpt lat="37.9480472" lon="14.3423041"><ele>681.5</ele><time>2026-05-03T14:23:30Z</time></trkpt><trkpt lat="37.9479082" lon="14.3423895"><ele>686.25</ele><time>2026-05-03T14:23:31Z</time></trkpt><trkpt lat="37.9477995" lon="14.3424477"><ele>691.0</ele><time>2026-05-03T14:23:32Z</time></trkpt><trkpt lat="37.9477195" lon="14.3424831"><ele>691.0</ele><time>2026-05-03T14:23:33Z</time></trkpt><trkpt lat="37.9476489" lon="14.3425168"><ele>691.0</ele><time>2026-05-03T14:23:35Z</time></trkpt><trkpt lat="37.9475352" lon="14.3425502"><ele>691.0</ele><time>2026-05-03T14:24:10Z</time></trkpt><trkpt lat="37.9474334" lon="14.3425634"><ele>691.0</ele><time>2026-05-03T14:24:11Z</time></trkpt><trkpt lat="37.9473023" lon="14.3425689"><ele>691.0</ele><time>2026-05-03T14:24:12Z</time></trkpt><trkpt lat="37.9471405" lon="14.3425484"><ele>698.0</ele><time>2026-05-03T14:24:13Z</time></trkpt><trkpt lat="37.9469609" lon="14.3425188"><ele>705.0</ele><time>2026-05-03T14:24:14Z</time></trkpt><trkpt lat="37.9467854" lon="14.34251"><ele>712.0</ele><time>2026-05-03T14:24:15Z</time></trkpt><trkpt lat="37.9466272" lon="14.3425345"><ele>713.3333333333334</ele><time>2026-05-03T14:24:16Z</time></trkpt><trkpt lat="37.9464797" lon="14.3425871"><ele>714.6666666666666</ele><time>2026-05-03T14:24:17Z</time></trkpt><trkpt lat="37.946339" lon="14.3426833"><ele>716.0</ele><time>2026-05-03T14:24:18Z</time></trkpt><trkpt lat="37.9462117" lon="14.3427958"><ele>716.0</ele><time>2026-05-03T14:24:19Z</time></trkpt><trkpt lat="37.9460912" lon="14.3429562"><ele>716.0</ele><time>2026-05-03T14:24:20Z</time></trkpt><trkpt lat="37.9459741" lon="14.3431522"><ele>716.0</ele><time>2026-05-03T14:24:21Z</time></trkpt><trkpt lat="37.9458549" lon="14.343368"><ele>716.3333333333333</ele><time>2026-05-03T14:24:22Z</time></trkpt><trkpt lat="37.9457295" lon="14.3435917"><ele>716.6666666666666</ele><time>2026-05-03T14:24:23Z</time></trkpt><trkpt lat="37.9455948" lon="14.3438326"><ele>717.0</ele><time>2026-05-03T14:24:24Z</time></trkpt><trkpt lat="37.9454608" lon="14.3440785"><ele>717.0</ele><time>2026-05-03T14:24:25Z</time></trkpt><trkpt lat="37.9453328" lon="14.3443206"><ele>717.0</ele><time>2026-05-03T14:24:26Z</time></trkpt><trkpt lat="37.9452098" lon="14.3445599"><ele>713.6666666666666</ele><time>2026-05-03T14:24:27Z</time></trkpt><trkpt lat="37.9450797" lon="14.3447791"><ele>710.3333333333333</ele><time>2026-05-03T14:24:28Z</time></trkpt><trkpt lat="37.9449598" lon="14.3449982"><ele>707.0</ele><time>2026-05-03T14:24:29Z</time></trkpt><trkpt lat="37.9448418" lon="14.345208"><ele>712.0</ele><time>2026-05-03T14:24:30Z</time></trkpt><trkpt lat="37.9447317" lon="14.3454228"><ele>717.0</ele><time>2026-05-03T14:24:31Z</time></trkpt><trkpt lat="37.9446303" lon="14.3456513"><ele>722.0</ele><time>2026-05-03T14:24:32Z</time></trkpt><trkpt lat="37.9445426" lon="14.345885"><ele>722.0</ele><time>2026-05-03T14:24:33Z</time></trkpt><trkpt lat="37.9444966" lon="14.3461311"><ele>722.0</ele><time>2026-05-03T14:24:34Z</time></trkpt><trkpt lat="37.944476" lon="14.3464037"><ele>722.0</ele><time>2026-05-03T14:24:35Z</time></trkpt><trkpt lat="37.9444832" lon="14.3466859"><ele>723.0</ele><time>2026-05-03T14:24:36Z</time></trkpt><trkpt lat="37.9445064" lon="14.3469766"><ele>724.0</ele><time>2026-05-03T14:24:37Z</time></trkpt><trkpt lat="37.9445262" lon="14.3472645"><ele>724.0</ele><time>2026-05-03T14:24:38Z</time></trkpt><trkpt lat="37.9445424" lon="14.3475485"><ele>724.0</ele><time>2026-05-03T14:24:39Z</time></trkpt><trkpt lat="37.9445204" lon="14.347815"><ele>724.0</ele><time>2026-05-03T14:24:40Z</time></trkpt><trkpt lat="37.9444931" lon="14.3480754"><ele>720.6666666666667</ele><time>2026-05-03T14:24:41Z</time></trkpt><trkpt lat="37.944441" lon="14.3483443"><ele>717.3333333333334</ele><time>2026-05-03T14:24:42Z</time></trkpt><trkpt lat="37.9443616" lon="14.3486035"><ele>714.0</ele><time>2026-05-03T14:24:43Z</time></trkpt><trkpt lat="37.9442467" lon="14.3488497"><ele>723.3333333333334</ele><time>2026-05-03T14:24:44Z</time></trkpt><trkpt lat="37.944114" lon="14.3490753"><ele>732.6666666666667</ele><time>2026-05-03T14:24:45Z</time></trkpt><trkpt lat="37.9439629" lon="14.3492833"><ele>742.0</ele><time>2026-05-03T14:24:46Z</time></trkpt><trkpt lat="37.9437911" lon="14.3494576"><ele>742.0</ele><time>2026-05-03T14:24:47Z</time></trkpt><trkpt lat="37.9436016" lon="14.3496033"><ele>742.0</ele><time>2026-05-03T14:24:48Z</time></trkpt><trkpt lat="37.9433993" lon="14.3497205"><ele>742.0</ele><time>2026-05-03T14:24:49Z</time></trkpt><trkpt lat="37.9431795" lon="14.3498094"><ele>746.0</ele><time>2026-05-03T14:24:50Z</time></trkpt><trkpt lat="37.9429718" lon="14.3498714"><ele>750.0</ele><time>2026-05-03T14:24:51Z</time></trkpt><trkpt lat="37.9427697" lon="14.3499572"><ele>754.0</ele><time>2026-05-03T14:24:52Z</time></trkpt><trkpt lat="37.9425792" lon="14.350069"><ele>761.6666666666667</ele><time>2026-05-03T14:24:53Z</time></trkpt><trkpt lat="37.9424053" lon="14.3502024"><ele>769.3333333333334</ele><time>2026-05-03T14:24:54Z</time></trkpt><trkpt lat="37.9422281" lon="14.3503356"><ele>777.0</ele><time>2026-05-03T14:24:55Z</time></trkpt><trkpt lat="37.942055" lon="14.3504702"><ele>772.5</ele><time>2026-05-03T14:24:56Z</time></trkpt><trkpt lat="37.9418501" lon="14.3507019"><ele>768.0</ele><time>2026-05-03T14:24:57Z</time></trkpt><trkpt lat="37.9417691" lon="14.3509833"><ele>768.0</ele><time>2026-05-03T14:24:58Z</time></trkpt><trkpt lat="37.9418484" lon="14.3513627"><ele>768.0</ele><time>2026-05-03T14:24:59Z</time></trkpt><trkpt lat="37.9417664" lon="14.3516527"><ele>770.5</ele><time>2026-05-03T14:25:00Z</time></trkpt><trkpt lat="37.9417206" lon="14.3519821"><ele>773.0</ele><time>2026-05-03T14:25:00.999Z</time></trkpt><trkpt lat="37.9416572" lon="14.35231"><ele>773.0</ele><time>2026-05-03T14:25:02Z</time></trkpt><trkpt lat="37.9416054" lon="14.3526544"><ele>773.0</ele><time>2026-05-03T14:25:03Z</time></trkpt><trkpt lat="37.9415573" lon="14.3530067"><ele>773.5</ele><time>2026-05-03T14:25:04Z</time></trkpt><trkpt lat="37.9415075" lon="14.3533573"><ele>774.0</ele><time>2026-05-03T14:25:05Z</time></trkpt><trkpt lat="37.9414588" lon="14.353707"><ele>774.5</ele><time>2026-05-03T14:25:06Z</time></trkpt><trkpt lat="37.9414095" lon="14.3540572"><ele>775.0</ele><time>2026-05-03T14:25:07Z</time></trkpt><trkpt lat="37.9413619" lon="14.3544035"><ele>776.5</ele><time>2026-05-03T14:25:07.999Z</time></trkpt><trkpt lat="37.9413167" lon="14.3547338"><ele>778.0</ele><time>2026-05-03T14:25:09Z</time></trkpt><trkpt lat="37.9412728" lon="14.3550399"><ele>778.0</ele><time>2026-05-03T14:25:10Z</time></trkpt><trkpt lat="37.941228" lon="14.355347"><ele>778.0</ele><time>2026-05-03T14:25:11Z</time></trkpt><trkpt lat="37.9411832" lon="14.3556335"><ele>775.0</ele><time>2026-05-03T14:25:12Z</time></trkpt><trkpt lat="37.9411366" lon="14.3558963"><ele>772.0</ele><time>2026-05-03T14:25:13Z</time></trkpt><trkpt lat="37.9410491" lon="14.3561372"><ele>769.0</ele><time>2026-05-03T14:25:14Z</time></trkpt><trkpt lat="37.9409331" lon="14.3563597"><ele>778.0</ele><time>2026-05-03T14:25:15Z</time></trkpt><trkpt lat="37.9407807" lon="14.3565432"><ele>787.0</ele><time>2026-05-03T14:25:16Z</time></trkpt><trkpt lat="37.94059" lon="14.3566915"><ele>796.0</ele><time>2026-05-03T14:25:17Z</time></trkpt><trkpt lat="37.9403668" lon="14.3568262"><ele>796.0</ele><time>2026-05-03T14:25:18Z</time></trkpt><trkpt lat="37.9401182" lon="14.3569508"><ele>796.0</ele><time>2026-05-03T14:25:19Z</time></trkpt><trkpt lat="37.9398641" lon="14.3570883"><ele>793.0</ele><time>2026-05-03T14:25:20Z</time></trkpt><trkpt lat="37.9396137" lon="14.357219"><ele>790.0</ele><time>2026-05-03T14:25:21Z</time></trkpt><trkpt lat="37.939359" lon="14.3573314"><ele>800.0</ele><time>2026-05-03T14:25:22Z</time></trkpt><trkpt lat="37.9391017" lon="14.3574053"><ele>810.0</ele><time>2026-05-03T14:25:23Z</time></trkpt><trkpt lat="37.9388624" lon="14.3574247"><ele>810.0</ele><time>2026-05-03T14:25:24Z</time></trkpt><trkpt lat="37.9386354" lon="14.357398"><ele>810.0</ele><time>2026-05-03T14:25:25Z</time></trkpt><trkpt lat="37.9384093" lon="14.3573189"><ele>820.5</ele><time>2026-05-03T14:25:26Z</time></trkpt><trkpt lat="37.9381927" lon="14.3571924"><ele>831.0</ele><time>2026-05-03T14:25:27Z</time></trkpt><trkpt lat="37.9379746" lon="14.3570452"><ele>831.0</ele><time>2026-05-03T14:25:28Z</time></trkpt><trkpt lat="37.9377454" lon="14.3569198"><ele>831.0</ele><time>2026-05-03T14:25:29Z</time></trkpt><trkpt lat="37.9375142" lon="14.3568104"><ele>830.0</ele><time>2026-05-03T14:25:30Z</time></trkpt><trkpt lat="37.9372721" lon="14.3567344"><ele>829.0</ele><time>2026-05-03T14:25:31Z</time></trkpt><trkpt lat="37.9370315" lon="14.3566838"><ele>829.0</ele><time>2026-05-03T14:25:32Z</time></trkpt><trkpt lat="37.9367867" lon="14.3566592"><ele>829.0</ele><time>2026-05-03T14:25:33Z</time></trkpt><trkpt lat="37.9365314" lon="14.3566358"><ele>833.0</ele><time>2026-05-03T14:25:34Z</time></trkpt><trkpt lat="37.9362784" lon="14.3566182"><ele>837.0</ele><time>2026-05-03T14:25:35Z</time></trkpt><trkpt lat="37.9360435" lon="14.3567223"><ele>833.0</ele><time>2026-05-03T14:25:36Z</time></trkpt><trkpt lat="37.9357576" lon="14.3569077"><ele>829.0</ele><time>2026-05-03T14:25:37Z</time></trkpt><trkpt lat="37.9354974" lon="14.3569792"><ele>829.0</ele><time>2026-05-03T14:25:38Z</time></trkpt><trkpt lat="37.9352366" lon="14.3570597"><ele>829.0</ele><time>2026-05-03T14:25:39Z</time></trkpt><trkpt lat="37.9349713" lon="14.3571458"><ele>826.0</ele><time>2026-05-03T14:25:40Z</time></trkpt><trkpt lat="37.9347125" lon="14.3572227"><ele>823.0</ele><time>2026-05-03T14:25:41Z</time></trkpt><trkpt lat="37.9344521" lon="14.3573085"><ele>835.0</ele><time>2026-05-03T14:25:42Z</time></trkpt><trkpt lat="37.9341964" lon="14.357389"><ele>847.0</ele><time>2026-05-03T14:25:43Z</time></trkpt><trkpt lat="37.9339413" lon="14.3574693"><ele>847.0</ele><time>2026-05-03T14:25:44Z</time></trkpt><trkpt lat="37.9337015" lon="14.357535"><ele>847.0</ele><time>2026-05-03T14:25:45Z</time></trkpt><trkpt lat="37.9334746" lon="14.357608"><ele>852.0</ele><time>2026-05-03T14:25:46Z</time></trkpt><trkpt lat="37.9332543" lon="14.3576712"><ele>857.0</ele><time>2026-05-03T14:25:47Z</time></trkpt><trkpt lat="37.9330384" lon="14.3577023"><ele>862.0</ele><time>2026-05-03T14:25:48Z</time></trkpt><trkpt lat="37.9328188" lon="14.3577203"><ele>862.0</ele><time>2026-05-03T14:25:49Z</time></trkpt><trkpt lat="37.9326002" lon="14.3577061"><ele>862.0</ele><time>2026-05-03T14:25:50Z</time></trkpt><trkpt lat="37.932384" lon="14.3576654"><ele>862.0</ele><time>2026-05-03T14:25:51Z</time></trkpt><trkpt lat="37.9321628" lon="14.3575974"><ele>865.0</ele><time>2026-05-03T14:25:52Z</time></trkpt><trkpt lat="37.9319459" lon="14.3575291"><ele>868.0</ele><time>2026-05-03T14:25:53Z</time></trkpt><trkpt lat="37.931729" lon="14.3574658"><ele>871.0</ele><time>2026-05-03T14:25:54Z</time></trkpt><trkpt lat="37.9300937" lon="14.3566974"><ele>869.75</ele><time>2026-05-03T14:26:02Z</time></trkpt><trkpt lat="37.9299522" lon="14.3566489"><ele>868.5</ele><time>2026-05-03T14:26:03Z</time></trkpt><trkpt lat="37.9298423" lon="14.3567239"><ele>867.25</ele><time>2026-05-03T14:26:04Z</time></trkpt><trkpt lat="37.9297507" lon="14.3568469"><ele>866.0</ele><time>2026-05-03T14:26:05Z</time></trkpt><trkpt lat="37.9296793" lon="14.3570044"><ele>866.0</ele><time>2026-05-03T14:26:06Z</time></trkpt><trkpt lat="37.9296424" lon="14.3571631"><ele>866.0</ele><time>2026-05-03T14:26:07Z</time></trkpt><trkpt lat="37.9296234" lon="14.3573269"><ele>866.0</ele><time>2026-05-03T14:26:08Z</time></trkpt><trkpt lat="37.9296212" lon="14.3574859"><ele>866.0</ele><time>2026-05-03T14:26:09Z</time></trkpt><trkpt lat="37.9296153" lon="14.357634"><ele>865.5</ele><time>2026-05-03T14:26:10Z</time></trkpt><trkpt lat="37.9296113" lon="14.3577823"><ele>865.0</ele><time>2026-05-03T14:26:11Z</time></trkpt><trkpt lat="37.9296121" lon="14.3579347"><ele>864.5</ele><time>2026-05-03T14:26:12Z</time></trkpt><trkpt lat="37.9296148" lon="14.3580806"><ele>864.0</ele><time>2026-05-03T14:26:13Z</time></trkpt><trkpt lat="37.9296236" lon="14.3582296"><ele>864.0</ele><time>2026-05-03T14:26:14Z</time></trkpt><trkpt lat="37.9296413" lon="14.3583696"><ele>864.0000000000001</ele><time>2026-05-03T14:26:15Z</time></trkpt><trkpt lat="37.9296723" lon="14.358508"><ele>864.0000000000001</ele><time>2026-05-03T14:26:16Z</time></trkpt><trkpt lat="37.929714" lon="14.3586291"><ele>864.0</ele><time>2026-05-03T14:26:17Z</time></trkpt><trkpt lat="37.9297647" lon="14.3587496"><ele>864.0</ele><time>2026-05-03T14:26:18Z</time></trkpt><trkpt lat="37.9298203" lon="14.3588438"><ele>864.4000000000001</ele><time>2026-05-03T14:26:19Z</time></trkpt><trkpt lat="37.9298733" lon="14.3589391"><ele>864.8000000000001</ele><time>2026-05-03T14:26:20Z</time></trkpt><trkpt lat="37.9299234" lon="14.3590376"><ele>865.1999999999999</ele><time>2026-05-03T14:26:21Z</time></trkpt><trkpt lat="37.9299705" lon="14.3591423"><ele>865.5999999999999</ele><time>2026-05-03T14:26:22Z</time></trkpt><trkpt lat="37.9300097" lon="14.3592462"><ele>866.0</ele><time>2026-05-03T14:26:23Z</time></trkpt><trkpt lat="37.9300608" lon="14.3593438"><ele>866.0000000000001</ele><time>2026-05-03T14:26:24Z</time></trkpt><trkpt lat="37.9301204" lon="14.3594284"><ele>866.0</ele><time>2026-05-03T14:26:24.999Z</time></trkpt><trkpt lat="37.9301924" lon="14.3594733"><ele>866.0</ele><time>2026-05-03T14:26:26Z</time></trkpt><trkpt lat="37.9302751" lon="14.3594738"><ele>866.0</ele><time>2026-05-03T14:26:27Z</time></trkpt><trkpt lat="37.9303642" lon="14.3594471"><ele>866.0000000000001</ele><time>2026-05-03T14:26:28Z</time></trkpt><trkpt lat="37.9304506" lon="14.359405"><ele>866.0</ele><time>2026-05-03T14:26:29Z</time></trkpt><trkpt lat="37.9305419" lon="14.3593669"><ele>866.0000000000001</ele><time>2026-05-03T14:26:30Z</time></trkpt><trkpt lat="37.9306263" lon="14.3593365"><ele>866.0</ele><time>2026-05-03T14:26:31Z</time></trkpt><trkpt lat="37.9306963" lon="14.359354"><ele>866.0</ele><time>2026-05-03T14:26:32Z</time></trkpt><trkpt lat="37.9307495" lon="14.3594095"><ele>866.0</ele><time>2026-05-03T14:26:33Z</time></trkpt><trkpt lat="37.9307831" lon="14.3594833"><ele>866.0000000000001</ele><time>2026-05-03T14:26:34Z</time></trkpt><trkpt lat="37.9307904" lon="14.359581"><ele>866.0</ele><time>2026-05-03T14:26:35Z</time></trkpt><trkpt lat="37.9307791" lon="14.35968"><ele>868.0000000000001</ele><time>2026-05-03T14:26:36Z</time></trkpt><trkpt lat="37.9307561" lon="14.3597655"><ele>870.0</ele><time>2026-05-03T14:26:37Z</time></trkpt><trkpt lat="37.9307049" lon="14.3598216"><ele>872.0</ele><time>2026-05-03T14:26:38Z</time></trkpt><trkpt lat="37.9306321" lon="14.3598668"><ele>874.0</ele><time>2026-05-03T14:26:39Z</time></trkpt><trkpt lat="37.9305356" lon="14.3598959"><ele>876.0000000000001</ele><time>2026-05-03T14:26:40Z</time></trkpt><trkpt lat="37.9304366" lon="14.3599369"><ele>878.0</ele><time>2026-05-03T14:26:41Z</time></trkpt><trkpt lat="37.9303253" lon="14.3599699"><ele>878.0</ele><time>2026-05-03T14:26:42Z</time></trkpt><trkpt lat="37.9302115" lon="14.3600085"><ele>878.0</ele><time>2026-05-03T14:26:43Z</time></trkpt><trkpt lat="37.9300983" lon="14.3600474"><ele>878.0</ele><time>2026-05-03T14:26:44Z</time></trkpt><trkpt lat="37.9299743" lon="14.3600865"><ele>878.0</ele><time>2026-05-03T14:26:45Z</time></trkpt><trkpt lat="37.9298644" lon="14.3601244"><ele>878.5999999999999</ele><time>2026-05-03T14:26:46Z</time></trkpt><trkpt lat="37.9297546" lon="14.3601629"><ele>879.1999999999999</ele><time>2026-05-03T14:26:47Z</time></trkpt><trkpt lat="37.9296584" lon="14.3601948"><ele>879.8</ele><time>2026-05-03T14:26:48Z</time></trkpt><trkpt lat="37.9295641" lon="14.3602406"><ele>880.4</ele><time>2026-05-03T14:26:49Z</time></trkpt><trkpt lat="37.9294847" lon="14.3603265"><ele>881.0</ele><time>2026-05-03T14:26:50Z</time></trkpt><trkpt lat="37.9294223" lon="14.3604154"><ele>881.0000000000001</ele><time>2026-05-03T14:26:51Z</time></trkpt><trkpt lat="37.9293723" lon="14.3604979"><ele>881.0</ele><time>2026-05-03T14:26:52Z</time></trkpt><trkpt lat="37.9293247" lon="14.3605672"><ele>881.0</ele><time>2026-05-03T14:26:53Z</time></trkpt><trkpt lat="37.9292857" lon="14.3606373"><ele>881.0</ele><time>2026-05-03T14:26:54Z</time></trkpt><trkpt lat="37.9292196" lon="14.3607354"><ele>881.0000000000001</ele><time>2026-05-03T14:26:56Z</time></trkpt><trkpt lat="37.9291072" lon="14.3607287"><ele>881.0</ele><time>2026-05-03T14:26:58Z</time></trkpt><trkpt lat="37.9290408" lon="14.3607246"><ele>883.0</ele><time>2026-05-03T14:26:59Z</time></trkpt><trkpt lat="37.9289507" lon="14.3607244"><ele>884.9999999999999</ele><time>2026-05-03T14:27:00Z</time></trkpt><trkpt lat="37.9288707" lon="14.3607433"><ele>886.9999999999999</ele><time>2026-05-03T14:27:01Z</time></trkpt><trkpt lat="37.9287574" lon="14.3607893"><ele>889.0</ele><time>2026-05-03T14:27:03Z</time></trkpt><trkpt lat="37.9286419" lon="14.3608509"><ele>891.0</ele><time>2026-05-03T14:27:05Z</time></trkpt><trkpt lat="37.9285829" lon="14.3608825"><ele>891.0</ele><time>2026-05-03T14:27:06Z</time></trkpt><trkpt lat="37.9285139" lon="14.360912"><ele>891.0</ele><time>2026-05-03T14:27:07Z</time></trkpt><trkpt lat="37.928439" lon="14.3609481"><ele>891.0</ele><time>2026-05-03T14:27:08Z</time></trkpt><trkpt lat="37.9283648" lon="14.3609895"><ele>891.0</ele><time>2026-05-03T14:27:09Z</time></trkpt><trkpt lat="37.9282827" lon="14.3610309"><ele>891.0</ele><time>2026-05-03T14:27:10Z</time></trkpt><trkpt lat="37.9282141" lon="14.3610768"><ele>891.0</ele><time>2026-05-03T14:27:10.999Z</time></trkpt><trkpt lat="37.9281544" lon="14.3611119"><ele>892.4</ele><time>2026-05-03T14:27:12Z</time></trkpt><trkpt lat="37.9280682" lon="14.3611823"><ele>893.8</ele><time>2026-05-03T14:27:14Z</time></trkpt><trkpt lat="37.9280689" lon="14.3612883"><ele>895.1999999999999</ele><time>2026-05-03T14:27:16Z</time></trkpt><trkpt lat="37.9281293" lon="14.3613795"><ele>896.5999999999999</ele><time>2026-05-03T14:27:18Z</time></trkpt><trkpt lat="37.9282534" lon="14.3614781"><ele>898.0</ele><time>2026-05-03T14:27:20Z</time></trkpt><trkpt lat="37.9283492" lon="14.3615614"><ele>899.0</ele><time>2026-05-03T14:27:21Z</time></trkpt><trkpt lat="37.9284345" lon="14.3616388"><ele>900.0</ele><time>2026-05-03T14:27:22Z</time></trkpt><trkpt lat="37.9285269" lon="14.3617195"><ele>901.0</ele><time>2026-05-03T14:27:23Z</time></trkpt><trkpt lat="37.9286117" lon="14.3617975"><ele>902.0</ele><time>2026-05-03T14:27:24Z</time></trkpt><trkpt lat="37.9286705" lon="14.3618587"><ele>903.0</ele><time>2026-05-03T14:27:25Z</time></trkpt><trkpt lat="37.9287278" lon="14.3619077"><ele>903.0</ele><time>2026-05-03T14:27:26Z</time></trkpt><trkpt lat="37.9288007" lon="14.3619254"><ele>903.0</ele><time>2026-05-03T14:27:27Z</time></trkpt><trkpt lat="37.9288673" lon="14.3619574"><ele>903.0</ele><time>2026-05-03T14:27:28Z</time></trkpt><trkpt lat="37.9289161" lon="14.3620216"><ele>903.0</ele><time>2026-05-03T14:27:29Z</time></trkpt><trkpt lat="37.9289719" lon="14.3620756"><ele>903.0</ele><time>2026-05-03T14:27:30Z</time></trkpt><trkpt lat="37.9290465" lon="14.3621357"><ele>903.0</ele><time>2026-05-03T14:27:31Z</time></trkpt><trkpt lat="37.9291066" lon="14.3621863"><ele>903.0</ele><time>2026-05-03T14:27:32Z</time></trkpt><trkpt lat="37.9291878" lon="14.362283"><ele>904.3333333333334</ele><time>2026-05-03T14:27:34Z</time></trkpt><trkpt lat="37.9292604" lon="14.3623625"><ele>905.6666666666667</ele><time>2026-05-03T14:27:36Z</time></trkpt><trkpt lat="37.9293122" lon="14.3624263"><ele>907.0</ele><time>2026-05-03T14:27:38Z</time></trkpt><trkpt lat="37.9293122" lon="14.3625269"><ele>908.3333333333334</ele><time>2026-05-03T14:27:40Z</time></trkpt><trkpt lat="37.9293222" lon="14.3626522"><ele>909.6666666666667</ele><time>2026-05-03T14:27:42Z</time></trkpt><trkpt lat="37.9293308" lon="14.3627512"><ele>911.0</ele><time>2026-05-03T14:27:44Z</time></trkpt><trkpt lat="37.9293137" lon="14.362831"><ele>910.8333333333334</ele><time>2026-05-03T14:27:46Z</time></trkpt><trkpt lat="37.9292188" lon="14.3628406"><ele>910.6666666666667</ele><time>2026-05-03T14:27:48Z</time></trkpt><trkpt lat="37.9291147" lon="14.3628678"><ele>910.5</ele><time>2026-05-03T14:27:50Z</time></trkpt><trkpt lat="37.9290342" lon="14.362878"><ele>910.3333333333333</ele><time>2026-05-03T14:27:52Z</time></trkpt><trkpt lat="37.9289611" lon="14.3628973"><ele>910.1666666666666</ele><time>2026-05-03T14:27:56Z</time></trkpt><trkpt lat="37.928922" lon="14.3629953"><ele>910.0</ele><time>2026-05-03T14:27:58Z</time></trkpt><trkpt lat="37.9288847" lon="14.3631169"><ele>909.8</ele><time>2026-05-03T14:28:00Z</time></trkpt><trkpt lat="37.9288335" lon="14.3632404"><ele>909.6</ele><time>2026-05-03T14:28:02Z</time></trkpt><trkpt lat="37.928777" lon="14.3633665"><ele>909.4000000000001</ele><time>2026-05-03T14:28:04Z</time></trkpt><trkpt lat="37.9287254" lon="14.3634893"><ele>909.2</ele><time>2026-05-03T14:28:06Z</time></trkpt><trkpt lat="37.9286816" lon="14.3636083"><ele>909.0</ele><time>2026-05-03T14:28:08Z</time></trkpt><trkpt lat="37.9286253" lon="14.3636982"><ele>909.0</ele><time>2026-05-03T14:28:10Z</time></trkpt><trkpt lat="37.9285561" lon="14.3637282"><ele>909.0</ele><time>2026-05-03T14:28:12Z</time></trkpt><trkpt lat="37.9284305" lon="14.3637309"><ele>909.0</ele><time>2026-05-03T14:28:14Z</time></trkpt><trkpt lat="37.9283637" lon="14.3637416"><ele>909.0</ele><time>2026-05-03T14:28:15Z</time></trkpt><trkpt lat="37.9282897" lon="14.363749"><ele>909.0</ele><time>2026-05-03T14:28:15.999Z</time></trkpt><trkpt lat="37.9282091" lon="14.3637468"><ele>909.0</ele><time>2026-05-03T14:28:17Z</time></trkpt><trkpt lat="37.9281357" lon="14.363741"><ele>910.3333333333334</ele><time>2026-05-03T14:28:18Z</time></trkpt><trkpt lat="37.9280613" lon="14.3637496"><ele>911.6666666666667</ele><time>2026-05-03T14:28:19Z</time></trkpt><trkpt lat="37.9279914" lon="14.3637529"><ele>913.0</ele><time>2026-05-03T14:28:20Z</time></trkpt><trkpt lat="37.9279216" lon="14.3637623"><ele>914.3333333333334</ele><time>2026-05-03T14:28:21Z</time></trkpt><trkpt lat="37.9278511" lon="14.3637767"><ele>915.6666666666667</ele><time>2026-05-03T14:28:22Z</time></trkpt><trkpt lat="37.9277837" lon="14.3637875"><ele>917.0</ele><time>2026-05-03T14:28:23Z</time></trkpt><trkpt lat="37.9276678" lon="14.3638154"><ele>917.0</ele><time>2026-05-03T14:28:25Z</time></trkpt><trkpt lat="37.9275661" lon="14.3638425"><ele>917.0</ele><time>2026-05-03T14:28:27Z</time></trkpt><trkpt lat="37.9274678" lon="14.3638872"><ele>917.0</ele><time>2026-05-03T14:28:29Z</time></trkpt><trkpt lat="37.9273772" lon="14.3639022"><ele>917.0</ele><time>2026-05-03T14:28:31Z</time></trkpt><trkpt lat="37.9272838" lon="14.3639181"><ele>917.0</ele><time>2026-05-03T14:28:33Z</time></trkpt><trkpt lat="37.9271774" lon="14.3639442"><ele>916.4000000000001</ele><time>2026-05-03T14:28:35Z</time></trkpt><trkpt lat="37.9271094" lon="14.3639625"><ele>915.8000000000001</ele><time>2026-05-03T14:28:36Z</time></trkpt><trkpt lat="37.9269907" lon="14.3639827"><ele>915.2</ele><time>2026-05-03T14:28:38Z</time></trkpt><trkpt lat="37.9268704" lon="14.363956"><ele>914.6</ele><time>2026-05-03T14:28:40Z</time></trkpt><trkpt lat="37.9267699" lon="14.3638734"><ele>914.0</ele><time>2026-05-03T14:28:42Z</time></trkpt><trkpt lat="37.9267151" lon="14.3638288"><ele>917.6666666666667</ele><time>2026-05-03T14:28:43Z</time></trkpt><trkpt lat="37.9266462" lon="14.3637813"><ele>921.3333333333334</ele><time>2026-05-03T14:28:44Z</time></trkpt><trkpt lat="37.926578" lon="14.363741"><ele>925.0</ele><time>2026-05-03T14:28:45Z</time></trkpt><trkpt lat="37.9265024" lon="14.363695"><ele>928.6666666666667</ele><time>2026-05-03T14:28:46Z</time></trkpt><trkpt lat="37.9264157" lon="14.363645"><ele>932.3333333333334</ele><time>2026-05-03T14:28:47Z</time></trkpt><trkpt lat="37.9263146" lon="14.3636118"><ele>936.0</ele><time>2026-05-03T14:28:48Z</time></trkpt><trkpt lat="37.92622" lon="14.3636103"><ele>936.0</ele><time>2026-05-03T14:28:49Z</time></trkpt><trkpt lat="37.9261168" lon="14.363638"><ele>936.0</ele><time>2026-05-03T14:28:50Z</time></trkpt><trkpt lat="37.9260066" lon="14.3637001"><ele>936.0</ele><time>2026-05-03T14:28:51Z</time></trkpt><trkpt lat="37.9259023" lon="14.3637903"><ele>936.0</ele><time>2026-05-03T14:28:52Z</time></trkpt><trkpt lat="37.9258119" lon="14.3639218"><ele>932.5</ele><time>2026-05-03T14:28:53Z</time></trkpt><trkpt lat="37.9257323" lon="14.3640664"><ele>929.0</ele><time>2026-05-03T14:28:54Z</time></trkpt><trkpt lat="37.9256715" lon="14.364208"><ele>925.5</ele><time>2026-05-03T14:28:55Z</time></trkpt><trkpt lat="37.9256015" lon="14.3643245"><ele>922.0</ele><time>2026-05-03T14:28:56Z</time></trkpt><trkpt lat="37.9255119" lon="14.3643938"><ele>922.0</ele><time>2026-05-03T14:28:57Z</time></trkpt><trkpt lat="37.9254202" lon="14.3644209"><ele>922.0</ele><time>2026-05-03T14:28:58Z</time></trkpt><trkpt lat="37.9253016" lon="14.3643888"><ele>922.0</ele><time>2026-05-03T14:28:59Z</time></trkpt><trkpt lat="37.9251488" lon="14.3643106"><ele>922.0</ele><time>2026-05-03T14:29:00Z</time></trkpt><trkpt lat="37.9249891" lon="14.3642309"><ele>925.0</ele><time>2026-05-03T14:29:01Z</time></trkpt><trkpt lat="37.9248142" lon="14.3641559"><ele>928.0</ele><time>2026-05-03T14:29:02Z</time></trkpt><trkpt lat="37.9246468" lon="14.3641526"><ele>931.0</ele><time>2026-05-03T14:29:03Z</time></trkpt><trkpt lat="37.924487" lon="14.3641222"><ele>931.0</ele><time>2026-05-03T14:29:04Z</time></trkpt><trkpt lat="37.9243476" lon="14.3640931"><ele>931.0</ele><time>2026-05-03T14:29:05Z</time></trkpt><trkpt lat="37.9242177" lon="14.3640143"><ele>931.0</ele><time>2026-05-03T14:29:06Z</time></trkpt><trkpt lat="37.9240954" lon="14.3639087"><ele>931.0</ele><time>2026-05-03T14:29:07Z</time></trkpt><trkpt lat="37.9239906" lon="14.3637114"><ele>935.6666666666666</ele><time>2026-05-03T14:29:08Z</time></trkpt><trkpt lat="37.9238816" lon="14.363517"><ele>940.3333333333333</ele><time>2026-05-03T14:29:09Z</time></trkpt><trkpt lat="37.9237718" lon="14.3632835"><ele>945.0</ele><time>2026-05-03T14:29:10Z</time></trkpt><trkpt lat="37.9236692" lon="14.3630679"><ele>943.6666666666667</ele><time>2026-05-03T14:29:11Z</time></trkpt><trkpt lat="37.923579" lon="14.3628561"><ele>942.3333333333334</ele><time>2026-05-03T14:29:12Z</time></trkpt><trkpt lat="37.9234805" lon="14.362648"><ele>941.0</ele><time>2026-05-03T14:29:13Z</time></trkpt><trkpt lat="37.9233691" lon="14.3624554"><ele>941.0</ele><time>2026-05-03T14:29:14Z</time></trkpt><trkpt lat="37.9232531" lon="14.3622889"><ele>941.0</ele><time>2026-05-03T14:29:15Z</time></trkpt><trkpt lat="37.9231387" lon="14.362149"><ele>941.0</ele><time>2026-05-03T14:29:16Z</time></trkpt><trkpt lat="37.9230602" lon="14.3619993"><ele>943.75</ele><time>2026-05-03T14:29:17Z</time></trkpt><trkpt lat="37.9229832" lon="14.3618463"><ele>946.5</ele><time>2026-05-03T14:29:18Z</time></trkpt><trkpt lat="37.9229859" lon="14.3616893"><ele>949.25</ele><time>2026-05-03T14:29:19Z</time></trkpt><trkpt lat="37.9229248" lon="14.3615534"><ele>952.0</ele><time>2026-05-03T14:29:20Z</time></trkpt><trkpt lat="37.9228275" lon="14.3614443"><ele>954.3333333333333</ele><time>2026-05-03T14:29:21Z</time></trkpt><trkpt lat="37.9227076" lon="14.3613321"><ele>956.6666666666667</ele><time>2026-05-03T14:29:22Z</time></trkpt><trkpt lat="37.922521" lon="14.3612602"><ele>959.0</ele><time>2026-05-03T14:29:23Z</time></trkpt><trkpt lat="37.9223485" lon="14.3611516"><ele>959.0</ele><time>2026-05-03T14:29:23.999Z</time></trkpt><trkpt lat="37.9221576" lon="14.3610767"><ele>959.0</ele><time>2026-05-03T14:29:25Z</time></trkpt><trkpt lat="37.9219315" lon="14.3610407"><ele>959.0</ele><time>2026-05-03T14:29:26Z</time></trkpt><trkpt lat="37.9216984" lon="14.3610098"><ele>957.0</ele><time>2026-05-03T14:29:27Z</time></trkpt><trkpt lat="37.9214846" lon="14.3609826"><ele>955.0</ele><time>2026-05-03T14:29:28Z</time></trkpt><trkpt lat="37.9212803" lon="14.3609597"><ele>953.0</ele><time>2026-05-03T14:29:29Z</time></trkpt><trkpt lat="37.9210885" lon="14.3609352"><ele>953.0</ele><time>2026-05-03T14:29:30Z</time></trkpt><trkpt lat="37.9209121" lon="14.3608883"><ele>953.0</ele><time>2026-05-03T14:29:31Z</time></trkpt><trkpt lat="37.9207591" lon="14.3607966"><ele>953.0</ele><time>2026-05-03T14:29:32Z</time></trkpt><trkpt lat="37.9206158" lon="14.3607152"><ele>950.6666666666667</ele><time>2026-05-03T14:29:33Z</time></trkpt><trkpt lat="37.9204579" lon="14.3607307"><ele>948.3333333333333</ele><time>2026-05-03T14:29:34Z</time></trkpt><trkpt lat="37.9202799" lon="14.3607631"><ele>946.0</ele><time>2026-05-03T14:29:35Z</time></trkpt><trkpt lat="37.9200967" lon="14.3608176"><ele>948.3333333333333</ele><time>2026-05-03T14:29:36Z</time></trkpt><trkpt lat="37.9199199" lon="14.3608689"><ele>950.6666666666667</ele><time>2026-05-03T14:29:37Z</time></trkpt><trkpt lat="37.919737" lon="14.360903"><ele>953.0</ele><time>2026-05-03T14:29:38Z</time></trkpt><trkpt lat="37.9195742" lon="14.3609126"><ele>953.0</ele><time>2026-05-03T14:29:39Z</time></trkpt><trkpt lat="37.9194203" lon="14.3609066"><ele>953.0</ele><time>2026-05-03T14:29:40Z</time></trkpt><trkpt lat="37.9192747" lon="14.3608423"><ele>953.0</ele><time>2026-05-03T14:29:41Z</time></trkpt><trkpt lat="37.9191122" lon="14.3607529"><ele>952.6666666666667</ele><time>2026-05-03T14:29:42Z</time></trkpt><trkpt lat="37.91895" lon="14.3606684"><ele>952.3333333333333</ele><time>2026-05-03T14:29:43Z</time></trkpt><trkpt lat="37.9187977" lon="14.360594"><ele>952.0</ele><time>2026-05-03T14:29:44Z</time></trkpt><trkpt lat="37.9186505" lon="14.3605637"><ele>952.0</ele><time>2026-05-03T14:29:45Z</time></trkpt><trkpt lat="37.9185013" lon="14.3605924"><ele>952.0</ele><time>2026-05-03T14:29:46Z</time></trkpt><trkpt lat="37.918355" lon="14.3606791"><ele>952.0</ele><time>2026-05-03T14:29:47Z</time></trkpt><trkpt lat="37.9182219" lon="14.3607906"><ele>951.25</ele><time>2026-05-03T14:29:48Z</time></trkpt><trkpt lat="37.9181029" lon="14.3608848"><ele>950.5</ele><time>2026-05-03T14:29:49Z</time></trkpt><trkpt lat="37.9179864" lon="14.3609405"><ele>949.75</ele><time>2026-05-03T14:29:50Z</time></trkpt><trkpt lat="37.9178813" lon="14.3609285"><ele>949.0</ele><time>2026-05-03T14:29:51Z</time></trkpt><trkpt lat="37.9177904" lon="14.3609079"><ele>949.0</ele><time>2026-05-03T14:29:52Z</time></trkpt><trkpt lat="37.9177488" lon="14.360715"><ele>949.0</ele><time>2026-05-03T14:29:53Z</time></trkpt><trkpt lat="37.917679" lon="14.3605554"><ele>949.0</ele><time>2026-05-03T14:29:54Z</time></trkpt><trkpt lat="37.9176029" lon="14.3603883"><ele>955.0</ele><time>2026-05-03T14:29:55Z</time></trkpt><trkpt lat="37.9175152" lon="14.3602311"><ele>961.0</ele><time>2026-05-03T14:29:56Z</time></trkpt><trkpt lat="37.917403" lon="14.3601077"><ele>967.0</ele><time>2026-05-03T14:29:57Z</time></trkpt><trkpt lat="37.9172598" lon="14.3600367"><ele>967.0</ele><time>2026-05-03T14:29:58Z</time></trkpt><trkpt lat="37.9171134" lon="14.3599696"><ele>967.0</ele><time>2026-05-03T14:29:59Z</time></trkpt><trkpt lat="37.9169789" lon="14.3598788"><ele>967.0</ele><time>2026-05-03T14:30:00Z</time></trkpt><trkpt lat="37.9168406" lon="14.3597272"><ele>969.6666666666666</ele><time>2026-05-03T14:30:01Z</time></trkpt><trkpt lat="37.9167051" lon="14.3595669"><ele>972.3333333333333</ele><time>2026-05-03T14:30:02Z</time></trkpt><trkpt lat="37.9165711" lon="14.3594045"><ele>975.0</ele><time>2026-05-03T14:30:02.999Z</time></trkpt><trkpt lat="37.9164359" lon="14.3592387"><ele>975.0</ele><time>2026-05-03T14:30:04Z</time></trkpt><trkpt lat="37.9162967" lon="14.3590727"><ele>975.0</ele><time>2026-05-03T14:30:05Z</time></trkpt><trkpt lat="37.9161736" lon="14.3589189"><ele>975.0</ele><time>2026-05-03T14:30:06Z</time></trkpt><trkpt lat="37.9160571" lon="14.3587703"><ele>975.5</ele><time>2026-05-03T14:30:07Z</time></trkpt><trkpt lat="37.9159487" lon="14.3586292"><ele>976.0</ele><time>2026-05-03T14:30:08Z</time></trkpt><trkpt lat="37.9158466" lon="14.3585062"><ele>976.5</ele><time>2026-05-03T14:30:09Z</time></trkpt><trkpt lat="37.9157424" lon="14.3584042"><ele>977.0</ele><time>2026-05-03T14:30:10Z</time></trkpt><trkpt lat="37.9156378" lon="14.3583276"><ele>977.0</ele><time>2026-05-03T14:30:11Z</time></trkpt><trkpt lat="37.9155278" lon="14.3582705"><ele>977.0</ele><time>2026-05-03T14:30:12Z</time></trkpt><trkpt lat="37.9154054" lon="14.3582359"><ele>977.0</ele><time>2026-05-03T14:30:13Z</time></trkpt><trkpt lat="37.9152863" lon="14.3582136"><ele>977.0</ele><time>2026-05-03T14:30:14Z</time></trkpt><trkpt lat="37.9151554" lon="14.3582787"><ele>975.5</ele><time>2026-05-03T14:30:15Z</time></trkpt><trkpt lat="37.9150262" lon="14.3583539"><ele>974.0</ele><time>2026-05-03T14:30:16Z</time></trkpt><trkpt lat="37.9149053" lon="14.3584196"><ele>972.5</ele><time>2026-05-03T14:30:17Z</time></trkpt><trkpt lat="37.9147822" lon="14.3584515"><ele>971.0</ele><time>2026-05-03T14:30:18Z</time></trkpt><trkpt lat="37.9146583" lon="14.3584389"><ele>971.0</ele><time>2026-05-03T14:30:19Z</time></trkpt><trkpt lat="37.9145328" lon="14.3583824"><ele>971.0</ele><time>2026-05-03T14:30:20Z</time></trkpt><trkpt lat="37.9144012" lon="14.3583161"><ele>971.0</ele><time>2026-05-03T14:30:21Z</time></trkpt><trkpt lat="37.9142711" lon="14.3582445"><ele>971.0</ele><time>2026-05-03T14:30:22Z</time></trkpt><trkpt lat="37.9141491" lon="14.3581643"><ele>970.75</ele><time>2026-05-03T14:30:23Z</time></trkpt><trkpt lat="37.9140448" lon="14.3580563"><ele>970.5</ele><time>2026-05-03T14:30:24Z</time></trkpt><trkpt lat="37.9139432" lon="14.3579319"><ele>970.25</ele><time>2026-05-03T14:30:25Z</time></trkpt><trkpt lat="37.9138435" lon="14.3578474"><ele>970.0</ele><time>2026-05-03T14:30:26Z</time></trkpt><trkpt lat="37.9137228" lon="14.3578012"><ele>973.5</ele><time>2026-05-03T14:30:27Z</time></trkpt><trkpt lat="37.913596" lon="14.3577869"><ele>977.0</ele><time>2026-05-03T14:30:28Z</time></trkpt><trkpt lat="37.9134632" lon="14.3577978"><ele>980.5</ele><time>2026-05-03T14:30:29Z</time></trkpt><trkpt lat="37.9133247" lon="14.3577925"><ele>984.0</ele><time>2026-05-03T14:30:30Z</time></trkpt><trkpt lat="37.9131899" lon="14.3577843"><ele>984.0</ele><time>2026-05-03T14:30:31Z</time></trkpt><trkpt lat="37.9130581" lon="14.3577584"><ele>984.0</ele><time>2026-05-03T14:30:32Z</time></trkpt><trkpt lat="37.9129233" lon="14.3577177"><ele>984.0</ele><time>2026-05-03T14:30:33Z</time></trkpt><trkpt lat="37.9127941" lon="14.357652"><ele>984.0</ele><time>2026-05-03T14:30:34Z</time></trkpt><trkpt lat="37.9126662" lon="14.3575789"><ele>982.75</ele><time>2026-05-03T14:30:35Z</time></trkpt><trkpt lat="37.912538" lon="14.3575158"><ele>981.5</ele><time>2026-05-03T14:30:36Z</time></trkpt><trkpt lat="37.9123989" lon="14.3574812"><ele>980.25</ele><time>2026-05-03T14:30:37Z</time></trkpt><trkpt lat="37.9122597" lon="14.3574797"><ele>979.0</ele><time>2026-05-03T14:30:38Z</time></trkpt><trkpt lat="37.9121235" lon="14.357497"><ele>979.0</ele><time>2026-05-03T14:30:39Z</time></trkpt><trkpt lat="37.9119854" lon="14.3574892"><ele>979.0</ele><time>2026-05-03T14:30:40Z</time></trkpt><trkpt lat="37.9118516" lon="14.3574516"><ele>979.0</ele><time>2026-05-03T14:30:41Z</time></trkpt><trkpt lat="37.9117225" lon="14.3573995"><ele>979.0</ele><time>2026-05-03T14:30:42Z</time></trkpt><trkpt lat="37.9116043" lon="14.3573476"><ele>978.25</ele><time>2026-05-03T14:30:43Z</time></trkpt><trkpt lat="37.91148" lon="14.3573152"><ele>977.5</ele><time>2026-05-03T14:30:44Z</time></trkpt><trkpt lat="37.9113598" lon="14.3573214"><ele>976.75</ele><time>2026-05-03T14:30:45Z</time></trkpt><trkpt lat="37.9112411" lon="14.3573837"><ele>976.0</ele><time>2026-05-03T14:30:46Z</time></trkpt><trkpt lat="37.9111283" lon="14.3574777"><ele>976.0</ele><time>2026-05-03T14:30:47Z</time></trkpt><trkpt lat="37.9110316" lon="14.3576081"><ele>976.0</ele><time>2026-05-03T14:30:48Z</time></trkpt><trkpt lat="37.9109518" lon="14.3577442"><ele>976.0</ele><time>2026-05-03T14:30:49Z</time></trkpt><trkpt lat="37.9108657" lon="14.3578555"><ele>976.0</ele><time>2026-05-03T14:30:50Z</time></trkpt><trkpt lat="37.910755" lon="14.357929"><ele>979.0</ele><time>2026-05-03T14:30:51Z</time></trkpt><trkpt lat="37.9106357" lon="14.3579731"><ele>982.0</ele><time>2026-05-03T14:30:52Z</time></trkpt><trkpt lat="37.9105126" lon="14.3579875"><ele>985.0</ele><time>2026-05-03T14:30:53Z</time></trkpt><trkpt lat="37.9103883" lon="14.3579575"><ele>988.0</ele><time>2026-05-03T14:30:54Z</time></trkpt><trkpt lat="37.9102738" lon="14.3578798"><ele>988.0</ele><time>2026-05-03T14:30:55Z</time></trkpt><trkpt lat="37.9101372" lon="14.3577744"><ele>988.0</ele><time>2026-05-03T14:30:56Z</time></trkpt><trkpt lat="37.9099807" lon="14.3576655"><ele>988.0</ele><time>2026-05-03T14:30:57Z</time></trkpt><trkpt lat="37.9097816" lon="14.3575392"><ele>988.0</ele><time>2026-05-03T14:30:58Z</time></trkpt><trkpt lat="37.9095678" lon="14.3574207"><ele>988.0</ele><time>2026-05-03T14:30:59Z</time></trkpt><trkpt lat="37.909334" lon="14.3573426"><ele>985.5</ele><time>2026-05-03T14:31:00Z</time></trkpt><trkpt lat="37.9090908" lon="14.3572933"><ele>983.0</ele><time>2026-05-03T14:31:01Z</time></trkpt><trkpt lat="37.9088338" lon="14.3572459"><ele>989.0</ele><time>2026-05-03T14:31:02Z</time></trkpt><trkpt lat="37.9085718" lon="14.3571946"><ele>995.0</ele><time>2026-05-03T14:31:03Z</time></trkpt><trkpt lat="37.908308" lon="14.3571443"><ele>995.0</ele><time>2026-05-03T14:31:04Z</time></trkpt><trkpt lat="37.9080447" lon="14.3570941"><ele>995.0</ele><time>2026-05-03T14:31:05Z</time></trkpt><trkpt lat="37.9077785" lon="14.3570476"><ele>991.0</ele><time>2026-05-03T14:31:06Z</time></trkpt><trkpt lat="37.9075113" lon="14.3569986"><ele>987.0</ele><time>2026-05-03T14:31:07Z</time></trkpt><trkpt lat="37.9072417" lon="14.3569502"><ele>987.0</ele><time>2026-05-03T14:31:08Z</time></trkpt><trkpt lat="37.9069748" lon="14.3569064"><ele>987.0</ele><time>2026-05-03T14:31:09Z</time></trkpt><trkpt lat="37.9067147" lon="14.3568682"><ele>982.5</ele><time>2026-05-03T14:31:10Z</time></trkpt><trkpt lat="37.9064505" lon="14.3568425"><ele>978.0</ele><time>2026-05-03T14:31:11Z</time></trkpt><trkpt lat="37.9061827" lon="14.356833"><ele>978.0</ele><time>2026-05-03T14:31:12Z</time></trkpt><trkpt lat="37.9059186" lon="14.356838"><ele>978.0</ele><time>2026-05-03T14:31:13Z</time></trkpt><trkpt lat="37.9056523" lon="14.3568659"><ele>979.5</ele><time>2026-05-03T14:31:14Z</time></trkpt><trkpt lat="37.9053835" lon="14.3569147"><ele>981.0</ele><time>2026-05-03T14:31:15Z</time></trkpt><trkpt lat="37.9051136" lon="14.3569847"><ele>988.0</ele><time>2026-05-03T14:31:16Z</time></trkpt><trkpt lat="37.9048492" lon="14.3570764"><ele>995.0</ele><time>2026-05-03T14:31:17Z</time></trkpt><trkpt lat="37.9045924" lon="14.3571885"><ele>995.5</ele><time>2026-05-03T14:31:18Z</time></trkpt><trkpt lat="37.9043414" lon="14.357327"><ele>996.0</ele><time>2026-05-03T14:31:19Z</time></trkpt><trkpt lat="37.9041075" lon="14.3574843"><ele>996.0</ele><time>2026-05-03T14:31:20Z</time></trkpt><trkpt lat="37.9038744" lon="14.3576631"><ele>996.0</ele><time>2026-05-03T14:31:21Z</time></trkpt><trkpt lat="37.9036426" lon="14.3578391"><ele>994.5</ele><time>2026-05-03T14:31:22Z</time></trkpt><trkpt lat="37.9034102" lon="14.3580124"><ele>993.0</ele><time>2026-05-03T14:31:23Z</time></trkpt><trkpt lat="37.9027537" lon="14.3590019"><ele>993.0</ele><time>2026-05-03T14:31:27Z</time></trkpt><trkpt lat="37.9026055" lon="14.3592938"><ele>993.0</ele><time>2026-05-03T14:31:28Z</time></trkpt><trkpt lat="37.9024793" lon="14.3595986"><ele>997.0</ele><time>2026-05-03T14:31:29Z</time></trkpt><trkpt lat="37.9023755" lon="14.3599103"><ele>1001.0</ele><time>2026-05-03T14:31:30Z</time></trkpt><trkpt lat="37.9022837" lon="14.3602236"><ele>1003.0</ele><time>2026-05-03T14:31:31Z</time></trkpt><trkpt lat="37.9022005" lon="14.3605469"><ele>1005.0</ele><time>2026-05-03T14:31:32Z</time></trkpt><trkpt lat="37.9021355" lon="14.3608685"><ele>1005.0</ele><time>2026-05-03T14:31:33Z</time></trkpt><trkpt lat="37.9020658" lon="14.3611876"><ele>1005.0</ele><time>2026-05-03T14:31:34Z</time></trkpt><trkpt lat="37.9019974" lon="14.3615127"><ele>1016.0</ele><time>2026-05-03T14:31:35Z</time></trkpt><trkpt lat="37.9017409" lon="14.3624653"><ele>1016.0</ele><time>2026-05-03T14:31:38Z</time></trkpt><trkpt lat="37.9016582" lon="14.3627867"><ele>1016.0</ele><time>2026-05-03T14:31:39Z</time></trkpt><trkpt lat="37.9015753" lon="14.363108"><ele>1012.0</ele><time>2026-05-03T14:31:40Z</time></trkpt><trkpt lat="37.9014752" lon="14.3634161"><ele>1008.0</ele><time>2026-05-03T14:31:41Z</time></trkpt><trkpt lat="37.9013454" lon="14.3637228"><ele>1006.0</ele><time>2026-05-03T14:31:42Z</time></trkpt><trkpt lat="37.9012164" lon="14.3640019"><ele>1004.0</ele><time>2026-05-03T14:31:43Z</time></trkpt><trkpt lat="37.9010926" lon="14.364279"><ele>1004.0</ele><time>2026-05-03T14:31:44Z</time></trkpt><trkpt lat="37.9009651" lon="14.3645597"><ele>1004.0</ele><time>2026-05-03T14:31:45Z</time></trkpt><trkpt lat="37.9008381" lon="14.3648401"><ele>1009.0</ele><time>2026-05-03T14:31:46Z</time></trkpt><trkpt lat="37.900723" lon="14.3651108"><ele>1014.0</ele><time>2026-05-03T14:31:47Z</time></trkpt><trkpt lat="37.9006085" lon="14.365392"><ele>1012.5</ele><time>2026-05-03T14:31:48Z</time></trkpt><trkpt lat="37.9005083" lon="14.365689"><ele>1011.0</ele><time>2026-05-03T14:31:49Z</time></trkpt><trkpt lat="37.9004162" lon="14.3659857"><ele>1011.0</ele><time>2026-05-03T14:31:50Z</time></trkpt><trkpt lat="37.9003351" lon="14.3662859"><ele>1011.0</ele><time>2026-05-03T14:31:51Z</time></trkpt><trkpt lat="37.9002624" lon="14.366597"><ele>1011.5</ele><time>2026-05-03T14:31:52Z</time></trkpt><trkpt lat="37.9002029" lon="14.3669101"><ele>1012.0</ele><time>2026-05-03T14:31:53Z</time></trkpt><trkpt lat="37.900149" lon="14.3672345"><ele>1010.0</ele><time>2026-05-03T14:31:54Z</time></trkpt><trkpt lat="37.9000984" lon="14.3675557"><ele>1008.0</ele><time>2026-05-03T14:31:55Z</time></trkpt><trkpt lat="37.9000466" lon="14.3678841"><ele>1013.5</ele><time>2026-05-03T14:31:56Z</time></trkpt><trkpt lat="37.9" lon="14.3682145"><ele>1019.0</ele><time>2026-05-03T14:31:57Z</time></trkpt><trkpt lat="37.8999475" lon="14.3685367"><ele>1019.0</ele><time>2026-05-03T14:31:58Z</time></trkpt><trkpt lat="37.8998927" lon="14.368857"><ele>1019.0</ele><time>2026-05-03T14:31:59Z</time></trkpt><trkpt lat="37.8998239" lon="14.3691639"><ele>1013.0</ele><time>2026-05-03T14:32:00Z</time></trkpt><trkpt lat="37.8997389" lon="14.3694753"><ele>1007.0</ele><time>2026-05-03T14:32:01Z</time></trkpt><trkpt lat="37.8996416" lon="14.3697765"><ele>1006.5</ele><time>2026-05-03T14:32:02Z</time></trkpt><trkpt lat="37.8995273" lon="14.3700655"><ele>1006.0</ele><time>2026-05-03T14:32:03Z</time></trkpt><trkpt lat="37.8994022" lon="14.3703464"><ele>1014.5</ele><time>2026-05-03T14:32:04Z</time></trkpt><trkpt lat="37.8992577" lon="14.3706123"><ele>1023.0</ele><time>2026-05-03T14:32:05Z</time></trkpt><trkpt lat="37.8990955" lon="14.3708635"><ele>1032.0</ele><time>2026-05-03T14:32:06Z</time></trkpt><trkpt lat="37.8989155" lon="14.371107"><ele>1041.0</ele><time>2026-05-03T14:32:07Z</time></trkpt><trkpt lat="37.8987176" lon="14.3713317"><ele>1040.5</ele><time>2026-05-03T14:32:08Z</time></trkpt><trkpt lat="37.8985045" lon="14.3715442"><ele>1040.0</ele><time>2026-05-03T14:32:09Z</time></trkpt><trkpt lat="37.8982811" lon="14.3717309"><ele>1046.5</ele><time>2026-05-03T14:32:10Z</time></trkpt><trkpt lat="37.8980416" lon="14.3718965"><ele>1053.0</ele><time>2026-05-03T14:32:11Z</time></trkpt><trkpt lat="37.8977905" lon="14.372041"><ele>1052.0</ele><time>2026-05-03T14:32:12Z</time></trkpt><trkpt lat="37.8975341" lon="14.3721694"><ele>1051.0</ele><time>2026-05-03T14:32:13Z</time></trkpt><trkpt lat="37.8972796" lon="14.3722919"><ele>1051.0</ele><time>2026-05-03T14:32:14Z</time></trkpt><trkpt lat="37.897022" lon="14.3724086"><ele>1051.0</ele><time>2026-05-03T14:32:15Z</time></trkpt><trkpt lat="37.8967669" lon="14.3725254"><ele>1052.0</ele><time>2026-05-03T14:32:16Z</time></trkpt><trkpt lat="37.8965148" lon="14.3726444"><ele>1053.0</ele><time>2026-05-03T14:32:17Z</time></trkpt><trkpt lat="37.8962699" lon="14.3727835"><ele>1053.0</ele><time>2026-05-03T14:32:18Z</time></trkpt><trkpt lat="37.8960311" lon="14.3729498"><ele>1053.0</ele><time>2026-05-03T14:32:19Z</time></trkpt><trkpt lat="37.8958017" lon="14.3731238"><ele>1052.5</ele><time>2026-05-03T14:32:20Z</time></trkpt><trkpt lat="37.8955848" lon="14.3733143"><ele>1052.0</ele><time>2026-05-03T14:32:21Z</time></trkpt><trkpt lat="37.895374" lon="14.3735171"><ele>1052.0</ele><time>2026-05-03T14:32:22Z</time></trkpt><trkpt lat="37.8951651" lon="14.3737203"><ele>1052.0</ele><time>2026-05-03T14:32:23Z</time></trkpt><trkpt lat="37.8949567" lon="14.373935"><ele>1056.0</ele><time>2026-05-03T14:32:24Z</time></trkpt><trkpt lat="37.8947485" lon="14.3741371"><ele>1060.0</ele><time>2026-05-03T14:32:25Z</time></trkpt><trkpt lat="37.8945357" lon="14.3743363"><ele>1060.0</ele><time>2026-05-03T14:32:26Z</time></trkpt><trkpt lat="37.8943118" lon="14.3745204"><ele>1060.0</ele><time>2026-05-03T14:32:27Z</time></trkpt><trkpt lat="37.8940853" lon="14.3746899"><ele>1067.5</ele><time>2026-05-03T14:32:28Z</time></trkpt><trkpt lat="37.8938494" lon="14.3748394"><ele>1075.0</ele><time>2026-05-03T14:32:29Z</time></trkpt><trkpt lat="37.8936037" lon="14.3749711"><ele>1080.5</ele><time>2026-05-03T14:32:30Z</time></trkpt><trkpt lat="37.89336" lon="14.3750787"><ele>1086.0</ele><time>2026-05-03T14:32:31Z</time></trkpt><trkpt lat="37.8931143" lon="14.3751695"><ele>1086.0</ele><time>2026-05-03T14:32:32Z</time></trkpt><trkpt lat="37.8928643" lon="14.3752538"><ele>1086.0</ele><time>2026-05-03T14:32:33Z</time></trkpt><trkpt lat="37.8926236" lon="14.3753402"><ele>1087.0</ele><time>2026-05-03T14:32:34Z</time></trkpt><trkpt lat="37.8924013" lon="14.3754229"><ele>1088.0</ele><time>2026-05-03T14:32:35Z</time></trkpt><trkpt lat="37.8921865" lon="14.3755073"><ele>1087.6666666666667</ele><time>2026-05-03T14:32:36Z</time></trkpt><trkpt lat="37.8919938" lon="14.3755961"><ele>1087.3333333333333</ele><time>2026-05-03T14:32:37Z</time></trkpt><trkpt lat="37.8918219" lon="14.3756819"><ele>1087.0</ele><time>2026-05-03T14:32:38Z</time></trkpt><trkpt lat="37.8916679" lon="14.3757669"><ele>1087.0</ele><time>2026-05-03T14:32:39Z</time></trkpt><trkpt lat="37.8915317" lon="14.3758393"><ele>1087.0</ele><time>2026-05-03T14:32:40Z</time></trkpt><trkpt lat="37.8914169" lon="14.3758927"><ele>1087.0</ele><time>2026-05-03T14:32:41Z</time></trkpt><trkpt lat="37.8913132" lon="14.3759189"><ele>1087.0</ele><time>2026-05-03T14:32:42Z</time></trkpt><trkpt lat="37.89122" lon="14.3759154"><ele>1087.0</ele><time>2026-05-03T14:32:43Z</time></trkpt><trkpt lat="37.8911261" lon="14.3759223"><ele>1087.0</ele><time>2026-05-03T14:32:44Z</time></trkpt><trkpt lat="37.891046" lon="14.3759612"><ele>1087.0</ele><time>2026-05-03T14:32:45Z</time></trkpt><trkpt lat="37.8909911" lon="14.3760297"><ele>1087.0</ele><time>2026-05-03T14:32:46Z</time></trkpt><trkpt lat="37.8909616" lon="14.3761099"><ele>1087.0</ele><time>2026-05-03T14:32:47Z</time></trkpt><trkpt lat="37.8909597" lon="14.3761898"><ele>1087.0</ele><time>2026-05-03T14:32:48Z</time></trkpt><trkpt lat="37.8910336" lon="14.3762916"><ele>1087.0</ele><time>2026-05-03T14:32:50Z</time></trkpt><trkpt lat="37.8911502" lon="14.3762915"><ele>1087.0</ele><time>2026-05-03T14:32:52Z</time></trkpt><trkpt lat="37.8912069" lon="14.3762512"><ele>1087.0</ele><time>2026-05-03T14:32:53Z</time></trkpt><trkpt lat="37.8912405" lon="14.3761756"><ele>1087.0</ele><time>2026-05-03T14:32:54Z</time></trkpt><trkpt lat="37.8912389" lon="14.376093"><ele>1087.0</ele><time>2026-05-03T14:32:55Z</time></trkpt><trkpt lat="37.8912105" lon="14.3760185"><ele>1087.0</ele><time>2026-05-03T14:32:56Z</time></trkpt><trkpt lat="37.8911557" lon="14.3759714"><ele>1087.0</ele><time>2026-05-03T14:32:57Z</time></trkpt><trkpt lat="37.8910874" lon="14.3759576"><ele>1087.0</ele><time>2026-05-03T14:32:58Z</time></trkpt><trkpt lat="37.8910217" lon="14.3759938"><ele>1087.0</ele><time>2026-05-03T14:32:59Z</time></trkpt><trkpt lat="37.8909687" lon="14.3760839"><ele>1087.0</ele><time>2026-05-03T14:33:00Z</time></trkpt><trkpt lat="37.8909228" lon="14.3762011"><ele>1087.0</ele><time>2026-05-03T14:33:01Z</time></trkpt><trkpt lat="37.8908517" lon="14.3763179"><ele>1087.0</ele><time>2026-05-03T14:33:02Z</time></trkpt><trkpt lat="37.8907447" lon="14.3764171"><ele>1089.6666666666665</ele><time>2026-05-03T14:33:03Z</time></trkpt><trkpt lat="37.8906214" lon="14.3765197"><ele>1092.3333333333333</ele><time>2026-05-03T14:33:04Z</time></trkpt><trkpt lat="37.8904894" lon="14.3766285"><ele>1095.0</ele><time>2026-05-03T14:33:05Z</time></trkpt><trkpt lat="37.8903515" lon="14.3767407"><ele>1095.0</ele><time>2026-05-03T14:33:06Z</time></trkpt><trkpt lat="37.8902104" lon="14.3768669"><ele>1095.0</ele><time>2026-05-03T14:33:07Z</time></trkpt><trkpt lat="37.890071" lon="14.3770095"><ele>1095.0</ele><time>2026-05-03T14:33:08Z</time></trkpt><trkpt lat="37.8899393" lon="14.3771868"><ele>1096.6666666666667</ele><time>2026-05-03T14:33:09Z</time></trkpt><trkpt lat="37.8898046" lon="14.3773803"><ele>1098.3333333333335</ele><time>2026-05-03T14:33:10Z</time></trkpt><trkpt lat="37.8896696" lon="14.3775766"><ele>1100.0</ele><time>2026-05-03T14:33:11Z</time></trkpt><trkpt lat="37.8895354" lon="14.3777743"><ele>1100.0</ele><time>2026-05-03T14:33:12Z</time></trkpt><trkpt lat="37.8894011" lon="14.3779714"><ele>1100.0</ele><time>2026-05-03T14:33:13Z</time></trkpt><trkpt lat="37.889269" lon="14.3781653"><ele>1100.0</ele><time>2026-05-03T14:33:14Z</time></trkpt><trkpt lat="37.8891434" lon="14.3783443"><ele>1101.3333333333335</ele><time>2026-05-03T14:33:15Z</time></trkpt><trkpt lat="37.8890179" lon="14.3785332"><ele>1102.6666666666667</ele><time>2026-05-03T14:33:16Z</time></trkpt><trkpt lat="37.8889057" lon="14.3787367"><ele>1104.0</ele><time>2026-05-03T14:33:17Z</time></trkpt><trkpt lat="37.888805" lon="14.3789269"><ele>1106.6666666666667</ele><time>2026-05-03T14:33:18Z</time></trkpt><trkpt lat="37.8887168" lon="14.3791161"><ele>1109.3333333333335</ele><time>2026-05-03T14:33:19Z</time></trkpt><trkpt lat="37.8886514" lon="14.379304"><ele>1112.0</ele><time>2026-05-03T14:33:20Z</time></trkpt><trkpt lat="37.8886065" lon="14.3795077"><ele>1114.3333333333335</ele><time>2026-05-03T14:33:21Z</time></trkpt><trkpt lat="37.8885635" lon="14.379718"><ele>1116.6666666666667</ele><time>2026-05-03T14:33:22Z</time></trkpt><trkpt lat="37.8885974" lon="14.3799674"><ele>1119.0</ele><time>2026-05-03T14:33:23Z</time></trkpt><trkpt lat="37.8886046" lon="14.3801879"><ele>1119.0</ele><time>2026-05-03T14:33:24Z</time></trkpt><trkpt lat="37.8886128" lon="14.3803898"><ele>1119.0</ele><time>2026-05-03T14:33:25Z</time></trkpt><trkpt lat="37.8886191" lon="14.3805722"><ele>1119.0</ele><time>2026-05-03T14:33:26Z</time></trkpt><trkpt lat="37.8886189" lon="14.3807419"><ele>1119.0</ele><time>2026-05-03T14:33:27Z</time></trkpt><trkpt lat="37.888617" lon="14.3809017"><ele>1119.25</ele><time>2026-05-03T14:33:28Z</time></trkpt><trkpt lat="37.8886049" lon="14.3810525"><ele>1119.5</ele><time>2026-05-03T14:33:29Z</time></trkpt><trkpt lat="37.8885828" lon="14.3812002"><ele>1119.75</ele><time>2026-05-03T14:33:30Z</time></trkpt><trkpt lat="37.8885401" lon="14.3813299"><ele>1120.0</ele><time>2026-05-03T14:33:31Z</time></trkpt><trkpt lat="37.8884765" lon="14.3814466"><ele>1123.4</ele><time>2026-05-03T14:33:32Z</time></trkpt><trkpt lat="37.8883868" lon="14.3815469"><ele>1126.8</ele><time>2026-05-03T14:33:33Z</time></trkpt><trkpt lat="37.8882931" lon="14.3816244"><ele>1130.2</ele><time>2026-05-03T14:33:34Z</time></trkpt><trkpt lat="37.8882067" lon="14.3816894"><ele>1133.6</ele><time>2026-05-03T14:33:35Z</time></trkpt><trkpt lat="37.888104" lon="14.3817389"><ele>1137.0</ele><time>2026-05-03T14:33:36Z</time></trkpt><trkpt lat="37.8879892" lon="14.3817629"><ele>1137.0</ele><time>2026-05-03T14:33:37Z</time></trkpt><trkpt lat="37.8878703" lon="14.3817611"><ele>1137.0</ele><time>2026-05-03T14:33:38Z</time></trkpt><trkpt lat="37.8877574" lon="14.381726"><ele>1137.0</ele><time>2026-05-03T14:33:39Z</time></trkpt><trkpt lat="37.8876391" lon="14.3816761"><ele>1137.0</ele><time>2026-05-03T14:33:40Z</time></trkpt><trkpt lat="37.8875173" lon="14.3816137"><ele>1137.25</ele><time>2026-05-03T14:33:41Z</time></trkpt><trkpt lat="37.887394" lon="14.3815575"><ele>1137.5</ele><time>2026-05-03T14:33:42Z</time></trkpt><trkpt lat="37.887264" lon="14.381517"><ele>1137.75</ele><time>2026-05-03T14:33:43Z</time></trkpt><trkpt lat="37.887133" lon="14.3814872"><ele>1138.0</ele><time>2026-05-03T14:33:44Z</time></trkpt><trkpt lat="37.886995" lon="14.3814729"><ele>1138.0</ele><time>2026-05-03T14:33:45Z</time></trkpt><trkpt lat="37.8868627" lon="14.3814746"><ele>1138.0</ele><time>2026-05-03T14:33:46Z</time></trkpt><trkpt lat="37.8867336" lon="14.3814949"><ele>1138.0</ele><time>2026-05-03T14:33:47Z</time></trkpt><trkpt lat="37.8866024" lon="14.381547"><ele>1138.0</ele><time>2026-05-03T14:33:48Z</time></trkpt><trkpt lat="37.886467" lon="14.3816272"><ele>1138.6666666666665</ele><time>2026-05-03T14:33:49Z</time></trkpt><trkpt lat="37.8863265" lon="14.3817457"><ele>1139.3333333333333</ele><time>2026-05-03T14:33:50Z</time></trkpt><trkpt lat="37.8861846" lon="14.3818815"><ele>1140.0</ele><time>2026-05-03T14:33:51Z</time></trkpt><trkpt lat="37.8860261" lon="14.3820256"><ele>1138.0</ele><time>2026-05-03T14:33:52Z</time></trkpt><trkpt lat="37.8858569" lon="14.3821711"><ele>1136.0</ele><time>2026-05-03T14:33:53Z</time></trkpt><trkpt lat="37.885698" lon="14.3822938"><ele>1134.0</ele><time>2026-05-03T14:33:54Z</time></trkpt><trkpt lat="37.8855377" lon="14.3824127"><ele>1134.0</ele><time>2026-05-03T14:33:55Z</time></trkpt><trkpt lat="37.8853919" lon="14.3825389"><ele>1134.0</ele><time>2026-05-03T14:33:56Z</time></trkpt><trkpt lat="37.8852471" lon="14.3826569"><ele>1134.0</ele><time>2026-05-03T14:33:57Z</time></trkpt><trkpt lat="37.8850915" lon="14.3827494"><ele>1129.6666666666667</ele><time>2026-05-03T14:33:58Z</time></trkpt><trkpt lat="37.8849232" lon="14.382813"><ele>1125.3333333333335</ele><time>2026-05-03T14:33:59Z</time></trkpt><trkpt lat="37.8847272" lon="14.3828615"><ele>1121.0</ele><time>2026-05-03T14:34:00Z</time></trkpt><trkpt lat="37.8845038" lon="14.3829027"><ele>1118.0</ele><time>2026-05-03T14:34:01Z</time></trkpt><trkpt lat="37.8842472" lon="14.3829359"><ele>1115.0</ele><time>2026-05-03T14:34:02Z</time></trkpt><trkpt lat="37.8839741" lon="14.3829667"><ele>1115.0</ele><time>2026-05-03T14:34:02.999Z</time></trkpt><trkpt lat="37.8836879" lon="14.38299"><ele>1115.0</ele><time>2026-05-03T14:34:04Z</time></trkpt><trkpt lat="37.8833978" lon="14.3830098"><ele>1119.5</ele><time>2026-05-03T14:34:05Z</time></trkpt><trkpt lat="37.8831165" lon="14.3830349"><ele>1124.0</ele><time>2026-05-03T14:34:06Z</time></trkpt><trkpt lat="37.8828463" lon="14.3830681"><ele>1122.0</ele><time>2026-05-03T14:34:07Z</time></trkpt><trkpt lat="37.8825941" lon="14.3831029"><ele>1120.0</ele><time>2026-05-03T14:34:08Z</time></trkpt><trkpt lat="37.8823542" lon="14.3831398"><ele>1120.0</ele><time>2026-05-03T14:34:09Z</time></trkpt><trkpt lat="37.8821306" lon="14.3831755"><ele>1120.0</ele><time>2026-05-03T14:34:10Z</time></trkpt><trkpt lat="37.8819426" lon="14.3831942"><ele>1120.0</ele><time>2026-05-03T14:34:11Z</time></trkpt><trkpt lat="37.8817697" lon="14.3831877"><ele>1120.0</ele><time>2026-05-03T14:34:12Z</time></trkpt><trkpt lat="37.881616" lon="14.3831268"><ele>1120.0</ele><time>2026-05-03T14:34:13Z</time></trkpt><trkpt lat="37.8814663" lon="14.3830247"><ele>1120.0</ele><time>2026-05-03T14:34:14Z</time></trkpt><trkpt lat="37.8813299" lon="14.3828859"><ele>1118.3333333333333</ele><time>2026-05-03T14:34:15Z</time></trkpt><trkpt lat="37.8812001" lon="14.3826907"><ele>1116.6666666666667</ele><time>2026-05-03T14:34:16Z</time></trkpt><trkpt lat="37.881089" lon="14.3824642"><ele>1115.0</ele><time>2026-05-03T14:34:17Z</time></trkpt><trkpt lat="37.8809814" lon="14.382227"><ele>1113.3333333333335</ele><time>2026-05-03T14:34:18Z</time></trkpt><trkpt lat="37.8808706" lon="14.3819875"><ele>1111.6666666666667</ele><time>2026-05-03T14:34:19Z</time></trkpt><trkpt lat="37.8807689" lon="14.3817515"><ele>1110.0</ele><time>2026-05-03T14:34:20Z</time></trkpt><trkpt lat="37.8806698" lon="14.38153"><ele>1103.6666666666667</ele><time>2026-05-03T14:34:21Z</time></trkpt><trkpt lat="37.8805698" lon="14.3813386"><ele>1097.3333333333335</ele><time>2026-05-03T14:34:22Z</time></trkpt><trkpt lat="37.8804475" lon="14.3811792"><ele>1091.0</ele><time>2026-05-03T14:34:23Z</time></trkpt><trkpt lat="37.8803076" lon="14.3810512"><ele>1091.0</ele><time>2026-05-03T14:34:24Z</time></trkpt><trkpt lat="37.8801552" lon="14.3809557"><ele>1091.0</ele><time>2026-05-03T14:34:25Z</time></trkpt><trkpt lat="37.8799962" lon="14.3808941"><ele>1091.0</ele><time>2026-05-03T14:34:26Z</time></trkpt><trkpt lat="37.8798443" lon="14.3808752"><ele>1093.0</ele><time>2026-05-03T14:34:27Z</time></trkpt><trkpt lat="37.8797043" lon="14.3809276"><ele>1095.0</ele><time>2026-05-03T14:34:28Z</time></trkpt><trkpt lat="37.8795665" lon="14.3810234"><ele>1097.0</ele><time>2026-05-03T14:34:29Z</time></trkpt><trkpt lat="37.8794241" lon="14.381148"><ele>1097.0</ele><time>2026-05-03T14:34:30Z</time></trkpt><trkpt lat="37.8792783" lon="14.3812756"><ele>1097.0</ele><time>2026-05-03T14:34:31Z</time></trkpt><trkpt lat="37.8791332" lon="14.3814103"><ele>1097.0</ele><time>2026-05-03T14:34:32Z</time></trkpt><trkpt lat="37.878987" lon="14.3815409"><ele>1098.75</ele><time>2026-05-03T14:34:33Z</time></trkpt><trkpt lat="37.8788489" lon="14.3816534"><ele>1100.5</ele><time>2026-05-03T14:34:34Z</time></trkpt><trkpt lat="37.8787214" lon="14.3817316"><ele>1102.25</ele><time>2026-05-03T14:34:35Z</time></trkpt><trkpt lat="37.8786052" lon="14.3817552"><ele>1104.0</ele><time>2026-05-03T14:34:36Z</time></trkpt><trkpt lat="37.8784941" lon="14.3817199"><ele>1100.5</ele><time>2026-05-03T14:34:37Z</time></trkpt><trkpt lat="37.8783939" lon="14.381623"><ele>1097.0</ele><time>2026-05-03T14:34:38Z</time></trkpt><trkpt lat="37.8782842" lon="14.3814981"><ele>1093.5</ele><time>2026-05-03T14:34:39Z</time></trkpt><trkpt lat="37.8781404" lon="14.3813926"><ele>1090.0</ele><time>2026-05-03T14:34:40Z</time></trkpt><trkpt lat="37.8779905" lon="14.381306"><ele>1082.6666666666665</ele><time>2026-05-03T14:34:41Z</time></trkpt><trkpt lat="37.877835" lon="14.3812269"><ele>1075.3333333333333</ele><time>2026-05-03T14:34:42Z</time></trkpt><trkpt lat="37.877672" lon="14.3811602"><ele>1068.0</ele><time>2026-05-03T14:34:43Z</time></trkpt><trkpt lat="37.8775108" lon="14.3810926"><ele>1068.0</ele><time>2026-05-03T14:34:44Z</time></trkpt><trkpt lat="37.8773621" lon="14.3810273"><ele>1068.0</ele><time>2026-05-03T14:34:45Z</time></trkpt><trkpt lat="37.8772106" lon="14.3809731"><ele>1068.0</ele><time>2026-05-03T14:34:46Z</time></trkpt><trkpt lat="37.877072" lon="14.3809481"><ele>1068.0</ele><time>2026-05-03T14:34:47Z</time></trkpt><trkpt lat="37.8769382" lon="14.3809599"><ele>1068.0</ele><time>2026-05-03T14:34:48Z</time></trkpt><trkpt lat="37.8768121" lon="14.3810065"><ele>1068.0</ele><time>2026-05-03T14:34:49Z</time></trkpt><trkpt lat="37.8766972" lon="14.3810799"><ele>1068.0</ele><time>2026-05-03T14:34:50Z</time></trkpt><trkpt lat="37.8765826" lon="14.3811619"><ele>1066.5</ele><time>2026-05-03T14:34:51Z</time></trkpt><trkpt lat="37.8764856" lon="14.3812709"><ele>1065.0</ele><time>2026-05-03T14:34:52Z</time></trkpt><trkpt lat="37.8763941" lon="14.3814082"><ele>1063.5</ele><time>2026-05-03T14:34:53Z</time></trkpt><trkpt lat="37.8763001" lon="14.3815701"><ele>1062.0</ele><time>2026-05-03T14:34:54Z</time></trkpt><trkpt lat="37.8762035" lon="14.3817437"><ele>1067.6666666666667</ele><time>2026-05-03T14:34:55Z</time></trkpt><trkpt lat="37.8760905" lon="14.3819178"><ele>1073.3333333333335</ele><time>2026-05-03T14:34:56Z</time></trkpt><trkpt lat="37.8759804" lon="14.3820814"><ele>1079.0</ele><time>2026-05-03T14:34:57Z</time></trkpt><trkpt lat="37.8758772" lon="14.3822138"><ele>1079.0</ele><time>2026-05-03T14:34:58Z</time></trkpt><trkpt lat="37.8757714" lon="14.3823271"><ele>1079.0</ele><time>2026-05-03T14:34:59Z</time></trkpt><trkpt lat="37.875669" lon="14.3824122"><ele>1079.0</ele><time>2026-05-03T14:35:00Z</time></trkpt><trkpt lat="37.8755615" lon="14.3824654"><ele>1079.0</ele><time>2026-05-03T14:35:01Z</time></trkpt><trkpt lat="37.8754535" lon="14.3824878"><ele>1079.0</ele><time>2026-05-03T14:35:02Z</time></trkpt><trkpt lat="37.8753358" lon="14.3824902"><ele>1079.0</ele><time>2026-05-03T14:35:03Z</time></trkpt><trkpt lat="37.8752128" lon="14.3824749"><ele>1079.0</ele><time>2026-05-03T14:35:04Z</time></trkpt><trkpt lat="37.8750891" lon="14.3824575"><ele>1079.0</ele><time>2026-05-03T14:35:05Z</time></trkpt><trkpt lat="37.8749747" lon="14.3824386"><ele>1076.75</ele><time>2026-05-03T14:35:06Z</time></trkpt><trkpt lat="37.8748552" lon="14.3824158"><ele>1074.5</ele><time>2026-05-03T14:35:07Z</time></trkpt><trkpt lat="37.8747367" lon="14.3823997"><ele>1072.25</ele><time>2026-05-03T14:35:08Z</time></trkpt><trkpt lat="37.8746189" lon="14.382377"><ele>1070.0</ele><time>2026-05-03T14:35:09Z</time></trkpt><trkpt lat="37.8745008" lon="14.3823548"><ele>1070.0</ele><time>2026-05-03T14:35:10Z</time></trkpt><trkpt lat="37.8743916" lon="14.3823361"><ele>1070.0</ele><time>2026-05-03T14:35:11Z</time></trkpt><trkpt lat="37.8742962" lon="14.382335"><ele>1070.0</ele><time>2026-05-03T14:35:12Z</time></trkpt><trkpt lat="37.8742083" lon="14.3823626"><ele>1070.0</ele><time>2026-05-03T14:35:12.999Z</time></trkpt><trkpt lat="37.874133" lon="14.3824104"><ele>1070.0</ele><time>2026-05-03T14:35:14Z</time></trkpt><trkpt lat="37.8740707" lon="14.382485"><ele>1070.0</ele><time>2026-05-03T14:35:15Z</time></trkpt><trkpt lat="37.8740165" lon="14.3825919"><ele>1070.0</ele><time>2026-05-03T14:35:16Z</time></trkpt><trkpt lat="37.8739735" lon="14.3827277"><ele>1070.0</ele><time>2026-05-03T14:35:17Z</time></trkpt><trkpt lat="37.8739239" lon="14.3828627"><ele>1070.0</ele><time>2026-05-03T14:35:18Z</time></trkpt><trkpt lat="37.8738676" lon="14.3830053"><ele>1073.75</ele><time>2026-05-03T14:35:19Z</time></trkpt><trkpt lat="37.8737972" lon="14.3831577"><ele>1077.5</ele><time>2026-05-03T14:35:20Z</time></trkpt><trkpt lat="37.8737275" lon="14.383319"><ele>1081.25</ele><time>2026-05-03T14:35:21Z</time></trkpt><trkpt lat="37.8736361" lon="14.3834766"><ele>1085.0</ele><time>2026-05-03T14:35:22Z</time></trkpt><trkpt lat="37.8735292" lon="14.383637"><ele>1083.3333333333335</ele><time>2026-05-03T14:35:23Z</time></trkpt><trkpt lat="37.8734025" lon="14.3837963"><ele>1081.6666666666667</ele><time>2026-05-03T14:35:24Z</time></trkpt><trkpt lat="37.8732665" lon="14.3839586"><ele>1080.0</ele><time>2026-05-03T14:35:25Z</time></trkpt><trkpt lat="37.8731001" lon="14.3841369"><ele>1080.0</ele><time>2026-05-03T14:35:26Z</time></trkpt><trkpt lat="37.8729129" lon="14.3843396"><ele>1080.0</ele><time>2026-05-03T14:35:27Z</time></trkpt><trkpt lat="37.8727093" lon="14.3845493"><ele>1077.5</ele><time>2026-05-03T14:35:28Z</time></trkpt><trkpt lat="37.8724714" lon="14.3847651"><ele>1075.0</ele><time>2026-05-03T14:35:29Z</time></trkpt><trkpt lat="37.8722161" lon="14.3849747"><ele>1075.0</ele><time>2026-05-03T14:35:29.999Z</time></trkpt><trkpt lat="37.8719736" lon="14.3851654"><ele>1075.0</ele><time>2026-05-03T14:35:31Z</time></trkpt><trkpt lat="37.8717402" lon="14.3853552"><ele>1081.0</ele><time>2026-05-03T14:35:32Z</time></trkpt><trkpt lat="37.8715214" lon="14.3855465"><ele>1087.0</ele><time>2026-05-03T14:35:33Z</time></trkpt><trkpt lat="37.8713026" lon="14.3857451"><ele>1087.0</ele><time>2026-05-03T14:35:34Z</time></trkpt><trkpt lat="37.8710815" lon="14.3859461"><ele>1087.0</ele><time>2026-05-03T14:35:35Z</time></trkpt><trkpt lat="37.8708567" lon="14.3861451"><ele>1089.0</ele><time>2026-05-03T14:35:36Z</time></trkpt><trkpt lat="37.8706378" lon="14.3863662"><ele>1091.0</ele><time>2026-05-03T14:35:37Z</time></trkpt><trkpt lat="37.8704309" lon="14.3865969"><ele>1091.0</ele><time>2026-05-03T14:35:38Z</time></trkpt><trkpt lat="37.8702344" lon="14.3868437"><ele>1091.0</ele><time>2026-05-03T14:35:39Z</time></trkpt><trkpt lat="37.8700558" lon="14.3870757"><ele>1087.0</ele><time>2026-05-03T14:35:40Z</time></trkpt><trkpt lat="37.8698936" lon="14.3873072"><ele>1083.0</ele><time>2026-05-03T14:35:41Z</time></trkpt><trkpt lat="37.8697414" lon="14.3875281"><ele>1083.0</ele><time>2026-05-03T14:35:42Z</time></trkpt><trkpt lat="37.8696006" lon="14.3877419"><ele>1083.0</ele><time>2026-05-03T14:35:43Z</time></trkpt><trkpt lat="37.869468" lon="14.3879468"><ele>1083.0</ele><time>2026-05-03T14:35:44Z</time></trkpt><trkpt lat="37.8693418" lon="14.3881513"><ele>1080.0</ele><time>2026-05-03T14:35:45Z</time></trkpt><trkpt lat="37.8692221" lon="14.3883422"><ele>1077.0</ele><time>2026-05-03T14:35:46Z</time></trkpt><trkpt lat="37.8691096" lon="14.3885217"><ele>1074.0</ele><time>2026-05-03T14:35:47Z</time></trkpt><trkpt lat="37.8689981" lon="14.3886876"><ele>1074.0</ele><time>2026-05-03T14:35:48Z</time></trkpt><trkpt lat="37.8688934" lon="14.388841"><ele>1074.0</ele><time>2026-05-03T14:35:49Z</time></trkpt><trkpt lat="37.8687958" lon="14.3889778"><ele>1074.0</ele><time>2026-05-03T14:35:50Z</time></trkpt><trkpt lat="37.8687107" lon="14.3890931"><ele>1074.0</ele><time>2026-05-03T14:35:51Z</time></trkpt><trkpt lat="37.8686346" lon="14.3891954"><ele>1073.6000000000001</ele><time>2026-05-03T14:35:52Z</time></trkpt><trkpt lat="37.8685715" lon="14.3892821"><ele>1073.2</ele><time>2026-05-03T14:35:53Z</time></trkpt><trkpt lat="37.8685059" lon="14.3893718"><ele>1072.8000000000002</ele><time>2026-05-03T14:35:54Z</time></trkpt><trkpt lat="37.8684277" lon="14.3894703"><ele>1072.4</ele><time>2026-05-03T14:35:55Z</time></trkpt><trkpt lat="37.868347" lon="14.3895739"><ele>1072.0</ele><time>2026-05-03T14:35:56Z</time></trkpt><trkpt lat="37.8682692" lon="14.3896613"><ele>1074.4</ele><time>2026-05-03T14:35:57Z</time></trkpt><trkpt lat="37.8681787" lon="14.3897303"><ele>1076.8000000000002</ele><time>2026-05-03T14:35:58Z</time></trkpt><trkpt lat="37.8680837" lon="14.3897896"><ele>1079.2</ele><time>2026-05-03T14:35:59Z</time></trkpt><trkpt lat="37.8679944" lon="14.3898471"><ele>1081.6000000000001</ele><time>2026-05-03T14:36:00Z</time></trkpt><trkpt lat="37.8679066" lon="14.3899291"><ele>1084.0</ele><time>2026-05-03T14:36:01Z</time></trkpt><trkpt lat="37.8678176" lon="14.3900097"><ele>1084.0</ele><time>2026-05-03T14:36:02Z</time></trkpt><trkpt lat="37.8677218" lon="14.3900708"><ele>1084.0</ele><time>2026-05-03T14:36:03Z</time></trkpt><trkpt lat="37.8676166" lon="14.3901329"><ele>1084.0</ele><time>2026-05-03T14:36:04Z</time></trkpt><trkpt lat="37.8674978" lon="14.3901916"><ele>1084.0</ele><time>2026-05-03T14:36:05Z</time></trkpt><trkpt lat="37.8673473" lon="14.3902658"><ele>1086.0</ele><time>2026-05-03T14:36:06Z</time></trkpt><trkpt lat="37.8672097" lon="14.3903412"><ele>1088.0</ele><time>2026-05-03T14:36:07Z</time></trkpt><trkpt lat="37.8670791" lon="14.390406"><ele>1090.0</ele><time>2026-05-03T14:36:08Z</time></trkpt><trkpt lat="37.8669524" lon="14.3904842"><ele>1092.0</ele><time>2026-05-03T14:36:09Z</time></trkpt><trkpt lat="37.866818" lon="14.3905607"><ele>1087.75</ele><time>2026-05-03T14:36:10Z</time></trkpt><trkpt lat="37.8667103" lon="14.3906456"><ele>1083.5</ele><time>2026-05-03T14:36:11Z</time></trkpt><trkpt lat="37.8666265" lon="14.3907509"><ele>1079.25</ele><time>2026-05-03T14:36:12Z</time></trkpt><trkpt lat="37.8665667" lon="14.3908876"><ele>1075.0</ele><time>2026-05-03T14:36:13Z</time></trkpt><trkpt lat="37.8665375" lon="14.3910445"><ele>1075.0</ele><time>2026-05-03T14:36:14Z</time></trkpt><trkpt lat="37.8665155" lon="14.3912238"><ele>1075.0</ele><time>2026-05-03T14:36:15Z</time></trkpt><trkpt lat="37.8664971" lon="14.3914135"><ele>1075.0</ele><time>2026-05-03T14:36:16Z</time></trkpt><trkpt lat="37.8664809" lon="14.3915836"><ele>1075.0</ele><time>2026-05-03T14:36:17Z</time></trkpt><trkpt lat="37.8664453" lon="14.3917133"><ele>1077.25</ele><time>2026-05-03T14:36:18Z</time></trkpt><trkpt lat="37.8663767" lon="14.3918102"><ele>1079.5</ele><time>2026-05-03T14:36:19Z</time></trkpt><trkpt lat="37.8662854" lon="14.3919062"><ele>1081.75</ele><time>2026-05-03T14:36:20Z</time></trkpt><trkpt lat="37.8661734" lon="14.3920154"><ele>1084.0</ele><time>2026-05-03T14:36:21Z</time></trkpt><trkpt lat="37.8660494" lon="14.3921387"><ele>1082.6666666666665</ele><time>2026-05-03T14:36:22Z</time></trkpt><trkpt lat="37.8659123" lon="14.3922604"><ele>1081.3333333333333</ele><time>2026-05-03T14:36:23Z</time></trkpt><trkpt lat="37.8657709" lon="14.3923876"><ele>1080.0</ele><time>2026-05-03T14:36:24Z</time></trkpt><trkpt lat="37.8656235" lon="14.3925192"><ele>1080.0</ele><time>2026-05-03T14:36:25Z</time></trkpt><trkpt lat="37.8654694" lon="14.3926444"><ele>1080.0</ele><time>2026-05-03T14:36:26Z</time></trkpt><trkpt lat="37.8653064" lon="14.3927649"><ele>1080.0</ele><time>2026-05-03T14:36:27Z</time></trkpt><trkpt lat="37.8651468" lon="14.39288"><ele>1078.3333333333333</ele><time>2026-05-03T14:36:28Z</time></trkpt><trkpt lat="37.8649834" lon="14.3929909"><ele>1076.6666666666665</ele><time>2026-05-03T14:36:29Z</time></trkpt><trkpt lat="37.8648157" lon="14.3931011"><ele>1075.0</ele><time>2026-05-03T14:36:30Z</time></trkpt><trkpt lat="37.8646477" lon="14.3932018"><ele>1077.0</ele><time>2026-05-03T14:36:31Z</time></trkpt><trkpt lat="37.8644766" lon="14.3933128"><ele>1079.0</ele><time>2026-05-03T14:36:32Z</time></trkpt><trkpt lat="37.8642957" lon="14.3934189"><ele>1081.0</ele><time>2026-05-03T14:36:33Z</time></trkpt><trkpt lat="37.8641076" lon="14.3935249"><ele>1081.0</ele><time>2026-05-03T14:36:34Z</time></trkpt><trkpt lat="37.8639171" lon="14.3936243"><ele>1081.0</ele><time>2026-05-03T14:36:35Z</time></trkpt><trkpt lat="37.8637188" lon="14.3937295"><ele>1081.0</ele><time>2026-05-03T14:36:36Z</time></trkpt><trkpt lat="37.863522" lon="14.3938389"><ele>1084.3333333333333</ele><time>2026-05-03T14:36:37Z</time></trkpt><trkpt lat="37.8633279" lon="14.3939482"><ele>1087.6666666666667</ele><time>2026-05-03T14:36:38Z</time></trkpt><trkpt lat="37.863123" lon="14.3940618"><ele>1091.0</ele><time>2026-05-03T14:36:39Z</time></trkpt><trkpt lat="37.8629213" lon="14.3941746"><ele>1091.0</ele><time>2026-05-03T14:36:40Z</time></trkpt><trkpt lat="37.8627141" lon="14.3942925"><ele>1091.0</ele><time>2026-05-03T14:36:40.999Z</time></trkpt><trkpt lat="37.8625086" lon="14.3944028"><ele>1087.0</ele><time>2026-05-03T14:36:42Z</time></trkpt><trkpt lat="37.8622983" lon="14.3945183"><ele>1083.0</ele><time>2026-05-03T14:36:43Z</time></trkpt><trkpt lat="37.8620858" lon="14.3946324"><ele>1088.5</ele><time>2026-05-03T14:36:44Z</time></trkpt><trkpt lat="37.8618694" lon="14.3947494"><ele>1094.0</ele><time>2026-05-03T14:36:45Z</time></trkpt><trkpt lat="37.8616538" lon="14.394865"><ele>1094.0</ele><time>2026-05-03T14:36:46Z</time></trkpt><trkpt lat="37.8614297" lon="14.3949808"><ele>1094.0</ele><time>2026-05-03T14:36:47Z</time></trkpt><trkpt lat="37.8611985" lon="14.3950915"><ele>1094.0</ele><time>2026-05-03T14:36:48Z</time></trkpt><trkpt lat="37.8609642" lon="14.3951984"><ele>1094.0</ele><time>2026-05-03T14:36:49Z</time></trkpt><trkpt lat="37.8607277" lon="14.3952964"><ele>1090.0</ele><time>2026-05-03T14:36:50Z</time></trkpt><trkpt lat="37.8604862" lon="14.3953893"><ele>1086.0</ele><time>2026-05-03T14:36:51Z</time></trkpt><trkpt lat="37.8602389" lon="14.3954776"><ele>1088.5</ele><time>2026-05-03T14:36:52Z</time></trkpt><trkpt lat="37.8599897" lon="14.3955647"><ele>1091.0</ele><time>2026-05-03T14:36:53Z</time></trkpt><trkpt lat="37.8597318" lon="14.3956449"><ele>1091.0</ele><time>2026-05-03T14:36:54Z</time></trkpt><trkpt lat="37.8594666" lon="14.395717"><ele>1091.0</ele><time>2026-05-03T14:36:55Z</time></trkpt><trkpt lat="37.8591993" lon="14.3957825"><ele>1087.5</ele><time>2026-05-03T14:36:56Z</time></trkpt><trkpt lat="37.8589279" lon="14.3958408"><ele>1084.0</ele><time>2026-05-03T14:36:57Z</time></trkpt><trkpt lat="37.8586567" lon="14.3958999"><ele>1081.5</ele><time>2026-05-03T14:36:58Z</time></trkpt><trkpt lat="37.8583862" lon="14.3959575"><ele>1079.0</ele><time>2026-05-03T14:36:59Z</time></trkpt><trkpt lat="37.8581127" lon="14.3960198"><ele>1079.0</ele><time>2026-05-03T14:37:00Z</time></trkpt><trkpt lat="37.8578477" lon="14.3960854"><ele>1079.0</ele><time>2026-05-03T14:37:01Z</time></trkpt><trkpt lat="37.8575892" lon="14.3961641"><ele>1082.5</ele><time>2026-05-03T14:37:02Z</time></trkpt><trkpt lat="37.8573349" lon="14.3962561"><ele>1086.0</ele><time>2026-05-03T14:37:03Z</time></trkpt><trkpt lat="37.857089" lon="14.3963621"><ele>1091.5</ele><time>2026-05-03T14:37:04Z</time></trkpt><trkpt lat="37.8568508" lon="14.3964816"><ele>1097.0</ele><time>2026-05-03T14:37:05Z</time></trkpt><trkpt lat="37.8566139" lon="14.3966049"><ele>1101.5</ele><time>2026-05-03T14:37:06Z</time></trkpt><trkpt lat="37.8563799" lon="14.3967282"><ele>1106.0</ele><time>2026-05-03T14:37:07Z</time></trkpt><trkpt lat="37.8561474" lon="14.3968625"><ele>1105.5</ele><time>2026-05-03T14:37:08Z</time></trkpt><trkpt lat="37.8559332" lon="14.3970919"><ele>1105.0</ele><time>2026-05-03T14:37:09Z</time></trkpt><trkpt lat="37.8557149" lon="14.3972701"><ele>1105.0</ele><time>2026-05-03T14:37:10Z</time></trkpt><trkpt lat="37.8554966" lon="14.3974654"><ele>1105.0</ele><time>2026-05-03T14:37:11Z</time></trkpt><trkpt lat="37.8552777" lon="14.3976524"><ele>1099.5</ele><time>2026-05-03T14:37:12Z</time></trkpt><trkpt lat="37.8550594" lon="14.3978197"><ele>1094.0</ele><time>2026-05-03T14:37:13Z</time></trkpt><trkpt lat="37.8548472" lon="14.397979"><ele>1101.0</ele><time>2026-05-03T14:37:14Z</time></trkpt><trkpt lat="37.8546227" lon="14.3981187"><ele>1108.0</ele><time>2026-05-03T14:37:15Z</time></trkpt><trkpt lat="37.8543919" lon="14.3982388"><ele>1106.0</ele><time>2026-05-03T14:37:16Z</time></trkpt><trkpt lat="37.8541549" lon="14.3983274"><ele>1104.0</ele><time>2026-05-03T14:37:17Z</time></trkpt><trkpt lat="37.8539147" lon="14.398398"><ele>1104.0</ele><time>2026-05-03T14:37:18Z</time></trkpt><trkpt lat="37.8536693" lon="14.398441"><ele>1104.0</ele><time>2026-05-03T14:37:19Z</time></trkpt><trkpt lat="37.8534171" lon="14.3984556"><ele>1105.5</ele><time>2026-05-03T14:37:20Z</time></trkpt><trkpt lat="37.8531573" lon="14.3984513"><ele>1107.0</ele><time>2026-05-03T14:37:21Z</time></trkpt><trkpt lat="37.8529028" lon="14.3984176"><ele>1107.0</ele><time>2026-05-03T14:37:22Z</time></trkpt><trkpt lat="37.8526437" lon="14.3983595"><ele>1107.0</ele><time>2026-05-03T14:37:23Z</time></trkpt><trkpt lat="37.8523946" lon="14.3982874"><ele>1110.0</ele><time>2026-05-03T14:37:24Z</time></trkpt><trkpt lat="37.8521463" lon="14.398202"><ele>1113.0</ele><time>2026-05-03T14:37:25Z</time></trkpt><trkpt lat="37.8518949" lon="14.3981101"><ele>1114.5</ele><time>2026-05-03T14:37:26Z</time></trkpt><trkpt lat="37.8516451" lon="14.3980146"><ele>1116.0</ele><time>2026-05-03T14:37:27Z</time></trkpt><trkpt lat="37.8514016" lon="14.3979182"><ele>1116.0</ele><time>2026-05-03T14:37:28Z</time></trkpt><trkpt lat="37.8511566" lon="14.3978263"><ele>1116.0</ele><time>2026-05-03T14:37:29Z</time></trkpt><trkpt lat="37.8509131" lon="14.3977295"><ele>1118.0</ele><time>2026-05-03T14:37:30Z</time></trkpt><trkpt lat="37.8506729" lon="14.3976231"><ele>1120.0</ele><time>2026-05-03T14:37:31Z</time></trkpt><trkpt lat="37.8504406" lon="14.3975069"><ele>1120.0</ele><time>2026-05-03T14:37:32Z</time></trkpt><trkpt lat="37.8502115" lon="14.3973655"><ele>1120.0</ele><time>2026-05-03T14:37:33Z</time></trkpt><trkpt lat="37.8499924" lon="14.3972068"><ele>1116.5</ele><time>2026-05-03T14:37:34Z</time></trkpt><trkpt lat="37.8497845" lon="14.3970306"><ele>1113.0</ele><time>2026-05-03T14:37:35Z</time></trkpt><trkpt lat="37.8495848" lon="14.3968374"><ele>1113.0</ele><time>2026-05-03T14:37:36Z</time></trkpt><trkpt lat="37.849393" lon="14.3966445"><ele>1113.0</ele><time>2026-05-03T14:37:37Z</time></trkpt><trkpt lat="37.8491995" lon="14.3964509"><ele>1110.5</ele><time>2026-05-03T14:37:38Z</time></trkpt><trkpt lat="37.8490041" lon="14.3962665"><ele>1108.0</ele><time>2026-05-03T14:37:38.999Z</time></trkpt><trkpt lat="37.848799" lon="14.396095"><ele>1108.0</ele><time>2026-05-03T14:37:40Z</time></trkpt><trkpt lat="37.8485911" lon="14.3959413"><ele>1108.0</ele><time>2026-05-03T14:37:41Z</time></trkpt><trkpt lat="37.8483736" lon="14.3958007"><ele>1110.0</ele><time>2026-05-03T14:37:42Z</time></trkpt><trkpt lat="37.8481504" lon="14.3956763"><ele>1112.0</ele><time>2026-05-03T14:37:43Z</time></trkpt><trkpt lat="37.8479182" lon="14.3955827"><ele>1112.0</ele><time>2026-05-03T14:37:43.999Z</time></trkpt><trkpt lat="37.8476814" lon="14.3955264"><ele>1112.0</ele><time>2026-05-03T14:37:45Z</time></trkpt><trkpt lat="37.8474342" lon="14.3955003"><ele>1110.0</ele><time>2026-05-03T14:37:46Z</time></trkpt><trkpt lat="37.8471876" lon="14.395509"><ele>1108.0</ele><time>2026-05-03T14:37:47Z</time></trkpt><trkpt lat="37.8469487" lon="14.3955487"><ele>1107.5</ele><time>2026-05-03T14:37:48Z</time></trkpt><trkpt lat="37.8467074" lon="14.3956223"><ele>1107.0</ele><time>2026-05-03T14:37:49Z</time></trkpt><trkpt lat="37.846472" lon="14.3957308"><ele>1107.0</ele><time>2026-05-03T14:37:50Z</time></trkpt><trkpt lat="37.8462486" lon="14.3958718"><ele>1107.0</ele><time>2026-05-03T14:37:51Z</time></trkpt><trkpt lat="37.8460347" lon="14.3960483"><ele>1107.0</ele><time>2026-05-03T14:37:52Z</time></trkpt><trkpt lat="37.8458434" lon="14.3962474"><ele>1107.0</ele><time>2026-05-03T14:37:53Z</time></trkpt><trkpt lat="37.8456663" lon="14.3964807"><ele>1107.0</ele><time>2026-05-03T14:37:54Z</time></trkpt><trkpt lat="37.8455074" lon="14.3967377"><ele>1107.0</ele><time>2026-05-03T14:37:55Z</time></trkpt><trkpt lat="37.8453655" lon="14.3970199"><ele>1103.5</ele><time>2026-05-03T14:37:56Z</time></trkpt><trkpt lat="37.8452505" lon="14.3973246"><ele>1100.0</ele><time>2026-05-03T14:37:57Z</time></trkpt><trkpt lat="37.8451539" lon="14.3976361"><ele>1104.5</ele><time>2026-05-03T14:37:58Z</time></trkpt><trkpt lat="37.8450648" lon="14.3979596"><ele>1109.0</ele><time>2026-05-03T14:37:59Z</time></trkpt><trkpt lat="37.8449737" lon="14.3982707"><ele>1109.0</ele><time>2026-05-03T14:38:00Z</time></trkpt><trkpt lat="37.8448721" lon="14.3985724"><ele>1109.0</ele><time>2026-05-03T14:38:01Z</time></trkpt><trkpt lat="37.8447531" lon="14.3988639"><ele>1108.5</ele><time>2026-05-03T14:38:02Z</time></trkpt><trkpt lat="37.8446145" lon="14.3991404"><ele>1108.0</ele><time>2026-05-03T14:38:03Z</time></trkpt><trkpt lat="37.8444579" lon="14.3993753"><ele>1110.5</ele><time>2026-05-03T14:38:04Z</time></trkpt><trkpt lat="37.8442883" lon="14.3995914"><ele>1113.0</ele><time>2026-05-03T14:38:05Z</time></trkpt><trkpt lat="37.844106" lon="14.3997856"><ele>1113.0</ele><time>2026-05-03T14:38:06Z</time></trkpt><trkpt lat="37.8439225" lon="14.3999825"><ele>1113.0</ele><time>2026-05-03T14:38:07Z</time></trkpt><trkpt lat="37.8437163" lon="14.4001516"><ele>1112.5</ele><time>2026-05-03T14:38:08Z</time></trkpt><trkpt lat="37.8434439" lon="14.4001939"><ele>1112.0</ele><time>2026-05-03T14:38:09Z</time></trkpt><trkpt lat="37.8432004" lon="14.4002834"><ele>1112.0</ele><time>2026-05-03T14:38:10Z</time></trkpt><trkpt lat="37.8429352" lon="14.4003311"><ele>1112.0</ele><time>2026-05-03T14:38:11Z</time></trkpt><trkpt lat="37.8426734" lon="14.4003449"><ele>1110.5</ele><time>2026-05-03T14:38:12Z</time></trkpt><trkpt lat="37.8423998" lon="14.4003206"><ele>1109.0</ele><time>2026-05-03T14:38:13Z</time></trkpt><trkpt lat="37.8421333" lon="14.4002769"><ele>1109.0</ele><time>2026-05-03T14:38:14Z</time></trkpt><trkpt lat="37.8418554" lon="14.4002136"><ele>1109.0</ele><time>2026-05-03T14:38:15Z</time></trkpt><trkpt lat="37.8415798" lon="14.4001574"><ele>1108.5</ele><time>2026-05-03T14:38:16Z</time></trkpt><trkpt lat="37.8413115" lon="14.4001091"><ele>1108.0</ele><time>2026-05-03T14:38:17Z</time></trkpt><trkpt lat="37.8410405" lon="14.4000796"><ele>1105.5</ele><time>2026-05-03T14:38:18Z</time></trkpt><trkpt lat="37.8407694" lon="14.400077"><ele>1103.0</ele><time>2026-05-03T14:38:19Z</time></trkpt><trkpt lat="37.840497" lon="14.4001026"><ele>1103.0</ele><time>2026-05-03T14:38:20Z</time></trkpt><trkpt lat="37.8402263" lon="14.400157"><ele>1103.0</ele><time>2026-05-03T14:38:21Z</time></trkpt><trkpt lat="37.8399554" lon="14.4002311"><ele>1103.5</ele><time>2026-05-03T14:38:22Z</time></trkpt><trkpt lat="37.8396872" lon="14.4003201"><ele>1104.0</ele><time>2026-05-03T14:38:23Z</time></trkpt><trkpt lat="37.8394204" lon="14.4004071"><ele>1105.5</ele><time>2026-05-03T14:38:24Z</time></trkpt><trkpt lat="37.8391562" lon="14.4004816"><ele>1107.0</ele><time>2026-05-03T14:38:25Z</time></trkpt><trkpt lat="37.8388858" lon="14.4005365"><ele>1101.5</ele><time>2026-05-03T14:38:26Z</time></trkpt><trkpt lat="37.8386142" lon="14.4005668"><ele>1096.0</ele><time>2026-05-03T14:38:27Z</time></trkpt><trkpt lat="37.8383426" lon="14.4005646"><ele>1096.0</ele><time>2026-05-03T14:38:28Z</time></trkpt><trkpt lat="37.8380653" lon="14.4005516"><ele>1096.0</ele><time>2026-05-03T14:38:29Z</time></trkpt><trkpt lat="37.8377855" lon="14.4005256"><ele>1094.5</ele><time>2026-05-03T14:38:30Z</time></trkpt><trkpt lat="37.8375147" lon="14.4005005"><ele>1093.0</ele><time>2026-05-03T14:38:31Z</time></trkpt><trkpt lat="37.8372458" lon="14.4004817"><ele>1091.5</ele><time>2026-05-03T14:38:32Z</time></trkpt><trkpt lat="37.8369752" lon="14.4004821"><ele>1090.0</ele><time>2026-05-03T14:38:33Z</time></trkpt><trkpt lat="37.8367066" lon="14.4005051"><ele>1090.0</ele><time>2026-05-03T14:38:34Z</time></trkpt><trkpt lat="37.8364448" lon="14.400551"><ele>1090.0</ele><time>2026-05-03T14:38:35Z</time></trkpt><trkpt lat="37.8361908" lon="14.4006321"><ele>1091.0</ele><time>2026-05-03T14:38:36Z</time></trkpt><trkpt lat="37.8359457" lon="14.4007536"><ele>1092.0</ele><time>2026-05-03T14:38:37Z</time></trkpt><trkpt lat="37.8357107" lon="14.4009084"><ele>1092.0</ele><time>2026-05-03T14:38:38Z</time></trkpt><trkpt lat="37.8354922" lon="14.401107"><ele>1092.0</ele><time>2026-05-03T14:38:39Z</time></trkpt><trkpt lat="37.8352737" lon="14.4013095"><ele>1096.5</ele><time>2026-05-03T14:38:40Z</time></trkpt><trkpt lat="37.8350905" lon="14.4015786"><ele>1101.0</ele><time>2026-05-03T14:38:41Z</time></trkpt><trkpt lat="37.8349132" lon="14.4018503"><ele>1101.0</ele><time>2026-05-03T14:38:42Z</time></trkpt><trkpt lat="37.8347456" lon="14.402132"><ele>1101.0</ele><time>2026-05-03T14:38:43Z</time></trkpt><trkpt lat="37.8345724" lon="14.4024217"><ele>1095.5</ele><time>2026-05-03T14:38:44Z</time></trkpt><trkpt lat="37.8344007" lon="14.4027121"><ele>1090.0</ele><time>2026-05-03T14:38:44.999Z</time></trkpt><trkpt lat="37.8342242" lon="14.4030026"><ele>1089.0</ele><time>2026-05-03T14:38:46Z</time></trkpt><trkpt lat="37.8340596" lon="14.4033036"><ele>1088.0</ele><time>2026-05-03T14:38:47Z</time></trkpt><trkpt lat="37.8339045" lon="14.4036113"><ele>1084.5</ele><time>2026-05-03T14:38:48Z</time></trkpt><trkpt lat="37.8337673" lon="14.40393"><ele>1081.0</ele><time>2026-05-03T14:38:49Z</time></trkpt><trkpt lat="37.8336482" lon="14.4042598"><ele>1081.0</ele><time>2026-05-03T14:38:50Z</time></trkpt><trkpt lat="37.8335454" lon="14.4045957"><ele>1081.0</ele><time>2026-05-03T14:38:51Z</time></trkpt><trkpt lat="37.8334599" lon="14.4049369"><ele>1084.5</ele><time>2026-05-03T14:38:52Z</time></trkpt><trkpt lat="37.8333735" lon="14.4052798"><ele>1088.0</ele><time>2026-05-03T14:38:53Z</time></trkpt><trkpt lat="37.8332888" lon="14.4056214"><ele>1088.0</ele><time>2026-05-03T14:38:54Z</time></trkpt><trkpt lat="37.833204" lon="14.4059633"><ele>1088.0</ele><time>2026-05-03T14:38:55Z</time></trkpt><trkpt lat="37.8329809" lon="14.4070828"><ele>1079.5</ele><time>2026-05-03T14:38:58Z</time></trkpt><trkpt lat="37.8329042" lon="14.4074157"><ele>1071.0</ele><time>2026-05-03T14:38:59Z</time></trkpt><trkpt lat="37.8328332" lon="14.4077618"><ele>1070.0</ele><time>2026-05-03T14:39:00Z</time></trkpt><trkpt lat="37.8327516" lon="14.4080877"><ele>1069.0</ele><time>2026-05-03T14:39:01Z</time></trkpt><trkpt lat="37.8326677" lon="14.4084016"><ele>1072.5</ele><time>2026-05-03T14:39:02Z</time></trkpt><trkpt lat="37.8325765" lon="14.4087121"><ele>1076.0</ele><time>2026-05-03T14:39:03Z</time></trkpt><trkpt lat="37.8324868" lon="14.4090193"><ele>1076.0</ele><time>2026-05-03T14:39:04Z</time></trkpt><trkpt lat="37.832387" lon="14.4093419"><ele>1076.0</ele><time>2026-05-03T14:39:05Z</time></trkpt><trkpt lat="37.8321959" lon="14.4096016"><ele>1071.5</ele><time>2026-05-03T14:39:06Z</time></trkpt><trkpt lat="37.8319509" lon="14.4098248"><ele>1067.0</ele><time>2026-05-03T14:39:07Z</time></trkpt><trkpt lat="37.8317493" lon="14.4100708"><ele>1066.5</ele><time>2026-05-03T14:39:08Z</time></trkpt><trkpt lat="37.8315364" lon="14.4102958"><ele>1066.0</ele><time>2026-05-03T14:39:09Z</time></trkpt><trkpt lat="37.8312987" lon="14.4105057"><ele>1066.0</ele><time>2026-05-03T14:39:10Z</time></trkpt><trkpt lat="37.8310489" lon="14.4107071"><ele>1066.0</ele><time>2026-05-03T14:39:11Z</time></trkpt><trkpt lat="37.8307983" lon="14.4108884"><ele>1066.0</ele><time>2026-05-03T14:39:12Z</time></trkpt><trkpt lat="37.8305443" lon="14.4110783"><ele>1066.0</ele><time>2026-05-03T14:39:13Z</time></trkpt><trkpt lat="37.8302983" lon="14.4112615"><ele>1064.5</ele><time>2026-05-03T14:39:14Z</time></trkpt><trkpt lat="37.83005" lon="14.4114466"><ele>1063.0</ele><time>2026-05-03T14:39:15Z</time></trkpt><trkpt lat="37.8297985" lon="14.4116312"><ele>1063.0</ele><time>2026-05-03T14:39:16Z</time></trkpt><trkpt lat="37.8295566" lon="14.4118093"><ele>1063.0</ele><time>2026-05-03T14:39:17Z</time></trkpt><trkpt lat="37.8293184" lon="14.4119731"><ele>1063.5</ele><time>2026-05-03T14:39:18Z</time></trkpt><trkpt lat="37.8290797" lon="14.4121274"><ele>1064.0</ele><time>2026-05-03T14:39:19Z</time></trkpt><trkpt lat="37.8288317" lon="14.4122669"><ele>1056.0</ele><time>2026-05-03T14:39:20Z</time></trkpt><trkpt lat="37.8285762" lon="14.4123773"><ele>1048.0</ele><time>2026-05-03T14:39:21Z</time></trkpt><trkpt lat="37.8283081" lon="14.4124652"><ele>1048.0</ele><time>2026-05-03T14:39:22Z</time></trkpt><trkpt lat="37.828031" lon="14.4125309"><ele>1048.0</ele><time>2026-05-03T14:39:23Z</time></trkpt><trkpt lat="37.827745" lon="14.412569"><ele>1047.5</ele><time>2026-05-03T14:39:24Z</time></trkpt><trkpt lat="37.8274554" lon="14.4125906"><ele>1047.0</ele><time>2026-05-03T14:39:25Z</time></trkpt><trkpt lat="37.8271659" lon="14.4126134"><ele>1047.0</ele><time>2026-05-03T14:39:26Z</time></trkpt><trkpt lat="37.8268705" lon="14.4126288"><ele>1047.0</ele><time>2026-05-03T14:39:27Z</time></trkpt><trkpt lat="37.8265813" lon="14.4126491"><ele>1050.0</ele><time>2026-05-03T14:39:28Z</time></trkpt><trkpt lat="37.8262915" lon="14.4126702"><ele>1053.0</ele><time>2026-05-03T14:39:29Z</time></trkpt><trkpt lat="37.8260014" lon="14.41269"><ele>1054.0</ele><time>2026-05-03T14:39:30Z</time></trkpt><trkpt lat="37.8257135" lon="14.4127153"><ele>1055.0</ele><time>2026-05-03T14:39:31Z</time></trkpt><trkpt lat="37.8254284" lon="14.4127421"><ele>1055.0</ele><time>2026-05-03T14:39:32Z</time></trkpt><trkpt lat="37.8251487" lon="14.4127882"><ele>1055.0</ele><time>2026-05-03T14:39:33Z</time></trkpt><trkpt lat="37.8248796" lon="14.4128538"><ele>1055.5</ele><time>2026-05-03T14:39:34Z</time></trkpt><trkpt lat="37.8246166" lon="14.4129416"><ele>1056.0</ele><time>2026-05-03T14:39:35Z</time></trkpt><trkpt lat="37.8243754" lon="14.4130616"><ele>1053.0</ele><time>2026-05-03T14:39:36Z</time></trkpt><trkpt lat="37.8241397" lon="14.4132015"><ele>1050.0</ele><time>2026-05-03T14:39:37Z</time></trkpt><trkpt lat="37.823921" lon="14.4133812"><ele>1050.0</ele><time>2026-05-03T14:39:38Z</time></trkpt><trkpt lat="37.8237137" lon="14.4135938"><ele>1050.0</ele><time>2026-05-03T14:39:39Z</time></trkpt><trkpt lat="37.8235283" lon="14.4138319"><ele>1053.5</ele><time>2026-05-03T14:39:40Z</time></trkpt><trkpt lat="37.8233636" lon="14.4140889"><ele>1057.0</ele><time>2026-05-03T14:39:41Z</time></trkpt><trkpt lat="37.8232134" lon="14.4143743"><ele>1053.0</ele><time>2026-05-03T14:39:42Z</time></trkpt><trkpt lat="37.8230756" lon="14.4146951"><ele>1049.0</ele><time>2026-05-03T14:39:43Z</time></trkpt><trkpt lat="37.8229581" lon="14.415015"><ele>1049.0</ele><time>2026-05-03T14:39:44Z</time></trkpt><trkpt lat="37.8228469" lon="14.4153501"><ele>1049.0</ele><time>2026-05-03T14:39:45Z</time></trkpt><trkpt lat="37.8227375" lon="14.4156812"><ele>1054.0</ele><time>2026-05-03T14:39:46Z</time></trkpt><trkpt lat="37.8226324" lon="14.4160117"><ele>1059.0</ele><time>2026-05-03T14:39:47Z</time></trkpt><trkpt lat="37.8225144" lon="14.4163316"><ele>1059.0</ele><time>2026-05-03T14:39:48Z</time></trkpt><trkpt lat="37.8224061" lon="14.416649"><ele>1059.0</ele><time>2026-05-03T14:39:49Z</time></trkpt><trkpt lat="37.8222959" lon="14.4169648"><ele>1048.0</ele><time>2026-05-03T14:39:50Z</time></trkpt><trkpt lat="37.8196542" lon="14.41813"><ele>1048.0</ele><time>2026-05-03T14:40:01Z</time></trkpt><trkpt lat="37.8193873" lon="14.4179888"><ele>1048.0</ele><time>2026-05-03T14:40:02Z</time></trkpt><trkpt lat="37.8191447" lon="14.4178864"><ele>1045.5</ele><time>2026-05-03T14:40:03Z</time></trkpt><trkpt lat="37.8189471" lon="14.4177067"><ele>1043.0</ele><time>2026-05-03T14:40:04Z</time></trkpt><trkpt lat="37.8187433" lon="14.4175383"><ele>1043.0</ele><time>2026-05-03T14:40:05Z</time></trkpt><trkpt lat="37.8185386" lon="14.4173434"><ele>1043.0</ele><time>2026-05-03T14:40:06Z</time></trkpt><trkpt lat="37.8183454" lon="14.4171448"><ele>1047.0</ele><time>2026-05-03T14:40:07Z</time></trkpt><trkpt lat="37.8181517" lon="14.4169473"><ele>1051.0</ele><time>2026-05-03T14:40:08Z</time></trkpt><trkpt lat="37.8179588" lon="14.4167484"><ele>984.0</ele><time>2026-05-03T14:40:09Z</time></trkpt><trkpt lat="37.8107452" lon="14.4121708"><ele>984.0</ele><time>2026-05-03T14:40:40Z</time></trkpt><trkpt lat="37.8105623" lon="14.4125437"><ele>984.0</ele><time>2026-05-03T14:40:41Z</time></trkpt><trkpt lat="37.8103672" lon="14.4127544"><ele>984.0</ele><time>2026-05-03T14:40:42Z</time></trkpt><trkpt lat="37.8101714" lon="14.4129847"><ele>984.0</ele><time>2026-05-03T14:40:43Z</time></trkpt><trkpt lat="37.8099915" lon="14.4132347"><ele>980.5</ele><time>2026-05-03T14:40:44Z</time></trkpt><trkpt lat="37.8098257" lon="14.4135011"><ele>977.0</ele><time>2026-05-03T14:40:45Z</time></trkpt><trkpt lat="37.8096598" lon="14.4137745"><ele>976.5</ele><time>2026-05-03T14:40:46Z</time></trkpt><trkpt lat="37.8094995" lon="14.4140562"><ele>976.0</ele><time>2026-05-03T14:40:47Z</time></trkpt><trkpt lat="37.8093414" lon="14.4143481"><ele>973.5</ele><time>2026-05-03T14:40:48Z</time></trkpt><trkpt lat="37.8091786" lon="14.4146328"><ele>971.0</ele><time>2026-05-03T14:40:49Z</time></trkpt><trkpt lat="37.809006" lon="14.4149084"><ele>969.5</ele><time>2026-05-03T14:40:50Z</time></trkpt><trkpt lat="37.8088353" lon="14.4151665"><ele>968.0</ele><time>2026-05-03T14:40:51Z</time></trkpt><trkpt lat="37.8086455" lon="14.4153998"><ele>965.0</ele><time>2026-05-03T14:40:52Z</time></trkpt><trkpt lat="37.808434" lon="14.4156098"><ele>962.0</ele><time>2026-05-03T14:40:53Z</time></trkpt><trkpt lat="37.8082132" lon="14.4158011"><ele>962.0</ele><time>2026-05-03T14:40:54Z</time></trkpt><trkpt lat="37.8079832" lon="14.4159775"><ele>962.0</ele><time>2026-05-03T14:40:55Z</time></trkpt><trkpt lat="37.8077445" lon="14.4161468"><ele>963.5</ele><time>2026-05-03T14:40:56Z</time></trkpt><trkpt lat="37.8075043" lon="14.4163091"><ele>965.0</ele><time>2026-05-03T14:40:57Z</time></trkpt><trkpt lat="37.8072639" lon="14.4164663"><ele>965.0</ele><time>2026-05-03T14:40:58Z</time></trkpt><trkpt lat="37.8070243" lon="14.4166312"><ele>965.0</ele><time>2026-05-03T14:40:59Z</time></trkpt><trkpt lat="37.8067836" lon="14.4167964"><ele>965.0</ele><time>2026-05-03T14:41:00Z</time></trkpt><trkpt lat="37.8065392" lon="14.4169572"><ele>965.0</ele><time>2026-05-03T14:41:01Z</time></trkpt><trkpt lat="37.8063052" lon="14.4171204"><ele>960.5</ele><time>2026-05-03T14:41:02Z</time></trkpt><trkpt lat="37.8060621" lon="14.4172854"><ele>956.0</ele><time>2026-05-03T14:41:03Z</time></trkpt><trkpt lat="37.8058234" lon="14.4174438"><ele>956.0</ele><time>2026-05-03T14:41:04Z</time></trkpt><trkpt lat="37.8055869" lon="14.4175995"><ele>956.0</ele><time>2026-05-03T14:41:05Z</time></trkpt><trkpt lat="37.8053585" lon="14.4177655"><ele>955.5</ele><time>2026-05-03T14:41:06Z</time></trkpt><trkpt lat="37.8051337" lon="14.4179435"><ele>955.0</ele><time>2026-05-03T14:41:07Z</time></trkpt><trkpt lat="37.8049174" lon="14.4181339"><ele>954.5</ele><time>2026-05-03T14:41:08Z</time></trkpt><trkpt lat="37.8047042" lon="14.4183383"><ele>954.0</ele><time>2026-05-03T14:41:09Z</time></trkpt><trkpt lat="37.8045076" lon="14.4185632"><ele>948.0</ele><time>2026-05-03T14:41:10Z</time></trkpt><trkpt lat="37.8043284" lon="14.4188028"><ele>942.0</ele><time>2026-05-03T14:41:11Z</time></trkpt><trkpt lat="37.8041658" lon="14.4190624"><ele>941.5</ele><time>2026-05-03T14:41:12Z</time></trkpt><trkpt lat="37.8040246" lon="14.4193455"><ele>941.0</ele><time>2026-05-03T14:41:13Z</time></trkpt><trkpt lat="37.8039108" lon="14.4196384"><ele>939.5</ele><time>2026-05-03T14:41:14Z</time></trkpt><trkpt lat="37.8038152" lon="14.4199425"><ele>938.0</ele><time>2026-05-03T14:41:15Z</time></trkpt><trkpt lat="37.8037397" lon="14.4202561"><ele>935.0</ele><time>2026-05-03T14:41:16Z</time></trkpt><trkpt lat="37.8036866" lon="14.4205781"><ele>932.0</ele><time>2026-05-03T14:41:17Z</time></trkpt><trkpt lat="37.8036578" lon="14.4209028"><ele>932.0</ele><time>2026-05-03T14:41:18Z</time></trkpt><trkpt lat="37.8036502" lon="14.4212308"><ele>932.0</ele><time>2026-05-03T14:41:19Z</time></trkpt><trkpt lat="37.8036638" lon="14.4215591"><ele>929.5</ele><time>2026-05-03T14:41:20Z</time></trkpt><trkpt lat="37.8037031" lon="14.4218848"><ele>927.0</ele><time>2026-05-03T14:41:21Z</time></trkpt><trkpt lat="37.8037498" lon="14.4222067"><ele>926.5</ele><time>2026-05-03T14:41:22Z</time></trkpt><trkpt lat="37.8038312" lon="14.4225275"><ele>926.0</ele><time>2026-05-03T14:41:23Z</time></trkpt><trkpt lat="37.8039145" lon="14.4228495"><ele>927.0</ele><time>2026-05-03T14:41:24Z</time></trkpt><trkpt lat="37.8040069" lon="14.4231745"><ele>928.0</ele><time>2026-05-03T14:41:25Z</time></trkpt><trkpt lat="37.8041018" lon="14.4235056"><ele>932.0</ele><time>2026-05-03T14:41:26Z</time></trkpt><trkpt lat="37.8042056" lon="14.4238321"><ele>936.0</ele><time>2026-05-03T14:41:27Z</time></trkpt><trkpt lat="37.8043031" lon="14.4241621"><ele>926.5</ele><time>2026-05-03T14:41:28Z</time></trkpt><trkpt lat="37.8044031" lon="14.4244902"><ele>917.0</ele><time>2026-05-03T14:41:29Z</time></trkpt><trkpt lat="37.8045047" lon="14.424823"><ele>917.0</ele><time>2026-05-03T14:41:30Z</time></trkpt><trkpt lat="37.8046046" lon="14.4251517"><ele>917.0</ele><time>2026-05-03T14:41:31Z</time></trkpt><trkpt lat="37.8047045" lon="14.4254808"><ele>920.0</ele><time>2026-05-03T14:41:32Z</time></trkpt><trkpt lat="37.8048056" lon="14.4258099"><ele>923.0</ele><time>2026-05-03T14:41:33Z</time></trkpt><trkpt lat="37.8049052" lon="14.4261306"><ele>923.5</ele><time>2026-05-03T14:41:34Z</time></trkpt><trkpt lat="37.8049974" lon="14.42644"><ele>924.0</ele><time>2026-05-03T14:41:35Z</time></trkpt><trkpt lat="37.8050761" lon="14.4267413"><ele>924.0</ele><time>2026-05-03T14:41:36Z</time></trkpt><trkpt lat="37.8051403" lon="14.4270494"><ele>924.0</ele><time>2026-05-03T14:41:37Z</time></trkpt><trkpt lat="37.805187" lon="14.4273547"><ele>907.0</ele><time>2026-05-03T14:41:38Z</time></trkpt><trkpt lat="37.8052217" lon="14.4276711"><ele>890.0</ele><time>2026-05-03T14:41:39Z</time></trkpt><trkpt lat="37.8052461" lon="14.4279875"><ele>887.0</ele><time>2026-05-03T14:41:40Z</time></trkpt><trkpt lat="37.8052523" lon="14.4283063"><ele>884.0</ele><time>2026-05-03T14:41:41Z</time></trkpt><trkpt lat="37.8052409" lon="14.4286303"><ele>881.5</ele><time>2026-05-03T14:41:42Z</time></trkpt><trkpt lat="37.8052145" lon="14.428952"><ele>879.0</ele><time>2026-05-03T14:41:43Z</time></trkpt><trkpt lat="37.8051667" lon="14.4292778"><ele>889.0</ele><time>2026-05-03T14:41:44Z</time></trkpt><trkpt lat="37.805099" lon="14.429604"><ele>899.0</ele><time>2026-05-03T14:41:45Z</time></trkpt><trkpt lat="37.8050183" lon="14.4299319"><ele>899.0</ele><time>2026-05-03T14:41:46Z</time></trkpt><trkpt lat="37.8049225" lon="14.4302565"><ele>899.0</ele><time>2026-05-03T14:41:47Z</time></trkpt><trkpt lat="37.8048192" lon="14.4305851"><ele>898.0</ele><time>2026-05-03T14:41:48Z</time></trkpt><trkpt lat="37.8047089" lon="14.4309181"><ele>897.0</ele><time>2026-05-03T14:41:49Z</time></trkpt><trkpt lat="37.8045963" lon="14.4312595"><ele>894.5</ele><time>2026-05-03T14:41:50Z</time></trkpt><trkpt lat="37.8044846" lon="14.4315999"><ele>892.0</ele><time>2026-05-03T14:41:51Z</time></trkpt><trkpt lat="37.8043758" lon="14.4319218"><ele>889.0</ele><time>2026-05-03T14:41:52Z</time></trkpt><trkpt lat="37.8042784" lon="14.4322285"><ele>886.0</ele><time>2026-05-03T14:41:53Z</time></trkpt><trkpt lat="37.8041791" lon="14.4325197"><ele>886.0</ele><time>2026-05-03T14:41:54Z</time></trkpt><trkpt lat="37.8040834" lon="14.4327976"><ele>886.0</ele><time>2026-05-03T14:41:55Z</time></trkpt><trkpt lat="37.8039788" lon="14.4330688"><ele>880.0</ele><time>2026-05-03T14:41:56Z</time></trkpt><trkpt lat="37.8038587" lon="14.4333134"><ele>874.0</ele><time>2026-05-03T14:41:57Z</time></trkpt><trkpt lat="37.8037238" lon="14.4335468"><ele>874.0</ele><time>2026-05-03T14:41:58Z</time></trkpt><trkpt lat="37.8035698" lon="14.4337643"><ele>874.0</ele><time>2026-05-03T14:41:59Z</time></trkpt><trkpt lat="37.8034014" lon="14.4339422"><ele>872.5</ele><time>2026-05-03T14:42:00Z</time></trkpt><trkpt lat="37.8032054" lon="14.4340938"><ele>871.0</ele><time>2026-05-03T14:42:01Z</time></trkpt><trkpt lat="37.8030016" lon="14.4342182"><ele>871.0</ele><time>2026-05-03T14:42:02Z</time></trkpt><trkpt lat="37.802787" lon="14.4343135"><ele>871.0</ele><time>2026-05-03T14:42:03Z</time></trkpt><trkpt lat="37.8025658" lon="14.4343684"><ele>872.0</ele><time>2026-05-03T14:42:04Z</time></trkpt><trkpt lat="37.8023315" lon="14.4343822"><ele>873.0</ele><time>2026-05-03T14:42:05Z</time></trkpt><trkpt lat="37.8020904" lon="14.4343574"><ele>873.0</ele><time>2026-05-03T14:42:06Z</time></trkpt><trkpt lat="37.8018506" lon="14.4343068"><ele>873.0</ele><time>2026-05-03T14:42:07Z</time></trkpt><trkpt lat="37.8015963" lon="14.4342065"><ele>869.5</ele><time>2026-05-03T14:42:08Z</time></trkpt><trkpt lat="37.8013486" lon="14.4340942"><ele>866.0</ele><time>2026-05-03T14:42:09Z</time></trkpt><trkpt lat="37.8010918" lon="14.4339584"><ele>864.5</ele><time>2026-05-03T14:42:10Z</time></trkpt><trkpt lat="37.8008397" lon="14.4338303"><ele>863.0</ele><time>2026-05-03T14:42:11Z</time></trkpt><trkpt lat="37.8005906" lon="14.4336997"><ele>863.0</ele><time>2026-05-03T14:42:12Z</time></trkpt><trkpt lat="37.8003413" lon="14.4335633"><ele>863.0</ele><time>2026-05-03T14:42:13Z</time></trkpt><trkpt lat="37.8001035" lon="14.4334296"><ele>858.0</ele><time>2026-05-03T14:42:14Z</time></trkpt><trkpt lat="37.799877" lon="14.4332694"><ele>853.0</ele><time>2026-05-03T14:42:15Z</time></trkpt><trkpt lat="37.7996733" lon="14.4330781"><ele>856.5</ele><time>2026-05-03T14:42:16Z</time></trkpt><trkpt lat="37.7994998" lon="14.4328532"><ele>860.0</ele><time>2026-05-03T14:42:17Z</time></trkpt><trkpt lat="37.7993462" lon="14.4326128"><ele>856.0</ele><time>2026-05-03T14:42:18Z</time></trkpt><trkpt lat="37.7992209" lon="14.4323536"><ele>852.0</ele><time>2026-05-03T14:42:19Z</time></trkpt><trkpt lat="37.7991293" lon="14.4320722"><ele>852.0</ele><time>2026-05-03T14:42:20Z</time></trkpt><trkpt lat="37.7990597" lon="14.4317789"><ele>852.0</ele><time>2026-05-03T14:42:21Z</time></trkpt><trkpt lat="37.7990301" lon="14.4314761"><ele>852.5</ele><time>2026-05-03T14:42:22Z</time></trkpt><trkpt lat="37.7990315" lon="14.4311637"><ele>853.0</ele><time>2026-05-03T14:42:23Z</time></trkpt><trkpt lat="37.7990622" lon="14.430859"><ele>853.0</ele><time>2026-05-03T14:42:24Z</time></trkpt><trkpt lat="37.799111" lon="14.4305456"><ele>853.0</ele><time>2026-05-03T14:42:25Z</time></trkpt><trkpt lat="37.7991712" lon="14.4302288"><ele>853.5</ele><time>2026-05-03T14:42:26Z</time></trkpt><trkpt lat="37.7992365" lon="14.429909"><ele>854.0</ele><time>2026-05-03T14:42:27Z</time></trkpt><trkpt lat="37.7993061" lon="14.4295884"><ele>856.5</ele><time>2026-05-03T14:42:28Z</time></trkpt><trkpt lat="37.7993737" lon="14.4292669"><ele>859.0</ele><time>2026-05-03T14:42:29Z</time></trkpt><trkpt lat="37.7994415" lon="14.4289428"><ele>857.0</ele><time>2026-05-03T14:42:30Z</time></trkpt><trkpt lat="37.7995107" lon="14.4286127"><ele>855.0</ele><time>2026-05-03T14:42:31Z</time></trkpt><trkpt lat="37.7995817" lon="14.4282823"><ele>853.5</ele><time>2026-05-03T14:42:32Z</time></trkpt><trkpt lat="37.7996565" lon="14.4279504"><ele>852.0</ele><time>2026-05-03T14:42:33Z</time></trkpt><trkpt lat="37.799729" lon="14.4276168"><ele>852.0</ele><time>2026-05-03T14:42:34Z</time></trkpt><trkpt lat="37.7997963" lon="14.4272827"><ele>852.0</ele><time>2026-05-03T14:42:35Z</time></trkpt><trkpt lat="37.799866" lon="14.4269508"><ele>853.5</ele><time>2026-05-03T14:42:36Z</time></trkpt><trkpt lat="37.7999283" lon="14.4266243"><ele>855.0</ele><time>2026-05-03T14:42:37Z</time></trkpt><trkpt lat="37.7999783" lon="14.4262908"><ele>857.5</ele><time>2026-05-03T14:42:38Z</time></trkpt><trkpt lat="37.8000155" lon="14.42596"><ele>860.0</ele><time>2026-05-03T14:42:39Z</time></trkpt><trkpt lat="37.8000245" lon="14.4256488"><ele>860.0</ele><time>2026-05-03T14:42:40Z</time></trkpt><trkpt lat="37.8000151" lon="14.4253561"><ele>860.0</ele><time>2026-05-03T14:42:41Z</time></trkpt><trkpt lat="37.7999818" lon="14.4250789"><ele>860.0</ele><time>2026-05-03T14:42:42Z</time></trkpt><trkpt lat="37.7999317" lon="14.4248224"><ele>860.0</ele><time>2026-05-03T14:42:43Z</time></trkpt><trkpt lat="37.7998659" lon="14.424582"><ele>860.0</ele><time>2026-05-03T14:42:44Z</time></trkpt><trkpt lat="37.7997873" lon="14.4243571"><ele>860.3333333333334</ele><time>2026-05-03T14:42:45Z</time></trkpt><trkpt lat="37.7996929" lon="14.4241389"><ele>860.6666666666667</ele><time>2026-05-03T14:42:46Z</time></trkpt><trkpt lat="37.7995825" lon="14.4239425"><ele>861.0</ele><time>2026-05-03T14:42:47Z</time></trkpt><trkpt lat="37.7994606" lon="14.4237573"><ele>859.6666666666667</ele><time>2026-05-03T14:42:48Z</time></trkpt><trkpt lat="37.7993282" lon="14.423586"><ele>858.3333333333334</ele><time>2026-05-03T14:42:49Z</time></trkpt><trkpt lat="37.7991837" lon="14.4234249"><ele>857.0</ele><time>2026-05-03T14:42:50Z</time></trkpt><trkpt lat="37.7990285" lon="14.4232826"><ele>857.0</ele><time>2026-05-03T14:42:51Z</time></trkpt><trkpt lat="37.7988741" lon="14.423158"><ele>857.0</ele><time>2026-05-03T14:42:52Z</time></trkpt><trkpt lat="37.7987239" lon="14.4230477"><ele>857.0</ele><time>2026-05-03T14:42:53Z</time></trkpt><trkpt lat="37.7985852" lon="14.4229439"><ele>857.75</ele><time>2026-05-03T14:42:54Z</time></trkpt><trkpt lat="37.7984539" lon="14.4228564"><ele>858.5</ele><time>2026-05-03T14:42:55Z</time></trkpt><trkpt lat="37.7983287" lon="14.4227853"><ele>859.25</ele><time>2026-05-03T14:42:56Z</time></trkpt><trkpt lat="37.7982135" lon="14.4227171"><ele>860.0</ele><time>2026-05-03T14:42:57Z</time></trkpt><trkpt lat="37.7981044" lon="14.4226551"><ele>860.0000000000001</ele><time>2026-05-03T14:42:58Z</time></trkpt><trkpt lat="37.7980066" lon="14.422596"><ele>860.0</ele><time>2026-05-03T14:42:59Z</time></trkpt><trkpt lat="37.7979173" lon="14.4225469"><ele>860.0</ele><time>2026-05-03T14:43:00Z</time></trkpt><trkpt lat="37.7978344" lon="14.4225033"><ele>860.0</ele><time>2026-05-03T14:43:01Z</time></trkpt><trkpt lat="37.7977637" lon="14.422465"><ele>860.0000000000001</ele><time>2026-05-03T14:43:02Z</time></trkpt><trkpt lat="37.797694" lon="14.4224297"><ele>860.0</ele><time>2026-05-03T14:43:03Z</time></trkpt><trkpt lat="37.7976329" lon="14.4223953"><ele>858.6</ele><time>2026-05-03T14:43:04Z</time></trkpt><trkpt lat="37.7975348" lon="14.4223408"><ele>857.2</ele><time>2026-05-03T14:43:06Z</time></trkpt><trkpt lat="37.7974568" lon="14.4223001"><ele>855.8</ele><time>2026-05-03T14:43:08Z</time></trkpt><trkpt lat="37.7973523" lon="14.4222304"><ele>854.4</ele><time>2026-05-03T14:43:10Z</time></trkpt><trkpt lat="37.7972852" lon="14.4221942"><ele>853.0</ele><time>2026-05-03T14:43:11Z</time></trkpt><trkpt lat="37.7972092" lon="14.4221534"><ele>852.8</ele><time>2026-05-03T14:43:12Z</time></trkpt><trkpt lat="37.7971338" lon="14.4221078"><ele>852.5999999999999</ele><time>2026-05-03T14:43:13Z</time></trkpt><trkpt lat="37.7970493" lon="14.4220597"><ele>852.4000000000001</ele><time>2026-05-03T14:43:14Z</time></trkpt><trkpt lat="37.7969587" lon="14.4220063"><ele>852.2</ele><time>2026-05-03T14:43:15Z</time></trkpt><trkpt lat="37.796866" lon="14.4219542"><ele>852.0</ele><time>2026-05-03T14:43:16Z</time></trkpt><trkpt lat="37.7967759" lon="14.4219036"><ele>852.0</ele><time>2026-05-03T14:43:16.999Z</time></trkpt><trkpt lat="37.7966891" lon="14.4218538"><ele>852.0</ele><time>2026-05-03T14:43:18Z</time></trkpt><trkpt lat="37.7966059" lon="14.4217999"><ele>852.0</ele><time>2026-05-03T14:43:19Z</time></trkpt><trkpt lat="37.7965235" lon="14.4217363"><ele>852.0</ele><time>2026-05-03T14:43:20Z</time></trkpt><trkpt lat="37.79645" lon="14.4216754"><ele>852.0</ele><time>2026-05-03T14:43:21Z</time></trkpt><trkpt lat="37.7963739" lon="14.4216012"><ele>852.0</ele><time>2026-05-03T14:43:22Z</time></trkpt><trkpt lat="37.7963281" lon="14.4215247"><ele>852.0</ele><time>2026-05-03T14:43:23Z</time></trkpt><trkpt lat="37.7962953" lon="14.4214277"><ele>852.0</ele><time>2026-05-03T14:43:24Z</time></trkpt><trkpt lat="37.7962894" lon="14.421324"><ele>852.0</ele><time>2026-05-03T14:43:25Z</time></trkpt><trkpt lat="37.7963005" lon="14.4212198"><ele>852.0</ele><time>2026-05-03T14:43:25.999Z</time></trkpt><trkpt lat="37.7963122" lon="14.421114"><ele>852.0</ele><time>2026-05-03T14:43:27Z</time></trkpt><trkpt lat="37.7963183" lon="14.4210064"><ele>851.6</ele><time>2026-05-03T14:43:28Z</time></trkpt><trkpt lat="37.7963233" lon="14.4208991"><ele>851.2</ele><time>2026-05-03T14:43:29Z</time></trkpt><trkpt lat="37.7963172" lon="14.42079"><ele>850.8</ele><time>2026-05-03T14:43:30Z</time></trkpt><trkpt lat="37.796293" lon="14.4206745"><ele>850.4</ele><time>2026-05-03T14:43:31Z</time></trkpt><trkpt lat="37.796251" lon="14.4205686"><ele>850.0</ele><time>2026-05-03T14:43:32Z</time></trkpt><trkpt lat="37.7961937" lon="14.4204743"><ele>848.8</ele><time>2026-05-03T14:43:33Z</time></trkpt><trkpt lat="37.79612" lon="14.4203991"><ele>847.6</ele><time>2026-05-03T14:43:34Z</time></trkpt><trkpt lat="37.796039" lon="14.4203394"><ele>846.4000000000001</ele><time>2026-05-03T14:43:35Z</time></trkpt><trkpt lat="37.7959447" lon="14.4202982"><ele>845.2</ele><time>2026-05-03T14:43:36Z</time></trkpt><trkpt lat="37.7958463" lon="14.4202796"><ele>844.0</ele><time>2026-05-03T14:43:36.999Z</time></trkpt><trkpt lat="37.7957371" lon="14.4202895"><ele>844.0</ele><time>2026-05-03T14:43:38Z</time></trkpt><trkpt lat="37.7956086" lon="14.420323"><ele>844.0</ele><time>2026-05-03T14:43:39Z</time></trkpt><trkpt lat="37.7954576" lon="14.4203823"><ele>844.0</ele><time>2026-05-03T14:43:40Z</time></trkpt><trkpt lat="37.7952824" lon="14.420467"><ele>843.3333333333333</ele><time>2026-05-03T14:43:41Z</time></trkpt><trkpt lat="37.795076" lon="14.4205321"><ele>842.6666666666667</ele><time>2026-05-03T14:43:42Z</time></trkpt><trkpt lat="37.7948846" lon="14.4205862"><ele>842.0</ele><time>2026-05-03T14:43:43Z</time></trkpt><trkpt lat="37.7947086" lon="14.4206444"><ele>842.0</ele><time>2026-05-03T14:43:43.999Z</time></trkpt><trkpt lat="37.7945414" lon="14.4206809"><ele>842.0</ele><time>2026-05-03T14:43:45Z</time></trkpt><trkpt lat="37.7943826" lon="14.4206915"><ele>842.0</ele><time>2026-05-03T14:43:46Z</time></trkpt><trkpt lat="37.7942194" lon="14.4206563"><ele>842.0</ele><time>2026-05-03T14:43:47Z</time></trkpt><trkpt lat="37.7940566" lon="14.4206001"><ele>842.0</ele><time>2026-05-03T14:43:48Z</time></trkpt><trkpt lat="37.7938917" lon="14.4205319"><ele>842.0</ele><time>2026-05-03T14:43:49Z</time></trkpt><trkpt lat="37.7937288" lon="14.4204566"><ele>842.5</ele><time>2026-05-03T14:43:50Z</time></trkpt><trkpt lat="37.7935944" lon="14.4203798"><ele>843.0</ele><time>2026-05-03T14:43:51Z</time></trkpt><trkpt lat="37.7934733" lon="14.4203011"><ele>843.5</ele><time>2026-05-03T14:43:52Z</time></trkpt><trkpt lat="37.7934114" lon="14.4201671"><ele>844.0</ele><time>2026-05-03T14:43:53Z</time></trkpt><trkpt lat="37.7933363" lon="14.4200319"><ele>844.0</ele><time>2026-05-03T14:43:54Z</time></trkpt><trkpt lat="37.7932537" lon="14.4198934"><ele>844.0</ele><time>2026-05-03T14:43:55Z</time></trkpt><trkpt lat="37.7931557" lon="14.4197734"><ele>844.0</ele><time>2026-05-03T14:43:56Z</time></trkpt><trkpt lat="37.7930371" lon="14.4196757"><ele>844.0</ele><time>2026-05-03T14:43:57Z</time></trkpt><trkpt lat="37.7929048" lon="14.4195891"><ele>843.0</ele><time>2026-05-03T14:43:58Z</time></trkpt><trkpt lat="37.7927808" lon="14.4195153"><ele>842.0</ele><time>2026-05-03T14:43:59Z</time></trkpt><trkpt lat="37.792652" lon="14.4194454"><ele>841.0</ele><time>2026-05-03T14:44:00Z</time></trkpt><trkpt lat="37.7925228" lon="14.4193977"><ele>840.0</ele><time>2026-05-03T14:44:01Z</time></trkpt><trkpt lat="37.7923862" lon="14.419367"><ele>840.0</ele><time>2026-05-03T14:44:02Z</time></trkpt><trkpt lat="37.792242" lon="14.4193538"><ele>840.0</ele><time>2026-05-03T14:44:03Z</time></trkpt><trkpt lat="37.7921002" lon="14.4193439"><ele>840.0</ele><time>2026-05-03T14:44:04Z</time></trkpt><trkpt lat="37.7919691" lon="14.4193524"><ele>840.0</ele><time>2026-05-03T14:44:05Z</time></trkpt><trkpt lat="37.7918309" lon="14.4193786"><ele>841.5</ele><time>2026-05-03T14:44:06Z</time></trkpt><trkpt lat="37.7917063" lon="14.4194421"><ele>843.0</ele><time>2026-05-03T14:44:07Z</time></trkpt><trkpt lat="37.7915931" lon="14.419535"><ele>844.5</ele><time>2026-05-03T14:44:08Z</time></trkpt><trkpt lat="37.7914905" lon="14.4196463"><ele>846.0</ele><time>2026-05-03T14:44:09Z</time></trkpt><trkpt lat="37.7913965" lon="14.4197959"><ele>845.0</ele><time>2026-05-03T14:44:10Z</time></trkpt><trkpt lat="37.7913161" lon="14.4199521"><ele>844.0</ele><time>2026-05-03T14:44:11Z</time></trkpt><trkpt lat="37.7912288" lon="14.4200846"><ele>843.0</ele><time>2026-05-03T14:44:12Z</time></trkpt><trkpt lat="37.7911186" lon="14.4202008"><ele>842.0</ele><time>2026-05-03T14:44:13Z</time></trkpt><trkpt lat="37.7909809" lon="14.4202888"><ele>842.0</ele><time>2026-05-03T14:44:14Z</time></trkpt><trkpt lat="37.7908285" lon="14.420362"><ele>842.0</ele><time>2026-05-03T14:44:15Z</time></trkpt><trkpt lat="37.7906618" lon="14.4204155"><ele>842.0</ele><time>2026-05-03T14:44:16Z</time></trkpt><trkpt lat="37.790487" lon="14.4204567"><ele>843.0</ele><time>2026-05-03T14:44:17Z</time></trkpt><trkpt lat="37.7903095" lon="14.4205022"><ele>844.0</ele><time>2026-05-03T14:44:18Z</time></trkpt><trkpt lat="37.7901352" lon="14.4205436"><ele>845.0</ele><time>2026-05-03T14:44:19Z</time></trkpt><trkpt lat="37.7899654" lon="14.4205724"><ele>845.0</ele><time>2026-05-03T14:44:19.999Z</time></trkpt><trkpt lat="37.7898034" lon="14.420602"><ele>845.0</ele><time>2026-05-03T14:44:21Z</time></trkpt><trkpt lat="37.7896467" lon="14.4206346"><ele>845.0</ele><time>2026-05-03T14:44:22Z</time></trkpt><trkpt lat="37.7894908" lon="14.4206632"><ele>843.75</ele><time>2026-05-03T14:44:23Z</time></trkpt><trkpt lat="37.7893422" lon="14.4206912"><ele>842.5</ele><time>2026-05-03T14:44:24Z</time></trkpt><trkpt lat="37.7891995" lon="14.4206961"><ele>841.25</ele><time>2026-05-03T14:44:25Z</time></trkpt><trkpt lat="37.7890585" lon="14.4206833"><ele>840.0</ele><time>2026-05-03T14:44:26Z</time></trkpt><trkpt lat="37.7889168" lon="14.4206444"><ele>840.0</ele><time>2026-05-03T14:44:27Z</time></trkpt><trkpt lat="37.7887704" lon="14.4205908"><ele>840.0</ele><time>2026-05-03T14:44:28Z</time></trkpt><trkpt lat="37.7886278" lon="14.4205263"><ele>840.0</ele><time>2026-05-03T14:44:29Z</time></trkpt><trkpt lat="37.7884844" lon="14.4204594"><ele>838.6666666666667</ele><time>2026-05-03T14:44:30Z</time></trkpt><trkpt lat="37.7883361" lon="14.4203821"><ele>837.3333333333334</ele><time>2026-05-03T14:44:31Z</time></trkpt><trkpt lat="37.7881958" lon="14.4203063"><ele>836.0</ele><time>2026-05-03T14:44:32Z</time></trkpt><trkpt lat="37.7880633" lon="14.4202157"><ele>836.0</ele><time>2026-05-03T14:44:33Z</time></trkpt><trkpt lat="37.7879387" lon="14.4201058"><ele>836.0</ele><time>2026-05-03T14:44:34Z</time></trkpt><trkpt lat="37.7878478" lon="14.4199965"><ele>836.0</ele><time>2026-05-03T14:44:35Z</time></trkpt><trkpt lat="37.7877799" lon="14.4199156"><ele>836.0</ele><time>2026-05-03T14:44:36Z</time></trkpt><trkpt lat="37.7877188" lon="14.4198406"><ele>836.0</ele><time>2026-05-03T14:44:37Z</time></trkpt><trkpt lat="37.787662" lon="14.4197586"><ele>836.0</ele><time>2026-05-03T14:44:38Z</time></trkpt><trkpt lat="37.7875903" lon="14.4196567"><ele>836.0</ele><time>2026-05-03T14:44:39Z</time></trkpt><trkpt lat="37.7875117" lon="14.4195525"><ele>836.0</ele><time>2026-05-03T14:44:40Z</time></trkpt><trkpt lat="37.787423" lon="14.4194361"><ele>836.0</ele><time>2026-05-03T14:44:41Z</time></trkpt><trkpt lat="37.7873211" lon="14.419308"><ele>834.75</ele><time>2026-05-03T14:44:42Z</time></trkpt><trkpt lat="37.7872185" lon="14.4191661"><ele>833.5</ele><time>2026-05-03T14:44:43Z</time></trkpt><trkpt lat="37.7871297" lon="14.4190145"><ele>832.25</ele><time>2026-05-03T14:44:44Z</time></trkpt><trkpt lat="37.7870503" lon="14.4188575"><ele>831.0</ele><time>2026-05-03T14:44:45Z</time></trkpt><trkpt lat="37.7869815" lon="14.4187074"><ele>831.75</ele><time>2026-05-03T14:44:46Z</time></trkpt><trkpt lat="37.7868934" lon="14.4185745"><ele>832.5</ele><time>2026-05-03T14:44:47Z</time></trkpt><trkpt lat="37.7867854" lon="14.4184433"><ele>833.25</ele><time>2026-05-03T14:44:48Z</time></trkpt><trkpt lat="37.7866441" lon="14.4183562"><ele>834.0</ele><time>2026-05-03T14:44:49Z</time></trkpt><trkpt lat="37.7865031" lon="14.4182643"><ele>834.0</ele><time>2026-05-03T14:44:50Z</time></trkpt><trkpt lat="37.7863592" lon="14.4181822"><ele>834.0</ele><time>2026-05-03T14:44:51Z</time></trkpt><trkpt lat="37.7862042" lon="14.4181035"><ele>834.0</ele><time>2026-05-03T14:44:52Z</time></trkpt><trkpt lat="37.7860518" lon="14.4180303"><ele>836.0</ele><time>2026-05-03T14:44:53Z</time></trkpt><trkpt lat="37.7859117" lon="14.4179487"><ele>838.0</ele><time>2026-05-03T14:44:54Z</time></trkpt><trkpt lat="37.78578" lon="14.4178623"><ele>840.0</ele><time>2026-05-03T14:44:55Z</time></trkpt><trkpt lat="37.7856722" lon="14.4177519"><ele>842.0</ele><time>2026-05-03T14:44:56Z</time></trkpt><trkpt lat="37.7855762" lon="14.4176148"><ele>842.0</ele><time>2026-05-03T14:44:57Z</time></trkpt><trkpt lat="37.7854952" lon="14.4174819"><ele>842.0</ele><time>2026-05-03T14:44:58Z</time></trkpt><trkpt lat="37.7854128" lon="14.4173708"><ele>842.0</ele><time>2026-05-03T14:44:59Z</time></trkpt><trkpt lat="37.7853206" lon="14.4172943"><ele>842.0</ele><time>2026-05-03T14:45:00Z</time></trkpt><trkpt lat="37.7852113" lon="14.4172436"><ele>841.0</ele><time>2026-05-03T14:45:01Z</time></trkpt><trkpt lat="37.7850841" lon="14.4172105"><ele>840.0</ele><time>2026-05-03T14:45:02Z</time></trkpt><trkpt lat="37.7849513" lon="14.41719"><ele>839.0</ele><time>2026-05-03T14:45:03Z</time></trkpt><trkpt lat="37.7848056" lon="14.4171668"><ele>838.0</ele><time>2026-05-03T14:45:04Z</time></trkpt><trkpt lat="37.7846521" lon="14.4171458"><ele>838.3333333333333</ele><time>2026-05-03T14:45:05Z</time></trkpt><trkpt lat="37.784491" lon="14.4171302"><ele>838.6666666666667</ele><time>2026-05-03T14:45:06Z</time></trkpt><trkpt lat="37.7843247" lon="14.4171269"><ele>839.0</ele><time>2026-05-03T14:45:07Z</time></trkpt><trkpt lat="37.7841722" lon="14.4171469"><ele>839.0</ele><time>2026-05-03T14:45:08Z</time></trkpt><trkpt lat="37.7840162" lon="14.4171922"><ele>839.0</ele><time>2026-05-03T14:45:09Z</time></trkpt><trkpt lat="37.7838575" lon="14.4172501"><ele>839.0</ele><time>2026-05-03T14:45:10Z</time></trkpt><trkpt lat="37.7837" lon="14.4173097"><ele>839.0</ele><time>2026-05-03T14:45:11Z</time></trkpt><trkpt lat="37.7835324" lon="14.4173783"><ele>839.0</ele><time>2026-05-03T14:45:12Z</time></trkpt><trkpt lat="37.7833611" lon="14.417447"><ele>839.0</ele><time>2026-05-03T14:45:13Z</time></trkpt><trkpt lat="37.7831858" lon="14.4175184"><ele>839.0</ele><time>2026-05-03T14:45:14Z</time></trkpt><trkpt lat="37.7830084" lon="14.4175818"><ele>839.0</ele><time>2026-05-03T14:45:15Z</time></trkpt><trkpt lat="37.7828272" lon="14.4176439"><ele>839.0</ele><time>2026-05-03T14:45:16Z</time></trkpt><trkpt lat="37.7826444" lon="14.4177054"><ele>840.0</ele><time>2026-05-03T14:45:17Z</time></trkpt><trkpt lat="37.7824671" lon="14.4177742"><ele>841.0</ele><time>2026-05-03T14:45:17.999Z</time></trkpt><trkpt lat="37.7822941" lon="14.4178351"><ele>842.0</ele><time>2026-05-03T14:45:19Z</time></trkpt><trkpt lat="37.7821344" lon="14.4178916"><ele>842.0</ele><time>2026-05-03T14:45:20Z</time></trkpt><trkpt lat="37.7819838" lon="14.4179269"><ele>842.0</ele><time>2026-05-03T14:45:21Z</time></trkpt><trkpt lat="37.7818304" lon="14.4179317"><ele>842.0</ele><time>2026-05-03T14:45:22Z</time></trkpt><trkpt lat="37.7816754" lon="14.417897"><ele>842.0</ele><time>2026-05-03T14:45:23Z</time></trkpt><trkpt lat="37.7815199" lon="14.417825"><ele>842.0</ele><time>2026-05-03T14:45:24Z</time></trkpt><trkpt lat="37.7813728" lon="14.4177345"><ele>842.0</ele><time>2026-05-03T14:45:25Z</time></trkpt><trkpt lat="37.7812359" lon="14.4176473"><ele>842.0</ele><time>2026-05-03T14:45:26Z</time></trkpt><trkpt lat="37.7811152" lon="14.4175524"><ele>842.0</ele><time>2026-05-03T14:45:27Z</time></trkpt><trkpt lat="37.7810102" lon="14.4174265"><ele>842.0</ele><time>2026-05-03T14:45:28Z</time></trkpt><trkpt lat="37.7809281" lon="14.4172761"><ele>842.0</ele><time>2026-05-03T14:45:29Z</time></trkpt><trkpt lat="37.7808713" lon="14.4171063"><ele>841.6666666666667</ele><time>2026-05-03T14:45:30Z</time></trkpt><trkpt lat="37.780836" lon="14.4169187"><ele>841.3333333333333</ele><time>2026-05-03T14:45:31Z</time></trkpt><trkpt lat="37.7807821" lon="14.416728"><ele>841.0</ele><time>2026-05-03T14:45:32Z</time></trkpt><trkpt lat="37.780691" lon="14.4165237"><ele>841.0</ele><time>2026-05-03T14:45:33Z</time></trkpt><trkpt lat="37.7805895" lon="14.4163267"><ele>841.0</ele><time>2026-05-03T14:45:34Z</time></trkpt><trkpt lat="37.7804854" lon="14.4161407"><ele>841.0</ele><time>2026-05-03T14:45:35Z</time></trkpt><trkpt lat="37.7803892" lon="14.4159684"><ele>842.6666666666666</ele><time>2026-05-03T14:45:36Z</time></trkpt><trkpt lat="37.7802911" lon="14.415818"><ele>844.3333333333333</ele><time>2026-05-03T14:45:37Z</time></trkpt><trkpt lat="37.7801723" lon="14.4156883"><ele>846.0</ele><time>2026-05-03T14:45:38Z</time></trkpt><trkpt lat="37.7800328" lon="14.4156033"><ele>846.0</ele><time>2026-05-03T14:45:39Z</time></trkpt><trkpt lat="37.7798899" lon="14.4155514"><ele>846.0</ele><time>2026-05-03T14:45:40Z</time></trkpt><trkpt lat="37.7797447" lon="14.4155081"><ele>846.0</ele><time>2026-05-03T14:45:41Z</time></trkpt><trkpt lat="37.7796194" lon="14.4154431"><ele>846.0</ele><time>2026-05-03T14:45:42Z</time></trkpt><trkpt lat="37.7795255" lon="14.4153435"><ele>843.0</ele><time>2026-05-03T14:45:43Z</time></trkpt><trkpt lat="37.7794601" lon="14.4152171"><ele>840.0</ele><time>2026-05-03T14:45:44Z</time></trkpt><trkpt lat="37.7794391" lon="14.415077"><ele>837.0</ele><time>2026-05-03T14:45:45Z</time></trkpt><trkpt lat="37.7794234" lon="14.4149167"><ele>834.0</ele><time>2026-05-03T14:45:46Z</time></trkpt><trkpt lat="37.7794118" lon="14.4147501"><ele>832.0</ele><time>2026-05-03T14:45:47Z</time></trkpt><trkpt lat="37.7793875" lon="14.414578"><ele>830.0</ele><time>2026-05-03T14:45:48Z</time></trkpt><trkpt lat="37.7793449" lon="14.4144225"><ele>828.0</ele><time>2026-05-03T14:45:49Z</time></trkpt><trkpt lat="37.7792758" lon="14.4142833"><ele>826.0</ele><time>2026-05-03T14:45:50Z</time></trkpt><trkpt lat="37.7791943" lon="14.4141798"><ele>829.4</ele><time>2026-05-03T14:45:51Z</time></trkpt><trkpt lat="37.7790991" lon="14.4141202"><ele>832.8</ele><time>2026-05-03T14:45:52Z</time></trkpt><trkpt lat="37.7789992" lon="14.4141104"><ele>836.1999999999999</ele><time>2026-05-03T14:45:53Z</time></trkpt><trkpt lat="37.7788972" lon="14.4141442"><ele>839.5999999999999</ele><time>2026-05-03T14:45:54Z</time></trkpt><trkpt lat="37.7788036" lon="14.4142292"><ele>843.0</ele><time>2026-05-03T14:45:55Z</time></trkpt><trkpt lat="37.7787188" lon="14.4143421"><ele>843.0</ele><time>2026-05-03T14:45:56Z</time></trkpt><trkpt lat="37.7786472" lon="14.4144801"><ele>843.0</ele><time>2026-05-03T14:45:57Z</time></trkpt><trkpt lat="37.7785572" lon="14.4145964"><ele>843.0</ele><time>2026-05-03T14:45:58Z</time></trkpt><trkpt lat="37.7784345" lon="14.4146829"><ele>843.0</ele><time>2026-05-03T14:45:59Z</time></trkpt><trkpt lat="37.7783162" lon="14.4147552"><ele>843.2</ele><time>2026-05-03T14:46:00Z</time></trkpt><trkpt lat="37.7782105" lon="14.4148037"><ele>843.4</ele><time>2026-05-03T14:46:01Z</time></trkpt><trkpt lat="37.7781176" lon="14.4148115"><ele>843.6</ele><time>2026-05-03T14:46:02Z</time></trkpt><trkpt lat="37.7780473" lon="14.4147732"><ele>843.8000000000001</ele><time>2026-05-03T14:46:03Z</time></trkpt><trkpt lat="37.7779899" lon="14.4146804"><ele>844.0</ele><time>2026-05-03T14:46:04Z</time></trkpt><trkpt lat="37.7779557" lon="14.4145506"><ele>842.0</ele><time>2026-05-03T14:46:05Z</time></trkpt><trkpt lat="37.7779149" lon="14.414395"><ele>840.0</ele><time>2026-05-03T14:46:06Z</time></trkpt><trkpt lat="37.777869" lon="14.4142545"><ele>838.0</ele><time>2026-05-03T14:46:07Z</time></trkpt><trkpt lat="37.777822" lon="14.4141432"><ele>836.0</ele><time>2026-05-03T14:46:08Z</time></trkpt><trkpt lat="37.777756" lon="14.4140728"><ele>834.0</ele><time>2026-05-03T14:46:09Z</time></trkpt><trkpt lat="37.7776717" lon="14.4140556"><ele>833.25</ele><time>2026-05-03T14:46:10Z</time></trkpt><trkpt lat="37.7775755" lon="14.4140818"><ele>832.5</ele><time>2026-05-03T14:46:11Z</time></trkpt><trkpt lat="37.7774661" lon="14.4141456"><ele>831.75</ele><time>2026-05-03T14:46:12Z</time></trkpt><trkpt lat="37.7773437" lon="14.4142216"><ele>831.0</ele><time>2026-05-03T14:46:13Z</time></trkpt><trkpt lat="37.7772035" lon="14.4143087"><ele>831.0</ele><time>2026-05-03T14:46:14Z</time></trkpt><trkpt lat="37.7770504" lon="14.4144009"><ele>831.0</ele><time>2026-05-03T14:46:15Z</time></trkpt><trkpt lat="37.7768944" lon="14.4144887"><ele>831.0</ele><time>2026-05-03T14:46:16Z</time></trkpt><trkpt lat="37.7767277" lon="14.4145607"><ele>827.6666666666667</ele><time>2026-05-03T14:46:17Z</time></trkpt><trkpt lat="37.7765468" lon="14.414609"><ele>824.3333333333334</ele><time>2026-05-03T14:46:18Z</time></trkpt><trkpt lat="37.7763808" lon="14.4146401"><ele>821.0</ele><time>2026-05-03T14:46:19Z</time></trkpt><trkpt lat="37.7762248" lon="14.4146635"><ele>823.25</ele><time>2026-05-03T14:46:20Z</time></trkpt><trkpt lat="37.776082" lon="14.4146751"><ele>825.5</ele><time>2026-05-03T14:46:21Z</time></trkpt><trkpt lat="37.775961" lon="14.4146593"><ele>827.75</ele><time>2026-05-03T14:46:22Z</time></trkpt><trkpt lat="37.7758609" lon="14.4146094"><ele>830.0</ele><time>2026-05-03T14:46:23Z</time></trkpt><trkpt lat="37.7757833" lon="14.4145147"><ele>830.0</ele><time>2026-05-03T14:46:24Z</time></trkpt><trkpt lat="37.775733" lon="14.4143942"><ele>830.0</ele><time>2026-05-03T14:46:25Z</time></trkpt><trkpt lat="37.7757261" lon="14.4142512"><ele>830.0</ele><time>2026-05-03T14:46:26Z</time></trkpt><trkpt lat="37.7757419" lon="14.4141079"><ele>830.0</ele><time>2026-05-03T14:46:27Z</time></trkpt><trkpt lat="37.7757372" lon="14.4139466"><ele>826.75</ele><time>2026-05-03T14:46:28Z</time></trkpt><trkpt lat="37.7757067" lon="14.4137955"><ele>823.5</ele><time>2026-05-03T14:46:29Z</time></trkpt><trkpt lat="37.7756307" lon="14.4136415"><ele>820.25</ele><time>2026-05-03T14:46:30Z</time></trkpt><trkpt lat="37.7755272" lon="14.4135026"><ele>817.0</ele><time>2026-05-03T14:46:31Z</time></trkpt><trkpt lat="37.7754083" lon="14.4133632"><ele>817.0</ele><time>2026-05-03T14:46:32Z</time></trkpt><trkpt lat="37.77528" lon="14.413222"><ele>817.0</ele><time>2026-05-03T14:46:33Z</time></trkpt><trkpt lat="37.7751596" lon="14.4130706"><ele>817.0</ele><time>2026-05-03T14:46:34Z</time></trkpt><trkpt lat="37.7750478" lon="14.4129005"><ele>820.0</ele><time>2026-05-03T14:46:35Z</time></trkpt><trkpt lat="37.7749541" lon="14.4127228"><ele>823.0</ele><time>2026-05-03T14:46:36Z</time></trkpt><trkpt lat="37.7748598" lon="14.4125283"><ele>826.0</ele><time>2026-05-03T14:46:37Z</time></trkpt><trkpt lat="37.7747675" lon="14.4123331"><ele>824.6666666666666</ele><time>2026-05-03T14:46:38Z</time></trkpt><trkpt lat="37.7746822" lon="14.4121561"><ele>823.3333333333333</ele><time>2026-05-03T14:46:39Z</time></trkpt><trkpt lat="37.7746097" lon="14.4119951"><ele>822.0</ele><time>2026-05-03T14:46:40Z</time></trkpt><trkpt lat="37.7745278" lon="14.4118507"><ele>822.0</ele><time>2026-05-03T14:46:41Z</time></trkpt><trkpt lat="37.7744119" lon="14.4117478"><ele>822.0</ele><time>2026-05-03T14:46:41.999Z</time></trkpt><trkpt lat="37.7742828" lon="14.411689"><ele>822.0</ele><time>2026-05-03T14:46:43Z</time></trkpt><trkpt lat="37.7741406" lon="14.4116804"><ele>822.0</ele><time>2026-05-03T14:46:44Z</time></trkpt><trkpt lat="37.7739843" lon="14.411699"><ele>824.6666666666667</ele><time>2026-05-03T14:46:45Z</time></trkpt><trkpt lat="37.7738106" lon="14.4117231"><ele>827.3333333333334</ele><time>2026-05-03T14:46:46Z</time></trkpt><trkpt lat="37.7736417" lon="14.411753"><ele>830.0</ele><time>2026-05-03T14:46:47Z</time></trkpt><trkpt lat="37.7734741" lon="14.4117799"><ele>830.3333333333334</ele><time>2026-05-03T14:46:48Z</time></trkpt><trkpt lat="37.773308" lon="14.4117753"><ele>830.6666666666667</ele><time>2026-05-03T14:46:49Z</time></trkpt><trkpt lat="37.7731431" lon="14.4117406"><ele>831.0</ele><time>2026-05-03T14:46:50Z</time></trkpt><trkpt lat="37.7729907" lon="14.4116831"><ele>831.0</ele><time>2026-05-03T14:46:51Z</time></trkpt><trkpt lat="37.7728419" lon="14.4115946"><ele>831.0</ele><time>2026-05-03T14:46:52Z</time></trkpt><trkpt lat="37.7726902" lon="14.4114902"><ele>831.0</ele><time>2026-05-03T14:46:53Z</time></trkpt><trkpt lat="37.772538" lon="14.4113931"><ele>829.0</ele><time>2026-05-03T14:46:54Z</time></trkpt><trkpt lat="37.7723876" lon="14.4112934"><ele>827.0</ele><time>2026-05-03T14:46:55Z</time></trkpt><trkpt lat="37.7722433" lon="14.4111976"><ele>825.0</ele><time>2026-05-03T14:46:56Z</time></trkpt><trkpt lat="37.7721155" lon="14.4110899"><ele>825.0</ele><time>2026-05-03T14:46:57Z</time></trkpt><trkpt lat="37.7720157" lon="14.410965"><ele>825.0</ele><time>2026-05-03T14:46:58Z</time></trkpt><trkpt lat="37.7719303" lon="14.4108303"><ele>825.0</ele><time>2026-05-03T14:46:59Z</time></trkpt><trkpt lat="37.7718405" lon="14.4107093"><ele>825.0</ele><time>2026-05-03T14:47:00Z</time></trkpt><trkpt lat="37.7717338" lon="14.4106295"><ele>827.75</ele><time>2026-05-03T14:47:01Z</time></trkpt><trkpt lat="37.7716172" lon="14.410605"><ele>830.5</ele><time>2026-05-03T14:47:02Z</time></trkpt><trkpt lat="37.7714965" lon="14.4106195"><ele>833.25</ele><time>2026-05-03T14:47:03Z</time></trkpt><trkpt lat="37.7713789" lon="14.4106896"><ele>836.0</ele><time>2026-05-03T14:47:04Z</time></trkpt><trkpt lat="37.7712681" lon="14.4108054"><ele>836.0</ele><time>2026-05-03T14:47:05Z</time></trkpt><trkpt lat="37.7711465" lon="14.4109334"><ele>836.0</ele><time>2026-05-03T14:47:06Z</time></trkpt><trkpt lat="37.7710214" lon="14.4110697"><ele>836.0</ele><time>2026-05-03T14:47:07Z</time></trkpt><trkpt lat="37.7708944" lon="14.4112049"><ele>835.6666666666667</ele><time>2026-05-03T14:47:08Z</time></trkpt><trkpt lat="37.7707593" lon="14.411336"><ele>835.3333333333333</ele><time>2026-05-03T14:47:09Z</time></trkpt><trkpt lat="37.7706018" lon="14.4114274"><ele>835.0</ele><time>2026-05-03T14:47:10Z</time></trkpt><trkpt lat="37.770428" lon="14.4114864"><ele>835.0</ele><time>2026-05-03T14:47:11Z</time></trkpt><trkpt lat="37.7702255" lon="14.4115259"><ele>835.0</ele><time>2026-05-03T14:47:12Z</time></trkpt><trkpt lat="37.7700138" lon="14.4115614"><ele>835.0</ele><time>2026-05-03T14:47:13Z</time></trkpt><trkpt lat="37.7697916" lon="14.4115989"><ele>832.3333333333333</ele><time>2026-05-03T14:47:14Z</time></trkpt><trkpt lat="37.7695708" lon="14.4116331"><ele>829.6666666666667</ele><time>2026-05-03T14:47:15Z</time></trkpt><trkpt lat="37.7693577" lon="14.4116622"><ele>827.0</ele><time>2026-05-03T14:47:16Z</time></trkpt><trkpt lat="37.7691666" lon="14.411696"><ele>826.0</ele><time>2026-05-03T14:47:17Z</time></trkpt><trkpt lat="37.7689817" lon="14.4117213"><ele>825.0</ele><time>2026-05-03T14:47:18Z</time></trkpt><trkpt lat="37.7688097" lon="14.411739"><ele>824.0</ele><time>2026-05-03T14:47:19Z</time></trkpt><trkpt lat="37.7686618" lon="14.4117362"><ele>825.3333333333334</ele><time>2026-05-03T14:47:20Z</time></trkpt><trkpt lat="37.768526" lon="14.4116868"><ele>826.6666666666667</ele><time>2026-05-03T14:47:21Z</time></trkpt><trkpt lat="37.7683902" lon="14.41159"><ele>828.0</ele><time>2026-05-03T14:47:22Z</time></trkpt><trkpt lat="37.7682536" lon="14.4114574"><ele>825.0</ele><time>2026-05-03T14:47:23Z</time></trkpt><trkpt lat="37.7681074" lon="14.4113002"><ele>822.0</ele><time>2026-05-03T14:47:24Z</time></trkpt><trkpt lat="37.7679509" lon="14.4111484"><ele>819.0</ele><time>2026-05-03T14:47:25Z</time></trkpt><trkpt lat="37.7677846" lon="14.4109895"><ele>821.6666666666667</ele><time>2026-05-03T14:47:25.999Z</time></trkpt><trkpt lat="37.7676073" lon="14.4108443"><ele>824.3333333333334</ele><time>2026-05-03T14:47:27Z</time></trkpt><trkpt lat="37.7674279" lon="14.4107074"><ele>827.0</ele><time>2026-05-03T14:47:28Z</time></trkpt><trkpt lat="37.767246" lon="14.4105725"><ele>825.0</ele><time>2026-05-03T14:47:29Z</time></trkpt><trkpt lat="37.7670631" lon="14.4104345"><ele>823.0</ele><time>2026-05-03T14:47:30Z</time></trkpt><trkpt lat="37.7668872" lon="14.4102957"><ele>821.0</ele><time>2026-05-03T14:47:31Z</time></trkpt><trkpt lat="37.7667108" lon="14.4101568"><ele>821.0</ele><time>2026-05-03T14:47:32Z</time></trkpt><trkpt lat="37.7665287" lon="14.4100181"><ele>821.0</ele><time>2026-05-03T14:47:33Z</time></trkpt><trkpt lat="37.7663496" lon="14.4098802"><ele>821.0</ele><time>2026-05-03T14:47:34Z</time></trkpt><trkpt lat="37.7661747" lon="14.4097354"><ele>819.0</ele><time>2026-05-03T14:47:35Z</time></trkpt><trkpt lat="37.7660087" lon="14.4096049"><ele>817.0</ele><time>2026-05-03T14:47:36Z</time></trkpt><trkpt lat="37.7658647" lon="14.4094749"><ele>815.0</ele><time>2026-05-03T14:47:37Z</time></trkpt><trkpt lat="37.7657299" lon="14.409327"><ele>815.0</ele><time>2026-05-03T14:47:38Z</time></trkpt><trkpt lat="37.7656061" lon="14.4091559"><ele>815.0</ele><time>2026-05-03T14:47:39Z</time></trkpt><trkpt lat="37.7655007" lon="14.4089733"><ele>815.0</ele><time>2026-05-03T14:47:40Z</time></trkpt><trkpt lat="37.7653945" lon="14.4087707"><ele>814.3333333333334</ele><time>2026-05-03T14:47:41Z</time></trkpt><trkpt lat="37.76529" lon="14.408568"><ele>813.6666666666667</ele><time>2026-05-03T14:47:42Z</time></trkpt><trkpt lat="37.7651851" lon="14.4083548"><ele>813.0</ele><time>2026-05-03T14:47:43Z</time></trkpt><trkpt lat="37.7650759" lon="14.4081354"><ele>811.0</ele><time>2026-05-03T14:47:44Z</time></trkpt><trkpt lat="37.7649702" lon="14.4079175"><ele>809.0</ele><time>2026-05-03T14:47:45Z</time></trkpt><trkpt lat="37.7648599" lon="14.4076971"><ele>807.0</ele><time>2026-05-03T14:47:46Z</time></trkpt><trkpt lat="37.7647552" lon="14.4074764"><ele>807.0</ele><time>2026-05-03T14:47:47Z</time></trkpt><trkpt lat="37.764649" lon="14.4072463"><ele>807.0</ele><time>2026-05-03T14:47:48Z</time></trkpt><trkpt lat="37.7645558" lon="14.407016"><ele>807.0</ele><time>2026-05-03T14:47:49Z</time></trkpt><trkpt lat="37.7644766" lon="14.406791"><ele>809.3333333333333</ele><time>2026-05-03T14:47:50Z</time></trkpt><trkpt lat="37.7643992" lon="14.4065784"><ele>811.6666666666666</ele><time>2026-05-03T14:47:51Z</time></trkpt><trkpt lat="37.7643384" lon="14.4064047"><ele>814.0</ele><time>2026-05-03T14:47:52Z</time></trkpt><trkpt lat="37.764281" lon="14.4062374"><ele>814.2</ele><time>2026-05-03T14:47:53Z</time></trkpt><trkpt lat="37.7643151" lon="14.4061278"><ele>814.4000000000001</ele><time>2026-05-03T14:47:54Z</time></trkpt><trkpt lat="37.7643554" lon="14.4060096"><ele>814.6</ele><time>2026-05-03T14:47:55Z</time></trkpt><trkpt lat="37.7644338" lon="14.4059196"><ele>814.8</ele><time>2026-05-03T14:47:56Z</time></trkpt><trkpt lat="37.7645127" lon="14.4058198"><ele>815.0</ele><time>2026-05-03T14:47:57Z</time></trkpt><trkpt lat="37.7645706" lon="14.4057088"><ele>807.75</ele><time>2026-05-03T14:47:58Z</time></trkpt><trkpt lat="37.7645917" lon="14.4055689"><ele>800.5</ele><time>2026-05-03T14:47:59Z</time></trkpt><trkpt lat="37.7645779" lon="14.4054271"><ele>793.25</ele><time>2026-05-03T14:48:00Z</time></trkpt><trkpt lat="37.7645164" lon="14.4052947"><ele>786.0</ele><time>2026-05-03T14:48:01Z</time></trkpt><trkpt lat="37.7644202" lon="14.4051784"><ele>790.0</ele><time>2026-05-03T14:48:02Z</time></trkpt><trkpt lat="37.7642988" lon="14.4050749"><ele>794.0</ele><time>2026-05-03T14:48:03Z</time></trkpt><trkpt lat="37.7641485" lon="14.4049764"><ele>798.0</ele><time>2026-05-03T14:48:04Z</time></trkpt><trkpt lat="37.7639853" lon="14.4048731"><ele>798.0</ele><time>2026-05-03T14:48:05Z</time></trkpt><trkpt lat="37.7638295" lon="14.4047583"><ele>798.0</ele><time>2026-05-03T14:48:06Z</time></trkpt><trkpt lat="37.763684" lon="14.4046291"><ele>798.0</ele><time>2026-05-03T14:48:07Z</time></trkpt><trkpt lat="37.7635356" lon="14.4045069"><ele>794.0</ele><time>2026-05-03T14:48:08Z</time></trkpt><trkpt lat="37.7633742" lon="14.4044143"><ele>790.0</ele><time>2026-05-03T14:48:09Z</time></trkpt><trkpt lat="37.7632031" lon="14.4043411"><ele>786.0</ele><time>2026-05-03T14:48:10Z</time></trkpt><trkpt lat="37.7630184" lon="14.404249"><ele>786.0</ele><time>2026-05-03T14:48:11Z</time></trkpt><trkpt lat="37.7628614" lon="14.4041504"><ele>786.0</ele><time>2026-05-03T14:48:12Z</time></trkpt><trkpt lat="37.7626947" lon="14.4040677"><ele>786.0</ele><time>2026-05-03T14:48:13Z</time></trkpt><trkpt lat="37.7625358" lon="14.4040163"><ele>788.0</ele><time>2026-05-03T14:48:14Z</time></trkpt><trkpt lat="37.7623712" lon="14.4039686"><ele>790.0</ele><time>2026-05-03T14:48:15Z</time></trkpt><trkpt lat="37.7622247" lon="14.4038985"><ele>792.0</ele><time>2026-05-03T14:48:16Z</time></trkpt><trkpt lat="37.7620884" lon="14.40382"><ele>785.0</ele><time>2026-05-03T14:48:17Z</time></trkpt><trkpt lat="37.7619404" lon="14.4037859"><ele>778.0</ele><time>2026-05-03T14:48:17.999Z</time></trkpt><trkpt lat="37.7617925" lon="14.4037937"><ele>771.0</ele><time>2026-05-03T14:48:19Z</time></trkpt><trkpt lat="37.7616332" lon="14.4038043"><ele>771.0</ele><time>2026-05-03T14:48:20Z</time></trkpt><trkpt lat="37.7614694" lon="14.4038093"><ele>771.0</ele><time>2026-05-03T14:48:21Z</time></trkpt><trkpt lat="37.7612954" lon="14.4038018"><ele>771.0</ele><time>2026-05-03T14:48:22Z</time></trkpt><trkpt lat="37.7611364" lon="14.4037672"><ele>771.0</ele><time>2026-05-03T14:48:23Z</time></trkpt><trkpt lat="37.7609896" lon="14.4036994"><ele>771.0</ele><time>2026-05-03T14:48:24Z</time></trkpt><trkpt lat="37.7608487" lon="14.4036444"><ele>771.0</ele><time>2026-05-03T14:48:25Z</time></trkpt><trkpt lat="37.7607144" lon="14.4035959"><ele>771.0</ele><time>2026-05-03T14:48:26Z</time></trkpt><trkpt lat="37.7606018" lon="14.4035724"><ele>771.0</ele><time>2026-05-03T14:48:27Z</time></trkpt><trkpt lat="37.7604916" lon="14.4035967"><ele>771.0</ele><time>2026-05-03T14:48:28Z</time></trkpt><trkpt lat="37.7603894" lon="14.4036741"><ele>771.0</ele><time>2026-05-03T14:48:29Z</time></trkpt><trkpt lat="37.7602978" lon="14.403795"><ele>771.0</ele><time>2026-05-03T14:48:30Z</time></trkpt><trkpt lat="37.7602017" lon="14.4039134"><ele>771.8</ele><time>2026-05-03T14:48:31Z</time></trkpt><trkpt lat="37.7601068" lon="14.4040288"><ele>772.5999999999999</ele><time>2026-05-03T14:48:32Z</time></trkpt><trkpt lat="37.7600345" lon="14.404136"><ele>773.4</ele><time>2026-05-03T14:48:33Z</time></trkpt><trkpt lat="37.759972" lon="14.4042127"><ele>774.2</ele><time>2026-05-03T14:48:34Z</time></trkpt><trkpt lat="37.7599086" lon="14.4042286"><ele>775.0</ele><time>2026-05-03T14:48:35Z</time></trkpt><trkpt lat="37.759856" lon="14.404119"><ele>775.0</ele><time>2026-05-03T14:48:37Z</time></trkpt><trkpt lat="37.7598936" lon="14.4040397"><ele>775.0</ele><time>2026-05-03T14:48:38Z</time></trkpt><trkpt lat="37.7599439" lon="14.4039081"><ele>775.0</ele><time>2026-05-03T14:48:39Z</time></trkpt><trkpt lat="37.7599961" lon="14.4037567"><ele>775.0</ele><time>2026-05-03T14:48:40Z</time></trkpt><trkpt lat="37.7600381" lon="14.403594"><ele>773.5</ele><time>2026-05-03T14:48:41Z</time></trkpt><trkpt lat="37.7600677" lon="14.403426"><ele>772.0</ele><time>2026-05-03T14:48:42Z</time></trkpt><trkpt lat="37.7600871" lon="14.4032761"><ele>770.5</ele><time>2026-05-03T14:48:43Z</time></trkpt><trkpt lat="37.7601008" lon="14.403129"><ele>769.0</ele><time>2026-05-03T14:48:44Z</time></trkpt><trkpt lat="37.7601171" lon="14.4029951"><ele>767.8333333333333</ele><time>2026-05-03T14:48:45Z</time></trkpt><trkpt lat="37.760135" lon="14.4028809"><ele>766.6666666666666</ele><time>2026-05-03T14:48:46Z</time></trkpt><trkpt lat="37.7601498" lon="14.4027973"><ele>765.5</ele><time>2026-05-03T14:48:47Z</time></trkpt><trkpt lat="37.7601942" lon="14.4027054"><ele>764.3333333333333</ele><time>2026-05-03T14:48:49Z</time></trkpt><trkpt lat="37.7602651" lon="14.4026394"><ele>763.1666666666666</ele><time>2026-05-03T14:48:51Z</time></trkpt><trkpt lat="37.760328" lon="14.4026168"><ele>762.0</ele><time>2026-05-03T14:48:52Z</time></trkpt><trkpt lat="37.7604113" lon="14.4026078"><ele>760.25</ele><time>2026-05-03T14:48:53Z</time></trkpt><trkpt lat="37.7605165" lon="14.4026076"><ele>758.5</ele><time>2026-05-03T14:48:54Z</time></trkpt><trkpt lat="37.7606318" lon="14.4026096"><ele>756.75</ele><time>2026-05-03T14:48:55Z</time></trkpt><trkpt lat="37.7607655" lon="14.4026116"><ele>755.0</ele><time>2026-05-03T14:48:56Z</time></trkpt><trkpt lat="37.7609013" lon="14.4026149"><ele>755.25</ele><time>2026-05-03T14:48:57Z</time></trkpt><trkpt lat="37.7610427" lon="14.4026265"><ele>755.5</ele><time>2026-05-03T14:48:58Z</time></trkpt><trkpt lat="37.7611873" lon="14.4026281"><ele>755.75</ele><time>2026-05-03T14:48:59Z</time></trkpt><trkpt lat="37.7613339" lon="14.4026331"><ele>756.0</ele><time>2026-05-03T14:49:00Z</time></trkpt><trkpt lat="37.7614881" lon="14.4026329"><ele>756.0</ele><time>2026-05-03T14:49:01Z</time></trkpt><trkpt lat="37.7616451" lon="14.40263"><ele>756.0</ele><time>2026-05-03T14:49:02Z</time></trkpt><trkpt lat="37.7618036" lon="14.4026022"><ele>756.0</ele><time>2026-05-03T14:49:03Z</time></trkpt><trkpt lat="37.7619739" lon="14.4025557"><ele>755.6666666666666</ele><time>2026-05-03T14:49:04Z</time></trkpt><trkpt lat="37.7621492" lon="14.4024814"><ele>755.3333333333333</ele><time>2026-05-03T14:49:05Z</time></trkpt><trkpt lat="37.7623252" lon="14.4023722"><ele>755.0</ele><time>2026-05-03T14:49:06Z</time></trkpt><trkpt lat="37.762497" lon="14.4022404"><ele>750.6666666666666</ele><time>2026-05-03T14:49:07Z</time></trkpt><trkpt lat="37.7626635" lon="14.4020968"><ele>746.3333333333334</ele><time>2026-05-03T14:49:08Z</time></trkpt><trkpt lat="37.7628157" lon="14.4019639"><ele>742.0</ele><time>2026-05-03T14:49:09Z</time></trkpt><trkpt lat="37.762946" lon="14.4018615"><ele>742.0</ele><time>2026-05-03T14:49:10Z</time></trkpt><trkpt lat="37.7630655" lon="14.4018024"><ele>742.0</ele><time>2026-05-03T14:49:11Z</time></trkpt><trkpt lat="37.763194" lon="14.4018055"><ele>742.0</ele><time>2026-05-03T14:49:12Z</time></trkpt><trkpt lat="37.7633152" lon="14.4018637"><ele>742.0</ele><time>2026-05-03T14:49:13Z</time></trkpt><trkpt lat="37.7634256" lon="14.40197"><ele>742.0</ele><time>2026-05-03T14:49:14Z</time></trkpt><trkpt lat="37.763526" lon="14.4021347"><ele>742.0</ele><time>2026-05-03T14:49:15Z</time></trkpt><trkpt lat="37.7636239" lon="14.4023063"><ele>742.0</ele><time>2026-05-03T14:49:15.999Z</time></trkpt><trkpt lat="37.7637261" lon="14.4024768"><ele>742.0</ele><time>2026-05-03T14:49:17Z</time></trkpt><trkpt lat="37.7638258" lon="14.4026232"><ele>742.0</ele><time>2026-05-03T14:49:18Z</time></trkpt><trkpt lat="37.7639234" lon="14.4027702"><ele>742.0</ele><time>2026-05-03T14:49:19Z</time></trkpt><trkpt lat="37.7640455" lon="14.4028668"><ele>742.0</ele><time>2026-05-03T14:49:20Z</time></trkpt><trkpt lat="37.7641832" lon="14.4029663"><ele>739.0</ele><time>2026-05-03T14:49:21Z</time></trkpt><trkpt lat="37.7644136" lon="14.4029043"><ele>736.0</ele><time>2026-05-03T14:49:22Z</time></trkpt><trkpt lat="37.7645966" lon="14.4029364"><ele>733.0</ele><time>2026-05-03T14:49:23Z</time></trkpt><trkpt lat="37.7647612" lon="14.4029461"><ele>733.0</ele><time>2026-05-03T14:49:24Z</time></trkpt><trkpt lat="37.7649114" lon="14.4029382"><ele>733.0</ele><time>2026-05-03T14:49:25Z</time></trkpt><trkpt lat="37.7650542" lon="14.4029131"><ele>733.0</ele><time>2026-05-03T14:49:26Z</time></trkpt><trkpt lat="37.7651583" lon="14.402779"><ele>733.0</ele><time>2026-05-03T14:49:27Z</time></trkpt><trkpt lat="37.7652487" lon="14.4026428"><ele>731.75</ele><time>2026-05-03T14:49:28Z</time></trkpt><trkpt lat="37.76531" lon="14.4024888"><ele>730.5</ele><time>2026-05-03T14:49:29Z</time></trkpt><trkpt lat="37.7653339" lon="14.4023208"><ele>729.25</ele><time>2026-05-03T14:49:30Z</time></trkpt><trkpt lat="37.7653208" lon="14.4021581"><ele>728.0</ele><time>2026-05-03T14:49:31Z</time></trkpt><trkpt lat="37.765265" lon="14.4020115"><ele>727.75</ele><time>2026-05-03T14:49:32Z</time></trkpt><trkpt lat="37.7651685" lon="14.4018915"><ele>727.5</ele><time>2026-05-03T14:49:33Z</time></trkpt><trkpt lat="37.7650548" lon="14.4018256"><ele>727.25</ele><time>2026-05-03T14:49:34Z</time></trkpt><trkpt lat="37.7649163" lon="14.4018061"><ele>727.0</ele><time>2026-05-03T14:49:35Z</time></trkpt><trkpt lat="37.7647712" lon="14.4018112"><ele>727.0</ele><time>2026-05-03T14:49:36Z</time></trkpt><trkpt lat="37.7646077" lon="14.4017884"><ele>727.0</ele><time>2026-05-03T14:49:37Z</time></trkpt><trkpt lat="37.7644609" lon="14.4017288"><ele>727.0</ele><time>2026-05-03T14:49:38Z</time></trkpt><trkpt lat="37.7643224" lon="14.4016304"><ele>725.0</ele><time>2026-05-03T14:49:39Z</time></trkpt><trkpt lat="37.7641889" lon="14.4014871"><ele>723.0</ele><time>2026-05-03T14:49:40Z</time></trkpt><trkpt lat="37.7640617" lon="14.4012977"><ele>721.0</ele><time>2026-05-03T14:49:41Z</time></trkpt><trkpt lat="37.7639292" lon="14.4010805"><ele>721.0</ele><time>2026-05-03T14:49:42Z</time></trkpt><trkpt lat="37.7637825" lon="14.4008397"><ele>721.0</ele><time>2026-05-03T14:49:43Z</time></trkpt><trkpt lat="37.7636333" lon="14.4005836"><ele>721.5</ele><time>2026-05-03T14:49:44Z</time></trkpt><trkpt lat="37.7634804" lon="14.4003182"><ele>722.0</ele><time>2026-05-03T14:49:45Z</time></trkpt><trkpt lat="37.7633185" lon="14.4000405"><ele>722.0</ele><time>2026-05-03T14:49:46Z</time></trkpt><trkpt lat="37.7631558" lon="14.3997697"><ele>722.0</ele><time>2026-05-03T14:49:47Z</time></trkpt><trkpt lat="37.7629981" lon="14.3994765"><ele>716.0</ele><time>2026-05-03T14:49:48Z</time></trkpt><trkpt lat="37.7628351" lon="14.3991878"><ele>710.0</ele><time>2026-05-03T14:49:49Z</time></trkpt><trkpt lat="37.7626735" lon="14.3988985"><ele>709.0</ele><time>2026-05-03T14:49:50Z</time></trkpt><trkpt lat="37.7625098" lon="14.3986068"><ele>708.0</ele><time>2026-05-03T14:49:51Z</time></trkpt><trkpt lat="37.7623455" lon="14.3983229"><ele>708.0</ele><time>2026-05-03T14:49:52Z</time></trkpt><trkpt lat="37.7621872" lon="14.39803"><ele>708.0</ele><time>2026-05-03T14:49:53Z</time></trkpt><trkpt lat="37.7620254" lon="14.3977426"><ele>713.5</ele><time>2026-05-03T14:49:54Z</time></trkpt><trkpt lat="37.7618637" lon="14.3974634"><ele>719.0</ele><time>2026-05-03T14:49:55Z</time></trkpt><trkpt lat="37.7617034" lon="14.3971863"><ele>722.0</ele><time>2026-05-03T14:49:56Z</time></trkpt><trkpt lat="37.7615423" lon="14.3969088"><ele>725.0</ele><time>2026-05-03T14:49:57Z</time></trkpt><trkpt lat="37.7606004" lon="14.39465"><ele>711.0</ele><time>2026-05-03T14:50:05Z</time></trkpt><trkpt lat="37.7605238" lon="14.3943657"><ele>697.0</ele><time>2026-05-03T14:50:06Z</time></trkpt><trkpt lat="37.7604539" lon="14.3940656"><ele>690.5</ele><time>2026-05-03T14:50:07Z</time></trkpt><trkpt lat="37.7604227" lon="14.3937388"><ele>684.0</ele><time>2026-05-03T14:50:08Z</time></trkpt><trkpt lat="37.7603882" lon="14.3934365"><ele>684.0</ele><time>2026-05-03T14:50:09Z</time></trkpt><trkpt lat="37.7603799" lon="14.3931227"><ele>684.0</ele><time>2026-05-03T14:50:10Z</time></trkpt><trkpt lat="37.7603777" lon="14.3927991"><ele>678.0</ele><time>2026-05-03T14:50:11Z</time></trkpt><trkpt lat="37.7603784" lon="14.3924707"><ele>672.0</ele><time>2026-05-03T14:50:12Z</time></trkpt><trkpt lat="37.7603871" lon="14.3921398"><ele>670.5</ele><time>2026-05-03T14:50:13Z</time></trkpt><trkpt lat="37.7603954" lon="14.3918045"><ele>669.0</ele><time>2026-05-03T14:50:14Z</time></trkpt><trkpt lat="37.7604029" lon="14.3914679"><ele>668.5</ele><time>2026-05-03T14:50:15Z</time></trkpt><trkpt lat="37.7604038" lon="14.3911285"><ele>668.0</ele><time>2026-05-03T14:50:16Z</time></trkpt><trkpt lat="37.7604087" lon="14.3907859"><ele>666.5</ele><time>2026-05-03T14:50:17Z</time></trkpt><trkpt lat="37.7604196" lon="14.3904424"><ele>665.0</ele><time>2026-05-03T14:50:18Z</time></trkpt><trkpt lat="37.7604238" lon="14.390092"><ele>665.0</ele><time>2026-05-03T14:50:18.999Z</time></trkpt><trkpt lat="37.7604369" lon="14.3897476"><ele>665.0</ele><time>2026-05-03T14:50:20Z</time></trkpt><trkpt lat="37.7604436" lon="14.389399"><ele>659.0</ele><time>2026-05-03T14:50:21Z</time></trkpt><trkpt lat="37.7604461" lon="14.3890456"><ele>653.0</ele><time>2026-05-03T14:50:22Z</time></trkpt><trkpt lat="37.7604547" lon="14.388696"><ele>646.5</ele><time>2026-05-03T14:50:23Z</time></trkpt><trkpt lat="37.7604592" lon="14.38835"><ele>640.0</ele><time>2026-05-03T14:50:24Z</time></trkpt><trkpt lat="37.7604621" lon="14.3880047"><ele>634.5</ele><time>2026-05-03T14:50:25Z</time></trkpt><trkpt lat="37.7604686" lon="14.3876615"><ele>629.0</ele><time>2026-05-03T14:50:26Z</time></trkpt><trkpt lat="37.7604765" lon="14.3873168"><ele>624.0</ele><time>2026-05-03T14:50:27Z</time></trkpt><trkpt lat="37.7604838" lon="14.3869778"><ele>619.0</ele><time>2026-05-03T14:50:28Z</time></trkpt><trkpt lat="37.7604923" lon="14.3866407"><ele>615.5</ele><time>2026-05-03T14:50:29Z</time></trkpt><trkpt lat="37.7604998" lon="14.3863146"><ele>612.0</ele><time>2026-05-03T14:50:30Z</time></trkpt><trkpt lat="37.7605054" lon="14.3859907"><ele>612.0</ele><time>2026-05-03T14:50:31Z</time></trkpt><trkpt lat="37.7605127" lon="14.3856734"><ele>612.0</ele><time>2026-05-03T14:50:32Z</time></trkpt><trkpt lat="37.7605136" lon="14.3853619"><ele>615.0</ele><time>2026-05-03T14:50:33Z</time></trkpt><trkpt lat="37.7605192" lon="14.3850592"><ele>618.0</ele><time>2026-05-03T14:50:34Z</time></trkpt><trkpt lat="37.7605261" lon="14.3847611"><ele>620.5</ele><time>2026-05-03T14:50:35Z</time></trkpt><trkpt lat="37.760531" lon="14.384463"><ele>623.0</ele><time>2026-05-03T14:50:36Z</time></trkpt><trkpt lat="37.7605367" lon="14.3841715"><ele>623.0</ele><time>2026-05-03T14:50:37Z</time></trkpt><trkpt lat="37.7605382" lon="14.3838815"><ele>623.0</ele><time>2026-05-03T14:50:38Z</time></trkpt><trkpt lat="37.7605478" lon="14.3835955"><ele>624.5</ele><time>2026-05-03T14:50:39Z</time></trkpt><trkpt lat="37.7605492" lon="14.3833027"><ele>626.0</ele><time>2026-05-03T14:50:40Z</time></trkpt><trkpt lat="37.7605548" lon="14.3830081"><ele>626.0</ele><time>2026-05-03T14:50:41Z</time></trkpt><trkpt lat="37.7605646" lon="14.3827194"><ele>626.0</ele><time>2026-05-03T14:50:42Z</time></trkpt><trkpt lat="37.7605628" lon="14.3824269"><ele>626.5</ele><time>2026-05-03T14:50:43Z</time></trkpt><trkpt lat="37.7605629" lon="14.3821254"><ele>627.0</ele><time>2026-05-03T14:50:44Z</time></trkpt><trkpt lat="37.7605662" lon="14.3818315"><ele>627.0</ele><time>2026-05-03T14:50:45Z</time></trkpt><trkpt lat="37.7605755" lon="14.3815375"><ele>627.0</ele><time>2026-05-03T14:50:46Z</time></trkpt><trkpt lat="37.7605824" lon="14.3812388"><ele>626.5</ele><time>2026-05-03T14:50:47Z</time></trkpt><trkpt lat="37.7605808" lon="14.3809388"><ele>626.0</ele><time>2026-05-03T14:50:48Z</time></trkpt><trkpt lat="37.7605906" lon="14.3806422"><ele>624.5</ele><time>2026-05-03T14:50:48.999Z</time></trkpt><trkpt lat="37.7606015" lon="14.380346"><ele>623.0</ele><time>2026-05-03T14:50:49.999Z</time></trkpt><trkpt lat="37.7606052" lon="14.3800476"><ele>623.0</ele><time>2026-05-03T14:50:51Z</time></trkpt><trkpt lat="37.7606089" lon="14.3797518"><ele>623.0</ele><time>2026-05-03T14:50:52Z</time></trkpt><trkpt lat="37.7606135" lon="14.3794387"><ele>621.5</ele><time>2026-05-03T14:50:53Z</time></trkpt><trkpt lat="37.7606078" lon="14.3791375"><ele>620.0</ele><time>2026-05-03T14:50:54Z</time></trkpt><trkpt lat="37.7605927" lon="14.3788311"><ele>620.0</ele><time>2026-05-03T14:50:55Z</time></trkpt><trkpt lat="37.7605585" lon="14.3785259"><ele>620.0</ele><time>2026-05-03T14:50:56Z</time></trkpt><trkpt lat="37.7605091" lon="14.3782269"><ele>618.5</ele><time>2026-05-03T14:50:57Z</time></trkpt><trkpt lat="37.7604427" lon="14.3779306"><ele>617.0</ele><time>2026-05-03T14:50:58Z</time></trkpt><trkpt lat="37.7603584" lon="14.3776392"><ele>617.0</ele><time>2026-05-03T14:50:59Z</time></trkpt><trkpt lat="37.7602602" lon="14.3773481"><ele>617.0</ele><time>2026-05-03T14:51:00Z</time></trkpt><trkpt lat="37.7601488" lon="14.3770711"><ele>622.0</ele><time>2026-05-03T14:51:01Z</time></trkpt><trkpt lat="37.7600229" lon="14.376805"><ele>627.0</ele><time>2026-05-03T14:51:02Z</time></trkpt><trkpt lat="37.7598775" lon="14.3765361"><ele>626.0</ele><time>2026-05-03T14:51:03Z</time></trkpt><trkpt lat="37.7597378" lon="14.3762729"><ele>625.0</ele><time>2026-05-03T14:51:04Z</time></trkpt><trkpt lat="37.7595949" lon="14.3760106"><ele>616.0</ele><time>2026-05-03T14:51:05Z</time></trkpt><trkpt lat="37.7580391" lon="14.3746066"><ele>616.0</ele><time>2026-05-03T14:51:12Z</time></trkpt><trkpt lat="37.7578262" lon="14.3744577"><ele>616.0</ele><time>2026-05-03T14:51:13Z</time></trkpt><trkpt lat="37.7575727" lon="14.3742751"><ele>607.5</ele><time>2026-05-03T14:51:14Z</time></trkpt><trkpt lat="37.7573312" lon="14.374064"><ele>599.0</ele><time>2026-05-03T14:51:15Z</time></trkpt><trkpt lat="37.757076" lon="14.3738583"><ele>591.0</ele><time>2026-05-03T14:51:16Z</time></trkpt><trkpt lat="37.7568199" lon="14.3736512"><ele>583.0</ele><time>2026-05-03T14:51:17Z</time></trkpt><trkpt lat="37.7565726" lon="14.3734374"><ele>583.0</ele><time>2026-05-03T14:51:18Z</time></trkpt><trkpt lat="37.7563132" lon="14.3732148"><ele>583.0</ele><time>2026-05-03T14:51:19Z</time></trkpt><trkpt lat="37.7560572" lon="14.3730017"><ele>576.0</ele><time>2026-05-03T14:51:20Z</time></trkpt><trkpt lat="37.7557988" lon="14.3727916"><ele>569.0</ele><time>2026-05-03T14:51:21Z</time></trkpt><trkpt lat="37.7555457" lon="14.3725829"><ele>569.0</ele><time>2026-05-03T14:51:22Z</time></trkpt><trkpt lat="37.7552835" lon="14.3723731"><ele>569.0</ele><time>2026-05-03T14:51:22.999Z</time></trkpt><trkpt lat="37.7550246" lon="14.3721619"><ele>566.5</ele><time>2026-05-03T14:51:24Z</time></trkpt><trkpt lat="37.7547728" lon="14.3719531"><ele>564.0</ele><time>2026-05-03T14:51:25Z</time></trkpt><trkpt lat="37.754525" lon="14.3717509"><ele>565.5</ele><time>2026-05-03T14:51:26Z</time></trkpt><trkpt lat="37.7542715" lon="14.3715484"><ele>567.0</ele><time>2026-05-03T14:51:27Z</time></trkpt><trkpt lat="37.7540249" lon="14.3713414"><ele>565.0</ele><time>2026-05-03T14:51:28Z</time></trkpt><trkpt lat="37.7537765" lon="14.3711352"><ele>563.0</ele><time>2026-05-03T14:51:29Z</time></trkpt><trkpt lat="37.7535328" lon="14.3709301"><ele>563.0</ele><time>2026-05-03T14:51:30Z</time></trkpt><trkpt lat="37.7532822" lon="14.3707213"><ele>563.0</ele><time>2026-05-03T14:51:31Z</time></trkpt><trkpt lat="37.7530308" lon="14.3705138"><ele>561.5</ele><time>2026-05-03T14:51:32Z</time></trkpt><trkpt lat="37.7527786" lon="14.3703026"><ele>560.0</ele><time>2026-05-03T14:51:33Z</time></trkpt><trkpt lat="37.7525265" lon="14.3700973"><ele>560.0</ele><time>2026-05-03T14:51:34Z</time></trkpt><trkpt lat="37.7522856" lon="14.3698987"><ele>560.0</ele><time>2026-05-03T14:51:35Z</time></trkpt><trkpt lat="37.7520549" lon="14.3697066"><ele>558.5</ele><time>2026-05-03T14:51:36Z</time></trkpt><trkpt lat="37.7518495" lon="14.369531"><ele>557.0</ele><time>2026-05-03T14:51:37Z</time></trkpt><trkpt lat="37.7516636" lon="14.3693792"><ele>557.0</ele><time>2026-05-03T14:51:38Z</time></trkpt><trkpt lat="37.7514801" lon="14.3692247"><ele>557.0</ele><time>2026-05-03T14:51:39Z</time></trkpt><trkpt lat="37.7513093" lon="14.3690868"><ele>557.0</ele><time>2026-05-03T14:51:40Z</time></trkpt><trkpt lat="37.7511566" lon="14.3689612"><ele>556.3333333333333</ele><time>2026-05-03T14:51:41Z</time></trkpt><trkpt lat="37.7510109" lon="14.3688395"><ele>555.6666666666666</ele><time>2026-05-03T14:51:42Z</time></trkpt><trkpt lat="37.7508821" lon="14.3687291"><ele>555.0</ele><time>2026-05-03T14:51:43Z</time></trkpt><trkpt lat="37.750768" lon="14.3686187"><ele>555.0</ele><time>2026-05-03T14:51:44Z</time></trkpt><trkpt lat="37.7506766" lon="14.3685092"><ele>555.0</ele><time>2026-05-03T14:51:45Z</time></trkpt><trkpt lat="37.7506111" lon="14.3683845"><ele>555.0</ele><time>2026-05-03T14:51:46Z</time></trkpt><trkpt lat="37.7505759" lon="14.3682514"><ele>555.0</ele><time>2026-05-03T14:51:47Z</time></trkpt><trkpt lat="37.7505865" lon="14.3681172"><ele>553.75</ele><time>2026-05-03T14:51:48Z</time></trkpt><trkpt lat="37.7506278" lon="14.3679712"><ele>552.5</ele><time>2026-05-03T14:51:49Z</time></trkpt><trkpt lat="37.7506697" lon="14.3678405"><ele>551.25</ele><time>2026-05-03T14:51:50Z</time></trkpt><trkpt lat="37.7506825" lon="14.3677018"><ele>550.0</ele><time>2026-05-03T14:51:51Z</time></trkpt><trkpt lat="37.7506686" lon="14.3675657"><ele>550.0</ele><time>2026-05-03T14:51:52Z</time></trkpt><trkpt lat="37.750623" lon="14.3674467"><ele>550.0</ele><time>2026-05-03T14:51:53Z</time></trkpt><trkpt lat="37.750546" lon="14.3673431"><ele>550.0</ele><time>2026-05-03T14:51:54Z</time></trkpt><trkpt lat="37.7504398" lon="14.3672758"><ele>550.0</ele><time>2026-05-03T14:51:55Z</time></trkpt><trkpt lat="37.7503276" lon="14.3672583"><ele>550.0</ele><time>2026-05-03T14:51:56Z</time></trkpt><trkpt lat="37.7502127" lon="14.3672914"><ele>550.25</ele><time>2026-05-03T14:51:57Z</time></trkpt><trkpt lat="37.7500886" lon="14.3673753"><ele>550.5</ele><time>2026-05-03T14:51:58Z</time></trkpt><trkpt lat="37.7499735" lon="14.3674778"><ele>550.75</ele><time>2026-05-03T14:51:59Z</time></trkpt><trkpt lat="37.7498481" lon="14.3675755"><ele>551.0</ele><time>2026-05-03T14:52:00Z</time></trkpt><trkpt lat="37.7497227" lon="14.367661"><ele>551.0</ele><time>2026-05-03T14:52:01Z</time></trkpt><trkpt lat="37.7495627" lon="14.3676878"><ele>551.0</ele><time>2026-05-03T14:52:02Z</time></trkpt><trkpt lat="37.7493938" lon="14.3677275"><ele>551.0</ele><time>2026-05-03T14:52:03Z</time></trkpt><trkpt lat="37.7491298" lon="14.3677268"><ele>552.0</ele><time>2026-05-03T14:52:04Z</time></trkpt><trkpt lat="37.7489378" lon="14.367757"><ele>553.0</ele><time>2026-05-03T14:52:05Z</time></trkpt><trkpt lat="37.7487625" lon="14.3677763"><ele>554.0</ele><time>2026-05-03T14:52:06Z</time></trkpt><trkpt lat="37.7486033" lon="14.3677907"><ele>554.6</ele><time>2026-05-03T14:52:07Z</time></trkpt><trkpt lat="37.7484689" lon="14.3678088"><ele>555.2</ele><time>2026-05-03T14:52:08Z</time></trkpt><trkpt lat="37.7483618" lon="14.3678208"><ele>555.8000000000001</ele><time>2026-05-03T14:52:09Z</time></trkpt><trkpt lat="37.748273" lon="14.3678274"><ele>556.4</ele><time>2026-05-03T14:52:10Z</time></trkpt><trkpt lat="37.7481993" lon="14.3678206"><ele>557.0</ele><time>2026-05-03T14:52:11Z</time></trkpt><trkpt lat="37.7480964" lon="14.3678069"><ele>557.0</ele><time>2026-05-03T14:52:13Z</time></trkpt><trkpt lat="37.7480116" lon="14.367769"><ele>557.0</ele><time>2026-05-03T14:52:15Z</time></trkpt><trkpt lat="37.7479228" lon="14.3676936"><ele>557.0</ele><time>2026-05-03T14:52:16.999Z</time></trkpt><trkpt lat="37.7478786" lon="14.3676271"><ele>557.0</ele><time>2026-05-03T14:52:18Z</time></trkpt><trkpt lat="37.7478415" lon="14.3675314"><ele>557.0</ele><time>2026-05-03T14:52:18.999Z</time></trkpt><trkpt lat="37.7478308" lon="14.36741"><ele>557.0</ele><time>2026-05-03T14:52:20Z</time></trkpt><trkpt lat="37.7478449" lon="14.3672839"><ele>556.0</ele><time>2026-05-03T14:52:21Z</time></trkpt><trkpt lat="37.7478874" lon="14.3671763"><ele>555.0</ele><time>2026-05-03T14:52:22Z</time></trkpt><trkpt lat="37.7479418" lon="14.3671064"><ele>554.0</ele><time>2026-05-03T14:52:22.999Z</time></trkpt><trkpt lat="37.7480129" lon="14.3670542"><ele>553.0</ele><time>2026-05-03T14:52:24Z</time></trkpt><trkpt lat="37.7481102" lon="14.367022"><ele>552.0</ele><time>2026-05-03T14:52:25Z</time></trkpt><trkpt lat="37.7482329" lon="14.3670027"><ele>552.0</ele><time>2026-05-03T14:52:26Z</time></trkpt><trkpt lat="37.7483817" lon="14.36698"><ele>552.0</ele><time>2026-05-03T14:52:27Z</time></trkpt><trkpt lat="37.7485449" lon="14.3669511"><ele>552.0</ele><time>2026-05-03T14:52:28Z</time></trkpt><trkpt lat="37.7487002" lon="14.366926"><ele>552.0</ele><time>2026-05-03T14:52:29Z</time></trkpt><trkpt lat="37.7488577" lon="14.3668989"><ele>552.0</ele><time>2026-05-03T14:52:30Z</time></trkpt><trkpt lat="37.7490123" lon="14.3668768"><ele>552.0</ele><time>2026-05-03T14:52:31Z</time></trkpt><trkpt lat="37.7491815" lon="14.3668623"><ele>552.0</ele><time>2026-05-03T14:52:32Z</time></trkpt><trkpt lat="37.7493471" lon="14.3668371"><ele>552.0</ele><time>2026-05-03T14:52:33Z</time></trkpt><trkpt lat="37.7495372" lon="14.3668174"><ele>552.0</ele><time>2026-05-03T14:52:34Z</time></trkpt><trkpt lat="37.7497436" lon="14.3667897"><ele>552.5</ele><time>2026-05-03T14:52:35Z</time></trkpt><trkpt lat="37.7499689" lon="14.3667622"><ele>553.0</ele><time>2026-05-03T14:52:36Z</time></trkpt><trkpt lat="37.7501978" lon="14.3667345"><ele>552.5</ele><time>2026-05-03T14:52:37Z</time></trkpt><trkpt lat="37.7504381" lon="14.3667063"><ele>552.0</ele><time>2026-05-03T14:52:38Z</time></trkpt><trkpt lat="37.7506568" lon="14.3666782"><ele>552.0</ele><time>2026-05-03T14:52:39Z</time></trkpt><trkpt lat="37.7508722" lon="14.3666635"><ele>552.0</ele><time>2026-05-03T14:52:40Z</time></trkpt><trkpt lat="37.7510756" lon="14.3666447"><ele>552.0</ele><time>2026-05-03T14:52:41Z</time></trkpt><trkpt lat="37.7512471" lon="14.3666161"><ele>552.0</ele><time>2026-05-03T14:52:42Z</time></trkpt><trkpt lat="37.7513969" lon="14.3665748"><ele>552.0</ele><time>2026-05-03T14:52:43Z</time></trkpt><trkpt lat="37.7515227" lon="14.3665123"><ele>552.0</ele><time>2026-05-03T14:52:44Z</time></trkpt><trkpt lat="37.7516116" lon="14.366415"><ele>552.0</ele><time>2026-05-03T14:52:45Z</time></trkpt><trkpt lat="37.7516499" lon="14.3662967"><ele>554.75</ele><time>2026-05-03T14:52:46Z</time></trkpt><trkpt lat="37.7516724" lon="14.3661781"><ele>557.5</ele><time>2026-05-03T14:52:47Z</time></trkpt><trkpt lat="37.7515564" lon="14.3660361"><ele>560.25</ele><time>2026-05-03T14:52:48Z</time></trkpt><trkpt lat="37.7514448" lon="14.3659081"><ele>563.0</ele><time>2026-05-03T14:52:49Z</time></trkpt><trkpt lat="37.7512862" lon="14.365776"><ele>563.0</ele><time>2026-05-03T14:52:50Z</time></trkpt><trkpt lat="37.7511114" lon="14.3656382"><ele>563.0</ele><time>2026-05-03T14:52:51Z</time></trkpt><trkpt lat="37.7509326" lon="14.365476"><ele>563.0</ele><time>2026-05-03T14:52:52Z</time></trkpt><trkpt lat="37.7507703" lon="14.3652975"><ele>568.0</ele><time>2026-05-03T14:52:53Z</time></trkpt><trkpt lat="37.7506124" lon="14.3650648"><ele>573.0</ele><time>2026-05-03T14:52:54Z</time></trkpt><trkpt lat="37.750449" lon="14.3647935"><ele>575.0</ele><time>2026-05-03T14:52:55Z</time></trkpt><trkpt lat="37.7502781" lon="14.364501"><ele>577.0</ele><time>2026-05-03T14:52:56Z</time></trkpt><trkpt lat="37.7501016" lon="14.364202"><ele>578.5</ele><time>2026-05-03T14:52:57Z</time></trkpt><trkpt lat="37.7499327" lon="14.3639175"><ele>580.0</ele><time>2026-05-03T14:52:58Z</time></trkpt><trkpt lat="37.7497853" lon="14.3636786"><ele>580.0</ele><time>2026-05-03T14:52:59Z</time></trkpt><trkpt lat="37.7496564" lon="14.3634722"><ele>580.0</ele><time>2026-05-03T14:53:00Z</time></trkpt><trkpt lat="37.7495634" lon="14.3632689"><ele>580.0</ele><time>2026-05-03T14:53:01Z</time></trkpt><trkpt lat="37.7495213" lon="14.3630766"><ele>583.6666666666667</ele><time>2026-05-03T14:53:02Z</time></trkpt><trkpt lat="37.749519" lon="14.3628563"><ele>587.3333333333334</ele><time>2026-05-03T14:53:03Z</time></trkpt><trkpt lat="37.7495558" lon="14.3625909"><ele>591.0</ele><time>2026-05-03T14:53:04Z</time></trkpt><trkpt lat="37.7496149" lon="14.362296"><ele>590.0</ele><time>2026-05-03T14:53:05Z</time></trkpt><trkpt lat="37.7496755" lon="14.3619855"><ele>589.0</ele><time>2026-05-03T14:53:06Z</time></trkpt><trkpt lat="37.7497306" lon="14.3616997"><ele>589.0</ele><time>2026-05-03T14:53:07Z</time></trkpt><trkpt lat="37.7497793" lon="14.3614408"><ele>589.0</ele><time>2026-05-03T14:53:08Z</time></trkpt><trkpt lat="37.7498207" lon="14.3612088"><ele>589.0</ele><time>2026-05-03T14:53:09Z</time></trkpt><trkpt lat="37.7498293" lon="14.3609999"><ele>589.4</ele><time>2026-05-03T14:53:10Z</time></trkpt><trkpt lat="37.7498069" lon="14.3608219"><ele>589.8</ele><time>2026-05-03T14:53:11Z</time></trkpt><trkpt lat="37.7497563" lon="14.3606904"><ele>590.2</ele><time>2026-05-03T14:53:12Z</time></trkpt><trkpt lat="37.749715" lon="14.3605807"><ele>590.6</ele><time>2026-05-03T14:53:13Z</time></trkpt><trkpt lat="37.7497128" lon="14.3604726"><ele>591.0</ele><time>2026-05-03T14:53:14Z</time></trkpt><trkpt lat="37.7497522" lon="14.3603676"><ele>591.0</ele><time>2026-05-03T14:53:15Z</time></trkpt><trkpt lat="37.7498255" lon="14.3603114"><ele>591.0</ele><time>2026-05-03T14:53:16Z</time></trkpt><trkpt lat="37.7499072" lon="14.3602992"><ele>591.0</ele><time>2026-05-03T14:53:17Z</time></trkpt><trkpt lat="37.7499815" lon="14.360356"><ele>591.0</ele><time>2026-05-03T14:53:18Z</time></trkpt><trkpt lat="37.7500319" lon="14.3604609"><ele>591.0</ele><time>2026-05-03T14:53:19Z</time></trkpt><trkpt lat="37.7500556" lon="14.3606154"><ele>591.0</ele><time>2026-05-03T14:53:20Z</time></trkpt><trkpt lat="37.7500709" lon="14.3608197"><ele>591.0</ele><time>2026-05-03T14:53:21Z</time></trkpt><trkpt lat="37.7500961" lon="14.3610798"><ele>591.0</ele><time>2026-05-03T14:53:21.999Z</time></trkpt><trkpt lat="37.7501357" lon="14.361348"><ele>590.3333333333334</ele><time>2026-05-03T14:53:23Z</time></trkpt><trkpt lat="37.7501971" lon="14.3615762"><ele>589.6666666666667</ele><time>2026-05-03T14:53:24Z</time></trkpt><trkpt lat="37.7502787" lon="14.3617796"><ele>589.0</ele><time>2026-05-03T14:53:25Z</time></trkpt><trkpt lat="37.7503734" lon="14.3619284"><ele>592.5</ele><time>2026-05-03T14:53:26Z</time></trkpt><trkpt lat="37.750478" lon="14.3620325"><ele>596.0</ele><time>2026-05-03T14:53:27Z</time></trkpt><trkpt lat="37.7505925" lon="14.3620917"><ele>599.5</ele><time>2026-05-03T14:53:28Z</time></trkpt><trkpt lat="37.7507258" lon="14.3620813"><ele>603.0</ele><time>2026-05-03T14:53:29Z</time></trkpt><trkpt lat="37.7508675" lon="14.3620101"><ele>603.0</ele><time>2026-05-03T14:53:30Z</time></trkpt><trkpt lat="37.7510133" lon="14.3619288"><ele>603.0</ele><time>2026-05-03T14:53:31Z</time></trkpt><trkpt lat="37.7511766" lon="14.3618884"><ele>603.0</ele><time>2026-05-03T14:53:32Z</time></trkpt><trkpt lat="37.7513427" lon="14.3618897"><ele>604.6666666666666</ele><time>2026-05-03T14:53:33Z</time></trkpt><trkpt lat="37.7514912" lon="14.3619233"><ele>606.3333333333333</ele><time>2026-05-03T14:53:34Z</time></trkpt><trkpt lat="37.7516462" lon="14.3619664"><ele>608.0</ele><time>2026-05-03T14:53:35Z</time></trkpt><trkpt lat="37.7517963" lon="14.3620119"><ele>608.75</ele><time>2026-05-03T14:53:36Z</time></trkpt><trkpt lat="37.751937" lon="14.3620782"><ele>609.5</ele><time>2026-05-03T14:53:37Z</time></trkpt><trkpt lat="37.7520537" lon="14.3621788"><ele>610.25</ele><time>2026-05-03T14:53:38Z</time></trkpt><trkpt lat="37.7521499" lon="14.3623232"><ele>611.0</ele><time>2026-05-03T14:53:39Z</time></trkpt><trkpt lat="37.7522374" lon="14.362485"><ele>611.0</ele><time>2026-05-03T14:53:40Z</time></trkpt><trkpt lat="37.7523423" lon="14.3626245"><ele>611.0</ele><time>2026-05-03T14:53:41Z</time></trkpt><trkpt lat="37.7524727" lon="14.3627381"><ele>611.0</ele><time>2026-05-03T14:53:42Z</time></trkpt><trkpt lat="37.7526123" lon="14.36281"><ele>613.0</ele><time>2026-05-03T14:53:43Z</time></trkpt><trkpt lat="37.7527647" lon="14.3628393"><ele>615.0</ele><time>2026-05-03T14:53:44Z</time></trkpt><trkpt lat="37.75294" lon="14.3628165"><ele>617.0</ele><time>2026-05-03T14:53:45Z</time></trkpt><trkpt lat="37.7531352" lon="14.3627373"><ele>617.0</ele><time>2026-05-03T14:53:46Z</time></trkpt><trkpt lat="37.7533279" lon="14.3626244"><ele>617.0</ele><time>2026-05-03T14:53:47Z</time></trkpt><trkpt lat="37.753492" lon="14.3624883"><ele>617.0</ele><time>2026-05-03T14:53:48Z</time></trkpt><trkpt lat="37.7536242" lon="14.3623446"><ele>616.75</ele><time>2026-05-03T14:53:49Z</time></trkpt><trkpt lat="37.7537369" lon="14.3622136"><ele>616.5</ele><time>2026-05-03T14:53:50Z</time></trkpt><trkpt lat="37.7538552" lon="14.3621169"><ele>616.25</ele><time>2026-05-03T14:53:51Z</time></trkpt><trkpt lat="37.753986" lon="14.3620612"><ele>616.0</ele><time>2026-05-03T14:53:52Z</time></trkpt><trkpt lat="37.7541305" lon="14.3620633"><ele>617.6666666666667</ele><time>2026-05-03T14:53:53Z</time></trkpt><trkpt lat="37.7542782" lon="14.3621266"><ele>619.3333333333334</ele><time>2026-05-03T14:53:54Z</time></trkpt><trkpt lat="37.7544215" lon="14.3622441"><ele>621.0</ele><time>2026-05-03T14:53:55Z</time></trkpt><trkpt lat="37.7545461" lon="14.3623619"><ele>621.0</ele><time>2026-05-03T14:53:56Z</time></trkpt><trkpt lat="37.7546736" lon="14.3624649"><ele>621.0</ele><time>2026-05-03T14:53:57Z</time></trkpt><trkpt lat="37.7548129" lon="14.3625268"><ele>621.0</ele><time>2026-05-03T14:53:58Z</time></trkpt><trkpt lat="37.7549607" lon="14.362532"><ele>621.0</ele><time>2026-05-03T14:53:59Z</time></trkpt><trkpt lat="37.7551089" lon="14.3624831"><ele>621.6666666666666</ele><time>2026-05-03T14:54:00Z</time></trkpt><trkpt lat="37.7552472" lon="14.362402"><ele>622.3333333333333</ele><time>2026-05-03T14:54:01Z</time></trkpt><trkpt lat="37.7553852" lon="14.3622159"><ele>623.0</ele><time>2026-05-03T14:54:02Z</time></trkpt><trkpt lat="37.7555197" lon="14.3619915"><ele>623.0</ele><time>2026-05-03T14:54:03Z</time></trkpt><trkpt lat="37.7556692" lon="14.3617349"><ele>623.0</ele><time>2026-05-03T14:54:04Z</time></trkpt><trkpt lat="37.7558325" lon="14.361453"><ele>623.0</ele><time>2026-05-03T14:54:05Z</time></trkpt><trkpt lat="37.7559897" lon="14.3611805"><ele>623.0</ele><time>2026-05-03T14:54:06Z</time></trkpt><trkpt lat="37.756142" lon="14.3609387"><ele>623.0</ele><time>2026-05-03T14:54:06.999Z</time></trkpt><trkpt lat="37.7562964" lon="14.3606801"><ele>623.0</ele><time>2026-05-03T14:54:08Z</time></trkpt><trkpt lat="37.7564351" lon="14.3603662"><ele>628.0</ele><time>2026-05-03T14:54:09Z</time></trkpt><trkpt lat="37.7565462" lon="14.3600219"><ele>633.0</ele><time>2026-05-03T14:54:10Z</time></trkpt><trkpt lat="37.7566567" lon="14.3596863"><ele>633.0</ele><time>2026-05-03T14:54:11Z</time></trkpt><trkpt lat="37.7567818" lon="14.3593893"><ele>633.0</ele><time>2026-05-03T14:54:12Z</time></trkpt><trkpt lat="37.7568993" lon="14.3591019"><ele>636.6666666666666</ele><time>2026-05-03T14:54:13Z</time></trkpt><trkpt lat="37.7570202" lon="14.3588418"><ele>640.3333333333333</ele><time>2026-05-03T14:54:14Z</time></trkpt><trkpt lat="37.7571451" lon="14.3586514"><ele>644.0</ele><time>2026-05-03T14:54:15Z</time></trkpt><trkpt lat="37.7572639" lon="14.3584805"><ele>644.0</ele><time>2026-05-03T14:54:16Z</time></trkpt><trkpt lat="37.7573501" lon="14.3582965"><ele>644.0</ele><time>2026-05-03T14:54:17Z</time></trkpt><trkpt lat="37.757402" lon="14.3581006"><ele>644.0</ele><time>2026-05-03T14:54:18Z</time></trkpt><trkpt lat="37.757432" lon="14.3578961"><ele>646.0</ele><time>2026-05-03T14:54:19Z</time></trkpt><trkpt lat="37.7574442" lon="14.357672"><ele>648.0</ele><time>2026-05-03T14:54:20Z</time></trkpt><trkpt lat="37.7574469" lon="14.357456"><ele>650.0</ele><time>2026-05-03T14:54:21Z</time></trkpt><trkpt lat="37.7574601" lon="14.3572561"><ele>651.3333333333333</ele><time>2026-05-03T14:54:22Z</time></trkpt><trkpt lat="37.7574862" lon="14.3570709"><ele>652.6666666666666</ele><time>2026-05-03T14:54:23Z</time></trkpt><trkpt lat="37.7575409" lon="14.3568948"><ele>654.0</ele><time>2026-05-03T14:54:24Z</time></trkpt><trkpt lat="37.7576272" lon="14.3567349"><ele>652.6666666666666</ele><time>2026-05-03T14:54:25Z</time></trkpt><trkpt lat="37.757739" lon="14.3565966"><ele>651.3333333333333</ele><time>2026-05-03T14:54:26Z</time></trkpt><trkpt lat="37.7578777" lon="14.356481"><ele>650.0</ele><time>2026-05-03T14:54:27Z</time></trkpt><trkpt lat="37.7580494" lon="14.3563696"><ele>652.6666666666666</ele><time>2026-05-03T14:54:28Z</time></trkpt><trkpt lat="37.7582428" lon="14.3562604"><ele>655.3333333333334</ele><time>2026-05-03T14:54:29Z</time></trkpt><trkpt lat="37.7584413" lon="14.3561542"><ele>658.0</ele><time>2026-05-03T14:54:30Z</time></trkpt><trkpt lat="37.7586298" lon="14.3560455"><ele>658.0</ele><time>2026-05-03T14:54:31Z</time></trkpt><trkpt lat="37.7588082" lon="14.3559569"><ele>658.0</ele><time>2026-05-03T14:54:32Z</time></trkpt><trkpt lat="37.7589598" lon="14.3559004"><ele>658.0</ele><time>2026-05-03T14:54:33Z</time></trkpt><trkpt lat="37.7590888" lon="14.3558724"><ele>658.0</ele><time>2026-05-03T14:54:34Z</time></trkpt><trkpt lat="37.7591861" lon="14.3558753"><ele>658.0</ele><time>2026-05-03T14:54:35Z</time></trkpt><trkpt lat="37.7592526" lon="14.3558801"><ele>658.0</ele><time>2026-05-03T14:54:36Z</time></trkpt><trkpt lat="37.7593256" lon="14.3558622"><ele>658.0</ele><time>2026-05-03T14:54:38Z</time></trkpt><trkpt lat="37.7593888" lon="14.355816"><ele>660.0</ele><time>2026-05-03T14:54:41Z</time></trkpt></trkseg></trk></gpx>